<?xml version='1.0' encoding='UTF-8'?><gpx version="1.1" creator="JPX - https://github.com/jenetics/jpx" xmlns="http://www.topografix.com/GPX/1/1"><trk><trkseg><trkpt lat="44.90783577185385" lon="8.866278791592228"><ele>110.0</ele><time>2026-03-29T09:22:02Z</time></trkpt><trkpt lat="44.907746961326566" lon="8.866233640646952"><ele>110.0</ele><time>2026-03-29T09:22:04Z</time></trkpt><trkpt lat="44.90767550260953" lon="8.86626151805554"><ele>110.0</ele><time>2026-03-29T09:22:10Z</time></trkpt><trkpt lat="44.907628096921016" lon="8.866395187732465"><ele>110.0</ele><time>2026-03-29T09:22:12Z</time></trkpt><trkpt lat="44.90762265384131" lon="8.866529055584545"><ele>110.0</ele><time>2026-03-29T09:22:13Z</time></trkpt><trkpt lat="44.907627529490426" lon="8.866692591311542"><ele>110.2</ele><time>2026-03-29T09:22:14Z</time></trkpt><trkpt lat="44.907634720845486" lon="8.866825958838382"><ele>110.4</ele><time>2026-03-29T09:22:15Z</time></trkpt><trkpt lat="44.907637576939344" lon="8.866967624511625"><ele>110.6</ele><time>2026-03-29T09:22:16Z</time></trkpt><trkpt lat="44.90764144938981" lon="8.867107548700556"><ele>110.8</ele><time>2026-03-29T09:22:17Z</time></trkpt><trkpt lat="44.907641341979556" lon="8.867257870264991"><ele>111.0</ele><time>2026-03-29T09:22:18Z</time></trkpt><trkpt lat="44.90764225991831" lon="8.867414097375974"><ele>111.0</ele><time>2026-03-29T09:22:19Z</time></trkpt><trkpt lat="44.907634227870155" lon="8.867593639918807"><ele>111.0</ele><time>2026-03-29T09:22:20Z</time></trkpt><trkpt lat="44.90763333300305" lon="8.867757404782592"><ele>111.0</ele><time>2026-03-29T09:22:21Z</time></trkpt><trkpt lat="44.907639240995984" lon="8.867915486887993"><ele>111.0</ele><time>2026-03-29T09:22:22Z</time></trkpt><trkpt lat="44.90764496484843" lon="8.868076318991907"><ele>111.0</ele><time>2026-03-29T09:22:23Z</time></trkpt><trkpt lat="44.90763968641287" lon="8.868234545610944"><ele>111.0</ele><time>2026-03-29T09:22:24Z</time></trkpt><trkpt lat="44.90764277009488" lon="8.86839273543914"><ele>111.0</ele><time>2026-03-29T09:22:25Z</time></trkpt><trkpt lat="44.90764090281831" lon="8.868559661736382"><ele>111.0</ele><time>2026-03-29T09:22:26Z</time></trkpt><trkpt lat="44.90763905682407" lon="8.868740936137723"><ele>111.0</ele><time>2026-03-29T09:22:27Z</time></trkpt><trkpt lat="44.907642316726395" lon="8.86891905997867"><ele>111.0</ele><time>2026-03-29T09:22:28Z</time></trkpt><trkpt lat="44.90764717535914" lon="8.869089810146546"><ele>111.0</ele><time>2026-03-29T09:22:29Z</time></trkpt><trkpt lat="44.90764752300611" lon="8.869252732825688"><ele>111.0</ele><time>2026-03-29T09:22:30Z</time></trkpt><trkpt lat="44.907646449544885" lon="8.869410364896105"><ele>111.0</ele><time>2026-03-29T09:22:31Z</time></trkpt><trkpt lat="44.907643343394" lon="8.869557487442487"><ele>111.0</ele><time>2026-03-29T09:22:32Z</time></trkpt><trkpt lat="44.907630013675494" lon="8.869699391819257"><ele>111.0</ele><time>2026-03-29T09:22:33Z</time></trkpt><trkpt lat="44.90760621104089" lon="8.869843384374484"><ele>111.0</ele><time>2026-03-29T09:22:34Z</time></trkpt><trkpt lat="44.90759007466759" lon="8.869981174571395"><ele>111.0</ele><time>2026-03-29T09:22:35Z</time></trkpt><trkpt lat="44.90760519352508" lon="8.870146133195632"><ele>110.75</ele><time>2026-03-29T09:22:36Z</time></trkpt><trkpt lat="44.907637109906645" lon="8.870309610146052"><ele>110.5</ele><time>2026-03-29T09:22:37Z</time></trkpt><trkpt lat="44.90765714535108" lon="8.87048495864202"><ele>110.25</ele><time>2026-03-29T09:22:38Z</time></trkpt><trkpt lat="44.9076617480983" lon="8.870676871081276"><ele>110.0</ele><time>2026-03-29T09:22:39Z</time></trkpt><trkpt lat="44.90766282508815" lon="8.870886855692957"><ele>109.66666666666666</ele><time>2026-03-29T09:22:40Z</time></trkpt><trkpt lat="44.90766313244429" lon="8.871117701810432"><ele>109.33333333333334</ele><time>2026-03-29T09:22:41Z</time></trkpt><trkpt lat="44.907664064763225" lon="8.87136304492824"><ele>109.0</ele><time>2026-03-29T09:22:42Z</time></trkpt><trkpt lat="44.90766339206794" lon="8.871601511441073"><ele>109.0</ele><time>2026-03-29T09:22:43Z</time></trkpt><trkpt lat="44.90766529871395" lon="8.871835983115542"><ele>109.0</ele><time>2026-03-29T09:22:44Z</time></trkpt><trkpt lat="44.907667430203965" lon="8.872076253538077"><ele>109.0</ele><time>2026-03-29T09:22:45Z</time></trkpt><trkpt lat="44.90767049604536" lon="8.872324850539366"><ele>109.0</ele><time>2026-03-29T09:22:46Z</time></trkpt><trkpt lat="44.90766984462257" lon="8.872574142603618"><ele>109.0</ele><time>2026-03-29T09:22:47Z</time></trkpt><trkpt lat="44.90766706671354" lon="8.872823363965386"><ele>109.0</ele><time>2026-03-29T09:22:48Z</time></trkpt><trkpt lat="44.907666964640356" lon="8.873076514904923"><ele>109.0</ele><time>2026-03-29T09:22:49Z</time></trkpt><trkpt lat="44.907672913563026" lon="8.873329574925462"><ele>109.0</ele><time>2026-03-29T09:22:50Z</time></trkpt><trkpt lat="44.90767706874472" lon="8.873584689537777"><ele>109.0</ele><time>2026-03-29T09:22:51Z</time></trkpt><trkpt lat="44.90767770042355" lon="8.873843767245738"><ele>109.33333333333334</ele><time>2026-03-29T09:22:52Z</time></trkpt><trkpt lat="44.90768073865453" lon="8.874110418410948"><ele>109.66666666666666</ele><time>2026-03-29T09:22:53Z</time></trkpt><trkpt lat="44.90768343769167" lon="8.874378329737443"><ele>110.0</ele><time>2026-03-29T09:22:53.999Z</time></trkpt><trkpt lat="44.907684347003546" lon="8.874656429733166"><ele>110.66666666666666</ele><time>2026-03-29T09:22:54.999Z</time></trkpt><trkpt lat="44.90768858284165" lon="8.874941356855818"><ele>111.33333333333334</ele><time>2026-03-29T09:22:55.999Z</time></trkpt><trkpt lat="44.90769091036503" lon="8.875229514925604"><ele>112.0</ele><time>2026-03-29T09:22:56.999Z</time></trkpt><trkpt lat="44.907695135221815" lon="8.875507272636897"><ele>112.0</ele><time>2026-03-29T09:22:57.999Z</time></trkpt><trkpt lat="44.90769921105497" lon="8.875771282613725"><ele>112.0</ele><time>2026-03-29T09:22:58.999Z</time></trkpt><trkpt lat="44.90770055331015" lon="8.876029807474174"><ele>112.0</ele><time>2026-03-29T09:22:59.999Z</time></trkpt><trkpt lat="44.90770262256211" lon="8.8762866421296"><ele>112.33333333333334</ele><time>2026-03-29T09:23:00.999Z</time></trkpt><trkpt lat="44.907705317780746" lon="8.876538203130796"><ele>112.66666666666666</ele><time>2026-03-29T09:23:01.999Z</time></trkpt><trkpt lat="44.9077076792919" lon="8.876789319281421"><ele>113.0</ele><time>2026-03-29T09:23:02.999Z</time></trkpt><trkpt lat="44.90770990212097" lon="8.877030836374448"><ele>113.33333333333333</ele><time>2026-03-29T09:23:03.999Z</time></trkpt><trkpt lat="44.90771126448879" lon="8.877255905818194"><ele>113.66666666666666</ele><time>2026-03-29T09:23:04.999Z</time></trkpt><trkpt lat="44.90771334677915" lon="8.877478766305826"><ele>114.0</ele><time>2026-03-29T09:23:05.999Z</time></trkpt><trkpt lat="44.90771587187991" lon="8.877686822522495"><ele>114.2</ele><time>2026-03-29T09:23:06.999Z</time></trkpt><trkpt lat="44.90771740085759" lon="8.877870611541415"><ele>114.4</ele><time>2026-03-29T09:23:07.999Z</time></trkpt><trkpt lat="44.90772045772333" lon="8.87803614741579"><ele>114.6</ele><time>2026-03-29T09:23:08.999Z</time></trkpt><trkpt lat="44.90772230312925" lon="8.878187379406654"><ele>114.8</ele><time>2026-03-29T09:23:09.999Z</time></trkpt><trkpt lat="44.90772107291302" lon="8.878314411545473"><ele>115.0</ele><time>2026-03-29T09:23:10.999Z</time></trkpt><trkpt lat="44.907715887493765" lon="8.878432874973498"><ele>114.6</ele><time>2026-03-29T09:23:11.999Z</time></trkpt><trkpt lat="44.90770021251241" lon="8.878562610965808"><ele>114.2</ele><time>2026-03-29T09:23:12.999Z</time></trkpt><trkpt lat="44.90768404905726" lon="8.878709442470493"><ele>113.80000000000001</ele><time>2026-03-29T09:23:13.999Z</time></trkpt><trkpt lat="44.907686794793364" lon="8.878877241119897"><ele>113.4</ele><time>2026-03-29T09:23:14.999Z</time></trkpt><trkpt lat="44.90769608690334" lon="8.879059699685333"><ele>113.0</ele><time>2026-03-29T09:23:15.999Z</time></trkpt><trkpt lat="44.907702204191835" lon="8.87926332314077"><ele>113.0</ele><time>2026-03-29T09:23:16.999Z</time></trkpt><trkpt lat="44.90770136343244" lon="8.879481702870896"><ele>113.0</ele><time>2026-03-29T09:23:17.999Z</time></trkpt><trkpt lat="44.907705673989305" lon="8.87969541150505"><ele>113.0</ele><time>2026-03-29T09:23:18.999Z</time></trkpt><trkpt lat="44.90771355806522" lon="8.879905930377431"><ele>114.0</ele><time>2026-03-29T09:23:19.999Z</time></trkpt><trkpt lat="44.90772435806709" lon="8.880119562944879"><ele>115.0</ele><time>2026-03-29T09:23:20.999Z</time></trkpt><trkpt lat="44.907742492179835" lon="8.880339638332186"><ele>116.0</ele><time>2026-03-29T09:23:21.999Z</time></trkpt><trkpt lat="44.90776811296553" lon="8.880572235593718"><ele>116.0</ele><time>2026-03-29T09:23:22.999Z</time></trkpt><trkpt lat="44.90780466526708" lon="8.88080525587543"><ele>116.0</ele><time>2026-03-29T09:23:23.999Z</time></trkpt><trkpt lat="44.90785144461223" lon="8.881038881312017"><ele>116.0</ele><time>2026-03-29T09:23:24.999Z</time></trkpt><trkpt lat="44.90790807489261" lon="8.881268000127271"><ele>115.0</ele><time>2026-03-29T09:23:25.999Z</time></trkpt><trkpt lat="44.907972893037744" lon="8.881501627606795"><ele>114.0</ele><time>2026-03-29T09:23:26.999Z</time></trkpt><trkpt lat="44.908044881704264" lon="8.881732449421587"><ele>113.0</ele><time>2026-03-29T09:23:27.999Z</time></trkpt><trkpt lat="44.908122683798894" lon="8.8819618749404"><ele>113.0</ele><time>2026-03-29T09:23:28.999Z</time></trkpt><trkpt lat="44.9082003491875" lon="8.882194825357463"><ele>113.0</ele><time>2026-03-29T09:23:29.999Z</time></trkpt><trkpt lat="44.908272443004236" lon="8.882432451136157"><ele>113.0</ele><time>2026-03-29T09:23:30.999Z</time></trkpt><trkpt lat="44.908334697167604" lon="8.882679325345396"><ele>113.0</ele><time>2026-03-29T09:23:31.999Z</time></trkpt><trkpt lat="44.90836898139894" lon="8.882941209666537"><ele>113.0</ele><time>2026-03-29T09:23:32.999Z</time></trkpt><trkpt lat="44.90838022494738" lon="8.883211484115956"><ele>113.0</ele><time>2026-03-29T09:23:33.999Z</time></trkpt><trkpt lat="44.90836661975746" lon="8.883474859132914"><ele>113.0</ele><time>2026-03-29T09:23:34.999Z</time></trkpt><trkpt lat="44.908337875678995" lon="8.883710456139623"><ele>113.0</ele><time>2026-03-29T09:23:35.999Z</time></trkpt><trkpt lat="44.908305065126875" lon="8.883924152018583"><ele>113.0</ele><time>2026-03-29T09:23:36.999Z</time></trkpt><trkpt lat="44.90827275699142" lon="8.884121727507237"><ele>112.60000000000001</ele><time>2026-03-29T09:23:37.999Z</time></trkpt><trkpt lat="44.90824292244277" lon="8.884295177752941"><ele>112.20000000000002</ele><time>2026-03-29T09:23:38.999Z</time></trkpt><trkpt lat="44.90821519232208" lon="8.884444379164565"><ele>111.8</ele><time>2026-03-29T09:23:39.999Z</time></trkpt><trkpt lat="44.90818881093556" lon="8.884580276728379"><ele>111.4</ele><time>2026-03-29T09:23:40.999Z</time></trkpt><trkpt lat="44.90816579241346" lon="8.884713179277746"><ele>111.0</ele><time>2026-03-29T09:23:41.999Z</time></trkpt><trkpt lat="44.908140134428955" lon="8.884838348016416"><ele>111.0</ele><time>2026-03-29T09:23:42.999Z</time></trkpt><trkpt lat="44.90811071584317" lon="8.884954400742645"><ele>111.0</ele><time>2026-03-29T09:23:43.999Z</time></trkpt><trkpt lat="44.90807586507209" lon="8.885050101413247"><ele>111.0</ele><time>2026-03-29T09:23:44.999Z</time></trkpt><trkpt lat="44.90802766771902" lon="8.885136405480582"><ele>111.0</ele><time>2026-03-29T09:23:45.999Z</time></trkpt><trkpt lat="44.9079688257254" lon="8.885207546992472"><ele>111.0</ele><time>2026-03-29T09:23:46.999Z</time></trkpt><trkpt lat="44.907915269454534" lon="8.88528102640419"><ele>111.0</ele><time>2026-03-29T09:23:47.999Z</time></trkpt><trkpt lat="44.90788661170774" lon="8.885376848099522"><ele>111.0</ele><time>2026-03-29T09:23:48.999Z</time></trkpt><trkpt lat="44.90788949993342" lon="8.88549119213641"><ele>111.0</ele><time>2026-03-29T09:23:49.999Z</time></trkpt><trkpt lat="44.90792195483216" lon="8.885617451066462"><ele>111.0</ele><time>2026-03-29T09:23:50.999Z</time></trkpt><trkpt lat="44.90794897858498" lon="8.88575507652934"><ele>111.0</ele><time>2026-03-29T09:23:51.999Z</time></trkpt><trkpt lat="44.90795632461399" lon="8.88591606773308"><ele>111.0</ele><time>2026-03-29T09:23:52.999Z</time></trkpt><trkpt lat="44.907947704752594" lon="8.886092779071939"><ele>111.0</ele><time>2026-03-29T09:23:53.999Z</time></trkpt><trkpt lat="44.907934548842" lon="8.886286176032955"><ele>111.0</ele><time>2026-03-29T09:23:54.999Z</time></trkpt><trkpt lat="44.90792002862494" lon="8.886494969223563"><ele>111.0</ele><time>2026-03-29T09:23:55.998Z</time></trkpt><trkpt lat="44.90790747895393" lon="8.886698637234188"><ele>111.0</ele><time>2026-03-29T09:23:56.998Z</time></trkpt><trkpt lat="44.907892243403936" lon="8.886899794228972"><ele>110.66666666666666</ele><time>2026-03-29T09:23:57.998Z</time></trkpt><trkpt lat="44.90787156910627" lon="8.887110394095867"><ele>110.33333333333333</ele><time>2026-03-29T09:23:59Z</time></trkpt><trkpt lat="44.90784641726101" lon="8.887328136298883"><ele>110.0</ele><time>2026-03-29T09:24:00Z</time></trkpt><trkpt lat="44.90781696638568" lon="8.887550955959165"><ele>110.0</ele><time>2026-03-29T09:24:01Z</time></trkpt><trkpt lat="44.907783735881466" lon="8.88778534381566"><ele>110.0</ele><time>2026-03-29T09:24:02Z</time></trkpt><trkpt lat="44.907749926366385" lon="8.8880221023101"><ele>110.0</ele><time>2026-03-29T09:24:03Z</time></trkpt><trkpt lat="44.907717110802785" lon="8.888263698354875"><ele>110.66666666666666</ele><time>2026-03-29T09:24:04Z</time></trkpt><trkpt lat="44.90768431481569" lon="8.888517480024525"><ele>111.33333333333334</ele><time>2026-03-29T09:24:05Z</time></trkpt><trkpt lat="44.9076524113098" lon="8.88878328697232"><ele>112.0</ele><time>2026-03-29T09:24:06Z</time></trkpt><trkpt lat="44.907616325968796" lon="8.889057991880033"><ele>112.0</ele><time>2026-03-29T09:24:07Z</time></trkpt><trkpt lat="44.90757732393285" lon="8.889342556524133"><ele>112.0</ele><time>2026-03-29T09:24:08Z</time></trkpt><trkpt lat="44.90754074854833" lon="8.889609293543883"><ele>112.0</ele><time>2026-03-29T09:24:09Z</time></trkpt><trkpt lat="44.90750291379297" lon="8.889873608931621"><ele>111.66666666666667</ele><time>2026-03-29T09:24:10Z</time></trkpt><trkpt lat="44.907466698791794" lon="8.890141720890872"><ele>111.33333333333334</ele><time>2026-03-29T09:24:11Z</time></trkpt><trkpt lat="44.90743210253293" lon="8.890407258171058"><ele>111.0</ele><time>2026-03-29T09:24:12Z</time></trkpt><trkpt lat="44.90739834125487" lon="8.890669235419669"><ele>111.0</ele><time>2026-03-29T09:24:13Z</time></trkpt><trkpt lat="44.907364765022606" lon="8.890923683928452"><ele>111.0</ele><time>2026-03-29T09:24:14Z</time></trkpt><trkpt lat="44.90733187042854" lon="8.891178644460819"><ele>111.0</ele><time>2026-03-29T09:24:15Z</time></trkpt><trkpt lat="44.90730384408578" lon="8.89143511176276"><ele>111.33333333333334</ele><time>2026-03-29T09:24:16Z</time></trkpt><trkpt lat="44.90728027510627" lon="8.891693511061696"><ele>111.66666666666667</ele><time>2026-03-29T09:24:17Z</time></trkpt><trkpt lat="44.90726050345827" lon="8.891947735466522"><ele>112.0</ele><time>2026-03-29T09:24:18Z</time></trkpt><trkpt lat="44.90724327716077" lon="8.892195261782394"><ele>112.33333333333334</ele><time>2026-03-29T09:24:19Z</time></trkpt><trkpt lat="44.907225346418585" lon="8.892434078769293"><ele>112.66666666666666</ele><time>2026-03-29T09:24:20Z</time></trkpt><trkpt lat="44.907209268187984" lon="8.892669038626318"><ele>113.0</ele><time>2026-03-29T09:24:21Z</time></trkpt><trkpt lat="44.907193324239486" lon="8.892909020717308"><ele>113.0</ele><time>2026-03-29T09:24:22Z</time></trkpt><trkpt lat="44.907178636614205" lon="8.893153183440955"><ele>113.0</ele><time>2026-03-29T09:24:23Z</time></trkpt><trkpt lat="44.907161894757024" lon="8.893399877242654"><ele>113.0</ele><time>2026-03-29T09:24:24Z</time></trkpt><trkpt lat="44.90714401007313" lon="8.893650456734308"><ele>113.33333333333333</ele><time>2026-03-29T09:24:25Z</time></trkpt><trkpt lat="44.90712766617634" lon="8.89389961578666"><ele>113.66666666666666</ele><time>2026-03-29T09:24:26Z</time></trkpt><trkpt lat="44.907112063751974" lon="8.894128281011634"><ele>114.0</ele><time>2026-03-29T09:24:27Z</time></trkpt><trkpt lat="44.9071001730108" lon="8.894345011580024"><ele>114.0</ele><time>2026-03-29T09:24:28Z</time></trkpt><trkpt lat="44.90708776867624" lon="8.894551437182608"><ele>114.0</ele><time>2026-03-29T09:24:29Z</time></trkpt><trkpt lat="44.90707362430064" lon="8.894748404338806"><ele>114.0</ele><time>2026-03-29T09:24:30Z</time></trkpt><trkpt lat="44.90705772774621" lon="8.894944171843635"><ele>114.0</ele><time>2026-03-29T09:24:31Z</time></trkpt><trkpt lat="44.90704286378546" lon="8.895141478727345"><ele>114.0</ele><time>2026-03-29T09:24:32Z</time></trkpt><trkpt lat="44.90703125429714" lon="8.895340003764483"><ele>114.0</ele><time>2026-03-29T09:24:33Z</time></trkpt><trkpt lat="44.90701957689491" lon="8.895540580069321"><ele>114.0</ele><time>2026-03-29T09:24:34Z</time></trkpt><trkpt lat="44.90700773642727" lon="8.895747134800361"><ele>114.0</ele><time>2026-03-29T09:24:35Z</time></trkpt><trkpt lat="44.90699506573124" lon="8.8959558093511"><ele>113.66666666666666</ele><time>2026-03-29T09:24:36Z</time></trkpt><trkpt lat="44.906982405834846" lon="8.896170818708406"><ele>113.33333333333333</ele><time>2026-03-29T09:24:37Z</time></trkpt><trkpt lat="44.90697011058647" lon="8.896391372620483"><ele>113.0</ele><time>2026-03-29T09:24:38Z</time></trkpt><trkpt lat="44.90695594257144" lon="8.896609903142112"><ele>113.0</ele><time>2026-03-29T09:24:39Z</time></trkpt><trkpt lat="44.90694052792706" lon="8.896828232393368"><ele>113.0</ele><time>2026-03-29T09:24:40Z</time></trkpt><trkpt lat="44.906925190965495" lon="8.8970447715363"><ele>113.0</ele><time>2026-03-29T09:24:41Z</time></trkpt><trkpt lat="44.906911561091334" lon="8.897256643363978"><ele>113.0</ele><time>2026-03-29T09:24:42Z</time></trkpt><trkpt lat="44.90689753802821" lon="8.897461838354737"><ele>113.0</ele><time>2026-03-29T09:24:43Z</time></trkpt><trkpt lat="44.9068841627743" lon="8.897666541726162"><ele>113.0</ele><time>2026-03-29T09:24:44Z</time></trkpt><trkpt lat="44.90686996575931" lon="8.897868517332396"><ele>113.0</ele><time>2026-03-29T09:24:45Z</time></trkpt><trkpt lat="44.90685484951719" lon="8.898059973471863"><ele>113.25</ele><time>2026-03-29T09:24:46Z</time></trkpt><trkpt lat="44.90684218611488" lon="8.898235626338424"><ele>113.5</ele><time>2026-03-29T09:24:47Z</time></trkpt><trkpt lat="44.90683252539674" lon="8.89841069867703"><ele>113.75</ele><time>2026-03-29T09:24:48Z</time></trkpt><trkpt lat="44.906820429592344" lon="8.898581200139455"><ele>114.0</ele><time>2026-03-29T09:24:49Z</time></trkpt><trkpt lat="44.90680746426585" lon="8.89874992388322"><ele>114.25</ele><time>2026-03-29T09:24:50Z</time></trkpt><trkpt lat="44.90679601087853" lon="8.89891858798635"><ele>114.5</ele><time>2026-03-29T09:24:51Z</time></trkpt><trkpt lat="44.90678609777369" lon="8.899092386181792"><ele>114.75</ele><time>2026-03-29T09:24:52Z</time></trkpt><trkpt lat="44.90677846715387" lon="8.899267788064014"><ele>115.0</ele><time>2026-03-29T09:24:53Z</time></trkpt><trkpt lat="44.90677668038181" lon="8.89944918631886"><ele>115.0</ele><time>2026-03-29T09:24:54Z</time></trkpt><trkpt lat="44.90678111113789" lon="8.899631903334688"><ele>115.0</ele><time>2026-03-29T09:24:55Z</time></trkpt><trkpt lat="44.906792826567646" lon="8.8998153266256"><ele>115.0</ele><time>2026-03-29T09:24:56Z</time></trkpt><trkpt lat="44.906808831913445" lon="8.899995432657553"><ele>115.0</ele><time>2026-03-29T09:24:57Z</time></trkpt><trkpt lat="44.90683059688062" lon="8.90017123960919"><ele>115.0</ele><time>2026-03-29T09:24:57.999Z</time></trkpt><trkpt lat="44.90685963653367" lon="8.900341489170556"><ele>115.0</ele><time>2026-03-29T09:24:58.999Z</time></trkpt><trkpt lat="44.90689326281931" lon="8.900507697332529"><ele>115.0</ele><time>2026-03-29T09:24:59.999Z</time></trkpt><trkpt lat="44.906930231804786" lon="8.900672263269934"><ele>115.0</ele><time>2026-03-29T09:25:00.999Z</time></trkpt><trkpt lat="44.906970043913965" lon="8.9008409873473"><ele>115.0</ele><time>2026-03-29T09:25:01.999Z</time></trkpt><trkpt lat="44.9070146070236" lon="8.901019553028693"><ele>115.0</ele><time>2026-03-29T09:25:02.999Z</time></trkpt><trkpt lat="44.907061490340304" lon="8.901209480854824"><ele>115.0</ele><time>2026-03-29T09:25:03.999Z</time></trkpt><trkpt lat="44.90711451632598" lon="8.901410949489042"><ele>115.0</ele><time>2026-03-29T09:25:04.999Z</time></trkpt><trkpt lat="44.90717134483868" lon="8.901625430739617"><ele>115.0</ele><time>2026-03-29T09:25:05.999Z</time></trkpt><trkpt lat="44.907232963891055" lon="8.901851099861396"><ele>115.0</ele><time>2026-03-29T09:25:06.999Z</time></trkpt><trkpt lat="44.90730241723147" lon="8.902091230470505"><ele>115.0</ele><time>2026-03-29T09:25:07.999Z</time></trkpt><trkpt lat="44.907382025677485" lon="8.902361770777732"><ele>115.0</ele><time>2026-03-29T09:25:08.999Z</time></trkpt><trkpt lat="44.90745586548787" lon="8.902651077008883"><ele>115.0</ele><time>2026-03-29T09:25:09.999Z</time></trkpt><trkpt lat="44.90751889466733" lon="8.902923032183443"><ele>115.0</ele><time>2026-03-29T09:25:10.999Z</time></trkpt><trkpt lat="44.9075758174229" lon="8.903171418329732"><ele>115.33333333333334</ele><time>2026-03-29T09:25:11.999Z</time></trkpt><trkpt lat="44.90763028205981" lon="8.903417116304995"><ele>115.66666666666666</ele><time>2026-03-29T09:25:12.999Z</time></trkpt><trkpt lat="44.907677826598366" lon="8.90365795146349"><ele>116.0</ele><time>2026-03-29T09:25:13.999Z</time></trkpt><trkpt lat="44.90771324572394" lon="8.90389215432922"><ele>116.0</ele><time>2026-03-29T09:25:14.999Z</time></trkpt><trkpt lat="44.90773797975787" lon="8.904130472169136"><ele>116.0</ele><time>2026-03-29T09:25:15.999Z</time></trkpt><trkpt lat="44.90774768749141" lon="8.904368706626041"><ele>116.0</ele><time>2026-03-29T09:25:16.999Z</time></trkpt><trkpt lat="44.90774391932581" lon="8.904606225655634"><ele>116.0</ele><time>2026-03-29T09:25:17.999Z</time></trkpt><trkpt lat="44.907730411561246" lon="8.904842924295238"><ele>116.0</ele><time>2026-03-29T09:25:18.999Z</time></trkpt><trkpt lat="44.90771531999123" lon="8.90507773232268"><ele>116.0</ele><time>2026-03-29T09:25:19.999Z</time></trkpt><trkpt lat="44.907699986744596" lon="8.905308168587641"><ele>116.0</ele><time>2026-03-29T09:25:20.999Z</time></trkpt><trkpt lat="44.90768506910933" lon="8.905519366589317"><ele>116.0</ele><time>2026-03-29T09:25:21.999Z</time></trkpt><trkpt lat="44.907669602104" lon="8.905726981134528"><ele>116.0</ele><time>2026-03-29T09:25:22.999Z</time></trkpt><trkpt lat="44.90765459838576" lon="8.90593125632885"><ele>116.0</ele><time>2026-03-29T09:25:23.999Z</time></trkpt><trkpt lat="44.90764042398049" lon="8.906130461879664"><ele>116.25</ele><time>2026-03-29T09:25:24.999Z</time></trkpt><trkpt lat="44.90762755218428" lon="8.906333912001067"><ele>116.5</ele><time>2026-03-29T09:25:25.999Z</time></trkpt><trkpt lat="44.90761054704606" lon="8.90654017838619"><ele>116.75</ele><time>2026-03-29T09:25:26.999Z</time></trkpt><trkpt lat="44.907594100033464" lon="8.906750653321811"><ele>117.0</ele><time>2026-03-29T09:25:27.999Z</time></trkpt><trkpt lat="44.90757986513443" lon="8.906964281182084"><ele>117.66666666666666</ele><time>2026-03-29T09:25:28.999Z</time></trkpt><trkpt lat="44.90756434051135" lon="8.907180501701458"><ele>118.33333333333333</ele><time>2026-03-29T09:25:29.999Z</time></trkpt><trkpt lat="44.90754868468919" lon="8.90739916851417"><ele>119.0</ele><time>2026-03-29T09:25:30.999Z</time></trkpt><trkpt lat="44.90753329370386" lon="8.907617275264064"><ele>119.66666666666666</ele><time>2026-03-29T09:25:31.999Z</time></trkpt><trkpt lat="44.907516949154115" lon="8.907835665123915"><ele>120.33333333333334</ele><time>2026-03-29T09:25:32.999Z</time></trkpt><trkpt lat="44.90750178361336" lon="8.9080495784636"><ele>121.0</ele><time>2026-03-29T09:25:33.999Z</time></trkpt><trkpt lat="44.907486788818666" lon="8.908260819317707"><ele>121.0</ele><time>2026-03-29T09:25:34.999Z</time></trkpt><trkpt lat="44.90747321786862" lon="8.908467068296293"><ele>121.0</ele><time>2026-03-29T09:25:35.999Z</time></trkpt><trkpt lat="44.907459591302086" lon="8.908668148391545"><ele>121.0</ele><time>2026-03-29T09:25:36.999Z</time></trkpt><trkpt lat="44.90744599724364" lon="8.908869695610898"><ele>121.0</ele><time>2026-03-29T09:25:37.999Z</time></trkpt><trkpt lat="44.90743316899989" lon="8.909070744116933"><ele>120.5</ele><time>2026-03-29T09:25:38.999Z</time></trkpt><trkpt lat="44.90742015089339" lon="8.909267929000896"><ele>120.0</ele><time>2026-03-29T09:25:39.999Z</time></trkpt><trkpt lat="44.90741097036116" lon="8.90946347310477"><ele>119.5</ele><time>2026-03-29T09:25:40.999Z</time></trkpt><trkpt lat="44.907404390700215" lon="8.909655650738625"><ele>119.0</ele><time>2026-03-29T09:25:41.999Z</time></trkpt><trkpt lat="44.90739564840777" lon="8.909844333451979"><ele>119.0</ele><time>2026-03-29T09:25:42.999Z</time></trkpt><trkpt lat="44.90738555962672" lon="8.910034829585024"><ele>119.0</ele><time>2026-03-29T09:25:43.999Z</time></trkpt><trkpt lat="44.907380128488306" lon="8.910222956744393"><ele>119.0</ele><time>2026-03-29T09:25:44.999Z</time></trkpt><trkpt lat="44.90737450792589" lon="8.910419380071309"><ele>119.0</ele><time>2026-03-29T09:25:45.999Z</time></trkpt><trkpt lat="44.907369943564085" lon="8.910619606998477"><ele>119.0</ele><time>2026-03-29T09:25:46.999Z</time></trkpt><trkpt lat="44.907367225004066" lon="8.910822765790046"><ele>119.0</ele><time>2026-03-29T09:25:47.999Z</time></trkpt><trkpt lat="44.907364304490486" lon="8.911026034269911"><ele>119.0</ele><time>2026-03-29T09:25:48.999Z</time></trkpt><trkpt lat="44.907362003730995" lon="8.911226541599062"><ele>119.0</ele><time>2026-03-29T09:25:49.999Z</time></trkpt><trkpt lat="44.90735899892346" lon="8.911425395418881"><ele>119.0</ele><time>2026-03-29T09:25:50.999Z</time></trkpt><trkpt lat="44.90735570966596" lon="8.911623443791255"><ele>119.0</ele><time>2026-03-29T09:25:51.999Z</time></trkpt><trkpt lat="44.90735246185447" lon="8.91182237075546"><ele>119.0</ele><time>2026-03-29T09:25:52.999Z</time></trkpt><trkpt lat="44.907346907027964" lon="8.912022407823029"><ele>119.0</ele><time>2026-03-29T09:25:53.999Z</time></trkpt><trkpt lat="44.90734683043749" lon="8.912223662165605"><ele>119.5</ele><time>2026-03-29T09:25:54.999Z</time></trkpt><trkpt lat="44.907346437617704" lon="8.912424775169102"><ele>120.0</ele><time>2026-03-29T09:25:55.999Z</time></trkpt><trkpt lat="44.90734640975848" lon="8.912627972472668"><ele>120.5</ele><time>2026-03-29T09:25:56.999Z</time></trkpt><trkpt lat="44.90734603232789" lon="8.912831157083955"><ele>121.0</ele><time>2026-03-29T09:25:57.999Z</time></trkpt><trkpt lat="44.90734418834429" lon="8.913030087349789"><ele>121.0</ele><time>2026-03-29T09:25:58.998Z</time></trkpt><trkpt lat="44.90734142410941" lon="8.913223942912436"><ele>121.0</ele><time>2026-03-29T09:25:59.998Z</time></trkpt><trkpt lat="44.90733861374754" lon="8.913408226230528"><ele>121.0</ele><time>2026-03-29T09:26:00.998Z</time></trkpt><trkpt lat="44.9073368980868" lon="8.913580982341198"><ele>121.0</ele><time>2026-03-29T09:26:01.998Z</time></trkpt><trkpt lat="44.907331495149414" lon="8.913745406130012"><ele>121.19999999999999</ele><time>2026-03-29T09:26:02.998Z</time></trkpt><trkpt lat="44.90732547699954" lon="8.913902232095392"><ele>121.39999999999999</ele><time>2026-03-29T09:26:04Z</time></trkpt><trkpt lat="44.90732348925401" lon="8.914054297506949"><ele>121.6</ele><time>2026-03-29T09:26:05Z</time></trkpt><trkpt lat="44.90732208375481" lon="8.914207573397107"><ele>121.8</ele><time>2026-03-29T09:26:06Z</time></trkpt><trkpt lat="44.90732088679319" lon="8.91436415722354"><ele>122.0</ele><time>2026-03-29T09:26:07Z</time></trkpt><trkpt lat="44.90731865741286" lon="8.914516643703587"><ele>122.19999999999999</ele><time>2026-03-29T09:26:08Z</time></trkpt><trkpt lat="44.90731684827886" lon="8.914659200246986"><ele>122.39999999999999</ele><time>2026-03-29T09:26:09Z</time></trkpt><trkpt lat="44.90731570171804" lon="8.914800229638193"><ele>122.60000000000001</ele><time>2026-03-29T09:26:10Z</time></trkpt><trkpt lat="44.9073150833206" lon="8.914944143416779"><ele>122.80000000000001</ele><time>2026-03-29T09:26:11Z</time></trkpt><trkpt lat="44.907313823214615" lon="8.915092887359105"><ele>123.0</ele><time>2026-03-29T09:26:12Z</time></trkpt><trkpt lat="44.90731135753784" lon="8.915247679604898"><ele>123.4</ele><time>2026-03-29T09:26:13Z</time></trkpt><trkpt lat="44.90731022063198" lon="8.915406959710014"><ele>123.80000000000001</ele><time>2026-03-29T09:26:14Z</time></trkpt><trkpt lat="44.90730733669829" lon="8.915567133525498"><ele>124.2</ele><time>2026-03-29T09:26:15Z</time></trkpt><trkpt lat="44.907304689796916" lon="8.915719107498713"><ele>124.6</ele><time>2026-03-29T09:26:16Z</time></trkpt><trkpt lat="44.90730147300866" lon="8.915861284570896"><ele>125.0</ele><time>2026-03-29T09:26:17Z</time></trkpt><trkpt lat="44.90729840548619" lon="8.915996415410811"><ele>125.33333333333333</ele><time>2026-03-29T09:26:18Z</time></trkpt><trkpt lat="44.90729691601349" lon="8.916125357078272"><ele>125.66666666666666</ele><time>2026-03-29T09:26:19Z</time></trkpt><trkpt lat="44.90729604217924" lon="8.916242917537069"><ele>126.0</ele><time>2026-03-29T09:26:20Z</time></trkpt><trkpt lat="44.90729465842211" lon="8.916343451388855"><ele>126.33333333333334</ele><time>2026-03-29T09:26:21Z</time></trkpt><trkpt lat="44.90729173489965" lon="8.916492908242216"><ele>126.66666666666667</ele><time>2026-03-29T09:26:23Z</time></trkpt><trkpt lat="44.90728419126678" lon="8.916606615035393"><ele>127.0</ele><time>2026-03-29T09:26:26Z</time></trkpt><trkpt lat="44.90726779491407" lon="8.916733622559237"><ele>127.16666666666667</ele><time>2026-03-29T09:26:30Z</time></trkpt><trkpt lat="44.907261394741255" lon="8.916830742281016"><ele>127.33333333333334</ele><time>2026-03-29T09:26:32Z</time></trkpt><trkpt lat="44.907261304352026" lon="8.916976975962244"><ele>127.5</ele><time>2026-03-29T09:26:35Z</time></trkpt><trkpt lat="44.90726272105274" lon="8.91706726057256"><ele>127.66666666666666</ele><time>2026-03-29T09:26:36Z</time></trkpt><trkpt lat="44.90725631498871" lon="8.917185486879573"><ele>127.83333333333333</ele><time>2026-03-29T09:26:37Z</time></trkpt><trkpt lat="44.90724104799656" lon="8.917334471282663"><ele>128.0</ele><time>2026-03-29T09:26:38Z</time></trkpt><trkpt lat="44.90722378219333" lon="8.917510349629755"><ele>128.0</ele><time>2026-03-29T09:26:39Z</time></trkpt><trkpt lat="44.90720425582214" lon="8.917680029435768"><ele>128.0</ele><time>2026-03-29T09:26:40Z</time></trkpt><trkpt lat="44.90717506096768" lon="8.91786615322893"><ele>128.0</ele><time>2026-03-29T09:26:41Z</time></trkpt><trkpt lat="44.90714767546049" lon="8.91806897334977"><ele>128.0</ele><time>2026-03-29T09:26:42Z</time></trkpt><trkpt lat="44.907115918219695" lon="8.918276281144824"><ele>128.0</ele><time>2026-03-29T09:26:43Z</time></trkpt><trkpt lat="44.90708395540346" lon="8.918490472627287"><ele>128.0</ele><time>2026-03-29T09:26:44Z</time></trkpt><trkpt lat="44.907055613644616" lon="8.918689852209393"><ele>128.0</ele><time>2026-03-29T09:26:45Z</time></trkpt><trkpt lat="44.90702368035068" lon="8.918885306867494"><ele>128.0</ele><time>2026-03-29T09:26:46Z</time></trkpt><trkpt lat="44.90698772008064" lon="8.919079677684223"><ele>128.0</ele><time>2026-03-29T09:26:47Z</time></trkpt><trkpt lat="44.90694972463667" lon="8.919264304410708"><ele>128.0</ele><time>2026-03-29T09:26:48Z</time></trkpt><trkpt lat="44.906910645313495" lon="8.919434756573342"><ele>128.0</ele><time>2026-03-29T09:26:49Z</time></trkpt><trkpt lat="44.906874356634944" lon="8.919598878690817"><ele>128.0</ele><time>2026-03-29T09:26:50Z</time></trkpt><trkpt lat="44.90684093349539" lon="8.919751368085922"><ele>128.0</ele><time>2026-03-29T09:26:51Z</time></trkpt><trkpt lat="44.90680699941592" lon="8.919895593132217"><ele>128.0</ele><time>2026-03-29T09:26:52Z</time></trkpt><trkpt lat="44.90677473695867" lon="8.920039067675177"><ele>128.0</ele><time>2026-03-29T09:26:53Z</time></trkpt><trkpt lat="44.90674292228917" lon="8.920181220913967"><ele>128.0</ele><time>2026-03-29T09:26:54Z</time></trkpt><trkpt lat="44.906713261941235" lon="8.920324483242018"><ele>128.0</ele><time>2026-03-29T09:26:55Z</time></trkpt><trkpt lat="44.906681568609244" lon="8.920469639377513"><ele>128.4</ele><time>2026-03-29T09:26:56Z</time></trkpt><trkpt lat="44.906648995625034" lon="8.920614755661802"><ele>128.8</ele><time>2026-03-29T09:26:57Z</time></trkpt><trkpt lat="44.90661712679578" lon="8.920754055440451"><ele>129.2</ele><time>2026-03-29T09:26:58Z</time></trkpt><trkpt lat="44.90658716243297" lon="8.920886246392651"><ele>129.6</ele><time>2026-03-29T09:26:59Z</time></trkpt><trkpt lat="44.90656040568095" lon="8.921002709093376"><ele>130.0</ele><time>2026-03-29T09:27:00Z</time></trkpt><trkpt lat="44.90653638715781" lon="8.921101837621505"><ele>130.33333333333334</ele><time>2026-03-29T09:27:00.999Z</time></trkpt><trkpt lat="44.90649881972819" lon="8.921251446823128"><ele>130.66666666666669</ele><time>2026-03-29T09:27:02.999Z</time></trkpt><trkpt lat="44.906478877938575" lon="8.921338588316582"><ele>131.0</ele><time>2026-03-29T09:27:05.999Z</time></trkpt><trkpt lat="44.90645728906102" lon="8.921425286198168"><ele>131.33333333333334</ele><time>2026-03-29T09:27:32.999Z</time></trkpt><trkpt lat="44.90643486856037" lon="8.921511713172986"><ele>131.66666666666666</ele><time>2026-03-29T09:27:33.999Z</time></trkpt><trkpt lat="44.90640522119539" lon="8.92162479448774"><ele>132.0</ele><time>2026-03-29T09:27:34.999Z</time></trkpt><trkpt lat="44.90636832826787" lon="8.921760887700392"><ele>132.0</ele><time>2026-03-29T09:27:35.999Z</time></trkpt><trkpt lat="44.90633220827373" lon="8.921889657578605"><ele>132.0</ele><time>2026-03-29T09:27:36.999Z</time></trkpt><trkpt lat="44.906291732073456" lon="8.92203483494209"><ele>132.0</ele><time>2026-03-29T09:27:37.999Z</time></trkpt><trkpt lat="44.90624433813432" lon="8.922198142293162"><ele>132.0</ele><time>2026-03-29T09:27:38.999Z</time></trkpt><trkpt lat="44.906193386411424" lon="8.922373699118072"><ele>132.0</ele><time>2026-03-29T09:27:39.999Z</time></trkpt><trkpt lat="44.90614146954863" lon="8.922556442656495"><ele>132.0</ele><time>2026-03-29T09:27:40.999Z</time></trkpt><trkpt lat="44.9060899809636" lon="8.92272717515655"><ele>132.0</ele><time>2026-03-29T09:27:41.999Z</time></trkpt><trkpt lat="44.90604008107684" lon="8.922893499042468"><ele>132.0</ele><time>2026-03-29T09:27:42.999Z</time></trkpt><trkpt lat="44.905990888683434" lon="8.923068243241495"><ele>132.0</ele><time>2026-03-29T09:27:43.999Z</time></trkpt><trkpt lat="44.90594079812851" lon="8.92324574511848"><ele>132.0</ele><time>2026-03-29T09:27:44.999Z</time></trkpt><trkpt lat="44.90589279717174" lon="8.923425938282753"><ele>132.0</ele><time>2026-03-29T09:27:45.999Z</time></trkpt><trkpt lat="44.90584841679699" lon="8.923607311157722"><ele>132.0</ele><time>2026-03-29T09:27:46.999Z</time></trkpt><trkpt lat="44.90581153831294" lon="8.923791352744788"><ele>132.25</ele><time>2026-03-29T09:27:47.999Z</time></trkpt><trkpt lat="44.90577829013267" lon="8.923969873046964"><ele>132.5</ele><time>2026-03-29T09:27:48.999Z</time></trkpt><trkpt lat="44.90574974579478" lon="8.924143091557665"><ele>132.75</ele><time>2026-03-29T09:27:49.999Z</time></trkpt><trkpt lat="44.90572546796276" lon="8.924316565199033"><ele>133.0</ele><time>2026-03-29T09:27:50.999Z</time></trkpt><trkpt lat="44.905704006365625" lon="8.92448994564192"><ele>133.0</ele><time>2026-03-29T09:27:51.999Z</time></trkpt><trkpt lat="44.90568822444712" lon="8.924659973044946"><ele>133.0</ele><time>2026-03-29T09:27:52.999Z</time></trkpt><trkpt lat="44.90567484778221" lon="8.924825315354838"><ele>133.0</ele><time>2026-03-29T09:27:53.999Z</time></trkpt><trkpt lat="44.90566451636559" lon="8.924988632625947"><ele>133.0</ele><time>2026-03-29T09:27:54.999Z</time></trkpt><trkpt lat="44.905655238259655" lon="8.9251544771565"><ele>133.0</ele><time>2026-03-29T09:27:55.999Z</time></trkpt><trkpt lat="44.90565188008989" lon="8.925321373915228"><ele>133.0</ele><time>2026-03-29T09:27:56.999Z</time></trkpt><trkpt lat="44.90565158750011" lon="8.92549213165272"><ele>133.0</ele><time>2026-03-29T09:27:57.999Z</time></trkpt><trkpt lat="44.90565297284546" lon="8.925668674843648"><ele>133.0</ele><time>2026-03-29T09:27:58.999Z</time></trkpt><trkpt lat="44.905654439785664" lon="8.925847778690525"><ele>133.5</ele><time>2026-03-29T09:27:59.999Z</time></trkpt><trkpt lat="44.90565699578333" lon="8.926032902505463"><ele>134.0</ele><time>2026-03-29T09:28:00.999Z</time></trkpt><trkpt lat="44.90566099332657" lon="8.926220462880488"><ele>134.5</ele><time>2026-03-29T09:28:01.998Z</time></trkpt><trkpt lat="44.905665320650876" lon="8.926409038281378"><ele>135.0</ele><time>2026-03-29T09:28:02.998Z</time></trkpt><trkpt lat="44.90567057886253" lon="8.92659584272849"><ele>135.25</ele><time>2026-03-29T09:28:03.998Z</time></trkpt><trkpt lat="44.905673997895086" lon="8.926783042978577"><ele>135.5</ele><time>2026-03-29T09:28:04.998Z</time></trkpt><trkpt lat="44.905676180098894" lon="8.926968919489168"><ele>135.75</ele><time>2026-03-29T09:28:05.998Z</time></trkpt><trkpt lat="44.90568232871438" lon="8.927152698502315"><ele>136.0</ele><time>2026-03-29T09:28:06.998Z</time></trkpt><trkpt lat="44.90568534430629" lon="8.92733727063027"><ele>136.0</ele><time>2026-03-29T09:28:07.998Z</time></trkpt><trkpt lat="44.905687987389754" lon="8.927518976002496"><ele>136.0</ele><time>2026-03-29T09:28:09Z</time></trkpt><trkpt lat="44.90568807093931" lon="8.927687188179322"><ele>136.0</ele><time>2026-03-29T09:28:10Z</time></trkpt><trkpt lat="44.905688180737016" lon="8.927844345972597"><ele>136.0</ele><time>2026-03-29T09:28:11Z</time></trkpt><trkpt lat="44.90569136652907" lon="8.9279926505925"><ele>136.2</ele><time>2026-03-29T09:28:12Z</time></trkpt><trkpt lat="44.905695887236604" lon="8.92813915156474"><ele>136.39999999999998</ele><time>2026-03-29T09:28:13Z</time></trkpt><trkpt lat="44.90569897590224" lon="8.9282866766069"><ele>136.6</ele><time>2026-03-29T09:28:14Z</time></trkpt><trkpt lat="44.905699570410455" lon="8.928436208276292"><ele>136.79999999999998</ele><time>2026-03-29T09:28:15Z</time></trkpt><trkpt lat="44.90570204161523" lon="8.928583194449091"><ele>137.0</ele><time>2026-03-29T09:28:16Z</time></trkpt><trkpt lat="44.90570299326127" lon="8.9287273817188"><ele>136.6</ele><time>2026-03-29T09:28:17Z</time></trkpt><trkpt lat="44.90570537215859" lon="8.928868245474241"><ele>136.2</ele><time>2026-03-29T09:28:18Z</time></trkpt><trkpt lat="44.90570938629255" lon="8.929007723042394"><ele>135.8</ele><time>2026-03-29T09:28:19Z</time></trkpt><trkpt lat="44.90571071955418" lon="8.92914448897088"><ele>135.4</ele><time>2026-03-29T09:28:20Z</time></trkpt><trkpt lat="44.90571282400371" lon="8.929279464713668"><ele>135.0</ele><time>2026-03-29T09:28:21Z</time></trkpt><trkpt lat="44.905715796684184" lon="8.929419834517576"><ele>135.0</ele><time>2026-03-29T09:28:22Z</time></trkpt><trkpt lat="44.9057221274236" lon="8.929571040787165"><ele>135.0</ele><time>2026-03-29T09:28:23Z</time></trkpt><trkpt lat="44.90572892345905" lon="8.929731650040303"><ele>135.0</ele><time>2026-03-29T09:28:24Z</time></trkpt><trkpt lat="44.905740977092215" lon="8.929901462310413"><ele>135.0</ele><time>2026-03-29T09:28:25Z</time></trkpt><trkpt lat="44.90575404270786" lon="8.930077076630685"><ele>135.5</ele><time>2026-03-29T09:28:26Z</time></trkpt><trkpt lat="44.90576736985898" lon="8.930257112029196"><ele>136.0</ele><time>2026-03-29T09:28:27Z</time></trkpt><trkpt lat="44.905782256451" lon="8.930437318969206"><ele>136.5</ele><time>2026-03-29T09:28:28Z</time></trkpt><trkpt lat="44.90579756323949" lon="8.930614433275663"><ele>137.0</ele><time>2026-03-29T09:28:29Z</time></trkpt><trkpt lat="44.90581155942482" lon="8.930789015519661"><ele>137.25</ele><time>2026-03-29T09:28:30Z</time></trkpt><trkpt lat="44.90582547857219" lon="8.93097694260325"><ele>137.5</ele><time>2026-03-29T09:28:31Z</time></trkpt><trkpt lat="44.905845137841666" lon="8.931178657315797"><ele>137.75</ele><time>2026-03-29T09:28:32Z</time></trkpt><trkpt lat="44.9058758684929" lon="8.931400530145972"><ele>138.0</ele><time>2026-03-29T09:28:33Z</time></trkpt><trkpt lat="44.90587930529386" lon="8.931652831040084"><ele>138.0</ele><time>2026-03-29T09:28:34Z</time></trkpt><trkpt lat="44.905899265328294" lon="8.931919364472702"><ele>138.0</ele><time>2026-03-29T09:28:35Z</time></trkpt><trkpt lat="44.905917631616866" lon="8.932173495832064"><ele>138.0</ele><time>2026-03-29T09:28:36Z</time></trkpt><trkpt lat="44.9059431915046" lon="8.932474210923939"><ele>137.0</ele><time>2026-03-29T09:28:37Z</time></trkpt><trkpt lat="44.905960607100546" lon="8.932739562550623"><ele>136.0</ele><time>2026-03-29T09:28:38Z</time></trkpt><trkpt lat="44.90598152350536" lon="8.933008214629474"><ele>135.0</ele><time>2026-03-29T09:28:39Z</time></trkpt><trkpt lat="44.90600290135559" lon="8.933279707384694"><ele>135.33333333333334</ele><time>2026-03-29T09:28:40Z</time></trkpt><trkpt lat="44.90602410093619" lon="8.933552595256959"><ele>135.66666666666669</ele><time>2026-03-29T09:28:41Z</time></trkpt><trkpt lat="44.90604292857059" lon="8.93382040698829"><ele>136.0</ele><time>2026-03-29T09:28:42Z</time></trkpt><trkpt lat="44.90605916314087" lon="8.934082384327224"><ele>136.66666666666669</ele><time>2026-03-29T09:28:43Z</time></trkpt><trkpt lat="44.906073437475115" lon="8.934336124773692"><ele>137.33333333333334</ele><time>2026-03-29T09:28:44Z</time></trkpt><trkpt lat="44.90608529282069" lon="8.934569906953836"><ele>138.0</ele><time>2026-03-29T09:28:45Z</time></trkpt><trkpt lat="44.90609199875168" lon="8.934795647091159"><ele>138.0</ele><time>2026-03-29T09:28:46Z</time></trkpt><trkpt lat="44.90609684562492" lon="8.935020703484328"><ele>138.0</ele><time>2026-03-29T09:28:47Z</time></trkpt><trkpt lat="44.90609881926013" lon="8.935247986190877"><ele>138.0</ele><time>2026-03-29T09:28:48Z</time></trkpt><trkpt lat="44.90610130925156" lon="8.935472912269491"><ele>138.0</ele><time>2026-03-29T09:28:49Z</time></trkpt><trkpt lat="44.9061021593506" lon="8.935698244999209"><ele>138.0</ele><time>2026-03-29T09:28:50Z</time></trkpt><trkpt lat="44.90609955597184" lon="8.935921155204621"><ele>138.0</ele><time>2026-03-29T09:28:51Z</time></trkpt><trkpt lat="44.90609815629839" lon="8.936143343555072"><ele>138.0</ele><time>2026-03-29T09:28:52Z</time></trkpt><trkpt lat="44.906096183828076" lon="8.936364433372614"><ele>138.0</ele><time>2026-03-29T09:28:53Z</time></trkpt><trkpt lat="44.906095410554066" lon="8.936583538841901"><ele>138.0</ele><time>2026-03-29T09:28:54Z</time></trkpt><trkpt lat="44.90609465946122" lon="8.936800586027699"><ele>138.33333333333334</ele><time>2026-03-29T09:28:55Z</time></trkpt><trkpt lat="44.906093906967506" lon="8.937013342488335"><ele>138.66666666666669</ele><time>2026-03-29T09:28:56Z</time></trkpt><trkpt lat="44.90609366770977" lon="8.937226009917092"><ele>139.0</ele><time>2026-03-29T09:28:57Z</time></trkpt><trkpt lat="44.90609244297361" lon="8.93743882286788"><ele>139.33333333333334</ele><time>2026-03-29T09:28:58Z</time></trkpt><trkpt lat="44.90609147285203" lon="8.937651995337003"><ele>139.66666666666666</ele><time>2026-03-29T09:28:59Z</time></trkpt><trkpt lat="44.9060904218535" lon="8.937868412282759"><ele>140.0</ele><time>2026-03-29T09:29:00Z</time></trkpt><trkpt lat="44.90608932331819" lon="8.938091151041812"><ele>140.0</ele><time>2026-03-29T09:29:01Z</time></trkpt><trkpt lat="44.90608856530043" lon="8.938316058332095"><ele>140.0</ele><time>2026-03-29T09:29:02Z</time></trkpt><trkpt lat="44.906086267812015" lon="8.938537797201336"><ele>140.0</ele><time>2026-03-29T09:29:03Z</time></trkpt><trkpt lat="44.90608334759423" lon="8.938761522568491"><ele>140.0</ele><time>2026-03-29T09:29:04Z</time></trkpt><trkpt lat="44.90607666675814" lon="8.938981516087042"><ele>140.0</ele><time>2026-03-29T09:29:05Z</time></trkpt><trkpt lat="44.90606354565081" lon="8.939197280309218"><ele>140.0</ele><time>2026-03-29T09:29:06Z</time></trkpt><trkpt lat="44.90604061294838" lon="8.939403722930889"><ele>140.25</ele><time>2026-03-29T09:29:07Z</time></trkpt><trkpt lat="44.90601502795323" lon="8.93961179465384"><ele>140.5</ele><time>2026-03-29T09:29:07.999Z</time></trkpt><trkpt lat="44.90598659611732" lon="8.939817336998104"><ele>140.75</ele><time>2026-03-29T09:29:08.999Z</time></trkpt><trkpt lat="44.905954162668095" lon="8.940022925516274"><ele>141.0</ele><time>2026-03-29T09:29:09.999Z</time></trkpt><trkpt lat="44.905917370569355" lon="8.940229336099254"><ele>141.5</ele><time>2026-03-29T09:29:10.999Z</time></trkpt><trkpt lat="44.90587814857353" lon="8.940432231642935"><ele>142.0</ele><time>2026-03-29T09:29:11.999Z</time></trkpt><trkpt lat="44.90583992429246" lon="8.94063098479008"><ele>142.5</ele><time>2026-03-29T09:29:12.999Z</time></trkpt><trkpt lat="44.90580131370236" lon="8.940826044334942"><ele>143.0</ele><time>2026-03-29T09:29:13.999Z</time></trkpt><trkpt lat="44.90576221470478" lon="8.94101632298221"><ele>143.25</ele><time>2026-03-29T09:29:14.999Z</time></trkpt><trkpt lat="44.90572923447239" lon="8.941207569720547"><ele>143.5</ele><time>2026-03-29T09:29:15.999Z</time></trkpt><trkpt lat="44.905696186115016" lon="8.941394629029764"><ele>143.75</ele><time>2026-03-29T09:29:16.999Z</time></trkpt><trkpt lat="44.9056595752667" lon="8.941580261985093"><ele>144.0</ele><time>2026-03-29T09:29:17.999Z</time></trkpt><trkpt lat="44.90562278909462" lon="8.94176550043533"><ele>144.25</ele><time>2026-03-29T09:29:18.999Z</time></trkpt><trkpt lat="44.90558600058692" lon="8.941949317305475"><ele>144.5</ele><time>2026-03-29T09:29:19.999Z</time></trkpt><trkpt lat="44.90555121434671" lon="8.94213486727584"><ele>144.75</ele><time>2026-03-29T09:29:20.999Z</time></trkpt><trkpt lat="44.905514521955496" lon="8.94232275218453"><ele>145.0</ele><time>2026-03-29T09:29:21.999Z</time></trkpt><trkpt lat="44.90547640291444" lon="8.942515272537152"><ele>145.75</ele><time>2026-03-29T09:29:22.999Z</time></trkpt><trkpt lat="44.90543626879778" lon="8.942711631159145"><ele>146.5</ele><time>2026-03-29T09:29:23.999Z</time></trkpt><trkpt lat="44.905398189098605" lon="8.942914872139738"><ele>147.25</ele><time>2026-03-29T09:29:24.999Z</time></trkpt><trkpt lat="44.90535965942464" lon="8.94312459245287"><ele>148.0</ele><time>2026-03-29T09:29:25.999Z</time></trkpt><trkpt lat="44.9053182473771" lon="8.943340484110955"><ele>149.33333333333334</ele><time>2026-03-29T09:29:26.999Z</time></trkpt><trkpt lat="44.905276288757" lon="8.943556836343792"><ele>150.66666666666666</ele><time>2026-03-29T09:29:27.999Z</time></trkpt><trkpt lat="44.90523458818651" lon="8.943772700266777"><ele>152.0</ele><time>2026-03-29T09:29:28.999Z</time></trkpt><trkpt lat="44.90519561560425" lon="8.94398201982976"><ele>152.0</ele><time>2026-03-29T09:29:29.999Z</time></trkpt><trkpt lat="44.90515789162008" lon="8.944178836036228"><ele>152.0</ele><time>2026-03-29T09:29:30.999Z</time></trkpt><trkpt lat="44.905122325494304" lon="8.944364992334682"><ele>152.0</ele><time>2026-03-29T09:29:31.999Z</time></trkpt><trkpt lat="44.90508791868233" lon="8.94454610652168"><ele>152.0</ele><time>2026-03-29T09:29:32.999Z</time></trkpt><trkpt lat="44.9050554499885" lon="8.94471736007962"><ele>151.25</ele><time>2026-03-29T09:29:33.999Z</time></trkpt><trkpt lat="44.905023825400335" lon="8.94488960437883"><ele>150.5</ele><time>2026-03-29T09:29:34.999Z</time></trkpt><trkpt lat="44.904988743732" lon="8.9450715565523"><ele>149.75</ele><time>2026-03-29T09:29:35.999Z</time></trkpt><trkpt lat="44.90495715053318" lon="8.945262582905809"><ele>149.0</ele><time>2026-03-29T09:29:36.999Z</time></trkpt><trkpt lat="44.90491855283832" lon="8.945467585739168"><ele>149.0</ele><time>2026-03-29T09:29:37.999Z</time></trkpt><trkpt lat="44.90487612332234" lon="8.945680987656157"><ele>149.0</ele><time>2026-03-29T09:29:38.999Z</time></trkpt><trkpt lat="44.90483251867639" lon="8.945905010241454"><ele>149.0</ele><time>2026-03-29T09:29:39.999Z</time></trkpt><trkpt lat="44.90478675187104" lon="8.946134839020221"><ele>149.0</ele><time>2026-03-29T09:29:40.999Z</time></trkpt><trkpt lat="44.904743186883536" lon="8.9463487695422"><ele>149.0</ele><time>2026-03-29T09:29:41.999Z</time></trkpt><trkpt lat="44.904704282800246" lon="8.946548765665883"><ele>149.0</ele><time>2026-03-29T09:29:42.999Z</time></trkpt><trkpt lat="44.904670550545376" lon="8.946745749620952"><ele>149.0</ele><time>2026-03-29T09:29:43.999Z</time></trkpt><trkpt lat="44.90463657453057" lon="8.946936055600592"><ele>149.25</ele><time>2026-03-29T09:29:44.999Z</time></trkpt><trkpt lat="44.90460347909915" lon="8.94711339232766"><ele>149.5</ele><time>2026-03-29T09:29:45.999Z</time></trkpt><trkpt lat="44.90457164956344" lon="8.947272388734978"><ele>149.75</ele><time>2026-03-29T09:29:46.999Z</time></trkpt><trkpt lat="44.90454326347498" lon="8.947423337840746"><ele>150.0</ele><time>2026-03-29T09:29:47.999Z</time></trkpt><trkpt lat="44.90451571466693" lon="8.947572571467157"><ele>150.0</ele><time>2026-03-29T09:29:48.999Z</time></trkpt><trkpt lat="44.904488236824854" lon="8.94771624646808"><ele>150.0</ele><time>2026-03-29T09:29:49.999Z</time></trkpt><trkpt lat="44.90446206294508" lon="8.94785942768105"><ele>150.0</ele><time>2026-03-29T09:29:50.999Z</time></trkpt><trkpt lat="44.90443335744625" lon="8.948001297099848"><ele>150.0</ele><time>2026-03-29T09:29:51.999Z</time></trkpt><trkpt lat="44.904400035969864" lon="8.948142944562644"><ele>150.0</ele><time>2026-03-29T09:29:52.999Z</time></trkpt><trkpt lat="44.90435522231759" lon="8.948291870455986"><ele>150.5</ele><time>2026-03-29T09:29:53.999Z</time></trkpt><trkpt lat="44.90429600584505" lon="8.948447762965031"><ele>151.0</ele><time>2026-03-29T09:29:54.999Z</time></trkpt><trkpt lat="44.90422609824458" lon="8.948609469583738"><ele>151.5</ele><time>2026-03-29T09:29:55.999Z</time></trkpt><trkpt lat="44.904148527806164" lon="8.94878420723081"><ele>152.0</ele><time>2026-03-29T09:29:56.999Z</time></trkpt><trkpt lat="44.90405980987077" lon="8.9489740688752"><ele>152.0</ele><time>2026-03-29T09:29:57.999Z</time></trkpt><trkpt lat="44.90395854497953" lon="8.94918459304414"><ele>152.0</ele><time>2026-03-29T09:29:58.999Z</time></trkpt><trkpt lat="44.903851217331564" lon="8.949401970207477"><ele>152.0</ele><time>2026-03-29T09:29:59.999Z</time></trkpt><trkpt lat="44.90373185813361" lon="8.949663298898662"><ele>152.5</ele><time>2026-03-29T09:30:00.999Z</time></trkpt><trkpt lat="44.903601460850254" lon="8.949934955172058"><ele>153.0</ele><time>2026-03-29T09:30:01.999Z</time></trkpt><trkpt lat="44.903460599764934" lon="8.950218750665352"><ele>153.0</ele><time>2026-03-29T09:30:02.999Z</time></trkpt><trkpt lat="44.903329286979535" lon="8.95049556261022"><ele>153.0</ele><time>2026-03-29T09:30:03.999Z</time></trkpt><trkpt lat="44.90318569513558" lon="8.95078304479672"><ele>153.5</ele><time>2026-03-29T09:30:04.999Z</time></trkpt><trkpt lat="44.90303620412492" lon="8.951088939092186"><ele>154.0</ele><time>2026-03-29T09:30:05.999Z</time></trkpt><trkpt lat="44.90288373746682" lon="8.951408284220163"><ele>154.0</ele><time>2026-03-29T09:30:06.999Z</time></trkpt><trkpt lat="44.90271876897757" lon="8.951747026056282"><ele>154.0</ele><time>2026-03-29T09:30:07.999Z</time></trkpt><trkpt lat="44.90254865427746" lon="8.952109161578834"><ele>154.5</ele><time>2026-03-29T09:30:08.999Z</time></trkpt><trkpt lat="44.90236485813513" lon="8.952482038844089"><ele>155.0</ele><time>2026-03-29T09:30:09.998Z</time></trkpt><trkpt lat="44.902194285821" lon="8.952835894466999"><ele>155.0</ele><time>2026-03-29T09:30:10.998Z</time></trkpt><trkpt lat="44.90202049378" lon="8.953196433163424"><ele>155.0</ele><time>2026-03-29T09:30:11.998Z</time></trkpt><trkpt lat="44.9018176974939" lon="8.953619118096485"><ele>157.0</ele><time>2026-03-29T09:30:12.998Z</time></trkpt><trkpt lat="44.901625380785646" lon="8.954014289257106"><ele>159.0</ele><time>2026-03-29T09:30:13.998Z</time></trkpt><trkpt lat="44.90143230707294" lon="8.954411533295028"><ele>159.0</ele><time>2026-03-29T09:30:15Z</time></trkpt><trkpt lat="44.90124219904298" lon="8.9548198009066"><ele>159.0</ele><time>2026-03-29T09:30:16Z</time></trkpt><trkpt lat="44.90104996657537" lon="8.955218787442083"><ele>159.5</ele><time>2026-03-29T09:30:17Z</time></trkpt><trkpt lat="44.900854731334846" lon="8.955604994239296"><ele>160.0</ele><time>2026-03-29T09:30:18Z</time></trkpt><trkpt lat="44.900668990112685" lon="8.955982031558907"><ele>160.0</ele><time>2026-03-29T09:30:19Z</time></trkpt><trkpt lat="44.90049165814867" lon="8.95634820743486"><ele>160.0</ele><time>2026-03-29T09:30:20Z</time></trkpt><trkpt lat="44.90032473496582" lon="8.95669766116102"><ele>161.0</ele><time>2026-03-29T09:30:21Z</time></trkpt><trkpt lat="44.900163474508325" lon="8.957030584105231"><ele>162.0</ele><time>2026-03-29T09:30:22Z</time></trkpt><trkpt lat="44.9000107151839" lon="8.957348263676051"><ele>164.0</ele><time>2026-03-29T09:30:23Z</time></trkpt><trkpt lat="44.89986238656814" lon="8.957656690385347"><ele>166.0</ele><time>2026-03-29T09:30:24Z</time></trkpt><trkpt lat="44.8997186116032" lon="8.957959816211922"><ele>166.0</ele><time>2026-03-29T09:30:25Z</time></trkpt><trkpt lat="44.89958303182718" lon="8.958248907176944"><ele>166.0</ele><time>2026-03-29T09:30:26Z</time></trkpt><trkpt lat="44.899453058395316" lon="8.958518482655679"><ele>165.66666666666669</ele><time>2026-03-29T09:30:27Z</time></trkpt><trkpt lat="44.89932450126216" lon="8.958776616547695"><ele>165.33333333333334</ele><time>2026-03-29T09:30:28Z</time></trkpt><trkpt lat="44.89920006851667" lon="8.95903546657121"><ele>165.0</ele><time>2026-03-29T09:30:29Z</time></trkpt><trkpt lat="44.89907910813177" lon="8.959292278742574"><ele>165.66666666666666</ele><time>2026-03-29T09:30:30Z</time></trkpt><trkpt lat="44.89895973133392" lon="8.959549374708107"><ele>166.33333333333331</ele><time>2026-03-29T09:30:31Z</time></trkpt><trkpt lat="44.898840218175714" lon="8.959806271589533"><ele>167.0</ele><time>2026-03-29T09:30:32Z</time></trkpt><trkpt lat="44.89871196526757" lon="8.960074618730344"><ele>167.5</ele><time>2026-03-29T09:30:33Z</time></trkpt><trkpt lat="44.898581148130184" lon="8.960347802111999"><ele>168.0</ele><time>2026-03-29T09:30:34Z</time></trkpt><trkpt lat="44.89844460046957" lon="8.960634192215373"><ele>168.5</ele><time>2026-03-29T09:30:35Z</time></trkpt><trkpt lat="44.89830908673196" lon="8.960914123132188"><ele>169.0</ele><time>2026-03-29T09:30:36Z</time></trkpt><trkpt lat="44.89817453741981" lon="8.961193498270088"><ele>169.0</ele><time>2026-03-29T09:30:37Z</time></trkpt><trkpt lat="44.8980388293293" lon="8.961474064741203"><ele>169.0</ele><time>2026-03-29T09:30:38Z</time></trkpt><trkpt lat="44.89790578434467" lon="8.961753976045133"><ele>169.5</ele><time>2026-03-29T09:30:39Z</time></trkpt><trkpt lat="44.8977760261287" lon="8.962033783013316"><ele>170.0</ele><time>2026-03-29T09:30:40Z</time></trkpt><trkpt lat="44.897647873319094" lon="8.962303477608371"><ele>173.0</ele><time>2026-03-29T09:30:41Z</time></trkpt><trkpt lat="44.89751978628517" lon="8.962574863499146"><ele>176.0</ele><time>2026-03-29T09:30:42Z</time></trkpt><trkpt lat="44.89739140445805" lon="8.962843581162755"><ele>176.0</ele><time>2026-03-29T09:30:43Z</time></trkpt><trkpt lat="44.897264039683506" lon="8.963112183348084"><ele>176.0</ele><time>2026-03-29T09:30:44Z</time></trkpt><trkpt lat="44.897136036117544" lon="8.963386689631761"><ele>175.0</ele><time>2026-03-29T09:30:45Z</time></trkpt><trkpt lat="44.897004543072306" lon="8.96366673850668"><ele>174.0</ele><time>2026-03-29T09:30:46Z</time></trkpt><trkpt lat="44.896867823978894" lon="8.963947356815682"><ele>173.5</ele><time>2026-03-29T09:30:47Z</time></trkpt><trkpt lat="44.89672897992032" lon="8.964232771757448"><ele>173.0</ele><time>2026-03-29T09:30:48Z</time></trkpt><trkpt lat="44.896590140881045" lon="8.964526501100107"><ele>173.0</ele><time>2026-03-29T09:30:49Z</time></trkpt><trkpt lat="44.896449523266995" lon="8.964826943641786"><ele>173.0</ele><time>2026-03-29T09:30:50Z</time></trkpt><trkpt lat="44.89630540256062" lon="8.965128471785706"><ele>170.5</ele><time>2026-03-29T09:30:51Z</time></trkpt><trkpt lat="44.896160474239416" lon="8.965429598621768"><ele>168.0</ele><time>2026-03-29T09:30:52Z</time></trkpt><trkpt lat="44.89601409376289" lon="8.96573254437856"><ele>169.5</ele><time>2026-03-29T09:30:53Z</time></trkpt><trkpt lat="44.89586879155598" lon="8.966037005111154"><ele>171.0</ele><time>2026-03-29T09:30:54Z</time></trkpt><trkpt lat="44.89572365537294" lon="8.966339618498537"><ele>171.0</ele><time>2026-03-29T09:30:55Z</time></trkpt><trkpt lat="44.895578436156015" lon="8.966641685533766"><ele>171.0</ele><time>2026-03-29T09:30:56Z</time></trkpt><trkpt lat="44.89543544779138" lon="8.966943760695463"><ele>171.5</ele><time>2026-03-29T09:30:57Z</time></trkpt><trkpt lat="44.895293568286824" lon="8.967243237693141"><ele>172.0</ele><time>2026-03-29T09:30:58Z</time></trkpt><trkpt lat="44.89514997913329" lon="8.967537991774119"><ele>173.5</ele><time>2026-03-29T09:30:59Z</time></trkpt><trkpt lat="44.89501204665619" lon="8.967834884367141"><ele>175.0</ele><time>2026-03-29T09:31:00Z</time></trkpt><trkpt lat="44.89486816642781" lon="8.968130328121244"><ele>171.5</ele><time>2026-03-29T09:31:01Z</time></trkpt><trkpt lat="44.89472796198364" lon="8.968431004088806"><ele>168.0</ele><time>2026-03-29T09:31:02Z</time></trkpt><trkpt lat="44.89458691598137" lon="8.968732570001306"><ele>168.0</ele><time>2026-03-29T09:31:03Z</time></trkpt><trkpt lat="44.89443914883692" lon="8.96902911972038"><ele>168.0</ele><time>2026-03-29T09:31:04Z</time></trkpt><trkpt lat="44.89427934190295" lon="8.969316308250647"><ele>167.5</ele><time>2026-03-29T09:31:05Z</time></trkpt><trkpt lat="44.894102037216406" lon="8.969589369137298"><ele>167.0</ele><time>2026-03-29T09:31:06Z</time></trkpt><trkpt lat="44.893914256926145" lon="8.96986352253496"><ele>166.0</ele><time>2026-03-29T09:31:07Z</time></trkpt><trkpt lat="44.893727344850184" lon="8.970141631089469"><ele>165.0</ele><time>2026-03-29T09:31:08Z</time></trkpt><trkpt lat="44.893539272007985" lon="8.970427410429961"><ele>166.0</ele><time>2026-03-29T09:31:09Z</time></trkpt><trkpt lat="44.89335264697644" lon="8.970715340045349"><ele>167.0</ele><time>2026-03-29T09:31:10Z</time></trkpt><trkpt lat="44.89316634003213" lon="8.97100282961481"><ele>167.0</ele><time>2026-03-29T09:31:11Z</time></trkpt><trkpt lat="44.89297936522743" lon="8.971289894306816"><ele>167.0</ele><time>2026-03-29T09:31:12Z</time></trkpt><trkpt lat="44.89279212914638" lon="8.971577721011196"><ele>167.5</ele><time>2026-03-29T09:31:12.999Z</time></trkpt><trkpt lat="44.892602635081225" lon="8.971861805045087"><ele>168.0</ele><time>2026-03-29T09:31:13.999Z</time></trkpt><trkpt lat="44.89241300930657" lon="8.972147226654798"><ele>168.0</ele><time>2026-03-29T09:31:14.999Z</time></trkpt><trkpt lat="44.892226396773474" lon="8.972429833332923"><ele>168.0</ele><time>2026-03-29T09:31:15.999Z</time></trkpt><trkpt lat="44.89204215702489" lon="8.972708003686618"><ele>167.0</ele><time>2026-03-29T09:31:16.999Z</time></trkpt><trkpt lat="44.89186018019429" lon="8.972979669886705"><ele>166.0</ele><time>2026-03-29T09:31:17.999Z</time></trkpt><trkpt lat="44.89168176581823" lon="8.973248135231804"><ele>167.5</ele><time>2026-03-29T09:31:18.999Z</time></trkpt><trkpt lat="44.891502551927836" lon="8.973508828751973"><ele>169.0</ele><time>2026-03-29T09:31:19.999Z</time></trkpt><trkpt lat="44.89132936945722" lon="8.973767340822928"><ele>169.0</ele><time>2026-03-29T09:31:20.999Z</time></trkpt><trkpt lat="44.891165425466845" lon="8.974015595778681"><ele>169.0</ele><time>2026-03-29T09:31:21.999Z</time></trkpt><trkpt lat="44.89101375653497" lon="8.974247689663908"><ele>169.66666666666669</ele><time>2026-03-29T09:31:22.999Z</time></trkpt><trkpt lat="44.890866805392655" lon="8.97446548388759"><ele>170.33333333333334</ele><time>2026-03-29T09:31:23.999Z</time></trkpt><trkpt lat="44.89072453295684" lon="8.974674716063577"><ele>171.0</ele><time>2026-03-29T09:31:24.999Z</time></trkpt><trkpt lat="44.8905866923871" lon="8.974873407580112"><ele>170.66666666666666</ele><time>2026-03-29T09:31:25.999Z</time></trkpt><trkpt lat="44.890450587265455" lon="8.975071333101823"><ele>170.33333333333331</ele><time>2026-03-29T09:31:26.999Z</time></trkpt><trkpt lat="44.89031705551947" lon="8.975265255567809"><ele>170.0</ele><time>2026-03-29T09:31:27.999Z</time></trkpt><trkpt lat="44.89018756729316" lon="8.975457072448508"><ele>170.33333333333331</ele><time>2026-03-29T09:31:28.999Z</time></trkpt><trkpt lat="44.89006092652168" lon="8.975639533111858"><ele>170.66666666666666</ele><time>2026-03-29T09:31:29.999Z</time></trkpt><trkpt lat="44.8899404933674" lon="8.975815157700978"><ele>171.0</ele><time>2026-03-29T09:31:30.999Z</time></trkpt><trkpt lat="44.889825506518676" lon="8.975986246109992"><ele>171.0</ele><time>2026-03-29T09:31:31.999Z</time></trkpt><trkpt lat="44.8897111462578" lon="8.976152591685358"><ele>171.0</ele><time>2026-03-29T09:31:32.999Z</time></trkpt><trkpt lat="44.88959778009271" lon="8.97631899058334"><ele>171.0</ele><time>2026-03-29T09:31:33.999Z</time></trkpt><trkpt lat="44.88948467700564" lon="8.9764865453839"><ele>171.0</ele><time>2026-03-29T09:31:34.999Z</time></trkpt><trkpt lat="44.88937492665669" lon="8.976648765490388"><ele>171.0</ele><time>2026-03-29T09:31:35.999Z</time></trkpt><trkpt lat="44.88927065445016" lon="8.976803343894835"><ele>171.0</ele><time>2026-03-29T09:31:36.999Z</time></trkpt><trkpt lat="44.88917479624267" lon="8.976951312016492"><ele>171.75</ele><time>2026-03-29T09:31:37.999Z</time></trkpt><trkpt lat="44.889080885188314" lon="8.977089779982418"><ele>172.5</ele><time>2026-03-29T09:31:38.999Z</time></trkpt><trkpt lat="44.888992169669" lon="8.977222601625131"><ele>173.25</ele><time>2026-03-29T09:31:39.999Z</time></trkpt><trkpt lat="44.8889072718952" lon="8.977353799210118"><ele>174.0</ele><time>2026-03-29T09:31:40.999Z</time></trkpt><trkpt lat="44.888825346560374" lon="8.977489128697925"><ele>173.33333333333334</ele><time>2026-03-29T09:31:41.999Z</time></trkpt><trkpt lat="44.88875021896619" lon="8.977627349286022"><ele>172.66666666666669</ele><time>2026-03-29T09:31:42.999Z</time></trkpt><trkpt lat="44.888607947888524" lon="8.9779131791331"><ele>172.0</ele><time>2026-03-29T09:31:44.999Z</time></trkpt><trkpt lat="44.88853590124668" lon="8.978063137555102"><ele>172.0</ele><time>2026-03-29T09:31:45.999Z</time></trkpt><trkpt lat="44.88846002758684" lon="8.978216043069148"><ele>172.0</ele><time>2026-03-29T09:31:46.999Z</time></trkpt><trkpt lat="44.88838074606627" lon="8.978370517903343"><ele>172.0</ele><time>2026-03-29T09:31:47.999Z</time></trkpt><trkpt lat="44.88830042863695" lon="8.978527807877445"><ele>172.0</ele><time>2026-03-29T09:31:48.999Z</time></trkpt><trkpt lat="44.88822257525295" lon="8.97868409180006"><ele>172.75</ele><time>2026-03-29T09:31:49.999Z</time></trkpt><trkpt lat="44.88814334843833" lon="8.978843119576762"><ele>173.5</ele><time>2026-03-29T09:31:50.999Z</time></trkpt><trkpt lat="44.88806543397386" lon="8.9790001044255"><ele>174.25</ele><time>2026-03-29T09:31:51.999Z</time></trkpt><trkpt lat="44.88798476968352" lon="8.979155446540137"><ele>175.0</ele><time>2026-03-29T09:31:52.999Z</time></trkpt><trkpt lat="44.88790829342557" lon="8.97930484454697"><ele>175.0</ele><time>2026-03-29T09:31:53.999Z</time></trkpt><trkpt lat="44.887833842351874" lon="8.979451981169632"><ele>175.0</ele><time>2026-03-29T09:31:54.999Z</time></trkpt><trkpt lat="44.887760274466274" lon="8.979598688009986"><ele>175.0</ele><time>2026-03-29T09:31:55.999Z</time></trkpt><trkpt lat="44.88768911843708" lon="8.97974098905972"><ele>175.0</ele><time>2026-03-29T09:31:56.999Z</time></trkpt><trkpt lat="44.887617292408706" lon="8.979883988257349"><ele>176.0</ele><time>2026-03-29T09:31:57.999Z</time></trkpt><trkpt lat="44.88754317503445" lon="8.98002894108618"><ele>177.0</ele><time>2026-03-29T09:31:58.999Z</time></trkpt><trkpt lat="44.88747184791259" lon="8.980173822194105"><ele>178.0</ele><time>2026-03-29T09:31:59.999Z</time></trkpt><trkpt lat="44.88740040512191" lon="8.980315624804966"><ele>179.0</ele><time>2026-03-29T09:32:00.999Z</time></trkpt><trkpt lat="44.88732997470493" lon="8.980450532796722"><ele>179.0</ele><time>2026-03-29T09:32:01.999Z</time></trkpt><trkpt lat="44.88726363583911" lon="8.980581485466798"><ele>179.0</ele><time>2026-03-29T09:32:02.999Z</time></trkpt><trkpt lat="44.887200440162" lon="8.980705730561665"><ele>179.0</ele><time>2026-03-29T09:32:03.999Z</time></trkpt><trkpt lat="44.88714524335497" lon="8.98081812020307"><ele>179.0</ele><time>2026-03-29T09:32:04.999Z</time></trkpt><trkpt lat="44.88709211294526" lon="8.980924372391197"><ele>179.0</ele><time>2026-03-29T09:32:05.999Z</time></trkpt><trkpt lat="44.88704025173053" lon="8.981021899432227"><ele>179.0</ele><time>2026-03-29T09:32:06.999Z</time></trkpt><trkpt lat="44.88698811131374" lon="8.981123101920327"><ele>179.0</ele><time>2026-03-29T09:32:07.999Z</time></trkpt><trkpt lat="44.88693882935742" lon="8.981227695561682"><ele>179.0</ele><time>2026-03-29T09:32:08.999Z</time></trkpt><trkpt lat="44.88688522932857" lon="8.98132297312881"><ele>179.0</ele><time>2026-03-29T09:32:09.999Z</time></trkpt><trkpt lat="44.886840308033285" lon="8.981415812565057"><ele>179.0</ele><time>2026-03-29T09:32:10.999Z</time></trkpt><trkpt lat="44.886795110523686" lon="8.981501924968274"><ele>179.0</ele><time>2026-03-29T09:32:11.999Z</time></trkpt><trkpt lat="44.88675851111242" lon="8.981581679186224"><ele>179.0</ele><time>2026-03-29T09:32:12.999Z</time></trkpt><trkpt lat="44.886688193405384" lon="8.981717637185037"><ele>179.0</ele><time>2026-03-29T09:32:14.998Z</time></trkpt><trkpt lat="44.88662186648013" lon="8.981840776722679"><ele>179.0</ele><time>2026-03-29T09:32:16.998Z</time></trkpt><trkpt lat="44.88656395841235" lon="8.98195131861931"><ele>179.0</ele><time>2026-03-29T09:32:18.998Z</time></trkpt><trkpt lat="44.886517499942634" lon="8.982033135410312"><ele>179.0</ele><time>2026-03-29T09:32:21Z</time></trkpt><trkpt lat="44.88645415466445" lon="8.982121362094128"><ele>179.0</ele><time>2026-03-29T09:32:24Z</time></trkpt><trkpt lat="44.88639530498514" lon="8.982273375522606"><ele>179.0</ele><time>2026-03-29T09:32:26Z</time></trkpt><trkpt lat="44.88634603469243" lon="8.982379676609217"><ele>179.0</ele><time>2026-03-29T09:32:27Z</time></trkpt><trkpt lat="44.88627814962976" lon="8.982499360140427"><ele>179.0</ele><time>2026-03-29T09:32:28Z</time></trkpt><trkpt lat="44.88620578955213" lon="8.982615652868185"><ele>179.0</ele><time>2026-03-29T09:32:29Z</time></trkpt><trkpt lat="44.88612090268941" lon="8.982745757136568"><ele>178.66666666666666</ele><time>2026-03-29T09:32:30Z</time></trkpt><trkpt lat="44.88602856527221" lon="8.982880506662791"><ele>178.33333333333334</ele><time>2026-03-29T09:32:31Z</time></trkpt><trkpt lat="44.88590615080594" lon="8.983021179551129"><ele>178.0</ele><time>2026-03-29T09:32:32Z</time></trkpt><trkpt lat="44.88574414872205" lon="8.983152261899741"><ele>178.66666666666669</ele><time>2026-03-29T09:32:33Z</time></trkpt><trkpt lat="44.88557197432968" lon="8.983336907621094"><ele>179.33333333333334</ele><time>2026-03-29T09:32:34Z</time></trkpt><trkpt lat="44.885396230754125" lon="8.983495891042992"><ele>180.0</ele><time>2026-03-29T09:32:35Z</time></trkpt><trkpt lat="44.885229607168796" lon="8.983653238781828"><ele>181.0</ele><time>2026-03-29T09:32:36Z</time></trkpt><trkpt lat="44.885078021773296" lon="8.983793038488132"><ele>182.0</ele><time>2026-03-29T09:32:37Z</time></trkpt><trkpt lat="44.88493804513235" lon="8.983924963525805"><ele>183.0</ele><time>2026-03-29T09:32:38Z</time></trkpt><trkpt lat="44.88480329671261" lon="8.98404577029896"><ele>183.0</ele><time>2026-03-29T09:32:39Z</time></trkpt><trkpt lat="44.88466385809196" lon="8.984169109212667"><ele>183.0</ele><time>2026-03-29T09:32:40Z</time></trkpt><trkpt lat="44.88452224656251" lon="8.984299376418349"><ele>183.0</ele><time>2026-03-29T09:32:41Z</time></trkpt><trkpt lat="44.884380027149895" lon="8.984435221272735"><ele>182.66666666666666</ele><time>2026-03-29T09:32:42Z</time></trkpt><trkpt lat="44.8842368503146" lon="8.984570926496444"><ele>182.33333333333331</ele><time>2026-03-29T09:32:43Z</time></trkpt><trkpt lat="44.8840927172983" lon="8.984709502309283"><ele>182.0</ele><time>2026-03-29T09:32:44Z</time></trkpt><trkpt lat="44.88394903474653" lon="8.984846667917152"><ele>182.0</ele><time>2026-03-29T09:32:45Z</time></trkpt><trkpt lat="44.8838022345313" lon="8.984987023211662"><ele>182.0</ele><time>2026-03-29T09:32:46Z</time></trkpt><trkpt lat="44.88365636699011" lon="8.985140689342806"><ele>182.0</ele><time>2026-03-29T09:32:47Z</time></trkpt><trkpt lat="44.883511610994866" lon="8.98529929831822"><ele>182.66666666666666</ele><time>2026-03-29T09:32:48Z</time></trkpt><trkpt lat="44.88338246780889" lon="8.985490866477678"><ele>183.33333333333334</ele><time>2026-03-29T09:32:49Z</time></trkpt><trkpt lat="44.883275473692386" lon="8.985666277902792"><ele>184.0</ele><time>2026-03-29T09:32:50Z</time></trkpt><trkpt lat="44.883197917556146" lon="8.985814135048352"><ele>183.6</ele><time>2026-03-29T09:32:51Z</time></trkpt><trkpt lat="44.88313411896689" lon="8.985925200504111"><ele>183.2</ele><time>2026-03-29T09:32:52Z</time></trkpt><trkpt lat="44.883073958924506" lon="8.986009855759155"><ele>182.79999999999998</ele><time>2026-03-29T09:32:53Z</time></trkpt><trkpt lat="44.88301758698976" lon="8.986111106506984"><ele>182.39999999999998</ele><time>2026-03-29T09:32:55Z</time></trkpt><trkpt lat="44.882951791858694" lon="8.986225168147651"><ele>182.0</ele><time>2026-03-29T09:33:18.999Z</time></trkpt><trkpt lat="44.882902545966395" lon="8.986304124701476"><ele>182.0</ele><time>2026-03-29T09:33:19.999Z</time></trkpt><trkpt lat="44.882836588904965" lon="8.986408555526095"><ele>182.0</ele><time>2026-03-29T09:33:20.999Z</time></trkpt><trkpt lat="44.88275743008244" lon="8.986537753191314"><ele>182.0</ele><time>2026-03-29T09:33:21.999Z</time></trkpt><trkpt lat="44.88266947244871" lon="8.986674180318339"><ele>182.0</ele><time>2026-03-29T09:33:22.999Z</time></trkpt><trkpt lat="44.88257334908929" lon="8.986849370793498"><ele>183.33333333333331</ele><time>2026-03-29T09:33:23.999Z</time></trkpt><trkpt lat="44.882463983094695" lon="8.98702608658342"><ele>184.66666666666666</ele><time>2026-03-29T09:33:24.999Z</time></trkpt><trkpt lat="44.88234770433661" lon="8.987220066068332"><ele>186.0</ele><time>2026-03-29T09:33:25.999Z</time></trkpt><trkpt lat="44.882224605361685" lon="8.9874228290245"><ele>185.0</ele><time>2026-03-29T09:33:26.999Z</time></trkpt><trkpt lat="44.882096382188294" lon="8.98763284347914"><ele>184.0</ele><time>2026-03-29T09:33:27.999Z</time></trkpt><trkpt lat="44.88196692468854" lon="8.987846629706377"><ele>183.0</ele><time>2026-03-29T09:33:28.999Z</time></trkpt><trkpt lat="44.881832598544236" lon="8.988066190641801"><ele>183.66666666666666</ele><time>2026-03-29T09:33:29.999Z</time></trkpt><trkpt lat="44.88169339883361" lon="8.988284463345403"><ele>184.33333333333331</ele><time>2026-03-29T09:33:30.999Z</time></trkpt><trkpt lat="44.881557627238635" lon="8.988510629934705"><ele>185.0</ele><time>2026-03-29T09:33:31.999Z</time></trkpt><trkpt lat="44.8813879631343" lon="8.988684266084652"><ele>185.0</ele><time>2026-03-29T09:33:32.999Z</time></trkpt><trkpt lat="44.881213044104825" lon="8.988842095027652"><ele>185.0</ele><time>2026-03-29T09:33:33.999Z</time></trkpt><trkpt lat="44.8810299873011" lon="8.988973585099286"><ele>185.0</ele><time>2026-03-29T09:33:34.999Z</time></trkpt><trkpt lat="44.88083440620746" lon="8.989083097700613"><ele>185.5</ele><time>2026-03-29T09:33:35.999Z</time></trkpt><trkpt lat="44.88062670444384" lon="8.989210480438661"><ele>186.0</ele><time>2026-03-29T09:33:36.999Z</time></trkpt><trkpt lat="44.88040136550684" lon="8.98932193700705"><ele>186.0</ele><time>2026-03-29T09:33:37.999Z</time></trkpt><trkpt lat="44.880176392459425" lon="8.989426718042953"><ele>186.0</ele><time>2026-03-29T09:33:38.999Z</time></trkpt><trkpt lat="44.8799453130315" lon="8.989536354951667"><ele>186.5</ele><time>2026-03-29T09:33:39.999Z</time></trkpt><trkpt lat="44.879718720376005" lon="8.989638946356807"><ele>187.0</ele><time>2026-03-29T09:33:40.999Z</time></trkpt><trkpt lat="44.87950906507495" lon="8.989744449018955"><ele>187.0</ele><time>2026-03-29T09:33:41.999Z</time></trkpt><trkpt lat="44.87931249659875" lon="8.989869931235857"><ele>187.0</ele><time>2026-03-29T09:33:42.999Z</time></trkpt><trkpt lat="44.87912543647559" lon="8.990031006319986"><ele>187.0</ele><time>2026-03-29T09:33:43.999Z</time></trkpt><trkpt lat="44.87894679384012" lon="8.990230615000604"><ele>188.0</ele><time>2026-03-29T09:33:44.999Z</time></trkpt><trkpt lat="44.87878208820863" lon="8.99045701655074"><ele>189.0</ele><time>2026-03-29T09:33:45.999Z</time></trkpt><trkpt lat="44.878619714099614" lon="8.990708293460454"><ele>189.0</ele><time>2026-03-29T09:33:46.999Z</time></trkpt><trkpt lat="44.87846863308779" lon="8.99098174238485"><ele>189.0</ele><time>2026-03-29T09:33:47.999Z</time></trkpt><trkpt lat="44.87832506233371" lon="8.99126905316724"><ele>189.5</ele><time>2026-03-29T09:33:48.999Z</time></trkpt><trkpt lat="44.878179729425526" lon="8.991555280476001"><ele>190.0</ele><time>2026-03-29T09:33:49.999Z</time></trkpt><trkpt lat="44.87804015469758" lon="8.991828864089038"><ele>190.5</ele><time>2026-03-29T09:33:50.999Z</time></trkpt><trkpt lat="44.87790147860606" lon="8.992091413348929"><ele>191.0</ele><time>2026-03-29T09:33:51.999Z</time></trkpt><trkpt lat="44.87776865266729" lon="8.992340909151425"><ele>190.66666666666666</ele><time>2026-03-29T09:33:52.999Z</time></trkpt><trkpt lat="44.8776367834793" lon="8.99256286911734"><ele>190.33333333333334</ele><time>2026-03-29T09:33:53.999Z</time></trkpt><trkpt lat="44.87748748991051" lon="8.992756659907055"><ele>190.0</ele><time>2026-03-29T09:33:54.999Z</time></trkpt><trkpt lat="44.877324191223785" lon="8.992913970904949"><ele>191.33333333333334</ele><time>2026-03-29T09:33:55.999Z</time></trkpt><trkpt lat="44.8771520450948" lon="8.993055360125899"><ele>192.66666666666669</ele><time>2026-03-29T09:33:56.999Z</time></trkpt><trkpt lat="44.87696446581954" lon="8.993165881776942"><ele>194.0</ele><time>2026-03-29T09:33:57.999Z</time></trkpt><trkpt lat="44.876762899790975" lon="8.993222578323094"><ele>194.0</ele><time>2026-03-29T09:33:58.999Z</time></trkpt><trkpt lat="44.87655468826452" lon="8.993279170502904"><ele>194.0</ele><time>2026-03-29T09:33:59.999Z</time></trkpt><trkpt lat="44.87634254136678" lon="8.993352721258406"><ele>194.0</ele><time>2026-03-29T09:34:00.999Z</time></trkpt><trkpt lat="44.87612055061043" lon="8.993404665847521"><ele>194.0</ele><time>2026-03-29T09:34:01.999Z</time></trkpt><trkpt lat="44.87589654961526" lon="8.993464423136611"><ele>194.0</ele><time>2026-03-29T09:34:02.999Z</time></trkpt><trkpt lat="44.87567159827407" lon="8.993518173972515"><ele>194.0</ele><time>2026-03-29T09:34:03.999Z</time></trkpt><trkpt lat="44.87545298472868" lon="8.9935134334659"><ele>194.0</ele><time>2026-03-29T09:34:04.999Z</time></trkpt><trkpt lat="44.87524821836518" lon="8.993485267335233"><ele>194.0</ele><time>2026-03-29T09:34:05.999Z</time></trkpt><trkpt lat="44.87504685858801" lon="8.993423058710635"><ele>194.66666666666669</ele><time>2026-03-29T09:34:06.999Z</time></trkpt><trkpt lat="44.87484419573237" lon="8.993360815910075"><ele>195.33333333333331</ele><time>2026-03-29T09:34:07.999Z</time></trkpt><trkpt lat="44.87464402170289" lon="8.993275940568218"><ele>196.0</ele><time>2026-03-29T09:34:08.999Z</time></trkpt><trkpt lat="44.87443642678283" lon="8.993229310103445"><ele>197.66666666666666</ele><time>2026-03-29T09:34:09.999Z</time></trkpt><trkpt lat="44.87422096117619" lon="8.993217986004769"><ele>199.33333333333331</ele><time>2026-03-29T09:34:10.999Z</time></trkpt><trkpt lat="44.87400119661513" lon="8.993259828938974"><ele>201.0</ele><time>2026-03-29T09:34:11.999Z</time></trkpt><trkpt lat="44.87378248935405" lon="8.99332791667117"><ele>200.5</ele><time>2026-03-29T09:34:12.999Z</time></trkpt><trkpt lat="44.87356581840981" lon="8.993416654690822"><ele>200.0</ele><time>2026-03-29T09:34:13.999Z</time></trkpt><trkpt lat="44.87335109436295" lon="8.993516223272776"><ele>201.0</ele><time>2026-03-29T09:34:14.999Z</time></trkpt><trkpt lat="44.8731378460137" lon="8.993613756068848"><ele>202.0</ele><time>2026-03-29T09:34:15.999Z</time></trkpt><trkpt lat="44.87291872537268" lon="8.993714767497881"><ele>202.0</ele><time>2026-03-29T09:34:16.999Z</time></trkpt><trkpt lat="44.87269248769181" lon="8.993799118405875"><ele>202.0</ele><time>2026-03-29T09:34:17.998Z</time></trkpt><trkpt lat="44.87248525316201" lon="8.993970488436364"><ele>201.5</ele><time>2026-03-29T09:34:18.998Z</time></trkpt><trkpt lat="44.872279727884944" lon="8.994118151700405"><ele>201.0</ele><time>2026-03-29T09:34:19.998Z</time></trkpt><trkpt lat="44.87208060756693" lon="8.994262883829762"><ele>201.0</ele><time>2026-03-29T09:34:20.998Z</time></trkpt><trkpt lat="44.87188065714975" lon="8.994392075742462"><ele>201.0</ele><time>2026-03-29T09:34:21.998Z</time></trkpt><trkpt lat="44.87167765245109" lon="8.994521060832952"><ele>201.0</ele><time>2026-03-29T09:34:22.998Z</time></trkpt><trkpt lat="44.87146846767708" lon="8.994640628547922"><ele>204.0</ele><time>2026-03-29T09:34:23.998Z</time></trkpt><trkpt lat="44.87125372479695" lon="8.99475025318969"><ele>207.0</ele><time>2026-03-29T09:34:24.998Z</time></trkpt><trkpt lat="44.871032713723295" lon="8.994846185135401"><ele>207.5</ele><time>2026-03-29T09:34:26Z</time></trkpt><trkpt lat="44.87080896341715" lon="8.994937818315796"><ele>208.0</ele><time>2026-03-29T09:34:27Z</time></trkpt><trkpt lat="44.8705838005663" lon="8.995029362083955"><ele>206.0</ele><time>2026-03-29T09:34:28Z</time></trkpt><trkpt lat="44.87035963164793" lon="8.99512068412525"><ele>204.0</ele><time>2026-03-29T09:34:29Z</time></trkpt><trkpt lat="44.870134960998485" lon="8.99521446965647"><ele>206.0</ele><time>2026-03-29T09:34:30Z</time></trkpt><trkpt lat="44.86991116318487" lon="8.995308678920747"><ele>208.0</ele><time>2026-03-29T09:34:31Z</time></trkpt><trkpt lat="44.86969426649435" lon="8.99539841143578"><ele>208.0</ele><time>2026-03-29T09:34:32Z</time></trkpt><trkpt lat="44.86948834940594" lon="8.995489701820892"><ele>208.0</ele><time>2026-03-29T09:34:33Z</time></trkpt><trkpt lat="44.86929797141279" lon="8.995584084016906"><ele>208.0</ele><time>2026-03-29T09:34:34Z</time></trkpt><trkpt lat="44.86911863255177" lon="8.995682649703259"><ele>206.66666666666666</ele><time>2026-03-29T09:34:35Z</time></trkpt><trkpt lat="44.86894981419784" lon="8.995782728338837"><ele>205.33333333333331</ele><time>2026-03-29T09:34:36Z</time></trkpt><trkpt lat="44.86878695625877" lon="8.99587835797134"><ele>204.0</ele><time>2026-03-29T09:34:37Z</time></trkpt><trkpt lat="44.86862400524904" lon="8.995967320957934"><ele>204.0</ele><time>2026-03-29T09:34:38Z</time></trkpt><trkpt lat="44.86846418306655" lon="8.996049146930062"><ele>204.0</ele><time>2026-03-29T09:34:39Z</time></trkpt><trkpt lat="44.86830293313678" lon="8.996123100728774"><ele>204.0</ele><time>2026-03-29T09:34:40Z</time></trkpt><trkpt lat="44.86813614557717" lon="8.996185384261857"><ele>205.0</ele><time>2026-03-29T09:34:41Z</time></trkpt><trkpt lat="44.867969080954595" lon="8.996233871780747"><ele>206.0</ele><time>2026-03-29T09:34:42Z</time></trkpt><trkpt lat="44.86780694711632" lon="8.996274387666844"><ele>207.0</ele><time>2026-03-29T09:34:43Z</time></trkpt><trkpt lat="44.8676502529956" lon="8.996307827348636"><ele>207.25</ele><time>2026-03-29T09:34:44Z</time></trkpt><trkpt lat="44.867498650467965" lon="8.996344912794223"><ele>207.5</ele><time>2026-03-29T09:34:45Z</time></trkpt><trkpt lat="44.86735605619768" lon="8.996382037621817"><ele>207.75</ele><time>2026-03-29T09:34:46Z</time></trkpt><trkpt lat="44.86721242491187" lon="8.996416327351447"><ele>208.0</ele><time>2026-03-29T09:34:47Z</time></trkpt><trkpt lat="44.86706723239604" lon="8.996447774592818"><ele>208.0</ele><time>2026-03-29T09:34:48Z</time></trkpt><trkpt lat="44.866920722974946" lon="8.996477105419723"><ele>208.0</ele><time>2026-03-29T09:34:49Z</time></trkpt><trkpt lat="44.866771974590804" lon="8.996510097790555"><ele>208.0</ele><time>2026-03-29T09:34:50Z</time></trkpt><trkpt lat="44.86662126140961" lon="8.99654609739803"><ele>207.0</ele><time>2026-03-29T09:34:51Z</time></trkpt><trkpt lat="44.86646982600795" lon="8.996585479689916"><ele>206.0</ele><time>2026-03-29T09:34:52Z</time></trkpt><trkpt lat="44.86631461587359" lon="8.996635926528084"><ele>205.0</ele><time>2026-03-29T09:34:53Z</time></trkpt><trkpt lat="44.866162668160776" lon="8.99670488105273"><ele>205.0</ele><time>2026-03-29T09:34:54Z</time></trkpt><trkpt lat="44.866011129636846" lon="8.996808939986966"><ele>205.0</ele><time>2026-03-29T09:34:55Z</time></trkpt><trkpt lat="44.86584903461691" lon="8.996957551718527"><ele>205.0</ele><time>2026-03-29T09:34:56Z</time></trkpt><trkpt lat="44.865666499151956" lon="8.997126076050444"><ele>205.0</ele><time>2026-03-29T09:34:57Z</time></trkpt><trkpt lat="44.86547148064913" lon="8.997311534550422"><ele>205.0</ele><time>2026-03-29T09:34:58Z</time></trkpt><trkpt lat="44.86525774204762" lon="8.997519823770306"><ele>207.5</ele><time>2026-03-29T09:34:59Z</time></trkpt><trkpt lat="44.86503710382329" lon="8.997734310896474"><ele>210.0</ele><time>2026-03-29T09:35:00Z</time></trkpt><trkpt lat="44.86483046111143" lon="8.997946930131418"><ele>210.0</ele><time>2026-03-29T09:35:01Z</time></trkpt><trkpt lat="44.86462443679698" lon="8.998155960789903"><ele>210.0</ele><time>2026-03-29T09:35:02Z</time></trkpt><trkpt lat="44.86441697911185" lon="8.998364004274702"><ele>209.0</ele><time>2026-03-29T09:35:03Z</time></trkpt><trkpt lat="44.86421337175455" lon="8.998572910580352"><ele>208.0</ele><time>2026-03-29T09:35:04Z</time></trkpt><trkpt lat="44.86401651355443" lon="8.998779602972286"><ele>208.0</ele><time>2026-03-29T09:35:05Z</time></trkpt><trkpt lat="44.86382415416372" lon="8.998974893081321"><ele>208.0</ele><time>2026-03-29T09:35:06Z</time></trkpt><trkpt lat="44.863631743146875" lon="8.999137131928212"><ele>208.0</ele><time>2026-03-29T09:35:07Z</time></trkpt><trkpt lat="44.863435546899574" lon="8.99926553703612"><ele>208.0</ele><time>2026-03-29T09:35:08Z</time></trkpt><trkpt lat="44.86323077318972" lon="8.999366309363722"><ele>208.0</ele><time>2026-03-29T09:35:09Z</time></trkpt><trkpt lat="44.863015864879564" lon="8.999430986110166"><ele>208.0</ele><time>2026-03-29T09:35:10Z</time></trkpt><trkpt lat="44.86279480936713" lon="8.999460984428563"><ele>208.0</ele><time>2026-03-29T09:35:11Z</time></trkpt><trkpt lat="44.86257037644191" lon="8.999457157170013"><ele>208.0</ele><time>2026-03-29T09:35:12Z</time></trkpt><trkpt lat="44.862346842613675" lon="8.999462270725154"><ele>210.33333333333331</ele><time>2026-03-29T09:35:13Z</time></trkpt><trkpt lat="44.86213566529484" lon="8.999505870784992"><ele>212.66666666666669</ele><time>2026-03-29T09:35:14Z</time></trkpt><trkpt lat="44.86194309134858" lon="8.999592177134598"><ele>215.0</ele><time>2026-03-29T09:35:15Z</time></trkpt><trkpt lat="44.8617621160867" lon="8.999733365760282"><ele>215.66666666666669</ele><time>2026-03-29T09:35:16Z</time></trkpt><trkpt lat="44.86158901444986" lon="8.999908413634627"><ele>216.33333333333331</ele><time>2026-03-29T09:35:17Z</time></trkpt><trkpt lat="44.861432411075704" lon="9.000121075899045"><ele>217.0</ele><time>2026-03-29T09:35:18Z</time></trkpt><trkpt lat="44.86129909753227" lon="9.000383847262707"><ele>217.0</ele><time>2026-03-29T09:35:19Z</time></trkpt><trkpt lat="44.861175793899854" lon="9.000668052710516"><ele>217.0</ele><time>2026-03-29T09:35:20Z</time></trkpt><trkpt lat="44.86104890711206" lon="9.000971518321599"><ele>219.5</ele><time>2026-03-29T09:35:20.999Z</time></trkpt><trkpt lat="44.86091365798982" lon="9.001285265763283"><ele>222.0</ele><time>2026-03-29T09:35:21.999Z</time></trkpt><trkpt lat="44.86077024184338" lon="9.001607057477083"><ele>218.0</ele><time>2026-03-29T09:35:22.999Z</time></trkpt><trkpt lat="44.86062144666833" lon="9.001935868996378"><ele>214.0</ele><time>2026-03-29T09:35:23.999Z</time></trkpt><trkpt lat="44.86047792376602" lon="9.002261206850834"><ele>213.0</ele><time>2026-03-29T09:35:24.999Z</time></trkpt><trkpt lat="44.86034613020081" lon="9.00257276423316"><ele>212.0</ele><time>2026-03-29T09:35:25.999Z</time></trkpt><trkpt lat="44.86020115161082" lon="9.002871840538916"><ele>215.5</ele><time>2026-03-29T09:35:26.999Z</time></trkpt><trkpt lat="44.86007226332433" lon="9.00317449477976"><ele>219.0</ele><time>2026-03-29T09:35:27.999Z</time></trkpt><trkpt lat="44.859947846214155" lon="9.003466649845418"><ele>219.0</ele><time>2026-03-29T09:35:28.999Z</time></trkpt><trkpt lat="44.85984232319563" lon="9.003751322930254"><ele>219.0</ele><time>2026-03-29T09:35:29.999Z</time></trkpt><trkpt lat="44.85971536680414" lon="9.003986395185782"><ele>219.0</ele><time>2026-03-29T09:35:30.999Z</time></trkpt><trkpt lat="44.859559557409575" lon="9.004164144124974"><ele>218.33333333333331</ele><time>2026-03-29T09:35:31.999Z</time></trkpt><trkpt lat="44.85939987437016" lon="9.004324837797563"><ele>217.66666666666666</ele><time>2026-03-29T09:35:32.999Z</time></trkpt><trkpt lat="44.85922129590328" lon="9.004458876499754"><ele>217.0</ele><time>2026-03-29T09:35:33.999Z</time></trkpt><trkpt lat="44.859034603301744" lon="9.0045983246369"><ele>220.0</ele><time>2026-03-29T09:35:34.999Z</time></trkpt><trkpt lat="44.858832868470024" lon="9.004703406263282"><ele>223.0</ele><time>2026-03-29T09:35:35.999Z</time></trkpt><trkpt lat="44.8586196092704" lon="9.004762591806612"><ele>226.0</ele><time>2026-03-29T09:35:36.999Z</time></trkpt><trkpt lat="44.85840239577742" lon="9.004811705176499"><ele>232.0</ele><time>2026-03-29T09:35:37.999Z</time></trkpt><trkpt lat="44.858196575831286" lon="9.004854148308748"><ele>238.0</ele><time>2026-03-29T09:35:38.999Z</time></trkpt><trkpt lat="44.85800830362877" lon="9.00479953126365"><ele>244.0</ele><time>2026-03-29T09:35:39.999Z</time></trkpt><trkpt lat="44.857825586747914" lon="9.00475038363195"><ele>244.0</ele><time>2026-03-29T09:35:40.999Z</time></trkpt><trkpt lat="44.85764587540738" lon="9.004712094025074"><ele>244.0</ele><time>2026-03-29T09:35:41.999Z</time></trkpt><trkpt lat="44.85748357041219" lon="9.004654068923447"><ele>244.0</ele><time>2026-03-29T09:35:42.999Z</time></trkpt><trkpt lat="44.85734927620928" lon="9.004619179477581"><ele>243.79999999999998</ele><time>2026-03-29T09:35:43.999Z</time></trkpt><trkpt lat="44.857230663120376" lon="9.004603202727303"><ele>243.59999999999997</ele><time>2026-03-29T09:35:44.999Z</time></trkpt><trkpt lat="44.85711825715704" lon="9.004608025740817"><ele>243.4</ele><time>2026-03-29T09:35:45.999Z</time></trkpt><trkpt lat="44.857012678615476" lon="9.004644000562944"><ele>243.2</ele><time>2026-03-29T09:35:46.999Z</time></trkpt><trkpt lat="44.856913442133376" lon="9.004691593768506"><ele>243.0</ele><time>2026-03-29T09:35:47.999Z</time></trkpt><trkpt lat="44.85681974245332" lon="9.00474730960309"><ele>242.0</ele><time>2026-03-29T09:35:48.999Z</time></trkpt><trkpt lat="44.85672825652781" lon="9.004814673177737"><ele>241.0</ele><time>2026-03-29T09:35:49.999Z</time></trkpt><trkpt lat="44.85663962029529" lon="9.004889264972887"><ele>240.0</ele><time>2026-03-29T09:35:50.999Z</time></trkpt><trkpt lat="44.85655604976929" lon="9.004967010048954"><ele>239.0</ele><time>2026-03-29T09:35:51.999Z</time></trkpt><trkpt lat="44.85647537534625" lon="9.005038553959162"><ele>238.0</ele><time>2026-03-29T09:35:52.999Z</time></trkpt><trkpt lat="44.856391052812285" lon="9.005101266222347"><ele>235.8</ele><time>2026-03-29T09:35:53.999Z</time></trkpt><trkpt lat="44.85630273913996" lon="9.005153898287537"><ele>233.60000000000002</ele><time>2026-03-29T09:35:54.999Z</time></trkpt><trkpt lat="44.85621305637802" lon="9.005200185471095"><ele>231.39999999999998</ele><time>2026-03-29T09:35:55.999Z</time></trkpt><trkpt lat="44.85612328213264" lon="9.005243558984828"><ele>229.2</ele><time>2026-03-29T09:35:56.999Z</time></trkpt><trkpt lat="44.85603378348288" lon="9.005286686720899"><ele>227.0</ele><time>2026-03-29T09:35:57.999Z</time></trkpt><trkpt lat="44.85594716331476" lon="9.00532860942247"><ele>227.00000000000003</ele><time>2026-03-29T09:35:58.999Z</time></trkpt><trkpt lat="44.85586377303576" lon="9.005367671547965"><ele>227.0</ele><time>2026-03-29T09:35:59.999Z</time></trkpt><trkpt lat="44.8557846901729" lon="9.005403360433117"><ele>227.0</ele><time>2026-03-29T09:36:00.999Z</time></trkpt><trkpt lat="44.85572167767225" lon="9.005433609252487"><ele>227.0</ele><time>2026-03-29T09:36:01.999Z</time></trkpt><trkpt lat="44.85563280786946" lon="9.005471801731112"><ele>227.00000000000003</ele><time>2026-03-29T09:36:03.999Z</time></trkpt><trkpt lat="44.85555591422805" lon="9.005514657515144"><ele>227.0</ele><time>2026-03-29T09:36:05.999Z</time></trkpt><trkpt lat="44.85548251639193" lon="9.005530417483799"><ele>227.0</ele><time>2026-03-29T09:36:07.999Z</time></trkpt><trkpt lat="44.855373805380204" lon="9.005582126969713"><ele>227.0</ele><time>2026-03-29T09:36:09.999Z</time></trkpt><trkpt lat="44.855298073693554" lon="9.005640969630925"><ele>227.0</ele><time>2026-03-29T09:36:10.999Z</time></trkpt><trkpt lat="44.85519503228616" lon="9.0056845080953"><ele>227.0</ele><time>2026-03-29T09:36:11.999Z</time></trkpt><trkpt lat="44.85506835025841" lon="9.0057426016552"><ele>227.0</ele><time>2026-03-29T09:36:12.999Z</time></trkpt><trkpt lat="44.854918093036574" lon="9.005799197606688"><ele>227.0</ele><time>2026-03-29T09:36:13.999Z</time></trkpt><trkpt lat="44.85474130298939" lon="9.005840757929855"><ele>227.0</ele><time>2026-03-29T09:36:14.999Z</time></trkpt><trkpt lat="44.8545409305079" lon="9.005905929627092"><ele>227.0</ele><time>2026-03-29T09:36:15.999Z</time></trkpt><trkpt lat="44.854466518056014" lon="9.006023269184197"><ele>227.0</ele><time>2026-03-29T09:36:16.999Z</time></trkpt><trkpt lat="44.85427754902017" lon="9.006101708256413"><ele>227.0</ele><time>2026-03-29T09:36:17.999Z</time></trkpt><trkpt lat="44.85409308433471" lon="9.006184609012317"><ele>227.0</ele><time>2026-03-29T09:36:18.999Z</time></trkpt><trkpt lat="44.853901387989346" lon="9.006276148057996"><ele>227.0</ele><time>2026-03-29T09:36:19.999Z</time></trkpt><trkpt lat="44.85370647831919" lon="9.006365716510663"><ele>227.0</ele><time>2026-03-29T09:36:20.999Z</time></trkpt><trkpt lat="44.8535009233511" lon="9.006456063241902"><ele>227.0</ele><time>2026-03-29T09:36:21.998Z</time></trkpt><trkpt lat="44.85329328335311" lon="9.00655026212838"><ele>226.0</ele><time>2026-03-29T09:36:22.998Z</time></trkpt><trkpt lat="44.853077689925804" lon="9.006652629221058"><ele>225.0</ele><time>2026-03-29T09:36:23.998Z</time></trkpt><trkpt lat="44.85284907463767" lon="9.006753681165677"><ele>227.5</ele><time>2026-03-29T09:36:24.998Z</time></trkpt><trkpt lat="44.85261621325572" lon="9.006855674255965"><ele>230.0</ele><time>2026-03-29T09:36:25.998Z</time></trkpt><trkpt lat="44.85237731174871" lon="9.00696585695215"><ele>230.0</ele><time>2026-03-29T09:36:26.998Z</time></trkpt><trkpt lat="44.85213636065347" lon="9.00708059672001"><ele>230.0</ele><time>2026-03-29T09:36:27.998Z</time></trkpt><trkpt lat="44.851895712636384" lon="9.00720145597447"><ele>232.0</ele><time>2026-03-29T09:36:28.998Z</time></trkpt><trkpt lat="44.85165023535547" lon="9.007316919206"><ele>234.0</ele><time>2026-03-29T09:36:29.998Z</time></trkpt><trkpt lat="44.85140342836553" lon="9.007420753696758"><ele>232.0</ele><time>2026-03-29T09:36:30.998Z</time></trkpt><trkpt lat="44.85115940778066" lon="9.007531413314485"><ele>230.0</ele><time>2026-03-29T09:36:32Z</time></trkpt><trkpt lat="44.85091662464448" lon="9.007649734318724"><ele>230.0</ele><time>2026-03-29T09:36:33Z</time></trkpt><trkpt lat="44.85068623485963" lon="9.00778969189481"><ele>230.0</ele><time>2026-03-29T09:36:34Z</time></trkpt><trkpt lat="44.85046530729614" lon="9.007965512350134"><ele>230.0</ele><time>2026-03-29T09:36:35Z</time></trkpt><trkpt lat="44.850256130899425" lon="9.008173981101537"><ele>230.0</ele><time>2026-03-29T09:36:36Z</time></trkpt><trkpt lat="44.85005652861236" lon="9.008406379155872"><ele>230.0</ele><time>2026-03-29T09:36:37Z</time></trkpt><trkpt lat="44.849858189907245" lon="9.00865008562953"><ele>230.0</ele><time>2026-03-29T09:36:38Z</time></trkpt><trkpt lat="44.84965397219151" lon="9.008894959993379"><ele>230.0</ele><time>2026-03-29T09:36:39Z</time></trkpt><trkpt lat="44.849443703237554" lon="9.009150929196677"><ele>230.0</ele><time>2026-03-29T09:36:40Z</time></trkpt><trkpt lat="44.849226653669504" lon="9.009395035693798"><ele>230.0</ele><time>2026-03-29T09:36:41Z</time></trkpt><trkpt lat="44.849012683506416" lon="9.009637414088164"><ele>230.0</ele><time>2026-03-29T09:36:42Z</time></trkpt><trkpt lat="44.84879696421606" lon="9.009880459010109"><ele>230.0</ele><time>2026-03-29T09:36:43Z</time></trkpt><trkpt lat="44.84858453448634" lon="9.010127799635104"><ele>230.0</ele><time>2026-03-29T09:36:44Z</time></trkpt><trkpt lat="44.84837737188024" lon="9.01036476544735"><ele>231.5</ele><time>2026-03-29T09:36:45Z</time></trkpt><trkpt lat="44.848176961164796" lon="9.0105969197809"><ele>233.0</ele><time>2026-03-29T09:36:46Z</time></trkpt><trkpt lat="44.847977473994085" lon="9.010827297107557"><ele>233.0</ele><time>2026-03-29T09:36:47Z</time></trkpt><trkpt lat="44.84777863012383" lon="9.011049925295596"><ele>233.0</ele><time>2026-03-29T09:36:48Z</time></trkpt><trkpt lat="44.847587919737045" lon="9.01126182203151"><ele>233.5</ele><time>2026-03-29T09:36:49Z</time></trkpt><trkpt lat="44.8473980412912" lon="9.011455984345849"><ele>234.0</ele><time>2026-03-29T09:36:50Z</time></trkpt><trkpt lat="44.847212311086594" lon="9.011636530585184"><ele>234.66666666666669</ele><time>2026-03-29T09:36:51Z</time></trkpt><trkpt lat="44.847023943065935" lon="9.011809104784968"><ele>235.33333333333334</ele><time>2026-03-29T09:36:52Z</time></trkpt><trkpt lat="44.84683552958036" lon="9.01196643052102"><ele>236.0</ele><time>2026-03-29T09:36:53Z</time></trkpt><trkpt lat="44.846650893071846" lon="9.012118794954162"><ele>236.33333333333334</ele><time>2026-03-29T09:36:54Z</time></trkpt><trkpt lat="44.84647952740415" lon="9.01226577982821"><ele>236.66666666666669</ele><time>2026-03-29T09:36:55Z</time></trkpt><trkpt lat="44.84632133279095" lon="9.012405701136398"><ele>237.0</ele><time>2026-03-29T09:36:56Z</time></trkpt><trkpt lat="44.846168066386475" lon="9.012549408967754"><ele>237.0</ele><time>2026-03-29T09:36:57Z</time></trkpt><trkpt lat="44.846026897697236" lon="9.012723620588211"><ele>237.0</ele><time>2026-03-29T09:36:58Z</time></trkpt><trkpt lat="44.84590043789166" lon="9.012925342592581"><ele>237.0</ele><time>2026-03-29T09:36:59Z</time></trkpt><trkpt lat="44.845788518560894" lon="9.013154894404721"><ele>237.0</ele><time>2026-03-29T09:37:00Z</time></trkpt><trkpt lat="44.84567884040208" lon="9.01339327684816"><ele>237.0</ele><time>2026-03-29T09:37:01Z</time></trkpt><trkpt lat="44.845556370855974" lon="9.013629405358358"><ele>237.0</ele><time>2026-03-29T09:37:02Z</time></trkpt><trkpt lat="44.84541050178639" lon="9.013847007327813"><ele>237.0</ele><time>2026-03-29T09:37:03Z</time></trkpt><trkpt lat="44.84524726063414" lon="9.014045475794026"><ele>237.0</ele><time>2026-03-29T09:37:04Z</time></trkpt><trkpt lat="44.84506499596718" lon="9.014221273929179"><ele>237.0</ele><time>2026-03-29T09:37:05Z</time></trkpt><trkpt lat="44.844866274650336" lon="9.014375218379728"><ele>239.0</ele><time>2026-03-29T09:37:06Z</time></trkpt><trkpt lat="44.84465969024293" lon="9.014517487062964"><ele>241.0</ele><time>2026-03-29T09:37:07Z</time></trkpt><trkpt lat="44.844453267903354" lon="9.014671839579707"><ele>240.5</ele><time>2026-03-29T09:37:08Z</time></trkpt><trkpt lat="44.84424613956164" lon="9.014837123397463"><ele>240.0</ele><time>2026-03-29T09:37:09Z</time></trkpt><trkpt lat="44.84403835343353" lon="9.015012937030281"><ele>240.0</ele><time>2026-03-29T09:37:10Z</time></trkpt><trkpt lat="44.84383176891928" lon="9.015206192374857"><ele>240.0</ele><time>2026-03-29T09:37:11Z</time></trkpt><trkpt lat="44.84362979435995" lon="9.015428090244978"><ele>241.5</ele><time>2026-03-29T09:37:12Z</time></trkpt><trkpt lat="44.84343477496412" lon="9.015664042383856"><ele>243.0</ele><time>2026-03-29T09:37:13Z</time></trkpt><trkpt lat="44.84324278549428" lon="9.015904855172646"><ele>243.0</ele><time>2026-03-29T09:37:14Z</time></trkpt><trkpt lat="44.84306245047157" lon="9.016129100516949"><ele>243.0</ele><time>2026-03-29T09:37:15Z</time></trkpt><trkpt lat="44.84289373808188" lon="9.016336100118416"><ele>243.0</ele><time>2026-03-29T09:37:16Z</time></trkpt><trkpt lat="44.84273258304849" lon="9.016532443815347"><ele>243.0</ele><time>2026-03-29T09:37:17Z</time></trkpt><trkpt lat="44.842585784770264" lon="9.01672436451448"><ele>243.0</ele><time>2026-03-29T09:37:18Z</time></trkpt><trkpt lat="44.84243039453443" lon="9.01689817155458"><ele>242.66666666666669</ele><time>2026-03-29T09:37:19Z</time></trkpt><trkpt lat="44.842343274707034" lon="9.017181022909385"><ele>242.33333333333334</ele><time>2026-03-29T09:37:20Z</time></trkpt><trkpt lat="44.84225289946528" lon="9.017452724987832"><ele>242.0</ele><time>2026-03-29T09:37:21Z</time></trkpt><trkpt lat="44.842184041324664" lon="9.01774869218918"><ele>237.5</ele><time>2026-03-29T09:37:22Z</time></trkpt><trkpt lat="44.84213375582338" lon="9.018057047139495"><ele>233.0</ele><time>2026-03-29T09:37:23Z</time></trkpt><trkpt lat="44.84210485814689" lon="9.018382022574327"><ele>233.0</ele><time>2026-03-29T09:37:24Z</time></trkpt><trkpt lat="44.842090345249474" lon="9.018709769398123"><ele>233.0</ele><time>2026-03-29T09:37:25Z</time></trkpt><trkpt lat="44.842072984711976" lon="9.019034533678239"><ele>233.33333333333334</ele><time>2026-03-29T09:37:26Z</time></trkpt><trkpt lat="44.84203108682759" lon="9.019344407827617"><ele>233.66666666666669</ele><time>2026-03-29T09:37:26.999Z</time></trkpt><trkpt lat="44.841954694604375" lon="9.019637418025912"><ele>234.0</ele><time>2026-03-29T09:37:27.999Z</time></trkpt><trkpt lat="44.841847643786195" lon="9.019915358934767"><ele>236.5</ele><time>2026-03-29T09:37:28.999Z</time></trkpt><trkpt lat="44.8417087761266" lon="9.020181514737358"><ele>239.0</ele><time>2026-03-29T09:37:29.999Z</time></trkpt><trkpt lat="44.84154478370968" lon="9.020440184564766"><ele>239.0</ele><time>2026-03-29T09:37:30.999Z</time></trkpt><trkpt lat="44.84135976265503" lon="9.020694324001921"><ele>239.0</ele><time>2026-03-29T09:37:31.999Z</time></trkpt><trkpt lat="44.84117927302335" lon="9.020965659869692"><ele>239.0</ele><time>2026-03-29T09:37:32.999Z</time></trkpt><trkpt lat="44.841001410069275" lon="9.021248396674881"><ele>239.0</ele><time>2026-03-29T09:37:33.999Z</time></trkpt><trkpt lat="44.840824194562906" lon="9.02153203402569"><ele>240.0</ele><time>2026-03-29T09:37:34.999Z</time></trkpt><trkpt lat="44.840645415067854" lon="9.021815547176843"><ele>241.0</ele><time>2026-03-29T09:37:35.999Z</time></trkpt><trkpt lat="44.84046591263632" lon="9.02209506612724"><ele>241.0</ele><time>2026-03-29T09:37:36.999Z</time></trkpt><trkpt lat="44.8402801595748" lon="9.022364181415028"><ele>241.0</ele><time>2026-03-29T09:37:37.999Z</time></trkpt><trkpt lat="44.84008212517375" lon="9.022618089384226"><ele>243.5</ele><time>2026-03-29T09:37:38.999Z</time></trkpt><trkpt lat="44.83985778213215" lon="9.022833950904813"><ele>246.0</ele><time>2026-03-29T09:37:39.999Z</time></trkpt><trkpt lat="44.83961147439723" lon="9.023011112623958"><ele>246.0</ele><time>2026-03-29T09:37:40.999Z</time></trkpt><trkpt lat="44.83935524192766" lon="9.023164589429435"><ele>246.0</ele><time>2026-03-29T09:37:41.999Z</time></trkpt><trkpt lat="44.839099789505234" lon="9.023308364205764"><ele>247.5</ele><time>2026-03-29T09:37:42.999Z</time></trkpt><trkpt lat="44.83885009272946" lon="9.02346236017517"><ele>249.0</ele><time>2026-03-29T09:37:43.999Z</time></trkpt><trkpt lat="44.83860305245678" lon="9.02362099393428"><ele>251.5</ele><time>2026-03-29T09:37:44.999Z</time></trkpt><trkpt lat="44.83835503030833" lon="9.023779166743356"><ele>254.0</ele><time>2026-03-29T09:37:45.999Z</time></trkpt><trkpt lat="44.838109909128605" lon="9.023934452150568"><ele>254.0</ele><time>2026-03-29T09:37:46.999Z</time></trkpt><trkpt lat="44.837865621202205" lon="9.024086117268807"><ele>254.0</ele><time>2026-03-29T09:37:47.999Z</time></trkpt><trkpt lat="44.837623148830964" lon="9.0242293103575"><ele>253.0</ele><time>2026-03-29T09:37:48.999Z</time></trkpt><trkpt lat="44.83738229802606" lon="9.024367282325699"><ele>252.0</ele><time>2026-03-29T09:37:49.999Z</time></trkpt><trkpt lat="44.83714672751799" lon="9.024507659865904"><ele>252.0</ele><time>2026-03-29T09:37:50.999Z</time></trkpt><trkpt lat="44.83691756538418" lon="9.024649700238793"><ele>252.0</ele><time>2026-03-29T09:37:51.999Z</time></trkpt><trkpt lat="44.83669330226778" lon="9.024800034535248"><ele>253.5</ele><time>2026-03-29T09:37:52.999Z</time></trkpt><trkpt lat="44.83647967598891" lon="9.02498647713678"><ele>255.0</ele><time>2026-03-29T09:37:53.999Z</time></trkpt><trkpt lat="44.836285612449984" lon="9.025211515031335"><ele>255.0</ele><time>2026-03-29T09:37:54.999Z</time></trkpt><trkpt lat="44.83610927745919" lon="9.025458113276686"><ele>255.0</ele><time>2026-03-29T09:37:55.999Z</time></trkpt><trkpt lat="44.83593745962438" lon="9.02568754946127"><ele>255.33333333333331</ele><time>2026-03-29T09:37:56.999Z</time></trkpt><trkpt lat="44.83577269861932" lon="9.025887493874535"><ele>255.66666666666666</ele><time>2026-03-29T09:37:57.999Z</time></trkpt><trkpt lat="44.83560348263792" lon="9.026066460021289"><ele>256.0</ele><time>2026-03-29T09:37:58.999Z</time></trkpt><trkpt lat="44.83542373884439" lon="9.026220490015158"><ele>256.0</ele><time>2026-03-29T09:37:59.999Z</time></trkpt><trkpt lat="44.83523461662102" lon="9.026359113689992"><ele>256.0</ele><time>2026-03-29T09:38:00.999Z</time></trkpt><trkpt lat="44.835030688600405" lon="9.026476819857205"><ele>256.0</ele><time>2026-03-29T09:38:01.999Z</time></trkpt><trkpt lat="44.834821444650274" lon="9.02658127934047"><ele>256.66666666666663</ele><time>2026-03-29T09:38:02.999Z</time></trkpt><trkpt lat="44.834611912212566" lon="9.026681307893604"><ele>257.3333333333333</ele><time>2026-03-29T09:38:03.999Z</time></trkpt><trkpt lat="44.83440676249005" lon="9.02677801117523"><ele>258.0</ele><time>2026-03-29T09:38:04.999Z</time></trkpt><trkpt lat="44.83420669463956" lon="9.026881890891028"><ele>259.6666666666667</ele><time>2026-03-29T09:38:05.999Z</time></trkpt><trkpt lat="44.834015651702444" lon="9.026992197472882"><ele>261.33333333333337</ele><time>2026-03-29T09:38:06.999Z</time></trkpt><trkpt lat="44.83382691908565" lon="9.027096406830553"><ele>263.0</ele><time>2026-03-29T09:38:07.999Z</time></trkpt><trkpt lat="44.833635103806486" lon="9.027190554885484"><ele>263.0</ele><time>2026-03-29T09:38:08.999Z</time></trkpt><trkpt lat="44.83343740646719" lon="9.027278921847966"><ele>263.0</ele><time>2026-03-29T09:38:09.999Z</time></trkpt><trkpt lat="44.83324154128185" lon="9.027352794007381"><ele>263.0</ele><time>2026-03-29T09:38:10.999Z</time></trkpt><trkpt lat="44.83304631501714" lon="9.027436940134066"><ele>262.6666666666667</ele><time>2026-03-29T09:38:11.999Z</time></trkpt><trkpt lat="44.83285379679424" lon="9.027534944658345"><ele>262.3333333333333</ele><time>2026-03-29T09:38:12.999Z</time></trkpt><trkpt lat="44.832655084788705" lon="9.02763879457745"><ele>262.0</ele><time>2026-03-29T09:38:13.999Z</time></trkpt><trkpt lat="44.832453194255706" lon="9.027737907511808"><ele>262.0</ele><time>2026-03-29T09:38:14.999Z</time></trkpt><trkpt lat="44.83224518950378" lon="9.027838636922022"><ele>262.0</ele><time>2026-03-29T09:38:15.999Z</time></trkpt><trkpt lat="44.8320337203139" lon="9.027937093371163"><ele>262.0</ele><time>2026-03-29T09:38:16.999Z</time></trkpt><trkpt lat="44.8318180336945" lon="9.028042940921596"><ele>265.5</ele><time>2026-03-29T09:38:17.999Z</time></trkpt><trkpt lat="44.83160007820096" lon="9.028152476800951"><ele>269.0</ele><time>2026-03-29T09:38:18.999Z</time></trkpt><trkpt lat="44.831390105214126" lon="9.028258070241453"><ele>267.0</ele><time>2026-03-29T09:38:19.999Z</time></trkpt><trkpt lat="44.83119252524703" lon="9.028355957604685"><ele>265.0</ele><time>2026-03-29T09:38:20.999Z</time></trkpt><trkpt lat="44.83100712648451" lon="9.028446283013135"><ele>263.0</ele><time>2026-03-29T09:38:21.999Z</time></trkpt><trkpt lat="44.83082515134127" lon="9.028535112499359"><ele>263.0</ele><time>2026-03-29T09:38:22.999Z</time></trkpt><trkpt lat="44.83064327624695" lon="9.028621928412687"><ele>263.0</ele><time>2026-03-29T09:38:23.999Z</time></trkpt><trkpt lat="44.830464947981135" lon="9.028707946667911"><ele>263.0</ele><time>2026-03-29T09:38:24.999Z</time></trkpt><trkpt lat="44.8302958234257" lon="9.02879232585345"><ele>264.33333333333337</ele><time>2026-03-29T09:38:25.999Z</time></trkpt><trkpt lat="44.83013744947433" lon="9.028876883460196"><ele>265.6666666666667</ele><time>2026-03-29T09:38:26.999Z</time></trkpt><trkpt lat="44.829978158072336" lon="9.028969304347195"><ele>267.0</ele><time>2026-03-29T09:38:27.999Z</time></trkpt><trkpt lat="44.82981759748394" lon="9.02907441193568"><ele>266.0</ele><time>2026-03-29T09:38:28.998Z</time></trkpt><trkpt lat="44.829657985147925" lon="9.029197553209173"><ele>265.0</ele><time>2026-03-29T09:38:29.998Z</time></trkpt><trkpt lat="44.829498926767535" lon="9.029329335218595"><ele>264.0</ele><time>2026-03-29T09:38:30.998Z</time></trkpt><trkpt lat="44.82934053375543" lon="9.029471436250468"><ele>265.6666666666667</ele><time>2026-03-29T09:38:31.998Z</time></trkpt><trkpt lat="44.829184061564256" lon="9.02962562830181"><ele>267.33333333333337</ele><time>2026-03-29T09:38:32.998Z</time></trkpt><trkpt lat="44.829031162162906" lon="9.029794467709118"><ele>269.0</ele><time>2026-03-29T09:38:33.998Z</time></trkpt><trkpt lat="44.828882343731806" lon="9.02995983346683"><ele>268.33333333333337</ele><time>2026-03-29T09:38:34.998Z</time></trkpt><trkpt lat="44.82874253697788" lon="9.030115719586222"><ele>267.6666666666667</ele><time>2026-03-29T09:38:35.998Z</time></trkpt><trkpt lat="44.82860534328296" lon="9.030265533339245"><ele>267.0</ele><time>2026-03-29T09:38:36.998Z</time></trkpt><trkpt lat="44.828463044717836" lon="9.030410765949009"><ele>268.0</ele><time>2026-03-29T09:38:38Z</time></trkpt><trkpt lat="44.82832286374046" lon="9.030561608339092"><ele>269.0</ele><time>2026-03-29T09:38:39Z</time></trkpt><trkpt lat="44.82817765480913" lon="9.030712650086409"><ele>270.0</ele><time>2026-03-29T09:38:40Z</time></trkpt><trkpt lat="44.828031590204745" lon="9.030855844616973"><ele>270.0</ele><time>2026-03-29T09:38:41Z</time></trkpt><trkpt lat="44.82789246832096" lon="9.031010055906364"><ele>270.0</ele><time>2026-03-29T09:38:42Z</time></trkpt><trkpt lat="44.82775186506349" lon="9.031160641787924"><ele>270.0</ele><time>2026-03-29T09:38:43Z</time></trkpt><trkpt lat="44.82761289452029" lon="9.031302034074136"><ele>269.6666666666667</ele><time>2026-03-29T09:38:44Z</time></trkpt><trkpt lat="44.8274780282248" lon="9.031440723632741"><ele>269.33333333333337</ele><time>2026-03-29T09:38:45Z</time></trkpt><trkpt lat="44.82734555009354" lon="9.031576839954743"><ele>269.0</ele><time>2026-03-29T09:38:46Z</time></trkpt><trkpt lat="44.82721366410937" lon="9.031710928984133"><ele>269.0</ele><time>2026-03-29T09:38:47Z</time></trkpt><trkpt lat="44.827084391267725" lon="9.031845115689423"><ele>269.0</ele><time>2026-03-29T09:38:48Z</time></trkpt><trkpt lat="44.82695336625796" lon="9.031976236099316"><ele>269.0</ele><time>2026-03-29T09:38:49Z</time></trkpt><trkpt lat="44.826816247031104" lon="9.032102597173415"><ele>269.6666666666667</ele><time>2026-03-29T09:38:50Z</time></trkpt><trkpt lat="44.82667332440799" lon="9.032221923957653"><ele>270.3333333333333</ele><time>2026-03-29T09:38:51Z</time></trkpt><trkpt lat="44.826524124395654" lon="9.032335512920026"><ele>271.0</ele><time>2026-03-29T09:38:52Z</time></trkpt><trkpt lat="44.82637144561947" lon="9.032456346855092"><ele>271.0</ele><time>2026-03-29T09:38:53Z</time></trkpt><trkpt lat="44.826216670848396" lon="9.03257643908835"><ele>271.0</ele><time>2026-03-29T09:38:54Z</time></trkpt><trkpt lat="44.82605795403769" lon="9.032694272618356"><ele>271.0</ele><time>2026-03-29T09:38:55Z</time></trkpt><trkpt lat="44.82589697643744" lon="9.032815631211163"><ele>271.0</ele><time>2026-03-29T09:38:56Z</time></trkpt><trkpt lat="44.82573348261426" lon="9.032944839866792"><ele>271.0</ele><time>2026-03-29T09:38:57Z</time></trkpt><trkpt lat="44.825562267944" lon="9.033077335724668"><ele>271.0</ele><time>2026-03-29T09:38:58Z</time></trkpt><trkpt lat="44.82538513074159" lon="9.03321535119484"><ele>271.0</ele><time>2026-03-29T09:38:59Z</time></trkpt><trkpt lat="44.825210055416164" lon="9.03334713710457"><ele>271.0</ele><time>2026-03-29T09:39:00Z</time></trkpt><trkpt lat="44.82501954849683" lon="9.03349281891086"><ele>271.0</ele><time>2026-03-29T09:39:01Z</time></trkpt><trkpt lat="44.8248242489642" lon="9.033638930807298"><ele>271.0</ele><time>2026-03-29T09:39:02Z</time></trkpt><trkpt lat="44.824622609819436" lon="9.033790862321958"><ele>271.0</ele><time>2026-03-29T09:39:03Z</time></trkpt><trkpt lat="44.82440334088595" lon="9.033960176926554"><ele>271.5</ele><time>2026-03-29T09:39:04Z</time></trkpt><trkpt lat="44.82416549781268" lon="9.034152682207184"><ele>272.0</ele><time>2026-03-29T09:39:05Z</time></trkpt><trkpt lat="44.82390554628915" lon="9.034324979115246"><ele>272.0</ele><time>2026-03-29T09:39:06Z</time></trkpt><trkpt lat="44.82364928057661" lon="9.034522878957134"><ele>272.0</ele><time>2026-03-29T09:39:07Z</time></trkpt><trkpt lat="44.8233863196607" lon="9.034725949114984"><ele>271.0</ele><time>2026-03-29T09:39:08Z</time></trkpt><trkpt lat="44.82310559495471" lon="9.034940429967682"><ele>270.0</ele><time>2026-03-29T09:39:09Z</time></trkpt><trkpt lat="44.82281298590135" lon="9.03516256724558"><ele>273.0</ele><time>2026-03-29T09:39:10Z</time></trkpt><trkpt lat="44.82253337264704" lon="9.035374838594915"><ele>276.0</ele><time>2026-03-29T09:39:11Z</time></trkpt><trkpt lat="44.82226596958579" lon="9.03557784046013"><ele>276.0</ele><time>2026-03-29T09:39:12Z</time></trkpt><trkpt lat="44.82201377645125" lon="9.035786447728707"><ele>276.0</ele><time>2026-03-29T09:39:13Z</time></trkpt><trkpt lat="44.821761598745034" lon="9.035951808303006"><ele>276.0</ele><time>2026-03-29T09:39:14Z</time></trkpt><trkpt lat="44.821519215529065" lon="9.03611560055163"><ele>276.0</ele><time>2026-03-29T09:39:15Z</time></trkpt><trkpt lat="44.821283224754545" lon="9.03627562949527"><ele>276.0</ele><time>2026-03-29T09:39:16Z</time></trkpt><trkpt lat="44.821053444515655" lon="9.03643285739536"><ele>276.0</ele><time>2026-03-29T09:39:17Z</time></trkpt><trkpt lat="44.820825095971756" lon="9.036585859809293"><ele>274.5</ele><time>2026-03-29T09:39:18Z</time></trkpt><trkpt lat="44.82059721085822" lon="9.036735629403035"><ele>273.0</ele><time>2026-03-29T09:39:19Z</time></trkpt><trkpt lat="44.82038031114891" lon="9.036883342228572"><ele>273.0</ele><time>2026-03-29T09:39:20Z</time></trkpt><trkpt lat="44.820170395098344" lon="9.037027370676203"><ele>273.0</ele><time>2026-03-29T09:39:21Z</time></trkpt><trkpt lat="44.81997370602422" lon="9.037155579692346"><ele>273.0</ele><time>2026-03-29T09:39:22Z</time></trkpt><trkpt lat="44.81978620904897" lon="9.037278513050781"><ele>273.0</ele><time>2026-03-29T09:39:23Z</time></trkpt><trkpt lat="44.819611193670504" lon="9.037387550826264"><ele>273.0</ele><time>2026-03-29T09:39:24Z</time></trkpt><trkpt lat="44.81944879348987" lon="9.037493483317009"><ele>274.6666666666667</ele><time>2026-03-29T09:39:25Z</time></trkpt><trkpt lat="44.81929805648123" lon="9.03759447029617"><ele>276.33333333333337</ele><time>2026-03-29T09:39:26Z</time></trkpt><trkpt lat="44.81914187602848" lon="9.037694711966664"><ele>278.0</ele><time>2026-03-29T09:39:27Z</time></trkpt><trkpt lat="44.81898104917133" lon="9.037791159382342"><ele>278.0</ele><time>2026-03-29T09:39:28Z</time></trkpt><trkpt lat="44.8188214884827" lon="9.0378829880891"><ele>278.0</ele><time>2026-03-29T09:39:29Z</time></trkpt><trkpt lat="44.81866059906882" lon="9.03798568302608"><ele>278.0</ele><time>2026-03-29T09:39:29.999Z</time></trkpt><trkpt lat="44.81849229735697" lon="9.038081380766902"><ele>278.6666666666667</ele><time>2026-03-29T09:39:30.999Z</time></trkpt><trkpt lat="44.81832459146469" lon="9.038179380730616"><ele>279.3333333333333</ele><time>2026-03-29T09:39:31.999Z</time></trkpt><trkpt lat="44.81816768183225" lon="9.038267900861516"><ele>280.0</ele><time>2026-03-29T09:39:32.999Z</time></trkpt><trkpt lat="44.818028117009156" lon="9.038342238122642"><ele>279.5</ele><time>2026-03-29T09:39:33.999Z</time></trkpt><trkpt lat="44.817912585366415" lon="9.03840276238414"><ele>279.0</ele><time>2026-03-29T09:39:34.999Z</time></trkpt><trkpt lat="44.81780761206163" lon="9.038461183642353"><ele>278.5</ele><time>2026-03-29T09:39:35.999Z</time></trkpt><trkpt lat="44.81770197927593" lon="9.03852094906517"><ele>278.0</ele><time>2026-03-29T09:39:36.999Z</time></trkpt><trkpt lat="44.817578158309416" lon="9.038589462914588"><ele>278.0</ele><time>2026-03-29T09:39:37.999Z</time></trkpt><trkpt lat="44.81744897118931" lon="9.038664724353433"><ele>278.0</ele><time>2026-03-29T09:39:38.999Z</time></trkpt><trkpt lat="44.817311887451005" lon="9.038741140511835"><ele>278.0</ele><time>2026-03-29T09:39:39.999Z</time></trkpt><trkpt lat="44.817169472698204" lon="9.038817841527864"><ele>278.0</ele><time>2026-03-29T09:39:40.999Z</time></trkpt><trkpt lat="44.817022169327515" lon="9.038901338066436"><ele>278.0</ele><time>2026-03-29T09:39:41.999Z</time></trkpt><trkpt lat="44.816872273139346" lon="9.038983870831093"><ele>278.0</ele><time>2026-03-29T09:39:42.999Z</time></trkpt><trkpt lat="44.81671735888146" lon="9.03906962903037"><ele>278.0</ele><time>2026-03-29T09:39:43.999Z</time></trkpt><trkpt lat="44.81656081579306" lon="9.039157867318368"><ele>277.6666666666667</ele><time>2026-03-29T09:39:44.999Z</time></trkpt><trkpt lat="44.81640175902444" lon="9.039245001086957"><ele>277.3333333333333</ele><time>2026-03-29T09:39:45.999Z</time></trkpt><trkpt lat="44.81624231363836" lon="9.039333475509071"><ele>277.0</ele><time>2026-03-29T09:39:46.999Z</time></trkpt><trkpt lat="44.816084907974876" lon="9.039425204108648"><ele>277.75</ele><time>2026-03-29T09:39:47.999Z</time></trkpt><trkpt lat="44.81593533792937" lon="9.03951663537831"><ele>278.5</ele><time>2026-03-29T09:39:48.999Z</time></trkpt><trkpt lat="44.81579722350619" lon="9.039598999671925"><ele>279.25</ele><time>2026-03-29T09:39:49.999Z</time></trkpt><trkpt lat="44.81567096298337" lon="9.03966866364086"><ele>280.0</ele><time>2026-03-29T09:39:50.999Z</time></trkpt><trkpt lat="44.81554215878847" lon="9.039739964838295"><ele>280.0</ele><time>2026-03-29T09:39:51.999Z</time></trkpt><trkpt lat="44.815414063727346" lon="9.0398109514948"><ele>280.0</ele><time>2026-03-29T09:39:52.999Z</time></trkpt><trkpt lat="44.815288812839" lon="9.03987693529863"><ele>280.0</ele><time>2026-03-29T09:39:53.999Z</time></trkpt><trkpt lat="44.81517050022346" lon="9.039941997402291"><ele>280.0</ele><time>2026-03-29T09:39:54.999Z</time></trkpt><trkpt lat="44.815054430336396" lon="9.040009736531214"><ele>280.25</ele><time>2026-03-29T09:39:55.999Z</time></trkpt><trkpt lat="44.814937786189155" lon="9.04007749217303"><ele>280.5</ele><time>2026-03-29T09:39:56.999Z</time></trkpt><trkpt lat="44.81481988251843" lon="9.040144537483217"><ele>280.75</ele><time>2026-03-29T09:39:57.999Z</time></trkpt><trkpt lat="44.81470110338683" lon="9.040215157464415"><ele>281.0</ele><time>2026-03-29T09:39:58.999Z</time></trkpt><trkpt lat="44.81458034798528" lon="9.040285710377896"><ele>281.0</ele><time>2026-03-29T09:39:59.999Z</time></trkpt><trkpt lat="44.81445817451705" lon="9.040356499112951"><ele>281.0</ele><time>2026-03-29T09:40:00.999Z</time></trkpt><trkpt lat="44.81433688195635" lon="9.04042910966468"><ele>281.0</ele><time>2026-03-29T09:40:01.999Z</time></trkpt><trkpt lat="44.81421454387021" lon="9.040500867516414"><ele>281.0</ele><time>2026-03-29T09:40:02.999Z</time></trkpt><trkpt lat="44.81409190331791" lon="9.040572109755505"><ele>281.25</ele><time>2026-03-29T09:40:03.999Z</time></trkpt><trkpt lat="44.81397090088981" lon="9.040642504972764"><ele>281.5</ele><time>2026-03-29T09:40:04.999Z</time></trkpt><trkpt lat="44.81385413246799" lon="9.040711183979916"><ele>281.75</ele><time>2026-03-29T09:40:05.999Z</time></trkpt><trkpt lat="44.813744472534225" lon="9.04076828051587"><ele>282.0</ele><time>2026-03-29T09:40:06.999Z</time></trkpt><trkpt lat="44.81364262760366" lon="9.040815408425566"><ele>282.0</ele><time>2026-03-29T09:40:07.999Z</time></trkpt><trkpt lat="44.813547504448046" lon="9.040866252615388"><ele>282.0</ele><time>2026-03-29T09:40:08.999Z</time></trkpt><trkpt lat="44.81345803019725" lon="9.04092104387971"><ele>282.0</ele><time>2026-03-29T09:40:09.999Z</time></trkpt><trkpt lat="44.81335763318064" lon="9.040975704802948"><ele>282.0</ele><time>2026-03-29T09:40:10.999Z</time></trkpt><trkpt lat="44.8132419100931" lon="9.041022718258109"><ele>282.0</ele><time>2026-03-29T09:40:11.999Z</time></trkpt><trkpt lat="44.81311767256492" lon="9.041060243691923"><ele>283.0</ele><time>2026-03-29T09:40:12.999Z</time></trkpt><trkpt lat="44.81298043905353" lon="9.04107063890245"><ele>284.0</ele><time>2026-03-29T09:40:13.999Z</time></trkpt><trkpt lat="44.81283374889746" lon="9.041060069406704"><ele>285.0</ele><time>2026-03-29T09:40:14.999Z</time></trkpt><trkpt lat="44.81267845496355" lon="9.041053360511413"><ele>286.0</ele><time>2026-03-29T09:40:15.999Z</time></trkpt><trkpt lat="44.8125161868454" lon="9.041056227407559"><ele>287.0</ele><time>2026-03-29T09:40:16.999Z</time></trkpt><trkpt lat="44.812350240773384" lon="9.04106923620975"><ele>288.0</ele><time>2026-03-29T09:40:17.999Z</time></trkpt><trkpt lat="44.81219410491959" lon="9.041095428379899"><ele>289.0</ele><time>2026-03-29T09:40:18.999Z</time></trkpt><trkpt lat="44.812055622956635" lon="9.041125005727631"><ele>289.0</ele><time>2026-03-29T09:40:19.999Z</time></trkpt><trkpt lat="44.81191940612286" lon="9.041159589320118"><ele>289.0</ele><time>2026-03-29T09:40:20.999Z</time></trkpt><trkpt lat="44.811774091978535" lon="9.041208330329217"><ele>289.0</ele><time>2026-03-29T09:40:21.999Z</time></trkpt><trkpt lat="44.811626665258075" lon="9.041294027019521"><ele>289.0</ele><time>2026-03-29T09:40:22.999Z</time></trkpt><trkpt lat="44.81148614956258" lon="9.04142015312623"><ele>287.66666666666663</ele><time>2026-03-29T09:40:23.999Z</time></trkpt><trkpt lat="44.81134857856123" lon="9.041574382973458"><ele>286.3333333333333</ele><time>2026-03-29T09:40:24.999Z</time></trkpt><trkpt lat="44.81120483560346" lon="9.041738300115142"><ele>285.0</ele><time>2026-03-29T09:40:25.999Z</time></trkpt><trkpt lat="44.81104003677882" lon="9.041884841007061"><ele>284.6666666666667</ele><time>2026-03-29T09:40:26.999Z</time></trkpt><trkpt lat="44.8108575920495" lon="9.042017179528232"><ele>284.33333333333337</ele><time>2026-03-29T09:40:27.999Z</time></trkpt><trkpt lat="44.81067246000268" lon="9.042151322701987"><ele>284.0</ele><time>2026-03-29T09:40:28.999Z</time></trkpt><trkpt lat="44.81048676303522" lon="9.04229600359561"><ele>284.0</ele><time>2026-03-29T09:40:29.999Z</time></trkpt><trkpt lat="44.81029687723689" lon="9.042434632560282"><ele>284.0</ele><time>2026-03-29T09:40:30.998Z</time></trkpt><trkpt lat="44.810105808783426" lon="9.042574949307209"><ele>284.0</ele><time>2026-03-29T09:40:31.998Z</time></trkpt><trkpt lat="44.809913499577654" lon="9.04271564024186"><ele>285.0</ele><time>2026-03-29T09:40:32.998Z</time></trkpt><trkpt lat="44.80972079237036" lon="9.04284740162684"><ele>286.0</ele><time>2026-03-29T09:40:33.998Z</time></trkpt><trkpt lat="44.809531021452635" lon="9.042967093508782"><ele>287.0</ele><time>2026-03-29T09:40:34.998Z</time></trkpt><trkpt lat="44.809347891443835" lon="9.043087319247736"><ele>287.0</ele><time>2026-03-29T09:40:35.998Z</time></trkpt><trkpt lat="44.809169210977316" lon="9.043229735781221"><ele>287.0</ele><time>2026-03-29T09:40:36.998Z</time></trkpt><trkpt lat="44.808988662659814" lon="9.04338337901751"><ele>287.0</ele><time>2026-03-29T09:40:37.998Z</time></trkpt><trkpt lat="44.80879073277876" lon="9.04349192517684"><ele>287.0</ele><time>2026-03-29T09:40:38.998Z</time></trkpt><trkpt lat="44.80858978650733" lon="9.043581307156888"><ele>287.0</ele><time>2026-03-29T09:40:39.998Z</time></trkpt><trkpt lat="44.808374037298194" lon="9.043624870648213"><ele>287.0</ele><time>2026-03-29T09:40:40.998Z</time></trkpt><trkpt lat="44.80815259716813" lon="9.043640859240849"><ele>287.0</ele><time>2026-03-29T09:40:41.998Z</time></trkpt><trkpt lat="44.80791987251067" lon="9.043644104594597"><ele>287.0</ele><time>2026-03-29T09:40:43Z</time></trkpt><trkpt lat="44.80768793409976" lon="9.043662418314254"><ele>289.0</ele><time>2026-03-29T09:40:44Z</time></trkpt><trkpt lat="44.807451717018864" lon="9.043661915865894"><ele>291.0</ele><time>2026-03-29T09:40:45Z</time></trkpt><trkpt lat="44.8072132063546" lon="9.043669066584423"><ele>291.0</ele><time>2026-03-29T09:40:46Z</time></trkpt><trkpt lat="44.80697199588831" lon="9.043672116595387"><ele>291.0</ele><time>2026-03-29T09:40:47Z</time></trkpt><trkpt lat="44.80672897905632" lon="9.043684606801655"><ele>292.0</ele><time>2026-03-29T09:40:48Z</time></trkpt><trkpt lat="44.8064821753465" lon="9.043712588080183"><ele>293.0</ele><time>2026-03-29T09:40:49Z</time></trkpt><trkpt lat="44.80623487855279" lon="9.043748680365706"><ele>293.0</ele><time>2026-03-29T09:40:50Z</time></trkpt><trkpt lat="44.805986304376404" lon="9.043798975800566"><ele>293.0</ele><time>2026-03-29T09:40:51Z</time></trkpt><trkpt lat="44.80573924917777" lon="9.043856265738293"><ele>293.0</ele><time>2026-03-29T09:40:52Z</time></trkpt><trkpt lat="44.8054912378832" lon="9.043917432145586"><ele>293.0</ele><time>2026-03-29T09:40:53Z</time></trkpt><trkpt lat="44.80524545103833" lon="9.043969385939565"><ele>295.0</ele><time>2026-03-29T09:40:54Z</time></trkpt><trkpt lat="44.80500527126764" lon="9.044013439237641"><ele>297.0</ele><time>2026-03-29T09:40:55Z</time></trkpt><trkpt lat="44.804783088862806" lon="9.044054041971163"><ele>297.0</ele><time>2026-03-29T09:40:56Z</time></trkpt><trkpt lat="44.804579944059974" lon="9.044093118224946"><ele>297.0</ele><time>2026-03-29T09:40:57Z</time></trkpt><trkpt lat="44.80439191385777" lon="9.044133478020825"><ele>297.0</ele><time>2026-03-29T09:40:58Z</time></trkpt><trkpt lat="44.804215860652654" lon="9.044188400424506"><ele>298.0</ele><time>2026-03-29T09:40:59Z</time></trkpt><trkpt lat="44.80404806464245" lon="9.04428773888782"><ele>299.0</ele><time>2026-03-29T09:41:00Z</time></trkpt><trkpt lat="44.803887488474835" lon="9.044424110862458"><ele>300.0</ele><time>2026-03-29T09:41:01Z</time></trkpt><trkpt lat="44.80374702088821" lon="9.04460284057273"><ele>300.0</ele><time>2026-03-29T09:41:02Z</time></trkpt><trkpt lat="44.803626917128256" lon="9.044809802500021"><ele>300.0</ele><time>2026-03-29T09:41:03Z</time></trkpt><trkpt lat="44.80353023655025" lon="9.045035283796237"><ele>300.0</ele><time>2026-03-29T09:41:04Z</time></trkpt><trkpt lat="44.803448473456314" lon="9.045258319028122"><ele>301.6666666666667</ele><time>2026-03-29T09:41:05Z</time></trkpt><trkpt lat="44.80334668113321" lon="9.04543821558788"><ele>303.33333333333337</ele><time>2026-03-29T09:41:06Z</time></trkpt><trkpt lat="44.80323582702191" lon="9.045575640286797"><ele>305.0</ele><time>2026-03-29T09:41:07Z</time></trkpt><trkpt lat="44.803101277040064" lon="9.04569766304358"><ele>305.0</ele><time>2026-03-29T09:41:08Z</time></trkpt><trkpt lat="44.80295392324707" lon="9.045827546847272"><ele>305.0</ele><time>2026-03-29T09:41:09Z</time></trkpt><trkpt lat="44.8027968081886" lon="9.045949756484006"><ele>305.0</ele><time>2026-03-29T09:41:10Z</time></trkpt><trkpt lat="44.8026364687179" lon="9.046084445928784"><ele>306.0</ele><time>2026-03-29T09:41:11Z</time></trkpt><trkpt lat="44.80247520979929" lon="9.046215512587965"><ele>307.0</ele><time>2026-03-29T09:41:12Z</time></trkpt><trkpt lat="44.80231298437754" lon="9.046323322105055"><ele>308.0</ele><time>2026-03-29T09:41:13Z</time></trkpt><trkpt lat="44.80214668626946" lon="9.046345844641516"><ele>308.0</ele><time>2026-03-29T09:41:14Z</time></trkpt><trkpt lat="44.80197918720337" lon="9.046375777746707"><ele>308.0</ele><time>2026-03-29T09:41:15Z</time></trkpt><trkpt lat="44.80181259048761" lon="9.046321565940039"><ele>308.0</ele><time>2026-03-29T09:41:16Z</time></trkpt><trkpt lat="44.80164770408211" lon="9.046290527107283"><ele>308.6666666666667</ele><time>2026-03-29T09:41:17Z</time></trkpt><trkpt lat="44.80150208508153" lon="9.046247009514387"><ele>309.3333333333333</ele><time>2026-03-29T09:41:18Z</time></trkpt><trkpt lat="44.80135717548916" lon="9.046254239574079"><ele>310.0</ele><time>2026-03-29T09:41:19Z</time></trkpt><trkpt lat="44.80120158096198" lon="9.046318712381256"><ele>310.0</ele><time>2026-03-29T09:41:20Z</time></trkpt><trkpt lat="44.801047617690735" lon="9.04643510950775"><ele>310.0</ele><time>2026-03-29T09:41:21Z</time></trkpt><trkpt lat="44.800899197064275" lon="9.046575458429553"><ele>310.0</ele><time>2026-03-29T09:41:22Z</time></trkpt><trkpt lat="44.80075589520232" lon="9.046730826754736"><ele>309.3333333333333</ele><time>2026-03-29T09:41:23Z</time></trkpt><trkpt lat="44.80061449814866" lon="9.046872667820097"><ele>308.6666666666667</ele><time>2026-03-29T09:41:24Z</time></trkpt><trkpt lat="44.800473893878134" lon="9.04700584038738"><ele>308.0</ele><time>2026-03-29T09:41:25Z</time></trkpt><trkpt lat="44.80033180566821" lon="9.04713822376198"><ele>308.0</ele><time>2026-03-29T09:41:26Z</time></trkpt><trkpt lat="44.800187478981464" lon="9.04726870070516"><ele>308.0</ele><time>2026-03-29T09:41:27Z</time></trkpt><trkpt lat="44.8000390368314" lon="9.047408344095917"><ele>308.0</ele><time>2026-03-29T09:41:28Z</time></trkpt><trkpt lat="44.7998870415308" lon="9.047547959018075"><ele>309.6666666666667</ele><time>2026-03-29T09:41:29Z</time></trkpt><trkpt lat="44.799728486544424" lon="9.047693153422987"><ele>311.3333333333333</ele><time>2026-03-29T09:41:30Z</time></trkpt><trkpt lat="44.79956545618366" lon="9.047841002847296"><ele>313.0</ele><time>2026-03-29T09:41:31Z</time></trkpt><trkpt lat="44.799393829872216" lon="9.047999774450785"><ele>312.66666666666663</ele><time>2026-03-29T09:41:32Z</time></trkpt><trkpt lat="44.79921708363017" lon="9.048168963936043"><ele>312.3333333333333</ele><time>2026-03-29T09:41:33Z</time></trkpt><trkpt lat="44.799037675371395" lon="9.048329520858257"><ele>312.0</ele><time>2026-03-29T09:41:34Z</time></trkpt><trkpt lat="44.79886700297554" lon="9.048489005939299"><ele>312.0</ele><time>2026-03-29T09:41:34.999Z</time></trkpt><trkpt lat="44.798696301937866" lon="9.04864520400406"><ele>312.0</ele><time>2026-03-29T09:41:35.999Z</time></trkpt><trkpt lat="44.798524655345524" lon="9.04880815239143"><ele>312.0</ele><time>2026-03-29T09:41:36.999Z</time></trkpt><trkpt lat="44.79835284243381" lon="9.048968174924077"><ele>312.0</ele><time>2026-03-29T09:41:37.999Z</time></trkpt><trkpt lat="44.79817513217108" lon="9.049120377291413"><ele>312.0</ele><time>2026-03-29T09:41:38.999Z</time></trkpt><trkpt lat="44.79798651183956" lon="9.049256791959527"><ele>312.0</ele><time>2026-03-29T09:41:39.999Z</time></trkpt><trkpt lat="44.797781235721835" lon="9.049363153911537"><ele>312.3333333333333</ele><time>2026-03-29T09:41:40.999Z</time></trkpt><trkpt lat="44.797571777653744" lon="9.049461186984727"><ele>312.66666666666663</ele><time>2026-03-29T09:41:41.999Z</time></trkpt><trkpt lat="44.797365599901724" lon="9.049556633570415"><ele>313.0</ele><time>2026-03-29T09:41:42.999Z</time></trkpt><trkpt lat="44.79716660830196" lon="9.049663213508278"><ele>313.0</ele><time>2026-03-29T09:41:43.999Z</time></trkpt><trkpt lat="44.79697129723729" lon="9.04979095886765"><ele>313.0</ele><time>2026-03-29T09:41:44.999Z</time></trkpt><trkpt lat="44.79678754124156" lon="9.049926423619155"><ele>313.0</ele><time>2026-03-29T09:41:45.999Z</time></trkpt><trkpt lat="44.79661282007366" lon="9.050069792656613"><ele>313.3333333333333</ele><time>2026-03-29T09:41:46.999Z</time></trkpt><trkpt lat="44.79644523808397" lon="9.050238809467707"><ele>313.6666666666667</ele><time>2026-03-29T09:41:47.999Z</time></trkpt><trkpt lat="44.79628309836311" lon="9.050438248259567"><ele>314.0</ele><time>2026-03-29T09:41:48.999Z</time></trkpt><trkpt lat="44.79612240544671" lon="9.050673236881353"><ele>315.5</ele><time>2026-03-29T09:41:49.999Z</time></trkpt><trkpt lat="44.79595887012744" lon="9.05090960449299"><ele>317.0</ele><time>2026-03-29T09:41:50.999Z</time></trkpt><trkpt lat="44.79577950394734" lon="9.051145962996548"><ele>317.0</ele><time>2026-03-29T09:41:51.999Z</time></trkpt><trkpt lat="44.7956021519237" lon="9.051396088005532"><ele>317.0</ele><time>2026-03-29T09:41:52.999Z</time></trkpt><trkpt lat="44.79542852804653" lon="9.051641065656838"><ele>315.33333333333337</ele><time>2026-03-29T09:41:53.999Z</time></trkpt><trkpt lat="44.795268180662205" lon="9.051861947761195"><ele>313.6666666666667</ele><time>2026-03-29T09:41:54.999Z</time></trkpt><trkpt lat="44.79511675855319" lon="9.052078114052174"><ele>312.0</ele><time>2026-03-29T09:41:55.999Z</time></trkpt><trkpt lat="44.79496400511376" lon="9.052261809802593"><ele>311.6666666666667</ele><time>2026-03-29T09:41:56.999Z</time></trkpt><trkpt lat="44.7947977141055" lon="9.05243285653293"><ele>311.33333333333337</ele><time>2026-03-29T09:41:57.999Z</time></trkpt><trkpt lat="44.794601009006286" lon="9.052542022122912"><ele>311.0</ele><time>2026-03-29T09:41:58.999Z</time></trkpt><trkpt lat="44.79439277321826" lon="9.052625704890863"><ele>316.5</ele><time>2026-03-29T09:41:59.999Z</time></trkpt><trkpt lat="44.79417850110124" lon="9.052683732339743"><ele>322.0</ele><time>2026-03-29T09:42:00.999Z</time></trkpt><trkpt lat="44.79393817622163" lon="9.052743551389566"><ele>322.0</ele><time>2026-03-29T09:42:01.999Z</time></trkpt><trkpt lat="44.79368809389812" lon="9.052803225048107"><ele>322.0</ele><time>2026-03-29T09:42:02.999Z</time></trkpt><trkpt lat="44.79344494257374" lon="9.052863620719247"><ele>324.5</ele><time>2026-03-29T09:42:03.999Z</time></trkpt><trkpt lat="44.7932152166549" lon="9.05294093377546"><ele>327.0</ele><time>2026-03-29T09:42:04.999Z</time></trkpt><trkpt lat="44.79299828162019" lon="9.053000930751958"><ele>327.0</ele><time>2026-03-29T09:42:05.999Z</time></trkpt><trkpt lat="44.79278839210546" lon="9.053089562322086"><ele>327.0</ele><time>2026-03-29T09:42:06.999Z</time></trkpt><trkpt lat="44.79258300225841" lon="9.053228184673266"><ele>327.0</ele><time>2026-03-29T09:42:07.999Z</time></trkpt><trkpt lat="44.792395300343046" lon="9.053415588087162"><ele>325.3333333333333</ele><time>2026-03-29T09:42:08.999Z</time></trkpt><trkpt lat="44.79221826850744" lon="9.053627377176715"><ele>323.66666666666663</ele><time>2026-03-29T09:42:09.999Z</time></trkpt><trkpt lat="44.7920545033352" lon="9.053813796222647"><ele>322.0</ele><time>2026-03-29T09:42:10.999Z</time></trkpt><trkpt lat="44.79188099948261" lon="9.05394817494966"><ele>321.66666666666663</ele><time>2026-03-29T09:42:11.999Z</time></trkpt><trkpt lat="44.79170331460202" lon="9.054052951857335"><ele>321.3333333333333</ele><time>2026-03-29T09:42:12.999Z</time></trkpt><trkpt lat="44.7915027619773" lon="9.05413134208547"><ele>321.0</ele><time>2026-03-29T09:42:13.999Z</time></trkpt><trkpt lat="44.79129198939492" lon="9.054202486371024"><ele>321.0</ele><time>2026-03-29T09:42:14.999Z</time></trkpt><trkpt lat="44.79107350864559" lon="9.054260255932958"><ele>321.0</ele><time>2026-03-29T09:42:15.999Z</time></trkpt><trkpt lat="44.790855776368915" lon="9.054327062841574"><ele>321.0</ele><time>2026-03-29T09:42:16.999Z</time></trkpt><trkpt lat="44.79064042340682" lon="9.054371125765526"><ele>322.3333333333333</ele><time>2026-03-29T09:42:17.999Z</time></trkpt><trkpt lat="44.790430936212545" lon="9.054426794175802"><ele>323.66666666666663</ele><time>2026-03-29T09:42:18.999Z</time></trkpt><trkpt lat="44.790232996446655" lon="9.054533219756626"><ele>325.0</ele><time>2026-03-29T09:42:19.999Z</time></trkpt><trkpt lat="44.790042003594095" lon="9.054679139358589"><ele>327.5</ele><time>2026-03-29T09:42:20.999Z</time></trkpt><trkpt lat="44.7898544580004" lon="9.054860577019008"><ele>330.0</ele><time>2026-03-29T09:42:21.999Z</time></trkpt><trkpt lat="44.78967893361868" lon="9.055083659374793"><ele>324.5</ele><time>2026-03-29T09:42:22.999Z</time></trkpt><trkpt lat="44.789514108160255" lon="9.055336261519528"><ele>319.0</ele><time>2026-03-29T09:42:23.999Z</time></trkpt><trkpt lat="44.78935952693578" lon="9.055621652544017"><ele>319.0</ele><time>2026-03-29T09:42:24.999Z</time></trkpt><trkpt lat="44.78920045409918" lon="9.05590446858119"><ele>319.0</ele><time>2026-03-29T09:42:25.999Z</time></trkpt><trkpt lat="44.78903383874765" lon="9.0561854432585"><ele>319.0</ele><time>2026-03-29T09:42:26.999Z</time></trkpt><trkpt lat="44.78887097141023" lon="9.05646389921929"><ele>319.0</ele><time>2026-03-29T09:42:27.999Z</time></trkpt><trkpt lat="44.78870867833244" lon="9.056738381400736"><ele>318.5</ele><time>2026-03-29T09:42:28.999Z</time></trkpt><trkpt lat="44.78855198590581" lon="9.057000431873965"><ele>318.0</ele><time>2026-03-29T09:42:29.999Z</time></trkpt><trkpt lat="44.788404680833274" lon="9.057240225949409"><ele>319.0</ele><time>2026-03-29T09:42:30.999Z</time></trkpt><trkpt lat="44.78826561573462" lon="9.057474068502572"><ele>320.0</ele><time>2026-03-29T09:42:31.999Z</time></trkpt><trkpt lat="44.78814678866515" lon="9.057701248761687"><ele>321.0</ele><time>2026-03-29T09:42:32.999Z</time></trkpt><trkpt lat="44.78804715254875" lon="9.057924439891252"><ele>321.0</ele><time>2026-03-29T09:42:33.999Z</time></trkpt><trkpt lat="44.78798537277292" lon="9.058138932642237"><ele>321.0</ele><time>2026-03-29T09:42:34.999Z</time></trkpt><trkpt lat="44.78791942009595" lon="9.05834568422477"><ele>321.0</ele><time>2026-03-29T09:42:35.999Z</time></trkpt><trkpt lat="44.78786347263238" lon="9.05853161549946"><ele>320.75</ele><time>2026-03-29T09:42:36.998Z</time></trkpt><trkpt lat="44.787810857216726" lon="9.058701609957572"><ele>320.5</ele><time>2026-03-29T09:42:37.998Z</time></trkpt><trkpt lat="44.787760308853855" lon="9.058856425292038"><ele>320.25</ele><time>2026-03-29T09:42:38.998Z</time></trkpt><trkpt lat="44.78771244737715" lon="9.058998305182234"><ele>320.0</ele><time>2026-03-29T09:42:39.998Z</time></trkpt><trkpt lat="44.787664656408374" lon="9.059150556413872"><ele>321.5</ele><time>2026-03-29T09:42:40.998Z</time></trkpt><trkpt lat="44.78761568208656" lon="9.059310945213575"><ele>323.0</ele><time>2026-03-29T09:42:41.998Z</time></trkpt><trkpt lat="44.787563227375706" lon="9.059473638811776"><ele>324.5</ele><time>2026-03-29T09:42:42.998Z</time></trkpt><trkpt lat="44.787509029118155" lon="9.059633672557268"><ele>326.0</ele><time>2026-03-29T09:42:43.998Z</time></trkpt><trkpt lat="44.78745568483752" lon="9.059793604166778"><ele>326.0</ele><time>2026-03-29T09:42:44.998Z</time></trkpt><trkpt lat="44.78739791820176" lon="9.059953152888488"><ele>326.0</ele><time>2026-03-29T09:42:45.998Z</time></trkpt><trkpt lat="44.78733318443104" lon="9.060118244156168"><ele>326.0</ele><time>2026-03-29T09:42:46.998Z</time></trkpt><trkpt lat="44.78726410337987" lon="9.060289390610532"><ele>326.0</ele><time>2026-03-29T09:42:47.998Z</time></trkpt><trkpt lat="44.78719087685621" lon="9.060464524580482"><ele>326.0</ele><time>2026-03-29T09:42:49Z</time></trkpt><trkpt lat="44.787111230496514" lon="9.060642536932624"><ele>326.0</ele><time>2026-03-29T09:42:50Z</time></trkpt><trkpt lat="44.78702949281286" lon="9.060825478757165"><ele>326.0</ele><time>2026-03-29T09:42:51Z</time></trkpt><trkpt lat="44.78694966153595" lon="9.061005761268229"><ele>326.5</ele><time>2026-03-29T09:42:52Z</time></trkpt><trkpt lat="44.78687817799231" lon="9.061170056087906"><ele>327.0</ele><time>2026-03-29T09:42:53Z</time></trkpt><trkpt lat="44.78681316375924" lon="9.06132379811739"><ele>327.5</ele><time>2026-03-29T09:42:54Z</time></trkpt><trkpt lat="44.78674797907318" lon="9.061482437393424"><ele>328.0</ele><time>2026-03-29T09:42:55Z</time></trkpt><trkpt lat="44.786685844264255" lon="9.061644726474288"><ele>328.25</ele><time>2026-03-29T09:42:56Z</time></trkpt><trkpt lat="44.78661559730724" lon="9.061806957740073"><ele>328.5</ele><time>2026-03-29T09:42:57Z</time></trkpt><trkpt lat="44.78653920233778" lon="9.061963164508251"><ele>328.75</ele><time>2026-03-29T09:42:58Z</time></trkpt><trkpt lat="44.7864625051443" lon="9.062114593315915"><ele>329.0</ele><time>2026-03-29T09:42:59Z</time></trkpt><trkpt lat="44.78639585653734" lon="9.06225923138036"><ele>329.0</ele><time>2026-03-29T09:43:00Z</time></trkpt><trkpt lat="44.78633279260479" lon="9.062403525857816"><ele>329.0</ele><time>2026-03-29T09:43:01Z</time></trkpt><trkpt lat="44.78626773088427" lon="9.062551682140553"><ele>329.0</ele><time>2026-03-29T09:43:02Z</time></trkpt><trkpt lat="44.78620330782223" lon="9.062700068261272"><ele>329.0</ele><time>2026-03-29T09:43:03Z</time></trkpt><trkpt lat="44.78613893604185" lon="9.062848421035925"><ele>329.2</ele><time>2026-03-29T09:43:04Z</time></trkpt><trkpt lat="44.7860759826239" lon="9.062991466030654"><ele>329.4</ele><time>2026-03-29T09:43:05Z</time></trkpt><trkpt lat="44.7860211116625" lon="9.063118665402175"><ele>329.6</ele><time>2026-03-29T09:43:06Z</time></trkpt><trkpt lat="44.78597092814385" lon="9.06323828183296"><ele>329.8</ele><time>2026-03-29T09:43:07Z</time></trkpt><trkpt lat="44.78592132717439" lon="9.063351164366534"><ele>330.0</ele><time>2026-03-29T09:43:08Z</time></trkpt><trkpt lat="44.78587694695328" lon="9.0634522742202"><ele>330.6</ele><time>2026-03-29T09:43:09Z</time></trkpt><trkpt lat="44.78583781913532" lon="9.063542048197371"><ele>331.2</ele><time>2026-03-29T09:43:10Z</time></trkpt><trkpt lat="44.78579990580162" lon="9.063623460688417"><ele>331.79999999999995</ele><time>2026-03-29T09:43:11Z</time></trkpt><trkpt lat="44.785770004369446" lon="9.063774145738964"><ele>332.4</ele><time>2026-03-29T09:43:13Z</time></trkpt><trkpt lat="44.78586164091697" lon="9.063922652984061"><ele>333.0</ele><time>2026-03-29T09:43:15Z</time></trkpt><trkpt lat="44.78592894120589" lon="9.063996543090598"><ele>333.0</ele><time>2026-03-29T09:43:16Z</time></trkpt><trkpt lat="44.78599471021757" lon="9.064078137252514"><ele>333.0</ele><time>2026-03-29T09:43:17Z</time></trkpt><trkpt lat="44.7860512529468" lon="9.064158515768913"><ele>333.0</ele><time>2026-03-29T09:43:18Z</time></trkpt><trkpt lat="44.78609642526694" lon="9.064236343039612"><ele>333.0</ele><time>2026-03-29T09:43:19Z</time></trkpt><trkpt lat="44.7861428855881" lon="9.064317923898248"><ele>333.0</ele><time>2026-03-29T09:43:20Z</time></trkpt><trkpt lat="44.78619836807174" lon="9.064416402994468"><ele>333.0</ele><time>2026-03-29T09:43:21Z</time></trkpt><trkpt lat="44.786245256956086" lon="9.064553699000555"><ele>332.25</ele><time>2026-03-29T09:43:22Z</time></trkpt><trkpt lat="44.78627629446753" lon="9.064726168596382"><ele>331.5</ele><time>2026-03-29T09:43:23Z</time></trkpt><trkpt lat="44.78630042065553" lon="9.064921780574762"><ele>330.75</ele><time>2026-03-29T09:43:24Z</time></trkpt><trkpt lat="44.78632074114059" lon="9.065140175515428"><ele>330.0</ele><time>2026-03-29T09:43:25Z</time></trkpt><trkpt lat="44.78634695547713" lon="9.065364912161487"><ele>330.0</ele><time>2026-03-29T09:43:26Z</time></trkpt><trkpt lat="44.78638268859578" lon="9.065566843427984"><ele>330.0</ele><time>2026-03-29T09:43:27Z</time></trkpt><trkpt lat="44.786433858569275" lon="9.065760655000515"><ele>330.0</ele><time>2026-03-29T09:43:28Z</time></trkpt><trkpt lat="44.786502478051716" lon="9.065947710959856"><ele>330.0</ele><time>2026-03-29T09:43:29Z</time></trkpt><trkpt lat="44.786582973359316" lon="9.066132314301985"><ele>330.3333333333333</ele><time>2026-03-29T09:43:30Z</time></trkpt><trkpt lat="44.7866534452653" lon="9.066323347980788"><ele>330.66666666666663</ele><time>2026-03-29T09:43:31Z</time></trkpt><trkpt lat="44.786718248102446" lon="9.066520919694636"><ele>331.0</ele><time>2026-03-29T09:43:32Z</time></trkpt><trkpt lat="44.78677629945112" lon="9.066718077281369"><ele>331.66666666666663</ele><time>2026-03-29T09:43:33Z</time></trkpt><trkpt lat="44.78683343486744" lon="9.066917945868905"><ele>332.3333333333333</ele><time>2026-03-29T09:43:34Z</time></trkpt><trkpt lat="44.786887938321215" lon="9.067112426575768"><ele>333.0</ele><time>2026-03-29T09:43:35Z</time></trkpt><trkpt lat="44.7869458172793" lon="9.067309966063442"><ele>333.3333333333333</ele><time>2026-03-29T09:43:36Z</time></trkpt><trkpt lat="44.78700583556091" lon="9.067509939988447"><ele>333.66666666666663</ele><time>2026-03-29T09:43:37Z</time></trkpt><trkpt lat="44.787067692783346" lon="9.06771698087644"><ele>334.0</ele><time>2026-03-29T09:43:38Z</time></trkpt><trkpt lat="44.78713194584987" lon="9.067934656902704"><ele>334.0</ele><time>2026-03-29T09:43:39Z</time></trkpt><trkpt lat="44.78720237033192" lon="9.06815206910592"><ele>334.0</ele><time>2026-03-29T09:43:40Z</time></trkpt><trkpt lat="44.787274907783136" lon="9.06836591317003"><ele>334.0</ele><time>2026-03-29T09:43:40.999Z</time></trkpt><trkpt lat="44.78734895753111" lon="9.068576488309986"><ele>333.66666666666663</ele><time>2026-03-29T09:43:41.999Z</time></trkpt><trkpt lat="44.78742837163728" lon="9.068787327036612"><ele>333.3333333333333</ele><time>2026-03-29T09:43:42.999Z</time></trkpt><trkpt lat="44.78751506563474" lon="9.068999393397704"><ele>333.0</ele><time>2026-03-29T09:43:43.999Z</time></trkpt><trkpt lat="44.78760395462842" lon="9.06921203915212"><ele>333.3333333333333</ele><time>2026-03-29T09:43:44.999Z</time></trkpt><trkpt lat="44.787692959811295" lon="9.069425716439028"><ele>333.66666666666663</ele><time>2026-03-29T09:43:45.999Z</time></trkpt><trkpt lat="44.78778971582915" lon="9.069652289914123"><ele>334.0</ele><time>2026-03-29T09:43:46.999Z</time></trkpt><trkpt lat="44.78787984958218" lon="9.069912747371259"><ele>334.3333333333333</ele><time>2026-03-29T09:43:47.999Z</time></trkpt><trkpt lat="44.78798236180597" lon="9.070176591650464"><ele>334.6666666666667</ele><time>2026-03-29T09:43:48.999Z</time></trkpt><trkpt lat="44.78808387499347" lon="9.070445900845927"><ele>335.0</ele><time>2026-03-29T09:43:49.999Z</time></trkpt><trkpt lat="44.788194835141155" lon="9.070707586199"><ele>335.33333333333337</ele><time>2026-03-29T09:43:50.999Z</time></trkpt><trkpt lat="44.78827873929636" lon="9.070969390063015"><ele>335.6666666666667</ele><time>2026-03-29T09:43:51.999Z</time></trkpt><trkpt lat="44.78836721620068" lon="9.071219785335986"><ele>336.0</ele><time>2026-03-29T09:43:52.999Z</time></trkpt><trkpt lat="44.78845890795827" lon="9.071462705067978"><ele>336.6666666666667</ele><time>2026-03-29T09:43:53.999Z</time></trkpt><trkpt lat="44.788550575949415" lon="9.07169974118521"><ele>337.33333333333337</ele><time>2026-03-29T09:43:54.999Z</time></trkpt><trkpt lat="44.78863492788848" lon="9.071928445835134"><ele>338.0</ele><time>2026-03-29T09:43:55.999Z</time></trkpt><trkpt lat="44.788723981060656" lon="9.072148983129724"><ele>338.0</ele><time>2026-03-29T09:43:56.999Z</time></trkpt><trkpt lat="44.788824112696" lon="9.072353769494828"><ele>338.0</ele><time>2026-03-29T09:43:57.999Z</time></trkpt><trkpt lat="44.78894419735294" lon="9.072546829154566"><ele>338.0</ele><time>2026-03-29T09:43:58.999Z</time></trkpt><trkpt lat="44.78908296672536" lon="9.072714346341908"><ele>339.0</ele><time>2026-03-29T09:43:59.999Z</time></trkpt><trkpt lat="44.789218672887394" lon="9.072862014674982"><ele>340.0</ele><time>2026-03-29T09:44:00.999Z</time></trkpt><trkpt lat="44.78934329255066" lon="9.073006793836011"><ele>341.0</ele><time>2026-03-29T09:44:01.999Z</time></trkpt><trkpt lat="44.78943064731211" lon="9.073185911171677"><ele>341.33333333333337</ele><time>2026-03-29T09:44:02.999Z</time></trkpt><trkpt lat="44.78949809883207" lon="9.073383448776308"><ele>341.6666666666667</ele><time>2026-03-29T09:44:03.999Z</time></trkpt><trkpt lat="44.78957712702958" lon="9.073588084471028"><ele>342.0</ele><time>2026-03-29T09:44:04.999Z</time></trkpt><trkpt lat="44.789648617697424" lon="9.073808974786559"><ele>342.0</ele><time>2026-03-29T09:44:05.999Z</time></trkpt><trkpt lat="44.78975120420236" lon="9.074013424450323"><ele>342.0</ele><time>2026-03-29T09:44:06.999Z</time></trkpt><trkpt lat="44.78985114681409" lon="9.074224074834332"><ele>342.0</ele><time>2026-03-29T09:44:07.999Z</time></trkpt><trkpt lat="44.78992895872286" lon="9.07444769784875"><ele>344.3333333333333</ele><time>2026-03-29T09:44:08.999Z</time></trkpt><trkpt lat="44.78999714243968" lon="9.074686331443605"><ele>346.66666666666663</ele><time>2026-03-29T09:44:09.999Z</time></trkpt><trkpt lat="44.790058357897415" lon="9.074927216213563"><ele>349.0</ele><time>2026-03-29T09:44:10.999Z</time></trkpt><trkpt lat="44.790129784070544" lon="9.075164408561873"><ele>348.66666666666663</ele><time>2026-03-29T09:44:11.999Z</time></trkpt><trkpt lat="44.79021839944437" lon="9.075397852225832"><ele>348.3333333333333</ele><time>2026-03-29T09:44:12.999Z</time></trkpt><trkpt lat="44.79032935991403" lon="9.075623681195669"><ele>348.0</ele><time>2026-03-29T09:44:13.999Z</time></trkpt><trkpt lat="44.79045047647302" lon="9.075852190998315"><ele>350.6666666666667</ele><time>2026-03-29T09:44:14.999Z</time></trkpt><trkpt lat="44.790570292849296" lon="9.07609137717225"><ele>353.33333333333337</ele><time>2026-03-29T09:44:15.999Z</time></trkpt><trkpt lat="44.79068494710456" lon="9.07633592994649"><ele>356.0</ele><time>2026-03-29T09:44:16.999Z</time></trkpt><trkpt lat="44.79080398721679" lon="9.076579450860356"><ele>356.0</ele><time>2026-03-29T09:44:17.999Z</time></trkpt><trkpt lat="44.79092949975083" lon="9.076823492120205"><ele>356.0</ele><time>2026-03-29T09:44:18.999Z</time></trkpt><trkpt lat="44.79106144806125" lon="9.077072780704693"><ele>356.0</ele><time>2026-03-29T09:44:19.999Z</time></trkpt><trkpt lat="44.791201985850094" lon="9.07732095718145"><ele>356.5</ele><time>2026-03-29T09:44:20.999Z</time></trkpt><trkpt lat="44.791352771715246" lon="9.077565682775978"><ele>357.0</ele><time>2026-03-29T09:44:21.999Z</time></trkpt><trkpt lat="44.79151415530554" lon="9.077807456967735"><ele>357.0</ele><time>2026-03-29T09:44:22.999Z</time></trkpt><trkpt lat="44.791677677420715" lon="9.078049089100404"><ele>357.0</ele><time>2026-03-29T09:44:23.999Z</time></trkpt><trkpt lat="44.79184094888972" lon="9.078282378480893"><ele>356.0</ele><time>2026-03-29T09:44:24.999Z</time></trkpt><trkpt lat="44.7919993638525" lon="9.078500564276117"><ele>355.0</ele><time>2026-03-29T09:44:25.999Z</time></trkpt><trkpt lat="44.792147697020276" lon="9.078712352827612"><ele>354.0</ele><time>2026-03-29T09:44:26.999Z</time></trkpt><trkpt lat="44.79228678308706" lon="9.078932291641207"><ele>356.3333333333333</ele><time>2026-03-29T09:44:27.999Z</time></trkpt><trkpt lat="44.79241711933609" lon="9.079154913888996"><ele>358.66666666666663</ele><time>2026-03-29T09:44:28.999Z</time></trkpt><trkpt lat="44.79252991917515" lon="9.079403550073954"><ele>361.0</ele><time>2026-03-29T09:44:29.999Z</time></trkpt><trkpt lat="44.7926198490555" lon="9.079676069912992"><ele>360.66666666666663</ele><time>2026-03-29T09:44:30.999Z</time></trkpt><trkpt lat="44.79270390935308" lon="9.079950912220097"><ele>360.3333333333333</ele><time>2026-03-29T09:44:31.999Z</time></trkpt><trkpt lat="44.79278387004581" lon="9.080233424781564"><ele>360.0</ele><time>2026-03-29T09:44:32.999Z</time></trkpt><trkpt lat="44.79286294671306" lon="9.08050976706143"><ele>361.6666666666667</ele><time>2026-03-29T09:44:33.999Z</time></trkpt><trkpt lat="44.79293628850954" lon="9.08078037402289"><ele>363.33333333333337</ele><time>2026-03-29T09:44:34.999Z</time></trkpt><trkpt lat="44.79300726658404" lon="9.081046762022806"><ele>365.0</ele><time>2026-03-29T09:44:35.999Z</time></trkpt><trkpt lat="44.793080969891314" lon="9.08131030769867"><ele>365.0</ele><time>2026-03-29T09:44:36.999Z</time></trkpt><trkpt lat="44.79316913047521" lon="9.08156421756879"><ele>365.0</ele><time>2026-03-29T09:44:37.999Z</time></trkpt><trkpt lat="44.79328003381872" lon="9.081807268387491"><ele>365.0</ele><time>2026-03-29T09:44:38.999Z</time></trkpt><trkpt lat="44.79340266118512" lon="9.082037847864513"><ele>364.6666666666667</ele><time>2026-03-29T09:44:39.999Z</time></trkpt><trkpt lat="44.79352293034642" lon="9.08226352093773"><ele>364.3333333333333</ele><time>2026-03-29T09:44:40.999Z</time></trkpt><trkpt lat="44.79363964162257" lon="9.082476462115944"><ele>364.0</ele><time>2026-03-29T09:44:41.998Z</time></trkpt><trkpt lat="44.793745761813405" lon="9.082697540663697"><ele>365.0</ele><time>2026-03-29T09:44:42.998Z</time></trkpt><trkpt lat="44.79381485851324" lon="9.08295458119998"><ele>366.0</ele><time>2026-03-29T09:44:43.998Z</time></trkpt><trkpt lat="44.793884228028745" lon="9.083223236700492"><ele>367.0</ele><time>2026-03-29T09:44:44.998Z</time></trkpt><trkpt lat="44.79395793545536" lon="9.08350030855523"><ele>367.0</ele><time>2026-03-29T09:44:45.998Z</time></trkpt><trkpt lat="44.79402730014118" lon="9.08378050462066"><ele>367.0</ele><time>2026-03-29T09:44:46.998Z</time></trkpt><trkpt lat="44.794091409576126" lon="9.084065690505312"><ele>367.0</ele><time>2026-03-29T09:44:47.998Z</time></trkpt><trkpt lat="44.79414147351625" lon="9.084350261202252"><ele>369.0</ele><time>2026-03-29T09:44:48.998Z</time></trkpt><trkpt lat="44.79417816528599" lon="9.084641555059036"><ele>371.0</ele><time>2026-03-29T09:44:49.998Z</time></trkpt><trkpt lat="44.794202415853135" lon="9.084937335341573"><ele>373.0</ele><time>2026-03-29T09:44:50.998Z</time></trkpt><trkpt lat="44.794226005585564" lon="9.085229321187944"><ele>374.0</ele><time>2026-03-29T09:44:51.998Z</time></trkpt><trkpt lat="44.794251230220766" lon="9.085522639165404"><ele>375.0</ele><time>2026-03-29T09:44:52.998Z</time></trkpt><trkpt lat="44.79427453582873" lon="9.085820492124189"><ele>376.0</ele><time>2026-03-29T09:44:54Z</time></trkpt><trkpt lat="44.79429216468793" lon="9.086125600809142"><ele>376.0</ele><time>2026-03-29T09:44:55Z</time></trkpt><trkpt lat="44.79431042272147" lon="9.086437804628867"><ele>376.0</ele><time>2026-03-29T09:44:56Z</time></trkpt><trkpt lat="44.794334769503564" lon="9.086756163576869"><ele>373.5</ele><time>2026-03-29T09:44:57Z</time></trkpt><trkpt lat="44.794361835857856" lon="9.087075407457773"><ele>371.0</ele><time>2026-03-29T09:44:58Z</time></trkpt><trkpt lat="44.794407258910795" lon="9.087395466831403"><ele>371.0</ele><time>2026-03-29T09:44:59Z</time></trkpt><trkpt lat="44.79446309641302" lon="9.087719964804275"><ele>371.0</ele><time>2026-03-29T09:45:00Z</time></trkpt><trkpt lat="44.7945203638384" lon="9.088015648118139"><ele>371.6666666666667</ele><time>2026-03-29T09:45:01Z</time></trkpt><trkpt lat="44.79457030601791" lon="9.088284185295787"><ele>372.3333333333333</ele><time>2026-03-29T09:45:02Z</time></trkpt><trkpt lat="44.79461485440183" lon="9.088525912219122"><ele>373.0</ele><time>2026-03-29T09:45:03Z</time></trkpt><trkpt lat="44.79465476891862" lon="9.088750859636942"><ele>373.0</ele><time>2026-03-29T09:45:04Z</time></trkpt><trkpt lat="44.7946957968688" lon="9.088975738584297"><ele>373.0</ele><time>2026-03-29T09:45:05Z</time></trkpt><trkpt lat="44.794737197141885" lon="9.089204209633829"><ele>373.0</ele><time>2026-03-29T09:45:06Z</time></trkpt><trkpt lat="44.79477622798247" lon="9.089437124637573"><ele>373.66666666666663</ele><time>2026-03-29T09:45:07Z</time></trkpt><trkpt lat="44.79481409372581" lon="9.089664632411042"><ele>374.3333333333333</ele><time>2026-03-29T09:45:08Z</time></trkpt><trkpt lat="44.794852291837" lon="9.089898276775322"><ele>375.0</ele><time>2026-03-29T09:45:09Z</time></trkpt><trkpt lat="44.79489064368145" lon="9.090125037783212"><ele>377.0</ele><time>2026-03-29T09:45:10Z</time></trkpt><trkpt lat="44.79493169302082" lon="9.09035874602877"><ele>379.0</ele><time>2026-03-29T09:45:11Z</time></trkpt><trkpt lat="44.79496975834819" lon="9.09059426884599"><ele>381.0</ele><time>2026-03-29T09:45:12Z</time></trkpt><trkpt lat="44.79501590150781" lon="9.090835075881325"><ele>381.3333333333333</ele><time>2026-03-29T09:45:13Z</time></trkpt><trkpt lat="44.7950605517468" lon="9.091077000011401"><ele>381.66666666666663</ele><time>2026-03-29T09:45:14Z</time></trkpt><trkpt lat="44.79510723721364" lon="9.09132179596766"><ele>382.0</ele><time>2026-03-29T09:45:15Z</time></trkpt><trkpt lat="44.795151827599305" lon="9.091576578242353"><ele>381.66666666666663</ele><time>2026-03-29T09:45:16Z</time></trkpt><trkpt lat="44.79520367550807" lon="9.091845080834526"><ele>381.3333333333333</ele><time>2026-03-29T09:45:17Z</time></trkpt><trkpt lat="44.79525702972213" lon="9.092114134141962"><ele>381.0</ele><time>2026-03-29T09:45:18Z</time></trkpt><trkpt lat="44.79531351918924" lon="9.09238592307597"><ele>381.6666666666667</ele><time>2026-03-29T09:45:19Z</time></trkpt><trkpt lat="44.795369681566505" lon="9.092665017734781"><ele>382.33333333333337</ele><time>2026-03-29T09:45:20Z</time></trkpt><trkpt lat="44.79542825843709" lon="9.092958247994831"><ele>383.0</ele><time>2026-03-29T09:45:21Z</time></trkpt><trkpt lat="44.795485376639945" lon="9.093245696415297"><ele>384.33333333333337</ele><time>2026-03-29T09:45:22Z</time></trkpt><trkpt lat="44.79554191346461" lon="9.093533880360454"><ele>385.6666666666667</ele><time>2026-03-29T09:45:23Z</time></trkpt><trkpt lat="44.795593348467065" lon="9.093820628651468"><ele>387.0</ele><time>2026-03-29T09:45:24Z</time></trkpt><trkpt lat="44.79564911499257" lon="9.094106123450857"><ele>387.33333333333337</ele><time>2026-03-29T09:45:25Z</time></trkpt><trkpt lat="44.795698339781374" lon="9.094388263275514"><ele>387.6666666666667</ele><time>2026-03-29T09:45:26Z</time></trkpt><trkpt lat="44.79573245894029" lon="9.094686788590154"><ele>388.0</ele><time>2026-03-29T09:45:27Z</time></trkpt><trkpt lat="44.79575004715694" lon="9.094989140906874"><ele>388.0</ele><time>2026-03-29T09:45:28Z</time></trkpt><trkpt lat="44.795768260389" lon="9.095292896919108"><ele>388.0</ele><time>2026-03-29T09:45:29Z</time></trkpt><trkpt lat="44.79582801305484" lon="9.095594511337856"><ele>388.0</ele><time>2026-03-29T09:45:30Z</time></trkpt><trkpt lat="44.79590443620352" lon="9.095879859923382"><ele>388.0</ele><time>2026-03-29T09:45:31Z</time></trkpt><trkpt lat="44.79597827367594" lon="9.096148309103054"><ele>388.0</ele><time>2026-03-29T09:45:32Z</time></trkpt><trkpt lat="44.79601287497091" lon="9.096452157353669"><ele>388.0</ele><time>2026-03-29T09:45:33Z</time></trkpt><trkpt lat="44.79602796936724" lon="9.096702843831691"><ele>388.6666666666667</ele><time>2026-03-29T09:45:34Z</time></trkpt><trkpt lat="44.796030582695856" lon="9.096995053044223"><ele>389.33333333333337</ele><time>2026-03-29T09:45:35Z</time></trkpt><trkpt lat="44.79603524345071" lon="9.097296292149542"><ele>390.0</ele><time>2026-03-29T09:45:36Z</time></trkpt><trkpt lat="44.79603763947877" lon="9.097604204718074"><ele>390.0</ele><time>2026-03-29T09:45:37Z</time></trkpt><trkpt lat="44.796042726606366" lon="9.09792484340649"><ele>390.0</ele><time>2026-03-29T09:45:38Z</time></trkpt><trkpt lat="44.79604714161172" lon="9.098251342341403"><ele>389.0</ele><time>2026-03-29T09:45:39Z</time></trkpt><trkpt lat="44.796053177049686" lon="9.098587347320157"><ele>388.0</ele><time>2026-03-29T09:45:40Z</time></trkpt><trkpt lat="44.7960634367118" lon="9.09892424556473"><ele>390.0</ele><time>2026-03-29T09:45:41Z</time></trkpt><trkpt lat="44.79608126650478" lon="9.099262306201634"><ele>392.0</ele><time>2026-03-29T09:45:42Z</time></trkpt><trkpt lat="44.796102087882204" lon="9.099593286680706"><ele>392.0</ele><time>2026-03-29T09:45:43Z</time></trkpt><trkpt lat="44.79613227056986" lon="9.09990893245933"><ele>392.0</ele><time>2026-03-29T09:45:44Z</time></trkpt><trkpt lat="44.7961652336327" lon="9.100201089215593"><ele>392.0</ele><time>2026-03-29T09:45:45Z</time></trkpt><trkpt lat="44.796188691444755" lon="9.10048218012964"><ele>392.0</ele><time>2026-03-29T09:45:45.999Z</time></trkpt><trkpt lat="44.79619096885096" lon="9.100747966461538"><ele>392.0</ele><time>2026-03-29T09:45:46.999Z</time></trkpt><trkpt lat="44.79617021230656" lon="9.100995667168782"><ele>392.0</ele><time>2026-03-29T09:45:47.999Z</time></trkpt><trkpt lat="44.79612137722683" lon="9.101219762561612"><ele>392.0</ele><time>2026-03-29T09:45:48.999Z</time></trkpt><trkpt lat="44.7960359222684" lon="9.101422233909608"><ele>392.0</ele><time>2026-03-29T09:45:49.999Z</time></trkpt><trkpt lat="44.79592129504283" lon="9.101612563554946"><ele>392.0</ele><time>2026-03-29T09:45:50.999Z</time></trkpt><trkpt lat="44.79579861732821" lon="9.101794156394988"><ele>393.0</ele><time>2026-03-29T09:45:51.999Z</time></trkpt><trkpt lat="44.795688127706335" lon="9.10196928571018"><ele>394.0</ele><time>2026-03-29T09:45:52.999Z</time></trkpt><trkpt lat="44.79560509695863" lon="9.102144244804947"><ele>395.0</ele><time>2026-03-29T09:45:53.999Z</time></trkpt><trkpt lat="44.79554366962703" lon="9.102315051434246"><ele>394.0</ele><time>2026-03-29T09:45:54.999Z</time></trkpt><trkpt lat="44.79549934158639" lon="9.102479065545392"><ele>393.0</ele><time>2026-03-29T09:45:55.999Z</time></trkpt><trkpt lat="44.79547310816063" lon="9.102635979211797"><ele>392.0</ele><time>2026-03-29T09:45:56.999Z</time></trkpt><trkpt lat="44.79546086918003" lon="9.102781427292252"><ele>391.0</ele><time>2026-03-29T09:45:57.999Z</time></trkpt><trkpt lat="44.795462470871456" lon="9.102897131055474"><ele>390.0</ele><time>2026-03-29T09:45:58.999Z</time></trkpt><trkpt lat="44.795466646718666" lon="9.103001786996659"><ele>390.0</ele><time>2026-03-29T09:45:59.999Z</time></trkpt><trkpt lat="44.79547444097221" lon="9.103100230592657"><ele>390.0</ele><time>2026-03-29T09:46:00.999Z</time></trkpt><trkpt lat="44.79548615964143" lon="9.10320224817828"><ele>390.0</ele><time>2026-03-29T09:46:01.999Z</time></trkpt><trkpt lat="44.79551355040519" lon="9.103317296364054"><ele>390.0</ele><time>2026-03-29T09:46:02.999Z</time></trkpt><trkpt lat="44.795556721905555" lon="9.103431824856223"><ele>390.0</ele><time>2026-03-29T09:46:03.999Z</time></trkpt><trkpt lat="44.79561038728114" lon="9.103533601120596"><ele>390.0</ele><time>2026-03-29T09:46:04.999Z</time></trkpt><trkpt lat="44.795680855585495" lon="9.103620350997842"><ele>390.2</ele><time>2026-03-29T09:46:05.999Z</time></trkpt><trkpt lat="44.79574875911577" lon="9.103700911532885"><ele>390.4</ele><time>2026-03-29T09:46:06.999Z</time></trkpt><trkpt lat="44.79582497854033" lon="9.10379440092624"><ele>390.6</ele><time>2026-03-29T09:46:07.999Z</time></trkpt><trkpt lat="44.795914986236596" lon="9.103907399808811"><ele>390.8</ele><time>2026-03-29T09:46:08.999Z</time></trkpt><trkpt lat="44.796003919713804" lon="9.104047999040565"><ele>391.0</ele><time>2026-03-29T09:46:09.999Z</time></trkpt><trkpt lat="44.79610685681799" lon="9.1041803553659"><ele>391.25</ele><time>2026-03-29T09:46:10.999Z</time></trkpt><trkpt lat="44.796209107797694" lon="9.104314459905554"><ele>391.5</ele><time>2026-03-29T09:46:11.999Z</time></trkpt><trkpt lat="44.79631767057219" lon="9.104433469752644"><ele>391.75</ele><time>2026-03-29T09:46:12.999Z</time></trkpt><trkpt lat="44.79640301075085" lon="9.104553133680335"><ele>392.0</ele><time>2026-03-29T09:46:13.999Z</time></trkpt><trkpt lat="44.79649040175546" lon="9.10467066351871"><ele>392.0</ele><time>2026-03-29T09:46:14.999Z</time></trkpt><trkpt lat="44.796579340363074" lon="9.104786301202758"><ele>392.0</ele><time>2026-03-29T09:46:15.999Z</time></trkpt><trkpt lat="44.79666136712896" lon="9.104896400754408"><ele>392.0</ele><time>2026-03-29T09:46:16.999Z</time></trkpt><trkpt lat="44.79673655612866" lon="9.104997525195392"><ele>392.0</ele><time>2026-03-29T09:46:17.999Z</time></trkpt><trkpt lat="44.79680422069833" lon="9.105105169146013"><ele>392.0</ele><time>2026-03-29T09:46:18.999Z</time></trkpt><trkpt lat="44.796822564116475" lon="9.105247781609325"><ele>392.8</ele><time>2026-03-29T09:46:19.999Z</time></trkpt><trkpt lat="44.796853116313805" lon="9.1053828150744"><ele>393.6</ele><time>2026-03-29T09:46:20.999Z</time></trkpt><trkpt lat="44.796838550432284" lon="9.105530324245969"><ele>394.40000000000003</ele><time>2026-03-29T09:46:21.999Z</time></trkpt><trkpt lat="44.79681598114893" lon="9.105680632636076"><ele>395.20000000000005</ele><time>2026-03-29T09:46:22.999Z</time></trkpt><trkpt lat="44.79679503569762" lon="9.10584416070822"><ele>396.0</ele><time>2026-03-29T09:46:23.999Z</time></trkpt><trkpt lat="44.796761139882804" lon="9.106012495735268"><ele>396.75</ele><time>2026-03-29T09:46:24.999Z</time></trkpt><trkpt lat="44.796725678447245" lon="9.106155063200358"><ele>397.5</ele><time>2026-03-29T09:46:25.999Z</time></trkpt><trkpt lat="44.79668047196671" lon="9.106342301766292"><ele>398.25</ele><time>2026-03-29T09:46:26.999Z</time></trkpt><trkpt lat="44.79662162967004" lon="9.10649830645394"><ele>399.0</ele><time>2026-03-29T09:46:27.999Z</time></trkpt><trkpt lat="44.7965383416062" lon="9.106645844088131"><ele>399.25</ele><time>2026-03-29T09:46:28.999Z</time></trkpt><trkpt lat="44.7964420406732" lon="9.10679811396685"><ele>399.5</ele><time>2026-03-29T09:46:29.999Z</time></trkpt><trkpt lat="44.79635001364941" lon="9.106960790681255"><ele>399.75</ele><time>2026-03-29T09:46:30.999Z</time></trkpt><trkpt lat="44.79625728215825" lon="9.107125033245298"><ele>400.0</ele><time>2026-03-29T09:46:31.999Z</time></trkpt><trkpt lat="44.79617261610755" lon="9.10728786739315"><ele>399.5</ele><time>2026-03-29T09:46:32.999Z</time></trkpt><trkpt lat="44.79609760680069" lon="9.107437148439228"><ele>399.0</ele><time>2026-03-29T09:46:33.999Z</time></trkpt><trkpt lat="44.796031293415375" lon="9.107584520744037"><ele>398.5</ele><time>2026-03-29T09:46:34.999Z</time></trkpt><trkpt lat="44.795985149651905" lon="9.107754372608944"><ele>398.0</ele><time>2026-03-29T09:46:35.999Z</time></trkpt><trkpt lat="44.795956563729234" lon="9.107942196278724"><ele>399.25</ele><time>2026-03-29T09:46:36.999Z</time></trkpt><trkpt lat="44.79593501101651" lon="9.108133952462774"><ele>400.5</ele><time>2026-03-29T09:46:37.999Z</time></trkpt><trkpt lat="44.79591462281143" lon="9.108323444317394"><ele>401.75</ele><time>2026-03-29T09:46:38.999Z</time></trkpt><trkpt lat="44.795889852514215" lon="9.108507352714733"><ele>403.0</ele><time>2026-03-29T09:46:39.999Z</time></trkpt><trkpt lat="44.79585924862684" lon="9.108694504633002"><ele>403.0</ele><time>2026-03-29T09:46:40.999Z</time></trkpt><trkpt lat="44.79580572846768" lon="9.108877653138645"><ele>403.0</ele><time>2026-03-29T09:46:41.999Z</time></trkpt><trkpt lat="44.795732234332796" lon="9.109076679538408"><ele>403.0</ele><time>2026-03-29T09:46:42.999Z</time></trkpt><trkpt lat="44.79566681362187" lon="9.10930143212073"><ele>403.33333333333337</ele><time>2026-03-29T09:46:43.999Z</time></trkpt><trkpt lat="44.79560971430491" lon="9.109554928728631"><ele>403.66666666666663</ele><time>2026-03-29T09:46:44.999Z</time></trkpt><trkpt lat="44.795561557869476" lon="9.10982206174379"><ele>404.0</ele><time>2026-03-29T09:46:45.999Z</time></trkpt><trkpt lat="44.79551507261691" lon="9.11006586653325"><ele>405.66666666666663</ele><time>2026-03-29T09:46:46.998Z</time></trkpt><trkpt lat="44.79545912034029" lon="9.11031431854172"><ele>407.33333333333337</ele><time>2026-03-29T09:46:47.998Z</time></trkpt><trkpt lat="44.79540221170252" lon="9.110576759913235"><ele>409.0</ele><time>2026-03-29T09:46:48.998Z</time></trkpt><trkpt lat="44.79533996491058" lon="9.110841870774639"><ele>409.33333333333337</ele><time>2026-03-29T09:46:49.998Z</time></trkpt><trkpt lat="44.79526935014164" lon="9.111106741087236"><ele>409.66666666666663</ele><time>2026-03-29T09:46:50.998Z</time></trkpt><trkpt lat="44.795195992602984" lon="9.111370254671202"><ele>410.0</ele><time>2026-03-29T09:46:51.998Z</time></trkpt><trkpt lat="44.79512142498512" lon="9.111639546257454"><ele>409.3333333333333</ele><time>2026-03-29T09:46:52.998Z</time></trkpt><trkpt lat="44.79505272900254" lon="9.111896180838754"><ele>408.66666666666663</ele><time>2026-03-29T09:46:53.998Z</time></trkpt><trkpt lat="44.794983763247984" lon="9.112147866780665"><ele>408.0</ele><time>2026-03-29T09:46:54.998Z</time></trkpt><trkpt lat="44.79491514220844" lon="9.112386546656841"><ele>409.0</ele><time>2026-03-29T09:46:55.998Z</time></trkpt><trkpt lat="44.794849527369855" lon="9.112619637969178"><ele>410.0</ele><time>2026-03-29T09:46:56.998Z</time></trkpt><trkpt lat="44.79478572966455" lon="9.11284558826106"><ele>411.0</ele><time>2026-03-29T09:46:57.998Z</time></trkpt><trkpt lat="44.79472401997845" lon="9.113064198373214"><ele>411.75</ele><time>2026-03-29T09:46:58.998Z</time></trkpt><trkpt lat="44.794665244443905" lon="9.113272437769188"><ele>412.5</ele><time>2026-03-29T09:47:00Z</time></trkpt><trkpt lat="44.7946122591616" lon="9.113456277459258"><ele>413.25</ele><time>2026-03-29T09:47:01Z</time></trkpt><trkpt lat="44.79456495240314" lon="9.113624220303997"><ele>414.0</ele><time>2026-03-29T09:47:02Z</time></trkpt><trkpt lat="44.79451713547103" lon="9.113792110887186"><ele>414.0</ele><time>2026-03-29T09:47:03Z</time></trkpt><trkpt lat="44.79446989769097" lon="9.113960440035111"><ele>414.0</ele><time>2026-03-29T09:47:04Z</time></trkpt><trkpt lat="44.7944222941559" lon="9.11412869870838"><ele>414.0</ele><time>2026-03-29T09:47:05Z</time></trkpt><trkpt lat="44.794374445856974" lon="9.114297895173939"><ele>414.0</ele><time>2026-03-29T09:47:06Z</time></trkpt><trkpt lat="44.79432521060582" lon="9.114469247337476"><ele>414.5</ele><time>2026-03-29T09:47:07Z</time></trkpt><trkpt lat="44.79427716764204" lon="9.114643033362603"><ele>415.0</ele><time>2026-03-29T09:47:08Z</time></trkpt><trkpt lat="44.794228657390455" lon="9.114815804211014"><ele>415.5</ele><time>2026-03-29T09:47:09Z</time></trkpt><trkpt lat="44.79417558726913" lon="9.114984417499187"><ele>416.0</ele><time>2026-03-29T09:47:10Z</time></trkpt><trkpt lat="44.794113558597886" lon="9.115145826017905"><ele>417.75</ele><time>2026-03-29T09:47:11Z</time></trkpt><trkpt lat="44.79403669713788" lon="9.115294635674049"><ele>419.5</ele><time>2026-03-29T09:47:12Z</time></trkpt><trkpt lat="44.7939423572431" lon="9.115426075033506"><ele>421.25</ele><time>2026-03-29T09:47:13Z</time></trkpt><trkpt lat="44.793835823902484" lon="9.115540478464451"><ele>423.0</ele><time>2026-03-29T09:47:14Z</time></trkpt><trkpt lat="44.79372525900217" lon="9.115652753641019"><ele>424.5</ele><time>2026-03-29T09:47:15Z</time></trkpt><trkpt lat="44.79361268841719" lon="9.115758402934057"><ele>426.0</ele><time>2026-03-29T09:47:16Z</time></trkpt><trkpt lat="44.793503548027026" lon="9.115865387729524"><ele>427.5</ele><time>2026-03-29T09:47:17Z</time></trkpt><trkpt lat="44.79339772978852" lon="9.115972272295991"><ele>429.0</ele><time>2026-03-29T09:47:18Z</time></trkpt><trkpt lat="44.79329900278814" lon="9.116076192569018"><ele>429.0</ele><time>2026-03-29T09:47:19Z</time></trkpt><trkpt lat="44.793205881199626" lon="9.116168060416271"><ele>429.0</ele><time>2026-03-29T09:47:20Z</time></trkpt><trkpt lat="44.79311584727187" lon="9.11624899483775"><ele>429.0</ele><time>2026-03-29T09:47:21Z</time></trkpt><trkpt lat="44.79302677344233" lon="9.116337615090327"><ele>429.0</ele><time>2026-03-29T09:47:22Z</time></trkpt><trkpt lat="44.79293711417382" lon="9.116431541499121"><ele>429.0</ele><time>2026-03-29T09:47:23Z</time></trkpt><trkpt lat="44.79285322067814" lon="9.116536902228107"><ele>429.0</ele><time>2026-03-29T09:47:24Z</time></trkpt><trkpt lat="44.79276423479642" lon="9.11664498370663"><ele>429.0</ele><time>2026-03-29T09:47:25Z</time></trkpt><trkpt lat="44.79267387260646" lon="9.116751555596817"><ele>429.0</ele><time>2026-03-29T09:47:26Z</time></trkpt><trkpt lat="44.79258338422451" lon="9.116860547050697"><ele>429.0</ele><time>2026-03-29T09:47:27Z</time></trkpt><trkpt lat="44.79249640825359" lon="9.116971878148812"><ele>429.0</ele><time>2026-03-29T09:47:28Z</time></trkpt><trkpt lat="44.79241142546135" lon="9.11709470173452"><ele>429.0</ele><time>2026-03-29T09:47:29Z</time></trkpt><trkpt lat="44.7923339436943" lon="9.117235017314112"><ele>429.0</ele><time>2026-03-29T09:47:30Z</time></trkpt><trkpt lat="44.79224779731548" lon="9.117376247879122"><ele>429.0</ele><time>2026-03-29T09:47:31Z</time></trkpt><trkpt lat="44.79216048938114" lon="9.11752014593188"><ele>428.5</ele><time>2026-03-29T09:47:32Z</time></trkpt><trkpt lat="44.792067022239586" lon="9.117670342827779"><ele>428.0</ele><time>2026-03-29T09:47:33Z</time></trkpt><trkpt lat="44.79197064873318" lon="9.117815879426503"><ele>427.5</ele><time>2026-03-29T09:47:34Z</time></trkpt><trkpt lat="44.79186783921212" lon="9.117958987088006"><ele>427.0</ele><time>2026-03-29T09:47:35Z</time></trkpt><trkpt lat="44.79176192826897" lon="9.118093412920608"><ele>427.0</ele><time>2026-03-29T09:47:36Z</time></trkpt><trkpt lat="44.79165314994746" lon="9.118216527480508"><ele>427.0</ele><time>2026-03-29T09:47:37Z</time></trkpt><trkpt lat="44.79154461716008" lon="9.118339010342662"><ele>427.0</ele><time>2026-03-29T09:47:38Z</time></trkpt><trkpt lat="44.79143392305446" lon="9.118458614848102"><ele>427.0</ele><time>2026-03-29T09:47:39Z</time></trkpt><trkpt lat="44.79133018768019" lon="9.118576329581376"><ele>426.5</ele><time>2026-03-29T09:47:40Z</time></trkpt><trkpt lat="44.791232866793216" lon="9.118692428123927"><ele>426.0</ele><time>2026-03-29T09:47:41Z</time></trkpt><trkpt lat="44.79113917343812" lon="9.11881789428779"><ele>425.5</ele><time>2026-03-29T09:47:42Z</time></trkpt><trkpt lat="44.791053618602874" lon="9.118951922611698"><ele>425.0</ele><time>2026-03-29T09:47:43Z</time></trkpt><trkpt lat="44.79097441855108" lon="9.11909342024119"><ele>425.0</ele><time>2026-03-29T09:47:44Z</time></trkpt><trkpt lat="44.790902587099595" lon="9.119239259181093"><ele>425.0</ele><time>2026-03-29T09:47:45Z</time></trkpt><trkpt lat="44.79083686001006" lon="9.119387511782287"><ele>425.0</ele><time>2026-03-29T09:47:46Z</time></trkpt><trkpt lat="44.79077232883365" lon="9.119534069773177"><ele>425.0</ele><time>2026-03-29T09:47:47Z</time></trkpt><trkpt lat="44.790716076219745" lon="9.119680990416104"><ele>425.0</ele><time>2026-03-29T09:47:48Z</time></trkpt><trkpt lat="44.79066540448293" lon="9.119830613308842"><ele>425.0</ele><time>2026-03-29T09:47:49Z</time></trkpt><trkpt lat="44.790618898289054" lon="9.119987694815098"><ele>425.0</ele><time>2026-03-29T09:47:49.999Z</time></trkpt><trkpt lat="44.79057447716943" lon="9.120149479247031"><ele>425.0</ele><time>2026-03-29T09:47:50.999Z</time></trkpt><trkpt lat="44.79053177769669" lon="9.120318618429874"><ele>425.75</ele><time>2026-03-29T09:47:51.999Z</time></trkpt><trkpt lat="44.79049324890433" lon="9.120494961678054"><ele>426.5</ele><time>2026-03-29T09:47:52.999Z</time></trkpt><trkpt lat="44.79046404579524" lon="9.120679289117678"><ele>427.25</ele><time>2026-03-29T09:47:53.999Z</time></trkpt><trkpt lat="44.79044001473453" lon="9.120875437526976"><ele>428.0</ele><time>2026-03-29T09:47:54.999Z</time></trkpt><trkpt lat="44.790423781330226" lon="9.121084252550562"><ele>428.66666666666663</ele><time>2026-03-29T09:47:55.999Z</time></trkpt><trkpt lat="44.790413008090155" lon="9.121305093483139"><ele>429.33333333333337</ele><time>2026-03-29T09:47:56.999Z</time></trkpt><trkpt lat="44.79040422311818" lon="9.121538674133783"><ele>430.0</ele><time>2026-03-29T09:47:57.999Z</time></trkpt><trkpt lat="44.7903888884391" lon="9.121770036383225"><ele>430.0</ele><time>2026-03-29T09:47:58.999Z</time></trkpt><trkpt lat="44.79041440506643" lon="9.122006382809612"><ele>430.0</ele><time>2026-03-29T09:47:59.999Z</time></trkpt><trkpt lat="44.79043263105263" lon="9.122259242306352"><ele>430.0</ele><time>2026-03-29T09:48:00.999Z</time></trkpt><trkpt lat="44.79045515263225" lon="9.122517698662696"><ele>430.0</ele><time>2026-03-29T09:48:01.999Z</time></trkpt><trkpt lat="44.79048037424394" lon="9.122778914286148"><ele>430.0</ele><time>2026-03-29T09:48:02.999Z</time></trkpt><trkpt lat="44.79050694047315" lon="9.123040832046783"><ele>430.0</ele><time>2026-03-29T09:48:03.999Z</time></trkpt><trkpt lat="44.79053412799544" lon="9.12329553675952"><ele>433.0</ele><time>2026-03-29T09:48:04.999Z</time></trkpt><trkpt lat="44.79055956338995" lon="9.123544227163029"><ele>436.0</ele><time>2026-03-29T09:48:05.999Z</time></trkpt><trkpt lat="44.79057517697491" lon="9.123781702819723"><ele>439.0</ele><time>2026-03-29T09:48:06.999Z</time></trkpt><trkpt lat="44.79058486162466" lon="9.123998317244238"><ele>440.25</ele><time>2026-03-29T09:48:07.999Z</time></trkpt><trkpt lat="44.79059716786857" lon="9.124196078704099"><ele>441.5</ele><time>2026-03-29T09:48:08.999Z</time></trkpt><trkpt lat="44.79061268509001" lon="9.124387831335495"><ele>442.75</ele><time>2026-03-29T09:48:09.999Z</time></trkpt><trkpt lat="44.790626691917545" lon="9.124576730544023"><ele>444.0</ele><time>2026-03-29T09:48:10.999Z</time></trkpt><trkpt lat="44.79062473094382" lon="9.124771718064794"><ele>445.0</ele><time>2026-03-29T09:48:11.999Z</time></trkpt><trkpt lat="44.790640337861774" lon="9.124975931162425"><ele>446.0</ele><time>2026-03-29T09:48:12.999Z</time></trkpt><trkpt lat="44.79065682755287" lon="9.125189550055518"><ele>447.0</ele><time>2026-03-29T09:48:13.999Z</time></trkpt><trkpt lat="44.79067449682201" lon="9.125442012253336"><ele>447.0</ele><time>2026-03-29T09:48:14.999Z</time></trkpt><trkpt lat="44.79068675724751" lon="9.125717644230326"><ele>447.0</ele><time>2026-03-29T09:48:15.999Z</time></trkpt><trkpt lat="44.79069122877909" lon="9.12603294393307"><ele>447.0</ele><time>2026-03-29T09:48:16.999Z</time></trkpt><trkpt lat="44.79071838405343" lon="9.126364193984815"><ele>443.5</ele><time>2026-03-29T09:48:17.999Z</time></trkpt><trkpt lat="44.79076166925436" lon="9.126728275061888"><ele>440.0</ele><time>2026-03-29T09:48:18.999Z</time></trkpt><trkpt lat="44.79084913067369" lon="9.127098758041237"><ele>443.0</ele><time>2026-03-29T09:48:19.999Z</time></trkpt><trkpt lat="44.79094773082158" lon="9.127474917980733"><ele>446.0</ele><time>2026-03-29T09:48:20.999Z</time></trkpt><trkpt lat="44.79062820013883" lon="9.127572348318411"><ele>446.0</ele><time>2026-03-29T09:48:21.999Z</time></trkpt><trkpt lat="44.79062523101223" lon="9.127878079039986"><ele>446.0</ele><time>2026-03-29T09:48:22.999Z</time></trkpt><trkpt lat="44.79064211319337" lon="9.128196512071819"><ele>446.0</ele><time>2026-03-29T09:48:23.999Z</time></trkpt><trkpt lat="44.79066487592728" lon="9.128522796499237"><ele>447.5</ele><time>2026-03-29T09:48:24.999Z</time></trkpt><trkpt lat="44.79068910776948" lon="9.128855021542682"><ele>449.0</ele><time>2026-03-29T09:48:25.999Z</time></trkpt><trkpt lat="44.79071027154308" lon="9.12918446573468"><ele>449.0</ele><time>2026-03-29T09:48:26.999Z</time></trkpt><trkpt lat="44.79073261213517" lon="9.129507973493014"><ele>449.0</ele><time>2026-03-29T09:48:27.999Z</time></trkpt><trkpt lat="44.7907564735727" lon="9.129827361005631"><ele>449.0</ele><time>2026-03-29T09:48:28.999Z</time></trkpt><trkpt lat="44.79076093377461" lon="9.13015658107461"><ele>449.0</ele><time>2026-03-29T09:48:29.999Z</time></trkpt><trkpt lat="44.79079634511879" lon="9.130475763495546"><ele>448.0</ele><time>2026-03-29T09:48:30.999Z</time></trkpt><trkpt lat="44.790817284434" lon="9.130794084082531"><ele>447.0</ele><time>2026-03-29T09:48:31.999Z</time></trkpt><trkpt lat="44.79082544785259" lon="9.131115655169557"><ele>447.0</ele><time>2026-03-29T09:48:32.999Z</time></trkpt><trkpt lat="44.7908466772213" lon="9.131417280347392"><ele>447.0</ele><time>2026-03-29T09:48:33.999Z</time></trkpt><trkpt lat="44.79085665365332" lon="9.131718988673823"><ele>447.0</ele><time>2026-03-29T09:48:34.999Z</time></trkpt><trkpt lat="44.79084423643326" lon="9.132013636597689"><ele>447.66666666666663</ele><time>2026-03-29T09:48:35.999Z</time></trkpt><trkpt lat="44.79081772450881" lon="9.132309633018126"><ele>448.3333333333333</ele><time>2026-03-29T09:48:36.999Z</time></trkpt><trkpt lat="44.79078352306893" lon="9.132621020344429"><ele>449.0</ele><time>2026-03-29T09:48:37.999Z</time></trkpt><trkpt lat="44.790748748100555" lon="9.132927345320363"><ele>450.66666666666663</ele><time>2026-03-29T09:48:38.999Z</time></trkpt><trkpt lat="44.79071521792277" lon="9.133227510486838"><ele>452.33333333333337</ele><time>2026-03-29T09:48:39.999Z</time></trkpt><trkpt lat="44.79069488062108" lon="9.133538109925773"><ele>454.0</ele><time>2026-03-29T09:48:40.999Z</time></trkpt><trkpt lat="44.79066708850683" lon="9.133848380083416"><ele>456.5</ele><time>2026-03-29T09:48:41.999Z</time></trkpt><trkpt lat="44.79062497960743" lon="9.134162282274053"><ele>459.0</ele><time>2026-03-29T09:48:42.999Z</time></trkpt><trkpt lat="44.79060121244925" lon="9.134480035557631"><ele>459.0</ele><time>2026-03-29T09:48:43.999Z</time></trkpt><trkpt lat="44.79057768045437" lon="9.134794644846151"><ele>459.0</ele><time>2026-03-29T09:48:44.999Z</time></trkpt><trkpt lat="44.790554688985345" lon="9.135106828676909"><ele>459.0</ele><time>2026-03-29T09:48:45.999Z</time></trkpt><trkpt lat="44.79054296786157" lon="9.13541084627299"><ele>459.0</ele><time>2026-03-29T09:48:46.999Z</time></trkpt><trkpt lat="44.790499092479024" lon="9.135707105093973"><ele>459.0</ele><time>2026-03-29T09:48:47.999Z</time></trkpt><trkpt lat="44.79041771301154" lon="9.135981428353125"><ele>459.0</ele><time>2026-03-29T09:48:48.999Z</time></trkpt><trkpt lat="44.7903411345681" lon="9.136251112929578"><ele>459.66666666666663</ele><time>2026-03-29T09:48:49.999Z</time></trkpt><trkpt lat="44.79027404595926" lon="9.136521020147487"><ele>460.3333333333333</ele><time>2026-03-29T09:48:50.999Z</time></trkpt><trkpt lat="44.79023352887192" lon="9.136798752475395"><ele>461.0</ele><time>2026-03-29T09:48:51.998Z</time></trkpt><trkpt lat="44.79019071790099" lon="9.137056978661148"><ele>457.3333333333333</ele><time>2026-03-29T09:48:52.998Z</time></trkpt><trkpt lat="44.79015079882469" lon="9.137292975544426"><ele>453.66666666666663</ele><time>2026-03-29T09:48:53.998Z</time></trkpt><trkpt lat="44.790093702422595" lon="9.137514098180498"><ele>450.0</ele><time>2026-03-29T09:48:54.998Z</time></trkpt><trkpt lat="44.789977189232054" lon="9.137705020381249"><ele>450.0</ele><time>2026-03-29T09:48:55.998Z</time></trkpt><trkpt lat="44.789846175598754" lon="9.137887932853998"><ele>450.0</ele><time>2026-03-29T09:48:56.998Z</time></trkpt><trkpt lat="44.789715780738" lon="9.138085268137734"><ele>450.0</ele><time>2026-03-29T09:48:57.998Z</time></trkpt><trkpt lat="44.78956803848319" lon="9.138265268910613"><ele>450.33333333333337</ele><time>2026-03-29T09:48:58.998Z</time></trkpt><trkpt lat="44.78942908397916" lon="9.13846905074832"><ele>450.6666666666667</ele><time>2026-03-29T09:48:59.998Z</time></trkpt><trkpt lat="44.78929380070332" lon="9.138683665069621"><ele>451.0</ele><time>2026-03-29T09:49:00.998Z</time></trkpt><trkpt lat="44.789163489886874" lon="9.13889146681696"><ele>452.6666666666667</ele><time>2026-03-29T09:49:01.998Z</time></trkpt><trkpt lat="44.789042496605994" lon="9.139092865670593"><ele>454.33333333333337</ele><time>2026-03-29T09:49:02.998Z</time></trkpt><trkpt lat="44.78893722679438" lon="9.13929957044617"><ele>456.0</ele><time>2026-03-29T09:49:03.998Z</time></trkpt><trkpt lat="44.78885180409343" lon="9.139525542154843"><ele>456.0</ele><time>2026-03-29T09:49:04.998Z</time></trkpt><trkpt lat="44.788791450683455" lon="9.139775979074313"><ele>456.0</ele><time>2026-03-29T09:49:06Z</time></trkpt><trkpt lat="44.78875132137943" lon="9.140038978530418"><ele>456.0</ele><time>2026-03-29T09:49:07Z</time></trkpt><trkpt lat="44.7887144557857" lon="9.140302008733943"><ele>457.0</ele><time>2026-03-29T09:49:08Z</time></trkpt><trkpt lat="44.78865242985145" lon="9.140559771384744"><ele>458.0</ele><time>2026-03-29T09:49:09Z</time></trkpt><trkpt lat="44.78855144069791" lon="9.140801253568073"><ele>459.0</ele><time>2026-03-29T09:49:10Z</time></trkpt><trkpt lat="44.78842849572794" lon="9.14102998153342"><ele>459.0</ele><time>2026-03-29T09:49:11Z</time></trkpt><trkpt lat="44.788308230651346" lon="9.141265977341448"><ele>459.0</ele><time>2026-03-29T09:49:12Z</time></trkpt><trkpt lat="44.78819596699364" lon="9.141516560116829"><ele>459.0</ele><time>2026-03-29T09:49:13Z</time></trkpt><trkpt lat="44.78808995786581" lon="9.141773741330761"><ele>461.0</ele><time>2026-03-29T09:49:14Z</time></trkpt><trkpt lat="44.78797870830479" lon="9.14202268356765"><ele>463.0</ele><time>2026-03-29T09:49:15Z</time></trkpt><trkpt lat="44.78786534282537" lon="9.142250045904582"><ele>465.0</ele><time>2026-03-29T09:49:16Z</time></trkpt><trkpt lat="44.787753750777746" lon="9.142467262057322"><ele>464.0</ele><time>2026-03-29T09:49:17Z</time></trkpt><trkpt lat="44.78765714503417" lon="9.142694421776486"><ele>463.0</ele><time>2026-03-29T09:49:18Z</time></trkpt><trkpt lat="44.787573645299666" lon="9.142936759058488"><ele>462.0</ele><time>2026-03-29T09:49:19Z</time></trkpt><trkpt lat="44.787492675969276" lon="9.143184523672716"><ele>464.0</ele><time>2026-03-29T09:49:20Z</time></trkpt><trkpt lat="44.787411848335644" lon="9.143435694700342"><ele>466.0</ele><time>2026-03-29T09:49:21Z</time></trkpt><trkpt lat="44.78732501120916" lon="9.143687804986184"><ele>468.0</ele><time>2026-03-29T09:49:22Z</time></trkpt><trkpt lat="44.787237152140534" lon="9.143938493369635"><ele>470.33333333333337</ele><time>2026-03-29T09:49:23Z</time></trkpt><trkpt lat="44.78715331510277" lon="9.14418253406502"><ele>472.6666666666667</ele><time>2026-03-29T09:49:24Z</time></trkpt><trkpt lat="44.78707577934508" lon="9.144414222567162"><ele>475.0</ele><time>2026-03-29T09:49:25Z</time></trkpt><trkpt lat="44.78700456767848" lon="9.144624628587133"><ele>475.0</ele><time>2026-03-29T09:49:26Z</time></trkpt><trkpt lat="44.786936323409776" lon="9.14482890425696"><ele>475.0</ele><time>2026-03-29T09:49:27Z</time></trkpt><trkpt lat="44.78687194682462" lon="9.14501963483409"><ele>475.0</ele><time>2026-03-29T09:49:28Z</time></trkpt><trkpt lat="44.78681123357689" lon="9.145194446948743"><ele>475.0</ele><time>2026-03-29T09:49:29Z</time></trkpt><trkpt lat="44.78674559314427" lon="9.14534426745697"><ele>474.25</ele><time>2026-03-29T09:49:30Z</time></trkpt><trkpt lat="44.786667335132165" lon="9.145469029111817"><ele>473.5</ele><time>2026-03-29T09:49:31Z</time></trkpt><trkpt lat="44.7865740987675" lon="9.145568633778234"><ele>472.75</ele><time>2026-03-29T09:49:32Z</time></trkpt><trkpt lat="44.786472437963454" lon="9.145655415210895"><ele>472.0</ele><time>2026-03-29T09:49:33Z</time></trkpt><trkpt lat="44.78637382809009" lon="9.145739824030096"><ele>472.0</ele><time>2026-03-29T09:49:34Z</time></trkpt><trkpt lat="44.786289661195056" lon="9.14582486142728"><ele>472.00000000000006</ele><time>2026-03-29T09:49:35Z</time></trkpt><trkpt lat="44.78621591438538" lon="9.145918537853772"><ele>472.00000000000006</ele><time>2026-03-29T09:49:36Z</time></trkpt><trkpt lat="44.78614682235344" lon="9.146021761035236"><ele>472.0</ele><time>2026-03-29T09:49:37Z</time></trkpt><trkpt lat="44.78608488778923" lon="9.146143352792901"><ele>472.0</ele><time>2026-03-29T09:49:38Z</time></trkpt><trkpt lat="44.786037918638264" lon="9.146277937999235"><ele>471.8</ele><time>2026-03-29T09:49:39Z</time></trkpt><trkpt lat="44.786003296266095" lon="9.146410151522817"><ele>471.6</ele><time>2026-03-29T09:49:40Z</time></trkpt><trkpt lat="44.78597299343232" lon="9.14653248575346"><ele>471.40000000000003</ele><time>2026-03-29T09:49:41Z</time></trkpt><trkpt lat="44.78593399121212" lon="9.146645437600178"><ele>471.20000000000005</ele><time>2026-03-29T09:49:42Z</time></trkpt><trkpt lat="44.78588543430583" lon="9.146728852335055"><ele>471.0</ele><time>2026-03-29T09:49:43Z</time></trkpt><trkpt lat="44.78581350672807" lon="9.146820760073648"><ele>471.0</ele><time>2026-03-29T09:49:45Z</time></trkpt><trkpt lat="44.78583717299661" lon="9.146925846047735"><ele>471.0</ele><time>2026-03-29T09:49:47Z</time></trkpt><trkpt lat="44.785922568366274" lon="9.147062673631766"><ele>471.0</ele><time>2026-03-29T09:49:49Z</time></trkpt><trkpt lat="44.78597616765199" lon="9.14716112775803"><ele>471.0</ele><time>2026-03-29T09:49:50Z</time></trkpt><trkpt lat="44.786032864312325" lon="9.147293516990521"><ele>471.0</ele><time>2026-03-29T09:49:51Z</time></trkpt><trkpt lat="44.78609626515054" lon="9.147443354677948"><ele>474.75</ele><time>2026-03-29T09:49:52Z</time></trkpt><trkpt lat="44.78616201865329" lon="9.147590112723615"><ele>478.5</ele><time>2026-03-29T09:49:53Z</time></trkpt><trkpt lat="44.78622729964175" lon="9.147721722463116"><ele>482.25</ele><time>2026-03-29T09:49:54Z</time></trkpt><trkpt lat="44.78630939636385" lon="9.14784834770874"><ele>486.0</ele><time>2026-03-29T09:49:55Z</time></trkpt><trkpt lat="44.786402684053435" lon="9.147960529408426"><ele>486.0</ele><time>2026-03-29T09:49:56Z</time></trkpt><trkpt lat="44.786499027184576" lon="9.148036902902037"><ele>486.0</ele><time>2026-03-29T09:49:56.999Z</time></trkpt><trkpt lat="44.78658904087075" lon="9.148087783307172"><ele>486.0</ele><time>2026-03-29T09:49:57.999Z</time></trkpt><trkpt lat="44.78668894764761" lon="9.148139558393769"><ele>486.0</ele><time>2026-03-29T09:49:58.999Z</time></trkpt><trkpt lat="44.78678245601413" lon="9.148185558264124"><ele>486.0</ele><time>2026-03-29T09:49:59.999Z</time></trkpt><trkpt lat="44.78684879918582" lon="9.14821400080324"><ele>486.5</ele><time>2026-03-29T09:50:00.999Z</time></trkpt><trkpt lat="44.78690641467085" lon="9.148253523487629"><ele>487.0</ele><time>2026-03-29T09:50:02.999Z</time></trkpt><trkpt lat="44.78697990491093" lon="9.14830375556001"><ele>487.5</ele><time>2026-03-29T09:50:40.999Z</time></trkpt><trkpt lat="44.78709973388413" lon="9.14835009988858"><ele>488.0</ele><time>2026-03-29T09:50:42.999Z</time></trkpt><trkpt lat="44.787178868587866" lon="9.148394667096156"><ele>488.5</ele><time>2026-03-29T09:50:43.999Z</time></trkpt><trkpt lat="44.787265300051715" lon="9.148441559560732"><ele>489.0</ele><time>2026-03-29T09:50:44.999Z</time></trkpt><trkpt lat="44.78734834237579" lon="9.14848308096614"><ele>489.0</ele><time>2026-03-29T09:50:45.999Z</time></trkpt><trkpt lat="44.78743015932591" lon="9.148520685365867"><ele>489.0</ele><time>2026-03-29T09:50:46.999Z</time></trkpt><trkpt lat="44.78750563326525" lon="9.148562257519057"><ele>489.0</ele><time>2026-03-29T09:50:47.999Z</time></trkpt><trkpt lat="44.78758401729916" lon="9.148605249451345"><ele>489.0</ele><time>2026-03-29T09:50:48.999Z</time></trkpt><trkpt lat="44.7876561068343" lon="9.148646281895603"><ele>489.0</ele><time>2026-03-29T09:50:49.999Z</time></trkpt><trkpt lat="44.78776082792805" lon="9.148709327671225"><ele>489.0</ele><time>2026-03-29T09:50:51.999Z</time></trkpt><trkpt lat="44.78784322399783" lon="9.148759642933607"><ele>489.3333333333333</ele><time>2026-03-29T09:50:53.999Z</time></trkpt><trkpt lat="44.787900367027696" lon="9.148804423713177"><ele>489.66666666666663</ele><time>2026-03-29T09:50:55.999Z</time></trkpt><trkpt lat="44.7879617981721" lon="9.148847798224782"><ele>490.0</ele><time>2026-03-29T09:51:02.998Z</time></trkpt><trkpt lat="44.78802189628853" lon="9.148904181423074"><ele>490.3333333333333</ele><time>2026-03-29T09:51:04.998Z</time></trkpt><trkpt lat="44.788080778046265" lon="9.148803594965857"><ele>490.66666666666663</ele><time>2026-03-29T09:51:10.998Z</time></trkpt><trkpt lat="44.7880586780107" lon="9.148698271408973"><ele>491.0</ele><time>2026-03-29T09:51:13Z</time></trkpt><trkpt lat="44.78803997459719" lon="9.148582320971045"><ele>491.0</ele><time>2026-03-29T09:51:15Z</time></trkpt><trkpt lat="44.78799705464727" lon="9.148452983179896"><ele>491.0</ele><time>2026-03-29T09:51:17Z</time></trkpt><trkpt lat="44.78795092257181" lon="9.148335248700603"><ele>491.0</ele><time>2026-03-29T09:51:18Z</time></trkpt><trkpt lat="44.78789020358702" lon="9.148233324089174"><ele>491.0</ele><time>2026-03-29T09:51:19Z</time></trkpt><trkpt lat="44.78773659576099" lon="9.148072246898579"><ele>491.20000000000005</ele><time>2026-03-29T09:51:21Z</time></trkpt><trkpt lat="44.787679197985" lon="9.148020262832853"><ele>491.40000000000003</ele><time>2026-03-29T09:51:22Z</time></trkpt><trkpt lat="44.78761684887474" lon="9.147963794450611"><ele>491.6</ele><time>2026-03-29T09:51:23Z</time></trkpt><trkpt lat="44.78755260884136" lon="9.147905613214542"><ele>491.8</ele><time>2026-03-29T09:51:24Z</time></trkpt><trkpt lat="44.78750437755338" lon="9.147845112996311"><ele>492.0</ele><time>2026-03-29T09:51:25Z</time></trkpt><trkpt lat="44.78733402238598" lon="9.147723535715516"><ele>492.20000000000005</ele><time>2026-03-29T09:51:26Z</time></trkpt><trkpt lat="44.7872012765991" lon="9.14763901713885"><ele>492.40000000000003</ele><time>2026-03-29T09:51:28Z</time></trkpt><trkpt lat="44.78712605647937" lon="9.14759107502643"><ele>492.59999999999997</ele><time>2026-03-29T09:51:29Z</time></trkpt><trkpt lat="44.7870512559062" lon="9.147543400315104"><ele>492.79999999999995</ele><time>2026-03-29T09:51:30Z</time></trkpt><trkpt lat="44.78697443372227" lon="9.147494437114961"><ele>493.0</ele><time>2026-03-29T09:51:31Z</time></trkpt><trkpt lat="44.78668655945093" lon="9.148098497383188"><ele>491.59999999999997</ele><time>2026-03-29T09:51:32Z</time></trkpt><trkpt lat="44.786607012620934" lon="9.148056115820172"><ele>490.19999999999993</ele><time>2026-03-29T09:51:33Z</time></trkpt><trkpt lat="44.78652160863444" lon="9.148002306640514"><ele>488.8</ele><time>2026-03-29T09:51:34Z</time></trkpt><trkpt lat="44.786439777189464" lon="9.147941584559035"><ele>487.4</ele><time>2026-03-29T09:51:35Z</time></trkpt><trkpt lat="44.78636609775336" lon="9.147867326575698"><ele>486.0</ele><time>2026-03-29T09:51:36Z</time></trkpt><trkpt lat="44.786301020994856" lon="9.147783099850201"><ele>486.0</ele><time>2026-03-29T09:51:37Z</time></trkpt><trkpt lat="44.78624491185993" lon="9.147692188058308"><ele>486.0</ele><time>2026-03-29T09:51:38Z</time></trkpt><trkpt lat="44.78619568976907" lon="9.14760089973086"><ele>486.0</ele><time>2026-03-29T09:51:39Z</time></trkpt><trkpt lat="44.78614912948676" lon="9.147510236693957"><ele>486.0</ele><time>2026-03-29T09:51:40Z</time></trkpt><trkpt lat="44.78610618028134" lon="9.147420839210278"><ele>486.0</ele><time>2026-03-29T09:51:41Z</time></trkpt><trkpt lat="44.786065036228074" lon="9.147333909572783"><ele>486.0</ele><time>2026-03-29T09:51:42Z</time></trkpt><trkpt lat="44.786026435579146" lon="9.147247094610321"><ele>483.5</ele><time>2026-03-29T09:51:43Z</time></trkpt><trkpt lat="44.785987051988435" lon="9.147157674302091"><ele>481.0</ele><time>2026-03-29T09:51:44Z</time></trkpt><trkpt lat="44.78594928182372" lon="9.147069265756551"><ele>478.5</ele><time>2026-03-29T09:51:45Z</time></trkpt><trkpt lat="44.785894134837584" lon="9.14693413753758"><ele>476.0</ele><time>2026-03-29T09:51:47Z</time></trkpt><trkpt lat="44.78585932447661" lon="9.146856029648095"><ele>473.5</ele><time>2026-03-29T09:51:49Z</time></trkpt><trkpt lat="44.78580737068065" lon="9.146781997990406"><ele>471.0</ele><time>2026-03-29T09:51:53Z</time></trkpt><trkpt lat="44.78571408953716" lon="9.146868555097688"><ele>471.0</ele><time>2026-03-29T09:51:54Z</time></trkpt><trkpt lat="44.785659045747266" lon="9.146945795850504"><ele>471.0</ele><time>2026-03-29T09:51:55Z</time></trkpt><trkpt lat="44.78558222882759" lon="9.147013082341712"><ele>471.0</ele><time>2026-03-29T09:51:56Z</time></trkpt><trkpt lat="44.785494597013425" lon="9.147056002541039"><ele>471.0</ele><time>2026-03-29T09:51:57Z</time></trkpt><trkpt lat="44.78540744847014" lon="9.14711724069548"><ele>471.0</ele><time>2026-03-29T09:51:58Z</time></trkpt><trkpt lat="44.785316301146324" lon="9.147199317757181"><ele>471.0</ele><time>2026-03-29T09:51:59Z</time></trkpt><trkpt lat="44.78521383232947" lon="9.147258184869127"><ele>471.0</ele><time>2026-03-29T09:52:00Z</time></trkpt><trkpt lat="44.785112663889834" lon="9.147313895867379"><ele>471.0</ele><time>2026-03-29T09:52:01Z</time></trkpt><trkpt lat="44.785022747772985" lon="9.147364367075529"><ele>471.0</ele><time>2026-03-29T09:52:02Z</time></trkpt><trkpt lat="44.78493778195299" lon="9.147425691948818"><ele>471.0</ele><time>2026-03-29T09:52:02.999Z</time></trkpt><trkpt lat="44.784840001961825" lon="9.1474839983542"><ele>471.0</ele><time>2026-03-29T09:52:03.999Z</time></trkpt><trkpt lat="44.784760326751794" lon="9.147601538911804"><ele>471.0</ele><time>2026-03-29T09:52:04.999Z</time></trkpt><trkpt lat="44.78467276937347" lon="9.147707029567561"><ele>471.0</ele><time>2026-03-29T09:52:05.999Z</time></trkpt><trkpt lat="44.78458151099887" lon="9.147810671601638"><ele>471.0</ele><time>2026-03-29T09:52:06.999Z</time></trkpt><trkpt lat="44.78447311456226" lon="9.14788587721147"><ele>471.0</ele><time>2026-03-29T09:52:07.999Z</time></trkpt><trkpt lat="44.784353100866014" lon="9.147953655532927"><ele>471.0</ele><time>2026-03-29T09:52:08.999Z</time></trkpt><trkpt lat="44.78422299291773" lon="9.148013550120378"><ele>471.0</ele><time>2026-03-29T09:52:09.999Z</time></trkpt><trkpt lat="44.78409819350001" lon="9.148076233232045"><ele>471.0</ele><time>2026-03-29T09:52:10.999Z</time></trkpt><trkpt lat="44.783977549175646" lon="9.14814654780517"><ele>472.75</ele><time>2026-03-29T09:52:11.999Z</time></trkpt><trkpt lat="44.783860353463304" lon="9.148214599590263"><ele>474.5</ele><time>2026-03-29T09:52:12.999Z</time></trkpt><trkpt lat="44.78374723114611" lon="9.148279808885823"><ele>476.25</ele><time>2026-03-29T09:52:13.999Z</time></trkpt><trkpt lat="44.7836408596535" lon="9.14834213772462"><ele>478.0</ele><time>2026-03-29T09:52:14.999Z</time></trkpt><trkpt lat="44.78353834128882" lon="9.148399539978806"><ele>477.4</ele><time>2026-03-29T09:52:15.999Z</time></trkpt><trkpt lat="44.78343900974763" lon="9.148455163304586"><ele>476.79999999999995</ele><time>2026-03-29T09:52:16.999Z</time></trkpt><trkpt lat="44.78334227811576" lon="9.148517268039475"><ele>476.2</ele><time>2026-03-29T09:52:17.999Z</time></trkpt><trkpt lat="44.78324944234371" lon="9.14858809581044"><ele>475.6</ele><time>2026-03-29T09:52:18.999Z</time></trkpt><trkpt lat="44.78315958847184" lon="9.148671087242064"><ele>475.0</ele><time>2026-03-29T09:52:19.999Z</time></trkpt><trkpt lat="44.78307544581096" lon="9.148761795237625"><ele>475.0</ele><time>2026-03-29T09:52:20.999Z</time></trkpt><trkpt lat="44.782996031254356" lon="9.148861171759656"><ele>475.0</ele><time>2026-03-29T09:52:21.999Z</time></trkpt><trkpt lat="44.782917299077496" lon="9.14896661126172"><ele>475.0</ele><time>2026-03-29T09:52:22.999Z</time></trkpt><trkpt lat="44.78283912169268" lon="9.149075065288308"><ele>475.0</ele><time>2026-03-29T09:52:23.999Z</time></trkpt><trkpt lat="44.78275769031972" lon="9.149178169046811"><ele>475.0</ele><time>2026-03-29T09:52:24.999Z</time></trkpt><trkpt lat="44.78267856946458" lon="9.149281082875042"><ele>476.0</ele><time>2026-03-29T09:52:25.999Z</time></trkpt><trkpt lat="44.78259884857824" lon="9.149382403646282"><ele>477.0</ele><time>2026-03-29T09:52:26.999Z</time></trkpt><trkpt lat="44.78252583011473" lon="9.149474180899597"><ele>478.0</ele><time>2026-03-29T09:52:27.999Z</time></trkpt><trkpt lat="44.78244968379177" lon="9.149568993352046"><ele>479.0</ele><time>2026-03-29T09:52:28.999Z</time></trkpt><trkpt lat="44.782370620238055" lon="9.149669136960842"><ele>480.0</ele><time>2026-03-29T09:52:29.999Z</time></trkpt><trkpt lat="44.782287858304514" lon="9.149775743961824"><ele>482.75</ele><time>2026-03-29T09:52:30.999Z</time></trkpt><trkpt lat="44.78219612517591" lon="9.149881986678372"><ele>485.5</ele><time>2026-03-29T09:52:31.999Z</time></trkpt><trkpt lat="44.7820944514709" lon="9.149980033584628"><ele>488.25</ele><time>2026-03-29T09:52:32.999Z</time></trkpt><trkpt lat="44.7819875873971" lon="9.150075452248766"><ele>491.0</ele><time>2026-03-29T09:52:33.999Z</time></trkpt><trkpt lat="44.78188263878637" lon="9.150178729019515"><ele>488.5</ele><time>2026-03-29T09:52:34.999Z</time></trkpt><trkpt lat="44.781783554156966" lon="9.150294009599358"><ele>486.0</ele><time>2026-03-29T09:52:35.999Z</time></trkpt><trkpt lat="44.78168570304882" lon="9.150417401645589"><ele>483.5</ele><time>2026-03-29T09:52:36.999Z</time></trkpt><trkpt lat="44.78159010000721" lon="9.150536110689611"><ele>481.0</ele><time>2026-03-29T09:52:37.999Z</time></trkpt><trkpt lat="44.78148987210201" lon="9.150648821693995"><ele>482.5</ele><time>2026-03-29T09:52:38.999Z</time></trkpt><trkpt lat="44.781386343423485" lon="9.150770359917422"><ele>484.0</ele><time>2026-03-29T09:52:39.999Z</time></trkpt><trkpt lat="44.78128148470311" lon="9.15089462654637"><ele>485.5</ele><time>2026-03-29T09:52:40.999Z</time></trkpt><trkpt lat="44.78117228155481" lon="9.151019841251536"><ele>487.0</ele><time>2026-03-29T09:52:41.999Z</time></trkpt><trkpt lat="44.78105422017088" lon="9.151137746979519"><ele>484.0</ele><time>2026-03-29T09:52:42.999Z</time></trkpt><trkpt lat="44.78092682832133" lon="9.151244282758109"><ele>481.0</ele><time>2026-03-29T09:52:43.999Z</time></trkpt><trkpt lat="44.780790070128425" lon="9.151335923112303"><ele>478.0</ele><time>2026-03-29T09:52:44.999Z</time></trkpt><trkpt lat="44.78064085674759" lon="9.151401526474237"><ele>478.0</ele><time>2026-03-29T09:52:45.999Z</time></trkpt><trkpt lat="44.780489168365136" lon="9.1514687121867"><ele>478.0</ele><time>2026-03-29T09:52:46.999Z</time></trkpt><trkpt lat="44.7803391693331" lon="9.151522225875075"><ele>478.0</ele><time>2026-03-29T09:52:47.999Z</time></trkpt><trkpt lat="44.78019056516115" lon="9.151595800439093"><ele>480.25</ele><time>2026-03-29T09:52:48.999Z</time></trkpt><trkpt lat="44.78005917050038" lon="9.15168691643043"><ele>482.5</ele><time>2026-03-29T09:52:49.999Z</time></trkpt><trkpt lat="44.779946964724765" lon="9.151802915566398"><ele>484.75</ele><time>2026-03-29T09:52:50.999Z</time></trkpt><trkpt lat="44.779848882034656" lon="9.151939337080407"><ele>487.0</ele><time>2026-03-29T09:52:51.999Z</time></trkpt><trkpt lat="44.77977803260798" lon="9.15210807439557"><ele>487.0</ele><time>2026-03-29T09:52:52.999Z</time></trkpt><trkpt lat="44.779724534470496" lon="9.152300524162648"><ele>487.0</ele><time>2026-03-29T09:52:53.999Z</time></trkpt><trkpt lat="44.779674817981174" lon="9.152503827312053"><ele>487.0</ele><time>2026-03-29T09:52:54.999Z</time></trkpt><trkpt lat="44.779611390255546" lon="9.15270379395439"><ele>488.0</ele><time>2026-03-29T09:52:55.999Z</time></trkpt><trkpt lat="44.77951122242093" lon="9.1528847968416"><ele>489.0</ele><time>2026-03-29T09:52:56.999Z</time></trkpt><trkpt lat="44.7793808607469" lon="9.153036479520694"><ele>490.0</ele><time>2026-03-29T09:52:57.999Z</time></trkpt><trkpt lat="44.77921623908153" lon="9.153144011802292"><ele>491.0</ele><time>2026-03-29T09:52:58.999Z</time></trkpt><trkpt lat="44.77904983024032" lon="9.153234432137879"><ele>492.0</ele><time>2026-03-29T09:52:59.999Z</time></trkpt><trkpt lat="44.7788941008664" lon="9.153379123840187"><ele>493.0</ele><time>2026-03-29T09:53:00.999Z</time></trkpt><trkpt lat="44.778870769133896" lon="9.153481893845608"><ele>494.0</ele><time>2026-03-29T09:53:01.999Z</time></trkpt><trkpt lat="44.778739748503064" lon="9.153591289408453"><ele>494.0</ele><time>2026-03-29T09:53:02.999Z</time></trkpt><trkpt lat="44.77861868513684" lon="9.15368744818448"><ele>494.0</ele><time>2026-03-29T09:53:03.998Z</time></trkpt><trkpt lat="44.778499716783585" lon="9.153740674533266"><ele>494.0</ele><time>2026-03-29T09:53:04.998Z</time></trkpt><trkpt lat="44.77840783263538" lon="9.153799904527713"><ele>494.0</ele><time>2026-03-29T09:53:05.998Z</time></trkpt><trkpt lat="44.77832540752518" lon="9.153831199493242"><ele>493.66666666666663</ele><time>2026-03-29T09:53:06.998Z</time></trkpt><trkpt lat="44.77825788195288" lon="9.153845632557983"><ele>493.3333333333333</ele><time>2026-03-29T09:53:07.998Z</time></trkpt><trkpt lat="44.77817905904382" lon="9.153864664414881"><ele>493.0</ele><time>2026-03-29T09:53:09.998Z</time></trkpt><trkpt lat="44.7781687736072" lon="9.154021573551983"><ele>492.66666666666663</ele><time>2026-03-29T09:53:12.998Z</time></trkpt><trkpt lat="44.778180248328965" lon="9.15412133406697"><ele>492.3333333333333</ele><time>2026-03-29T09:53:13.998Z</time></trkpt><trkpt lat="44.77816957457784" lon="9.154231635451614"><ele>492.0</ele><time>2026-03-29T09:53:14.998Z</time></trkpt><trkpt lat="44.77812173965937" lon="9.154345190552112"><ele>493.8</ele><time>2026-03-29T09:53:15.998Z</time></trkpt><trkpt lat="44.778096632527834" lon="9.154480767564307"><ele>495.6</ele><time>2026-03-29T09:53:16.998Z</time></trkpt><trkpt lat="44.778045700572974" lon="9.154621217196851"><ele>497.40000000000003</ele><time>2026-03-29T09:53:18Z</time></trkpt><trkpt lat="44.778000176556795" lon="9.154750027397496"><ele>499.20000000000005</ele><time>2026-03-29T09:53:19Z</time></trkpt><trkpt lat="44.777951950312506" lon="9.154896095040742"><ele>501.0</ele><time>2026-03-29T09:53:20Z</time></trkpt><trkpt lat="44.777904133272" lon="9.155045664822834"><ele>500.25</ele><time>2026-03-29T09:53:21Z</time></trkpt><trkpt lat="44.77783404159091" lon="9.155186542937837"><ele>499.5</ele><time>2026-03-29T09:53:22Z</time></trkpt><trkpt lat="44.777760947414315" lon="9.155321049737363"><ele>498.75</ele><time>2026-03-29T09:53:23Z</time></trkpt><trkpt lat="44.7776881563449" lon="9.155451610087065"><ele>498.0</ele><time>2026-03-29T09:53:24Z</time></trkpt><trkpt lat="44.77762030592136" lon="9.1555584757108"><ele>498.0</ele><time>2026-03-29T09:53:25Z</time></trkpt><trkpt lat="44.77756334616011" lon="9.155652247005438"><ele>497.99999999999994</ele><time>2026-03-29T09:53:26Z</time></trkpt><trkpt lat="44.777506367113084" lon="9.155738859937832"><ele>497.99999999999994</ele><time>2026-03-29T09:53:27Z</time></trkpt><trkpt lat="44.77745806457659" lon="9.155830609487134"><ele>498.0</ele><time>2026-03-29T09:53:28Z</time></trkpt><trkpt lat="44.77742120028765" lon="9.155954071895268"><ele>498.0</ele><time>2026-03-29T09:53:29Z</time></trkpt><trkpt lat="44.777402516520105" lon="9.156099662372743"><ele>499.79999999999995</ele><time>2026-03-29T09:53:30Z</time></trkpt><trkpt lat="44.77738975656553" lon="9.156252672542353"><ele>501.59999999999997</ele><time>2026-03-29T09:53:31Z</time></trkpt><trkpt lat="44.77738413872332" lon="9.156406633439994"><ele>503.40000000000003</ele><time>2026-03-29T09:53:32Z</time></trkpt><trkpt lat="44.777394220204705" lon="9.156563283436853"><ele>505.20000000000005</ele><time>2026-03-29T09:53:33Z</time></trkpt><trkpt lat="44.77742262870815" lon="9.156722423198602"><ele>507.0</ele><time>2026-03-29T09:53:34Z</time></trkpt><trkpt lat="44.777467227880386" lon="9.156881156000521"><ele>508.0</ele><time>2026-03-29T09:53:35Z</time></trkpt><trkpt lat="44.7775186658765" lon="9.157033200608755"><ele>509.0</ele><time>2026-03-29T09:53:36Z</time></trkpt><trkpt lat="44.77756855929491" lon="9.157186191776706"><ele>510.0</ele><time>2026-03-29T09:53:37Z</time></trkpt><trkpt lat="44.777626854193656" lon="9.157335578681073"><ele>511.0</ele><time>2026-03-29T09:53:38Z</time></trkpt><trkpt lat="44.7776850650265" lon="9.157495845335305"><ele>518.25</ele><time>2026-03-29T09:53:39Z</time></trkpt><trkpt lat="44.777724019644026" lon="9.1576709387645"><ele>525.5</ele><time>2026-03-29T09:53:40Z</time></trkpt><trkpt lat="44.77778711777458" lon="9.157831952571868"><ele>532.75</ele><time>2026-03-29T09:53:41Z</time></trkpt><trkpt lat="44.77783251567354" lon="9.15799283302728"><ele>540.0</ele><time>2026-03-29T09:53:42Z</time></trkpt><trkpt lat="44.77787016398217" lon="9.158138483589179"><ele>538.2</ele><time>2026-03-29T09:53:43Z</time></trkpt><trkpt lat="44.77790979661807" lon="9.158280484602491"><ele>536.4</ele><time>2026-03-29T09:53:44Z</time></trkpt><trkpt lat="44.77795863712817" lon="9.158415561081625"><ele>534.6</ele><time>2026-03-29T09:53:45Z</time></trkpt><trkpt lat="44.778020542728896" lon="9.15854546377963"><ele>532.8</ele><time>2026-03-29T09:53:46Z</time></trkpt><trkpt lat="44.77807380760279" lon="9.158697026745886"><ele>531.0</ele><time>2026-03-29T09:53:47Z</time></trkpt><trkpt lat="44.778088930712265" lon="9.15887345142372"><ele>529.25</ele><time>2026-03-29T09:53:48Z</time></trkpt><trkpt lat="44.77809400853187" lon="9.159055986038588"><ele>527.5</ele><time>2026-03-29T09:53:49Z</time></trkpt><trkpt lat="44.7780956665337" lon="9.159247497385707"><ele>525.75</ele><time>2026-03-29T09:53:50Z</time></trkpt><trkpt lat="44.77811793455571" lon="9.159444207467885"><ele>524.0</ele><time>2026-03-29T09:53:51Z</time></trkpt><trkpt lat="44.77812745799767" lon="9.15964471490796"><ele>524.0</ele><time>2026-03-29T09:53:52Z</time></trkpt><trkpt lat="44.778150150752595" lon="9.15982625165532"><ele>524.0</ele><time>2026-03-29T09:53:53Z</time></trkpt><trkpt lat="44.77816299684763" lon="9.160005945602506"><ele>524.0</ele><time>2026-03-29T09:53:54Z</time></trkpt><trkpt lat="44.778159724162386" lon="9.160190288804097"><ele>524.0</ele><time>2026-03-29T09:53:55Z</time></trkpt><trkpt lat="44.77816568486382" lon="9.160379168528271"><ele>524.25</ele><time>2026-03-29T09:53:56Z</time></trkpt><trkpt lat="44.778184271625875" lon="9.16057117043361"><ele>524.5</ele><time>2026-03-29T09:53:57Z</time></trkpt><trkpt lat="44.77819693137148" lon="9.160766849027933"><ele>524.75</ele><time>2026-03-29T09:53:58Z</time></trkpt><trkpt lat="44.7782010210427" lon="9.160965486116822"><ele>525.0</ele><time>2026-03-29T09:53:59Z</time></trkpt><trkpt lat="44.778199185163544" lon="9.161153463792212"><ele>525.0</ele><time>2026-03-29T09:54:00Z</time></trkpt><trkpt lat="44.778193683489675" lon="9.161320473699138"><ele>525.0</ele><time>2026-03-29T09:54:01Z</time></trkpt><trkpt lat="44.77818793135151" lon="9.161462325522551"><ele>525.0</ele><time>2026-03-29T09:54:02Z</time></trkpt><trkpt lat="44.77819740196043" lon="9.16160811362584"><ele>525.0</ele><time>2026-03-29T09:54:03Z</time></trkpt><trkpt lat="44.778231883700165" lon="9.161759847749838"><ele>525.0</ele><time>2026-03-29T09:54:04Z</time></trkpt><trkpt lat="44.77828307486366" lon="9.16190955542719"><ele>525.0</ele><time>2026-03-29T09:54:05Z</time></trkpt><trkpt lat="44.77834198385119" lon="9.162046127088136"><ele>525.0</ele><time>2026-03-29T09:54:06Z</time></trkpt><trkpt lat="44.77840387251258" lon="9.162175566874344"><ele>525.0</ele><time>2026-03-29T09:54:07Z</time></trkpt><trkpt lat="44.77842796275235" lon="9.162332571209706"><ele>525.0</ele><time>2026-03-29T09:54:07.999Z</time></trkpt><trkpt lat="44.77842100436394" lon="9.162500668631074"><ele>525.0</ele><time>2026-03-29T09:54:08.999Z</time></trkpt><trkpt lat="44.778425862891986" lon="9.162682609920124"><ele>525.0</ele><time>2026-03-29T09:54:09.999Z</time></trkpt><trkpt lat="44.77845369945981" lon="9.162866239401453"><ele>525.0</ele><time>2026-03-29T09:54:10.999Z</time></trkpt><trkpt lat="44.778468225909975" lon="9.163056565651138"><ele>525.0</ele><time>2026-03-29T09:54:11.999Z</time></trkpt><trkpt lat="44.77848724892709" lon="9.16325249453942"><ele>525.75</ele><time>2026-03-29T09:54:12.999Z</time></trkpt><trkpt lat="44.77850534294619" lon="9.163454305736247"><ele>526.5</ele><time>2026-03-29T09:54:13.999Z</time></trkpt><trkpt lat="44.77853117393875" lon="9.163662133846124"><ele>527.25</ele><time>2026-03-29T09:54:14.999Z</time></trkpt><trkpt lat="44.77855794570705" lon="9.163869998630531"><ele>528.0</ele><time>2026-03-29T09:54:15.999Z</time></trkpt><trkpt lat="44.77857353879693" lon="9.164083069385232"><ele>534.75</ele><time>2026-03-29T09:54:16.999Z</time></trkpt><trkpt lat="44.77856478043918" lon="9.164294583293943"><ele>541.5</ele><time>2026-03-29T09:54:17.999Z</time></trkpt><trkpt lat="44.77856554314401" lon="9.164501219740805"><ele>548.25</ele><time>2026-03-29T09:54:18.999Z</time></trkpt><trkpt lat="44.77856496284743" lon="9.164694226953126"><ele>555.0</ele><time>2026-03-29T09:54:19.999Z</time></trkpt><trkpt lat="44.77856653049356" lon="9.16487825278996"><ele>556.0</ele><time>2026-03-29T09:54:20.999Z</time></trkpt><trkpt lat="44.77857951970894" lon="9.165054927850228"><ele>557.0</ele><time>2026-03-29T09:54:21.999Z</time></trkpt><trkpt lat="44.77854075837907" lon="9.165222555609093"><ele>558.0</ele><time>2026-03-29T09:54:22.999Z</time></trkpt><trkpt lat="44.77850777586125" lon="9.165396088658278"><ele>559.0</ele><time>2026-03-29T09:54:23.999Z</time></trkpt><trkpt lat="44.77847492791575" lon="9.165570818153107"><ele>554.4</ele><time>2026-03-29T09:54:24.999Z</time></trkpt><trkpt lat="44.77847443985324" lon="9.1657459285157"><ele>549.8</ele><time>2026-03-29T09:54:25.999Z</time></trkpt><trkpt lat="44.77847300922557" lon="9.165913746916726"><ele>545.2</ele><time>2026-03-29T09:54:26.999Z</time></trkpt><trkpt lat="44.778474269611195" lon="9.166066618621254"><ele>540.6</ele><time>2026-03-29T09:54:27.999Z</time></trkpt><trkpt lat="44.77846353747562" lon="9.166194361602194"><ele>536.0</ele><time>2026-03-29T09:54:28.999Z</time></trkpt><trkpt lat="44.77844193473093" lon="9.166305048706768"><ele>536.0</ele><time>2026-03-29T09:54:29.999Z</time></trkpt><trkpt lat="44.778417082822685" lon="9.16641481364326"><ele>536.0</ele><time>2026-03-29T09:54:30.999Z</time></trkpt><trkpt lat="44.77839411976797" lon="9.166539180300767"><ele>536.0</ele><time>2026-03-29T09:54:31.999Z</time></trkpt><trkpt lat="44.77836725600912" lon="9.166666622047094"><ele>536.0</ele><time>2026-03-29T09:54:32.999Z</time></trkpt><trkpt lat="44.77834707425782" lon="9.166799468649856"><ele>536.0</ele><time>2026-03-29T09:54:33.999Z</time></trkpt><trkpt lat="44.77833384124269" lon="9.16693488257003"><ele>536.8</ele><time>2026-03-29T09:54:34.999Z</time></trkpt><trkpt lat="44.77831493385384" lon="9.167074128831352"><ele>537.6</ele><time>2026-03-29T09:54:35.999Z</time></trkpt><trkpt lat="44.778298251667465" lon="9.167218272002705"><ele>538.4</ele><time>2026-03-29T09:54:36.999Z</time></trkpt><trkpt lat="44.778277074518165" lon="9.167372952852281"><ele>539.2</ele><time>2026-03-29T09:54:37.999Z</time></trkpt><trkpt lat="44.778255545509495" lon="9.167543285127303"><ele>540.0</ele><time>2026-03-29T09:54:38.999Z</time></trkpt><trkpt lat="44.77823156893134" lon="9.167720277627545"><ele>541.25</ele><time>2026-03-29T09:54:39.999Z</time></trkpt><trkpt lat="44.77819829985589" lon="9.167907259330182"><ele>542.5</ele><time>2026-03-29T09:54:40.999Z</time></trkpt><trkpt lat="44.778158407121275" lon="9.168105079249688"><ele>543.75</ele><time>2026-03-29T09:54:41.999Z</time></trkpt><trkpt lat="44.7780963550265" lon="9.168301541130182"><ele>545.0</ele><time>2026-03-29T09:54:42.999Z</time></trkpt><trkpt lat="44.77806565774614" lon="9.168524825954194"><ele>546.0</ele><time>2026-03-29T09:54:43.999Z</time></trkpt><trkpt lat="44.77805728682407" lon="9.168776173025895"><ele>547.0</ele><time>2026-03-29T09:54:44.999Z</time></trkpt><trkpt lat="44.77801592498537" lon="9.16901102513519"><ele>548.0</ele><time>2026-03-29T09:54:45.999Z</time></trkpt><trkpt lat="44.77798428911756" lon="9.169226139748174"><ele>550.0</ele><time>2026-03-29T09:54:46.999Z</time></trkpt><trkpt lat="44.777963544763374" lon="9.169441930742172"><ele>552.0</ele><time>2026-03-29T09:54:47.999Z</time></trkpt><trkpt lat="44.777924700510155" lon="9.16964895928848"><ele>554.0</ele><time>2026-03-29T09:54:48.999Z</time></trkpt><trkpt lat="44.77789198956454" lon="9.169843340233669"><ele>556.0</ele><time>2026-03-29T09:54:49.999Z</time></trkpt><trkpt lat="44.777861067506315" lon="9.17002154000248"><ele>559.0</ele><time>2026-03-29T09:54:50.999Z</time></trkpt><trkpt lat="44.777833962063134" lon="9.170194432792606"><ele>562.0</ele><time>2026-03-29T09:54:51.999Z</time></trkpt><trkpt lat="44.77781456959739" lon="9.170365918497607"><ele>565.0</ele><time>2026-03-29T09:54:52.999Z</time></trkpt><trkpt lat="44.77780122551105" lon="9.170533220984119"><ele>568.0</ele><time>2026-03-29T09:54:53.999Z</time></trkpt><trkpt lat="44.777786707182415" lon="9.17067944696527"><ele>569.1999999999999</ele><time>2026-03-29T09:54:54.999Z</time></trkpt><trkpt lat="44.77778050115327" lon="9.170811946976116"><ele>570.4</ele><time>2026-03-29T09:54:55.999Z</time></trkpt><trkpt lat="44.77778618054228" lon="9.170954022656211"><ele>571.5999999999999</ele><time>2026-03-29T09:54:56.999Z</time></trkpt><trkpt lat="44.777824663754586" lon="9.171106881305034"><ele>572.8</ele><time>2026-03-29T09:54:57.999Z</time></trkpt><trkpt lat="44.7778504173532" lon="9.171269103050175"><ele>574.0</ele><time>2026-03-29T09:54:58.999Z</time></trkpt><trkpt lat="44.77787929428549" lon="9.17143288792508"><ele>574.2</ele><time>2026-03-29T09:54:59.999Z</time></trkpt><trkpt lat="44.77785016455889" lon="9.17159943106364"><ele>574.4</ele><time>2026-03-29T09:55:00.999Z</time></trkpt><trkpt lat="44.777817277076124" lon="9.17174324359141"><ele>574.6</ele><time>2026-03-29T09:55:01.999Z</time></trkpt><trkpt lat="44.7778012018178" lon="9.171876155420549"><ele>574.8</ele><time>2026-03-29T09:55:02.999Z</time></trkpt><trkpt lat="44.777814670738266" lon="9.172008757750787"><ele>575.0</ele><time>2026-03-29T09:55:03.999Z</time></trkpt><trkpt lat="44.77785716436467" lon="9.172135424687818"><ele>575.0</ele><time>2026-03-29T09:55:04.999Z</time></trkpt><trkpt lat="44.777937695253186" lon="9.172238884667816"><ele>575.0</ele><time>2026-03-29T09:55:05.999Z</time></trkpt><trkpt lat="44.77798845637166" lon="9.172365229625896"><ele>575.0</ele><time>2026-03-29T09:55:06.999Z</time></trkpt><trkpt lat="44.77803626294204" lon="9.172486842706835"><ele>575.0</ele><time>2026-03-29T09:55:07.999Z</time></trkpt><trkpt lat="44.77798442008208" lon="9.172617441016676"><ele>575.0</ele><time>2026-03-29T09:55:08.998Z</time></trkpt><trkpt lat="44.77792688213378" lon="9.172745905857038"><ele>574.75</ele><time>2026-03-29T09:55:09.998Z</time></trkpt><trkpt lat="44.77789430982897" lon="9.172904552658826"><ele>574.5</ele><time>2026-03-29T09:55:10.998Z</time></trkpt><trkpt lat="44.77784725628916" lon="9.173069646898801"><ele>574.25</ele><time>2026-03-29T09:55:11.998Z</time></trkpt><trkpt lat="44.77781554055775" lon="9.173224034792899"><ele>574.0</ele><time>2026-03-29T09:55:12.998Z</time></trkpt><trkpt lat="44.77778158715211" lon="9.17334856080349"><ele>572.4</ele><time>2026-03-29T09:55:13.998Z</time></trkpt><trkpt lat="44.77772904636211" lon="9.173437993749229"><ele>570.8</ele><time>2026-03-29T09:55:14.998Z</time></trkpt><trkpt lat="44.777653425352185" lon="9.173476135634651"><ele>569.2</ele><time>2026-03-29T09:55:15.998Z</time></trkpt><trkpt lat="44.77756378839962" lon="9.173452589674522"><ele>567.6</ele><time>2026-03-29T09:55:16.998Z</time></trkpt><trkpt lat="44.77746886465358" lon="9.173384393254493"><ele>566.0</ele><time>2026-03-29T09:55:17.998Z</time></trkpt><trkpt lat="44.77739473516972" lon="9.17326104646641"><ele>565.4</ele><time>2026-03-29T09:55:18.998Z</time></trkpt><trkpt lat="44.777343372452926" lon="9.173129663220683"><ele>564.8</ele><time>2026-03-29T09:55:19.998Z</time></trkpt><trkpt lat="44.77730491122567" lon="9.172986066810333"><ele>564.1999999999999</ele><time>2026-03-29T09:55:20.998Z</time></trkpt><trkpt lat="44.77727899184086" lon="9.172852305106195"><ele>563.6</ele><time>2026-03-29T09:55:21.998Z</time></trkpt><trkpt lat="44.777239105778065" lon="9.172730645090777"><ele>563.0</ele><time>2026-03-29T09:55:22.998Z</time></trkpt><trkpt lat="44.777207857736556" lon="9.172604253567501"><ele>563.0</ele><time>2026-03-29T09:55:24Z</time></trkpt><trkpt lat="44.77716948652554" lon="9.172492061185332"><ele>563.0</ele><time>2026-03-29T09:55:25Z</time></trkpt><trkpt lat="44.777114144569865" lon="9.172413697385103"><ele>563.0</ele><time>2026-03-29T09:55:26Z</time></trkpt><trkpt lat="44.77704919596055" lon="9.172376194022668"><ele>563.0</ele><time>2026-03-29T09:55:27Z</time></trkpt><trkpt lat="44.776977557582406" lon="9.172395030342294"><ele>563.0</ele><time>2026-03-29T09:55:28Z</time></trkpt><trkpt lat="44.77690459504372" lon="9.172453233453409"><ele>563.0</ele><time>2026-03-29T09:55:29Z</time></trkpt><trkpt lat="44.776862500263405" lon="9.172590654378432"><ele>563.0</ele><time>2026-03-29T09:55:30Z</time></trkpt><trkpt lat="44.77682823365341" lon="9.172733448572274"><ele>563.0</ele><time>2026-03-29T09:55:31Z</time></trkpt><trkpt lat="44.77682445348228" lon="9.172914888992036"><ele>563.0</ele><time>2026-03-29T09:55:32Z</time></trkpt><trkpt lat="44.77683472863008" lon="9.173113052796936"><ele>563.0</ele><time>2026-03-29T09:55:33Z</time></trkpt><trkpt lat="44.77683237749852" lon="9.173327103077305"><ele>565.0</ele><time>2026-03-29T09:55:34Z</time></trkpt><trkpt lat="44.776805691110866" lon="9.173522962599264"><ele>567.0</ele><time>2026-03-29T09:55:35Z</time></trkpt><trkpt lat="44.776797402605105" lon="9.173702438259104"><ele>569.0</ele><time>2026-03-29T09:55:36Z</time></trkpt><trkpt lat="44.77681039712515" lon="9.1738774957973"><ele>571.0</ele><time>2026-03-29T09:55:37Z</time></trkpt><trkpt lat="44.77683629113421" lon="9.17403414057896"><ele>570.4</ele><time>2026-03-29T09:55:38Z</time></trkpt><trkpt lat="44.77686374744621" lon="9.174171425227948"><ele>569.8</ele><time>2026-03-29T09:55:39Z</time></trkpt><trkpt lat="44.77688692660059" lon="9.174297843593441"><ele>569.1999999999999</ele><time>2026-03-29T09:55:40Z</time></trkpt><trkpt lat="44.77689696762177" lon="9.174416763126068"><ele>568.6</ele><time>2026-03-29T09:55:41Z</time></trkpt><trkpt lat="44.776885878577744" lon="9.174533826237326"><ele>568.0</ele><time>2026-03-29T09:55:42Z</time></trkpt><trkpt lat="44.776845192228194" lon="9.174641913242782"><ele>570.6</ele><time>2026-03-29T09:55:43Z</time></trkpt><trkpt lat="44.77678636311101" lon="9.174746828552596"><ele>573.1999999999999</ele><time>2026-03-29T09:55:44Z</time></trkpt><trkpt lat="44.77672649810806" lon="9.174853000026996"><ele>575.8</ele><time>2026-03-29T09:55:45Z</time></trkpt><trkpt lat="44.77667264533056" lon="9.174976400367425"><ele>578.4</ele><time>2026-03-29T09:55:46Z</time></trkpt><trkpt lat="44.77661636164762" lon="9.175108205066751"><ele>581.0</ele><time>2026-03-29T09:55:47Z</time></trkpt><trkpt lat="44.776560276197806" lon="9.175248338677752"><ele>582.5</ele><time>2026-03-29T09:55:48Z</time></trkpt><trkpt lat="44.77650993482656" lon="9.175400831488115"><ele>584.0</ele><time>2026-03-29T09:55:49Z</time></trkpt><trkpt lat="44.776471943526" lon="9.175559633516107"><ele>585.5</ele><time>2026-03-29T09:55:50Z</time></trkpt><trkpt lat="44.776439787955056" lon="9.175733437850374"><ele>587.0</ele><time>2026-03-29T09:55:51Z</time></trkpt><trkpt lat="44.776434413502905" lon="9.175930799894736"><ele>587.5</ele><time>2026-03-29T09:55:52Z</time></trkpt><trkpt lat="44.77643425936993" lon="9.176121153571989"><ele>588.0</ele><time>2026-03-29T09:55:53Z</time></trkpt><trkpt lat="44.776438362403354" lon="9.176268534002197"><ele>588.5</ele><time>2026-03-29T09:55:54Z</time></trkpt><trkpt lat="44.77643998996921" lon="9.176431904167254"><ele>589.0</ele><time>2026-03-29T09:55:55Z</time></trkpt><trkpt lat="44.77640898895767" lon="9.176569094803973"><ele>589.0</ele><time>2026-03-29T09:55:56Z</time></trkpt><trkpt lat="44.77637736805128" lon="9.176675071583997"><ele>589.0</ele><time>2026-03-29T09:55:57Z</time></trkpt><trkpt lat="44.776303744970654" lon="9.176753515120927"><ele>589.0</ele><time>2026-03-29T09:55:58Z</time></trkpt><trkpt lat="44.77623015563672" lon="9.176854899688905"><ele>589.0</ele><time>2026-03-29T09:55:59Z</time></trkpt><trkpt lat="44.77614708465387" lon="9.176960331470395"><ele>589.0</ele><time>2026-03-29T09:56:00Z</time></trkpt><trkpt lat="44.77605719063458" lon="9.177075567627117"><ele>594.25</ele><time>2026-03-29T09:56:01Z</time></trkpt><trkpt lat="44.775960979643244" lon="9.177180347589212"><ele>599.5</ele><time>2026-03-29T09:56:02Z</time></trkpt><trkpt lat="44.775862628246436" lon="9.177287901158794"><ele>604.75</ele><time>2026-03-29T09:56:03Z</time></trkpt><trkpt lat="44.77577935114312" lon="9.177413966339595"><ele>610.0</ele><time>2026-03-29T09:56:04Z</time></trkpt><trkpt lat="44.77570020575597" lon="9.177543462735809"><ele>610.0</ele><time>2026-03-29T09:56:05Z</time></trkpt><trkpt lat="44.77563260946041" lon="9.177686988268285"><ele>610.0</ele><time>2026-03-29T09:56:06Z</time></trkpt><trkpt lat="44.77558378811128" lon="9.17782096256105"><ele>610.0</ele><time>2026-03-29T09:56:07Z</time></trkpt><trkpt lat="44.77554169639398" lon="9.177939514957005"><ele>610.0</ele><time>2026-03-29T09:56:08Z</time></trkpt><trkpt lat="44.77551648388013" lon="9.17804435249445"><ele>610.0</ele><time>2026-03-29T09:56:09Z</time></trkpt><trkpt lat="44.77551889895939" lon="9.178153376111101"><ele>610.6</ele><time>2026-03-29T09:56:10Z</time></trkpt><trkpt lat="44.7755465655386" lon="9.178265964011366"><ele>611.2</ele><time>2026-03-29T09:56:11Z</time></trkpt><trkpt lat="44.77565096404172" lon="9.178343602339732"><ele>611.8</ele><time>2026-03-29T09:56:12Z</time></trkpt><trkpt lat="44.77575805472529" lon="9.178401752827943"><ele>612.4</ele><time>2026-03-29T09:56:12.999Z</time></trkpt><trkpt lat="44.77586808341725" lon="9.17846825154499"><ele>613.0</ele><time>2026-03-29T09:56:13.999Z</time></trkpt><trkpt lat="44.77594269558206" lon="9.178557980910595"><ele>613.0</ele><time>2026-03-29T09:56:14.999Z</time></trkpt><trkpt lat="44.77599744295599" lon="9.178654146332622"><ele>613.0</ele><time>2026-03-29T09:56:15.999Z</time></trkpt><trkpt lat="44.77602851875776" lon="9.178790096810204"><ele>613.0</ele><time>2026-03-29T09:56:16.999Z</time></trkpt><trkpt lat="44.77603776254303" lon="9.178925929247916"><ele>613.0</ele><time>2026-03-29T09:56:17.999Z</time></trkpt><trkpt lat="44.77601282746302" lon="9.179051578095297"><ele>613.0</ele><time>2026-03-29T09:56:18.999Z</time></trkpt><trkpt lat="44.776003916341665" lon="9.17919076067047"><ele>613.8</ele><time>2026-03-29T09:56:19.999Z</time></trkpt><trkpt lat="44.775964450584475" lon="9.17931105907402"><ele>614.5999999999999</ele><time>2026-03-29T09:56:20.999Z</time></trkpt><trkpt lat="44.77590113050899" lon="9.179405118951811"><ele>615.4000000000001</ele><time>2026-03-29T09:56:21.999Z</time></trkpt><trkpt lat="44.7758176341795" lon="9.179482737228929"><ele>616.2</ele><time>2026-03-29T09:56:22.999Z</time></trkpt><trkpt lat="44.77574520479564" lon="9.17956902308152"><ele>617.0</ele><time>2026-03-29T09:56:23.999Z</time></trkpt><trkpt lat="44.77570861168265" lon="9.17967825426586"><ele>617.0</ele><time>2026-03-29T09:56:24.999Z</time></trkpt><trkpt lat="44.77571615767824" lon="9.179804946989828"><ele>617.0</ele><time>2026-03-29T09:56:25.999Z</time></trkpt><trkpt lat="44.77575790221219" lon="9.179933067349268"><ele>617.0</ele><time>2026-03-29T09:56:26.999Z</time></trkpt><trkpt lat="44.77582484049787" lon="9.180060005303673"><ele>617.0</ele><time>2026-03-29T09:56:27.999Z</time></trkpt><trkpt lat="44.77588570528085" lon="9.180195803558608"><ele>617.0</ele><time>2026-03-29T09:56:28.999Z</time></trkpt><trkpt lat="44.77593513192846" lon="9.180338260642024"><ele>618.2</ele><time>2026-03-29T09:56:29.999Z</time></trkpt><trkpt lat="44.7759981285798" lon="9.180461510050693"><ele>619.4000000000001</ele><time>2026-03-29T09:56:30.999Z</time></trkpt><trkpt lat="44.776083611952274" lon="9.180553230099761"><ele>620.5999999999999</ele><time>2026-03-29T09:56:31.999Z</time></trkpt><trkpt lat="44.77619427158907" lon="9.180593670880564"><ele>621.8</ele><time>2026-03-29T09:56:32.999Z</time></trkpt><trkpt lat="44.776308727266795" lon="9.180606979097098"><ele>623.0</ele><time>2026-03-29T09:56:33.999Z</time></trkpt><trkpt lat="44.77641150690442" lon="9.180637596789268"><ele>624.1666666666666</ele><time>2026-03-29T09:56:34.999Z</time></trkpt><trkpt lat="44.77648709603302" lon="9.180682902788813"><ele>625.3333333333333</ele><time>2026-03-29T09:56:35.999Z</time></trkpt><trkpt lat="44.77653328449369" lon="9.180776864182029"><ele>626.5</ele><time>2026-03-29T09:56:36.999Z</time></trkpt><trkpt lat="44.77655685102982" lon="9.180893503232667"><ele>627.6666666666666</ele><time>2026-03-29T09:56:37.999Z</time></trkpt><trkpt lat="44.77658761412219" lon="9.181016623567894"><ele>628.8333333333334</ele><time>2026-03-29T09:56:38.999Z</time></trkpt><trkpt lat="44.77662947458782" lon="9.181140600476025"><ele>630.0</ele><time>2026-03-29T09:56:39.999Z</time></trkpt><trkpt lat="44.77665625598169" lon="9.181276991375025"><ele>630.0</ele><time>2026-03-29T09:56:40.999Z</time></trkpt><trkpt lat="44.776684788876025" lon="9.181415941331112"><ele>630.0</ele><time>2026-03-29T09:56:41.999Z</time></trkpt><trkpt lat="44.77670620801677" lon="9.18155489453039"><ele>630.0</ele><time>2026-03-29T09:56:42.999Z</time></trkpt><trkpt lat="44.77672976707454" lon="9.18167623126526"><ele>630.0</ele><time>2026-03-29T09:56:43.999Z</time></trkpt><trkpt lat="44.7767133261369" lon="9.181789667365221"><ele>630.0</ele><time>2026-03-29T09:56:44.999Z</time></trkpt><trkpt lat="44.77665865796341" lon="9.18188587272511"><ele>631.6666666666666</ele><time>2026-03-29T09:56:45.999Z</time></trkpt><trkpt lat="44.77658729795966" lon="9.181964159784147"><ele>633.3333333333334</ele><time>2026-03-29T09:56:46.999Z</time></trkpt><trkpt lat="44.7765295042056" lon="9.1820458493137"><ele>635.0</ele><time>2026-03-29T09:56:47.999Z</time></trkpt><trkpt lat="44.77650232334152" lon="9.182155686217756"><ele>636.6666666666667</ele><time>2026-03-29T09:56:48.999Z</time></trkpt><trkpt lat="44.77650010313924" lon="9.182287987896071"><ele>638.3333333333334</ele><time>2026-03-29T09:56:49.999Z</time></trkpt><trkpt lat="44.77650854287042" lon="9.182426005042814"><ele>640.0</ele><time>2026-03-29T09:56:50.999Z</time></trkpt><trkpt lat="44.77650818680863" lon="9.18256169146775"><ele>641.2</ele><time>2026-03-29T09:56:51.999Z</time></trkpt><trkpt lat="44.77649085123299" lon="9.182690876609879"><ele>642.4</ele><time>2026-03-29T09:56:52.999Z</time></trkpt><trkpt lat="44.77646651191266" lon="9.182819372574462"><ele>643.5999999999999</ele><time>2026-03-29T09:56:53.999Z</time></trkpt><trkpt lat="44.77645012376429" lon="9.182952711396139"><ele>644.8</ele><time>2026-03-29T09:56:54.999Z</time></trkpt><trkpt lat="44.77644119891558" lon="9.183094225596541"><ele>646.0</ele><time>2026-03-29T09:56:55.999Z</time></trkpt><trkpt lat="44.77643262358116" lon="9.183242822565896"><ele>646.1999999999999</ele><time>2026-03-29T09:56:56.999Z</time></trkpt><trkpt lat="44.77642453953337" lon="9.18339119805834"><ele>646.4</ele><time>2026-03-29T09:56:57.999Z</time></trkpt><trkpt lat="44.77642040291726" lon="9.183545185834813"><ele>646.6</ele><time>2026-03-29T09:56:58.999Z</time></trkpt><trkpt lat="44.77643085528432" lon="9.183702283087483"><ele>646.8</ele><time>2026-03-29T09:56:59.999Z</time></trkpt><trkpt lat="44.77643398514499" lon="9.183858540481705"><ele>647.0</ele><time>2026-03-29T09:57:00.999Z</time></trkpt><trkpt lat="44.77642377549862" lon="9.18399768603639"><ele>646.1666666666666</ele><time>2026-03-29T09:57:01.999Z</time></trkpt><trkpt lat="44.77639971744537" lon="9.184124478608759"><ele>645.3333333333333</ele><time>2026-03-29T09:57:02.999Z</time></trkpt><trkpt lat="44.77636214467804" lon="9.18423515538342"><ele>644.5</ele><time>2026-03-29T09:57:03.999Z</time></trkpt><trkpt lat="44.77631289417344" lon="9.184316158016962"><ele>643.6666666666666</ele><time>2026-03-29T09:57:04.999Z</time></trkpt><trkpt lat="44.776254433912875" lon="9.184376826028332"><ele>642.8333333333334</ele><time>2026-03-29T09:57:05.999Z</time></trkpt><trkpt lat="44.7761885415418" lon="9.184396893320367"><ele>642.0</ele><time>2026-03-29T09:57:06.999Z</time></trkpt><trkpt lat="44.776123852314306" lon="9.184385708175164"><ele>642.0</ele><time>2026-03-29T09:57:07.999Z</time></trkpt><trkpt lat="44.77605871735982" lon="9.184361128110144"><ele>642.0</ele><time>2026-03-29T09:57:08.999Z</time></trkpt><trkpt lat="44.775992107480846" lon="9.184333164710745"><ele>642.0</ele><time>2026-03-29T09:57:09.999Z</time></trkpt><trkpt lat="44.77591629270212" lon="9.184298041556124"><ele>642.0</ele><time>2026-03-29T09:57:10.999Z</time></trkpt><trkpt lat="44.77582877427908" lon="9.184259244189972"><ele>642.0</ele><time>2026-03-29T09:57:11.999Z</time></trkpt><trkpt lat="44.77573666570024" lon="9.184215587385452"><ele>642.0</ele><time>2026-03-29T09:57:12.998Z</time></trkpt><trkpt lat="44.77563718823588" lon="9.18416899596486"><ele>644.5</ele><time>2026-03-29T09:57:13.998Z</time></trkpt><trkpt lat="44.775542698129854" lon="9.184127867480322"><ele>647.0</ele><time>2026-03-29T09:57:14.998Z</time></trkpt><trkpt lat="44.77545357940925" lon="9.184090874698233"><ele>649.5</ele><time>2026-03-29T09:57:15.998Z</time></trkpt><trkpt lat="44.775375536244226" lon="9.184056163021939"><ele>652.0</ele><time>2026-03-29T09:57:16.998Z</time></trkpt><trkpt lat="44.775299872986395" lon="9.184017983866871"><ele>654.5</ele><time>2026-03-29T09:57:17.998Z</time></trkpt><trkpt lat="44.7752282246425" lon="9.183984520429172"><ele>657.0</ele><time>2026-03-29T09:57:18.998Z</time></trkpt><trkpt lat="44.7751522640108" lon="9.183955787723876"><ele>659.2857142857142</ele><time>2026-03-29T09:57:19.998Z</time></trkpt><trkpt lat="44.77507724930654" lon="9.183924052522414"><ele>661.5714285714287</ele><time>2026-03-29T09:57:20.998Z</time></trkpt><trkpt lat="44.77500186732257" lon="9.183884909226807"><ele>663.8571428571429</ele><time>2026-03-29T09:57:21.998Z</time></trkpt><trkpt lat="44.774937243962185" lon="9.183831439621462"><ele>666.1428571428571</ele><time>2026-03-29T09:57:22.998Z</time></trkpt><trkpt lat="44.77488818597169" lon="9.183753392437305"><ele>668.4285714285713</ele><time>2026-03-29T09:57:23.998Z</time></trkpt><trkpt lat="44.77486070851169" lon="9.183660566493822"><ele>670.7142857142858</ele><time>2026-03-29T09:57:24.998Z</time></trkpt><trkpt lat="44.77485797025979" lon="9.183568985173379"><ele>673.0</ele><time>2026-03-29T09:57:25.998Z</time></trkpt><trkpt lat="44.7749014135421" lon="9.183489159225342"><ele>673.0</ele><time>2026-03-29T09:57:26.998Z</time></trkpt><trkpt lat="44.77494880727015" lon="9.18333308051369"><ele>673.0</ele><time>2026-03-29T09:57:28.998Z</time></trkpt><trkpt lat="44.77496878892618" lon="9.183239885292787"><ele>673.0</ele><time>2026-03-29T09:57:30Z</time></trkpt><trkpt lat="44.77501211881187" lon="9.183159670634945"><ele>673.0</ele><time>2026-03-29T09:57:31Z</time></trkpt><trkpt lat="44.775052703861256" lon="9.183081199530115"><ele>673.0</ele><time>2026-03-29T09:57:32Z</time></trkpt><trkpt lat="44.77512054362024" lon="9.182956830172483"><ele>673.0</ele><time>2026-03-29T09:57:34Z</time></trkpt><trkpt lat="44.77515391676924" lon="9.18284811507875"><ele>674.0</ele><time>2026-03-29T09:57:36Z</time></trkpt><trkpt lat="44.77505904807471" lon="9.182755115682172"><ele>675.0</ele><time>2026-03-29T09:57:38Z</time></trkpt><trkpt lat="44.77497080812891" lon="9.182679997438145"><ele>676.0</ele><time>2026-03-29T09:57:40Z</time></trkpt><trkpt lat="44.77487003435335" lon="9.182633596894561"><ele>677.0</ele><time>2026-03-29T09:57:42Z</time></trkpt><trkpt lat="44.774765925557716" lon="9.182565999911064"><ele>678.0</ele><time>2026-03-29T09:57:44Z</time></trkpt><trkpt lat="44.774651215052266" lon="9.182565003231561"><ele>678.0</ele><time>2026-03-29T09:57:46Z</time></trkpt><trkpt lat="44.77454529784192" lon="9.182554287298602"><ele>678.0</ele><time>2026-03-29T09:57:48Z</time></trkpt><trkpt lat="44.77443681014353" lon="9.182540267794764"><ele>678.0</ele><time>2026-03-29T09:57:50Z</time></trkpt><trkpt lat="44.774341323503535" lon="9.182526962393892"><ele>678.0</ele><time>2026-03-29T09:57:52Z</time></trkpt><trkpt lat="44.77424706263069" lon="9.182487585322344"><ele>678.0</ele><time>2026-03-29T09:57:54Z</time></trkpt><trkpt lat="44.774136748724366" lon="9.182480685773067"><ele>680.2</ele><time>2026-03-29T09:57:56Z</time></trkpt><trkpt lat="44.77402412441339" lon="9.18248278225899"><ele>682.4</ele><time>2026-03-29T09:57:58Z</time></trkpt><trkpt lat="44.773917275827316" lon="9.18245729517796"><ele>684.6</ele><time>2026-03-29T09:58:00Z</time></trkpt><trkpt lat="44.77383835952261" lon="9.182416340925005"><ele>686.8000000000001</ele><time>2026-03-29T09:58:02Z</time></trkpt><trkpt lat="44.773769501264304" lon="9.182406660085608"><ele>689.0</ele><time>2026-03-29T09:58:05Z</time></trkpt><trkpt lat="44.77373295610398" lon="9.182552022088123"><ele>689.0</ele><time>2026-03-29T09:58:06Z</time></trkpt><trkpt lat="44.77374583975594" lon="9.18265725313053"><ele>689.0</ele><time>2026-03-29T09:58:49.999Z</time></trkpt><trkpt lat="44.77373435732945" lon="9.182747087252467"><ele>689.0</ele><time>2026-03-29T09:58:54.999Z</time></trkpt></trkseg><trkseg><trkpt lat="44.77371039960133" lon="9.182674449674568"><ele>689.0</ele><time>2026-03-29T10:17:56Z</time></trkpt><trkpt lat="44.77372188044965" lon="9.182586431002397"><ele>689.0</ele><time>2026-03-29T10:17:59Z</time></trkpt><trkpt lat="44.773771010037606" lon="9.182510189311017"><ele>689.0</ele><time>2026-03-29T10:18:02Z</time></trkpt><trkpt lat="44.773837015838396" lon="9.182448947216088"><ele>689.0</ele><time>2026-03-29T10:18:08Z</time></trkpt><trkpt lat="44.77390558877403" lon="9.182433389696982"><ele>689.0</ele><time>2026-03-29T10:18:10Z</time></trkpt><trkpt lat="44.773976801904" lon="9.182460171915356"><ele>689.0</ele><time>2026-03-29T10:18:12Z</time></trkpt><trkpt lat="44.77406735178879" lon="9.182477493771373"><ele>689.0</ele><time>2026-03-29T10:18:15Z</time></trkpt><trkpt lat="44.77413535285215" lon="9.18248742974328"><ele>689.0</ele><time>2026-03-29T10:18:17Z</time></trkpt><trkpt lat="44.77421397919422" lon="9.182505108874857"><ele>689.0</ele><time>2026-03-29T10:18:19Z</time></trkpt><trkpt lat="44.77429628930086" lon="9.18250863134782"><ele>689.0</ele><time>2026-03-29T10:18:21Z</time></trkpt><trkpt lat="44.774386715746786" lon="9.182526398599602"><ele>689.0</ele><time>2026-03-29T10:18:23Z</time></trkpt><trkpt lat="44.77448437511712" lon="9.182542632499878"><ele>689.0</ele><time>2026-03-29T10:18:25Z</time></trkpt><trkpt lat="44.77456691801429" lon="9.182553540156944"><ele>687.1666666666666</ele><time>2026-03-29T10:18:27Z</time></trkpt><trkpt lat="44.774641388918994" lon="9.18256176088879"><ele>685.3333333333333</ele><time>2026-03-29T10:18:29Z</time></trkpt><trkpt lat="44.7747142758872" lon="9.182567912697335"><ele>683.5</ele><time>2026-03-29T10:18:31Z</time></trkpt><trkpt lat="44.77480280798316" lon="9.182593218415995"><ele>681.6666666666666</ele><time>2026-03-29T10:18:33Z</time></trkpt><trkpt lat="44.77489222930321" lon="9.182641384764077"><ele>679.8333333333334</ele><time>2026-03-29T10:18:35Z</time></trkpt><trkpt lat="44.774972015906044" lon="9.182694272872778"><ele>678.0</ele><time>2026-03-29T10:18:36.999Z</time></trkpt><trkpt lat="44.775045432553256" lon="9.182764061563796"><ele>678.0</ele><time>2026-03-29T10:18:38.999Z</time></trkpt><trkpt lat="44.77509976008135" lon="9.182873749369454"><ele>678.0</ele><time>2026-03-29T10:18:40.999Z</time></trkpt><trkpt lat="44.77507873927762" lon="9.183017148596104"><ele>678.0</ele><time>2026-03-29T10:18:42.999Z</time></trkpt><trkpt lat="44.77503748828402" lon="9.183087761102989"><ele>678.0</ele><time>2026-03-29T10:18:43.999Z</time></trkpt><trkpt lat="44.77496849565431" lon="9.183221860602043"><ele>678.0</ele><time>2026-03-29T10:18:45.999Z</time></trkpt><trkpt lat="44.774919842177844" lon="9.183357290589303"><ele>677.0</ele><time>2026-03-29T10:18:47.999Z</time></trkpt><trkpt lat="44.77488197392399" lon="9.183484462918097"><ele>676.0</ele><time>2026-03-29T10:18:49.999Z</time></trkpt><trkpt lat="44.77486454695825" lon="9.183616845821678"><ele>675.0</ele><time>2026-03-29T10:18:51.999Z</time></trkpt><trkpt lat="44.774868174623656" lon="9.1837713546675"><ele>674.0</ele><time>2026-03-29T10:18:53.999Z</time></trkpt><trkpt lat="44.77491994685505" lon="9.183829734530514"><ele>673.0</ele><time>2026-03-29T10:18:54.999Z</time></trkpt><trkpt lat="44.775014161145435" lon="9.183908309676111"><ele>673.0</ele><time>2026-03-29T10:18:56.999Z</time></trkpt><trkpt lat="44.775082250500134" lon="9.183976989101941"><ele>673.0</ele><time>2026-03-29T10:18:58.999Z</time></trkpt><trkpt lat="44.77502406465276" lon="9.184046056260202"><ele>673.0</ele><time>2026-03-29T10:19:04.999Z</time></trkpt><trkpt lat="44.7749578189631" lon="9.184068088747184"><ele>673.0</ele><time>2026-03-29T10:19:05.999Z</time></trkpt><trkpt lat="44.77488108951627" lon="9.184120995728444"><ele>673.0</ele><time>2026-03-29T10:19:06.999Z</time></trkpt><trkpt lat="44.77478717250185" lon="9.184152585306116"><ele>673.0</ele><time>2026-03-29T10:19:07.999Z</time></trkpt><trkpt lat="44.77469356906565" lon="9.184185942865426"><ele>671.4</ele><time>2026-03-29T10:19:08.999Z</time></trkpt><trkpt lat="44.77459673447605" lon="9.18422049256832"><ele>669.8</ele><time>2026-03-29T10:19:09.999Z</time></trkpt><trkpt lat="44.77449173985805" lon="9.18425695665932"><ele>668.2</ele><time>2026-03-29T10:19:10.999Z</time></trkpt><trkpt lat="44.77437940074517" lon="9.184295732666486"><ele>666.6</ele><time>2026-03-29T10:19:11.999Z</time></trkpt><trkpt lat="44.77426227597291" lon="9.184311598041809"><ele>665.0</ele><time>2026-03-29T10:19:12.999Z</time></trkpt><trkpt lat="44.77414598742991" lon="9.184354277660509"><ele>665.0</ele><time>2026-03-29T10:19:13.999Z</time></trkpt><trkpt lat="44.77403139868568" lon="9.18442189919552"><ele>665.0</ele><time>2026-03-29T10:19:14.999Z</time></trkpt><trkpt lat="44.77391626717748" lon="9.184444009472703"><ele>665.0</ele><time>2026-03-29T10:19:15.999Z</time></trkpt><trkpt lat="44.77382471970719" lon="9.184523084148596"><ele>665.0</ele><time>2026-03-29T10:19:16.999Z</time></trkpt><trkpt lat="44.77373376356027" lon="9.184601262045208"><ele>665.0</ele><time>2026-03-29T10:19:17.999Z</time></trkpt><trkpt lat="44.77364765606067" lon="9.184690774130774"><ele>665.0</ele><time>2026-03-29T10:19:18.999Z</time></trkpt><trkpt lat="44.77356849961322" lon="9.184780895158807"><ele>665.0</ele><time>2026-03-29T10:19:19.999Z</time></trkpt><trkpt lat="44.77349575786248" lon="9.184866276378095"><ele>665.0</ele><time>2026-03-29T10:19:20.999Z</time></trkpt><trkpt lat="44.773413203957986" lon="9.184939576039744"><ele>665.0</ele><time>2026-03-29T10:19:21.999Z</time></trkpt><trkpt lat="44.773360986680444" lon="9.185057051725524"><ele>663.6</ele><time>2026-03-29T10:19:22.999Z</time></trkpt><trkpt lat="44.773348421062636" lon="9.185199892119048"><ele>662.2</ele><time>2026-03-29T10:19:23.999Z</time></trkpt><trkpt lat="44.77338064000478" lon="9.185328985182695"><ele>660.8</ele><time>2026-03-29T10:19:24.999Z</time></trkpt><trkpt lat="44.77340074881157" lon="9.185469867062293"><ele>659.4</ele><time>2026-03-29T10:19:25.999Z</time></trkpt><trkpt lat="44.77345925212192" lon="9.185596823481129"><ele>658.0</ele><time>2026-03-29T10:19:26.999Z</time></trkpt><trkpt lat="44.77355392947608" lon="9.185686002457551"><ele>656.25</ele><time>2026-03-29T10:19:27.999Z</time></trkpt><trkpt lat="44.773649739121964" lon="9.185773378026832"><ele>654.5</ele><time>2026-03-29T10:19:28.999Z</time></trkpt><trkpt lat="44.773724061777756" lon="9.185900071976421"><ele>652.75</ele><time>2026-03-29T10:19:29.999Z</time></trkpt><trkpt lat="44.77380130709396" lon="9.186038521932115"><ele>651.0</ele><time>2026-03-29T10:19:30.999Z</time></trkpt><trkpt lat="44.77387913611435" lon="9.186191206865129"><ele>651.0</ele><time>2026-03-29T10:19:31.999Z</time></trkpt><trkpt lat="44.77396014438609" lon="9.186365104364484"><ele>651.0</ele><time>2026-03-29T10:19:32.999Z</time></trkpt><trkpt lat="44.77404674360357" lon="9.186551976071874"><ele>651.0</ele><time>2026-03-29T10:19:33.999Z</time></trkpt><trkpt lat="44.77413808359149" lon="9.186748575983353"><ele>653.3333333333334</ele><time>2026-03-29T10:19:34.999Z</time></trkpt><trkpt lat="44.77422409405884" lon="9.186928233573505"><ele>655.6666666666667</ele><time>2026-03-29T10:19:36Z</time></trkpt><trkpt lat="44.774309212842674" lon="9.187110905022873"><ele>658.0</ele><time>2026-03-29T10:19:37Z</time></trkpt><trkpt lat="44.77438279812381" lon="9.187306471384154"><ele>660.6666666666667</ele><time>2026-03-29T10:19:38Z</time></trkpt><trkpt lat="44.774477833019525" lon="9.187486053689936"><ele>663.3333333333334</ele><time>2026-03-29T10:19:39Z</time></trkpt><trkpt lat="44.77456235194617" lon="9.187671182626914"><ele>666.0</ele><time>2026-03-29T10:19:40Z</time></trkpt><trkpt lat="44.774645462675274" lon="9.187850823887302"><ele>666.0</ele><time>2026-03-29T10:19:41Z</time></trkpt><trkpt lat="44.77473157904543" lon="9.188021400312055"><ele>666.0</ele><time>2026-03-29T10:19:42Z</time></trkpt><trkpt lat="44.77483157669351" lon="9.188178726579366"><ele>666.0</ele><time>2026-03-29T10:19:43Z</time></trkpt><trkpt lat="44.77494953063375" lon="9.188319516776263"><ele>666.3333333333334</ele><time>2026-03-29T10:19:44Z</time></trkpt><trkpt lat="44.77508163572483" lon="9.188450999829662"><ele>666.6666666666667</ele><time>2026-03-29T10:19:45Z</time></trkpt><trkpt lat="44.77520281038691" lon="9.188606950728516"><ele>667.0</ele><time>2026-03-29T10:19:46Z</time></trkpt><trkpt lat="44.77532604178307" lon="9.188742527886733"><ele>667.0</ele><time>2026-03-29T10:19:47Z</time></trkpt><trkpt lat="44.77542544133827" lon="9.188865804654224"><ele>667.0</ele><time>2026-03-29T10:19:48Z</time></trkpt><trkpt lat="44.77550759798908" lon="9.188986343679353"><ele>667.0</ele><time>2026-03-29T10:19:49Z</time></trkpt><trkpt lat="44.77556336151573" lon="9.189113947478333"><ele>667.0</ele><time>2026-03-29T10:19:50Z</time></trkpt><trkpt lat="44.77557188004198" lon="9.189279986371941"><ele>670.25</ele><time>2026-03-29T10:19:51Z</time></trkpt><trkpt lat="44.77556261454058" lon="9.189457302922648"><ele>673.5</ele><time>2026-03-29T10:19:52Z</time></trkpt><trkpt lat="44.77555640194756" lon="9.18964520394768"><ele>676.75</ele><time>2026-03-29T10:19:53Z</time></trkpt><trkpt lat="44.77555202016281" lon="9.189840585839603"><ele>680.0</ele><time>2026-03-29T10:19:54Z</time></trkpt><trkpt lat="44.775549511376674" lon="9.19004272636788"><ele>681.0</ele><time>2026-03-29T10:19:55Z</time></trkpt><trkpt lat="44.77554815448258" lon="9.190248813201746"><ele>682.0</ele><time>2026-03-29T10:19:56Z</time></trkpt><trkpt lat="44.775553836010126" lon="9.190454938129395"><ele>683.0</ele><time>2026-03-29T10:19:57Z</time></trkpt><trkpt lat="44.77555076846871" lon="9.190659603364432"><ele>684.0</ele><time>2026-03-29T10:19:58Z</time></trkpt><trkpt lat="44.775584521442816" lon="9.190859128774086"><ele>685.75</ele><time>2026-03-29T10:19:59Z</time></trkpt><trkpt lat="44.77563438526903" lon="9.191041928561722"><ele>687.5</ele><time>2026-03-29T10:20:00Z</time></trkpt><trkpt lat="44.77569365128479" lon="9.191213283876635"><ele>689.25</ele><time>2026-03-29T10:20:01Z</time></trkpt><trkpt lat="44.77576883478194" lon="9.191362423983309"><ele>691.0</ele><time>2026-03-29T10:20:02Z</time></trkpt><trkpt lat="44.77586077425887" lon="9.191453821491281"><ele>693.4</ele><time>2026-03-29T10:20:03Z</time></trkpt><trkpt lat="44.7759333165069" lon="9.191529231612668"><ele>695.8</ele><time>2026-03-29T10:20:04Z</time></trkpt><trkpt lat="44.77598248216631" lon="9.19163081259561"><ele>698.1999999999999</ele><time>2026-03-29T10:20:05Z</time></trkpt><trkpt lat="44.776011746850855" lon="9.191753222984536"><ele>700.5999999999999</ele><time>2026-03-29T10:20:06Z</time></trkpt><trkpt lat="44.776034454295804" lon="9.19189008709835"><ele>703.0</ele><time>2026-03-29T10:20:07Z</time></trkpt><trkpt lat="44.77605282849371" lon="9.19204078290312"><ele>703.0</ele><time>2026-03-29T10:20:08Z</time></trkpt><trkpt lat="44.776079405942994" lon="9.192207270159019"><ele>703.0</ele><time>2026-03-29T10:20:09Z</time></trkpt><trkpt lat="44.77610880090959" lon="9.192382494824725"><ele>703.0</ele><time>2026-03-29T10:20:10Z</time></trkpt><trkpt lat="44.77613934070325" lon="9.192561518095866"><ele>703.0</ele><time>2026-03-29T10:20:11Z</time></trkpt><trkpt lat="44.77618037626112" lon="9.19273652754697"><ele>704.25</ele><time>2026-03-29T10:20:12Z</time></trkpt><trkpt lat="44.77624030998582" lon="9.192897625316336"><ele>705.5</ele><time>2026-03-29T10:20:13Z</time></trkpt><trkpt lat="44.77631746204328" lon="9.193041944646188"><ele>706.75</ele><time>2026-03-29T10:20:14Z</time></trkpt><trkpt lat="44.77641406611154" lon="9.193179047941427"><ele>708.0</ele><time>2026-03-29T10:20:15Z</time></trkpt><trkpt lat="44.77652795634719" lon="9.193303079739124"><ele>708.0</ele><time>2026-03-29T10:20:16Z</time></trkpt><trkpt lat="44.77664986098437" lon="9.193425742609742"><ele>708.0</ele><time>2026-03-29T10:20:17Z</time></trkpt><trkpt lat="44.77676274056776" lon="9.193554464926555"><ele>708.0</ele><time>2026-03-29T10:20:18Z</time></trkpt><trkpt lat="44.776856645482795" lon="9.193693974953293"><ele>708.0</ele><time>2026-03-29T10:20:19Z</time></trkpt><trkpt lat="44.77697910049574" lon="9.19379427816535"><ele>708.0</ele><time>2026-03-29T10:20:20Z</time></trkpt><trkpt lat="44.777115049058175" lon="9.193846897326615"><ele>708.0</ele><time>2026-03-29T10:20:21Z</time></trkpt><trkpt lat="44.77723854622486" lon="9.193908706340288"><ele>708.0</ele><time>2026-03-29T10:20:22Z</time></trkpt><trkpt lat="44.77733994879757" lon="9.193981860549789"><ele>708.0</ele><time>2026-03-29T10:20:23Z</time></trkpt><trkpt lat="44.77741761614841" lon="9.194087320195887"><ele>710.0</ele><time>2026-03-29T10:20:24Z</time></trkpt><trkpt lat="44.77747810583898" lon="9.194220638828554"><ele>712.0</ele><time>2026-03-29T10:20:25Z</time></trkpt><trkpt lat="44.777527610969244" lon="9.19437301562079"><ele>714.0</ele><time>2026-03-29T10:20:26Z</time></trkpt><trkpt lat="44.777567974515556" lon="9.194534766089184"><ele>716.0</ele><time>2026-03-29T10:20:27Z</time></trkpt><trkpt lat="44.77759971547432" lon="9.194712123158899"><ele>717.3333333333333</ele><time>2026-03-29T10:20:28Z</time></trkpt><trkpt lat="44.77762985763863" lon="9.194906449535653"><ele>718.6666666666666</ele><time>2026-03-29T10:20:29Z</time></trkpt><trkpt lat="44.777656928958955" lon="9.195115450278989"><ele>720.0</ele><time>2026-03-29T10:20:30Z</time></trkpt><trkpt lat="44.777680087484484" lon="9.195345203984385"><ele>714.3333333333334</ele><time>2026-03-29T10:20:31Z</time></trkpt><trkpt lat="44.77770312263757" lon="9.195589491608631"><ele>708.6666666666667</ele><time>2026-03-29T10:20:32Z</time></trkpt><trkpt lat="44.77772371674818" lon="9.19584866185482"><ele>703.0</ele><time>2026-03-29T10:20:33Z</time></trkpt><trkpt lat="44.77772094936269" lon="9.196096037939029"><ele>703.0</ele><time>2026-03-29T10:20:34Z</time></trkpt><trkpt lat="44.77774671796628" lon="9.19632593671986"><ele>703.0</ele><time>2026-03-29T10:20:35Z</time></trkpt><trkpt lat="44.777744701253994" lon="9.196549978775034"><ele>703.0</ele><time>2026-03-29T10:20:36Z</time></trkpt><trkpt lat="44.77772705573274" lon="9.196763808718098"><ele>703.6666666666667</ele><time>2026-03-29T10:20:37Z</time></trkpt><trkpt lat="44.777688365663614" lon="9.196979326365634"><ele>704.3333333333334</ele><time>2026-03-29T10:20:38Z</time></trkpt><trkpt lat="44.77765186184455" lon="9.197200042353408"><ele>705.0</ele><time>2026-03-29T10:20:38.999Z</time></trkpt><trkpt lat="44.77762146666292" lon="9.197431858370628"><ele>714.6666666666666</ele><time>2026-03-29T10:20:39.999Z</time></trkpt><trkpt lat="44.77759492777583" lon="9.197668777500072"><ele>724.3333333333333</ele><time>2026-03-29T10:20:40.999Z</time></trkpt><trkpt lat="44.777570041200285" lon="9.19791045553591"><ele>734.0</ele><time>2026-03-29T10:20:41.999Z</time></trkpt><trkpt lat="44.777548363119244" lon="9.198136518398451"><ele>733.0</ele><time>2026-03-29T10:20:42.999Z</time></trkpt><trkpt lat="44.77752887036511" lon="9.198337003165962"><ele>732.0</ele><time>2026-03-29T10:20:43.999Z</time></trkpt><trkpt lat="44.77749679572208" lon="9.198519111529642"><ele>731.0</ele><time>2026-03-29T10:20:44.999Z</time></trkpt><trkpt lat="44.77743785842082" lon="9.198680542679867"><ele>730.0</ele><time>2026-03-29T10:20:45.999Z</time></trkpt><trkpt lat="44.777359057429834" lon="9.198837780229836"><ele>730.0</ele><time>2026-03-29T10:20:46.999Z</time></trkpt><trkpt lat="44.7772918520755" lon="9.198995912502811"><ele>730.0</ele><time>2026-03-29T10:20:47.999Z</time></trkpt><trkpt lat="44.7772110154391" lon="9.19912304959264"><ele>730.0</ele><time>2026-03-29T10:20:48.999Z</time></trkpt><trkpt lat="44.77710969348901" lon="9.199226529763857"><ele>730.0</ele><time>2026-03-29T10:20:49.999Z</time></trkpt><trkpt lat="44.77701146396208" lon="9.199337351217189"><ele>729.25</ele><time>2026-03-29T10:20:50.999Z</time></trkpt><trkpt lat="44.77690930072927" lon="9.199463190673653"><ele>728.5</ele><time>2026-03-29T10:20:51.999Z</time></trkpt><trkpt lat="44.776836991788656" lon="9.19963851369291"><ele>727.75</ele><time>2026-03-29T10:20:52.999Z</time></trkpt><trkpt lat="44.776787746803336" lon="9.199823017504945"><ele>727.0</ele><time>2026-03-29T10:20:53.999Z</time></trkpt><trkpt lat="44.77675143196825" lon="9.199985542177831"><ele>729.0</ele><time>2026-03-29T10:20:54.999Z</time></trkpt><trkpt lat="44.77671913060102" lon="9.200131402073039"><ele>731.0</ele><time>2026-03-29T10:20:55.999Z</time></trkpt><trkpt lat="44.77668383434635" lon="9.200272013889451"><ele>733.0</ele><time>2026-03-29T10:20:56.999Z</time></trkpt><trkpt lat="44.77663565690601" lon="9.20040420370106"><ele>735.0</ele><time>2026-03-29T10:20:57.999Z</time></trkpt><trkpt lat="44.77659552730518" lon="9.200556593733118"><ele>737.0</ele><time>2026-03-29T10:20:58.999Z</time></trkpt><trkpt lat="44.77658433430869" lon="9.200714160318155"><ele>737.0</ele><time>2026-03-29T10:20:59.999Z</time></trkpt><trkpt lat="44.77664401994442" lon="9.200866937224982"><ele>737.0</ele><time>2026-03-29T10:21:00.999Z</time></trkpt><trkpt lat="44.776683038075454" lon="9.201020635627108"><ele>737.0</ele><time>2026-03-29T10:21:01.999Z</time></trkpt><trkpt lat="44.77673712750968" lon="9.201178429619645"><ele>737.0</ele><time>2026-03-29T10:21:02.999Z</time></trkpt><trkpt lat="44.776800687783656" lon="9.20133568057931"><ele>738.5</ele><time>2026-03-29T10:21:03.999Z</time></trkpt><trkpt lat="44.77683895381615" lon="9.201507367050604"><ele>740.0</ele><time>2026-03-29T10:21:04.999Z</time></trkpt><trkpt lat="44.77685952252875" lon="9.20168337689235"><ele>741.5</ele><time>2026-03-29T10:21:05.999Z</time></trkpt><trkpt lat="44.77686551123338" lon="9.201860481518235"><ele>743.0</ele><time>2026-03-29T10:21:06.999Z</time></trkpt><trkpt lat="44.77687603168992" lon="9.20203598415881"><ele>741.75</ele><time>2026-03-29T10:21:07.999Z</time></trkpt><trkpt lat="44.77689622252652" lon="9.202210486361935"><ele>740.5</ele><time>2026-03-29T10:21:08.999Z</time></trkpt><trkpt lat="44.77692142147808" lon="9.202379974056514"><ele>739.25</ele><time>2026-03-29T10:21:09.999Z</time></trkpt><trkpt lat="44.77693535663015" lon="9.202552680947196"><ele>738.0</ele><time>2026-03-29T10:21:10.999Z</time></trkpt><trkpt lat="44.77694191883431" lon="9.202725686133068"><ele>738.0</ele><time>2026-03-29T10:21:11.999Z</time></trkpt><trkpt lat="44.776945862552445" lon="9.202901029945084"><ele>738.0</ele><time>2026-03-29T10:21:12.999Z</time></trkpt><trkpt lat="44.77695030845004" lon="9.203073176134955"><ele>738.0</ele><time>2026-03-29T10:21:13.999Z</time></trkpt><trkpt lat="44.7769418219275" lon="9.203234623622334"><ele>738.0</ele><time>2026-03-29T10:21:14.999Z</time></trkpt><trkpt lat="44.776972537453574" lon="9.20336761867551"><ele>739.6666666666666</ele><time>2026-03-29T10:21:15.999Z</time></trkpt><trkpt lat="44.77700766991923" lon="9.203490138149874"><ele>741.3333333333334</ele><time>2026-03-29T10:21:16.999Z</time></trkpt><trkpt lat="44.77705790312261" lon="9.203599707779315"><ele>743.0</ele><time>2026-03-29T10:21:17.999Z</time></trkpt><trkpt lat="44.77711245451681" lon="9.2036873216911"><ele>744.6666666666667</ele><time>2026-03-29T10:21:18.999Z</time></trkpt><trkpt lat="44.777168389174534" lon="9.203760368017335"><ele>746.3333333333334</ele><time>2026-03-29T10:21:19.999Z</time></trkpt><trkpt lat="44.777216668406105" lon="9.203818884532629"><ele>748.0</ele><time>2026-03-29T10:21:20.999Z</time></trkpt><trkpt lat="44.77728770187772" lon="9.20391488884173"><ele>749.0</ele><time>2026-03-29T10:21:22.999Z</time></trkpt><trkpt lat="44.77732360882092" lon="9.204019917200068"><ele>750.0</ele><time>2026-03-29T10:21:24.999Z</time></trkpt><trkpt lat="44.77732627827797" lon="9.204133200822984"><ele>751.0</ele><time>2026-03-29T10:21:27.999Z</time></trkpt><trkpt lat="44.777304247335" lon="9.204225267359467"><ele>752.0</ele><time>2026-03-29T10:21:31.999Z</time></trkpt><trkpt lat="44.77727735199246" lon="9.20434990827821"><ele>753.0</ele><time>2026-03-29T10:21:37.999Z</time></trkpt><trkpt lat="44.77724825661933" lon="9.20450509773821"><ele>754.0</ele><time>2026-03-29T10:21:39.999Z</time></trkpt><trkpt lat="44.77723124262643" lon="9.20460502126985"><ele>754.0</ele><time>2026-03-29T10:21:41Z</time></trkpt><trkpt lat="44.777214498843094" lon="9.204716799434083"><ele>754.0</ele><time>2026-03-29T10:21:42Z</time></trkpt><trkpt lat="44.777199830473464" lon="9.204828236355485"><ele>754.0</ele><time>2026-03-29T10:21:43Z</time></trkpt><trkpt lat="44.77720188256933" lon="9.20494607421177"><ele>754.0</ele><time>2026-03-29T10:21:44Z</time></trkpt><trkpt lat="44.77717636381916" lon="9.205046071110422"><ele>754.0</ele><time>2026-03-29T10:21:45Z</time></trkpt><trkpt lat="44.77717069346261" lon="9.205137118820726"><ele>754.0</ele><time>2026-03-29T10:21:46Z</time></trkpt><trkpt lat="44.77718470117231" lon="9.205277998726553"><ele>752.4000000000001</ele><time>2026-03-29T10:21:48Z</time></trkpt><trkpt lat="44.77726844370343" lon="9.205372196620825"><ele>750.8</ele><time>2026-03-29T10:21:50Z</time></trkpt><trkpt lat="44.77736240391592" lon="9.205245530222419"><ele>749.2</ele><time>2026-03-29T10:21:51Z</time></trkpt><trkpt lat="44.777416047286025" lon="9.205146797652837"><ele>747.5999999999999</ele><time>2026-03-29T10:21:52Z</time></trkpt><trkpt lat="44.7774862870118" lon="9.205042165700885"><ele>746.0</ele><time>2026-03-29T10:21:53Z</time></trkpt><trkpt lat="44.77757302203808" lon="9.204956386802529"><ele>746.0</ele><time>2026-03-29T10:21:54Z</time></trkpt><trkpt lat="44.777651615789225" lon="9.20488966449958"><ele>746.0</ele><time>2026-03-29T10:21:55Z</time></trkpt><trkpt lat="44.777740679273016" lon="9.204826489545042"><ele>746.0</ele><time>2026-03-29T10:21:56Z</time></trkpt><trkpt lat="44.77783938016462" lon="9.204779513342277"><ele>746.0</ele><time>2026-03-29T10:21:57Z</time></trkpt><trkpt lat="44.77794866661666" lon="9.20475922744632"><ele>746.0</ele><time>2026-03-29T10:21:58Z</time></trkpt><trkpt lat="44.77806023240269" lon="9.204766526774344"><ele>744.8</ele><time>2026-03-29T10:21:59Z</time></trkpt><trkpt lat="44.77816404584789" lon="9.204794331371039"><ele>743.5999999999999</ele><time>2026-03-29T10:22:00Z</time></trkpt><trkpt lat="44.77826031861848" lon="9.204832713058575"><ele>742.4</ele><time>2026-03-29T10:22:01Z</time></trkpt><trkpt lat="44.77835517437573" lon="9.204864836206562"><ele>741.2</ele><time>2026-03-29T10:22:02Z</time></trkpt><trkpt lat="44.778452723816166" lon="9.204870403322303"><ele>740.0</ele><time>2026-03-29T10:22:03Z</time></trkpt><trkpt lat="44.778551411792556" lon="9.204847234078628"><ele>743.75</ele><time>2026-03-29T10:22:04Z</time></trkpt><trkpt lat="44.778654774700115" lon="9.204794007165619"><ele>747.5</ele><time>2026-03-29T10:22:05Z</time></trkpt><trkpt lat="44.77876375128128" lon="9.204721958847129"><ele>751.25</ele><time>2026-03-29T10:22:06Z</time></trkpt><trkpt lat="44.77887626028619" lon="9.20464419135576"><ele>755.0</ele><time>2026-03-29T10:22:07Z</time></trkpt><trkpt lat="44.77899766224856" lon="9.204562999951648"><ele>755.0</ele><time>2026-03-29T10:22:08Z</time></trkpt><trkpt lat="44.77912589248369" lon="9.204478786378942"><ele>755.0</ele><time>2026-03-29T10:22:09Z</time></trkpt><trkpt lat="44.77924234417975" lon="9.204407969971598"><ele>755.0</ele><time>2026-03-29T10:22:10Z</time></trkpt><trkpt lat="44.77935470202848" lon="9.204365065874129"><ele>755.0</ele><time>2026-03-29T10:22:11Z</time></trkpt><trkpt lat="44.77946827683616" lon="9.204356836499537"><ele>755.0</ele><time>2026-03-29T10:22:12Z</time></trkpt><trkpt lat="44.77958456406697" lon="9.204389556263832"><ele>755.0</ele><time>2026-03-29T10:22:13Z</time></trkpt><trkpt lat="44.77968807047143" lon="9.20445599526712"><ele>755.0</ele><time>2026-03-29T10:22:14Z</time></trkpt><trkpt lat="44.77978785673839" lon="9.20451700039847"><ele>755.0</ele><time>2026-03-29T10:22:15Z</time></trkpt><trkpt lat="44.779897588582024" lon="9.20455671601549"><ele>755.0</ele><time>2026-03-29T10:22:16Z</time></trkpt><trkpt lat="44.78001811758004" lon="9.204566138281018"><ele>755.0</ele><time>2026-03-29T10:22:17Z</time></trkpt><trkpt lat="44.78014752866019" lon="9.204549999589236"><ele>755.0</ele><time>2026-03-29T10:22:18Z</time></trkpt><trkpt lat="44.78028307745024" lon="9.20452329892301"><ele>755.0</ele><time>2026-03-29T10:22:19Z</time></trkpt><trkpt lat="44.78042328624223" lon="9.204492800155505"><ele>757.5</ele><time>2026-03-29T10:22:20Z</time></trkpt><trkpt lat="44.78057017223713" lon="9.204473396473855"><ele>760.0</ele><time>2026-03-29T10:22:21Z</time></trkpt><trkpt lat="44.78071867600108" lon="9.204440518880238"><ele>762.5</ele><time>2026-03-29T10:22:22Z</time></trkpt><trkpt lat="44.78086867461633" lon="9.20442934468124"><ele>765.0</ele><time>2026-03-29T10:22:23Z</time></trkpt><trkpt lat="44.781014418390036" lon="9.20443872040353"><ele>768.6666666666667</ele><time>2026-03-29T10:22:24Z</time></trkpt><trkpt lat="44.78115808425538" lon="9.204452568240383"><ele>772.3333333333334</ele><time>2026-03-29T10:22:25Z</time></trkpt><trkpt lat="44.78130553858944" lon="9.204438771633237"><ele>776.0</ele><time>2026-03-29T10:22:26Z</time></trkpt><trkpt lat="44.78148441046061" lon="9.204436839201422"><ele>776.0</ele><time>2026-03-29T10:22:27Z</time></trkpt><trkpt lat="44.78163966578881" lon="9.204473147835918"><ele>776.0</ele><time>2026-03-29T10:22:28Z</time></trkpt><trkpt lat="44.78179180819485" lon="9.204509501277762"><ele>776.0</ele><time>2026-03-29T10:22:29Z</time></trkpt><trkpt lat="44.7819330596864" lon="9.20454397289051"><ele>777.75</ele><time>2026-03-29T10:22:30Z</time></trkpt><trkpt lat="44.78206437686784" lon="9.204600321232125"><ele>779.5</ele><time>2026-03-29T10:22:31Z</time></trkpt><trkpt lat="44.78219906231829" lon="9.204679892758493"><ele>781.25</ele><time>2026-03-29T10:22:32Z</time></trkpt><trkpt lat="44.7823368093624" lon="9.204772632785838"><ele>783.0</ele><time>2026-03-29T10:22:33Z</time></trkpt><trkpt lat="44.78248123277872" lon="9.204848887533927"><ele>779.0</ele><time>2026-03-29T10:22:34Z</time></trkpt><trkpt lat="44.78260866269736" lon="9.204942247413644"><ele>775.0</ele><time>2026-03-29T10:22:35Z</time></trkpt><trkpt lat="44.78272260984202" lon="9.205010858345602"><ele>771.0</ele><time>2026-03-29T10:22:36Z</time></trkpt><trkpt lat="44.7828378527322" lon="9.205063375091656"><ele>767.0</ele><time>2026-03-29T10:22:37Z</time></trkpt><trkpt lat="44.782944106012174" lon="9.205090588518974"><ele>767.0</ele><time>2026-03-29T10:22:38Z</time></trkpt><trkpt lat="44.78305180598174" lon="9.205074058515462"><ele>767.0</ele><time>2026-03-29T10:22:39Z</time></trkpt><trkpt lat="44.78317293625821" lon="9.20500526275178"><ele>767.0</ele><time>2026-03-29T10:22:40Z</time></trkpt><trkpt lat="44.78331079368606" lon="9.204971393397477"><ele>767.0</ele><time>2026-03-29T10:22:41Z</time></trkpt><trkpt lat="44.78346209442428" lon="9.204973614309528"><ele>767.0</ele><time>2026-03-29T10:22:42Z</time></trkpt><trkpt lat="44.78360853189007" lon="9.204984366295612"><ele>767.0</ele><time>2026-03-29T10:22:43Z</time></trkpt><trkpt lat="44.783736457904794" lon="9.204977442430852"><ele>767.0</ele><time>2026-03-29T10:22:44Z</time></trkpt><trkpt lat="44.78385065382615" lon="9.204981004725438"><ele>767.0</ele><time>2026-03-29T10:22:45Z</time></trkpt><trkpt lat="44.78395249666851" lon="9.205028576997801"><ele>767.0</ele><time>2026-03-29T10:22:46Z</time></trkpt><trkpt lat="44.78402587288582" lon="9.205126630974089"><ele>767.0</ele><time>2026-03-29T10:22:47Z</time></trkpt><trkpt lat="44.78410946552402" lon="9.205202738925442"><ele>767.0</ele><time>2026-03-29T10:22:48Z</time></trkpt><trkpt lat="44.78420884369491" lon="9.205232855158261"><ele>767.0</ele><time>2026-03-29T10:22:49Z</time></trkpt><trkpt lat="44.78433153162161" lon="9.205231920111625"><ele>767.0</ele><time>2026-03-29T10:22:50Z</time></trkpt><trkpt lat="44.78446882625503" lon="9.205187446362665"><ele>766.5</ele><time>2026-03-29T10:22:50.999Z</time></trkpt><trkpt lat="44.78460673510128" lon="9.205126459027166"><ele>766.0</ele><time>2026-03-29T10:22:51.999Z</time></trkpt><trkpt lat="44.784739116175544" lon="9.205065816928787"><ele>765.5</ele><time>2026-03-29T10:22:52.999Z</time></trkpt><trkpt lat="44.784864978033646" lon="9.205043192974193"><ele>765.0</ele><time>2026-03-29T10:22:53.999Z</time></trkpt><trkpt lat="44.78497095343052" lon="9.205007882075712"><ele>765.0</ele><time>2026-03-29T10:22:54.999Z</time></trkpt><trkpt lat="44.78505492989773" lon="9.204981938081419"><ele>765.0</ele><time>2026-03-29T10:22:55.999Z</time></trkpt><trkpt lat="44.78512399237375" lon="9.204953096263157"><ele>765.0</ele><time>2026-03-29T10:22:56.999Z</time></trkpt><trkpt lat="44.785188618587995" lon="9.204982188781875"><ele>765.0</ele><time>2026-03-29T10:22:57.999Z</time></trkpt><trkpt lat="44.785232668544126" lon="9.205054822414029"><ele>765.0</ele><time>2026-03-29T10:22:58.999Z</time></trkpt><trkpt lat="44.78524178057842" lon="9.205165484673321"><ele>765.0</ele><time>2026-03-29T10:22:59.999Z</time></trkpt><trkpt lat="44.785195063624265" lon="9.205271168119278"><ele>765.0</ele><time>2026-03-29T10:23:00.999Z</time></trkpt><trkpt lat="44.78516764900911" lon="9.205389256187539"><ele>765.0</ele><time>2026-03-29T10:23:01.999Z</time></trkpt><trkpt lat="44.7851394494406" lon="9.205514147970097"><ele>765.0</ele><time>2026-03-29T10:23:02.999Z</time></trkpt><trkpt lat="44.785129415734296" lon="9.205655554304252"><ele>765.0</ele><time>2026-03-29T10:23:03.999Z</time></trkpt><trkpt lat="44.78513945226712" lon="9.20579683132072"><ele>765.0</ele><time>2026-03-29T10:23:04.999Z</time></trkpt><trkpt lat="44.7851653637042" lon="9.205925140783096"><ele>763.5</ele><time>2026-03-29T10:23:05.999Z</time></trkpt><trkpt lat="44.78521891065155" lon="9.206038057277446"><ele>762.0</ele><time>2026-03-29T10:23:06.999Z</time></trkpt><trkpt lat="44.78530789156592" lon="9.206128621745085"><ele>760.5</ele><time>2026-03-29T10:23:07.999Z</time></trkpt><trkpt lat="44.78541653197047" lon="9.206193608288736"><ele>759.0</ele><time>2026-03-29T10:23:08.999Z</time></trkpt><trkpt lat="44.785545924988476" lon="9.206231198942598"><ele>759.0</ele><time>2026-03-29T10:23:09.999Z</time></trkpt><trkpt lat="44.78568094120565" lon="9.206259462182487"><ele>759.0</ele><time>2026-03-29T10:23:10.999Z</time></trkpt><trkpt lat="44.785813898047216" lon="9.206295115046254"><ele>759.0</ele><time>2026-03-29T10:23:11.999Z</time></trkpt><trkpt lat="44.78592478883061" lon="9.206369664329603"><ele>759.0</ele><time>2026-03-29T10:23:12.999Z</time></trkpt><trkpt lat="44.78603256605953" lon="9.206413696695869"><ele>758.0</ele><time>2026-03-29T10:23:13.999Z</time></trkpt><trkpt lat="44.78613274988493" lon="9.206463070141123"><ele>757.0</ele><time>2026-03-29T10:23:14.999Z</time></trkpt><trkpt lat="44.786243244839845" lon="9.20647126903621"><ele>756.0</ele><time>2026-03-29T10:23:15.999Z</time></trkpt><trkpt lat="44.786366926606036" lon="9.20644148463971"><ele>755.0</ele><time>2026-03-29T10:23:16.999Z</time></trkpt><trkpt lat="44.78649382921681" lon="9.206379115334048"><ele>755.0</ele><time>2026-03-29T10:23:17.999Z</time></trkpt><trkpt lat="44.78661770922508" lon="9.20629153344708"><ele>755.0</ele><time>2026-03-29T10:23:18.999Z</time></trkpt><trkpt lat="44.78673887984795" lon="9.206206958713494"><ele>755.0</ele><time>2026-03-29T10:23:19.999Z</time></trkpt><trkpt lat="44.786876904783135" lon="9.206217727307141"><ele>755.0</ele><time>2026-03-29T10:23:20.999Z</time></trkpt><trkpt lat="44.78703801252572" lon="9.206208226819621"><ele>751.6666666666666</ele><time>2026-03-29T10:23:21.999Z</time></trkpt><trkpt lat="44.78720100974433" lon="9.206171509764193"><ele>748.3333333333334</ele><time>2026-03-29T10:23:22.999Z</time></trkpt><trkpt lat="44.78736607911508" lon="9.206144295002495"><ele>745.0</ele><time>2026-03-29T10:23:23.999Z</time></trkpt><trkpt lat="44.787540290715626" lon="9.206108441082572"><ele>742.6666666666667</ele><time>2026-03-29T10:23:24.999Z</time></trkpt><trkpt lat="44.78772615084268" lon="9.206082054747972"><ele>740.3333333333334</ele><time>2026-03-29T10:23:25.999Z</time></trkpt><trkpt lat="44.78791361764805" lon="9.206050883700657"><ele>738.0</ele><time>2026-03-29T10:23:26.999Z</time></trkpt><trkpt lat="44.7881039340963" lon="9.20601873446525"><ele>738.0</ele><time>2026-03-29T10:23:27.999Z</time></trkpt><trkpt lat="44.78829362826394" lon="9.205979302112048"><ele>738.0</ele><time>2026-03-29T10:23:28.999Z</time></trkpt><trkpt lat="44.78847993085338" lon="9.205932678322373"><ele>738.0</ele><time>2026-03-29T10:23:29.999Z</time></trkpt><trkpt lat="44.788661848973156" lon="9.205892347652377"><ele>737.6666666666666</ele><time>2026-03-29T10:23:30.999Z</time></trkpt><trkpt lat="44.788827968253415" lon="9.205860492380522"><ele>737.3333333333333</ele><time>2026-03-29T10:23:31.999Z</time></trkpt><trkpt lat="44.78897995550425" lon="9.205829129092157"><ele>737.0</ele><time>2026-03-29T10:23:32.999Z</time></trkpt><trkpt lat="44.789126372750175" lon="9.20582865902361"><ele>737.0</ele><time>2026-03-29T10:23:33.999Z</time></trkpt><trkpt lat="44.78927230331862" lon="9.205829059687138"><ele>737.0</ele><time>2026-03-29T10:23:34.999Z</time></trkpt><trkpt lat="44.78941694261138" lon="9.20583523508186"><ele>737.0</ele><time>2026-03-29T10:23:35.999Z</time></trkpt><trkpt lat="44.78956561474901" lon="9.205886779829717"><ele>737.0</ele><time>2026-03-29T10:23:36.999Z</time></trkpt><trkpt lat="44.78971676516845" lon="9.205953483007264"><ele>736.6666666666666</ele><time>2026-03-29T10:23:37.999Z</time></trkpt><trkpt lat="44.78987351086809" lon="9.206018391004738"><ele>736.3333333333334</ele><time>2026-03-29T10:23:38.999Z</time></trkpt><trkpt lat="44.79002612125232" lon="9.206061790814664"><ele>736.0</ele><time>2026-03-29T10:23:39.999Z</time></trkpt><trkpt lat="44.79016841603544" lon="9.206089320200562"><ele>731.5</ele><time>2026-03-29T10:23:40.999Z</time></trkpt><trkpt lat="44.790301769521434" lon="9.206103824900113"><ele>727.0</ele><time>2026-03-29T10:23:41.999Z</time></trkpt><trkpt lat="44.79042744314572" lon="9.20612968912648"><ele>722.5</ele><time>2026-03-29T10:23:42.999Z</time></trkpt><trkpt lat="44.79053687064013" lon="9.206210888036054"><ele>718.0</ele><time>2026-03-29T10:23:43.999Z</time></trkpt><trkpt lat="44.79065971209193" lon="9.206281963999274"><ele>718.0</ele><time>2026-03-29T10:23:44.999Z</time></trkpt><trkpt lat="44.79077553857081" lon="9.206400848123389"><ele>718.0</ele><time>2026-03-29T10:23:45.999Z</time></trkpt><trkpt lat="44.790897470626895" lon="9.206510965810596"><ele>718.0</ele><time>2026-03-29T10:23:47Z</time></trkpt><trkpt lat="44.79102477804799" lon="9.206595241311685"><ele>718.0</ele><time>2026-03-29T10:23:48Z</time></trkpt><trkpt lat="44.79116508771912" lon="9.206638486770013"><ele>720.6666666666667</ele><time>2026-03-29T10:23:49Z</time></trkpt><trkpt lat="44.79131635503314" lon="9.2066509665392"><ele>723.3333333333334</ele><time>2026-03-29T10:23:50Z</time></trkpt><trkpt lat="44.79147996559929" lon="9.206645908850778"><ele>726.0</ele><time>2026-03-29T10:23:51Z</time></trkpt><trkpt lat="44.79164967212129" lon="9.20663782586025"><ele>726.0</ele><time>2026-03-29T10:23:52Z</time></trkpt><trkpt lat="44.79182499857899" lon="9.206626949608346"><ele>726.0</ele><time>2026-03-29T10:23:53Z</time></trkpt><trkpt lat="44.79200431913244" lon="9.206617422585339"><ele>726.0</ele><time>2026-03-29T10:23:54Z</time></trkpt><trkpt lat="44.79218487230634" lon="9.206608460269697"><ele>727.3333333333334</ele><time>2026-03-29T10:23:55Z</time></trkpt><trkpt lat="44.79236492632627" lon="9.206601892959261"><ele>728.6666666666667</ele><time>2026-03-29T10:23:56Z</time></trkpt><trkpt lat="44.79254281881416" lon="9.206596487553766"><ele>730.0</ele><time>2026-03-29T10:23:57Z</time></trkpt><trkpt lat="44.79271808027391" lon="9.206591782390987"><ele>731.3333333333334</ele><time>2026-03-29T10:23:58Z</time></trkpt><trkpt lat="44.79288814220589" lon="9.206579460738764"><ele>732.6666666666666</ele><time>2026-03-29T10:23:59Z</time></trkpt><trkpt lat="44.793058121225265" lon="9.206558249054947"><ele>734.0</ele><time>2026-03-29T10:24:00Z</time></trkpt><trkpt lat="44.79322060763645" lon="9.206529731409649"><ele>734.0</ele><time>2026-03-29T10:24:01Z</time></trkpt><trkpt lat="44.793374170539906" lon="9.206525098748942"><ele>734.0</ele><time>2026-03-29T10:24:02Z</time></trkpt><trkpt lat="44.79350889730904" lon="9.206504737437037"><ele>734.0</ele><time>2026-03-29T10:24:03Z</time></trkpt><trkpt lat="44.793642855282535" lon="9.20650416094303"><ele>734.0</ele><time>2026-03-29T10:24:04Z</time></trkpt><trkpt lat="44.79377478197297" lon="9.206558725214022"><ele>736.3333333333333</ele><time>2026-03-29T10:24:05Z</time></trkpt><trkpt lat="44.79391128297948" lon="9.206641795316662"><ele>738.6666666666666</ele><time>2026-03-29T10:24:06Z</time></trkpt><trkpt lat="44.794052581058004" lon="9.20671687623044"><ele>741.0</ele><time>2026-03-29T10:24:07Z</time></trkpt><trkpt lat="44.79418151686653" lon="9.20683136880031"><ele>741.0</ele><time>2026-03-29T10:24:08Z</time></trkpt><trkpt lat="44.794307484289554" lon="9.206935032237704"><ele>741.0</ele><time>2026-03-29T10:24:09Z</time></trkpt><trkpt lat="44.79443146957598" lon="9.207034699272603"><ele>741.0</ele><time>2026-03-29T10:24:10Z</time></trkpt><trkpt lat="44.794556424937184" lon="9.207114081872557"><ele>741.0</ele><time>2026-03-29T10:24:11Z</time></trkpt><trkpt lat="44.79468617205599" lon="9.207155952178578"><ele>743.75</ele><time>2026-03-29T10:24:12Z</time></trkpt><trkpt lat="44.794798733510895" lon="9.207243444102382"><ele>746.5</ele><time>2026-03-29T10:24:13Z</time></trkpt><trkpt lat="44.79489738490424" lon="9.207340257557407"><ele>749.25</ele><time>2026-03-29T10:24:14Z</time></trkpt><trkpt lat="44.79494915222597" lon="9.207478830590839"><ele>752.0</ele><time>2026-03-29T10:24:15Z</time></trkpt><trkpt lat="44.79496737155952" lon="9.207629118904467"><ele>753.2</ele><time>2026-03-29T10:24:16Z</time></trkpt><trkpt lat="44.79500245755135" lon="9.207752103565984"><ele>754.4000000000001</ele><time>2026-03-29T10:24:17Z</time></trkpt><trkpt lat="44.795032499023584" lon="9.207838424555117"><ele>755.5999999999999</ele><time>2026-03-29T10:24:18Z</time></trkpt><trkpt lat="44.79509390413327" lon="9.20787474463878"><ele>756.8</ele><time>2026-03-29T10:24:19Z</time></trkpt><trkpt lat="44.79521432951855" lon="9.207762297302018"><ele>758.0</ele><time>2026-03-29T10:24:21Z</time></trkpt><trkpt lat="44.7951948062735" lon="9.207596758438113"><ele>758.0</ele><time>2026-03-29T10:24:22Z</time></trkpt><trkpt lat="44.795161092726985" lon="9.207432747115197"><ele>758.0</ele><time>2026-03-29T10:24:23Z</time></trkpt><trkpt lat="44.79515918006196" lon="9.207274180125694"><ele>758.0</ele><time>2026-03-29T10:24:24Z</time></trkpt><trkpt lat="44.79518698498685" lon="9.207152701208678"><ele>758.0</ele><time>2026-03-29T10:24:25Z</time></trkpt><trkpt lat="44.79522194942089" lon="9.207060824510815"><ele>758.0</ele><time>2026-03-29T10:24:26Z</time></trkpt><trkpt lat="44.79530402420065" lon="9.20704333950888"><ele>761.0</ele><time>2026-03-29T10:24:27Z</time></trkpt><trkpt lat="44.79540335332258" lon="9.207062984924331"><ele>764.0</ele><time>2026-03-29T10:24:28Z</time></trkpt><trkpt lat="44.795515436540114" lon="9.207061199041464"><ele>767.0</ele><time>2026-03-29T10:24:29Z</time></trkpt><trkpt lat="44.795636027417615" lon="9.207020475919453"><ele>770.0</ele><time>2026-03-29T10:24:30Z</time></trkpt><trkpt lat="44.79576397151319" lon="9.20694410126266"><ele>770.0</ele><time>2026-03-29T10:24:31Z</time></trkpt><trkpt lat="44.79589769698041" lon="9.20687098836175"><ele>770.0</ele><time>2026-03-29T10:24:32Z</time></trkpt><trkpt lat="44.79602836714081" lon="9.206817574539686"><ele>770.0</ele><time>2026-03-29T10:24:33Z</time></trkpt><trkpt lat="44.796143312318144" lon="9.206806569933496"><ele>770.0</ele><time>2026-03-29T10:24:34Z</time></trkpt><trkpt lat="44.7962353144189" lon="9.206810844918051"><ele>771.6</ele><time>2026-03-29T10:24:35Z</time></trkpt><trkpt lat="44.79632408824989" lon="9.20685326451267"><ele>773.2</ele><time>2026-03-29T10:24:36Z</time></trkpt><trkpt lat="44.796425920906856" lon="9.206909793283357"><ele>774.8</ele><time>2026-03-29T10:24:37Z</time></trkpt><trkpt lat="44.7965284297058" lon="9.206985490005264"><ele>776.4</ele><time>2026-03-29T10:24:38Z</time></trkpt><trkpt lat="44.79663244367493" lon="9.207024774185983"><ele>778.0</ele><time>2026-03-29T10:24:39Z</time></trkpt><trkpt lat="44.79672765407514" lon="9.20703993109748"><ele>778.0</ele><time>2026-03-29T10:24:40Z</time></trkpt><trkpt lat="44.79681724984449" lon="9.207018777890694"><ele>778.0</ele><time>2026-03-29T10:24:41Z</time></trkpt><trkpt lat="44.79690679076865" lon="9.206968729870688"><ele>778.0</ele><time>2026-03-29T10:24:42Z</time></trkpt><trkpt lat="44.79699739023419" lon="9.206879720045784"><ele>778.0</ele><time>2026-03-29T10:24:43Z</time></trkpt><trkpt lat="44.79709374672209" lon="9.206773169809173"><ele>778.0</ele><time>2026-03-29T10:24:44Z</time></trkpt><trkpt lat="44.79721027384315" lon="9.206721863947795"><ele>777.4</ele><time>2026-03-29T10:24:45Z</time></trkpt><trkpt lat="44.79732898120476" lon="9.206683035601783"><ele>776.8</ele><time>2026-03-29T10:24:46Z</time></trkpt><trkpt lat="44.797439715512525" lon="9.206673252397898"><ele>776.2</ele><time>2026-03-29T10:24:47Z</time></trkpt><trkpt lat="44.79753685127231" lon="9.206650208290476"><ele>775.6</ele><time>2026-03-29T10:24:48Z</time></trkpt><trkpt lat="44.797620471787624" lon="9.206632777660998"><ele>775.0</ele><time>2026-03-29T10:24:49Z</time></trkpt><trkpt lat="44.797681525429994" lon="9.206565740460743"><ele>775.2</ele><time>2026-03-29T10:24:50Z</time></trkpt><trkpt lat="44.79772475519049" lon="9.20645866969351"><ele>775.4</ele><time>2026-03-29T10:24:51Z</time></trkpt><trkpt lat="44.797751436782306" lon="9.206344276832919"><ele>775.5999999999999</ele><time>2026-03-29T10:24:52Z</time></trkpt><trkpt lat="44.797693611332036" lon="9.206210485881833"><ele>775.8</ele><time>2026-03-29T10:24:53Z</time></trkpt><trkpt lat="44.79763009445051" lon="9.206097736956199"><ele>776.0</ele><time>2026-03-29T10:24:54Z</time></trkpt><trkpt lat="44.79761040652079" lon="9.205965133540417"><ele>776.0</ele><time>2026-03-29T10:24:55Z</time></trkpt><trkpt lat="44.79760119772938" lon="9.205845172134266"><ele>776.0</ele><time>2026-03-29T10:24:56Z</time></trkpt><trkpt lat="44.79761125547364" lon="9.205733141658301"><ele>776.0</ele><time>2026-03-29T10:24:57Z</time></trkpt><trkpt lat="44.797686137169926" lon="9.205674755543344"><ele>776.0</ele><time>2026-03-29T10:24:58Z</time></trkpt><trkpt lat="44.79778242636327" lon="9.205662767408038"><ele>776.0</ele><time>2026-03-29T10:24:59Z</time></trkpt><trkpt lat="44.797889465960594" lon="9.205649354948765"><ele>774.4</ele><time>2026-03-29T10:25:00Z</time></trkpt><trkpt lat="44.797987111343666" lon="9.205630631667194"><ele>772.8</ele><time>2026-03-29T10:25:01Z</time></trkpt><trkpt lat="44.798083293825144" lon="9.205586112107989"><ele>771.1999999999999</ele><time>2026-03-29T10:25:01.999Z</time></trkpt><trkpt lat="44.79816868555228" lon="9.205527194104901"><ele>769.5999999999999</ele><time>2026-03-29T10:25:02.999Z</time></trkpt><trkpt lat="44.79826270808975" lon="9.20550827684904"><ele>768.0</ele><time>2026-03-29T10:25:03.999Z</time></trkpt><trkpt lat="44.79836164690723" lon="9.20554873687299"><ele>768.0</ele><time>2026-03-29T10:25:04.999Z</time></trkpt><trkpt lat="44.798458315738046" lon="9.205586342569319"><ele>768.0</ele><time>2026-03-29T10:25:05.999Z</time></trkpt><trkpt lat="44.79855335827487" lon="9.205596988045805"><ele>768.0</ele><time>2026-03-29T10:25:06.999Z</time></trkpt><trkpt lat="44.798644709600076" lon="9.20555868348437"><ele>768.0</ele><time>2026-03-29T10:25:07.999Z</time></trkpt><trkpt lat="44.79872379767942" lon="9.205479554323698"><ele>768.0</ele><time>2026-03-29T10:25:08.999Z</time></trkpt><trkpt lat="44.798787650854436" lon="9.205356379720556"><ele>765.4</ele><time>2026-03-29T10:25:09.999Z</time></trkpt><trkpt lat="44.79884293952108" lon="9.205231546600869"><ele>762.8</ele><time>2026-03-29T10:25:10.999Z</time></trkpt><trkpt lat="44.798907209103575" lon="9.205127141665443"><ele>760.2</ele><time>2026-03-29T10:25:11.999Z</time></trkpt><trkpt lat="44.79898176739673" lon="9.205023280201575"><ele>757.6</ele><time>2026-03-29T10:25:12.999Z</time></trkpt><trkpt lat="44.79905969575664" lon="9.204899476534802"><ele>755.0</ele><time>2026-03-29T10:25:13.999Z</time></trkpt><trkpt lat="44.79912525558001" lon="9.204755030579276"><ele>755.0</ele><time>2026-03-29T10:25:14.999Z</time></trkpt><trkpt lat="44.79917968463905" lon="9.20461216530335"><ele>755.0</ele><time>2026-03-29T10:25:15.999Z</time></trkpt><trkpt lat="44.7992312454944" lon="9.20447943525099"><ele>755.0</ele><time>2026-03-29T10:25:16.999Z</time></trkpt><trkpt lat="44.7992675708537" lon="9.204351689922172"><ele>755.0</ele><time>2026-03-29T10:25:17.999Z</time></trkpt><trkpt lat="44.79927076566208" lon="9.204207307955828"><ele>755.0</ele><time>2026-03-29T10:25:18.999Z</time></trkpt><trkpt lat="44.799251731666274" lon="9.204047339470172"><ele>752.0</ele><time>2026-03-29T10:25:19.999Z</time></trkpt><trkpt lat="44.79924204187824" lon="9.203884919429955"><ele>749.0</ele><time>2026-03-29T10:25:20.999Z</time></trkpt><trkpt lat="44.79921621838018" lon="9.203749648624196"><ele>746.0</ele><time>2026-03-29T10:25:21.999Z</time></trkpt><trkpt lat="44.79919548092187" lon="9.203636272971599"><ele>743.0</ele><time>2026-03-29T10:25:22.999Z</time></trkpt><trkpt lat="44.79918375127682" lon="9.203548536929587"><ele>740.0</ele><time>2026-03-29T10:25:23.999Z</time></trkpt><trkpt lat="44.79922131138564" lon="9.20347486357441"><ele>737.0</ele><time>2026-03-29T10:25:24.999Z</time></trkpt><trkpt lat="44.79929604934323" lon="9.203444148849334"><ele>736.6666666666666</ele><time>2026-03-29T10:25:25.999Z</time></trkpt><trkpt lat="44.79937204451011" lon="9.203464409075423"><ele>736.3333333333333</ele><time>2026-03-29T10:25:26.999Z</time></trkpt><trkpt lat="44.799442012941725" lon="9.203531407052493"><ele>736.0</ele><time>2026-03-29T10:25:27.999Z</time></trkpt><trkpt lat="44.79949715757409" lon="9.203637498117267"><ele>735.6666666666666</ele><time>2026-03-29T10:25:28.999Z</time></trkpt><trkpt lat="44.799525251548936" lon="9.203753227451028"><ele>735.3333333333334</ele><time>2026-03-29T10:25:29.999Z</time></trkpt><trkpt lat="44.79955751050871" lon="9.203850730400116"><ele>735.0</ele><time>2026-03-29T10:25:30.999Z</time></trkpt><trkpt lat="44.7996059883651" lon="9.203916159315044"><ele>735.0</ele><time>2026-03-29T10:25:31.999Z</time></trkpt><trkpt lat="44.79971834342711" lon="9.203883244752152"><ele>735.0</ele><time>2026-03-29T10:25:33.999Z</time></trkpt><trkpt lat="44.79975210099939" lon="9.203786695595698"><ele>735.0</ele><time>2026-03-29T10:25:34.999Z</time></trkpt><trkpt lat="44.799759919446664" lon="9.203654282714453"><ele>735.0</ele><time>2026-03-29T10:25:35.999Z</time></trkpt><trkpt lat="44.799775841270794" lon="9.203505776505844"><ele>735.0</ele><time>2026-03-29T10:25:36.999Z</time></trkpt><trkpt lat="44.79978061649832" lon="9.203345359848978"><ele>735.0</ele><time>2026-03-29T10:25:37.999Z</time></trkpt><trkpt lat="44.79978389300091" lon="9.203186787766755"><ele>735.0</ele><time>2026-03-29T10:25:38.999Z</time></trkpt><trkpt lat="44.799783441145294" lon="9.203039699769157"><ele>735.0</ele><time>2026-03-29T10:25:39.999Z</time></trkpt><trkpt lat="44.79978243531872" lon="9.20291828671317"><ele>735.0</ele><time>2026-03-29T10:25:40.999Z</time></trkpt><trkpt lat="44.79979148390432" lon="9.202822924032859"><ele>735.0</ele><time>2026-03-29T10:25:41.999Z</time></trkpt><trkpt lat="44.79987654086632" lon="9.202738055875594"><ele>735.0</ele><time>2026-03-29T10:25:43.999Z</time></trkpt><trkpt lat="44.799945436095456" lon="9.202773636955216"><ele>735.0</ele><time>2026-03-29T10:25:44.999Z</time></trkpt><trkpt lat="44.79999302613415" lon="9.202855996157222"><ele>735.0</ele><time>2026-03-29T10:25:45.999Z</time></trkpt><trkpt lat="44.800031743488404" lon="9.202969177439261"><ele>735.0</ele><time>2026-03-29T10:25:46.999Z</time></trkpt><trkpt lat="44.80008008272161" lon="9.203091610376715"><ele>735.0</ele><time>2026-03-29T10:25:47.999Z</time></trkpt><trkpt lat="44.800142964024126" lon="9.203210303219718"><ele>735.0</ele><time>2026-03-29T10:25:48.999Z</time></trkpt><trkpt lat="44.800221321750115" lon="9.203320235038676"><ele>731.0</ele><time>2026-03-29T10:25:49.999Z</time></trkpt><trkpt lat="44.80030045572087" lon="9.203413900732915"><ele>727.0</ele><time>2026-03-29T10:25:50.999Z</time></trkpt><trkpt lat="44.800372553913775" lon="9.203514133602809"><ele>723.0</ele><time>2026-03-29T10:25:52.001Z</time></trkpt><trkpt lat="44.800422190820456" lon="9.203635881193907"><ele>719.0</ele><time>2026-03-29T10:25:53.001Z</time></trkpt><trkpt lat="44.800448734509935" lon="9.203774692905789"><ele>715.0</ele><time>2026-03-29T10:25:54.001Z</time></trkpt><trkpt lat="44.80044561091884" lon="9.20390279261562"><ele>715.0</ele><time>2026-03-29T10:25:55.001Z</time></trkpt><trkpt lat="44.80043188985405" lon="9.20400608098662"><ele>715.0</ele><time>2026-03-29T10:25:56.001Z</time></trkpt><trkpt lat="44.800471174633394" lon="9.204155801208305"><ele>715.0</ele><time>2026-03-29T10:25:58.001Z</time></trkpt><trkpt lat="44.800531808650334" lon="9.204181611652547"><ele>715.0</ele><time>2026-03-29T10:25:59.001Z</time></trkpt><trkpt lat="44.8006050709161" lon="9.20415285181343"><ele>715.0</ele><time>2026-03-29T10:26:00.001Z</time></trkpt><trkpt lat="44.80067338789052" lon="9.204060060937994"><ele>715.0</ele><time>2026-03-29T10:26:01.001Z</time></trkpt><trkpt lat="44.8007388381563" lon="9.20393517129968"><ele>715.0</ele><time>2026-03-29T10:26:02.001Z</time></trkpt><trkpt lat="44.80078510017642" lon="9.203782776953318"><ele>715.0</ele><time>2026-03-29T10:26:03.001Z</time></trkpt><trkpt lat="44.80080771098227" lon="9.203594619936133"><ele>715.0</ele><time>2026-03-29T10:26:04.001Z</time></trkpt><trkpt lat="44.80084300386239" lon="9.203391243463992"><ele>715.0</ele><time>2026-03-29T10:26:05.001Z</time></trkpt><trkpt lat="44.800861505176705" lon="9.203177171254252"><ele>714.75</ele><time>2026-03-29T10:26:06.001Z</time></trkpt><trkpt lat="44.80087996676828" lon="9.202966494284762"><ele>714.5</ele><time>2026-03-29T10:26:07.001Z</time></trkpt><trkpt lat="44.80091400095444" lon="9.202770660593693"><ele>714.25</ele><time>2026-03-29T10:26:08Z</time></trkpt><trkpt lat="44.80098341091966" lon="9.2025862573647"><ele>714.0</ele><time>2026-03-29T10:26:09Z</time></trkpt><trkpt lat="44.80102315931912" lon="9.202386169955108"><ele>709.0</ele><time>2026-03-29T10:26:10Z</time></trkpt><trkpt lat="44.80104518113038" lon="9.202176701641138"><ele>704.0</ele><time>2026-03-29T10:26:11Z</time></trkpt><trkpt lat="44.80107925627349" lon="9.201983297301247"><ele>699.0</ele><time>2026-03-29T10:26:12Z</time></trkpt><trkpt lat="44.80112574669016" lon="9.201797503899316"><ele>694.0</ele><time>2026-03-29T10:26:13Z</time></trkpt><trkpt lat="44.801183550886634" lon="9.201622107652232"><ele>695.5</ele><time>2026-03-29T10:26:14Z</time></trkpt><trkpt lat="44.80126170526742" lon="9.20147468092926"><ele>697.0</ele><time>2026-03-29T10:26:15Z</time></trkpt><trkpt lat="44.80134737314357" lon="9.201318665576084"><ele>698.5</ele><time>2026-03-29T10:26:16Z</time></trkpt><trkpt lat="44.801457509301684" lon="9.201195999015344"><ele>700.0</ele><time>2026-03-29T10:26:17Z</time></trkpt><trkpt lat="44.801559471455306" lon="9.201077751059934"><ele>700.0</ele><time>2026-03-29T10:26:18Z</time></trkpt><trkpt lat="44.80165424411696" lon="9.200966734522837"><ele>700.0</ele><time>2026-03-29T10:26:19Z</time></trkpt><trkpt lat="44.801734566375266" lon="9.200838913053593"><ele>700.0</ele><time>2026-03-29T10:26:20Z</time></trkpt><trkpt lat="44.801796093048175" lon="9.200688404521657"><ele>700.0</ele><time>2026-03-29T10:26:21Z</time></trkpt><trkpt lat="44.80184444549548" lon="9.200523048542898"><ele>691.75</ele><time>2026-03-29T10:26:22Z</time></trkpt><trkpt lat="44.80188020868935" lon="9.20033610935574"><ele>683.5</ele><time>2026-03-29T10:26:23Z</time></trkpt><trkpt lat="44.801904900685784" lon="9.200132589582712"><ele>675.25</ele><time>2026-03-29T10:26:24Z</time></trkpt><trkpt lat="44.801927743817764" lon="9.199922585769492"><ele>667.0</ele><time>2026-03-29T10:26:25Z</time></trkpt><trkpt lat="44.801975008427014" lon="9.19972527098976"><ele>666.75</ele><time>2026-03-29T10:26:26Z</time></trkpt><trkpt lat="44.80199116004279" lon="9.199527426242893"><ele>666.5</ele><time>2026-03-29T10:26:27Z</time></trkpt><trkpt lat="44.80202076881905" lon="9.199341732331332"><ele>666.25</ele><time>2026-03-29T10:26:28Z</time></trkpt><trkpt lat="44.80204084830481" lon="9.199167363889305"><ele>666.0</ele><time>2026-03-29T10:26:29Z</time></trkpt><trkpt lat="44.80204161605266" lon="9.198997316545087"><ele>665.25</ele><time>2026-03-29T10:26:30Z</time></trkpt><trkpt lat="44.80201585053951" lon="9.198827573378777"><ele>664.5</ele><time>2026-03-29T10:26:31Z</time></trkpt><trkpt lat="44.80196979497708" lon="9.198655837111152"><ele>663.75</ele><time>2026-03-29T10:26:32Z</time></trkpt><trkpt lat="44.80189841474867" lon="9.198487672301782"><ele>663.0</ele><time>2026-03-29T10:26:33Z</time></trkpt><trkpt lat="44.801820397728825" lon="9.198335441467481"><ele>665.4</ele><time>2026-03-29T10:26:34Z</time></trkpt><trkpt lat="44.80174424109498" lon="9.198199125074495"><ele>667.8</ele><time>2026-03-29T10:26:35Z</time></trkpt><trkpt lat="44.80169513037052" lon="9.19806466098921"><ele>670.2</ele><time>2026-03-29T10:26:36Z</time></trkpt><trkpt lat="44.8016510611486" lon="9.19795562168234"><ele>672.6</ele><time>2026-03-29T10:26:37Z</time></trkpt><trkpt lat="44.80161685220954" lon="9.197863331029952"><ele>675.0</ele><time>2026-03-29T10:26:38Z</time></trkpt><trkpt lat="44.801642877001804" lon="9.197768131169445"><ele>675.0</ele><time>2026-03-29T10:26:39Z</time></trkpt><trkpt lat="44.80169980398266" lon="9.197719084584708"><ele>675.0</ele><time>2026-03-29T10:26:40Z</time></trkpt><trkpt lat="44.80177297271996" lon="9.197735339526806"><ele>675.0</ele><time>2026-03-29T10:26:41Z</time></trkpt><trkpt lat="44.801842884584204" lon="9.197804368827954"><ele>675.0</ele><time>2026-03-29T10:26:42Z</time></trkpt><trkpt lat="44.80191318335171" lon="9.197908798496588"><ele>675.0</ele><time>2026-03-29T10:26:43Z</time></trkpt><trkpt lat="44.80200100152232" lon="9.19802969849641"><ele>672.0</ele><time>2026-03-29T10:26:44Z</time></trkpt><trkpt lat="44.80210268496448" lon="9.198133202103158"><ele>669.0</ele><time>2026-03-29T10:26:45Z</time></trkpt><trkpt lat="44.80221648017827" lon="9.198213221759536"><ele>666.0</ele><time>2026-03-29T10:26:46Z</time></trkpt><trkpt lat="44.80231350567589" lon="9.198315775568542"><ele>663.0</ele><time>2026-03-29T10:26:47Z</time></trkpt><trkpt lat="44.80240338997383" lon="9.19843421941465"><ele>663.0</ele><time>2026-03-29T10:26:48Z</time></trkpt><trkpt lat="44.80251876899278" lon="9.1984848832714"><ele>663.0</ele><time>2026-03-29T10:26:49Z</time></trkpt><trkpt lat="44.80264871782551" lon="9.198554553736955"><ele>663.0</ele><time>2026-03-29T10:26:50Z</time></trkpt><trkpt lat="44.802805413639476" lon="9.198594522647443"><ele>663.0</ele><time>2026-03-29T10:26:51Z</time></trkpt><trkpt lat="44.8029655185856" lon="9.1986358929079"><ele>660.5</ele><time>2026-03-29T10:26:52Z</time></trkpt><trkpt lat="44.80311123525839" lon="9.198691474521693"><ele>658.0</ele><time>2026-03-29T10:26:53Z</time></trkpt><trkpt lat="44.80324708153525" lon="9.19876366943296"><ele>655.5</ele><time>2026-03-29T10:26:54Z</time></trkpt><trkpt lat="44.80337514107173" lon="9.198843434671716"><ele>653.0</ele><time>2026-03-29T10:26:55Z</time></trkpt><trkpt lat="44.80348782242725" lon="9.198903129144298"><ele>654.0</ele><time>2026-03-29T10:26:56Z</time></trkpt><trkpt lat="44.80359898010289" lon="9.198940479330801"><ele>655.0</ele><time>2026-03-29T10:26:57Z</time></trkpt><trkpt lat="44.80370224888422" lon="9.198930513896583"><ele>656.0</ele><time>2026-03-29T10:26:58Z</time></trkpt><trkpt lat="44.80380068065921" lon="9.198849591632147"><ele>657.0</ele><time>2026-03-29T10:26:59Z</time></trkpt><trkpt lat="44.80390114501424" lon="9.19874223033975"><ele>657.0</ele><time>2026-03-29T10:27:00Z</time></trkpt><trkpt lat="44.804005598545174" lon="9.19866828705901"><ele>657.0</ele><time>2026-03-29T10:27:01Z</time></trkpt><trkpt lat="44.804097933708526" lon="9.198627389990365"><ele>657.0</ele><time>2026-03-29T10:27:02Z</time></trkpt><trkpt lat="44.80418483534769" lon="9.198607811438935"><ele>657.0</ele><time>2026-03-29T10:27:03Z</time></trkpt><trkpt lat="44.80425727916691" lon="9.198631817604369"><ele>657.0</ele><time>2026-03-29T10:27:04Z</time></trkpt><trkpt lat="44.80430954649441" lon="9.198707901230627"><ele>656.75</ele><time>2026-03-29T10:27:05Z</time></trkpt><trkpt lat="44.80435052713788" lon="9.198844938323198"><ele>656.5</ele><time>2026-03-29T10:27:06Z</time></trkpt><trkpt lat="44.80432096729399" lon="9.199011970136265"><ele>656.25</ele><time>2026-03-29T10:27:07Z</time></trkpt><trkpt lat="44.804296408420704" lon="9.199173588594691"><ele>656.0</ele><time>2026-03-29T10:27:08Z</time></trkpt><trkpt lat="44.80430303037301" lon="9.199325245518008"><ele>651.25</ele><time>2026-03-29T10:27:09Z</time></trkpt><trkpt lat="44.80434033959514" lon="9.19947972291734"><ele>646.5</ele><time>2026-03-29T10:27:09.999Z</time></trkpt><trkpt lat="44.80443735979648" lon="9.199622072597666"><ele>641.75</ele><time>2026-03-29T10:27:10.999Z</time></trkpt><trkpt lat="44.80451925640558" lon="9.199762757720162"><ele>637.0</ele><time>2026-03-29T10:27:11.999Z</time></trkpt><trkpt lat="44.80458675329295" lon="9.199899415344595"><ele>637.0</ele><time>2026-03-29T10:27:12.999Z</time></trkpt><trkpt lat="44.80464109696572" lon="9.200035472499312"><ele>637.0</ele><time>2026-03-29T10:27:13.999Z</time></trkpt><trkpt lat="44.804675074492" lon="9.200173356407044"><ele>637.0</ele><time>2026-03-29T10:27:14.999Z</time></trkpt><trkpt lat="44.80466852311385" lon="9.200315413449054"><ele>637.0</ele><time>2026-03-29T10:27:15.999Z</time></trkpt><trkpt lat="44.80460059374422" lon="9.200436015168037"><ele>637.0</ele><time>2026-03-29T10:27:16.999Z</time></trkpt><trkpt lat="44.80456590757394" lon="9.2005776658286"><ele>636.8000000000001</ele><time>2026-03-29T10:27:17.999Z</time></trkpt><trkpt lat="44.80452299705134" lon="9.20070373708379"><ele>636.6</ele><time>2026-03-29T10:27:18.999Z</time></trkpt><trkpt lat="44.80452445747473" lon="9.200839477870606"><ele>636.4000000000001</ele><time>2026-03-29T10:27:19.999Z</time></trkpt><trkpt lat="44.80457683920772" lon="9.200971861907073"><ele>636.2</ele><time>2026-03-29T10:27:20.999Z</time></trkpt><trkpt lat="44.80466029346033" lon="9.201089759799784"><ele>636.0</ele><time>2026-03-29T10:27:21.999Z</time></trkpt><trkpt lat="44.80474962515393" lon="9.201206154025305"><ele>636.0</ele><time>2026-03-29T10:27:22.999Z</time></trkpt><trkpt lat="44.80483085919749" lon="9.20132596272773"><ele>636.0</ele><time>2026-03-29T10:27:23.999Z</time></trkpt><trkpt lat="44.80491109682484" lon="9.201436059224369"><ele>636.0</ele><time>2026-03-29T10:27:24.999Z</time></trkpt><trkpt lat="44.805008986017825" lon="9.201522484995593"><ele>636.0</ele><time>2026-03-29T10:27:25.999Z</time></trkpt><trkpt lat="44.80513365412207" lon="9.201581191174812"><ele>632.5</ele><time>2026-03-29T10:27:26.999Z</time></trkpt><trkpt lat="44.80526845678766" lon="9.201614156798259"><ele>629.0</ele><time>2026-03-29T10:27:27.999Z</time></trkpt><trkpt lat="44.80538928682845" lon="9.201640807766532"><ele>625.5</ele><time>2026-03-29T10:27:28.999Z</time></trkpt><trkpt lat="44.8054947267567" lon="9.2016534672325"><ele>622.0</ele><time>2026-03-29T10:27:29.999Z</time></trkpt><trkpt lat="44.80558768473451" lon="9.201655606606215"><ele>622.0</ele><time>2026-03-29T10:27:30.999Z</time></trkpt><trkpt lat="44.80566789562582" lon="9.201702101654941"><ele>622.0</ele><time>2026-03-29T10:27:31.999Z</time></trkpt><trkpt lat="44.80572118948887" lon="9.201818589858474"><ele>622.0</ele><time>2026-03-29T10:27:32.999Z</time></trkpt><trkpt lat="44.80575657566333" lon="9.201988385685697"><ele>622.0</ele><time>2026-03-29T10:27:33.999Z</time></trkpt><trkpt lat="44.8057909690404" lon="9.202172574383475"><ele>622.0</ele><time>2026-03-29T10:27:34.999Z</time></trkpt><trkpt lat="44.805831675119116" lon="9.20236276132946"><ele>624.0</ele><time>2026-03-29T10:27:35.999Z</time></trkpt><trkpt lat="44.805871621537776" lon="9.20255514340323"><ele>626.0</ele><time>2026-03-29T10:27:36.999Z</time></trkpt><trkpt lat="44.80590963045887" lon="9.202736545592684"><ele>628.0</ele><time>2026-03-29T10:27:37.999Z</time></trkpt><trkpt lat="44.805946502791876" lon="9.202898065865055"><ele>630.0</ele><time>2026-03-29T10:27:38.999Z</time></trkpt><trkpt lat="44.805982616375374" lon="9.203038971455053"><ele>626.8</ele><time>2026-03-29T10:27:39.999Z</time></trkpt><trkpt lat="44.80603268121132" lon="9.20315247969983"><ele>623.6</ele><time>2026-03-29T10:27:40.999Z</time></trkpt><trkpt lat="44.80610203306634" lon="9.203246895767336"><ele>620.4</ele><time>2026-03-29T10:27:41.999Z</time></trkpt><trkpt lat="44.80619239709754" lon="9.203309906530748"><ele>617.2</ele><time>2026-03-29T10:27:42.999Z</time></trkpt><trkpt lat="44.80629683938514" lon="9.203354124293607"><ele>614.0</ele><time>2026-03-29T10:27:43.999Z</time></trkpt><trkpt lat="44.8064053914892" lon="9.203393622705423"><ele>614.0</ele><time>2026-03-29T10:27:44.999Z</time></trkpt><trkpt lat="44.806515008780316" lon="9.20340569995916"><ele>614.0</ele><time>2026-03-29T10:27:45.999Z</time></trkpt><trkpt lat="44.806624019717425" lon="9.203376615363343"><ele>614.0</ele><time>2026-03-29T10:27:46.999Z</time></trkpt><trkpt lat="44.80673085120769" lon="9.203300064070934"><ele>614.0</ele><time>2026-03-29T10:27:47.999Z</time></trkpt><trkpt lat="44.80683811945514" lon="9.203210062210253"><ele>612.25</ele><time>2026-03-29T10:27:48.999Z</time></trkpt><trkpt lat="44.80695807942496" lon="9.203148845080893"><ele>610.5</ele><time>2026-03-29T10:27:49.999Z</time></trkpt><trkpt lat="44.80707510874814" lon="9.203064786332716"><ele>608.75</ele><time>2026-03-29T10:27:50.999Z</time></trkpt><trkpt lat="44.807201569313555" lon="9.203016207167481"><ele>607.0</ele><time>2026-03-29T10:27:51.999Z</time></trkpt><trkpt lat="44.80732382516341" lon="9.202954531432363"><ele>607.0</ele><time>2026-03-29T10:27:52.999Z</time></trkpt><trkpt lat="44.80743165005334" lon="9.202846878067103"><ele>607.0</ele><time>2026-03-29T10:27:53.999Z</time></trkpt><trkpt lat="44.807533735956284" lon="9.20271014767063"><ele>607.0</ele><time>2026-03-29T10:27:54.999Z</time></trkpt><trkpt lat="44.80762984015292" lon="9.202566774135693"><ele>607.0</ele><time>2026-03-29T10:27:55.999Z</time></trkpt><trkpt lat="44.80773371879617" lon="9.202435926640302"><ele>605.75</ele><time>2026-03-29T10:27:57.001Z</time></trkpt><trkpt lat="44.807836151931355" lon="9.202317023658"><ele>604.5</ele><time>2026-03-29T10:27:58.001Z</time></trkpt><trkpt lat="44.80793756844366" lon="9.202215700412482"><ele>603.25</ele><time>2026-03-29T10:27:59.001Z</time></trkpt><trkpt lat="44.80804557634757" lon="9.202134084191842"><ele>602.0</ele><time>2026-03-29T10:28:00.001Z</time></trkpt><trkpt lat="44.808155216493645" lon="9.202072876419576"><ele>602.0</ele><time>2026-03-29T10:28:01.001Z</time></trkpt><trkpt lat="44.808270943564736" lon="9.2020359401031"><ele>602.0</ele><time>2026-03-29T10:28:02.001Z</time></trkpt><trkpt lat="44.80839686535828" lon="9.202037932204483"><ele>602.0</ele><time>2026-03-29T10:28:03.001Z</time></trkpt><trkpt lat="44.80852240495579" lon="9.20211666735207"><ele>602.0</ele><time>2026-03-29T10:28:04.001Z</time></trkpt><trkpt lat="44.80865731946968" lon="9.202125762643357"><ele>602.3333333333333</ele><time>2026-03-29T10:28:05.001Z</time></trkpt><trkpt lat="44.80879799316811" lon="9.202111400662112"><ele>602.6666666666666</ele><time>2026-03-29T10:28:06.001Z</time></trkpt><trkpt lat="44.80894908279191" lon="9.202063944502708"><ele>603.0</ele><time>2026-03-29T10:28:07.001Z</time></trkpt><trkpt lat="44.809103027469725" lon="9.202021540496384"><ele>603.0</ele><time>2026-03-29T10:28:08.001Z</time></trkpt><trkpt lat="44.80924768332913" lon="9.201981002576451"><ele>603.0</ele><time>2026-03-29T10:28:09.001Z</time></trkpt><trkpt lat="44.80939643328302" lon="9.201935804809779"><ele>603.0</ele><time>2026-03-29T10:28:10.001Z</time></trkpt><trkpt lat="44.80954273176886" lon="9.201874761258912"><ele>606.4</ele><time>2026-03-29T10:28:11.001Z</time></trkpt><trkpt lat="44.80967451275799" lon="9.201819654455011"><ele>609.8</ele><time>2026-03-29T10:28:12.001Z</time></trkpt><trkpt lat="44.80978347200916" lon="9.201791365903498"><ele>613.2</ele><time>2026-03-29T10:28:13.001Z</time></trkpt><trkpt lat="44.80987723110243" lon="9.201778698882432"><ele>616.6</ele><time>2026-03-29T10:28:14Z</time></trkpt><trkpt lat="44.80996841508971" lon="9.201753323432548"><ele>620.0</ele><time>2026-03-29T10:28:15Z</time></trkpt><trkpt lat="44.810036803338775" lon="9.201583099446555"><ele>620.5</ele><time>2026-03-29T10:28:16Z</time></trkpt><trkpt lat="44.810116112064044" lon="9.201436384234905"><ele>621.0</ele><time>2026-03-29T10:28:17Z</time></trkpt><trkpt lat="44.81021481085776" lon="9.201301203817115"><ele>621.5</ele><time>2026-03-29T10:28:18Z</time></trkpt><trkpt lat="44.81031398158441" lon="9.201168911362847"><ele>622.0</ele><time>2026-03-29T10:28:19Z</time></trkpt><trkpt lat="44.81041039595106" lon="9.201038341029232"><ele>622.0</ele><time>2026-03-29T10:28:20Z</time></trkpt><trkpt lat="44.81050256838049" lon="9.200902840853352"><ele>622.0</ele><time>2026-03-29T10:28:21Z</time></trkpt><trkpt lat="44.8106313622844" lon="9.20083416233322"><ele>622.0</ele><time>2026-03-29T10:28:22Z</time></trkpt><trkpt lat="44.810734824583335" lon="9.20071862752253"><ele>622.0</ele><time>2026-03-29T10:28:23Z</time></trkpt><trkpt lat="44.81082984395332" lon="9.20058153328051"><ele>620.3333333333334</ele><time>2026-03-29T10:28:24Z</time></trkpt><trkpt lat="44.81091548672766" lon="9.200410160317032"><ele>618.6666666666666</ele><time>2026-03-29T10:28:25Z</time></trkpt><trkpt lat="44.81099896840116" lon="9.200214766726598"><ele>617.0</ele><time>2026-03-29T10:28:26Z</time></trkpt><trkpt lat="44.81108243991986" lon="9.200027534136192"><ele>616.0</ele><time>2026-03-29T10:28:27Z</time></trkpt><trkpt lat="44.811173986345985" lon="9.199843250112725"><ele>615.0</ele><time>2026-03-29T10:28:28Z</time></trkpt><trkpt lat="44.811291054330916" lon="9.19968095918122"><ele>614.0</ele><time>2026-03-29T10:28:29Z</time></trkpt><trkpt lat="44.81139278277466" lon="9.199497549728083"><ele>614.0</ele><time>2026-03-29T10:28:30Z</time></trkpt><trkpt lat="44.8115066024116" lon="9.199345841892931"><ele>614.0</ele><time>2026-03-29T10:28:31Z</time></trkpt><trkpt lat="44.811613664514184" lon="9.199203004487018"><ele>614.0</ele><time>2026-03-29T10:28:32Z</time></trkpt><trkpt lat="44.811712077353796" lon="9.199036262687082"><ele>613.3333333333333</ele><time>2026-03-29T10:28:33Z</time></trkpt><trkpt lat="44.81179249796347" lon="9.198845295755406"><ele>612.6666666666666</ele><time>2026-03-29T10:28:34Z</time></trkpt><trkpt lat="44.81185844862953" lon="9.198644180325555"><ele>612.0</ele><time>2026-03-29T10:28:35Z</time></trkpt><trkpt lat="44.81194901861097" lon="9.19848588211793"><ele>610.0</ele><time>2026-03-29T10:28:36Z</time></trkpt><trkpt lat="44.81204338638922" lon="9.19834240106498"><ele>608.0</ele><time>2026-03-29T10:28:37Z</time></trkpt><trkpt lat="44.812114923235235" lon="9.19819054827948"><ele>606.0</ele><time>2026-03-29T10:28:38Z</time></trkpt><trkpt lat="44.812177152141665" lon="9.198023825437376"><ele>604.0</ele><time>2026-03-29T10:28:39Z</time></trkpt><trkpt lat="44.812212965017864" lon="9.197817228544897"><ele>604.0</ele><time>2026-03-29T10:28:40Z</time></trkpt><trkpt lat="44.812233546286734" lon="9.19760751263639"><ele>604.0</ele><time>2026-03-29T10:28:41Z</time></trkpt><trkpt lat="44.812281502478164" lon="9.197421181503087"><ele>604.0</ele><time>2026-03-29T10:28:42Z</time></trkpt><trkpt lat="44.812335181209114" lon="9.197253375042271"><ele>604.0</ele><time>2026-03-29T10:28:43Z</time></trkpt><trkpt lat="44.81240863446718" lon="9.197103637715777"><ele>601.5</ele><time>2026-03-29T10:28:44Z</time></trkpt><trkpt lat="44.81250750463735" lon="9.196987660504313"><ele>599.0</ele><time>2026-03-29T10:28:45Z</time></trkpt><trkpt lat="44.81262416613898" lon="9.196910917706433"><ele>596.5</ele><time>2026-03-29T10:28:46Z</time></trkpt><trkpt lat="44.812733023006956" lon="9.196788754680782"><ele>594.0</ele><time>2026-03-29T10:28:47Z</time></trkpt><trkpt lat="44.812843230106246" lon="9.196662252147942"><ele>592.75</ele><time>2026-03-29T10:28:48Z</time></trkpt><trkpt lat="44.812931352096534" lon="9.196510992478245"><ele>591.5</ele><time>2026-03-29T10:28:49Z</time></trkpt><trkpt lat="44.8130202276852" lon="9.196384133738754"><ele>590.25</ele><time>2026-03-29T10:28:50Z</time></trkpt><trkpt lat="44.81310150123497" lon="9.19627532063533"><ele>589.0</ele><time>2026-03-29T10:28:51Z</time></trkpt><trkpt lat="44.81319157805432" lon="9.196188458791122"><ele>588.2</ele><time>2026-03-29T10:28:52Z</time></trkpt><trkpt lat="44.813296496988535" lon="9.196133092878434"><ele>587.4</ele><time>2026-03-29T10:28:53Z</time></trkpt><trkpt lat="44.81340627838481" lon="9.196128886926761"><ele>586.6</ele><time>2026-03-29T10:28:54Z</time></trkpt><trkpt lat="44.813507491293535" lon="9.196082113086483"><ele>585.8</ele><time>2026-03-29T10:28:55Z</time></trkpt><trkpt lat="44.81359839358277" lon="9.196023343512453"><ele>585.0</ele><time>2026-03-29T10:28:56Z</time></trkpt><trkpt lat="44.813642471922925" lon="9.195858861262488"><ele>585.0</ele><time>2026-03-29T10:28:57Z</time></trkpt><trkpt lat="44.813673235380065" lon="9.195680382833379"><ele>585.0</ele><time>2026-03-29T10:28:58Z</time></trkpt><trkpt lat="44.81371150757585" lon="9.19549006961869"><ele>585.0</ele><time>2026-03-29T10:28:59Z</time></trkpt><trkpt lat="44.81376530669799" lon="9.195304416469426"><ele>585.0</ele><time>2026-03-29T10:29:00Z</time></trkpt><trkpt lat="44.813834375098274" lon="9.195126932939969"><ele>585.25</ele><time>2026-03-29T10:29:01Z</time></trkpt><trkpt lat="44.813879611569845" lon="9.194955088618512"><ele>585.5</ele><time>2026-03-29T10:29:02Z</time></trkpt><trkpt lat="44.813925591824926" lon="9.194793621869294"><ele>585.75</ele><time>2026-03-29T10:29:03Z</time></trkpt><trkpt lat="44.813983872371146" lon="9.194652972050328"><ele>586.0</ele><time>2026-03-29T10:29:04Z</time></trkpt><trkpt lat="44.81406749723865" lon="9.194531722088556"><ele>583.2</ele><time>2026-03-29T10:29:05Z</time></trkpt><trkpt lat="44.81413643633786" lon="9.194392604888039"><ele>580.4000000000001</ele><time>2026-03-29T10:29:06Z</time></trkpt><trkpt lat="44.81421822025885" lon="9.194284890530158"><ele>577.6</ele><time>2026-03-29T10:29:07Z</time></trkpt><trkpt lat="44.814285600828335" lon="9.194185362492831"><ele>574.8000000000001</ele><time>2026-03-29T10:29:08Z</time></trkpt><trkpt lat="44.81435306237776" lon="9.1941100169961"><ele>572.0</ele><time>2026-03-29T10:29:09Z</time></trkpt><trkpt lat="44.81444205082451" lon="9.194116230415542"><ele>567.6</ele><time>2026-03-29T10:29:10Z</time></trkpt><trkpt lat="44.8145277831697" lon="9.19413643923946"><ele>563.2</ele><time>2026-03-29T10:29:11Z</time></trkpt><trkpt lat="44.81461293474919" lon="9.19423115201536"><ele>558.8</ele><time>2026-03-29T10:29:12Z</time></trkpt><trkpt lat="44.814684992206026" lon="9.194332530981411"><ele>554.4</ele><time>2026-03-29T10:29:13Z</time></trkpt><trkpt lat="44.81472988693202" lon="9.194436020532137"><ele>550.0</ele><time>2026-03-29T10:29:13.999Z</time></trkpt><trkpt lat="44.81472229529406" lon="9.194569025270713"><ele>550.0</ele><time>2026-03-29T10:29:14.999Z</time></trkpt><trkpt lat="44.814670547944964" lon="9.19469001127627"><ele>550.0</ele><time>2026-03-29T10:29:15.999Z</time></trkpt><trkpt lat="44.81461800321237" lon="9.194809974052031"><ele>550.0</ele><time>2026-03-29T10:29:16.999Z</time></trkpt><trkpt lat="44.81458320010965" lon="9.194939671802134"><ele>550.0</ele><time>2026-03-29T10:29:17.999Z</time></trkpt><trkpt lat="44.81455481776789" lon="9.195074901077266"><ele>550.0</ele><time>2026-03-29T10:29:18.999Z</time></trkpt><trkpt lat="44.814562065249255" lon="9.195227527532923"><ele>552.0</ele><time>2026-03-29T10:29:19.999Z</time></trkpt><trkpt lat="44.81461518889687" lon="9.195392355664913"><ele>554.0</ele><time>2026-03-29T10:29:20.999Z</time></trkpt><trkpt lat="44.814684696796526" lon="9.19554865123502"><ele>556.0</ele><time>2026-03-29T10:29:21.999Z</time></trkpt><trkpt lat="44.81472660442618" lon="9.19571751392901"><ele>558.0</ele><time>2026-03-29T10:29:22.999Z</time></trkpt><trkpt lat="44.81475321749067" lon="9.19589664149657"><ele>558.0</ele><time>2026-03-29T10:29:23.999Z</time></trkpt><trkpt lat="44.81476387970204" lon="9.19606749977497"><ele>558.0</ele><time>2026-03-29T10:29:24.999Z</time></trkpt><trkpt lat="44.814762104899" lon="9.196238910030461"><ele>558.0</ele><time>2026-03-29T10:29:25.999Z</time></trkpt><trkpt lat="44.81474140965297" lon="9.196420297415699"><ele>558.0</ele><time>2026-03-29T10:29:26.999Z</time></trkpt><trkpt lat="44.814711699485706" lon="9.196617624229972"><ele>556.5</ele><time>2026-03-29T10:29:27.999Z</time></trkpt><trkpt lat="44.81468678697592" lon="9.196828015286842"><ele>555.0</ele><time>2026-03-29T10:29:28.999Z</time></trkpt><trkpt lat="44.814672099492796" lon="9.197036224514184"><ele>553.5</ele><time>2026-03-29T10:29:29.999Z</time></trkpt><trkpt lat="44.814651109751004" lon="9.197219615940522"><ele>552.0</ele><time>2026-03-29T10:29:30.999Z</time></trkpt><trkpt lat="44.81462785312769" lon="9.19738922133931"><ele>549.2</ele><time>2026-03-29T10:29:31.999Z</time></trkpt><trkpt lat="44.81462837198065" lon="9.197547281658922"><ele>546.4000000000001</ele><time>2026-03-29T10:29:32.999Z</time></trkpt><trkpt lat="44.814589352170245" lon="9.197677022660688"><ele>543.5999999999999</ele><time>2026-03-29T10:29:33.999Z</time></trkpt><trkpt lat="44.814528139943334" lon="9.197775415820935"><ele>540.8</ele><time>2026-03-29T10:29:34.999Z</time></trkpt><trkpt lat="44.814436353712615" lon="9.197839614555292"><ele>538.0</ele><time>2026-03-29T10:29:35.999Z</time></trkpt><trkpt lat="44.81432992355856" lon="9.197884992603875"><ele>543.6</ele><time>2026-03-29T10:29:36.999Z</time></trkpt><trkpt lat="44.814218175729394" lon="9.197883333652326"><ele>549.1999999999999</ele><time>2026-03-29T10:29:37.999Z</time></trkpt><trkpt lat="44.81410292205868" lon="9.197921595944031"><ele>554.8</ele><time>2026-03-29T10:29:38.999Z</time></trkpt><trkpt lat="44.81399242685022" lon="9.19795305283037"><ele>560.4</ele><time>2026-03-29T10:29:39.999Z</time></trkpt><trkpt lat="44.81389191606735" lon="9.19799132091842"><ele>566.0</ele><time>2026-03-29T10:29:40.999Z</time></trkpt><trkpt lat="44.813800780512906" lon="9.19802164657894"><ele>566.0</ele><time>2026-03-29T10:29:41.999Z</time></trkpt><trkpt lat="44.8137148959287" lon="9.198115419597668"><ele>566.0</ele><time>2026-03-29T10:29:42.999Z</time></trkpt><trkpt lat="44.813659257469574" lon="9.198284785171749"><ele>566.0</ele><time>2026-03-29T10:29:43.999Z</time></trkpt><trkpt lat="44.81360298227573" lon="9.198441307685963"><ele>566.0</ele><time>2026-03-29T10:29:44.999Z</time></trkpt><trkpt lat="44.81351035999242" lon="9.198583056785726"><ele>565.5</ele><time>2026-03-29T10:29:45.999Z</time></trkpt><trkpt lat="44.813433126531194" lon="9.198745734559086"><ele>565.0</ele><time>2026-03-29T10:29:46.999Z</time></trkpt><trkpt lat="44.813356275199425" lon="9.198889569753273"><ele>564.5</ele><time>2026-03-29T10:29:47.999Z</time></trkpt><trkpt lat="44.813303719945644" lon="9.199032970360093"><ele>564.0</ele><time>2026-03-29T10:29:48.999Z</time></trkpt><trkpt lat="44.81326414436244" lon="9.199149525368336"><ele>560.8333333333334</ele><time>2026-03-29T10:29:49.999Z</time></trkpt><trkpt lat="44.8132486227251" lon="9.199247767437477"><ele>557.6666666666666</ele><time>2026-03-29T10:29:50.999Z</time></trkpt><trkpt lat="44.81333339451485" lon="9.199347808399892"><ele>554.5</ele><time>2026-03-29T10:29:52.999Z</time></trkpt><trkpt lat="44.813402926580025" lon="9.199304544094472"><ele>551.3333333333333</ele><time>2026-03-29T10:29:53.999Z</time></trkpt><trkpt lat="44.813434877021635" lon="9.199213727704063"><ele>548.1666666666666</ele><time>2026-03-29T10:29:54.999Z</time></trkpt><trkpt lat="44.81346931635521" lon="9.199095691493374"><ele>545.0</ele><time>2026-03-29T10:29:55.999Z</time></trkpt><trkpt lat="44.81353230238915" lon="9.198964234424363"><ele>544.75</ele><time>2026-03-29T10:29:56.999Z</time></trkpt><trkpt lat="44.81364397264649" lon="9.198878564250535"><ele>544.5</ele><time>2026-03-29T10:29:57.999Z</time></trkpt><trkpt lat="44.81376795230462" lon="9.198835783015866"><ele>544.25</ele><time>2026-03-29T10:29:58.999Z</time></trkpt><trkpt lat="44.81390162280113" lon="9.1988197181046"><ele>544.0</ele><time>2026-03-29T10:29:59.999Z</time></trkpt><trkpt lat="44.81403576054475" lon="9.198817488746615"><ele>544.0</ele><time>2026-03-29T10:30:00.999Z</time></trkpt><trkpt lat="44.81415764088275" lon="9.198799227339778"><ele>544.0</ele><time>2026-03-29T10:30:01.999Z</time></trkpt><trkpt lat="44.81426161319487" lon="9.198814988117997"><ele>544.0</ele><time>2026-03-29T10:30:03.001Z</time></trkpt><trkpt lat="44.81435870114101" lon="9.198800062138192"><ele>544.0</ele><time>2026-03-29T10:30:04.001Z</time></trkpt><trkpt lat="44.81445935696009" lon="9.198738894171289"><ele>544.0</ele><time>2026-03-29T10:30:05.001Z</time></trkpt><trkpt lat="44.814577129465995" lon="9.198695065429368"><ele>538.25</ele><time>2026-03-29T10:30:06.001Z</time></trkpt><trkpt lat="44.81469163700603" lon="9.198615955178683"><ele>532.5</ele><time>2026-03-29T10:30:07.001Z</time></trkpt><trkpt lat="44.81480679672444" lon="9.198566509796121"><ele>526.75</ele><time>2026-03-29T10:30:08.001Z</time></trkpt><trkpt lat="44.814920900308174" lon="9.19852309099423"><ele>521.0</ele><time>2026-03-29T10:30:09.001Z</time></trkpt><trkpt lat="44.815014371877055" lon="9.1984348925603"><ele>521.0</ele><time>2026-03-29T10:30:10.001Z</time></trkpt><trkpt lat="44.815117972334676" lon="9.198277168390723"><ele>521.0</ele><time>2026-03-29T10:30:11.001Z</time></trkpt><trkpt lat="44.81520196786023" lon="9.198151459698288"><ele>521.0</ele><time>2026-03-29T10:30:12.001Z</time></trkpt><trkpt lat="44.815279726729536" lon="9.19802305763851"><ele>521.0</ele><time>2026-03-29T10:30:13.001Z</time></trkpt><trkpt lat="44.81534937061479" lon="9.19789927149245"><ele>516.75</ele><time>2026-03-29T10:30:14.001Z</time></trkpt><trkpt lat="44.815400560000235" lon="9.197766180724667"><ele>512.5</ele><time>2026-03-29T10:30:15.001Z</time></trkpt><trkpt lat="44.815434306723205" lon="9.197613904475592"><ele>508.25</ele><time>2026-03-29T10:30:16.001Z</time></trkpt><trkpt lat="44.815443369747086" lon="9.197439046256866"><ele>504.0</ele><time>2026-03-29T10:30:17.001Z</time></trkpt><trkpt lat="44.81542526037188" lon="9.197259751397059"><ele>504.0</ele><time>2026-03-29T10:30:18Z</time></trkpt><trkpt lat="44.81542698001399" lon="9.197091286638003"><ele>504.0</ele><time>2026-03-29T10:30:19Z</time></trkpt><trkpt lat="44.815475106981744" lon="9.196949838480519"><ele>504.0</ele><time>2026-03-29T10:30:20Z</time></trkpt><trkpt lat="44.81554643550005" lon="9.19681123021871"><ele>504.0</ele><time>2026-03-29T10:30:21Z</time></trkpt><trkpt lat="44.815594672330505" lon="9.196656434092002"><ele>505.25</ele><time>2026-03-29T10:30:22Z</time></trkpt><trkpt lat="44.81563956065094" lon="9.196493677630249"><ele>506.5</ele><time>2026-03-29T10:30:23Z</time></trkpt><trkpt lat="44.81564989615418" lon="9.196320478832753"><ele>507.75</ele><time>2026-03-29T10:30:24Z</time></trkpt><trkpt lat="44.815641004874806" lon="9.19616560290672"><ele>509.0</ele><time>2026-03-29T10:30:25Z</time></trkpt><trkpt lat="44.81566716947062" lon="9.19603729608251"><ele>508.99999999999994</ele><time>2026-03-29T10:30:26Z</time></trkpt><trkpt lat="44.81569665564313" lon="9.195931508597338"><ele>509.0</ele><time>2026-03-29T10:30:27Z</time></trkpt><trkpt lat="44.815765052032" lon="9.195905008406811"><ele>509.0</ele><time>2026-03-29T10:30:28Z</time></trkpt><trkpt lat="44.81582797837047" lon="9.19590844528463"><ele>509.0</ele><time>2026-03-29T10:30:29Z</time></trkpt><trkpt lat="44.81589480254386" lon="9.195965273997238"><ele>508.99999999999994</ele><time>2026-03-29T10:30:30Z</time></trkpt><trkpt lat="44.815951827833246" lon="9.196063536542058"><ele>509.0</ele><time>2026-03-29T10:30:31Z</time></trkpt><trkpt lat="44.81593202102934" lon="9.196222371337296"><ele>509.0</ele><time>2026-03-29T10:30:32Z</time></trkpt><trkpt lat="44.81587220274015" lon="9.196394410213086"><ele>509.0</ele><time>2026-03-29T10:30:33Z</time></trkpt><trkpt lat="44.81582279005846" lon="9.196551168446348"><ele>509.0</ele><time>2026-03-29T10:30:34Z</time></trkpt><trkpt lat="44.815787448027834" lon="9.19672112677334"><ele>509.0</ele><time>2026-03-29T10:30:35Z</time></trkpt><trkpt lat="44.81574823888841" lon="9.196885010724168"><ele>507.75</ele><time>2026-03-29T10:30:36Z</time></trkpt><trkpt lat="44.815724732713846" lon="9.197048432931606"><ele>506.5</ele><time>2026-03-29T10:30:37Z</time></trkpt><trkpt lat="44.81571788459196" lon="9.197201793878737"><ele>505.25</ele><time>2026-03-29T10:30:38Z</time></trkpt><trkpt lat="44.815731749728265" lon="9.197357400334134"><ele>504.0</ele><time>2026-03-29T10:30:39Z</time></trkpt><trkpt lat="44.81578187723238" lon="9.197510240494344"><ele>503.0</ele><time>2026-03-29T10:30:40Z</time></trkpt><trkpt lat="44.81586372106829" lon="9.197660782845725"><ele>502.0</ele><time>2026-03-29T10:30:41Z</time></trkpt><trkpt lat="44.81595535199953" lon="9.197791496799951"><ele>501.0</ele><time>2026-03-29T10:30:42Z</time></trkpt><trkpt lat="44.816054397527274" lon="9.197882694024694"><ele>500.0</ele><time>2026-03-29T10:30:43Z</time></trkpt><trkpt lat="44.816151250335224" lon="9.197945162093335"><ele>495.8333333333333</ele><time>2026-03-29T10:30:44Z</time></trkpt><trkpt lat="44.816208422833704" lon="9.198029910468806"><ele>491.66666666666663</ele><time>2026-03-29T10:30:45Z</time></trkpt><trkpt lat="44.816246712039394" lon="9.198115056020246"><ele>487.5</ele><time>2026-03-29T10:30:46Z</time></trkpt><trkpt lat="44.81622585349631" lon="9.198240817175236"><ele>483.33333333333337</ele><time>2026-03-29T10:30:47Z</time></trkpt><trkpt lat="44.81617432982956" lon="9.198335167229786"><ele>479.1666666666667</ele><time>2026-03-29T10:30:48Z</time></trkpt><trkpt lat="44.81613819357993" lon="9.198469346350203"><ele>475.0</ele><time>2026-03-29T10:30:49Z</time></trkpt><trkpt lat="44.81608850622537" lon="9.19858477464409"><ele>475.00000000000006</ele><time>2026-03-29T10:30:50Z</time></trkpt><trkpt lat="44.816057723300936" lon="9.198692972452195"><ele>475.0</ele><time>2026-03-29T10:30:51Z</time></trkpt><trkpt lat="44.81605897888533" lon="9.19879856228448"><ele>475.0</ele><time>2026-03-29T10:30:52Z</time></trkpt><trkpt lat="44.81610352032512" lon="9.19890200643176"><ele>475.0</ele><time>2026-03-29T10:30:53Z</time></trkpt><trkpt lat="44.816168114717996" lon="9.198971539300672"><ele>475.00000000000006</ele><time>2026-03-29T10:30:54Z</time></trkpt><trkpt lat="44.81624955474566" lon="9.19899811683659"><ele>475.0</ele><time>2026-03-29T10:30:55Z</time></trkpt><trkpt lat="44.816330550139305" lon="9.198984095639263"><ele>475.0</ele><time>2026-03-29T10:30:56Z</time></trkpt><trkpt lat="44.816401942060715" lon="9.198956639237295"><ele>475.0</ele><time>2026-03-29T10:30:56.999Z</time></trkpt><trkpt lat="44.81644591578934" lon="9.198844319871535"><ele>475.0</ele><time>2026-03-29T10:30:57.999Z</time></trkpt><trkpt lat="44.816473418315226" lon="9.198706075117675"><ele>475.0</ele><time>2026-03-29T10:30:58.999Z</time></trkpt><trkpt lat="44.81649481039049" lon="9.198544816451516"><ele>475.0</ele><time>2026-03-29T10:30:59.999Z</time></trkpt><trkpt lat="44.816530279687456" lon="9.198374116600695"><ele>475.0</ele><time>2026-03-29T10:31:00.999Z</time></trkpt><trkpt lat="44.81658367991797" lon="9.198209427566193"><ele>475.0</ele><time>2026-03-29T10:31:01.999Z</time></trkpt><trkpt lat="44.81661539546166" lon="9.198047829974914"><ele>475.0</ele><time>2026-03-29T10:31:02.999Z</time></trkpt><trkpt lat="44.81666089258372" lon="9.197907652181343"><ele>475.0</ele><time>2026-03-29T10:31:03.999Z</time></trkpt><trkpt lat="44.816687490767016" lon="9.197759744535162"><ele>474.75</ele><time>2026-03-29T10:31:04.999Z</time></trkpt><trkpt lat="44.816689296324995" lon="9.197587357888414"><ele>474.5</ele><time>2026-03-29T10:31:05.999Z</time></trkpt><trkpt lat="44.81668116922702" lon="9.197413769084996"><ele>474.25</ele><time>2026-03-29T10:31:06.999Z</time></trkpt><trkpt lat="44.81667991142529" lon="9.197252447802104"><ele>474.0</ele><time>2026-03-29T10:31:07.999Z</time></trkpt><trkpt lat="44.816678606351545" lon="9.197110885698402"><ele>473.6666666666667</ele><time>2026-03-29T10:31:08.999Z</time></trkpt><trkpt lat="44.81665855473041" lon="9.196990301348263"><ele>473.33333333333337</ele><time>2026-03-29T10:31:09.999Z</time></trkpt><trkpt lat="44.81661647046105" lon="9.196893876136729"><ele>473.0</ele><time>2026-03-29T10:31:10.999Z</time></trkpt><trkpt lat="44.81660376232229" lon="9.196798080410318"><ele>472.6666666666667</ele><time>2026-03-29T10:31:11.999Z</time></trkpt><trkpt lat="44.81662509874288" lon="9.196643043765791"><ele>472.33333333333337</ele><time>2026-03-29T10:31:13.999Z</time></trkpt><trkpt lat="44.816709601602525" lon="9.196618007439778"><ele>472.0</ele><time>2026-03-29T10:31:14.999Z</time></trkpt><trkpt lat="44.816796027990875" lon="9.196695809998792"><ele>468.5</ele><time>2026-03-29T10:31:15.999Z</time></trkpt><trkpt lat="44.81690022902835" lon="9.196735899265917"><ele>465.0</ele><time>2026-03-29T10:31:16.999Z</time></trkpt><trkpt lat="44.81701348168877" lon="9.196787326768115"><ele>461.5</ele><time>2026-03-29T10:31:17.999Z</time></trkpt><trkpt lat="44.81714049623371" lon="9.196827934078671"><ele>458.0</ele><time>2026-03-29T10:31:18.999Z</time></trkpt><trkpt lat="44.81727408562858" lon="9.196868069926351"><ele>458.0</ele><time>2026-03-29T10:31:19.999Z</time></trkpt><trkpt lat="44.817399996471615" lon="9.196912548901782"><ele>457.99999999999994</ele><time>2026-03-29T10:31:20.999Z</time></trkpt><trkpt lat="44.81750936936984" lon="9.196971678825662"><ele>457.99999999999994</ele><time>2026-03-29T10:31:21.999Z</time></trkpt><trkpt lat="44.817600372862536" lon="9.197004847157908"><ele>458.0</ele><time>2026-03-29T10:31:22.999Z</time></trkpt><trkpt lat="44.817684164509515" lon="9.19703969453073"><ele>458.0</ele><time>2026-03-29T10:31:23.999Z</time></trkpt><trkpt lat="44.817741831691286" lon="9.197149356308811"><ele>454.75</ele><time>2026-03-29T10:31:24.999Z</time></trkpt><trkpt lat="44.81776575240636" lon="9.197292591466994"><ele>451.5</ele><time>2026-03-29T10:31:25.999Z</time></trkpt><trkpt lat="44.817723515615384" lon="9.197455845293247"><ele>448.25</ele><time>2026-03-29T10:31:26.999Z</time></trkpt><trkpt lat="44.81771177272077" lon="9.19763875740104"><ele>445.0</ele><time>2026-03-29T10:31:27.999Z</time></trkpt><trkpt lat="44.81768764899796" lon="9.197819856376192"><ele>445.0</ele><time>2026-03-29T10:31:28.999Z</time></trkpt><trkpt lat="44.817665751352976" lon="9.197998548435343"><ele>445.0</ele><time>2026-03-29T10:31:29.999Z</time></trkpt><trkpt lat="44.81764382978204" lon="9.198172869515371"><ele>445.0</ele><time>2026-03-29T10:31:30.999Z</time></trkpt><trkpt lat="44.81761782283495" lon="9.198335874469011"><ele>445.0</ele><time>2026-03-29T10:31:31.999Z</time></trkpt><trkpt lat="44.81759844468987" lon="9.198489293224336"><ele>445.50000000000006</ele><time>2026-03-29T10:31:32.999Z</time></trkpt><trkpt lat="44.81758377346355" lon="9.198636105211493"><ele>446.0</ele><time>2026-03-29T10:31:33.999Z</time></trkpt><trkpt lat="44.81755536193852" lon="9.198771589721034"><ele>446.5</ele><time>2026-03-29T10:31:34.999Z</time></trkpt><trkpt lat="44.817511386920934" lon="9.19888959811819"><ele>447.0</ele><time>2026-03-29T10:31:35.999Z</time></trkpt><trkpt lat="44.8174850512573" lon="9.198991094677508"><ele>447.50000000000006</ele><time>2026-03-29T10:31:36.999Z</time></trkpt><trkpt lat="44.81749299630973" lon="9.19908148231945"><ele>448.0</ele><time>2026-03-29T10:31:37.999Z</time></trkpt><trkpt lat="44.81753733284453" lon="9.199152520459801"><ele>448.0</ele><time>2026-03-29T10:31:38.999Z</time></trkpt><trkpt lat="44.817617077322" lon="9.1991750025537"><ele>447.99999999999994</ele><time>2026-03-29T10:31:39.999Z</time></trkpt><trkpt lat="44.81771377563425" lon="9.199154029453549"><ele>447.99999999999994</ele><time>2026-03-29T10:31:40.999Z</time></trkpt><trkpt lat="44.817823790096476" lon="9.199130593716239"><ele>448.0</ele><time>2026-03-29T10:31:41.999Z</time></trkpt><trkpt lat="44.81793060889759" lon="9.199062810160283"><ele>448.0</ele><time>2026-03-29T10:31:42.999Z</time></trkpt><trkpt lat="44.81802360408793" lon="9.198959029476839"><ele>445.75</ele><time>2026-03-29T10:31:43.999Z</time></trkpt><trkpt lat="44.8181340281764" lon="9.198877645089873"><ele>443.5</ele><time>2026-03-29T10:31:44.999Z</time></trkpt><trkpt lat="44.81825381759332" lon="9.198859714038331"><ele>441.25</ele><time>2026-03-29T10:31:45.999Z</time></trkpt><trkpt lat="44.818360592448755" lon="9.198808541350504"><ele>439.0</ele><time>2026-03-29T10:31:46.999Z</time></trkpt><trkpt lat="44.81846086236986" lon="9.198774959545494"><ele>434.0</ele><time>2026-03-29T10:31:47.999Z</time></trkpt><trkpt lat="44.818555367285605" lon="9.198705926120182"><ele>429.0</ele><time>2026-03-29T10:31:48.999Z</time></trkpt><trkpt lat="44.8186484594743" lon="9.198599762030849"><ele>424.0</ele><time>2026-03-29T10:31:49.999Z</time></trkpt><trkpt lat="44.81874952818636" lon="9.198489292535395"><ele>419.0</ele><time>2026-03-29T10:31:50.999Z</time></trkpt><trkpt lat="44.818841829250914" lon="9.198356715023053"><ele>419.0</ele><time>2026-03-29T10:31:51.999Z</time></trkpt><trkpt lat="44.818920159962936" lon="9.198201791717992"><ele>419.0</ele><time>2026-03-29T10:31:52.999Z</time></trkpt><trkpt lat="44.818990554854686" lon="9.198051275948806"><ele>419.0</ele><time>2026-03-29T10:31:53.999Z</time></trkpt><trkpt lat="44.81905904462138" lon="9.19791373637649"><ele>419.0</ele><time>2026-03-29T10:31:54.999Z</time></trkpt><trkpt lat="44.81914117057475" lon="9.19780534775819"><ele>418.5</ele><time>2026-03-29T10:31:55.999Z</time></trkpt><trkpt lat="44.81924401432255" lon="9.197724915894195"><ele>418.0</ele><time>2026-03-29T10:31:56.999Z</time></trkpt><trkpt lat="44.81936314995446" lon="9.197663251959248"><ele>417.5</ele><time>2026-03-29T10:31:57.998Z</time></trkpt><trkpt lat="44.819481854540946" lon="9.197605730070645"><ele>417.0</ele><time>2026-03-29T10:31:58.998Z</time></trkpt><trkpt lat="44.81959022070912" lon="9.197536276327217"><ele>417.0</ele><time>2026-03-29T10:31:59.998Z</time></trkpt><trkpt lat="44.819695076088045" lon="9.197482593078982"><ele>417.0</ele><time>2026-03-29T10:32:00.998Z</time></trkpt><trkpt lat="44.81978933808005" lon="9.19740820790287"><ele>417.0</ele><time>2026-03-29T10:32:01.998Z</time></trkpt><trkpt lat="44.81987775588987" lon="9.197301710516896"><ele>417.0</ele><time>2026-03-29T10:32:02.998Z</time></trkpt><trkpt lat="44.819960322273694" lon="9.197166826579721"><ele>416.75</ele><time>2026-03-29T10:32:03.998Z</time></trkpt><trkpt lat="44.82003484058021" lon="9.197022869541842"><ele>416.5</ele><time>2026-03-29T10:32:04.998Z</time></trkpt><trkpt lat="44.82010103645101" lon="9.19688597498377"><ele>416.25</ele><time>2026-03-29T10:32:05.998Z</time></trkpt><trkpt lat="44.820177281284394" lon="9.196776660363575"><ele>416.0</ele><time>2026-03-29T10:32:06.998Z</time></trkpt><trkpt lat="44.82021055498576" lon="9.196632110381662"><ele>412.5</ele><time>2026-03-29T10:32:07.998Z</time></trkpt><trkpt lat="44.82023498094191" lon="9.19648249656192"><ele>409.0</ele><time>2026-03-29T10:32:09Z</time></trkpt><trkpt lat="44.82024569527138" lon="9.196316186387117"><ele>405.5</ele><time>2026-03-29T10:32:10Z</time></trkpt><trkpt lat="44.82025659537349" lon="9.19615597458374"><ele>402.0</ele><time>2026-03-29T10:32:11Z</time></trkpt><trkpt lat="44.82027642464654" lon="9.196006101138906"><ele>402.0</ele><time>2026-03-29T10:32:12Z</time></trkpt><trkpt lat="44.82028602015479" lon="9.195865529735395"><ele>402.0</ele><time>2026-03-29T10:32:13Z</time></trkpt><trkpt lat="44.820299764768166" lon="9.195746898501152"><ele>402.0</ele><time>2026-03-29T10:32:14Z</time></trkpt><trkpt lat="44.82030805690846" lon="9.195652083712394"><ele>402.0</ele><time>2026-03-29T10:32:15Z</time></trkpt><trkpt lat="44.820320710631556" lon="9.19554045822487"><ele>402.0</ele><time>2026-03-29T10:32:17Z</time></trkpt><trkpt lat="44.82034628348996" lon="9.1954539415117"><ele>402.0</ele><time>2026-03-29T10:32:20Z</time></trkpt><trkpt lat="44.820447024021014" lon="9.195496897240115"><ele>401.8</ele><time>2026-03-29T10:32:22Z</time></trkpt><trkpt lat="44.82053006826201" lon="9.19551788567116"><ele>401.6</ele><time>2026-03-29T10:32:23Z</time></trkpt><trkpt lat="44.820633878579656" lon="9.195530706648917"><ele>401.40000000000003</ele><time>2026-03-29T10:32:24Z</time></trkpt><trkpt lat="44.82074804174254" lon="9.19556428927685"><ele>401.20000000000005</ele><time>2026-03-29T10:32:25Z</time></trkpt><trkpt lat="44.82085834122516" lon="9.195601036646746"><ele>401.0</ele><time>2026-03-29T10:32:26Z</time></trkpt><trkpt lat="44.820974376368646" lon="9.195643287771203"><ele>400.75</ele><time>2026-03-29T10:32:27Z</time></trkpt><trkpt lat="44.82109561255421" lon="9.195683888103053"><ele>400.5</ele><time>2026-03-29T10:32:28Z</time></trkpt><trkpt lat="44.82121878625761" lon="9.19572657740368"><ele>400.25</ele><time>2026-03-29T10:32:29Z</time></trkpt><trkpt lat="44.82134258751977" lon="9.195764300654652"><ele>400.0</ele><time>2026-03-29T10:32:30Z</time></trkpt><trkpt lat="44.821451048294925" lon="9.195800249662515"><ele>400.0</ele><time>2026-03-29T10:32:31Z</time></trkpt><trkpt lat="44.82155081180375" lon="9.19583402314269"><ele>400.0</ele><time>2026-03-29T10:32:32Z</time></trkpt><trkpt lat="44.82164462418228" lon="9.195866803956495"><ele>400.0</ele><time>2026-03-29T10:32:33Z</time></trkpt><trkpt lat="44.82173063409043" lon="9.195897788341286"><ele>400.0</ele><time>2026-03-29T10:32:34Z</time></trkpt><trkpt lat="44.8218065510804" lon="9.195922445655908"><ele>400.0</ele><time>2026-03-29T10:32:35Z</time></trkpt><trkpt lat="44.82191279101321" lon="9.195948347133115"><ele>401.2</ele><time>2026-03-29T10:32:37Z</time></trkpt><trkpt lat="44.821992432865876" lon="9.19598847944758"><ele>402.4</ele><time>2026-03-29T10:32:40Z</time></trkpt><trkpt lat="44.82204678657734" lon="9.196038190647124"><ele>403.6</ele><time>2026-03-29T10:32:42Z</time></trkpt><trkpt lat="44.82202107378156" lon="9.196202286754453"><ele>404.8</ele><time>2026-03-29T10:32:43Z</time></trkpt><trkpt lat="44.821995890980794" lon="9.196317367492856"><ele>406.0</ele><time>2026-03-29T10:32:44Z</time></trkpt><trkpt lat="44.82198376989994" lon="9.196459858549721"><ele>406.25</ele><time>2026-03-29T10:32:45Z</time></trkpt><trkpt lat="44.82197044577727" lon="9.196625460925102"><ele>406.5</ele><time>2026-03-29T10:32:46Z</time></trkpt><trkpt lat="44.82195281549576" lon="9.19678675828453"><ele>406.75</ele><time>2026-03-29T10:32:47Z</time></trkpt><trkpt lat="44.82193525328559" lon="9.196940928902558"><ele>407.0</ele><time>2026-03-29T10:32:48Z</time></trkpt><trkpt lat="44.82191691484705" lon="9.197090114582776"><ele>407.0</ele><time>2026-03-29T10:32:49Z</time></trkpt><trkpt lat="44.82190102233389" lon="9.197234377007875"><ele>407.0</ele><time>2026-03-29T10:32:50Z</time></trkpt><trkpt lat="44.82188491490965" lon="9.197374582658068"><ele>407.0</ele><time>2026-03-29T10:32:51Z</time></trkpt><trkpt lat="44.821869370744444" lon="9.197514055568089"><ele>407.0</ele><time>2026-03-29T10:32:52Z</time></trkpt><trkpt lat="44.82185767119304" lon="9.197642567798486"><ele>407.0</ele><time>2026-03-29T10:32:53Z</time></trkpt><trkpt lat="44.8218472437284" lon="9.197760336915866"><ele>407.20000000000005</ele><time>2026-03-29T10:32:54Z</time></trkpt><trkpt lat="44.82183439644883" lon="9.197884389893511"><ele>407.4</ele><time>2026-03-29T10:32:55Z</time></trkpt><trkpt lat="44.82181928416553" lon="9.198011630267903"><ele>407.6</ele><time>2026-03-29T10:32:56Z</time></trkpt><trkpt lat="44.82180407740442" lon="9.19814015776201"><ele>407.79999999999995</ele><time>2026-03-29T10:32:57Z</time></trkpt><trkpt lat="44.82178979350519" lon="9.198280300968857"><ele>408.0</ele><time>2026-03-29T10:32:58Z</time></trkpt><trkpt lat="44.821773772957094" lon="9.198421011218995"><ele>407.59999999999997</ele><time>2026-03-29T10:32:59Z</time></trkpt><trkpt lat="44.82175543472829" lon="9.198563036020543"><ele>407.2</ele><time>2026-03-29T10:33:00Z</time></trkpt><trkpt lat="44.82173706046724" lon="9.198707225465931"><ele>406.8</ele><time>2026-03-29T10:33:01Z</time></trkpt><trkpt lat="44.82171943205072" lon="9.19885368286393"><ele>406.4</ele><time>2026-03-29T10:33:02Z</time></trkpt><trkpt lat="44.82170183646149" lon="9.19900099568355"><ele>406.0</ele><time>2026-03-29T10:33:03Z</time></trkpt><trkpt lat="44.82168463424881" lon="9.199148032348106"><ele>406.0</ele><time>2026-03-29T10:33:04Z</time></trkpt><trkpt lat="44.82166842098659" lon="9.199294150997229"><ele>406.0</ele><time>2026-03-29T10:33:05Z</time></trkpt><trkpt lat="44.82164999521782" lon="9.199432713002176"><ele>406.0</ele><time>2026-03-29T10:33:06Z</time></trkpt><trkpt lat="44.821634283870274" lon="9.199556226651588"><ele>406.0</ele><time>2026-03-29T10:33:07Z</time></trkpt><trkpt lat="44.821631841783464" lon="9.199675290259576"><ele>406.0</ele><time>2026-03-29T10:33:08Z</time></trkpt><trkpt lat="44.82165065704582" lon="9.199794746386129"><ele>406.6</ele><time>2026-03-29T10:33:09Z</time></trkpt><trkpt lat="44.82171069912912" lon="9.199898837808611"><ele>407.20000000000005</ele><time>2026-03-29T10:33:10Z</time></trkpt><trkpt lat="44.82179092534003" lon="9.1999868850537"><ele>407.79999999999995</ele><time>2026-03-29T10:33:11Z</time></trkpt><trkpt lat="44.82188684259839" lon="9.200050610374246"><ele>408.4</ele><time>2026-03-29T10:33:12Z</time></trkpt><trkpt lat="44.821983841923974" lon="9.200109810164466"><ele>409.0</ele><time>2026-03-29T10:33:13Z</time></trkpt><trkpt lat="44.82208298685748" lon="9.200170652278988"><ele>410.0</ele><time>2026-03-29T10:33:14Z</time></trkpt><trkpt lat="44.82218229171243" lon="9.20023386601095"><ele>411.0</ele><time>2026-03-29T10:33:15Z</time></trkpt><trkpt lat="44.82227620635378" lon="9.200291506554633"><ele>412.0</ele><time>2026-03-29T10:33:16Z</time></trkpt><trkpt lat="44.822362291925415" lon="9.20034433013437"><ele>413.0</ele><time>2026-03-29T10:33:17Z</time></trkpt><trkpt lat="44.82243800826406" lon="9.200391434705416"><ele>414.0</ele><time>2026-03-29T10:33:18Z</time></trkpt><trkpt lat="44.822512770126124" lon="9.200441706683302"><ele>414.0</ele><time>2026-03-29T10:33:19Z</time></trkpt><trkpt lat="44.82257913676022" lon="9.20048528779325"><ele>414.0</ele><time>2026-03-29T10:33:20Z</time></trkpt><trkpt lat="44.82264001010394" lon="9.200525635608042"><ele>414.0</ele><time>2026-03-29T10:33:21Z</time></trkpt><trkpt lat="44.82273533616225" lon="9.200590076422445"><ele>414.0</ele><time>2026-03-29T10:33:23Z</time></trkpt><trkpt lat="44.82280365725614" lon="9.200661430287948"><ele>414.0</ele><time>2026-03-29T10:33:26Z</time></trkpt><trkpt lat="44.822807099093325" lon="9.200857939005827"><ele>414.8333333333333</ele><time>2026-03-29T10:33:28.999Z</time></trkpt><trkpt lat="44.82278403322938" lon="9.200966279883637"><ele>415.66666666666663</ele><time>2026-03-29T10:33:29.999Z</time></trkpt><trkpt lat="44.822752444600546" lon="9.201083653290626"><ele>416.5</ele><time>2026-03-29T10:33:30.999Z</time></trkpt><trkpt lat="44.822718836677275" lon="9.201213548030008"><ele>417.3333333333333</ele><time>2026-03-29T10:33:31.999Z</time></trkpt><trkpt lat="44.82269113518453" lon="9.201327774591595"><ele>418.16666666666663</ele><time>2026-03-29T10:33:32.999Z</time></trkpt><trkpt lat="44.822660383823866" lon="9.201441784412468"><ele>419.0</ele><time>2026-03-29T10:33:33.999Z</time></trkpt><trkpt lat="44.822630231781766" lon="9.201551035612496"><ele>419.16666666666663</ele><time>2026-03-29T10:33:34.999Z</time></trkpt><trkpt lat="44.8226022164016" lon="9.201657629076093"><ele>419.3333333333333</ele><time>2026-03-29T10:33:35.999Z</time></trkpt><trkpt lat="44.82257544488093" lon="9.201759122505091"><ele>419.5</ele><time>2026-03-29T10:33:36.999Z</time></trkpt><trkpt lat="44.82255074808451" lon="9.201858440211858"><ele>419.66666666666663</ele><time>2026-03-29T10:33:37.999Z</time></trkpt><trkpt lat="44.82252640789194" lon="9.201955797827251"><ele>419.8333333333333</ele><time>2026-03-29T10:33:38.999Z</time></trkpt><trkpt lat="44.82248414153895" lon="9.20204581385331"><ele>420.0</ele><time>2026-03-29T10:33:39.999Z</time></trkpt><trkpt lat="44.82245633198321" lon="9.202147448862984"><ele>420.0</ele><time>2026-03-29T10:33:40.999Z</time></trkpt><trkpt lat="44.82242755750648" lon="9.202252610358538"><ele>420.0</ele><time>2026-03-29T10:33:41.999Z</time></trkpt><trkpt lat="44.82239702570983" lon="9.202365143380442"><ele>420.0</ele><time>2026-03-29T10:33:42.999Z</time></trkpt><trkpt lat="44.822367142614425" lon="9.202481679016303"><ele>420.0</ele><time>2026-03-29T10:33:43.999Z</time></trkpt><trkpt lat="44.822336309170176" lon="9.202601920728375"><ele>420.0</ele><time>2026-03-29T10:33:44.999Z</time></trkpt><trkpt lat="44.82231935577992" lon="9.202730749766149"><ele>420.0</ele><time>2026-03-29T10:33:45.999Z</time></trkpt><trkpt lat="44.82228261334835" lon="9.202853699476435"><ele>420.6</ele><time>2026-03-29T10:33:46.999Z</time></trkpt><trkpt lat="44.82224721976635" lon="9.20298181101054"><ele>421.2</ele><time>2026-03-29T10:33:47.999Z</time></trkpt><trkpt lat="44.82221393065769" lon="9.203112579403202"><ele>421.79999999999995</ele><time>2026-03-29T10:33:48.999Z</time></trkpt><trkpt lat="44.82218185504974" lon="9.20324368756952"><ele>422.4</ele><time>2026-03-29T10:33:49.999Z</time></trkpt><trkpt lat="44.822149101939694" lon="9.203370285621094"><ele>423.0</ele><time>2026-03-29T10:33:50.999Z</time></trkpt><trkpt lat="44.822117863055894" lon="9.203497292263703"><ele>423.0</ele><time>2026-03-29T10:33:51.999Z</time></trkpt><trkpt lat="44.822084979720856" lon="9.203625486329763"><ele>423.0</ele><time>2026-03-29T10:33:52.999Z</time></trkpt><trkpt lat="44.822046361567374" lon="9.203750442730831"><ele>423.0</ele><time>2026-03-29T10:33:53.999Z</time></trkpt><trkpt lat="44.82201316325914" lon="9.203880375261868"><ele>423.0</ele><time>2026-03-29T10:33:54.999Z</time></trkpt><trkpt lat="44.821982722436495" lon="9.204013492543343"><ele>423.0</ele><time>2026-03-29T10:33:55.999Z</time></trkpt><trkpt lat="44.82194909554601" lon="9.20414896885228"><ele>423.0</ele><time>2026-03-29T10:33:56.999Z</time></trkpt><trkpt lat="44.82191415076046" lon="9.204286075060175"><ele>423.0</ele><time>2026-03-29T10:33:57.999Z</time></trkpt><trkpt lat="44.821881140329936" lon="9.204424791938418"><ele>423.0</ele><time>2026-03-29T10:33:58.999Z</time></trkpt><trkpt lat="44.82184494846466" lon="9.204562778242744"><ele>423.0</ele><time>2026-03-29T10:33:59.999Z</time></trkpt><trkpt lat="44.82180854644047" lon="9.204696962456424"><ele>423.0</ele><time>2026-03-29T10:34:00.999Z</time></trkpt><trkpt lat="44.821771600096" lon="9.204832638245351"><ele>424.0</ele><time>2026-03-29T10:34:01.999Z</time></trkpt><trkpt lat="44.821727704385516" lon="9.204970560059813"><ele>425.0</ele><time>2026-03-29T10:34:02.999Z</time></trkpt><trkpt lat="44.82167567835846" lon="9.20510698473666"><ele>425.99999999999994</ele><time>2026-03-29T10:34:03.999Z</time></trkpt><trkpt lat="44.82162255647994" lon="9.20524403779807"><ele>427.0</ele><time>2026-03-29T10:34:04.999Z</time></trkpt><trkpt lat="44.82155975811584" lon="9.20537564418227"><ele>428.0</ele><time>2026-03-29T10:34:05.999Z</time></trkpt><trkpt lat="44.82148941998121" lon="9.205504852217917"><ele>428.0</ele><time>2026-03-29T10:34:06.999Z</time></trkpt><trkpt lat="44.82141430283814" lon="9.205630553366268"><ele>428.0</ele><time>2026-03-29T10:34:07.999Z</time></trkpt><trkpt lat="44.82133014300474" lon="9.205751760025429"><ele>428.0</ele><time>2026-03-29T10:34:08.999Z</time></trkpt><trkpt lat="44.821242205983026" lon="9.205875333695094"><ele>428.0</ele><time>2026-03-29T10:34:09.999Z</time></trkpt><trkpt lat="44.821151891948034" lon="9.205995573386772"><ele>427.5</ele><time>2026-03-29T10:34:10.999Z</time></trkpt><trkpt lat="44.82105368453117" lon="9.206108510171983"><ele>427.0</ele><time>2026-03-29T10:34:11.999Z</time></trkpt><trkpt lat="44.820956910235466" lon="9.206224560625756"><ele>426.5</ele><time>2026-03-29T10:34:12.999Z</time></trkpt><trkpt lat="44.820873867015415" lon="9.206397962739869"><ele>426.0</ele><time>2026-03-29T10:34:13.999Z</time></trkpt><trkpt lat="44.820791482084765" lon="9.206517511335509"><ele>427.5</ele><time>2026-03-29T10:34:15.001Z</time></trkpt><trkpt lat="44.820705211416055" lon="9.206638774532639"><ele>429.0</ele><time>2026-03-29T10:34:16.001Z</time></trkpt><trkpt lat="44.820621231661605" lon="9.206762088539218"><ele>430.5</ele><time>2026-03-29T10:34:17.001Z</time></trkpt><trkpt lat="44.82053845204365" lon="9.20688119095685"><ele>432.0</ele><time>2026-03-29T10:34:18.001Z</time></trkpt><trkpt lat="44.820456661749006" lon="9.2070045278934"><ele>432.0</ele><time>2026-03-29T10:34:19.001Z</time></trkpt><trkpt lat="44.82037460333831" lon="9.207125441936457"><ele>432.0</ele><time>2026-03-29T10:34:20.001Z</time></trkpt><trkpt lat="44.82028821423003" lon="9.207243009304028"><ele>432.0</ele><time>2026-03-29T10:34:21.001Z</time></trkpt><trkpt lat="44.82020858359862" lon="9.207361699235708"><ele>432.0</ele><time>2026-03-29T10:34:22.001Z</time></trkpt><trkpt lat="44.82013203536952" lon="9.207472799376848"><ele>432.6</ele><time>2026-03-29T10:34:23.001Z</time></trkpt><trkpt lat="44.8200541146952" lon="9.207586530612675"><ele>433.20000000000005</ele><time>2026-03-29T10:34:24.001Z</time></trkpt><trkpt lat="44.81998014506908" lon="9.207698493299318"><ele>433.8</ele><time>2026-03-29T10:34:25.001Z</time></trkpt><trkpt lat="44.819908071595016" lon="9.207802738663919"><ele>434.4</ele><time>2026-03-29T10:34:26.001Z</time></trkpt><trkpt lat="44.81984706614672" lon="9.207895334958252"><ele>435.0</ele><time>2026-03-29T10:34:27.001Z</time></trkpt><trkpt lat="44.819789853825434" lon="9.20798749412697"><ele>435.0</ele><time>2026-03-29T10:34:28.001Z</time></trkpt><trkpt lat="44.81972632680643" lon="9.20807968780455"><ele>435.0</ele><time>2026-03-29T10:34:29.001Z</time></trkpt><trkpt lat="44.81965774542742" lon="9.208177639770216"><ele>435.0</ele><time>2026-03-29T10:34:30Z</time></trkpt><trkpt lat="44.81958817752114" lon="9.208280008488869"><ele>435.0</ele><time>2026-03-29T10:34:31Z</time></trkpt><trkpt lat="44.819519394174094" lon="9.208379922596222"><ele>435.0</ele><time>2026-03-29T10:34:32Z</time></trkpt><trkpt lat="44.819450249708815" lon="9.208476059429206"><ele>434.6</ele><time>2026-03-29T10:34:33Z</time></trkpt><trkpt lat="44.819378615032626" lon="9.208577613582815"><ele>434.2</ele><time>2026-03-29T10:34:34Z</time></trkpt><trkpt lat="44.819311830243976" lon="9.208685911402466"><ele>433.79999999999995</ele><time>2026-03-29T10:34:35Z</time></trkpt><trkpt lat="44.81924451353484" lon="9.208792855836759"><ele>433.4</ele><time>2026-03-29T10:34:36Z</time></trkpt><trkpt lat="44.81917633735357" lon="9.208896090916246"><ele>433.0</ele><time>2026-03-29T10:34:37Z</time></trkpt><trkpt lat="44.81911265186071" lon="9.20900761863105"><ele>434.2</ele><time>2026-03-29T10:34:38Z</time></trkpt><trkpt lat="44.81905366943643" lon="9.209128053752677"><ele>435.4</ele><time>2026-03-29T10:34:39Z</time></trkpt><trkpt lat="44.81900832752163" lon="9.209259204769289"><ele>436.59999999999997</ele><time>2026-03-29T10:34:40Z</time></trkpt><trkpt lat="44.81899125184439" lon="9.209418186589339"><ele>437.79999999999995</ele><time>2026-03-29T10:34:41Z</time></trkpt><trkpt lat="44.81898424858904" lon="9.209581636458786"><ele>439.0</ele><time>2026-03-29T10:34:42Z</time></trkpt><trkpt lat="44.81899817753889" lon="9.209751484788253"><ele>440.33333333333337</ele><time>2026-03-29T10:34:43Z</time></trkpt><trkpt lat="44.819032772334744" lon="9.209940249299425"><ele>441.66666666666663</ele><time>2026-03-29T10:34:44Z</time></trkpt><trkpt lat="44.81908492911032" lon="9.210148248890158"><ele>443.0</ele><time>2026-03-29T10:34:45Z</time></trkpt><trkpt lat="44.81913339078072" lon="9.210392451393862"><ele>442.0</ele><time>2026-03-29T10:34:46Z</time></trkpt><trkpt lat="44.81919547471735" lon="9.210658452304248"><ele>441.0</ele><time>2026-03-29T10:34:47Z</time></trkpt><trkpt lat="44.81926211222888" lon="9.210948071607092"><ele>440.0</ele><time>2026-03-29T10:34:48Z</time></trkpt><trkpt lat="44.81933554204737" lon="9.211238978839301"><ele>448.0</ele><time>2026-03-29T10:34:49Z</time></trkpt><trkpt lat="44.819400448904986" lon="9.211525826893638"><ele>456.0</ele><time>2026-03-29T10:34:50Z</time></trkpt><trkpt lat="44.819467801465635" lon="9.211778586983133"><ele>464.0</ele><time>2026-03-29T10:34:51Z</time></trkpt><trkpt lat="44.81952531895931" lon="9.212013327397434"><ele>464.0</ele><time>2026-03-29T10:34:52Z</time></trkpt><trkpt lat="44.819579132387226" lon="9.212226556460928"><ele>464.0</ele><time>2026-03-29T10:34:53Z</time></trkpt><trkpt lat="44.81962791697581" lon="9.212426137985506"><ele>464.0</ele><time>2026-03-29T10:34:54Z</time></trkpt><trkpt lat="44.8196660187311" lon="9.212603814722794"><ele>464.0</ele><time>2026-03-29T10:34:55Z</time></trkpt><trkpt lat="44.81967643859093" lon="9.212774496312758"><ele>462.5</ele><time>2026-03-29T10:34:56Z</time></trkpt><trkpt lat="44.81964644967713" lon="9.212934154929611"><ele>461.0</ele><time>2026-03-29T10:34:57Z</time></trkpt><trkpt lat="44.819585381813056" lon="9.213081407895379"><ele>459.5</ele><time>2026-03-29T10:34:58Z</time></trkpt><trkpt lat="44.81948306864513" lon="9.213208237240766"><ele>458.0</ele><time>2026-03-29T10:34:59Z</time></trkpt><trkpt lat="44.81935953402645" lon="9.213297178963261"><ele>455.0</ele><time>2026-03-29T10:35:00Z</time></trkpt><trkpt lat="44.81923756062155" lon="9.213378649807119"><ele>452.0</ele><time>2026-03-29T10:35:01Z</time></trkpt><trkpt lat="44.8191240088123" lon="9.213467356222633"><ele>449.0</ele><time>2026-03-29T10:35:02Z</time></trkpt><trkpt lat="44.81902125138029" lon="9.213567892079864"><ele>446.0</ele><time>2026-03-29T10:35:03Z</time></trkpt><trkpt lat="44.81892946521443" lon="9.213676826171024"><ele>446.0</ele><time>2026-03-29T10:35:04Z</time></trkpt><trkpt lat="44.818870979595" lon="9.21380229120113"><ele>446.0</ele><time>2026-03-29T10:35:05Z</time></trkpt><trkpt lat="44.81884133303798" lon="9.21395663119825"><ele>446.0</ele><time>2026-03-29T10:35:06Z</time></trkpt><trkpt lat="44.818840894478484" lon="9.214132516691578"><ele>446.0</ele><time>2026-03-29T10:35:07Z</time></trkpt><trkpt lat="44.81886225142411" lon="9.214310543358318"><ele>447.75</ele><time>2026-03-29T10:35:08Z</time></trkpt><trkpt lat="44.818870476489636" lon="9.214475921626473"><ele>449.5</ele><time>2026-03-29T10:35:09Z</time></trkpt><trkpt lat="44.81883527893039" lon="9.214622851627663"><ele>451.25</ele><time>2026-03-29T10:35:10Z</time></trkpt><trkpt lat="44.81875801656474" lon="9.214747643742434"><ele>453.0</ele><time>2026-03-29T10:35:11Z</time></trkpt><trkpt lat="44.818660243940435" lon="9.214842797359546"><ele>454.25</ele><time>2026-03-29T10:35:12Z</time></trkpt><trkpt lat="44.81853971198143" lon="9.214902331850471"><ele>455.5</ele><time>2026-03-29T10:35:13Z</time></trkpt><trkpt lat="44.81841425218481" lon="9.214939471335473"><ele>456.75</ele><time>2026-03-29T10:35:14Z</time></trkpt><trkpt lat="44.818286955878605" lon="9.214897519735656"><ele>458.0</ele><time>2026-03-29T10:35:15Z</time></trkpt><trkpt lat="44.81816605980773" lon="9.214796575123918"><ele>458.0</ele><time>2026-03-29T10:35:16Z</time></trkpt><trkpt lat="44.81802492538358" lon="9.21470462870984"><ele>458.0</ele><time>2026-03-29T10:35:17Z</time></trkpt><trkpt lat="44.81789871935341" lon="9.21458793647723"><ele>458.0</ele><time>2026-03-29T10:35:18Z</time></trkpt><trkpt lat="44.81777052612635" lon="9.214490877325412"><ele>459.25</ele><time>2026-03-29T10:35:19Z</time></trkpt><trkpt lat="44.81764064239402" lon="9.21443062522127"><ele>460.5</ele><time>2026-03-29T10:35:20Z</time></trkpt><trkpt lat="44.817508153564766" lon="9.214410481189026"><ele>461.75</ele><time>2026-03-29T10:35:21Z</time></trkpt><trkpt lat="44.817376144569124" lon="9.214435905178645"><ele>463.0</ele><time>2026-03-29T10:35:22Z</time></trkpt><trkpt lat="44.81724584103552" lon="9.214509381844353"><ele>463.0</ele><time>2026-03-29T10:35:23Z</time></trkpt><trkpt lat="44.817117962228686" lon="9.214604512295043"><ele>463.0</ele><time>2026-03-29T10:35:24Z</time></trkpt><trkpt lat="44.81700114722125" lon="9.2146715579354"><ele>463.0</ele><time>2026-03-29T10:35:25Z</time></trkpt><trkpt lat="44.81690069675727" lon="9.214711030918366"><ele>463.0</ele><time>2026-03-29T10:35:26Z</time></trkpt><trkpt lat="44.81683098959532" lon="9.214781914132914"><ele>465.4</ele><time>2026-03-29T10:35:26.999Z</time></trkpt><trkpt lat="44.816803997732734" lon="9.214902571183972"><ele>467.79999999999995</ele><time>2026-03-29T10:35:27.999Z</time></trkpt><trkpt lat="44.816827724327766" lon="9.215035989222567"><ele>470.2</ele><time>2026-03-29T10:35:28.999Z</time></trkpt><trkpt lat="44.81689586331386" lon="9.215138065884672"><ele>472.6</ele><time>2026-03-29T10:35:29.999Z</time></trkpt><trkpt lat="44.8169980215725" lon="9.215172750962392"><ele>475.0</ele><time>2026-03-29T10:35:30.999Z</time></trkpt><trkpt lat="44.817110351652225" lon="9.21515397721933"><ele>475.0</ele><time>2026-03-29T10:35:31.999Z</time></trkpt><trkpt lat="44.81722394605491" lon="9.215094259495613"><ele>475.0</ele><time>2026-03-29T10:35:32.999Z</time></trkpt><trkpt lat="44.817337407326846" lon="9.215093628389495"><ele>475.0</ele><time>2026-03-29T10:35:33.999Z</time></trkpt><trkpt lat="44.81742760449182" lon="9.215206655554896"><ele>475.0</ele><time>2026-03-29T10:35:34.999Z</time></trkpt><trkpt lat="44.81751390393722" lon="9.215347771906531"><ele>475.0</ele><time>2026-03-29T10:35:35.999Z</time></trkpt><trkpt lat="44.81761636461016" lon="9.215492213799648"><ele>475.0</ele><time>2026-03-29T10:35:36.999Z</time></trkpt><trkpt lat="44.81771141922016" lon="9.215657532759115"><ele>475.0</ele><time>2026-03-29T10:35:37.999Z</time></trkpt><trkpt lat="44.81780618472666" lon="9.215823672054972"><ele>475.0</ele><time>2026-03-29T10:35:38.999Z</time></trkpt><trkpt lat="44.81788225336226" lon="9.21598233119894"><ele>475.75</ele><time>2026-03-29T10:35:39.999Z</time></trkpt><trkpt lat="44.81791786926247" lon="9.216136488193154"><ele>476.5</ele><time>2026-03-29T10:35:40.999Z</time></trkpt><trkpt lat="44.81788735450406" lon="9.216308992398439"><ele>477.25</ele><time>2026-03-29T10:35:41.999Z</time></trkpt><trkpt lat="44.81788443051956" lon="9.216498603193896"><ele>478.0</ele><time>2026-03-29T10:35:42.999Z</time></trkpt><trkpt lat="44.81791094142433" lon="9.21670030359716"><ele>480.75</ele><time>2026-03-29T10:35:43.999Z</time></trkpt><trkpt lat="44.817985305871076" lon="9.216885328241574"><ele>483.5</ele><time>2026-03-29T10:35:44.999Z</time></trkpt><trkpt lat="44.818055335807394" lon="9.217060128479899"><ele>486.25</ele><time>2026-03-29T10:35:45.999Z</time></trkpt><trkpt lat="44.81814555336998" lon="9.217208363302284"><ele>489.0</ele><time>2026-03-29T10:35:46.999Z</time></trkpt><trkpt lat="44.818270620216666" lon="9.217316821002399"><ele>491.4</ele><time>2026-03-29T10:35:47.999Z</time></trkpt><trkpt lat="44.8183901902692" lon="9.21740052152125"><ele>493.79999999999995</ele><time>2026-03-29T10:35:48.999Z</time></trkpt><trkpt lat="44.81846707248996" lon="9.217496487953191"><ele>496.20000000000005</ele><time>2026-03-29T10:35:49.999Z</time></trkpt><trkpt lat="44.81849190558733" lon="9.21762298389291"><ele>498.6</ele><time>2026-03-29T10:35:50.999Z</time></trkpt><trkpt lat="44.81846276146575" lon="9.217754683864246"><ele>501.0</ele><time>2026-03-29T10:35:51.999Z</time></trkpt><trkpt lat="44.81839264586214" lon="9.217869336388384"><ele>501.0</ele><time>2026-03-29T10:35:52.999Z</time></trkpt><trkpt lat="44.8182880128357" lon="9.217937268071589"><ele>501.0</ele><time>2026-03-29T10:35:53.999Z</time></trkpt><trkpt lat="44.818176583149125" lon="9.217936728104744"><ele>501.0</ele><time>2026-03-29T10:35:54.999Z</time></trkpt><trkpt lat="44.8180830007514" lon="9.217826609273903"><ele>501.0</ele><time>2026-03-29T10:35:55.999Z</time></trkpt><trkpt lat="44.818008747820095" lon="9.217688321059974"><ele>501.0</ele><time>2026-03-29T10:35:56.999Z</time></trkpt><trkpt lat="44.817910271843765" lon="9.217551394404639"><ele>501.0</ele><time>2026-03-29T10:35:57.999Z</time></trkpt><trkpt lat="44.817815897987956" lon="9.217403030435136"><ele>501.0</ele><time>2026-03-29T10:35:58.999Z</time></trkpt><trkpt lat="44.817723771270906" lon="9.21727943730084"><ele>501.0</ele><time>2026-03-29T10:35:59.999Z</time></trkpt><trkpt lat="44.817634392815854" lon="9.217187039923521"><ele>499.75</ele><time>2026-03-29T10:36:00.999Z</time></trkpt><trkpt lat="44.81753501280726" lon="9.217146645715887"><ele>498.5</ele><time>2026-03-29T10:36:01.999Z</time></trkpt><trkpt lat="44.81742361194335" lon="9.21717989609682"><ele>497.25</ele><time>2026-03-29T10:36:02.999Z</time></trkpt><trkpt lat="44.8173062414103" lon="9.217259197614858"><ele>496.0</ele><time>2026-03-29T10:36:03.999Z</time></trkpt><trkpt lat="44.817179972423546" lon="9.217337267138564"><ele>498.33333333333337</ele><time>2026-03-29T10:36:04.999Z</time></trkpt><trkpt lat="44.81705047366016" lon="9.21741743215017"><ele>500.66666666666663</ele><time>2026-03-29T10:36:05.999Z</time></trkpt><trkpt lat="44.816928672140584" lon="9.21753872728427"><ele>503.0</ele><time>2026-03-29T10:36:06.999Z</time></trkpt><trkpt lat="44.816818715568445" lon="9.21771023572372"><ele>503.0</ele><time>2026-03-29T10:36:07.999Z</time></trkpt><trkpt lat="44.81670523516028" lon="9.217893876371766"><ele>503.0</ele><time>2026-03-29T10:36:08.999Z</time></trkpt><trkpt lat="44.81659310011676" lon="9.218086879816926"><ele>503.0</ele><time>2026-03-29T10:36:09.999Z</time></trkpt><trkpt lat="44.81648377154933" lon="9.21827903070541"><ele>506.5</ele><time>2026-03-29T10:36:10.999Z</time></trkpt><trkpt lat="44.81638755212277" lon="9.218454526185594"><ele>510.0</ele><time>2026-03-29T10:36:11.999Z</time></trkpt><trkpt lat="44.816306115884" lon="9.21861023493132"><ele>513.5</ele><time>2026-03-29T10:36:12.999Z</time></trkpt><trkpt lat="44.81624512171768" lon="9.218751004776319"><ele>517.0</ele><time>2026-03-29T10:36:13.999Z</time></trkpt><trkpt lat="44.81622090406455" lon="9.21888068982311"><ele>519.6</ele><time>2026-03-29T10:36:14.999Z</time></trkpt><trkpt lat="44.81624377936632" lon="9.219000602076118"><ele>522.2</ele><time>2026-03-29T10:36:15.999Z</time></trkpt><trkpt lat="44.81631202476653" lon="9.219083130312226"><ele>524.8</ele><time>2026-03-29T10:36:16.999Z</time></trkpt><trkpt lat="44.81639108846897" lon="9.219151109585694"><ele>527.4</ele><time>2026-03-29T10:36:17.999Z</time></trkpt><trkpt lat="44.81650176311284" lon="9.21913335167865"><ele>530.0</ele><time>2026-03-29T10:36:18.999Z</time></trkpt><trkpt lat="44.816601602159736" lon="9.219030384482926"><ele>527.25</ele><time>2026-03-29T10:36:19.999Z</time></trkpt><trkpt lat="44.816695290006464" lon="9.218940163178818"><ele>524.5</ele><time>2026-03-29T10:36:21Z</time></trkpt><trkpt lat="44.816808529700566" lon="9.218886777243823"><ele>521.75</ele><time>2026-03-29T10:36:22Z</time></trkpt><trkpt lat="44.81691936606327" lon="9.21881077404953"><ele>519.0</ele><time>2026-03-29T10:36:23Z</time></trkpt><trkpt lat="44.81702818961563" lon="9.218739730639902"><ele>519.0</ele><time>2026-03-29T10:36:24Z</time></trkpt><trkpt lat="44.81713068454781" lon="9.218683484218358"><ele>519.0</ele><time>2026-03-29T10:36:25Z</time></trkpt><trkpt lat="44.817233704912205" lon="9.21870272580018"><ele>519.0</ele><time>2026-03-29T10:36:26Z</time></trkpt><trkpt lat="44.81730262649811" lon="9.218798055053007"><ele>519.0</ele><time>2026-03-29T10:36:27Z</time></trkpt><trkpt lat="44.81732221715932" lon="9.218937844617704"><ele>519.0</ele><time>2026-03-29T10:36:28Z</time></trkpt><trkpt lat="44.81729238315681" lon="9.219077070429416"><ele>520.75</ele><time>2026-03-29T10:36:29Z</time></trkpt><trkpt lat="44.81721593220227" lon="9.21919996601243"><ele>522.5</ele><time>2026-03-29T10:36:30Z</time></trkpt><trkpt lat="44.81712761285182" lon="9.219327784548947"><ele>524.25</ele><time>2026-03-29T10:36:31Z</time></trkpt><trkpt lat="44.81702821571563" lon="9.21947930382168"><ele>526.0</ele><time>2026-03-29T10:36:32Z</time></trkpt><trkpt lat="44.816912341162265" lon="9.219635179268847"><ele>527.3333333333334</ele><time>2026-03-29T10:36:33Z</time></trkpt><trkpt lat="44.81677364923642" lon="9.21977009003209"><ele>528.6666666666666</ele><time>2026-03-29T10:36:34Z</time></trkpt><trkpt lat="44.81664142590406" lon="9.219871158575431"><ele>530.0</ele><time>2026-03-29T10:36:35Z</time></trkpt><trkpt lat="44.816528214065904" lon="9.219991450366292"><ele>533.0</ele><time>2026-03-29T10:36:36Z</time></trkpt><trkpt lat="44.81643606387348" lon="9.220172382703117"><ele>536.0</ele><time>2026-03-29T10:36:37Z</time></trkpt><trkpt lat="44.816339846202986" lon="9.220379810256592"><ele>539.0</ele><time>2026-03-29T10:36:38Z</time></trkpt><trkpt lat="44.816214874214964" lon="9.22055965598794"><ele>541.0</ele><time>2026-03-29T10:36:39Z</time></trkpt><trkpt lat="44.816082645882815" lon="9.2207203076322"><ele>543.0</ele><time>2026-03-29T10:36:40Z</time></trkpt><trkpt lat="44.81595688375435" lon="9.22084835858444"><ele>545.0</ele><time>2026-03-29T10:36:41Z</time></trkpt><trkpt lat="44.815854466148934" lon="9.220962209391812"><ele>545.0</ele><time>2026-03-29T10:36:42Z</time></trkpt><trkpt lat="44.81577147289688" lon="9.221094588107901"><ele>545.0</ele><time>2026-03-29T10:36:43Z</time></trkpt><trkpt lat="44.815709174478656" lon="9.221260494998255"><ele>545.0</ele><time>2026-03-29T10:36:44Z</time></trkpt><trkpt lat="44.815651136602305" lon="9.221440117520714"><ele>545.0</ele><time>2026-03-29T10:36:45Z</time></trkpt><trkpt lat="44.8155819264105" lon="9.221625140402907"><ele>547.75</ele><time>2026-03-29T10:36:46Z</time></trkpt><trkpt lat="44.81550955451094" lon="9.221808391679733"><ele>550.5</ele><time>2026-03-29T10:36:47Z</time></trkpt><trkpt lat="44.8154605809846" lon="9.221978854399117"><ele>553.25</ele><time>2026-03-29T10:36:48Z</time></trkpt><trkpt lat="44.8154337930869" lon="9.222151879654856"><ele>556.0</ele><time>2026-03-29T10:36:49Z</time></trkpt><trkpt lat="44.815409958296264" lon="9.222329243084026"><ele>556.25</ele><time>2026-03-29T10:36:50Z</time></trkpt><trkpt lat="44.81536294323485" lon="9.22248990077108"><ele>556.5</ele><time>2026-03-29T10:36:51Z</time></trkpt><trkpt lat="44.81528388958721" lon="9.222608464593135"><ele>556.75</ele><time>2026-03-29T10:36:52Z</time></trkpt><trkpt lat="44.815180097192226" lon="9.222686125040179"><ele>557.0</ele><time>2026-03-29T10:36:53Z</time></trkpt><trkpt lat="44.815080373423015" lon="9.222744701703204"><ele>557.0</ele><time>2026-03-29T10:36:54Z</time></trkpt><trkpt lat="44.81501000798972" lon="9.222841819249314"><ele>557.0</ele><time>2026-03-29T10:36:55Z</time></trkpt><trkpt lat="44.81496304516364" lon="9.222984250915005"><ele>557.0</ele><time>2026-03-29T10:36:56Z</time></trkpt><trkpt lat="44.81492473657446" lon="9.22314909431867"><ele>557.0</ele><time>2026-03-29T10:36:57Z</time></trkpt><trkpt lat="44.81484839628931" lon="9.223286498773048"><ele>560.25</ele><time>2026-03-29T10:36:58Z</time></trkpt><trkpt lat="44.81472994406874" lon="9.223372874437898"><ele>563.5</ele><time>2026-03-29T10:36:59Z</time></trkpt><trkpt lat="44.814624117435876" lon="9.223472562794932"><ele>566.75</ele><time>2026-03-29T10:37:00Z</time></trkpt><trkpt lat="44.814544931184145" lon="9.223627641744056"><ele>570.0</ele><time>2026-03-29T10:37:01Z</time></trkpt><trkpt lat="44.81448169005318" lon="9.223827946486173"><ele>569.3333333333334</ele><time>2026-03-29T10:37:02Z</time></trkpt><trkpt lat="44.8144115966542" lon="9.224045423462817"><ele>568.6666666666667</ele><time>2026-03-29T10:37:03Z</time></trkpt><trkpt lat="44.81433838760364" lon="9.224259770803963"><ele>568.0</ele><time>2026-03-29T10:37:04Z</time></trkpt><trkpt lat="44.81426530646364" lon="9.224467022702509"><ele>568.0</ele><time>2026-03-29T10:37:05Z</time></trkpt><trkpt lat="44.81422400284075" lon="9.224672054743975"><ele>568.0</ele><time>2026-03-29T10:37:06Z</time></trkpt><trkpt lat="44.81419798375037" lon="9.224873830548402"><ele>568.0</ele><time>2026-03-29T10:37:07Z</time></trkpt><trkpt lat="44.81413575499553" lon="9.225067146446735"><ele>568.0</ele><time>2026-03-29T10:37:08Z</time></trkpt><trkpt lat="44.81404694756846" lon="9.225240508642292"><ele>572.0</ele><time>2026-03-29T10:37:09Z</time></trkpt><trkpt lat="44.81395218906472" lon="9.225436834822649"><ele>576.0</ele><time>2026-03-29T10:37:10Z</time></trkpt><trkpt lat="44.81382662432987" lon="9.225595009080966"><ele>580.0</ele><time>2026-03-29T10:37:11Z</time></trkpt><trkpt lat="44.81367262943182" lon="9.22571773574294"><ele>581.3333333333334</ele><time>2026-03-29T10:37:12Z</time></trkpt><trkpt lat="44.81351099152762" lon="9.225825224391931"><ele>582.6666666666666</ele><time>2026-03-29T10:37:13Z</time></trkpt><trkpt lat="44.813362174448365" lon="9.225916143374498"><ele>584.0</ele><time>2026-03-29T10:37:14Z</time></trkpt><trkpt lat="44.81322950448255" lon="9.225997582829521"><ele>584.0</ele><time>2026-03-29T10:37:15Z</time></trkpt><trkpt lat="44.813116713456886" lon="9.22608142676194"><ele>584.0</ele><time>2026-03-29T10:37:16Z</time></trkpt><trkpt lat="44.813026305091206" lon="9.226207454452174"><ele>584.0</ele><time>2026-03-29T10:37:17Z</time></trkpt><trkpt lat="44.81295853199707" lon="9.226388207640282"><ele>584.0</ele><time>2026-03-29T10:37:18Z</time></trkpt><trkpt lat="44.81288528615746" lon="9.226584026085408"><ele>583.3333333333333</ele><time>2026-03-29T10:37:19Z</time></trkpt><trkpt lat="44.812782226972466" lon="9.22678278030687"><ele>582.6666666666666</ele><time>2026-03-29T10:37:20Z</time></trkpt><trkpt lat="44.812666040548905" lon="9.226994471042659"><ele>582.0</ele><time>2026-03-29T10:37:21Z</time></trkpt><trkpt lat="44.81254098669338" lon="9.227200690141549"><ele>586.3333333333334</ele><time>2026-03-29T10:37:22Z</time></trkpt><trkpt lat="44.81242035190936" lon="9.227392162701976"><ele>590.6666666666667</ele><time>2026-03-29T10:37:23Z</time></trkpt><trkpt lat="44.81231244425231" lon="9.227561597036047"><ele>595.0</ele><time>2026-03-29T10:37:24Z</time></trkpt><trkpt lat="44.812215453532275" lon="9.227715307262127"><ele>595.0</ele><time>2026-03-29T10:37:25Z</time></trkpt><trkpt lat="44.8121377834559" lon="9.227864323913602"><ele>595.0</ele><time>2026-03-29T10:37:26Z</time></trkpt><trkpt lat="44.8120891651561" lon="9.228047320609145"><ele>595.0</ele><time>2026-03-29T10:37:27Z</time></trkpt><trkpt lat="44.81207433885075" lon="9.228250134865014"><ele>595.0</ele><time>2026-03-29T10:37:28Z</time></trkpt><trkpt lat="44.8120956056227" lon="9.228464483786611"><ele>596.6666666666667</ele><time>2026-03-29T10:37:28.999Z</time></trkpt><trkpt lat="44.81210906221281" lon="9.22869049521081"><ele>598.3333333333334</ele><time>2026-03-29T10:37:29.999Z</time></trkpt><trkpt lat="44.812136376236204" lon="9.228906970528953"><ele>600.0</ele><time>2026-03-29T10:37:30.999Z</time></trkpt><trkpt lat="44.81215264813979" lon="9.229105331465817"><ele>602.0</ele><time>2026-03-29T10:37:31.999Z</time></trkpt><trkpt lat="44.81214595896061" lon="9.229326286271975"><ele>604.0</ele><time>2026-03-29T10:37:32.999Z</time></trkpt><trkpt lat="44.81210981793131" lon="9.229559596278458"><ele>606.0</ele><time>2026-03-29T10:37:33.999Z</time></trkpt><trkpt lat="44.812043997973646" lon="9.229798267872297"><ele>605.0</ele><time>2026-03-29T10:37:34.999Z</time></trkpt><trkpt lat="44.811961999797155" lon="9.23004120780921"><ele>604.0</ele><time>2026-03-29T10:37:35.999Z</time></trkpt><trkpt lat="44.811885482537065" lon="9.230290435342974"><ele>603.0</ele><time>2026-03-29T10:37:36.999Z</time></trkpt><trkpt lat="44.81180238026514" lon="9.230512780663302"><ele>604.0</ele><time>2026-03-29T10:37:37.999Z</time></trkpt><trkpt lat="44.811748972991126" lon="9.230732635712265"><ele>605.0</ele><time>2026-03-29T10:37:38.999Z</time></trkpt><trkpt lat="44.811727894615416" lon="9.230970514897768"><ele>606.0</ele><time>2026-03-29T10:37:39.999Z</time></trkpt><trkpt lat="44.81174157719536" lon="9.231202163980528"><ele>606.0</ele><time>2026-03-29T10:37:40.999Z</time></trkpt><trkpt lat="44.811782236454754" lon="9.23139081286199"><ele>606.0</ele><time>2026-03-29T10:37:41.999Z</time></trkpt><trkpt lat="44.811834843896875" lon="9.231561571885047"><ele>606.0</ele><time>2026-03-29T10:37:42.999Z</time></trkpt><trkpt lat="44.81183919220846" lon="9.231726055405728"><ele>606.0</ele><time>2026-03-29T10:37:43.999Z</time></trkpt><trkpt lat="44.81178241814558" lon="9.231883192761298"><ele>607.5</ele><time>2026-03-29T10:37:44.999Z</time></trkpt><trkpt lat="44.81168355649018" lon="9.231954681206648"><ele>609.0</ele><time>2026-03-29T10:37:45.999Z</time></trkpt><trkpt lat="44.81160328295517" lon="9.232065024197032"><ele>610.5</ele><time>2026-03-29T10:37:46.999Z</time></trkpt><trkpt lat="44.81153165825666" lon="9.232182813543524"><ele>612.0</ele><time>2026-03-29T10:37:47.999Z</time></trkpt><trkpt lat="44.811496990709436" lon="9.232355816568887"><ele>613.25</ele><time>2026-03-29T10:37:48.999Z</time></trkpt><trkpt lat="44.811516396631696" lon="9.232566682439586"><ele>614.5</ele><time>2026-03-29T10:37:49.999Z</time></trkpt><trkpt lat="44.81155351103372" lon="9.232764511253025"><ele>615.75</ele><time>2026-03-29T10:37:50.999Z</time></trkpt><trkpt lat="44.811563849769605" lon="9.232950337779144"><ele>617.0</ele><time>2026-03-29T10:37:51.999Z</time></trkpt><trkpt lat="44.81148633991647" lon="9.233089939794795"><ele>619.5</ele><time>2026-03-29T10:37:52.999Z</time></trkpt><trkpt lat="44.8114025876783" lon="9.233216468571857"><ele>622.0</ele><time>2026-03-29T10:37:53.999Z</time></trkpt><trkpt lat="44.81128577288912" lon="9.233312826818308"><ele>624.5</ele><time>2026-03-29T10:37:54.999Z</time></trkpt><trkpt lat="44.811151761921494" lon="9.233390671793527"><ele>627.0</ele><time>2026-03-29T10:37:55.999Z</time></trkpt><trkpt lat="44.81102233343423" lon="9.233508164253118"><ele>627.3333333333334</ele><time>2026-03-29T10:37:56.999Z</time></trkpt><trkpt lat="44.81089514447326" lon="9.233654018759294"><ele>627.6666666666667</ele><time>2026-03-29T10:37:57.999Z</time></trkpt><trkpt lat="44.81077001944519" lon="9.233814699323409"><ele>628.0</ele><time>2026-03-29T10:37:58.999Z</time></trkpt><trkpt lat="44.81064245847671" lon="9.23397272993505"><ele>628.0</ele><time>2026-03-29T10:37:59.999Z</time></trkpt><trkpt lat="44.81051710834906" lon="9.234119079299887"><ele>628.0</ele><time>2026-03-29T10:38:00.999Z</time></trkpt><trkpt lat="44.810400042037415" lon="9.234269220377266"><ele>628.0</ele><time>2026-03-29T10:38:01.999Z</time></trkpt><trkpt lat="44.81030372509337" lon="9.234437461639256"><ele>628.0</ele><time>2026-03-29T10:38:02.999Z</time></trkpt><trkpt lat="44.81022464579405" lon="9.234622000600986"><ele>628.0</ele><time>2026-03-29T10:38:03.999Z</time></trkpt><trkpt lat="44.81016175618383" lon="9.23481924148708"><ele>628.0</ele><time>2026-03-29T10:38:04.999Z</time></trkpt><trkpt lat="44.81010806514874" lon="9.234991972306403"><ele>628.0</ele><time>2026-03-29T10:38:05.999Z</time></trkpt><trkpt lat="44.81003212542578" lon="9.235121094742388"><ele>628.0</ele><time>2026-03-29T10:38:06.999Z</time></trkpt><trkpt lat="44.8099115143933" lon="9.235183112693507"><ele>628.0</ele><time>2026-03-29T10:38:07.999Z</time></trkpt><trkpt lat="44.809803010426734" lon="9.235266577091611"><ele>628.0</ele><time>2026-03-29T10:38:08.999Z</time></trkpt><trkpt lat="44.809708641274376" lon="9.235337615306326"><ele>628.0</ele><time>2026-03-29T10:38:09.999Z</time></trkpt><trkpt lat="44.80964849879806" lon="9.23546939616284"><ele>630.5</ele><time>2026-03-29T10:38:10.999Z</time></trkpt><trkpt lat="44.809616515933484" lon="9.235637577324386"><ele>633.0</ele><time>2026-03-29T10:38:11.999Z</time></trkpt><trkpt lat="44.809621611230305" lon="9.235823277273788"><ele>635.5</ele><time>2026-03-29T10:38:12.999Z</time></trkpt><trkpt lat="44.80964501004702" lon="9.236010351516882"><ele>638.0</ele><time>2026-03-29T10:38:13.999Z</time></trkpt><trkpt lat="44.80967188636371" lon="9.236207178288423"><ele>638.0</ele><time>2026-03-29T10:38:14.999Z</time></trkpt><trkpt lat="44.809671684643426" lon="9.236419308839519"><ele>638.0</ele><time>2026-03-29T10:38:15.999Z</time></trkpt><trkpt lat="44.809639095081444" lon="9.23663794133236"><ele>638.0</ele><time>2026-03-29T10:38:16.999Z</time></trkpt><trkpt lat="44.80962497528502" lon="9.236857778570375"><ele>640.6666666666666</ele><time>2026-03-29T10:38:17.999Z</time></trkpt><trkpt lat="44.809638652123155" lon="9.237079953459249"><ele>643.3333333333334</ele><time>2026-03-29T10:38:18.999Z</time></trkpt><trkpt lat="44.80967501861746" lon="9.23730605501682"><ele>646.0</ele><time>2026-03-29T10:38:19.999Z</time></trkpt><trkpt lat="44.809710927233866" lon="9.237537882697964"><ele>646.0</ele><time>2026-03-29T10:38:20.999Z</time></trkpt><trkpt lat="44.80973924139542" lon="9.237768841522316"><ele>646.0</ele><time>2026-03-29T10:38:21.999Z</time></trkpt><trkpt lat="44.809763191149194" lon="9.23799607664871"><ele>646.0</ele><time>2026-03-29T10:38:22.999Z</time></trkpt><trkpt lat="44.8097814775794" lon="9.2382017799666"><ele>646.0</ele><time>2026-03-29T10:38:23.999Z</time></trkpt><trkpt lat="44.809788391600755" lon="9.238386447397566"><ele>646.0</ele><time>2026-03-29T10:38:24.999Z</time></trkpt><trkpt lat="44.80975084335159" lon="9.238552422963608"><ele>646.0</ele><time>2026-03-29T10:38:25.999Z</time></trkpt><trkpt lat="44.80973438353065" lon="9.238700177742118"><ele>646.0</ele><time>2026-03-29T10:38:27Z</time></trkpt><trkpt lat="44.80973304677846" lon="9.23883273176601"><ele>646.0</ele><time>2026-03-29T10:38:28Z</time></trkpt><trkpt lat="44.809773352678924" lon="9.23895493902452"><ele>646.0</ele><time>2026-03-29T10:38:29Z</time></trkpt><trkpt lat="44.80986569121567" lon="9.239055161922835"><ele>646.0</ele><time>2026-03-29T10:38:30Z</time></trkpt><trkpt lat="44.8099733932049" lon="9.239151464588259"><ele>646.0</ele><time>2026-03-29T10:38:31Z</time></trkpt><trkpt lat="44.81007667117253" lon="9.239279016915859"><ele>646.75</ele><time>2026-03-29T10:38:32Z</time></trkpt><trkpt lat="44.81015170737717" lon="9.239448358261086"><ele>647.5</ele><time>2026-03-29T10:38:33Z</time></trkpt><trkpt lat="44.81017935696134" lon="9.239641262907107"><ele>648.25</ele><time>2026-03-29T10:38:34Z</time></trkpt><trkpt lat="44.810178037162686" lon="9.239824882916809"><ele>649.0</ele><time>2026-03-29T10:38:35Z</time></trkpt><trkpt lat="44.8101526915085" lon="9.240012979660936"><ele>649.0</ele><time>2026-03-29T10:38:36Z</time></trkpt><trkpt lat="44.81013127338292" lon="9.240216174625576"><ele>649.0</ele><time>2026-03-29T10:38:37Z</time></trkpt><trkpt lat="44.8100959770666" lon="9.240427595499003"><ele>649.0</ele><time>2026-03-29T10:38:38Z</time></trkpt><trkpt lat="44.81006253359831" lon="9.240643311762984"><ele>648.75</ele><time>2026-03-29T10:38:39Z</time></trkpt><trkpt lat="44.81004224868501" lon="9.240851323878116"><ele>648.5</ele><time>2026-03-29T10:38:40Z</time></trkpt><trkpt lat="44.810045891285874" lon="9.241041378833943"><ele>648.25</ele><time>2026-03-29T10:38:41Z</time></trkpt><trkpt lat="44.81007677376915" lon="9.24122874714376"><ele>648.0</ele><time>2026-03-29T10:38:42Z</time></trkpt><trkpt lat="44.81013460530314" lon="9.241411404397159"><ele>650.0</ele><time>2026-03-29T10:38:43Z</time></trkpt><trkpt lat="44.81022699222019" lon="9.241560231560346"><ele>652.0</ele><time>2026-03-29T10:38:44Z</time></trkpt><trkpt lat="44.81033644196082" lon="9.241694475876676"><ele>654.0</ele><time>2026-03-29T10:38:45Z</time></trkpt><trkpt lat="44.81041253688512" lon="9.241853859847858"><ele>656.0</ele><time>2026-03-29T10:38:46Z</time></trkpt><trkpt lat="44.81043816416487" lon="9.242027354704861"><ele>656.0</ele><time>2026-03-29T10:38:47Z</time></trkpt><trkpt lat="44.81047843355677" lon="9.242163219446022"><ele>656.0</ele><time>2026-03-29T10:38:48Z</time></trkpt><trkpt lat="44.810567942078116" lon="9.242275313444235"><ele>656.0</ele><time>2026-03-29T10:38:49Z</time></trkpt><trkpt lat="44.81069244487441" lon="9.242371354049824"><ele>656.0</ele><time>2026-03-29T10:38:50Z</time></trkpt><trkpt lat="44.81080958340867" lon="9.242503745658585"><ele>655.3333333333333</ele><time>2026-03-29T10:38:51Z</time></trkpt><trkpt lat="44.81091004252462" lon="9.24268080358584"><ele>654.6666666666666</ele><time>2026-03-29T10:38:52Z</time></trkpt><trkpt lat="44.81098777427903" lon="9.24289683956187"><ele>654.0</ele><time>2026-03-29T10:38:53Z</time></trkpt><trkpt lat="44.811037156942426" lon="9.243138699620243"><ele>660.6666666666666</ele><time>2026-03-29T10:38:54Z</time></trkpt><trkpt lat="44.81105095776727" lon="9.243400467338578"><ele>667.3333333333333</ele><time>2026-03-29T10:38:55Z</time></trkpt><trkpt lat="44.81105355713903" lon="9.243672604967177"><ele>674.0</ele><time>2026-03-29T10:38:56Z</time></trkpt><trkpt lat="44.81106711144942" lon="9.243945227305552"><ele>673.3333333333333</ele><time>2026-03-29T10:38:57Z</time></trkpt><trkpt lat="44.811084876513036" lon="9.244209690960046"><ele>672.6666666666666</ele><time>2026-03-29T10:38:58Z</time></trkpt><trkpt lat="44.81109989205695" lon="9.24444553503018"><ele>672.0</ele><time>2026-03-29T10:38:59Z</time></trkpt><trkpt lat="44.81111766764132" lon="9.244658188891805"><ele>670.75</ele><time>2026-03-29T10:39:00Z</time></trkpt><trkpt lat="44.81114953504336" lon="9.244852071788664"><ele>669.5</ele><time>2026-03-29T10:39:01Z</time></trkpt><trkpt lat="44.8112128535672" lon="9.24502267202406"><ele>668.25</ele><time>2026-03-29T10:39:02Z</time></trkpt><trkpt lat="44.81131104609814" lon="9.245184398717662"><ele>667.0</ele><time>2026-03-29T10:39:03Z</time></trkpt><trkpt lat="44.81142013489141" lon="9.24535564548504"><ele>667.0</ele><time>2026-03-29T10:39:04Z</time></trkpt><trkpt lat="44.81151135772044" lon="9.24555582948634"><ele>667.0</ele><time>2026-03-29T10:39:05Z</time></trkpt><trkpt lat="44.8115808133355" lon="9.245780318571141"><ele>667.0</ele><time>2026-03-29T10:39:06Z</time></trkpt><trkpt lat="44.81164292031623" lon="9.24600511537723"><ele>668.6666666666667</ele><time>2026-03-29T10:39:07Z</time></trkpt><trkpt lat="44.81170913632989" lon="9.246208307793545"><ele>670.3333333333334</ele><time>2026-03-29T10:39:08Z</time></trkpt><trkpt lat="44.81179245149819" lon="9.246384834150591"><ele>672.0</ele><time>2026-03-29T10:39:09Z</time></trkpt><trkpt lat="44.81191294530837" lon="9.246520345572828"><ele>672.0</ele><time>2026-03-29T10:39:10Z</time></trkpt><trkpt lat="44.812041126981335" lon="9.246623921998314"><ele>672.0</ele><time>2026-03-29T10:39:11Z</time></trkpt><trkpt lat="44.81215486273379" lon="9.2466963145112"><ele>672.0</ele><time>2026-03-29T10:39:12Z</time></trkpt><trkpt lat="44.812215770133236" lon="9.246783164010347"><ele>672.0</ele><time>2026-03-29T10:39:13Z</time></trkpt><trkpt lat="44.8122436869499" lon="9.24686422443248"><ele>672.0</ele><time>2026-03-29T10:39:14Z</time></trkpt><trkpt lat="44.81221754810089" lon="9.246999167080642"><ele>672.0</ele><time>2026-03-29T10:39:15Z</time></trkpt><trkpt lat="44.81216456978302" lon="9.247154261796197"><ele>672.0</ele><time>2026-03-29T10:39:16Z</time></trkpt><trkpt lat="44.81211845152439" lon="9.247326357754142"><ele>672.0</ele><time>2026-03-29T10:39:17Z</time></trkpt><trkpt lat="44.81209043374342" lon="9.247515118665849"><ele>672.0</ele><time>2026-03-29T10:39:18Z</time></trkpt><trkpt lat="44.81207982817852" lon="9.247723244161596"><ele>672.3333333333334</ele><time>2026-03-29T10:39:19Z</time></trkpt><trkpt lat="44.81209817134986" lon="9.247948098656284"><ele>672.6666666666667</ele><time>2026-03-29T10:39:20Z</time></trkpt><trkpt lat="44.81214460013615" lon="9.248180849613794"><ele>673.0</ele><time>2026-03-29T10:39:21Z</time></trkpt><trkpt lat="44.81219099208834" lon="9.248427069276573"><ele>674.0</ele><time>2026-03-29T10:39:22Z</time></trkpt><trkpt lat="44.81222925660806" lon="9.248689343676524"><ele>675.0</ele><time>2026-03-29T10:39:23Z</time></trkpt><trkpt lat="44.812252421532456" lon="9.248965318592617"><ele>676.0</ele><time>2026-03-29T10:39:24Z</time></trkpt><trkpt lat="44.81228030249996" lon="9.249241544392696"><ele>676.0</ele><time>2026-03-29T10:39:25Z</time></trkpt><trkpt lat="44.8123282621047" lon="9.249506840532064"><ele>676.0</ele><time>2026-03-29T10:39:26Z</time></trkpt><trkpt lat="44.812387544145714" lon="9.249733302947991"><ele>676.0</ele><time>2026-03-29T10:39:27Z</time></trkpt><trkpt lat="44.812430930239515" lon="9.249938442551944"><ele>675.4</ele><time>2026-03-29T10:39:28Z</time></trkpt><trkpt lat="44.81247049528826" lon="9.250103699766932"><ele>674.8</ele><time>2026-03-29T10:39:29Z</time></trkpt><trkpt lat="44.81248304218499" lon="9.250233219217083"><ele>674.1999999999999</ele><time>2026-03-29T10:39:30Z</time></trkpt><trkpt lat="44.812460520902754" lon="9.250321182694469"><ele>673.5999999999999</ele><time>2026-03-29T10:39:31Z</time></trkpt><trkpt lat="44.8124106335449" lon="9.250405322953783"><ele>673.0</ele><time>2026-03-29T10:39:32Z</time></trkpt><trkpt lat="44.81231133556613" lon="9.250417748597343"><ele>673.0</ele><time>2026-03-29T10:39:33Z</time></trkpt><trkpt lat="44.81220334186828" lon="9.250347702751654"><ele>673.0</ele><time>2026-03-29T10:39:34Z</time></trkpt><trkpt lat="44.81208501053532" lon="9.250245891111044"><ele>673.0</ele><time>2026-03-29T10:39:34.999Z</time></trkpt><trkpt lat="44.81195145861083" lon="9.250173275267773"><ele>673.0</ele><time>2026-03-29T10:39:35.999Z</time></trkpt><trkpt lat="44.81179988458041" lon="9.250160771519948"><ele>669.6666666666667</ele><time>2026-03-29T10:39:36.999Z</time></trkpt><trkpt lat="44.81164760221283" lon="9.250209090639602"><ele>666.3333333333334</ele><time>2026-03-29T10:39:37.999Z</time></trkpt><trkpt lat="44.81149676070445" lon="9.250304495875891"><ele>663.0</ele><time>2026-03-29T10:39:38.999Z</time></trkpt><trkpt lat="44.81134387189018" lon="9.250423080248263"><ele>663.0</ele><time>2026-03-29T10:39:39.999Z</time></trkpt><trkpt lat="44.81118897315889" lon="9.250530662170128"><ele>663.0</ele><time>2026-03-29T10:39:40.999Z</time></trkpt><trkpt lat="44.81105170981979" lon="9.25065436584365"><ele>663.0</ele><time>2026-03-29T10:39:41.999Z</time></trkpt><trkpt lat="44.81093506068817" lon="9.250823468828342"><ele>664.6666666666666</ele><time>2026-03-29T10:39:42.999Z</time></trkpt><trkpt lat="44.8108288588143" lon="9.251023006334902"><ele>666.3333333333333</ele><time>2026-03-29T10:39:43.999Z</time></trkpt><trkpt lat="44.810730207239665" lon="9.25121481514642"><ele>668.0</ele><time>2026-03-29T10:39:44.999Z</time></trkpt><trkpt lat="44.81064028858462" lon="9.251380309552145"><ele>669.75</ele><time>2026-03-29T10:39:45.999Z</time></trkpt><trkpt lat="44.81057536220416" lon="9.251524947621528"><ele>671.5</ele><time>2026-03-29T10:39:46.999Z</time></trkpt><trkpt lat="44.81054271105507" lon="9.251672198324691"><ele>673.25</ele><time>2026-03-29T10:39:47.999Z</time></trkpt><trkpt lat="44.810551189210194" lon="9.25183711477485"><ele>675.0</ele><time>2026-03-29T10:39:48.999Z</time></trkpt><trkpt lat="44.81059660838687" lon="9.252024340493096"><ele>675.0</ele><time>2026-03-29T10:39:49.999Z</time></trkpt><trkpt lat="44.81065938568538" lon="9.252222660216036"><ele>675.0</ele><time>2026-03-29T10:39:50.999Z</time></trkpt><trkpt lat="44.81071529572806" lon="9.252432485798796"><ele>675.0</ele><time>2026-03-29T10:39:51.999Z</time></trkpt><trkpt lat="44.81076559917142" lon="9.252660295090315"><ele>674.6666666666666</ele><time>2026-03-29T10:39:52.999Z</time></trkpt><trkpt lat="44.81082380541828" lon="9.25289238143016"><ele>674.3333333333333</ele><time>2026-03-29T10:39:53.999Z</time></trkpt><trkpt lat="44.8108985500733" lon="9.253126026010786"><ele>674.0</ele><time>2026-03-29T10:39:54.999Z</time></trkpt><trkpt lat="44.81099299095866" lon="9.25334810947694"><ele>675.0</ele><time>2026-03-29T10:39:55.999Z</time></trkpt><trkpt lat="44.8111125114166" lon="9.253555329785158"><ele>676.0</ele><time>2026-03-29T10:39:56.999Z</time></trkpt><trkpt lat="44.811236240335724" lon="9.253760886521563"><ele>677.0</ele><time>2026-03-29T10:39:57.999Z</time></trkpt><trkpt lat="44.81135775498755" lon="9.253967842755568"><ele>677.0</ele><time>2026-03-29T10:39:58.999Z</time></trkpt><trkpt lat="44.81146723168051" lon="9.254183599815239"><ele>677.0</ele><time>2026-03-29T10:39:59.999Z</time></trkpt><trkpt lat="44.81155195929181" lon="9.254417817998332"><ele>677.0</ele><time>2026-03-29T10:40:00.999Z</time></trkpt><trkpt lat="44.811607516013225" lon="9.25467955515903"><ele>675.3333333333333</ele><time>2026-03-29T10:40:01.999Z</time></trkpt><trkpt lat="44.81168334538766" lon="9.254939618679138"><ele>673.6666666666666</ele><time>2026-03-29T10:40:02.999Z</time></trkpt><trkpt lat="44.8117463173285" lon="9.255207710006554"><ele>672.0</ele><time>2026-03-29T10:40:03.999Z</time></trkpt><trkpt lat="44.81180219186528" lon="9.255462092992081"><ele>679.0</ele><time>2026-03-29T10:40:04.999Z</time></trkpt><trkpt lat="44.81183003744476" lon="9.255717573327923"><ele>686.0</ele><time>2026-03-29T10:40:05.999Z</time></trkpt><trkpt lat="44.8118409928723" lon="9.255968644460012"><ele>693.0</ele><time>2026-03-29T10:40:06.999Z</time></trkpt><trkpt lat="44.81184054533959" lon="9.25620501215073"><ele>693.0</ele><time>2026-03-29T10:40:07.999Z</time></trkpt><trkpt lat="44.81183512871818" lon="9.256439300900084"><ele>693.0</ele><time>2026-03-29T10:40:08.999Z</time></trkpt><trkpt lat="44.81181834556453" lon="9.256650326719509"><ele>693.0</ele><time>2026-03-29T10:40:09.999Z</time></trkpt><trkpt lat="44.8117823278464" lon="9.256833251170233"><ele>689.0</ele><time>2026-03-29T10:40:10.999Z</time></trkpt><trkpt lat="44.81171429152417" lon="9.256990750618629"><ele>685.0</ele><time>2026-03-29T10:40:11.999Z</time></trkpt><trkpt lat="44.81161910681264" lon="9.257104140206655"><ele>681.0</ele><time>2026-03-29T10:40:12.999Z</time></trkpt><trkpt lat="44.811502563001575" lon="9.257169094980506"><ele>677.0</ele><time>2026-03-29T10:40:13.999Z</time></trkpt><trkpt lat="44.8113959263443" lon="9.257234524722453"><ele>678.25</ele><time>2026-03-29T10:40:14.999Z</time></trkpt><trkpt lat="44.81132374786733" lon="9.257343966794052"><ele>679.5</ele><time>2026-03-29T10:40:15.999Z</time></trkpt><trkpt lat="44.811264705098544" lon="9.257468170087822"><ele>680.75</ele><time>2026-03-29T10:40:16.999Z</time></trkpt><trkpt lat="44.81124879600321" lon="9.257661645261608"><ele>682.0</ele><time>2026-03-29T10:40:17.999Z</time></trkpt><trkpt lat="44.81126534994259" lon="9.257871066289509"><ele>682.0</ele><time>2026-03-29T10:40:18.999Z</time></trkpt><trkpt lat="44.81126538033753" lon="9.258091643345791"><ele>682.0</ele><time>2026-03-29T10:40:19.999Z</time></trkpt><trkpt lat="44.811238567853486" lon="9.258318693421897"><ele>682.0</ele><time>2026-03-29T10:40:20.999Z</time></trkpt><trkpt lat="44.811212004599184" lon="9.258547110730483"><ele>682.75</ele><time>2026-03-29T10:40:21.999Z</time></trkpt><trkpt lat="44.811219647689136" lon="9.258770912611253"><ele>683.5</ele><time>2026-03-29T10:40:22.999Z</time></trkpt><trkpt lat="44.81123231841832" lon="9.25897829578319"><ele>684.25</ele><time>2026-03-29T10:40:23.999Z</time></trkpt><trkpt lat="44.811217582764975" lon="9.259154873595737"><ele>685.0</ele><time>2026-03-29T10:40:24.999Z</time></trkpt><trkpt lat="44.811158486604974" lon="9.259309485602094"><ele>687.25</ele><time>2026-03-29T10:40:25.999Z</time></trkpt><trkpt lat="44.81103088944167" lon="9.259387974219816"><ele>689.5</ele><time>2026-03-29T10:40:26.999Z</time></trkpt><trkpt lat="44.81090454467718" lon="9.259478342494438"><ele>691.75</ele><time>2026-03-29T10:40:27.999Z</time></trkpt><trkpt lat="44.810759817052535" lon="9.25953687982012"><ele>694.0</ele><time>2026-03-29T10:40:28.999Z</time></trkpt><trkpt lat="44.810597807761866" lon="9.259582101567755"><ele>689.0</ele><time>2026-03-29T10:40:29.999Z</time></trkpt><trkpt lat="44.81044445202297" lon="9.259662133700681"><ele>684.0</ele><time>2026-03-29T10:40:30.999Z</time></trkpt><trkpt lat="44.81029060330455" lon="9.259750276031212"><ele>679.0</ele><time>2026-03-29T10:40:31.999Z</time></trkpt><trkpt lat="44.81013688636035" lon="9.25988197410064"><ele>679.0</ele><time>2026-03-29T10:40:33Z</time></trkpt><trkpt lat="44.80997719852917" lon="9.260010935280327"><ele>679.0</ele><time>2026-03-29T10:40:34Z</time></trkpt><trkpt lat="44.80981290059616" lon="9.26012585613889"><ele>679.0</ele><time>2026-03-29T10:40:35Z</time></trkpt><trkpt lat="44.80965481754642" lon="9.260247798697016"><ele>679.0</ele><time>2026-03-29T10:40:36Z</time></trkpt><trkpt lat="44.809509731844145" lon="9.260337504578949"><ele>679.0</ele><time>2026-03-29T10:40:37Z</time></trkpt><trkpt lat="44.809367446858474" lon="9.260356697250652"><ele>679.0</ele><time>2026-03-29T10:40:38Z</time></trkpt><trkpt lat="44.80924098951103" lon="9.26033033115513"><ele>679.0</ele><time>2026-03-29T10:40:39Z</time></trkpt><trkpt lat="44.80912793453516" lon="9.2602696340611"><ele>677.6</ele><time>2026-03-29T10:40:40Z</time></trkpt><trkpt lat="44.809022882193375" lon="9.260238027086212"><ele>676.2</ele><time>2026-03-29T10:40:41Z</time></trkpt><trkpt lat="44.80892475855888" lon="9.26024607913767"><ele>674.8000000000001</ele><time>2026-03-29T10:40:42Z</time></trkpt><trkpt lat="44.80882449992491" lon="9.26033074564464"><ele>673.4000000000001</ele><time>2026-03-29T10:40:43Z</time></trkpt><trkpt lat="44.80874506545568" lon="9.26045543442512"><ele>672.0</ele><time>2026-03-29T10:40:44Z</time></trkpt><trkpt lat="44.808709115245236" lon="9.260584289031582"><ele>675.0</ele><time>2026-03-29T10:40:45Z</time></trkpt><trkpt lat="44.808726583232556" lon="9.260735944080189"><ele>678.0</ele><time>2026-03-29T10:40:46Z</time></trkpt><trkpt lat="44.80876867751158" lon="9.260900875422658"><ele>681.0</ele><time>2026-03-29T10:40:47Z</time></trkpt><trkpt lat="44.80880977538019" lon="9.261085793969094"><ele>684.0</ele><time>2026-03-29T10:40:48Z</time></trkpt><trkpt lat="44.80884432425171" lon="9.261285282583666"><ele>683.6666666666666</ele><time>2026-03-29T10:40:49Z</time></trkpt><trkpt lat="44.80888049137035" lon="9.261509440520818"><ele>683.3333333333333</ele><time>2026-03-29T10:40:50Z</time></trkpt><trkpt lat="44.80893394769146" lon="9.26176395899943"><ele>683.0</ele><time>2026-03-29T10:40:51Z</time></trkpt><trkpt lat="44.80901089235875" lon="9.262039761516096"><ele>680.0</ele><time>2026-03-29T10:40:52Z</time></trkpt><trkpt lat="44.80910667571867" lon="9.262308351157357"><ele>677.0</ele><time>2026-03-29T10:40:53Z</time></trkpt><trkpt lat="44.80921420954822" lon="9.262543194331219"><ele>674.0</ele><time>2026-03-29T10:40:54Z</time></trkpt><trkpt lat="44.80933035237029" lon="9.262745512805969"><ele>678.6666666666666</ele><time>2026-03-29T10:40:55Z</time></trkpt><trkpt lat="44.809463697323615" lon="9.26293118446832"><ele>683.3333333333334</ele><time>2026-03-29T10:40:56Z</time></trkpt><trkpt lat="44.809613652954866" lon="9.263099396278694"><ele>688.0</ele><time>2026-03-29T10:40:57Z</time></trkpt><trkpt lat="44.80976987360899" lon="9.263236479342858"><ele>688.0</ele><time>2026-03-29T10:40:58Z</time></trkpt><trkpt lat="44.80991747526017" lon="9.26336047861895"><ele>688.0</ele><time>2026-03-29T10:40:59Z</time></trkpt><trkpt lat="44.81003447942136" lon="9.263495678741595"><ele>688.0</ele><time>2026-03-29T10:41:00Z</time></trkpt><trkpt lat="44.81012657922341" lon="9.263623029962412"><ele>690.5</ele><time>2026-03-29T10:41:01Z</time></trkpt><trkpt lat="44.81018275155807" lon="9.263780108415261"><ele>693.0</ele><time>2026-03-29T10:41:02Z</time></trkpt><trkpt lat="44.81023663355561" lon="9.263957670741554"><ele>695.5</ele><time>2026-03-29T10:41:03Z</time></trkpt><trkpt lat="44.81026817958979" lon="9.264144040307425"><ele>698.0</ele><time>2026-03-29T10:41:04Z</time></trkpt><trkpt lat="44.810335947989216" lon="9.264321428468085"><ele>698.0</ele><time>2026-03-29T10:41:05Z</time></trkpt><trkpt lat="44.810448460416445" lon="9.264481291485017"><ele>698.0</ele><time>2026-03-29T10:41:06Z</time></trkpt><trkpt lat="44.81058105697075" lon="9.264638525831886"><ele>698.0</ele><time>2026-03-29T10:41:07Z</time></trkpt><trkpt lat="44.810716071196374" lon="9.264806271830393"><ele>694.6666666666666</ele><time>2026-03-29T10:41:08Z</time></trkpt><trkpt lat="44.810850046109" lon="9.264972917801487"><ele>691.3333333333334</ele><time>2026-03-29T10:41:09Z</time></trkpt><trkpt lat="44.81098337769958" lon="9.265126770752609"><ele>688.0</ele><time>2026-03-29T10:41:10Z</time></trkpt><trkpt lat="44.81110720713765" lon="9.265247743336262"><ele>689.8</ele><time>2026-03-29T10:41:11Z</time></trkpt><trkpt lat="44.81120213756954" lon="9.26536949185337"><ele>691.5999999999999</ele><time>2026-03-29T10:41:12Z</time></trkpt><trkpt lat="44.81127986674449" lon="9.265462521015651"><ele>693.4000000000001</ele><time>2026-03-29T10:41:13Z</time></trkpt><trkpt lat="44.811312774936454" lon="9.265566529639555"><ele>695.2</ele><time>2026-03-29T10:41:14Z</time></trkpt><trkpt lat="44.81129528469857" lon="9.265722348005724"><ele>697.0</ele><time>2026-03-29T10:41:15Z</time></trkpt><trkpt lat="44.811241131532576" lon="9.265885174891233"><ele>697.0</ele><time>2026-03-29T10:41:16Z</time></trkpt><trkpt lat="44.811153481201856" lon="9.2660565378296"><ele>697.0</ele><time>2026-03-29T10:41:17Z</time></trkpt><trkpt lat="44.81106037996142" lon="9.266246350277532"><ele>697.0</ele><time>2026-03-29T10:41:18Z</time></trkpt><trkpt lat="44.81097218370498" lon="9.266444576177905"><ele>695.3333333333334</ele><time>2026-03-29T10:41:19Z</time></trkpt><trkpt lat="44.81087411055231" lon="9.266663420451819"><ele>693.6666666666666</ele><time>2026-03-29T10:41:20Z</time></trkpt><trkpt lat="44.810771982335915" lon="9.266889610360177"><ele>692.0</ele><time>2026-03-29T10:41:21Z</time></trkpt><trkpt lat="44.81065746154505" lon="9.267112597232504"><ele>694.6666666666666</ele><time>2026-03-29T10:41:22Z</time></trkpt><trkpt lat="44.81051242117093" lon="9.267298607833034"><ele>697.3333333333334</ele><time>2026-03-29T10:41:23Z</time></trkpt><trkpt lat="44.81037427928855" lon="9.267492255629993"><ele>700.0</ele><time>2026-03-29T10:41:24Z</time></trkpt><trkpt lat="44.81022834207843" lon="9.267656145018954"><ele>699.6666666666667</ele><time>2026-03-29T10:41:25Z</time></trkpt><trkpt lat="44.810113285122625" lon="9.267819550275746"><ele>699.3333333333334</ele><time>2026-03-29T10:41:26Z</time></trkpt><trkpt lat="44.81002573868263" lon="9.267988187440412"><ele>699.0</ele><time>2026-03-29T10:41:27Z</time></trkpt><trkpt lat="44.80995579114918" lon="9.268156323222449"><ele>699.0</ele><time>2026-03-29T10:41:28Z</time></trkpt><trkpt lat="44.80988428344704" lon="9.268313658850841"><ele>699.0</ele><time>2026-03-29T10:41:29Z</time></trkpt><trkpt lat="44.80980267940852" lon="9.268458867418003"><ele>699.0</ele><time>2026-03-29T10:41:30Z</time></trkpt><trkpt lat="44.80971306773084" lon="9.268597723629748"><ele>699.0</ele><time>2026-03-29T10:41:31Z</time></trkpt><trkpt lat="44.80962256124799" lon="9.26873925734457"><ele>699.0</ele><time>2026-03-29T10:41:32Z</time></trkpt><trkpt lat="44.80953847217091" lon="9.268894573612826"><ele>699.0</ele><time>2026-03-29T10:41:33Z</time></trkpt><trkpt lat="44.8094705203064" lon="9.269071721620342"><ele>699.0</ele><time>2026-03-29T10:41:34Z</time></trkpt><trkpt lat="44.80941883519638" lon="9.269267283355111"><ele>699.0</ele><time>2026-03-29T10:41:35Z</time></trkpt><trkpt lat="44.809375907665" lon="9.269467738814225"><ele>701.25</ele><time>2026-03-29T10:41:36Z</time></trkpt><trkpt lat="44.80933701493471" lon="9.269665151851994"><ele>703.5</ele><time>2026-03-29T10:41:36.999Z</time></trkpt><trkpt lat="44.80929819957799" lon="9.269862931435247"><ele>705.75</ele><time>2026-03-29T10:41:37.999Z</time></trkpt><trkpt lat="44.80925759610744" lon="9.270057029421253"><ele>708.0</ele><time>2026-03-29T10:41:38.999Z</time></trkpt><trkpt lat="44.80921006383711" lon="9.270248009327716"><ele>708.0</ele><time>2026-03-29T10:41:39.999Z</time></trkpt><trkpt lat="44.809141449931396" lon="9.27042719183496"><ele>708.0</ele><time>2026-03-29T10:41:40.999Z</time></trkpt><trkpt lat="44.80906233006552" lon="9.270597263839074"><ele>708.0</ele><time>2026-03-29T10:41:41.999Z</time></trkpt><trkpt lat="44.808982957626405" lon="9.270758585260394"><ele>708.0</ele><time>2026-03-29T10:41:42.999Z</time></trkpt><trkpt lat="44.808918220900175" lon="9.270901572720957"><ele>709.6666666666666</ele><time>2026-03-29T10:41:43.999Z</time></trkpt><trkpt lat="44.808872196717736" lon="9.271028355962697"><ele>711.3333333333334</ele><time>2026-03-29T10:41:44.999Z</time></trkpt><trkpt lat="44.80885275128829" lon="9.271141545632798"><ele>713.0</ele><time>2026-03-29T10:41:45.999Z</time></trkpt><trkpt lat="44.80886579482523" lon="9.271246457784295"><ele>714.6666666666667</ele><time>2026-03-29T10:41:46.999Z</time></trkpt><trkpt lat="44.80891795466635" lon="9.271338424819566"><ele>716.3333333333334</ele><time>2026-03-29T10:41:47.999Z</time></trkpt><trkpt lat="44.80900561918001" lon="9.271388434943171"><ele>718.0</ele><time>2026-03-29T10:41:48.999Z</time></trkpt><trkpt lat="44.80909680217957" lon="9.271415534093741"><ele>718.0</ele><time>2026-03-29T10:41:49.999Z</time></trkpt><trkpt lat="44.80919719339021" lon="9.271312277517788"><ele>718.0</ele><time>2026-03-29T10:41:50.999Z</time></trkpt><trkpt lat="44.80928470046516" lon="9.271171126113355"><ele>718.0</ele><time>2026-03-29T10:41:51.999Z</time></trkpt><trkpt lat="44.8093826958471" lon="9.271017930104243"><ele>718.0</ele><time>2026-03-29T10:41:52.999Z</time></trkpt><trkpt lat="44.80949399078066" lon="9.270859990061455"><ele>720.6666666666667</ele><time>2026-03-29T10:41:53.999Z</time></trkpt><trkpt lat="44.80961218149059" lon="9.270701915612934"><ele>723.3333333333334</ele><time>2026-03-29T10:41:54.999Z</time></trkpt><trkpt lat="44.80972098906975" lon="9.270540868891507"><ele>726.0</ele><time>2026-03-29T10:41:55.999Z</time></trkpt><trkpt lat="44.80980286397429" lon="9.270375465838285"><ele>726.0</ele><time>2026-03-29T10:41:56.999Z</time></trkpt><trkpt lat="44.80986745415031" lon="9.270243616303343"><ele>726.0</ele><time>2026-03-29T10:41:57.999Z</time></trkpt><trkpt lat="44.80992817240234" lon="9.270148939932682"><ele>726.0</ele><time>2026-03-29T10:41:58.999Z</time></trkpt><trkpt lat="44.80999570179896" lon="9.270106107859668"><ele>726.0</ele><time>2026-03-29T10:41:59.999Z</time></trkpt><trkpt lat="44.81006211591836" lon="9.270111873749562"><ele>726.0</ele><time>2026-03-29T10:42:00.999Z</time></trkpt><trkpt lat="44.810116420069704" lon="9.270187212301348"><ele>726.0</ele><time>2026-03-29T10:42:01.999Z</time></trkpt><trkpt lat="44.81014136242609" lon="9.270302910296676"><ele>726.0</ele><time>2026-03-29T10:42:02.999Z</time></trkpt><trkpt lat="44.810122332503575" lon="9.270423368898348"><ele>726.0</ele><time>2026-03-29T10:42:03.999Z</time></trkpt><trkpt lat="44.81005704869002" lon="9.270520660134947"><ele>726.0</ele><time>2026-03-29T10:42:04.999Z</time></trkpt><trkpt lat="44.80996714485207" lon="9.27061224407951"><ele>726.0</ele><time>2026-03-29T10:42:05.999Z</time></trkpt><trkpt lat="44.80989137987357" lon="9.270731721479205"><ele>726.0</ele><time>2026-03-29T10:42:06.999Z</time></trkpt><trkpt lat="44.809833871372845" lon="9.270895800206894"><ele>728.5</ele><time>2026-03-29T10:42:07.999Z</time></trkpt><trkpt lat="44.809789021042015" lon="9.27108227015012"><ele>731.0</ele><time>2026-03-29T10:42:08.999Z</time></trkpt><trkpt lat="44.80976760903579" lon="9.271284707285334"><ele>733.5</ele><time>2026-03-29T10:42:09.999Z</time></trkpt><trkpt lat="44.809771495742766" lon="9.271504716977152"><ele>736.0</ele><time>2026-03-29T10:42:10.999Z</time></trkpt><trkpt lat="44.80980490251326" lon="9.271750171865722"><ele>738.3333333333334</ele><time>2026-03-29T10:42:11.999Z</time></trkpt><trkpt lat="44.80984603040771" lon="9.272009276808031"><ele>740.6666666666666</ele><time>2026-03-29T10:42:12.999Z</time></trkpt><trkpt lat="44.80988825313563" lon="9.272273160403111"><ele>743.0</ele><time>2026-03-29T10:42:13.999Z</time></trkpt><trkpt lat="44.80992362699256" lon="9.272532338376196"><ele>743.0</ele><time>2026-03-29T10:42:14.999Z</time></trkpt><trkpt lat="44.80994491429724" lon="9.272769450597066"><ele>743.0</ele><time>2026-03-29T10:42:15.999Z</time></trkpt><trkpt lat="44.80995453921837" lon="9.272978599702983"><ele>743.0</ele><time>2026-03-29T10:42:16.999Z</time></trkpt><trkpt lat="44.80995993846413" lon="9.273163725322497"><ele>743.3333333333333</ele><time>2026-03-29T10:42:17.999Z</time></trkpt><trkpt lat="44.8099691550568" lon="9.273320606137588"><ele>743.6666666666666</ele><time>2026-03-29T10:42:18.999Z</time></trkpt><trkpt lat="44.80998607002406" lon="9.273447718375254"><ele>744.0</ele><time>2026-03-29T10:42:19.999Z</time></trkpt><trkpt lat="44.81001810135752" lon="9.273533272722577"><ele>744.3333333333334</ele><time>2026-03-29T10:42:20.999Z</time></trkpt><trkpt lat="44.81007617245483" lon="9.273579114195142"><ele>744.6666666666667</ele><time>2026-03-29T10:42:21.999Z</time></trkpt><trkpt lat="44.810149043670705" lon="9.273558156711266"><ele>745.0</ele><time>2026-03-29T10:42:22.999Z</time></trkpt><trkpt lat="44.810220485815016" lon="9.273504584945805"><ele>749.75</ele><time>2026-03-29T10:42:23.999Z</time></trkpt><trkpt lat="44.810252420599774" lon="9.273345906278905"><ele>754.5</ele><time>2026-03-29T10:42:24.999Z</time></trkpt><trkpt lat="44.81026365804208" lon="9.273183216731969"><ele>759.25</ele><time>2026-03-29T10:42:25.999Z</time></trkpt><trkpt lat="44.8102881859431" lon="9.273024173227816"><ele>764.0</ele><time>2026-03-29T10:42:26.999Z</time></trkpt><trkpt lat="44.81034898631411" lon="9.272896257743483"><ele>764.0</ele><time>2026-03-29T10:42:27.999Z</time></trkpt><trkpt lat="44.81045042058548" lon="9.272798015304865"><ele>764.0</ele><time>2026-03-29T10:42:28.999Z</time></trkpt><trkpt lat="44.81055565127196" lon="9.272654959319896"><ele>764.0</ele><time>2026-03-29T10:42:29.999Z</time></trkpt><trkpt lat="44.810667468817236" lon="9.272504875026762"><ele>764.0</ele><time>2026-03-29T10:42:30.999Z</time></trkpt><trkpt lat="44.81074465519272" lon="9.27230665621769"><ele>763.0</ele><time>2026-03-29T10:42:31.999Z</time></trkpt><trkpt lat="44.810792786830156" lon="9.272095217886758"><ele>762.0</ele><time>2026-03-29T10:42:32.999Z</time></trkpt><trkpt lat="44.81083293370797" lon="9.271899123796356"><ele>761.0</ele><time>2026-03-29T10:42:33.999Z</time></trkpt><trkpt lat="44.810909877263974" lon="9.27173349006772"><ele>760.0</ele><time>2026-03-29T10:42:34.999Z</time></trkpt><trkpt lat="44.8109981010162" lon="9.271570631972377"><ele>762.3333333333334</ele><time>2026-03-29T10:42:35.999Z</time></trkpt><trkpt lat="44.81109791902593" lon="9.27140859308078"><ele>764.6666666666666</ele><time>2026-03-29T10:42:36.999Z</time></trkpt><trkpt lat="44.81120169821973" lon="9.271235407544236"><ele>767.0</ele><time>2026-03-29T10:42:38Z</time></trkpt><trkpt lat="44.81132274379319" lon="9.271088088303216"><ele>767.0</ele><time>2026-03-29T10:42:39Z</time></trkpt><trkpt lat="44.81143290803115" lon="9.270955143327864"><ele>767.0</ele><time>2026-03-29T10:42:40Z</time></trkpt><trkpt lat="44.811539120983035" lon="9.270859171864029"><ele>767.0</ele><time>2026-03-29T10:42:41Z</time></trkpt><trkpt lat="44.81162057292543" lon="9.270763561593574"><ele>767.0</ele><time>2026-03-29T10:42:42Z</time></trkpt><trkpt lat="44.811683910486984" lon="9.270672811107326"><ele>767.0</ele><time>2026-03-29T10:42:43Z</time></trkpt><trkpt lat="44.81175946045443" lon="9.270639544858604"><ele>767.0</ele><time>2026-03-29T10:42:44Z</time></trkpt><trkpt lat="44.81182858497795" lon="9.270670556132204"><ele>767.0</ele><time>2026-03-29T10:42:45Z</time></trkpt><trkpt lat="44.811872827657396" lon="9.270776209227982"><ele>767.0</ele><time>2026-03-29T10:42:46Z</time></trkpt><trkpt lat="44.81188108630433" lon="9.270908935457152"><ele>767.0</ele><time>2026-03-29T10:42:47Z</time></trkpt><trkpt lat="44.81182026599068" lon="9.271037757927258"><ele>767.0</ele><time>2026-03-29T10:42:48Z</time></trkpt><trkpt lat="44.811769877468855" lon="9.271168322709888"><ele>767.0</ele><time>2026-03-29T10:42:49Z</time></trkpt><trkpt lat="44.81171829577052" lon="9.271303823219291"><ele>767.0</ele><time>2026-03-29T10:42:50Z</time></trkpt><trkpt lat="44.811699430161866" lon="9.271505481486516"><ele>767.0</ele><time>2026-03-29T10:42:51Z</time></trkpt><trkpt lat="44.811666791673" lon="9.271757406627534"><ele>767.0</ele><time>2026-03-29T10:42:52Z</time></trkpt><trkpt lat="44.81166302129281" lon="9.272036590749149"><ele>771.6666666666666</ele><time>2026-03-29T10:42:53Z</time></trkpt><trkpt lat="44.811623236658924" lon="9.272340116223972"><ele>776.3333333333333</ele><time>2026-03-29T10:42:54Z</time></trkpt><trkpt lat="44.811609118718316" lon="9.272660918912724"><ele>781.0</ele><time>2026-03-29T10:42:55Z</time></trkpt><trkpt lat="44.81159206709825" lon="9.272993174444125"><ele>783.0</ele><time>2026-03-29T10:42:56Z</time></trkpt><trkpt lat="44.811574239305706" lon="9.273327328782253"><ele>785.0</ele><time>2026-03-29T10:42:57Z</time></trkpt><trkpt lat="44.81156520980363" lon="9.273638780301496"><ele>785.0</ele><time>2026-03-29T10:42:58Z</time></trkpt><trkpt lat="44.81156705617981" lon="9.273923441753087"><ele>785.0</ele><time>2026-03-29T10:42:59Z</time></trkpt><trkpt lat="44.81156885610944" lon="9.274181452633238"><ele>785.0</ele><time>2026-03-29T10:43:00Z</time></trkpt><trkpt lat="44.81156662723849" lon="9.274403024613536"><ele>786.75</ele><time>2026-03-29T10:43:01Z</time></trkpt><trkpt lat="44.811550419249336" lon="9.274589340223951"><ele>788.5</ele><time>2026-03-29T10:43:02Z</time></trkpt><trkpt lat="44.81158698484081" lon="9.2747429254875"><ele>790.25</ele><time>2026-03-29T10:43:03Z</time></trkpt><trkpt lat="44.81162480673548" lon="9.274898020777082"><ele>792.0</ele><time>2026-03-29T10:43:04Z</time></trkpt><trkpt lat="44.81170056891464" lon="9.275031628393803"><ele>793.25</ele><time>2026-03-29T10:43:05Z</time></trkpt><trkpt lat="44.81179326173086" lon="9.275157254448352"><ele>794.5</ele><time>2026-03-29T10:43:06Z</time></trkpt><trkpt lat="44.81184609044461" lon="9.275322645074583"><ele>795.75</ele><time>2026-03-29T10:43:07Z</time></trkpt><trkpt lat="44.811850687436305" lon="9.27550506074314"><ele>797.0</ele><time>2026-03-29T10:43:08Z</time></trkpt><trkpt lat="44.811810646454866" lon="9.275690360725594"><ele>797.25</ele><time>2026-03-29T10:43:09Z</time></trkpt><trkpt lat="44.81175826061389" lon="9.275879670840295"><ele>797.5</ele><time>2026-03-29T10:43:10Z</time></trkpt><trkpt lat="44.81171146864002" lon="9.27605271949549"><ele>797.75</ele><time>2026-03-29T10:43:11Z</time></trkpt><trkpt lat="44.81170579553374" lon="9.276226370614252"><ele>798.0</ele><time>2026-03-29T10:43:12Z</time></trkpt><trkpt lat="44.81174853001125" lon="9.276413498391287"><ele>799.3333333333333</ele><time>2026-03-29T10:43:13Z</time></trkpt><trkpt lat="44.8118234981812" lon="9.2766105541895"><ele>800.6666666666666</ele><time>2026-03-29T10:43:14Z</time></trkpt><trkpt lat="44.81187612238321" lon="9.276824602866519"><ele>802.0</ele><time>2026-03-29T10:43:15Z</time></trkpt><trkpt lat="44.811908219025504" lon="9.277067348083675"><ele>811.6666666666666</ele><time>2026-03-29T10:43:16Z</time></trkpt><trkpt lat="44.811925250934536" lon="9.277310569445534"><ele>821.3333333333333</ele><time>2026-03-29T10:43:17Z</time></trkpt><trkpt lat="44.81193183832727" lon="9.277542718251224"><ele>831.0</ele><time>2026-03-29T10:43:18Z</time></trkpt><trkpt lat="44.811936773297326" lon="9.277755970007602"><ele>831.0</ele><time>2026-03-29T10:43:19Z</time></trkpt><trkpt lat="44.8119413150099" lon="9.27794329460363"><ele>831.0</ele><time>2026-03-29T10:43:20Z</time></trkpt><trkpt lat="44.81195654051683" lon="9.278116354605071"><ele>831.0</ele><time>2026-03-29T10:43:21Z</time></trkpt><trkpt lat="44.8119823658442" lon="9.278278984632472"><ele>831.0</ele><time>2026-03-29T10:43:22Z</time></trkpt><trkpt lat="44.812026964161156" lon="9.278431394731504"><ele>832.5</ele><time>2026-03-29T10:43:23Z</time></trkpt><trkpt lat="44.81208546499577" lon="9.27857715592682"><ele>834.0</ele><time>2026-03-29T10:43:24Z</time></trkpt><trkpt lat="44.812145662154904" lon="9.278722988295852"><ele>835.5</ele><time>2026-03-29T10:43:25Z</time></trkpt><trkpt lat="44.812195184546724" lon="9.278868413495854"><ele>837.0</ele><time>2026-03-29T10:43:26Z</time></trkpt><trkpt lat="44.81221938357238" lon="9.27900453520227"><ele>837.8</ele><time>2026-03-29T10:43:27Z</time></trkpt><trkpt lat="44.81220991441853" lon="9.279136502152594"><ele>838.6</ele><time>2026-03-29T10:43:28Z</time></trkpt><trkpt lat="44.8121670861884" lon="9.279260083532812"><ele>839.4</ele><time>2026-03-29T10:43:29Z</time></trkpt><trkpt lat="44.812114712184126" lon="9.279372992748993"><ele>840.1999999999999</ele><time>2026-03-29T10:43:30Z</time></trkpt><trkpt lat="44.81208497279842" lon="9.27951619029757"><ele>841.0</ele><time>2026-03-29T10:43:31Z</time></trkpt><trkpt lat="44.812077054120074" lon="9.279680478926707"><ele>842.6666666666666</ele><time>2026-03-29T10:43:32Z</time></trkpt><trkpt lat="44.81209059802959" lon="9.279857873589869"><ele>844.3333333333333</ele><time>2026-03-29T10:43:33Z</time></trkpt><trkpt lat="44.81212930020034" lon="9.280061294729032"><ele>846.0</ele><time>2026-03-29T10:43:34Z</time></trkpt><trkpt lat="44.812180403973656" lon="9.280302507941244"><ele>846.0</ele><time>2026-03-29T10:43:35Z</time></trkpt><trkpt lat="44.812251359178006" lon="9.280567364768086"><ele>846.0</ele><time>2026-03-29T10:43:36Z</time></trkpt><trkpt lat="44.81234308387939" lon="9.280849274665178"><ele>846.0</ele><time>2026-03-29T10:43:37Z</time></trkpt><trkpt lat="44.812411201518444" lon="9.281139401512542"><ele>845.6666666666667</ele><time>2026-03-29T10:43:38Z</time></trkpt><trkpt lat="44.81247294448071" lon="9.281400276661156"><ele>845.3333333333334</ele><time>2026-03-29T10:43:39Z</time></trkpt><trkpt lat="44.81252127320939" lon="9.28164350723005"><ele>845.0</ele><time>2026-03-29T10:43:40Z</time></trkpt><trkpt lat="44.81255585163819" lon="9.281857291100103"><ele>843.2</ele><time>2026-03-29T10:43:41Z</time></trkpt><trkpt lat="44.81261355379405" lon="9.281976653893738"><ele>841.4</ele><time>2026-03-29T10:43:42Z</time></trkpt><trkpt lat="44.81263984224018" lon="9.282091340669497"><ele>839.5999999999999</ele><time>2026-03-29T10:43:43Z</time></trkpt><trkpt lat="44.81270350164969" lon="9.28217964759719"><ele>837.8</ele><time>2026-03-29T10:43:44Z</time></trkpt><trkpt lat="44.812812477266846" lon="9.282229189608953"><ele>836.0</ele><time>2026-03-29T10:43:44.999Z</time></trkpt><trkpt lat="44.81295172292868" lon="9.282274022778802"><ele>841.75</ele><time>2026-03-29T10:43:45.999Z</time></trkpt><trkpt lat="44.813087790258585" lon="9.282346184518781"><ele>847.5</ele><time>2026-03-29T10:43:46.999Z</time></trkpt><trkpt lat="44.81322793698655" lon="9.282419713987046"><ele>853.25</ele><time>2026-03-29T10:43:47.999Z</time></trkpt><trkpt lat="44.813357525575405" lon="9.282466901463955"><ele>859.0</ele><time>2026-03-29T10:43:48.999Z</time></trkpt><trkpt lat="44.81348920409754" lon="9.282451652150078"><ele>862.6666666666666</ele><time>2026-03-29T10:43:49.999Z</time></trkpt><trkpt lat="44.813632618547686" lon="9.282375520192117"><ele>866.3333333333333</ele><time>2026-03-29T10:43:50.999Z</time></trkpt><trkpt lat="44.81378246689671" lon="9.282333282162032"><ele>870.0</ele><time>2026-03-29T10:43:51.999Z</time></trkpt><trkpt lat="44.81393553342132" lon="9.282367228026349"><ele>870.0</ele><time>2026-03-29T10:43:52.999Z</time></trkpt><trkpt lat="44.81405480182259" lon="9.282391836148083"><ele>870.0</ele><time>2026-03-29T10:43:53.999Z</time></trkpt><trkpt lat="44.81412946174366" lon="9.282422878752087"><ele>870.0</ele><time>2026-03-29T10:43:54.999Z</time></trkpt><trkpt lat="44.81414843623887" lon="9.282603738515252"><ele>870.0</ele><time>2026-03-29T10:43:56.999Z</time></trkpt><trkpt lat="44.81409074763689" lon="9.282692279884959"><ele>870.0</ele><time>2026-03-29T10:43:57.999Z</time></trkpt><trkpt lat="44.813994186935815" lon="9.282732099283347"><ele>870.0</ele><time>2026-03-29T10:43:58.999Z</time></trkpt><trkpt lat="44.81386548071338" lon="9.282714771545358"><ele>870.0</ele><time>2026-03-29T10:43:59.999Z</time></trkpt><trkpt lat="44.81370380617443" lon="9.282778396904577"><ele>870.0</ele><time>2026-03-29T10:44:00.999Z</time></trkpt><trkpt lat="44.8135368165948" lon="9.282878818027312"><ele>867.25</ele><time>2026-03-29T10:44:01.999Z</time></trkpt><trkpt lat="44.813378162402614" lon="9.28293266890079"><ele>864.5</ele><time>2026-03-29T10:44:02.999Z</time></trkpt><trkpt lat="44.81324163686452" lon="9.282979314692064"><ele>861.75</ele><time>2026-03-29T10:44:03.999Z</time></trkpt><trkpt lat="44.81312457752152" lon="9.283070526140655"><ele>859.0</ele><time>2026-03-29T10:44:04.999Z</time></trkpt><trkpt lat="44.81302500290043" lon="9.28322427593183"><ele>867.6666666666666</ele><time>2026-03-29T10:44:05.999Z</time></trkpt><trkpt lat="44.812933287742034" lon="9.283429396530675"><ele>876.3333333333333</ele><time>2026-03-29T10:44:06.999Z</time></trkpt><trkpt lat="44.81282774227309" lon="9.283657225864589"><ele>885.0</ele><time>2026-03-29T10:44:07.999Z</time></trkpt><trkpt lat="44.8127164716409" lon="9.28386637320271"><ele>881.6666666666667</ele><time>2026-03-29T10:44:08.999Z</time></trkpt><trkpt lat="44.812626034458205" lon="9.284099815203255"><ele>878.3333333333334</ele><time>2026-03-29T10:44:09.999Z</time></trkpt><trkpt lat="44.81254559220889" lon="9.284350705925153"><ele>875.0</ele><time>2026-03-29T10:44:10.999Z</time></trkpt><trkpt lat="44.81242917791113" lon="9.284569644380515"><ele>881.6666666666667</ele><time>2026-03-29T10:44:11.999Z</time></trkpt><trkpt lat="44.81233226828596" lon="9.284792308801167"><ele>888.3333333333333</ele><time>2026-03-29T10:44:12.999Z</time></trkpt><trkpt lat="44.81227267875871" lon="9.284996920005812"><ele>895.0</ele><time>2026-03-29T10:44:13.999Z</time></trkpt><trkpt lat="44.81217668787815" lon="9.285145731406132"><ele>895.0</ele><time>2026-03-29T10:44:14.999Z</time></trkpt><trkpt lat="44.81207847247754" lon="9.285222776405314"><ele>895.0</ele><time>2026-03-29T10:44:15.999Z</time></trkpt><trkpt lat="44.81196864947002" lon="9.285238604946075"><ele>895.0</ele><time>2026-03-29T10:44:16.999Z</time></trkpt><trkpt lat="44.81189986911722" lon="9.285322357664331"><ele>895.0</ele><time>2026-03-29T10:44:17.999Z</time></trkpt><trkpt lat="44.81183383970997" lon="9.285414674141574"><ele>895.0</ele><time>2026-03-29T10:44:18.999Z</time></trkpt><trkpt lat="44.81182433813269" lon="9.285561816980563"><ele>900.0</ele><time>2026-03-29T10:44:19.999Z</time></trkpt><trkpt lat="44.811857680889474" lon="9.28573458544192"><ele>905.0</ele><time>2026-03-29T10:44:20.999Z</time></trkpt><trkpt lat="44.81188617743617" lon="9.285935187205585"><ele>910.0</ele><time>2026-03-29T10:44:21.999Z</time></trkpt><trkpt lat="44.811886931226326" lon="9.286142567511149"><ele>915.0</ele><time>2026-03-29T10:44:22.999Z</time></trkpt><trkpt lat="44.811872148123996" lon="9.286339045008802"><ele>917.0</ele><time>2026-03-29T10:44:23.999Z</time></trkpt><trkpt lat="44.811876558422696" lon="9.286513667219582"><ele>919.0</ele><time>2026-03-29T10:44:24.999Z</time></trkpt><trkpt lat="44.81195065294856" lon="9.286672635798714"><ele>921.0</ele><time>2026-03-29T10:44:25.999Z</time></trkpt><trkpt lat="44.812042177698885" lon="9.28684208285283"><ele>923.0</ele><time>2026-03-29T10:44:26.999Z</time></trkpt><trkpt lat="44.8121173821116" lon="9.287033371574216"><ele>923.0</ele><time>2026-03-29T10:44:27.999Z</time></trkpt><trkpt lat="44.81215804080691" lon="9.287244613337691"><ele>923.0</ele><time>2026-03-29T10:44:28.999Z</time></trkpt><trkpt lat="44.81224258139625" lon="9.287412999461477"><ele>923.0</ele><time>2026-03-29T10:44:29.999Z</time></trkpt><trkpt lat="44.81232814425258" lon="9.28754450316542"><ele>923.0</ele><time>2026-03-29T10:44:30.999Z</time></trkpt><trkpt lat="44.81238654532613" lon="9.287668138059953"><ele>922.8</ele><time>2026-03-29T10:44:31.999Z</time></trkpt><trkpt lat="44.81243210624487" lon="9.287760987250428"><ele>922.5999999999999</ele><time>2026-03-29T10:44:32.999Z</time></trkpt><trkpt lat="44.812409247352015" lon="9.287950617513697"><ele>922.4000000000001</ele><time>2026-03-29T10:44:34.999Z</time></trkpt><trkpt lat="44.812324360935705" lon="9.28800069703642"><ele>922.2</ele><time>2026-03-29T10:44:35.999Z</time></trkpt><trkpt lat="44.81224015761408" lon="9.28796849770541"><ele>922.0</ele><time>2026-03-29T10:44:36.999Z</time></trkpt><trkpt lat="44.81219740187116" lon="9.287816389643973"><ele>922.0</ele><time>2026-03-29T10:44:37.999Z</time></trkpt><trkpt lat="44.812128591815785" lon="9.287674314600396"><ele>922.0</ele><time>2026-03-29T10:44:38.999Z</time></trkpt><trkpt lat="44.812030684602455" lon="9.287527365369574"><ele>922.0</ele><time>2026-03-29T10:44:39.999Z</time></trkpt><trkpt lat="44.81192074005972" lon="9.287369783740091"><ele>922.0</ele><time>2026-03-29T10:44:40.999Z</time></trkpt><trkpt lat="44.81183199139278" lon="9.287194562296394"><ele>917.0</ele><time>2026-03-29T10:44:41.999Z</time></trkpt><trkpt lat="44.81174644560441" lon="9.287040429134612"><ele>912.0</ele><time>2026-03-29T10:44:42.999Z</time></trkpt><trkpt lat="44.81165074265811" lon="9.286891425492714"><ele>907.0</ele><time>2026-03-29T10:44:44Z</time></trkpt><trkpt lat="44.811523524158105" lon="9.286770667795192"><ele>902.0</ele><time>2026-03-29T10:44:45Z</time></trkpt><trkpt lat="44.811396226151054" lon="9.286669642814458"><ele>902.0</ele><time>2026-03-29T10:44:46Z</time></trkpt><trkpt lat="44.81128041886745" lon="9.286605492908004"><ele>902.0</ele><time>2026-03-29T10:44:47Z</time></trkpt><trkpt lat="44.811167714947665" lon="9.286597931446517"><ele>902.0</ele><time>2026-03-29T10:44:48Z</time></trkpt><trkpt lat="44.811059474152934" lon="9.286646102962752"><ele>902.0</ele><time>2026-03-29T10:44:49Z</time></trkpt><trkpt lat="44.81096250259681" lon="9.286761529979044"><ele>902.6666666666667</ele><time>2026-03-29T10:44:50Z</time></trkpt><trkpt lat="44.81088553250447" lon="9.28692163415943"><ele>903.3333333333333</ele><time>2026-03-29T10:44:51Z</time></trkpt><trkpt lat="44.81080198967004" lon="9.287102895439325"><ele>904.0</ele><time>2026-03-29T10:44:52Z</time></trkpt><trkpt lat="44.810675603853625" lon="9.287259720219051"><ele>912.0</ele><time>2026-03-29T10:44:53Z</time></trkpt><trkpt lat="44.810509472558856" lon="9.287388035588599"><ele>920.0</ele><time>2026-03-29T10:44:54Z</time></trkpt><trkpt lat="44.81034761999305" lon="9.287514151231026"><ele>928.0</ele><time>2026-03-29T10:44:55Z</time></trkpt><trkpt lat="44.81019140471285" lon="9.28764171242097"><ele>930.6666666666666</ele><time>2026-03-29T10:44:56Z</time></trkpt><trkpt lat="44.8100334343745" lon="9.287782870275448"><ele>933.3333333333333</ele><time>2026-03-29T10:44:57Z</time></trkpt><trkpt lat="44.80987209193191" lon="9.287934880292024"><ele>936.0</ele><time>2026-03-29T10:44:58Z</time></trkpt><trkpt lat="44.809714721272606" lon="9.28810858613148"><ele>936.0</ele><time>2026-03-29T10:44:59Z</time></trkpt><trkpt lat="44.80956595254931" lon="9.288295173135385"><ele>936.0</ele><time>2026-03-29T10:45:00Z</time></trkpt><trkpt lat="44.80944521529385" lon="9.288474078219258"><ele>936.0</ele><time>2026-03-29T10:45:01Z</time></trkpt><trkpt lat="44.809347442318604" lon="9.288640568136062"><ele>933.5</ele><time>2026-03-29T10:45:02Z</time></trkpt><trkpt lat="44.809269244690356" lon="9.288796431873365"><ele>931.0</ele><time>2026-03-29T10:45:03Z</time></trkpt><trkpt lat="44.80920951324076" lon="9.288971807085172"><ele>928.5</ele><time>2026-03-29T10:45:04Z</time></trkpt><trkpt lat="44.80917198766137" lon="9.289178994258846"><ele>926.0</ele><time>2026-03-29T10:45:05Z</time></trkpt><trkpt lat="44.809150035446976" lon="9.289385519222796"><ele>926.0</ele><time>2026-03-29T10:45:06Z</time></trkpt><trkpt lat="44.80913036788854" lon="9.289564228954042"><ele>925.9999999999999</ele><time>2026-03-29T10:45:07Z</time></trkpt><trkpt lat="44.80911819306188" lon="9.28971577531523"><ele>925.9999999999999</ele><time>2026-03-29T10:45:08Z</time></trkpt><trkpt lat="44.809139719622" lon="9.289840604066473"><ele>926.0</ele><time>2026-03-29T10:45:09Z</time></trkpt><trkpt lat="44.8091953681341" lon="9.289928949561137"><ele>926.0</ele><time>2026-03-29T10:45:10Z</time></trkpt><trkpt lat="44.809279284725974" lon="9.289976281361263"><ele>931.1999999999999</ele><time>2026-03-29T10:45:11Z</time></trkpt><trkpt lat="44.80937452838609" lon="9.28994966658518"><ele>936.3999999999999</ele><time>2026-03-29T10:45:12Z</time></trkpt><trkpt lat="44.80945620810428" lon="9.289857058651759"><ele>941.6</ele><time>2026-03-29T10:45:13Z</time></trkpt><trkpt lat="44.809489570671786" lon="9.28970404927481"><ele>946.8</ele><time>2026-03-29T10:45:14Z</time></trkpt><trkpt lat="44.8094838624837" lon="9.289533500007789"><ele>952.0</ele><time>2026-03-29T10:45:15Z</time></trkpt><trkpt lat="44.809446130398804" lon="9.289355911701952"><ele>952.0</ele><time>2026-03-29T10:45:16Z</time></trkpt><trkpt lat="44.809483334547146" lon="9.289203298370047"><ele>952.0</ele><time>2026-03-29T10:45:17Z</time></trkpt><trkpt lat="44.809557871230176" lon="9.289091475901285"><ele>952.0</ele><time>2026-03-29T10:45:18Z</time></trkpt><trkpt lat="44.809668390886095" lon="9.288986633107674"><ele>952.0</ele><time>2026-03-29T10:45:19Z</time></trkpt><trkpt lat="44.80978573410722" lon="9.288836964727137"><ele>951.3333333333333</ele><time>2026-03-29T10:45:20Z</time></trkpt><trkpt lat="44.80991864681422" lon="9.288699814583733"><ele>950.6666666666667</ele><time>2026-03-29T10:45:21Z</time></trkpt><trkpt lat="44.81005378968902" lon="9.288549769247131"><ele>950.0</ele><time>2026-03-29T10:45:22Z</time></trkpt><trkpt lat="44.81019836890792" lon="9.288436543271638"><ele>950.0</ele><time>2026-03-29T10:45:23Z</time></trkpt><trkpt lat="44.810342453842196" lon="9.288333544478094"><ele>950.0</ele><time>2026-03-29T10:45:24Z</time></trkpt><trkpt lat="44.81047417388624" lon="9.2882661394831"><ele>950.0</ele><time>2026-03-29T10:45:25Z</time></trkpt><trkpt lat="44.81058680013737" lon="9.288216941941723"><ele>950.0</ele><time>2026-03-29T10:45:26Z</time></trkpt><trkpt lat="44.81067818208568" lon="9.288210225565258"><ele>950.0</ele><time>2026-03-29T10:45:27Z</time></trkpt><trkpt lat="44.81075976510231" lon="9.28826141722823"><ele>950.0</ele><time>2026-03-29T10:45:28Z</time></trkpt><trkpt lat="44.81083410273406" lon="9.288377231572552"><ele>950.0</ele><time>2026-03-29T10:45:29Z</time></trkpt><trkpt lat="44.810923956438046" lon="9.28848828484578"><ele>950.0</ele><time>2026-03-29T10:45:30Z</time></trkpt><trkpt lat="44.81099473485129" lon="9.288606345967558"><ele>950.0</ele><time>2026-03-29T10:45:31Z</time></trkpt><trkpt lat="44.81101967893647" lon="9.288713607370715"><ele>950.0</ele><time>2026-03-29T10:45:32Z</time></trkpt><trkpt lat="44.810977113724846" lon="9.288811830350031"><ele>950.0</ele><time>2026-03-29T10:45:33Z</time></trkpt><trkpt lat="44.81089271344725" lon="9.288862782319674"><ele>950.0</ele><time>2026-03-29T10:45:34Z</time></trkpt><trkpt lat="44.81078721815841" lon="9.288849945749423"><ele>950.0</ele><time>2026-03-29T10:45:35Z</time></trkpt><trkpt lat="44.81066980972144" lon="9.288771585930883"><ele>950.0</ele><time>2026-03-29T10:45:36Z</time></trkpt><trkpt lat="44.810549824655745" lon="9.28871694278307"><ele>950.0</ele><time>2026-03-29T10:45:37Z</time></trkpt><trkpt lat="44.81043264066517" lon="9.288726134153645"><ele>950.0</ele><time>2026-03-29T10:45:38Z</time></trkpt><trkpt lat="44.8103387103702" lon="9.288821593982831"><ele>950.0</ele><time>2026-03-29T10:45:39Z</time></trkpt><trkpt lat="44.8102600327802" lon="9.288980426296156"><ele>950.0</ele><time>2026-03-29T10:45:40Z</time></trkpt><trkpt lat="44.810187659214385" lon="9.289165696829693"><ele>950.6666666666667</ele><time>2026-03-29T10:45:41Z</time></trkpt><trkpt lat="44.81012042545846" lon="9.289373161053392"><ele>951.3333333333333</ele><time>2026-03-29T10:45:42Z</time></trkpt><trkpt lat="44.81006471958932" lon="9.289605177574105"><ele>952.0</ele><time>2026-03-29T10:45:43Z</time></trkpt><trkpt lat="44.81002169436191" lon="9.289842438137919"><ele>954.5</ele><time>2026-03-29T10:45:44Z</time></trkpt><trkpt lat="44.80999620585792" lon="9.290080144824033"><ele>957.0</ele><time>2026-03-29T10:45:45Z</time></trkpt><trkpt lat="44.80992028217765" lon="9.290254742020675"><ele>959.5</ele><time>2026-03-29T10:45:46Z</time></trkpt><trkpt lat="44.80987270072124" lon="9.290397057647905"><ele>962.0</ele><time>2026-03-29T10:45:47Z</time></trkpt><trkpt lat="44.809838274770534" lon="9.290525621828126"><ele>964.0</ele><time>2026-03-29T10:45:48Z</time></trkpt><trkpt lat="44.809852092863466" lon="9.290655009650541"><ele>966.0</ele><time>2026-03-29T10:45:49Z</time></trkpt><trkpt lat="44.80992524631279" lon="9.290765538799686"><ele>968.0</ele><time>2026-03-29T10:45:49.999Z</time></trkpt><trkpt lat="44.81003533655149" lon="9.29082112541309"><ele>970.0</ele><time>2026-03-29T10:45:50.999Z</time></trkpt><trkpt lat="44.81013330073124" lon="9.290892124472764"><ele>972.0</ele><time>2026-03-29T10:45:51.999Z</time></trkpt><trkpt lat="44.81017254001767" lon="9.291008865948198"><ele>972.0</ele><time>2026-03-29T10:45:52.999Z</time></trkpt><trkpt lat="44.81014926499758" lon="9.291131108955877"><ele>972.0</ele><time>2026-03-29T10:45:53.999Z</time></trkpt><trkpt lat="44.81008100696518" lon="9.291222234241012"><ele>972.0</ele><time>2026-03-29T10:45:54.999Z</time></trkpt><trkpt lat="44.80997254159574" lon="9.2912792525221"><ele>972.0</ele><time>2026-03-29T10:45:55.999Z</time></trkpt><trkpt lat="44.80987650696389" lon="9.29136204625378"><ele>972.0</ele><time>2026-03-29T10:45:56.999Z</time></trkpt><trkpt lat="44.80980199672104" lon="9.291529137011208"><ele>974.0</ele><time>2026-03-29T10:45:57.999Z</time></trkpt><trkpt lat="44.809748469908016" lon="9.291758485747188"><ele>976.0</ele><time>2026-03-29T10:45:58.999Z</time></trkpt><trkpt lat="44.809737450092925" lon="9.29203073129894"><ele>978.0</ele><time>2026-03-29T10:45:59.999Z</time></trkpt><trkpt lat="44.80973570509447" lon="9.292324909247922"><ele>981.6666666666667</ele><time>2026-03-29T10:46:00.999Z</time></trkpt><trkpt lat="44.80972316959463" lon="9.29261263262448"><ele>985.3333333333334</ele><time>2026-03-29T10:46:01.999Z</time></trkpt><trkpt lat="44.809701755462214" lon="9.292913448335792"><ele>989.0</ele><time>2026-03-29T10:46:02.999Z</time></trkpt><trkpt lat="44.8096865658958" lon="9.293222273248007"><ele>993.0</ele><time>2026-03-29T10:46:03.999Z</time></trkpt><trkpt lat="44.80967867457121" lon="9.293500034733148"><ele>997.0</ele><time>2026-03-29T10:46:04.999Z</time></trkpt><trkpt lat="44.80968492782443" lon="9.293743802795996"><ele>1001.0</ele><time>2026-03-29T10:46:05.999Z</time></trkpt><trkpt lat="44.8097049497163" lon="9.29394289225093"><ele>1003.75</ele><time>2026-03-29T10:46:06.999Z</time></trkpt><trkpt lat="44.80970141833138" lon="9.294112409269703"><ele>1006.5</ele><time>2026-03-29T10:46:07.999Z</time></trkpt><trkpt lat="44.809688895354505" lon="9.294249818543744"><ele>1009.25</ele><time>2026-03-29T10:46:08.999Z</time></trkpt><trkpt lat="44.80960246270357" lon="9.294361897909466"><ele>1012.0</ele><time>2026-03-29T10:46:09.999Z</time></trkpt><trkpt lat="44.8094717787518" lon="9.294404921574483"><ele>1012.0</ele><time>2026-03-29T10:46:10.999Z</time></trkpt><trkpt lat="44.80933379694158" lon="9.294474399160457"><ele>1012.0</ele><time>2026-03-29T10:46:11.999Z</time></trkpt><trkpt lat="44.80920541115464" lon="9.294569253298416"><ele>1012.0</ele><time>2026-03-29T10:46:12.999Z</time></trkpt><trkpt lat="44.80908850030967" lon="9.29470967388917"><ele>1012.0</ele><time>2026-03-29T10:46:13.999Z</time></trkpt><trkpt lat="44.80896909636152" lon="9.294825908716138"><ele>1012.25</ele><time>2026-03-29T10:46:14.999Z</time></trkpt><trkpt lat="44.80883063580148" lon="9.29485833749406"><ele>1012.5</ele><time>2026-03-29T10:46:15.999Z</time></trkpt><trkpt lat="44.808685809156586" lon="9.294885620281276"><ele>1012.75</ele><time>2026-03-29T10:46:16.999Z</time></trkpt><trkpt lat="44.80856192138062" lon="9.294901011519281"><ele>1013.0</ele><time>2026-03-29T10:46:17.999Z</time></trkpt><trkpt lat="44.80846401096539" lon="9.294952055027865"><ele>1011.25</ele><time>2026-03-29T10:46:18.999Z</time></trkpt><trkpt lat="44.808404100627435" lon="9.295072187167074"><ele>1009.5</ele><time>2026-03-29T10:46:19.999Z</time></trkpt><trkpt lat="44.808378183033284" lon="9.295238656491389"><ele>1007.75</ele><time>2026-03-29T10:46:20.999Z</time></trkpt><trkpt lat="44.80839222142269" lon="9.295442957680795"><ele>1006.0</ele><time>2026-03-29T10:46:21.999Z</time></trkpt><trkpt lat="44.80843040814518" lon="9.295678426134886"><ele>1006.0</ele><time>2026-03-29T10:46:22.999Z</time></trkpt><trkpt lat="44.80847221008475" lon="9.295934925073075"><ele>1006.0</ele><time>2026-03-29T10:46:23.999Z</time></trkpt><trkpt lat="44.80852157122915" lon="9.296171773002262"><ele>1006.0</ele><time>2026-03-29T10:46:24.999Z</time></trkpt><trkpt lat="44.80859668206109" lon="9.296394377526283"><ele>1015.3333333333333</ele><time>2026-03-29T10:46:25.999Z</time></trkpt><trkpt lat="44.80865593515855" lon="9.296629504975407"><ele>1024.6666666666667</ele><time>2026-03-29T10:46:26.999Z</time></trkpt><trkpt lat="44.80863948885695" lon="9.296863201640898"><ele>1034.0</ele><time>2026-03-29T10:46:27.999Z</time></trkpt><trkpt lat="44.80862246769559" lon="9.297095951424978"><ele>1035.5</ele><time>2026-03-29T10:46:28.999Z</time></trkpt><trkpt lat="44.80861851648788" lon="9.297296918582179"><ele>1037.0</ele><time>2026-03-29T10:46:29.999Z</time></trkpt><trkpt lat="44.80860009694837" lon="9.297453198911118"><ele>1038.5</ele><time>2026-03-29T10:46:30.999Z</time></trkpt><trkpt lat="44.80852632236736" lon="9.297555367682486"><ele>1040.0</ele><time>2026-03-29T10:46:31.999Z</time></trkpt><trkpt lat="44.80841170315584" lon="9.29761091875969"><ele>1035.5</ele><time>2026-03-29T10:46:32.999Z</time></trkpt><trkpt lat="44.80828327565871" lon="9.297596349145213"><ele>1031.0</ele><time>2026-03-29T10:46:33.999Z</time></trkpt><trkpt lat="44.80818153022336" lon="9.297640477041663"><ele>1026.5</ele><time>2026-03-29T10:46:34.999Z</time></trkpt><trkpt lat="44.808123927535725" lon="9.297755291966777"><ele>1022.0</ele><time>2026-03-29T10:46:35.999Z</time></trkpt><trkpt lat="44.80809756159583" lon="9.297931390613375"><ele>1027.3333333333335</ele><time>2026-03-29T10:46:36.999Z</time></trkpt><trkpt lat="44.808072052802196" lon="9.298128407400554"><ele>1032.6666666666667</ele><time>2026-03-29T10:46:37.999Z</time></trkpt><trkpt lat="44.80801400517585" lon="9.298343906105496"><ele>1038.0</ele><time>2026-03-29T10:46:38.999Z</time></trkpt><trkpt lat="44.80793162993842" lon="9.298564477577514"><ele>1038.0</ele><time>2026-03-29T10:46:39.999Z</time></trkpt><trkpt lat="44.80786012850077" lon="9.298799073450294"><ele>1038.0</ele><time>2026-03-29T10:46:40.999Z</time></trkpt><trkpt lat="44.80779509840907" lon="9.299006719579063"><ele>1038.0</ele><time>2026-03-29T10:46:41.999Z</time></trkpt><trkpt lat="44.80770926642573" lon="9.299189018393426"><ele>1038.25</ele><time>2026-03-29T10:46:42.999Z</time></trkpt><trkpt lat="44.80760975419317" lon="9.299320966917383"><ele>1038.5</ele><time>2026-03-29T10:46:43.999Z</time></trkpt><trkpt lat="44.80753287711769" lon="9.299474540493154"><ele>1038.75</ele><time>2026-03-29T10:46:44.999Z</time></trkpt><trkpt lat="44.807485684366064" lon="9.299668305202772"><ele>1039.0</ele><time>2026-03-29T10:46:45.999Z</time></trkpt><trkpt lat="44.80747972064081" lon="9.299857535119587"><ele>1039.0</ele><time>2026-03-29T10:46:46.999Z</time></trkpt><trkpt lat="44.8075009257476" lon="9.300025942925219"><ele>1039.0</ele><time>2026-03-29T10:46:47.999Z</time></trkpt><trkpt lat="44.80750935158109" lon="9.30017574247102"><ele>1039.0</ele><time>2026-03-29T10:46:48.999Z</time></trkpt><trkpt lat="44.80745850068442" lon="9.300298438202578"><ele>1039.0</ele><time>2026-03-29T10:46:50Z</time></trkpt><trkpt lat="44.80735467108699" lon="9.300368595081451"><ele>1039.0</ele><time>2026-03-29T10:46:51Z</time></trkpt><trkpt lat="44.80727609387669" lon="9.300480983176053"><ele>1043.25</ele><time>2026-03-29T10:46:52Z</time></trkpt><trkpt lat="44.80722599041451" lon="9.300635134198336"><ele>1047.5</ele><time>2026-03-29T10:46:53Z</time></trkpt><trkpt lat="44.80721525691894" lon="9.30083085014029"><ele>1051.75</ele><time>2026-03-29T10:46:54Z</time></trkpt><trkpt lat="44.80722441684784" lon="9.30105102898182"><ele>1056.0</ele><time>2026-03-29T10:46:55Z</time></trkpt><trkpt lat="44.8072042110692" lon="9.301285768671494"><ele>1060.3333333333333</ele><time>2026-03-29T10:46:56Z</time></trkpt><trkpt lat="44.807162038918044" lon="9.301528539037067"><ele>1064.6666666666665</ele><time>2026-03-29T10:46:57Z</time></trkpt><trkpt lat="44.80711319136968" lon="9.301769476108658"><ele>1069.0</ele><time>2026-03-29T10:46:58Z</time></trkpt><trkpt lat="44.80705682982353" lon="9.301977447756478"><ele>1069.0</ele><time>2026-03-29T10:46:59Z</time></trkpt><trkpt lat="44.80696388012991" lon="9.302155201364151"><ele>1069.0</ele><time>2026-03-29T10:47:00Z</time></trkpt><trkpt lat="44.806854820492596" lon="9.302334106801565"><ele>1069.0</ele><time>2026-03-29T10:47:01Z</time></trkpt><trkpt lat="44.806763162962355" lon="9.302548997169584"><ele>1068.0</ele><time>2026-03-29T10:47:02Z</time></trkpt><trkpt lat="44.806689204196246" lon="9.302791878539828"><ele>1067.0</ele><time>2026-03-29T10:47:03Z</time></trkpt><trkpt lat="44.806603433034525" lon="9.303016860830283"><ele>1066.0</ele><time>2026-03-29T10:47:04Z</time></trkpt><trkpt lat="44.80656962203066" lon="9.303256975948736"><ele>1066.0</ele><time>2026-03-29T10:47:05Z</time></trkpt><trkpt lat="44.806492557767506" lon="9.303448772251784"><ele>1066.0</ele><time>2026-03-29T10:47:06Z</time></trkpt><trkpt lat="44.80637023634256" lon="9.303592682195168"><ele>1066.0</ele><time>2026-03-29T10:47:07Z</time></trkpt><trkpt lat="44.80629429029801" lon="9.303791985633364"><ele>1072.3333333333333</ele><time>2026-03-29T10:47:08Z</time></trkpt><trkpt lat="44.80622362491513" lon="9.304024048222239"><ele>1078.6666666666667</ele><time>2026-03-29T10:47:09Z</time></trkpt><trkpt lat="44.806150127248365" lon="9.30428838593581"><ele>1085.0</ele><time>2026-03-29T10:47:10Z</time></trkpt><trkpt lat="44.80606789364821" lon="9.304577307962568"><ele>1078.6666666666667</ele><time>2026-03-29T10:47:11Z</time></trkpt><trkpt lat="44.805982449830104" lon="9.304856092367011"><ele>1072.3333333333333</ele><time>2026-03-29T10:47:12Z</time></trkpt><trkpt lat="44.80588549497704" lon="9.30512774224615"><ele>1066.0</ele><time>2026-03-29T10:47:13Z</time></trkpt><trkpt lat="44.805784398714245" lon="9.305400035983238"><ele>1072.0</ele><time>2026-03-29T10:47:14Z</time></trkpt><trkpt lat="44.805694897450174" lon="9.30564694343947"><ele>1078.0</ele><time>2026-03-29T10:47:15Z</time></trkpt><trkpt lat="44.80560592167921" lon="9.305874197426673"><ele>1084.0</ele><time>2026-03-29T10:47:16Z</time></trkpt><trkpt lat="44.805575711502264" lon="9.306109878246913"><ele>1084.0</ele><time>2026-03-29T10:47:17Z</time></trkpt><trkpt lat="44.80552739364488" lon="9.306319949132023"><ele>1084.0</ele><time>2026-03-29T10:47:18Z</time></trkpt><trkpt lat="44.80543716585577" lon="9.30650829440354"><ele>1084.0</ele><time>2026-03-29T10:47:19Z</time></trkpt><trkpt lat="44.805316631550575" lon="9.30668335663044"><ele>1083.0</ele><time>2026-03-29T10:47:20Z</time></trkpt><trkpt lat="44.805191027467245" lon="9.306866043999161"><ele>1082.0</ele><time>2026-03-29T10:47:21Z</time></trkpt><trkpt lat="44.80507074629126" lon="9.307065097956785"><ele>1081.0</ele><time>2026-03-29T10:47:22Z</time></trkpt><trkpt lat="44.80495677809579" lon="9.307275940082118"><ele>1081.0</ele><time>2026-03-29T10:47:23Z</time></trkpt><trkpt lat="44.80484165847719" lon="9.307494829655539"><ele>1081.0</ele><time>2026-03-29T10:47:24Z</time></trkpt><trkpt lat="44.80472371686769" lon="9.307714169374858"><ele>1081.0</ele><time>2026-03-29T10:47:25Z</time></trkpt><trkpt lat="44.80459575114466" lon="9.307928654892411"><ele>1078.0</ele><time>2026-03-29T10:47:26Z</time></trkpt><trkpt lat="44.80446617541639" lon="9.308142220731405"><ele>1075.0</ele><time>2026-03-29T10:47:27Z</time></trkpt><trkpt lat="44.804333279252965" lon="9.308345213947756"><ele>1072.0</ele><time>2026-03-29T10:47:28Z</time></trkpt><trkpt lat="44.80419888878037" lon="9.308527238642906"><ele>1072.0</ele><time>2026-03-29T10:47:29Z</time></trkpt><trkpt lat="44.804075332389225" lon="9.308687426564834"><ele>1072.0</ele><time>2026-03-29T10:47:30Z</time></trkpt><trkpt lat="44.803970406079365" lon="9.30887013317235"><ele>1072.0</ele><time>2026-03-29T10:47:31Z</time></trkpt><trkpt lat="44.803884617337665" lon="9.309085735487054"><ele>1075.6666666666665</ele><time>2026-03-29T10:47:32Z</time></trkpt><trkpt lat="44.803810857904864" lon="9.309314112981914"><ele>1079.3333333333333</ele><time>2026-03-29T10:47:33Z</time></trkpt><trkpt lat="44.803747002420444" lon="9.309550804920761"><ele>1083.0</ele><time>2026-03-29T10:47:34Z</time></trkpt><trkpt lat="44.803689834712216" lon="9.309792059382428"><ele>1082.6666666666667</ele><time>2026-03-29T10:47:35Z</time></trkpt><trkpt lat="44.80362288310968" lon="9.310027865672962"><ele>1082.3333333333335</ele><time>2026-03-29T10:47:36Z</time></trkpt><trkpt lat="44.80353466289653" lon="9.310255453976996"><ele>1082.0</ele><time>2026-03-29T10:47:37Z</time></trkpt><trkpt lat="44.803436945073344" lon="9.310474363671931"><ele>1085.6666666666667</ele><time>2026-03-29T10:47:38Z</time></trkpt><trkpt lat="44.80334438306251" lon="9.31068768356469"><ele>1089.3333333333333</ele><time>2026-03-29T10:47:39Z</time></trkpt><trkpt lat="44.803248956417946" lon="9.310886399786195"><ele>1093.0</ele><time>2026-03-29T10:47:40Z</time></trkpt><trkpt lat="44.8031420773116" lon="9.311054482081982"><ele>1093.0</ele><time>2026-03-29T10:47:41Z</time></trkpt><trkpt lat="44.803017878521004" lon="9.311190022766768"><ele>1093.0</ele><time>2026-03-29T10:47:42Z</time></trkpt><trkpt lat="44.80288809032498" lon="9.311283209553388"><ele>1093.0</ele><time>2026-03-29T10:47:43Z</time></trkpt><trkpt lat="44.8027759783071" lon="9.311362998455712"><ele>1093.0</ele><time>2026-03-29T10:47:44Z</time></trkpt><trkpt lat="44.80268211576039" lon="9.311481960440995"><ele>1092.75</ele><time>2026-03-29T10:47:45Z</time></trkpt><trkpt lat="44.80259809606977" lon="9.311640011422838"><ele>1092.5</ele><time>2026-03-29T10:47:46Z</time></trkpt><trkpt lat="44.802520866991095" lon="9.311815611806066"><ele>1092.25</ele><time>2026-03-29T10:47:47Z</time></trkpt><trkpt lat="44.80244700518474" lon="9.312004216067505"><ele>1092.0</ele><time>2026-03-29T10:47:48Z</time></trkpt><trkpt lat="44.8023800044018" lon="9.312209455376971"><ele>1094.0</ele><time>2026-03-29T10:47:49Z</time></trkpt><trkpt lat="44.80231621755053" lon="9.312419682122908"><ele>1096.0</ele><time>2026-03-29T10:47:50Z</time></trkpt><trkpt lat="44.80225414836929" lon="9.31263819965521"><ele>1098.0</ele><time>2026-03-29T10:47:51Z</time></trkpt><trkpt lat="44.802190665440726" lon="9.312849634188469"><ele>1098.0</ele><time>2026-03-29T10:47:52Z</time></trkpt><trkpt lat="44.80212234283348" lon="9.313040770698313"><ele>1098.0</ele><time>2026-03-29T10:47:53Z</time></trkpt><trkpt lat="44.80204539292119" lon="9.313199323824819"><ele>1098.0</ele><time>2026-03-29T10:47:53.999Z</time></trkpt><trkpt lat="44.80194702938524" lon="9.313323867134267"><ele>1098.0</ele><time>2026-03-29T10:47:54.999Z</time></trkpt><trkpt lat="44.801826724811406" lon="9.313425200962648"><ele>1098.75</ele><time>2026-03-29T10:47:55.999Z</time></trkpt><trkpt lat="44.801696572545254" lon="9.313519396655531"><ele>1099.5</ele><time>2026-03-29T10:47:56.999Z</time></trkpt><trkpt lat="44.801574074663236" lon="9.313623224667223"><ele>1100.25</ele><time>2026-03-29T10:47:57.999Z</time></trkpt><trkpt lat="44.80146248739908" lon="9.313697530246905"><ele>1101.0</ele><time>2026-03-29T10:47:58.999Z</time></trkpt><trkpt lat="44.80135188153065" lon="9.31372181595455"><ele>1101.0</ele><time>2026-03-29T10:47:59.999Z</time></trkpt><trkpt lat="44.80124141943913" lon="9.313686157924387"><ele>1101.0</ele><time>2026-03-29T10:48:00.999Z</time></trkpt><trkpt lat="44.801133767202714" lon="9.313599737788318"><ele>1101.0</ele><time>2026-03-29T10:48:01.999Z</time></trkpt><trkpt lat="44.801019113761754" lon="9.31352101670661"><ele>1101.0</ele><time>2026-03-29T10:48:02.999Z</time></trkpt><trkpt lat="44.80090352035809" lon="9.31348544103049"><ele>1102.5</ele><time>2026-03-29T10:48:03.999Z</time></trkpt><trkpt lat="44.800793470716734" lon="9.31349450208042"><ele>1104.0</ele><time>2026-03-29T10:48:04.999Z</time></trkpt><trkpt lat="44.80068134696844" lon="9.313546634204679"><ele>1105.5</ele><time>2026-03-29T10:48:05.999Z</time></trkpt><trkpt lat="44.80056974397484" lon="9.3136287448573"><ele>1107.0</ele><time>2026-03-29T10:48:06.999Z</time></trkpt><trkpt lat="44.80046215458376" lon="9.31372466380144"><ele>1107.0</ele><time>2026-03-29T10:48:07.999Z</time></trkpt><trkpt lat="44.80037004393141" lon="9.3138524344265"><ele>1107.0</ele><time>2026-03-29T10:48:08.999Z</time></trkpt><trkpt lat="44.800294247112625" lon="9.313996930543226"><ele>1107.0</ele><time>2026-03-29T10:48:09.999Z</time></trkpt><trkpt lat="44.80024680433477" lon="9.314164563181281"><ele>1107.0</ele><time>2026-03-29T10:48:10.999Z</time></trkpt><trkpt lat="44.80023268773318" lon="9.314350172981564"><ele>1106.5</ele><time>2026-03-29T10:48:11.999Z</time></trkpt><trkpt lat="44.800224915116665" lon="9.314533237095409"><ele>1106.0</ele><time>2026-03-29T10:48:12.999Z</time></trkpt><trkpt lat="44.800197856335906" lon="9.314688400236125"><ele>1105.5</ele><time>2026-03-29T10:48:13.999Z</time></trkpt><trkpt lat="44.800132512969796" lon="9.314809568771377"><ele>1105.0</ele><time>2026-03-29T10:48:14.999Z</time></trkpt><trkpt lat="44.80003760876488" lon="9.3149122374708"><ele>1107.75</ele><time>2026-03-29T10:48:15.999Z</time></trkpt><trkpt lat="44.799941884143834" lon="9.315027496144822"><ele>1110.5</ele><time>2026-03-29T10:48:16.999Z</time></trkpt><trkpt lat="44.79988150783858" lon="9.31521119127113"><ele>1113.25</ele><time>2026-03-29T10:48:17.999Z</time></trkpt><trkpt lat="44.79987519698753" lon="9.31541666842346"><ele>1116.0</ele><time>2026-03-29T10:48:18.999Z</time></trkpt><trkpt lat="44.799853539504234" lon="9.315622137920439"><ele>1116.0</ele><time>2026-03-29T10:48:19.999Z</time></trkpt><trkpt lat="44.79983091959152" lon="9.315833037623442"><ele>1116.0</ele><time>2026-03-29T10:48:20.999Z</time></trkpt><trkpt lat="44.79979309004261" lon="9.31603637325542"><ele>1116.0</ele><time>2026-03-29T10:48:21.999Z</time></trkpt><trkpt lat="44.79972891319447" lon="9.31623566642678"><ele>1114.3333333333333</ele><time>2026-03-29T10:48:22.999Z</time></trkpt><trkpt lat="44.799659888636945" lon="9.316440419318305"><ele>1112.6666666666665</ele><time>2026-03-29T10:48:23.999Z</time></trkpt><trkpt lat="44.79960352353399" lon="9.316629318203727"><ele>1111.0</ele><time>2026-03-29T10:48:24.999Z</time></trkpt><trkpt lat="44.79956944920709" lon="9.316836811702839"><ele>1111.0</ele><time>2026-03-29T10:48:25.999Z</time></trkpt><trkpt lat="44.799600024239645" lon="9.317063876779109"><ele>1111.0</ele><time>2026-03-29T10:48:26.999Z</time></trkpt><trkpt lat="44.79965753663226" lon="9.317257167277692"><ele>1111.0</ele><time>2026-03-29T10:48:27.999Z</time></trkpt><trkpt lat="44.7997043364603" lon="9.317417727583765"><ele>1111.0</ele><time>2026-03-29T10:48:28.999Z</time></trkpt><trkpt lat="44.79972059709476" lon="9.317575699866833"><ele>1111.0</ele><time>2026-03-29T10:48:29.999Z</time></trkpt><trkpt lat="44.799714665311924" lon="9.31777511605431"><ele>1111.0</ele><time>2026-03-29T10:48:30.999Z</time></trkpt><trkpt lat="44.79972032664556" lon="9.317988073909783"><ele>1111.0</ele><time>2026-03-29T10:48:31.999Z</time></trkpt><trkpt lat="44.79969614327205" lon="9.3181938551219"><ele>1111.0</ele><time>2026-03-29T10:48:32.999Z</time></trkpt><trkpt lat="44.79967288437832" lon="9.318364473943936"><ele>1111.0</ele><time>2026-03-29T10:48:33.999Z</time></trkpt><trkpt lat="44.79961013789684" lon="9.318499576675261"><ele>1111.0</ele><time>2026-03-29T10:48:34.999Z</time></trkpt><trkpt lat="44.799514038393056" lon="9.318605897368258"><ele>1111.0</ele><time>2026-03-29T10:48:35.999Z</time></trkpt><trkpt lat="44.79940367989317" lon="9.318700202529412"><ele>1111.0</ele><time>2026-03-29T10:48:36.999Z</time></trkpt><trkpt lat="44.79929782446696" lon="9.318817474202586"><ele>1115.0</ele><time>2026-03-29T10:48:37.999Z</time></trkpt><trkpt lat="44.799185953707315" lon="9.318949618572407"><ele>1119.0</ele><time>2026-03-29T10:48:38.999Z</time></trkpt><trkpt lat="44.79907768033236" lon="9.31909913435714"><ele>1123.0</ele><time>2026-03-29T10:48:39.999Z</time></trkpt><trkpt lat="44.798976156591685" lon="9.319242110268751"><ele>1127.0</ele><time>2026-03-29T10:48:40.999Z</time></trkpt><trkpt lat="44.79886019020661" lon="9.319337056359913"><ele>1127.0</ele><time>2026-03-29T10:48:41.999Z</time></trkpt><trkpt lat="44.79872050062236" lon="9.319389330291527"><ele>1127.0</ele><time>2026-03-29T10:48:42.999Z</time></trkpt><trkpt lat="44.79857238178846" lon="9.319411140567341"><ele>1127.0</ele><time>2026-03-29T10:48:43.999Z</time></trkpt><trkpt lat="44.798425399919005" lon="9.319422541766647"><ele>1127.0</ele><time>2026-03-29T10:48:44.999Z</time></trkpt><trkpt lat="44.798367590067365" lon="9.319557991392292"><ele>1131.2</ele><time>2026-03-29T10:48:45.999Z</time></trkpt><trkpt lat="44.798289956511404" lon="9.319625139486662"><ele>1135.4</ele><time>2026-03-29T10:48:46.999Z</time></trkpt><trkpt lat="44.79824954507949" lon="9.319731928500644"><ele>1139.6</ele><time>2026-03-29T10:48:47.999Z</time></trkpt><trkpt lat="44.798247414606564" lon="9.319858046367207"><ele>1143.8</ele><time>2026-03-29T10:48:48.999Z</time></trkpt><trkpt lat="44.79829933812955" lon="9.319957874971864"><ele>1148.0</ele><time>2026-03-29T10:48:49.999Z</time></trkpt><trkpt lat="44.798390736224206" lon="9.320010378706732"><ele>1142.0</ele><time>2026-03-29T10:48:50.999Z</time></trkpt><trkpt lat="44.79850841038382" lon="9.320051965202511"><ele>1136.0</ele><time>2026-03-29T10:48:51.999Z</time></trkpt><trkpt lat="44.798639133107464" lon="9.320116349984273"><ele>1130.0</ele><time>2026-03-29T10:48:52.999Z</time></trkpt><trkpt lat="44.798772023810486" lon="9.320205312696178"><ele>1124.0</ele><time>2026-03-29T10:48:53.999Z</time></trkpt><trkpt lat="44.798896939331605" lon="9.320304595473718"><ele>1124.0</ele><time>2026-03-29T10:48:54.998Z</time></trkpt><trkpt lat="44.799006720097495" lon="9.320397986812537"><ele>1124.0</ele><time>2026-03-29T10:48:56Z</time></trkpt><trkpt lat="44.799051892923515" lon="9.320523458926818"><ele>1124.0</ele><time>2026-03-29T10:48:57Z</time></trkpt><trkpt lat="44.79905663997518" lon="9.320679177286314"><ele>1124.0</ele><time>2026-03-29T10:48:58Z</time></trkpt><trkpt lat="44.799075823634276" lon="9.320861005140149"><ele>1124.2</ele><time>2026-03-29T10:48:59Z</time></trkpt><trkpt lat="44.79908360886781" lon="9.321012656681583"><ele>1124.4</ele><time>2026-03-29T10:49:00Z</time></trkpt><trkpt lat="44.7990782187992" lon="9.321136757662632"><ele>1124.6</ele><time>2026-03-29T10:49:01Z</time></trkpt><trkpt lat="44.79898562440439" lon="9.321205779292201"><ele>1124.8</ele><time>2026-03-29T10:49:02Z</time></trkpt><trkpt lat="44.798876395125866" lon="9.321203776848257"><ele>1125.0</ele><time>2026-03-29T10:49:03Z</time></trkpt><trkpt lat="44.79875521684414" lon="9.321265562805307"><ele>1125.0</ele><time>2026-03-29T10:49:04Z</time></trkpt><trkpt lat="44.7986482071398" lon="9.32137911645125"><ele>1125.0</ele><time>2026-03-29T10:49:05Z</time></trkpt><trkpt lat="44.798533753964755" lon="9.321515484558812"><ele>1125.0</ele><time>2026-03-29T10:49:06Z</time></trkpt><trkpt lat="44.79841540790686" lon="9.321669566352298"><ele>1125.0</ele><time>2026-03-29T10:49:07Z</time></trkpt><trkpt lat="44.7982931737252" lon="9.321831776256655"><ele>1130.6666666666667</ele><time>2026-03-29T10:49:08Z</time></trkpt><trkpt lat="44.79817396171024" lon="9.322006352102656"><ele>1136.3333333333335</ele><time>2026-03-29T10:49:09Z</time></trkpt><trkpt lat="44.79804507087414" lon="9.32211545123389"><ele>1142.0</ele><time>2026-03-29T10:49:10Z</time></trkpt><trkpt lat="44.797910848646445" lon="9.32221739162276"><ele>1142.5</ele><time>2026-03-29T10:49:11Z</time></trkpt><trkpt lat="44.79777677529996" lon="9.322304683725855"><ele>1143.0</ele><time>2026-03-29T10:49:12Z</time></trkpt><trkpt lat="44.79765660706131" lon="9.32235980023196"><ele>1143.5</ele><time>2026-03-29T10:49:13Z</time></trkpt><trkpt lat="44.79753844433601" lon="9.32233548608681"><ele>1144.0</ele><time>2026-03-29T10:49:14Z</time></trkpt><trkpt lat="44.79743655538734" lon="9.322349301882985"><ele>1144.0</ele><time>2026-03-29T10:49:15Z</time></trkpt><trkpt lat="44.79735251994356" lon="9.322376365693186"><ele>1144.0</ele><time>2026-03-29T10:49:16Z</time></trkpt><trkpt lat="44.79729261937958" lon="9.322519555485949"><ele>1144.0</ele><time>2026-03-29T10:49:17Z</time></trkpt><trkpt lat="44.797271333747524" lon="9.322657031874675"><ele>1144.0</ele><time>2026-03-29T10:49:18Z</time></trkpt><trkpt lat="44.79728425460109" lon="9.322839506879122"><ele>1144.0</ele><time>2026-03-29T10:49:19Z</time></trkpt><trkpt lat="44.79729282497501" lon="9.323043475848179"><ele>1140.3333333333333</ele><time>2026-03-29T10:49:20Z</time></trkpt><trkpt lat="44.79727956970299" lon="9.32324930573304"><ele>1136.6666666666667</ele><time>2026-03-29T10:49:21Z</time></trkpt><trkpt lat="44.79726248396951" lon="9.323463812629878"><ele>1133.0</ele><time>2026-03-29T10:49:22Z</time></trkpt><trkpt lat="44.797249530666186" lon="9.323688408372858"><ele>1131.0</ele><time>2026-03-29T10:49:23Z</time></trkpt><trkpt lat="44.79722769058751" lon="9.323913865689436"><ele>1129.0</ele><time>2026-03-29T10:49:24Z</time></trkpt><trkpt lat="44.7971447866247" lon="9.324102212723979"><ele>1127.0</ele><time>2026-03-29T10:49:25Z</time></trkpt><trkpt lat="44.79707926313355" lon="9.324294350566374"><ele>1127.0</ele><time>2026-03-29T10:49:26Z</time></trkpt><trkpt lat="44.79700835673893" lon="9.324452992629185"><ele>1127.0</ele><time>2026-03-29T10:49:27Z</time></trkpt><trkpt lat="44.79696430594867" lon="9.324607849320028"><ele>1127.0</ele><time>2026-03-29T10:49:28Z</time></trkpt><trkpt lat="44.79693403088438" lon="9.324770822306194"><ele>1127.0</ele><time>2026-03-29T10:49:29Z</time></trkpt><trkpt lat="44.79698546826855" lon="9.32494883187166"><ele>1126.2</ele><time>2026-03-29T10:49:30Z</time></trkpt><trkpt lat="44.79703746198173" lon="9.325114718552285"><ele>1125.4</ele><time>2026-03-29T10:49:31Z</time></trkpt><trkpt lat="44.79703845594241" lon="9.325290558845406"><ele>1124.6</ele><time>2026-03-29T10:49:32Z</time></trkpt><trkpt lat="44.79709384359118" lon="9.325399552500684"><ele>1123.8</ele><time>2026-03-29T10:49:33Z</time></trkpt><trkpt lat="44.79711973509119" lon="9.325492796728103"><ele>1123.0</ele><time>2026-03-29T10:49:34Z</time></trkpt><trkpt lat="44.79683985107332" lon="9.325744015440888"><ele>1129.6</ele><time>2026-03-29T10:49:35Z</time></trkpt><trkpt lat="44.79673878106796" lon="9.32583656447743"><ele>1136.1999999999998</ele><time>2026-03-29T10:49:36Z</time></trkpt><trkpt lat="44.79667790235586" lon="9.325943247081602"><ele>1142.8</ele><time>2026-03-29T10:49:37Z</time></trkpt><trkpt lat="44.79666368140488" lon="9.326089272343534"><ele>1149.3999999999999</ele><time>2026-03-29T10:49:38Z</time></trkpt><trkpt lat="44.79670443778094" lon="9.326244989723639"><ele>1156.0</ele><time>2026-03-29T10:49:39Z</time></trkpt><trkpt lat="44.79677787478873" lon="9.326375952699266"><ele>1155.75</ele><time>2026-03-29T10:49:40Z</time></trkpt><trkpt lat="44.79685173247111" lon="9.326507392299849"><ele>1155.5</ele><time>2026-03-29T10:49:41Z</time></trkpt><trkpt lat="44.796871646061284" lon="9.326660184800645"><ele>1155.25</ele><time>2026-03-29T10:49:42Z</time></trkpt><trkpt lat="44.796820403230384" lon="9.326821313983983"><ele>1155.0</ele><time>2026-03-29T10:49:43Z</time></trkpt><trkpt lat="44.796755830907145" lon="9.326956989082127"><ele>1155.0</ele><time>2026-03-29T10:49:44Z</time></trkpt><trkpt lat="44.796741387801525" lon="9.32708103512648"><ele>1155.0</ele><time>2026-03-29T10:49:45Z</time></trkpt><trkpt lat="44.79678870998846" lon="9.327211027771693"><ele>1155.0</ele><time>2026-03-29T10:49:46Z</time></trkpt><trkpt lat="44.79687457493811" lon="9.327338358604809"><ele>1155.0</ele><time>2026-03-29T10:49:47Z</time></trkpt><trkpt lat="44.7969562315856" lon="9.327469051571704"><ele>1155.0</ele><time>2026-03-29T10:49:48Z</time></trkpt><trkpt lat="44.79702888873298" lon="9.327609007552324"><ele>1152.0</ele><time>2026-03-29T10:49:49Z</time></trkpt><trkpt lat="44.79709036968926" lon="9.327742917739304"><ele>1149.0</ele><time>2026-03-29T10:49:50Z</time></trkpt><trkpt lat="44.79714430885524" lon="9.327858786642407"><ele>1146.0</ele><time>2026-03-29T10:49:51Z</time></trkpt><trkpt lat="44.79719180603679" lon="9.32795140536134"><ele>1143.0</ele><time>2026-03-29T10:49:52Z</time></trkpt><trkpt lat="44.797231494477934" lon="9.328023809629443"><ele>1140.0</ele><time>2026-03-29T10:49:53Z</time></trkpt><trkpt lat="44.79729582727618" lon="9.32814110528604"><ele>1140.0</ele><time>2026-03-29T10:49:55Z</time></trkpt><trkpt lat="44.797321078371645" lon="9.32823536282747"><ele>1140.0</ele><time>2026-03-29T10:49:56.999Z</time></trkpt><trkpt lat="44.797367558204385" lon="9.328322205967883"><ele>1140.0</ele><time>2026-03-29T10:49:58.999Z</time></trkpt><trkpt lat="44.79742102170705" lon="9.32838157638443"><ele>1140.0</ele><time>2026-03-29T10:50:00.999Z</time></trkpt><trkpt lat="44.797475762669166" lon="9.32846372527662"><ele>1140.0</ele><time>2026-03-29T10:50:03.999Z</time></trkpt><trkpt lat="44.79752700147226" lon="9.32856522036899"><ele>1140.0</ele><time>2026-03-29T10:50:06.999Z</time></trkpt><trkpt lat="44.797550340882516" lon="9.328650975045568"><ele>1140.0</ele><time>2026-03-29T10:50:08.999Z</time></trkpt><trkpt lat="44.797595737754044" lon="9.32876121092675"><ele>1140.0</ele><time>2026-03-29T10:50:11.999Z</time></trkpt><trkpt lat="44.79754468833539" lon="9.32881519144166"><ele>1140.0</ele><time>2026-03-29T10:50:14.999Z</time></trkpt><trkpt lat="44.797494572416355" lon="9.328751597337913"><ele>1140.0</ele><time>2026-03-29T10:50:16.999Z</time></trkpt><trkpt lat="44.797436812483454" lon="9.328691967954198"><ele>1140.0</ele><time>2026-03-29T10:50:18.999Z</time></trkpt><trkpt lat="44.79736739367034" lon="9.32860671623331"><ele>1140.0</ele><time>2026-03-29T10:50:21.999Z</time></trkpt><trkpt lat="44.79733119826859" lon="9.328534123002948"><ele>1140.0</ele><time>2026-03-29T10:50:23.999Z</time></trkpt><trkpt lat="44.79728555511325" lon="9.328453390763608"><ele>1140.0</ele><time>2026-03-29T10:50:26.999Z</time></trkpt></trkseg><trkseg><trkpt lat="44.797187133830086" lon="9.328364464950704"><ele>1140.0</ele><time>2026-03-29T11:02:28Z</time></trkpt><trkpt lat="44.79712571660918" lon="9.328341720739642"><ele>1140.0</ele><time>2026-03-29T11:02:29Z</time></trkpt><trkpt lat="44.7970456495189" lon="9.328321192382445"><ele>1140.0</ele><time>2026-03-29T11:02:30Z</time></trkpt><trkpt lat="44.79695435495373" lon="9.328305764724973"><ele>1140.0</ele><time>2026-03-29T11:02:31Z</time></trkpt><trkpt lat="44.79685887708606" lon="9.32829510853187"><ele>1140.0</ele><time>2026-03-29T11:02:32Z</time></trkpt><trkpt lat="44.79675719368769" lon="9.328293817598627"><ele>1140.0</ele><time>2026-03-29T11:02:33Z</time></trkpt><trkpt lat="44.796651086120875" lon="9.328314205517902"><ele>1143.0</ele><time>2026-03-29T11:02:34Z</time></trkpt><trkpt lat="44.79654900747024" lon="9.328368641881843"><ele>1146.0</ele><time>2026-03-29T11:02:35Z</time></trkpt><trkpt lat="44.79645814676065" lon="9.32844346646185"><ele>1149.0</ele><time>2026-03-29T11:02:36Z</time></trkpt><trkpt lat="44.79637854243863" lon="9.328520456481414"><ele>1152.0</ele><time>2026-03-29T11:02:37Z</time></trkpt><trkpt lat="44.79630160787797" lon="9.328610324400003"><ele>1155.0</ele><time>2026-03-29T11:02:37.999Z</time></trkpt><trkpt lat="44.79623558580959" lon="9.328715562043257"><ele>1155.0</ele><time>2026-03-29T11:02:38.999Z</time></trkpt><trkpt lat="44.79618358396596" lon="9.328826855435103"><ele>1155.0</ele><time>2026-03-29T11:02:39.999Z</time></trkpt><trkpt lat="44.79614169712146" lon="9.328921400754336"><ele>1155.0</ele><time>2026-03-29T11:02:40.999Z</time></trkpt><trkpt lat="44.79611849626947" lon="9.32902256328321"><ele>1155.0</ele><time>2026-03-29T11:02:41.999Z</time></trkpt><trkpt lat="44.79613351449625" lon="9.329117816131342"><ele>1155.0</ele><time>2026-03-29T11:02:42.999Z</time></trkpt><trkpt lat="44.796177035225455" lon="9.32919385244623"><ele>1155.0</ele><time>2026-03-29T11:02:43.999Z</time></trkpt><trkpt lat="44.796245298102356" lon="9.329236606170875"><ele>1155.0</ele><time>2026-03-29T11:02:44.999Z</time></trkpt><trkpt lat="44.79631877478561" lon="9.329229162806591"><ele>1155.0</ele><time>2026-03-29T11:02:45.999Z</time></trkpt><trkpt lat="44.79637651843476" lon="9.329163419109726"><ele>1155.0</ele><time>2026-03-29T11:02:46.999Z</time></trkpt><trkpt lat="44.796415387529166" lon="9.329076052661577"><ele>1155.0</ele><time>2026-03-29T11:02:47.999Z</time></trkpt><trkpt lat="44.79644291909888" lon="9.328980186987971"><ele>1155.0</ele><time>2026-03-29T11:02:48.999Z</time></trkpt><trkpt lat="44.79647479938876" lon="9.328893221517081"><ele>1155.0</ele><time>2026-03-29T11:02:49.999Z</time></trkpt><trkpt lat="44.796525249846496" lon="9.328816221858142"><ele>1155.0</ele><time>2026-03-29T11:02:50.999Z</time></trkpt><trkpt lat="44.79660082621766" lon="9.328770608860674"><ele>1155.0</ele><time>2026-03-29T11:02:51.999Z</time></trkpt><trkpt lat="44.7966913384217" lon="9.328774664724545"><ele>1155.0</ele><time>2026-03-29T11:02:52.999Z</time></trkpt><trkpt lat="44.796786695067375" lon="9.328839924880356"><ele>1155.0</ele><time>2026-03-29T11:02:53.999Z</time></trkpt><trkpt lat="44.79687523423697" lon="9.328932989953426"><ele>1155.0</ele><time>2026-03-29T11:02:54.999Z</time></trkpt><trkpt lat="44.796963839611905" lon="9.329048113726673"><ele>1155.0</ele><time>2026-03-29T11:02:55.999Z</time></trkpt><trkpt lat="44.79705053996393" lon="9.329159530120743"><ele>1151.4</ele><time>2026-03-29T11:02:56.999Z</time></trkpt><trkpt lat="44.79713374303792" lon="9.329262768776834"><ele>1147.8</ele><time>2026-03-29T11:02:57.999Z</time></trkpt><trkpt lat="44.797218404245264" lon="9.32935464048011"><ele>1144.2</ele><time>2026-03-29T11:02:58.999Z</time></trkpt><trkpt lat="44.797316873043066" lon="9.32943199847317"><ele>1140.6</ele><time>2026-03-29T11:02:59.999Z</time></trkpt><trkpt lat="44.79741659274193" lon="9.329488971172884"><ele>1137.0</ele><time>2026-03-29T11:03:00.999Z</time></trkpt><trkpt lat="44.79751862106934" lon="9.329526743692291"><ele>1137.0</ele><time>2026-03-29T11:03:01.999Z</time></trkpt><trkpt lat="44.79762455278993" lon="9.329574212980786"><ele>1137.0</ele><time>2026-03-29T11:03:02.999Z</time></trkpt><trkpt lat="44.79773054245922" lon="9.329642256146778"><ele>1137.0</ele><time>2026-03-29T11:03:03.999Z</time></trkpt><trkpt lat="44.79782756882396" lon="9.329728348191507"><ele>1137.0</ele><time>2026-03-29T11:03:04.999Z</time></trkpt><trkpt lat="44.79791946119315" lon="9.32980597624647"><ele>1137.0</ele><time>2026-03-29T11:03:05.999Z</time></trkpt><trkpt lat="44.798017843567095" lon="9.329870227891469"><ele>1134.75</ele><time>2026-03-29T11:03:06.999Z</time></trkpt><trkpt lat="44.798124741121" lon="9.329921057706391"><ele>1132.5</ele><time>2026-03-29T11:03:07.999Z</time></trkpt><trkpt lat="44.798234486032136" lon="9.329977765368174"><ele>1130.25</ele><time>2026-03-29T11:03:08.999Z</time></trkpt><trkpt lat="44.798343057096865" lon="9.330054398588956"><ele>1128.0</ele><time>2026-03-29T11:03:09.999Z</time></trkpt><trkpt lat="44.798447515843165" lon="9.330146670363874"><ele>1128.25</ele><time>2026-03-29T11:03:10.999Z</time></trkpt><trkpt lat="44.79854758875527" lon="9.330252488264575"><ele>1128.5</ele><time>2026-03-29T11:03:11.999Z</time></trkpt><trkpt lat="44.79864322046032" lon="9.330368151317249"><ele>1128.75</ele><time>2026-03-29T11:03:12.999Z</time></trkpt><trkpt lat="44.79874207206295" lon="9.330476694585396"><ele>1129.0</ele><time>2026-03-29T11:03:13.999Z</time></trkpt><trkpt lat="44.798810940373265" lon="9.330656358215611"><ele>1129.0</ele><time>2026-03-29T11:03:14.999Z</time></trkpt><trkpt lat="44.79888306390397" lon="9.33080439428587"><ele>1129.0</ele><time>2026-03-29T11:03:15.999Z</time></trkpt><trkpt lat="44.798944427773954" lon="9.33095922304059"><ele>1129.0</ele><time>2026-03-29T11:03:16.999Z</time></trkpt><trkpt lat="44.79899617812111" lon="9.331113390664296"><ele>1129.0</ele><time>2026-03-29T11:03:17.999Z</time></trkpt><trkpt lat="44.79904361380099" lon="9.331265245656063"><ele>1126.4</ele><time>2026-03-29T11:03:18.999Z</time></trkpt><trkpt lat="44.79908188025246" lon="9.331414150663317"><ele>1123.8000000000002</ele><time>2026-03-29T11:03:19.999Z</time></trkpt><trkpt lat="44.79912809195099" lon="9.331552767678975"><ele>1121.1999999999998</ele><time>2026-03-29T11:03:20.999Z</time></trkpt><trkpt lat="44.79919247649129" lon="9.33168159379111"><ele>1118.6</ele><time>2026-03-29T11:03:21.999Z</time></trkpt><trkpt lat="44.79927411977029" lon="9.331794722860973"><ele>1116.0</ele><time>2026-03-29T11:03:22.999Z</time></trkpt><trkpt lat="44.79937891747131" lon="9.331890072733135"><ele>1116.0</ele><time>2026-03-29T11:03:23.999Z</time></trkpt><trkpt lat="44.799470912020645" lon="9.332011428009054"><ele>1116.0</ele><time>2026-03-29T11:03:24.999Z</time></trkpt><trkpt lat="44.79955347894082" lon="9.332131209116387"><ele>1116.0</ele><time>2026-03-29T11:03:25.999Z</time></trkpt><trkpt lat="44.79963790063873" lon="9.332232254958155"><ele>1116.0</ele><time>2026-03-29T11:03:26.999Z</time></trkpt><trkpt lat="44.799723141504934" lon="9.332335590945112"><ele>1112.5</ele><time>2026-03-29T11:03:27.999Z</time></trkpt><trkpt lat="44.79981999552683" lon="9.332418625041532"><ele>1109.0</ele><time>2026-03-29T11:03:28.999Z</time></trkpt><trkpt lat="44.79994247626344" lon="9.332477307026275"><ele>1105.5</ele><time>2026-03-29T11:03:29.999Z</time></trkpt><trkpt lat="44.80007226699046" lon="9.332521378600418"><ele>1102.0</ele><time>2026-03-29T11:03:30.999Z</time></trkpt><trkpt lat="44.80020761374545" lon="9.332570196325294"><ele>1102.0</ele><time>2026-03-29T11:03:31.999Z</time></trkpt><trkpt lat="44.80034152702505" lon="9.332619498032532"><ele>1102.0</ele><time>2026-03-29T11:03:32.999Z</time></trkpt><trkpt lat="44.80046886590555" lon="9.332670280629504"><ele>1102.0</ele><time>2026-03-29T11:03:33.999Z</time></trkpt><trkpt lat="44.80059033835326" lon="9.332721302436944"><ele>1102.0</ele><time>2026-03-29T11:03:34.999Z</time></trkpt><trkpt lat="44.80070376472083" lon="9.33277818530181"><ele>1102.0</ele><time>2026-03-29T11:03:35.999Z</time></trkpt><trkpt lat="44.800812718777934" lon="9.332852657858869"><ele>1102.0</ele><time>2026-03-29T11:03:37Z</time></trkpt><trkpt lat="44.800920355102356" lon="9.332927907545658"><ele>1102.0</ele><time>2026-03-29T11:03:38Z</time></trkpt><trkpt lat="44.801024791479364" lon="9.333005611642937"><ele>1102.0</ele><time>2026-03-29T11:03:39Z</time></trkpt><trkpt lat="44.80112530770482" lon="9.333097036330845"><ele>1102.25</ele><time>2026-03-29T11:03:40Z</time></trkpt><trkpt lat="44.80119430718106" lon="9.333229578053496"><ele>1102.5</ele><time>2026-03-29T11:03:41Z</time></trkpt><trkpt lat="44.80127528525551" lon="9.33335278146982"><ele>1102.75</ele><time>2026-03-29T11:03:42Z</time></trkpt><trkpt lat="44.80133799931424" lon="9.333490069158426"><ele>1103.0</ele><time>2026-03-29T11:03:43Z</time></trkpt><trkpt lat="44.80140276714696" lon="9.333625823226042"><ele>1103.0</ele><time>2026-03-29T11:03:44Z</time></trkpt><trkpt lat="44.8014785594504" lon="9.333741780046623"><ele>1103.0</ele><time>2026-03-29T11:03:45Z</time></trkpt><trkpt lat="44.801555969751014" lon="9.333838957151835"><ele>1103.0</ele><time>2026-03-29T11:03:46Z</time></trkpt><trkpt lat="44.801639266369214" lon="9.333913960505845"><ele>1103.0</ele><time>2026-03-29T11:03:47Z</time></trkpt><trkpt lat="44.80172324583128" lon="9.333991485980121"><ele>1103.0</ele><time>2026-03-29T11:03:48Z</time></trkpt><trkpt lat="44.80179073990423" lon="9.334095770591652"><ele>1099.0</ele><time>2026-03-29T11:03:49Z</time></trkpt><trkpt lat="44.801830612595374" lon="9.334228346045107"><ele>1095.0</ele><time>2026-03-29T11:03:50Z</time></trkpt><trkpt lat="44.80181365530093" lon="9.334358236668399"><ele>1091.0</ele><time>2026-03-29T11:03:51Z</time></trkpt><trkpt lat="44.801783210700755" lon="9.334514296426489"><ele>1087.0</ele><time>2026-03-29T11:03:52Z</time></trkpt><trkpt lat="44.80177307927674" lon="9.334650614044293"><ele>1083.0</ele><time>2026-03-29T11:03:53Z</time></trkpt><trkpt lat="44.801778655649215" lon="9.3347989671528"><ele>1081.0</ele><time>2026-03-29T11:03:54Z</time></trkpt><trkpt lat="44.801827677609324" lon="9.334946811137469"><ele>1079.0</ele><time>2026-03-29T11:03:55Z</time></trkpt><trkpt lat="44.80191870987669" lon="9.335105404764311"><ele>1077.0</ele><time>2026-03-29T11:03:56Z</time></trkpt><trkpt lat="44.8020106557676" lon="9.335328357076477"><ele>1075.0</ele><time>2026-03-29T11:03:57Z</time></trkpt><trkpt lat="44.802122567120435" lon="9.335575147425853"><ele>1075.0</ele><time>2026-03-29T11:03:58Z</time></trkpt><trkpt lat="44.80223862380127" lon="9.335827789230546"><ele>1075.0</ele><time>2026-03-29T11:03:59Z</time></trkpt><trkpt lat="44.80235038677049" lon="9.336044049276722"><ele>1075.0</ele><time>2026-03-29T11:04:00Z</time></trkpt><trkpt lat="44.802440279460306" lon="9.336245741708314"><ele>1075.0</ele><time>2026-03-29T11:04:01Z</time></trkpt><trkpt lat="44.802527979210005" lon="9.336422651426595"><ele>1075.0</ele><time>2026-03-29T11:04:02Z</time></trkpt><trkpt lat="44.80262917438956" lon="9.336587717801317"><ele>1075.0</ele><time>2026-03-29T11:04:03Z</time></trkpt><trkpt lat="44.80274834691307" lon="9.336745771885488"><ele>1075.0</ele><time>2026-03-29T11:04:04Z</time></trkpt><trkpt lat="44.802882446456636" lon="9.336903925812232"><ele>1075.0</ele><time>2026-03-29T11:04:05Z</time></trkpt><trkpt lat="44.80302495998787" lon="9.33706749685379"><ele>1075.0</ele><time>2026-03-29T11:04:06Z</time></trkpt><trkpt lat="44.80316846072433" lon="9.337225447718264"><ele>1066.6666666666665</ele><time>2026-03-29T11:04:07Z</time></trkpt><trkpt lat="44.80330639256799" lon="9.337375355035444"><ele>1058.3333333333333</ele><time>2026-03-29T11:04:08Z</time></trkpt><trkpt lat="44.803434954981896" lon="9.33751379870714"><ele>1050.0</ele><time>2026-03-29T11:04:09Z</time></trkpt><trkpt lat="44.80354178940956" lon="9.33766016644005"><ele>1050.0</ele><time>2026-03-29T11:04:10Z</time></trkpt><trkpt lat="44.80364685733497" lon="9.337786990424407"><ele>1050.0</ele><time>2026-03-29T11:04:11Z</time></trkpt><trkpt lat="44.80373847945146" lon="9.33791457369738"><ele>1050.0</ele><time>2026-03-29T11:04:12Z</time></trkpt><trkpt lat="44.803805427492634" lon="9.338065305789447"><ele>1050.0</ele><time>2026-03-29T11:04:13Z</time></trkpt><trkpt lat="44.80384296567599" lon="9.338237938009236"><ele>1046.25</ele><time>2026-03-29T11:04:14Z</time></trkpt><trkpt lat="44.80384645523136" lon="9.338412395505905"><ele>1042.5</ele><time>2026-03-29T11:04:15Z</time></trkpt><trkpt lat="44.80382498393119" lon="9.338597502383365"><ele>1038.75</ele><time>2026-03-29T11:04:16Z</time></trkpt><trkpt lat="44.803767695663105" lon="9.338791024796025"><ele>1035.0</ele><time>2026-03-29T11:04:17Z</time></trkpt><trkpt lat="44.80369839447398" lon="9.338993808329457"><ele>1035.0</ele><time>2026-03-29T11:04:18Z</time></trkpt><trkpt lat="44.80363441349901" lon="9.339206542907558"><ele>1035.0</ele><time>2026-03-29T11:04:19Z</time></trkpt><trkpt lat="44.803564753254015" lon="9.339403164389307"><ele>1035.0</ele><time>2026-03-29T11:04:20Z</time></trkpt><trkpt lat="44.80350116878276" lon="9.339587400076109"><ele>1036.2</ele><time>2026-03-29T11:04:21Z</time></trkpt><trkpt lat="44.80345558086247" lon="9.339749532624076"><ele>1037.4</ele><time>2026-03-29T11:04:22Z</time></trkpt><trkpt lat="44.80344299359596" lon="9.33988973289553"><ele>1038.6</ele><time>2026-03-29T11:04:23Z</time></trkpt><trkpt lat="44.80346828294357" lon="9.340024664047235"><ele>1039.8</ele><time>2026-03-29T11:04:24Z</time></trkpt><trkpt lat="44.80352856334145" lon="9.340150122420818"><ele>1041.0</ele><time>2026-03-29T11:04:25Z</time></trkpt><trkpt lat="44.80362517681943" lon="9.340250501701426"><ele>1041.0</ele><time>2026-03-29T11:04:26Z</time></trkpt><trkpt lat="44.80375131890568" lon="9.340320532939892"><ele>1041.0</ele><time>2026-03-29T11:04:27Z</time></trkpt><trkpt lat="44.80389244358761" lon="9.340376369130446"><ele>1041.0</ele><time>2026-03-29T11:04:28Z</time></trkpt><trkpt lat="44.80403118711909" lon="9.3404369861874"><ele>1041.0</ele><time>2026-03-29T11:04:29Z</time></trkpt><trkpt lat="44.80414767604534" lon="9.340511280841614"><ele>1038.0</ele><time>2026-03-29T11:04:30Z</time></trkpt><trkpt lat="44.804234904701794" lon="9.340619307555132"><ele>1035.0</ele><time>2026-03-29T11:04:31Z</time></trkpt><trkpt lat="44.80428909262953" lon="9.340766013406165"><ele>1032.0</ele><time>2026-03-29T11:04:32Z</time></trkpt><trkpt lat="44.80427709710359" lon="9.340953924044225"><ele>1029.0</ele><time>2026-03-29T11:04:33Z</time></trkpt><trkpt lat="44.804244699176536" lon="9.341138627090693"><ele>1029.0</ele><time>2026-03-29T11:04:34Z</time></trkpt><trkpt lat="44.80421685384771" lon="9.341339193635061"><ele>1029.0</ele><time>2026-03-29T11:04:35Z</time></trkpt><trkpt lat="44.80419946165372" lon="9.341533438509902"><ele>1029.0</ele><time>2026-03-29T11:04:36Z</time></trkpt><trkpt lat="44.804183206313716" lon="9.341711350202267"><ele>1029.0</ele><time>2026-03-29T11:04:37Z</time></trkpt><trkpt lat="44.804198071635774" lon="9.34188643514156"><ele>1028.5</ele><time>2026-03-29T11:04:38Z</time></trkpt><trkpt lat="44.80425374446903" lon="9.342048525878807"><ele>1028.0</ele><time>2026-03-29T11:04:39Z</time></trkpt><trkpt lat="44.80434557558421" lon="9.342189756230434"><ele>1027.5</ele><time>2026-03-29T11:04:40Z</time></trkpt><trkpt lat="44.80447060134099" lon="9.342299475550917"><ele>1027.0</ele><time>2026-03-29T11:04:41Z</time></trkpt><trkpt lat="44.80459091114875" lon="9.342393156816554"><ele>1027.0</ele><time>2026-03-29T11:04:42Z</time></trkpt><trkpt lat="44.804660111551804" lon="9.342530168141382"><ele>1027.0</ele><time>2026-03-29T11:04:42.999Z</time></trkpt><trkpt lat="44.80470581571691" lon="9.342670031884545"><ele>1027.0</ele><time>2026-03-29T11:04:43.999Z</time></trkpt><trkpt lat="44.80471323783229" lon="9.342829415297"><ele>1027.0</ele><time>2026-03-29T11:04:44.999Z</time></trkpt><trkpt lat="44.80466295311761" lon="9.342977269859393"><ele>1026.75</ele><time>2026-03-29T11:04:45.999Z</time></trkpt><trkpt lat="44.80459197647136" lon="9.343124107180627"><ele>1026.5</ele><time>2026-03-29T11:04:46.999Z</time></trkpt><trkpt lat="44.80449507613076" lon="9.343264793109539"><ele>1026.25</ele><time>2026-03-29T11:04:47.999Z</time></trkpt><trkpt lat="44.80435672861402" lon="9.343363000299625"><ele>1026.0</ele><time>2026-03-29T11:04:48.999Z</time></trkpt><trkpt lat="44.804215288572856" lon="9.343457881272487"><ele>1021.0</ele><time>2026-03-29T11:04:49.999Z</time></trkpt><trkpt lat="44.80407965702602" lon="9.343574222049902"><ele>1016.0</ele><time>2026-03-29T11:04:50.999Z</time></trkpt><trkpt lat="44.80395779066098" lon="9.343681147712832"><ele>1011.0</ele><time>2026-03-29T11:04:51.999Z</time></trkpt><trkpt lat="44.80384512693296" lon="9.343786322256674"><ele>1006.0</ele><time>2026-03-29T11:04:52.999Z</time></trkpt><trkpt lat="44.803755594630985" lon="9.343920192416665"><ele>1006.0</ele><time>2026-03-29T11:04:53.999Z</time></trkpt><trkpt lat="44.80369062136553" lon="9.344070629030648"><ele>1005.9999999999999</ele><time>2026-03-29T11:04:54.999Z</time></trkpt><trkpt lat="44.80364765946503" lon="9.34421015369496"><ele>1005.9999999999999</ele><time>2026-03-29T11:04:55.999Z</time></trkpt><trkpt lat="44.80362515143294" lon="9.344333080705741"><ele>1006.0</ele><time>2026-03-29T11:04:56.999Z</time></trkpt><trkpt lat="44.8036356731935" lon="9.344448110366148"><ele>1006.0</ele><time>2026-03-29T11:04:57.999Z</time></trkpt><trkpt lat="44.80369517733511" lon="9.34454838184757"><ele>1006.0</ele><time>2026-03-29T11:04:58.999Z</time></trkpt><trkpt lat="44.80378578871565" lon="9.34461564177149"><ele>1005.9999999999999</ele><time>2026-03-29T11:04:59.999Z</time></trkpt><trkpt lat="44.803897918945225" lon="9.344663842671418"><ele>1005.9999999999999</ele><time>2026-03-29T11:05:00.999Z</time></trkpt><trkpt lat="44.80401269989355" lon="9.344702676714556"><ele>1006.0</ele><time>2026-03-29T11:05:01.999Z</time></trkpt><trkpt lat="44.804108761859986" lon="9.344752155440318"><ele>1006.0</ele><time>2026-03-29T11:05:02.999Z</time></trkpt><trkpt lat="44.804182739317056" lon="9.344836071573772"><ele>1004.0</ele><time>2026-03-29T11:05:03.999Z</time></trkpt><trkpt lat="44.80418972364428" lon="9.344989156593838"><ele>1002.0</ele><time>2026-03-29T11:05:04.999Z</time></trkpt><trkpt lat="44.80418191656521" lon="9.34514580039246"><ele>1000.0</ele><time>2026-03-29T11:05:05.999Z</time></trkpt><trkpt lat="44.80418663406709" lon="9.345327347589446"><ele>998.0</ele><time>2026-03-29T11:05:06.999Z</time></trkpt><trkpt lat="44.80417807008707" lon="9.345512218292548"><ele>994.5</ele><time>2026-03-29T11:05:07.999Z</time></trkpt><trkpt lat="44.804180010830855" lon="9.345698321011549"><ele>991.0</ele><time>2026-03-29T11:05:08.999Z</time></trkpt><trkpt lat="44.80419012380385" lon="9.345857043583807"><ele>987.5</ele><time>2026-03-29T11:05:09.999Z</time></trkpt><trkpt lat="44.80422383918476" lon="9.345989188968863"><ele>984.0</ele><time>2026-03-29T11:05:10.999Z</time></trkpt><trkpt lat="44.80429583700035" lon="9.346100596184051"><ele>984.5</ele><time>2026-03-29T11:05:11.999Z</time></trkpt><trkpt lat="44.80440169200792" lon="9.346195596705655"><ele>985.0</ele><time>2026-03-29T11:05:12.999Z</time></trkpt><trkpt lat="44.80451777376909" lon="9.346291432694455"><ele>985.5</ele><time>2026-03-29T11:05:13.999Z</time></trkpt><trkpt lat="44.804634951348" lon="9.346407295265456"><ele>986.0</ele><time>2026-03-29T11:05:14.999Z</time></trkpt><trkpt lat="44.804748994972876" lon="9.346527294246416"><ele>986.0</ele><time>2026-03-29T11:05:15.999Z</time></trkpt><trkpt lat="44.804857177061315" lon="9.346638795831874"><ele>986.0</ele><time>2026-03-29T11:05:16.999Z</time></trkpt><trkpt lat="44.804973171565415" lon="9.346723522874791"><ele>986.0</ele><time>2026-03-29T11:05:17.999Z</time></trkpt><trkpt lat="44.805104738634256" lon="9.34677330975746"><ele>986.0</ele><time>2026-03-29T11:05:18.999Z</time></trkpt><trkpt lat="44.80524224442274" lon="9.34681951277096"><ele>989.75</ele><time>2026-03-29T11:05:19.999Z</time></trkpt><trkpt lat="44.80538547315421" lon="9.346871370221566"><ele>993.5</ele><time>2026-03-29T11:05:20.999Z</time></trkpt><trkpt lat="44.80552831865202" lon="9.346919252138278"><ele>997.25</ele><time>2026-03-29T11:05:21.999Z</time></trkpt><trkpt lat="44.805674746242175" lon="9.34697092163708"><ele>1001.0</ele><time>2026-03-29T11:05:22.999Z</time></trkpt><trkpt lat="44.80581815056614" lon="9.347031489331105"><ele>1001.0</ele><time>2026-03-29T11:05:23.999Z</time></trkpt><trkpt lat="44.80595026484092" lon="9.347148282201328"><ele>1001.0</ele><time>2026-03-29T11:05:24.999Z</time></trkpt><trkpt lat="44.80608418876069" lon="9.347281113989993"><ele>1001.0</ele><time>2026-03-29T11:05:25.999Z</time></trkpt><trkpt lat="44.80622526697909" lon="9.347429658740783"><ele>996.6666666666667</ele><time>2026-03-29T11:05:26.999Z</time></trkpt><trkpt lat="44.806374966208146" lon="9.347562439926612"><ele>992.3333333333333</ele><time>2026-03-29T11:05:27.999Z</time></trkpt><trkpt lat="44.80650963227066" lon="9.347708312843137"><ele>988.0</ele><time>2026-03-29T11:05:28.999Z</time></trkpt><trkpt lat="44.80661625213719" lon="9.347860156967599"><ele>988.0</ele><time>2026-03-29T11:05:29.999Z</time></trkpt><trkpt lat="44.806712785967115" lon="9.347987257704247"><ele>988.0</ele><time>2026-03-29T11:05:30.999Z</time></trkpt><trkpt lat="44.806796796972755" lon="9.34809257363673"><ele>988.0</ele><time>2026-03-29T11:05:31.999Z</time></trkpt><trkpt lat="44.80683157157637" lon="9.348242092049718"><ele>988.0</ele><time>2026-03-29T11:05:32.999Z</time></trkpt><trkpt lat="44.80680186524337" lon="9.348419066143876"><ele>982.0</ele><time>2026-03-29T11:05:33.999Z</time></trkpt><trkpt lat="44.8067981255904" lon="9.3486207591435"><ele>976.0</ele><time>2026-03-29T11:05:34.999Z</time></trkpt><trkpt lat="44.80676945309767" lon="9.348831037953477"><ele>970.0</ele><time>2026-03-29T11:05:35.999Z</time></trkpt><trkpt lat="44.80674255437168" lon="9.349056688464668"><ele>969.6666666666666</ele><time>2026-03-29T11:05:36.999Z</time></trkpt><trkpt lat="44.80671441814305" lon="9.349291237943607"><ele>969.3333333333333</ele><time>2026-03-29T11:05:37.999Z</time></trkpt><trkpt lat="44.80668793885523" lon="9.349519676079014"><ele>969.0</ele><time>2026-03-29T11:05:38.999Z</time></trkpt><trkpt lat="44.80665177852969" lon="9.349721350087341"><ele>969.0</ele><time>2026-03-29T11:05:39.999Z</time></trkpt><trkpt lat="44.80662179368875" lon="9.349882917274389"><ele>969.0000000000001</ele><time>2026-03-29T11:05:40.999Z</time></trkpt><trkpt lat="44.80657355513655" lon="9.350008183323503"><ele>969.0000000000001</ele><time>2026-03-29T11:05:41.999Z</time></trkpt><trkpt lat="44.806488661871725" lon="9.35009291377572"><ele>969.0</ele><time>2026-03-29T11:05:43Z</time></trkpt><trkpt lat="44.80637793362397" lon="9.350138851773552"><ele>969.0</ele><time>2026-03-29T11:05:44Z</time></trkpt><trkpt lat="44.8062512699462" lon="9.350196517554497"><ele>969.0</ele><time>2026-03-29T11:05:45Z</time></trkpt><trkpt lat="44.80612976887291" lon="9.35023891100052"><ele>969.0</ele><time>2026-03-29T11:05:46Z</time></trkpt><trkpt lat="44.80602842774359" lon="9.350311070660517"><ele>969.0</ele><time>2026-03-29T11:05:47Z</time></trkpt><trkpt lat="44.80595546487849" lon="9.350434687405473"><ele>969.0</ele><time>2026-03-29T11:05:48Z</time></trkpt><trkpt lat="44.805912120884436" lon="9.350589685039761"><ele>965.0</ele><time>2026-03-29T11:05:49Z</time></trkpt><trkpt lat="44.80589004553452" lon="9.350768356497712"><ele>961.0</ele><time>2026-03-29T11:05:50Z</time></trkpt><trkpt lat="44.80586287616542" lon="9.35096566094964"><ele>957.0</ele><time>2026-03-29T11:05:51Z</time></trkpt><trkpt lat="44.80582815259228" lon="9.351166847728372"><ele>953.0</ele><time>2026-03-29T11:05:52Z</time></trkpt><trkpt lat="44.80579238232347" lon="9.351373073367956"><ele>954.25</ele><time>2026-03-29T11:05:53Z</time></trkpt><trkpt lat="44.80575584765346" lon="9.351572456968782"><ele>955.5</ele><time>2026-03-29T11:05:54Z</time></trkpt><trkpt lat="44.80572457073466" lon="9.35175648167555"><ele>956.75</ele><time>2026-03-29T11:05:55Z</time></trkpt><trkpt lat="44.80571480974218" lon="9.35192465550584"><ele>958.0</ele><time>2026-03-29T11:05:56Z</time></trkpt><trkpt lat="44.805737775210964" lon="9.352089113046176"><ele>957.25</ele><time>2026-03-29T11:05:57Z</time></trkpt><trkpt lat="44.805795977635036" lon="9.35223973485676"><ele>956.5</ele><time>2026-03-29T11:05:58Z</time></trkpt><trkpt lat="44.8058576808011" lon="9.35237230842901"><ele>955.75</ele><time>2026-03-29T11:05:59Z</time></trkpt><trkpt lat="44.80587189026846" lon="9.352535794303819"><ele>955.0</ele><time>2026-03-29T11:06:00Z</time></trkpt><trkpt lat="44.80585040501509" lon="9.352710125247402"><ele>955.0</ele><time>2026-03-29T11:06:01Z</time></trkpt><trkpt lat="44.80578287482009" lon="9.352868652323641"><ele>955.0</ele><time>2026-03-29T11:06:02Z</time></trkpt><trkpt lat="44.80572853755008" lon="9.353037864342554"><ele>955.0</ele><time>2026-03-29T11:06:03Z</time></trkpt><trkpt lat="44.80568301233222" lon="9.35322030980321"><ele>955.0</ele><time>2026-03-29T11:06:04Z</time></trkpt><trkpt lat="44.805609887962795" lon="9.353393786602144"><ele>955.3333333333333</ele><time>2026-03-29T11:06:05Z</time></trkpt><trkpt lat="44.805517610091684" lon="9.353562056597328"><ele>955.6666666666667</ele><time>2026-03-29T11:06:06Z</time></trkpt><trkpt lat="44.805415694956544" lon="9.353732483129079"><ele>956.0</ele><time>2026-03-29T11:06:07Z</time></trkpt><trkpt lat="44.8053055749699" lon="9.353905687524534"><ele>956.0</ele><time>2026-03-29T11:06:08Z</time></trkpt><trkpt lat="44.80519284650868" lon="9.354059224029328"><ele>956.0</ele><time>2026-03-29T11:06:09Z</time></trkpt><trkpt lat="44.805068553479856" lon="9.354195409503316"><ele>956.0</ele><time>2026-03-29T11:06:10Z</time></trkpt><trkpt lat="44.80494372876038" lon="9.354313244759373"><ele>953.0</ele><time>2026-03-29T11:06:11Z</time></trkpt><trkpt lat="44.80481700255521" lon="9.354414168045096"><ele>950.0</ele><time>2026-03-29T11:06:12Z</time></trkpt><trkpt lat="44.80471264177813" lon="9.354544236240322"><ele>947.0</ele><time>2026-03-29T11:06:13Z</time></trkpt><trkpt lat="44.80462795469819" lon="9.354656936380824"><ele>944.0</ele><time>2026-03-29T11:06:14Z</time></trkpt><trkpt lat="44.80457557381715" lon="9.354770037222114"><ele>944.0</ele><time>2026-03-29T11:06:15Z</time></trkpt><trkpt lat="44.80455646158163" lon="9.354908925834458"><ele>944.0</ele><time>2026-03-29T11:06:16Z</time></trkpt><trkpt lat="44.80457743294277" lon="9.355076519524173"><ele>944.0</ele><time>2026-03-29T11:06:17Z</time></trkpt><trkpt lat="44.8046001320998" lon="9.355269165477925"><ele>944.0</ele><time>2026-03-29T11:06:18Z</time></trkpt><trkpt lat="44.80459923801893" lon="9.355470129504699"><ele>945.5</ele><time>2026-03-29T11:06:19Z</time></trkpt><trkpt lat="44.804595844761785" lon="9.355667693222303"><ele>947.0</ele><time>2026-03-29T11:06:20Z</time></trkpt><trkpt lat="44.804571761349" lon="9.355852492831835"><ele>948.5</ele><time>2026-03-29T11:06:21Z</time></trkpt><trkpt lat="44.8045697060754" lon="9.356020134746117"><ele>950.0</ele><time>2026-03-29T11:06:22Z</time></trkpt><trkpt lat="44.80452235256347" lon="9.356153973926554"><ele>950.0</ele><time>2026-03-29T11:06:23Z</time></trkpt><trkpt lat="44.80442930205612" lon="9.3562494383769"><ele>950.0</ele><time>2026-03-29T11:06:24Z</time></trkpt><trkpt lat="44.80430054524832" lon="9.356287782820614"><ele>950.0</ele><time>2026-03-29T11:06:25Z</time></trkpt><trkpt lat="44.80419012613112" lon="9.35631770472014"><ele>950.0</ele><time>2026-03-29T11:06:26Z</time></trkpt><trkpt lat="44.80409924648079" lon="9.356383989661923"><ele>944.25</ele><time>2026-03-29T11:06:27Z</time></trkpt><trkpt lat="44.80404046381032" lon="9.356507773747458"><ele>938.5</ele><time>2026-03-29T11:06:28Z</time></trkpt><trkpt lat="44.80401571810836" lon="9.35666724406004"><ele>932.75</ele><time>2026-03-29T11:06:29Z</time></trkpt><trkpt lat="44.804016544563495" lon="9.356856360623677"><ele>927.0</ele><time>2026-03-29T11:06:30Z</time></trkpt><trkpt lat="44.804017305416615" lon="9.357066880939582"><ele>926.6666666666667</ele><time>2026-03-29T11:06:31Z</time></trkpt><trkpt lat="44.803998420895844" lon="9.35728747976456"><ele>926.3333333333334</ele><time>2026-03-29T11:06:32Z</time></trkpt><trkpt lat="44.8039379610562" lon="9.357504576144697"><ele>926.0</ele><time>2026-03-29T11:06:33Z</time></trkpt><trkpt lat="44.803853236435366" lon="9.357712841777172"><ele>926.0</ele><time>2026-03-29T11:06:34Z</time></trkpt><trkpt lat="44.80375935595909" lon="9.357910913682375"><ele>926.0</ele><time>2026-03-29T11:06:35Z</time></trkpt><trkpt lat="44.80367166301644" lon="9.35810186832297"><ele>926.0</ele><time>2026-03-29T11:06:36Z</time></trkpt><trkpt lat="44.80359330847233" lon="9.358282028268949"><ele>926.4</ele><time>2026-03-29T11:06:37Z</time></trkpt><trkpt lat="44.803522312730124" lon="9.358447873197234"><ele>926.8</ele><time>2026-03-29T11:06:38Z</time></trkpt><trkpt lat="44.80346879336756" lon="9.35858184263683"><ele>927.1999999999999</ele><time>2026-03-29T11:06:39Z</time></trkpt><trkpt lat="44.80341528216278" lon="9.358673917342312"><ele>927.5999999999999</ele><time>2026-03-29T11:06:40Z</time></trkpt><trkpt lat="44.80335079507613" lon="9.358737041927949"><ele>928.0</ele><time>2026-03-29T11:06:41Z</time></trkpt><trkpt lat="44.80326950420535" lon="9.358761075321295"><ele>923.8</ele><time>2026-03-29T11:06:42Z</time></trkpt><trkpt lat="44.80318297668319" lon="9.35874469446928"><ele>919.5999999999999</ele><time>2026-03-29T11:06:43Z</time></trkpt><trkpt lat="44.80309637039468" lon="9.358693324786245"><ele>915.4000000000001</ele><time>2026-03-29T11:06:44Z</time></trkpt><trkpt lat="44.803017135150355" lon="9.358624048230341"><ele>911.2</ele><time>2026-03-29T11:06:45Z</time></trkpt><trkpt lat="44.802935927347896" lon="9.358567720903931"><ele>907.0</ele><time>2026-03-29T11:06:46Z</time></trkpt><trkpt lat="44.802839584085696" lon="9.358546664523582"><ele>907.0</ele><time>2026-03-29T11:06:47Z</time></trkpt><trkpt lat="44.802727685086886" lon="9.35854991797311"><ele>907.0</ele><time>2026-03-29T11:06:47.999Z</time></trkpt><trkpt lat="44.80260668098133" lon="9.358558583071408"><ele>907.0</ele><time>2026-03-29T11:06:48.999Z</time></trkpt><trkpt lat="44.80247841596173" lon="9.358567936461588"><ele>907.0</ele><time>2026-03-29T11:06:49.999Z</time></trkpt><trkpt lat="44.80234324581625" lon="9.358573643117715"><ele>903.5</ele><time>2026-03-29T11:06:50.999Z</time></trkpt><trkpt lat="44.80220372510498" lon="9.35857555480835"><ele>900.0</ele><time>2026-03-29T11:06:51.999Z</time></trkpt><trkpt lat="44.80206158341373" lon="9.358583494818442"><ele>896.5</ele><time>2026-03-29T11:06:52.999Z</time></trkpt><trkpt lat="44.80192783604937" lon="9.358612090773521"><ele>893.0</ele><time>2026-03-29T11:06:53.999Z</time></trkpt><trkpt lat="44.801801489786754" lon="9.358636870238612"><ele>893.5</ele><time>2026-03-29T11:06:54.999Z</time></trkpt><trkpt lat="44.80168074634849" lon="9.358689591705925"><ele>894.0</ele><time>2026-03-29T11:06:55.999Z</time></trkpt><trkpt lat="44.801589469813855" lon="9.358742188690544"><ele>894.5</ele><time>2026-03-29T11:06:56.999Z</time></trkpt><trkpt lat="44.80149891922755" lon="9.35885336959817"><ele>895.0</ele><time>2026-03-29T11:06:57.999Z</time></trkpt><trkpt lat="44.80142393739324" lon="9.35901665317353"><ele>895.0</ele><time>2026-03-29T11:06:58.999Z</time></trkpt><trkpt lat="44.801354223856904" lon="9.359171042830853"><ele>895.0</ele><time>2026-03-29T11:06:59.999Z</time></trkpt><trkpt lat="44.80128788005341" lon="9.359289125633063"><ele>895.0</ele><time>2026-03-29T11:07:00.999Z</time></trkpt><trkpt lat="44.8012225506541" lon="9.359377520205316"><ele>895.0</ele><time>2026-03-29T11:07:01.999Z</time></trkpt><trkpt lat="44.80112261117486" lon="9.359397591162073"><ele>895.0</ele><time>2026-03-29T11:07:02.999Z</time></trkpt><trkpt lat="44.80102720741194" lon="9.35934829272618"><ele>893.25</ele><time>2026-03-29T11:07:03.999Z</time></trkpt><trkpt lat="44.80094532725176" lon="9.359241219581092"><ele>891.5</ele><time>2026-03-29T11:07:04.999Z</time></trkpt><trkpt lat="44.80084087853233" lon="9.359137778892876"><ele>889.75</ele><time>2026-03-29T11:07:05.999Z</time></trkpt><trkpt lat="44.80072387939338" lon="9.35903905056974"><ele>888.0</ele><time>2026-03-29T11:07:06.999Z</time></trkpt><trkpt lat="44.80061117527442" lon="9.35892691443994"><ele>884.0</ele><time>2026-03-29T11:07:07.999Z</time></trkpt><trkpt lat="44.80050927137458" lon="9.358820190022277"><ele>880.0</ele><time>2026-03-29T11:07:08.999Z</time></trkpt><trkpt lat="44.800412399040894" lon="9.358726645013832"><ele>876.0</ele><time>2026-03-29T11:07:09.999Z</time></trkpt><trkpt lat="44.800322205786955" lon="9.358669525183794"><ele>872.0</ele><time>2026-03-29T11:07:10.999Z</time></trkpt><trkpt lat="44.80022221644306" lon="9.35866698807165"><ele>868.0</ele><time>2026-03-29T11:07:11.999Z</time></trkpt><trkpt lat="44.800111265755554" lon="9.358715115603713"><ele>870.0</ele><time>2026-03-29T11:07:12.999Z</time></trkpt><trkpt lat="44.80000188660199" lon="9.358813224616364"><ele>872.0</ele><time>2026-03-29T11:07:13.999Z</time></trkpt><trkpt lat="44.799897484156936" lon="9.358912917234896"><ele>874.0</ele><time>2026-03-29T11:07:14.999Z</time></trkpt><trkpt lat="44.79978609668263" lon="9.358897854700174"><ele>876.0</ele><time>2026-03-29T11:07:15.999Z</time></trkpt><trkpt lat="44.799675280025916" lon="9.358852944962683"><ele>876.0</ele><time>2026-03-29T11:07:16.999Z</time></trkpt><trkpt lat="44.79955812874979" lon="9.358845070116526"><ele>875.9999999999999</ele><time>2026-03-29T11:07:17.999Z</time></trkpt><trkpt lat="44.79945464248764" lon="9.358842424392664"><ele>875.9999999999999</ele><time>2026-03-29T11:07:18.999Z</time></trkpt><trkpt lat="44.799360062650116" lon="9.358885780022534"><ele>876.0</ele><time>2026-03-29T11:07:19.999Z</time></trkpt><trkpt lat="44.79927799342484" lon="9.358971648880097"><ele>876.0</ele><time>2026-03-29T11:07:20.999Z</time></trkpt><trkpt lat="44.799219201023526" lon="9.359091933830658"><ele>876.0</ele><time>2026-03-29T11:07:21.999Z</time></trkpt><trkpt lat="44.79919750810566" lon="9.359231202644455"><ele>875.9999999999999</ele><time>2026-03-29T11:07:22.999Z</time></trkpt><trkpt lat="44.79921884188628" lon="9.359378152111"><ele>875.9999999999999</ele><time>2026-03-29T11:07:23.999Z</time></trkpt><trkpt lat="44.79927956457429" lon="9.359516603165993"><ele>876.0</ele><time>2026-03-29T11:07:24.999Z</time></trkpt><trkpt lat="44.79935221266256" lon="9.359655802712453"><ele>876.0</ele><time>2026-03-29T11:07:25.999Z</time></trkpt><trkpt lat="44.79939161832715" lon="9.35982545962211"><ele>876.5</ele><time>2026-03-29T11:07:26.999Z</time></trkpt><trkpt lat="44.799360964431685" lon="9.360018367373614"><ele>877.0</ele><time>2026-03-29T11:07:27.999Z</time></trkpt><trkpt lat="44.799320665908674" lon="9.360205665339576"><ele>877.5</ele><time>2026-03-29T11:07:28.999Z</time></trkpt><trkpt lat="44.79922836210678" lon="9.360357135474358"><ele>878.0</ele><time>2026-03-29T11:07:29.999Z</time></trkpt><trkpt lat="44.799130435000016" lon="9.360530157232846"><ele>874.0</ele><time>2026-03-29T11:07:30.999Z</time></trkpt><trkpt lat="44.799017723197906" lon="9.360674700959636"><ele>870.0</ele><time>2026-03-29T11:07:31.999Z</time></trkpt><trkpt lat="44.79891830257126" lon="9.36081337890897"><ele>866.0</ele><time>2026-03-29T11:07:32.999Z</time></trkpt><trkpt lat="44.798841026999206" lon="9.360941275463828"><ele>862.0</ele><time>2026-03-29T11:07:33.999Z</time></trkpt><trkpt lat="44.79877888744171" lon="9.361063232460303"><ele>862.0</ele><time>2026-03-29T11:07:34.999Z</time></trkpt><trkpt lat="44.79874733113013" lon="9.361198888718558"><ele>862.0</ele><time>2026-03-29T11:07:35.999Z</time></trkpt><trkpt lat="44.79875426733138" lon="9.361368939352925"><ele>862.0</ele><time>2026-03-29T11:07:36.999Z</time></trkpt><trkpt lat="44.79878889499202" lon="9.361562228821786"><ele>862.0</ele><time>2026-03-29T11:07:37.999Z</time></trkpt><trkpt lat="44.79878996454522" lon="9.361763378837036"><ele>861.8</ele><time>2026-03-29T11:07:38.999Z</time></trkpt><trkpt lat="44.798779087806466" lon="9.36194846429833"><ele>861.6</ele><time>2026-03-29T11:07:39.999Z</time></trkpt><trkpt lat="44.79876732225424" lon="9.362098560852894"><ele>861.3999999999999</ele><time>2026-03-29T11:07:40.999Z</time></trkpt><trkpt lat="44.79873568280866" lon="9.362215491920907"><ele>861.1999999999999</ele><time>2026-03-29T11:07:41.999Z</time></trkpt><trkpt lat="44.798645466192525" lon="9.362284267396006"><ele>861.0</ele><time>2026-03-29T11:07:42.999Z</time></trkpt><trkpt lat="44.79852081587921" lon="9.362284686875897"><ele>855.5</ele><time>2026-03-29T11:07:43.999Z</time></trkpt><trkpt lat="44.798394624777124" lon="9.362310630896529"><ele>850.0</ele><time>2026-03-29T11:07:44.999Z</time></trkpt><trkpt lat="44.79827379859626" lon="9.36233158511389"><ele>844.5</ele><time>2026-03-29T11:07:45.999Z</time></trkpt><trkpt lat="44.79816679630414" lon="9.36238820348876"><ele>839.0</ele><time>2026-03-29T11:07:46.999Z</time></trkpt><trkpt lat="44.79806827945988" lon="9.362484410492728"><ele>839.0</ele><time>2026-03-29T11:07:47.999Z</time></trkpt><trkpt lat="44.79798084998683" lon="9.362630340343145"><ele>839.0</ele><time>2026-03-29T11:07:49Z</time></trkpt><trkpt lat="44.79789711633951" lon="9.362791565586582"><ele>839.0</ele><time>2026-03-29T11:07:50Z</time></trkpt><trkpt lat="44.79782346939426" lon="9.36294997570429"><ele>839.0</ele><time>2026-03-29T11:07:51Z</time></trkpt><trkpt lat="44.79775177829665" lon="9.363090314324744"><ele>840.4000000000001</ele><time>2026-03-29T11:07:52Z</time></trkpt><trkpt lat="44.797683188181296" lon="9.363219895074794"><ele>841.8</ele><time>2026-03-29T11:07:53Z</time></trkpt><trkpt lat="44.797616465240715" lon="9.363343021645607"><ele>843.2</ele><time>2026-03-29T11:07:54Z</time></trkpt><trkpt lat="44.797555918843926" lon="9.363463661949428"><ele>844.5999999999999</ele><time>2026-03-29T11:07:55Z</time></trkpt><trkpt lat="44.79750109393104" lon="9.36357199361627"><ele>846.0</ele><time>2026-03-29T11:07:56Z</time></trkpt><trkpt lat="44.797451905042884" lon="9.363661872664338"><ele>842.4</ele><time>2026-03-29T11:07:57Z</time></trkpt><trkpt lat="44.79740587347339" lon="9.36374007190711"><ele>838.8</ele><time>2026-03-29T11:07:58Z</time></trkpt><trkpt lat="44.797340504012645" lon="9.363859934255572"><ele>835.1999999999999</ele><time>2026-03-29T11:08:00Z</time></trkpt><trkpt lat="44.797291109587576" lon="9.36394638104315"><ele>831.5999999999999</ele><time>2026-03-29T11:08:02Z</time></trkpt><trkpt lat="44.79722868410716" lon="9.36403838772827"><ele>828.0</ele><time>2026-03-29T11:08:46Z</time></trkpt><trkpt lat="44.797157860112286" lon="9.36416845374393"><ele>828.0</ele><time>2026-03-29T11:08:48Z</time></trkpt><trkpt lat="44.797105718591375" lon="9.364266404518968"><ele>828.0</ele><time>2026-03-29T11:08:49Z</time></trkpt><trkpt lat="44.797046093941404" lon="9.364387836615728"><ele>828.0</ele><time>2026-03-29T11:08:50Z</time></trkpt><trkpt lat="44.79699322950762" lon="9.364520085646404"><ele>828.0</ele><time>2026-03-29T11:08:51Z</time></trkpt><trkpt lat="44.79694696388267" lon="9.364671752045524"><ele>828.0</ele><time>2026-03-29T11:08:51.999Z</time></trkpt><trkpt lat="44.79690782503861" lon="9.36484559278996"><ele>827.25</ele><time>2026-03-29T11:08:52.999Z</time></trkpt><trkpt lat="44.79687507770408" lon="9.365031423756664"><ele>826.5</ele><time>2026-03-29T11:08:53.999Z</time></trkpt><trkpt lat="44.7968453983224" lon="9.36522426726588"><ele>825.75</ele><time>2026-03-29T11:08:54.999Z</time></trkpt><trkpt lat="44.79682122037011" lon="9.365420216360253"><ele>825.0</ele><time>2026-03-29T11:08:55.999Z</time></trkpt><trkpt lat="44.79679712645451" lon="9.365618779747834"><ele>817.0</ele><time>2026-03-29T11:08:56.999Z</time></trkpt><trkpt lat="44.7967681082586" lon="9.365813633806642"><ele>809.0</ele><time>2026-03-29T11:08:57.999Z</time></trkpt><trkpt lat="44.79671126607413" lon="9.366017818889931"><ele>801.0</ele><time>2026-03-29T11:08:58.999Z</time></trkpt><trkpt lat="44.7966190227457" lon="9.366209346390498"><ele>801.0</ele><time>2026-03-29T11:08:59.999Z</time></trkpt><trkpt lat="44.79650396457297" lon="9.366398718963959"><ele>801.0</ele><time>2026-03-29T11:09:00.999Z</time></trkpt><trkpt lat="44.7963602449828" lon="9.366556012117453"><ele>801.0</ele><time>2026-03-29T11:09:01.999Z</time></trkpt><trkpt lat="44.79621950375706" lon="9.366725714347941"><ele>801.0</ele><time>2026-03-29T11:09:02.999Z</time></trkpt><trkpt lat="44.79608427374981" lon="9.36690424435914"><ele>801.0</ele><time>2026-03-29T11:09:03.999Z</time></trkpt><trkpt lat="44.79593662247355" lon="9.36707081547934"><ele>801.0</ele><time>2026-03-29T11:09:04.999Z</time></trkpt><trkpt lat="44.79579935760107" lon="9.367234366064094"><ele>797.6666666666667</ele><time>2026-03-29T11:09:05.999Z</time></trkpt><trkpt lat="44.79567033910815" lon="9.367389320059566"><ele>794.3333333333334</ele><time>2026-03-29T11:09:06.999Z</time></trkpt><trkpt lat="44.79554836612484" lon="9.367539067946485"><ele>791.0</ele><time>2026-03-29T11:09:07.999Z</time></trkpt><trkpt lat="44.79543717191952" lon="9.367690069083615"><ele>791.0</ele><time>2026-03-29T11:09:08.999Z</time></trkpt><trkpt lat="44.79534787848703" lon="9.367864225764365"><ele>791.0</ele><time>2026-03-29T11:09:09.999Z</time></trkpt><trkpt lat="44.79528599759659" lon="9.368056419823924"><ele>791.0</ele><time>2026-03-29T11:09:10.999Z</time></trkpt><trkpt lat="44.795247570213206" lon="9.368251738565013"><ele>791.0</ele><time>2026-03-29T11:09:11.999Z</time></trkpt><trkpt lat="44.79524331401485" lon="9.368448118041988"><ele>791.25</ele><time>2026-03-29T11:09:12.999Z</time></trkpt><trkpt lat="44.795267239097946" lon="9.368642150981206"><ele>791.5</ele><time>2026-03-29T11:09:13.999Z</time></trkpt><trkpt lat="44.795321572711146" lon="9.368833675920047"><ele>791.75</ele><time>2026-03-29T11:09:14.999Z</time></trkpt><trkpt lat="44.795389459844365" lon="9.369020984607758"><ele>792.0</ele><time>2026-03-29T11:09:15.999Z</time></trkpt><trkpt lat="44.79544540327575" lon="9.369199575481483"><ele>793.6</ele><time>2026-03-29T11:09:16.999Z</time></trkpt><trkpt lat="44.79547046043054" lon="9.36935956675679"><ele>795.2</ele><time>2026-03-29T11:09:17.999Z</time></trkpt><trkpt lat="44.79545568782843" lon="9.369504487112403"><ele>796.8</ele><time>2026-03-29T11:09:18.999Z</time></trkpt><trkpt lat="44.79538062604489" lon="9.369613795789677"><ele>798.4</ele><time>2026-03-29T11:09:19.999Z</time></trkpt><trkpt lat="44.795284170321395" lon="9.369685043233709"><ele>800.0</ele><time>2026-03-29T11:09:20.999Z</time></trkpt><trkpt lat="44.79515198065842" lon="9.369759708711504"><ele>791.3333333333334</ele><time>2026-03-29T11:09:21.999Z</time></trkpt><trkpt lat="44.794995082451344" lon="9.369828832617152"><ele>782.6666666666667</ele><time>2026-03-29T11:09:22.999Z</time></trkpt><trkpt lat="44.79481573494906" lon="9.369922379481991"><ele>774.0</ele><time>2026-03-29T11:09:23.999Z</time></trkpt><trkpt lat="44.79463841301023" lon="9.370028020446053"><ele>774.0</ele><time>2026-03-29T11:09:24.999Z</time></trkpt><trkpt lat="44.794455387245854" lon="9.370137161467126"><ele>774.0</ele><time>2026-03-29T11:09:25.999Z</time></trkpt><trkpt lat="44.79427993645372" lon="9.370236117411272"><ele>774.0</ele><time>2026-03-29T11:09:26.999Z</time></trkpt><trkpt lat="44.79412047865922" lon="9.370322778240991"><ele>772.0</ele><time>2026-03-29T11:09:27.999Z</time></trkpt><trkpt lat="44.79398464168754" lon="9.370397712403962"><ele>770.0</ele><time>2026-03-29T11:09:28.999Z</time></trkpt><trkpt lat="44.79386153934168" lon="9.370474053800484"><ele>768.0</ele><time>2026-03-29T11:09:29.999Z</time></trkpt><trkpt lat="44.793747175204295" lon="9.370536089576063"><ele>766.0</ele><time>2026-03-29T11:09:30.999Z</time></trkpt><trkpt lat="44.79364099098979" lon="9.370577408140635"><ele>763.5999999999999</ele><time>2026-03-29T11:09:31.999Z</time></trkpt><trkpt lat="44.79354042827037" lon="9.37057017991313"><ele>761.2</ele><time>2026-03-29T11:09:32.999Z</time></trkpt><trkpt lat="44.793465905169676" lon="9.370511677913466"><ele>758.8</ele><time>2026-03-29T11:09:33.999Z</time></trkpt><trkpt lat="44.79342990024254" lon="9.370396423974558"><ele>756.4000000000001</ele><time>2026-03-29T11:09:34.999Z</time></trkpt><trkpt lat="44.79343755069717" lon="9.370245584219921"><ele>754.0</ele><time>2026-03-29T11:09:35.999Z</time></trkpt><trkpt lat="44.793467499297364" lon="9.37006837999487"><ele>753.3333333333334</ele><time>2026-03-29T11:09:36.999Z</time></trkpt><trkpt lat="44.7934872967467" lon="9.369863603984571"><ele>752.6666666666666</ele><time>2026-03-29T11:09:37.999Z</time></trkpt><trkpt lat="44.79349505994293" lon="9.369620384171112"><ele>752.0</ele><time>2026-03-29T11:09:38.999Z</time></trkpt><trkpt lat="44.793488923681046" lon="9.369387082162861"><ele>751.5</ele><time>2026-03-29T11:09:39.999Z</time></trkpt><trkpt lat="44.79347030983818" lon="9.369173459111298"><ele>751.0</ele><time>2026-03-29T11:09:40.999Z</time></trkpt><trkpt lat="44.7934488484626" lon="9.368969488696333"><ele>750.5</ele><time>2026-03-29T11:09:41.999Z</time></trkpt><trkpt lat="44.79344115526008" lon="9.36877772761584"><ele>750.0</ele><time>2026-03-29T11:09:42.999Z</time></trkpt><trkpt lat="44.79345090884353" lon="9.368595046192768"><ele>749.25</ele><time>2026-03-29T11:09:43.999Z</time></trkpt><trkpt lat="44.79347063708927" lon="9.368422277637809"><ele>748.5</ele><time>2026-03-29T11:09:44.999Z</time></trkpt><trkpt lat="44.793486337183666" lon="9.36825191431842"><ele>747.75</ele><time>2026-03-29T11:09:45.999Z</time></trkpt><trkpt lat="44.79349686189571" lon="9.36808425505969"><ele>747.0</ele><time>2026-03-29T11:09:46.999Z</time></trkpt><trkpt lat="44.79350839723014" lon="9.367920113198105"><ele>750.25</ele><time>2026-03-29T11:09:47.999Z</time></trkpt><trkpt lat="44.793521598231166" lon="9.367748412519992"><ele>753.5</ele><time>2026-03-29T11:09:48.999Z</time></trkpt><trkpt lat="44.79353500386631" lon="9.367570042341455"><ele>756.75</ele><time>2026-03-29T11:09:49.999Z</time></trkpt><trkpt lat="44.793553083811766" lon="9.367387731612409"><ele>760.0</ele><time>2026-03-29T11:09:50.999Z</time></trkpt><trkpt lat="44.79358799069229" lon="9.367195035302048"><ele>758.3333333333334</ele><time>2026-03-29T11:09:51.999Z</time></trkpt><trkpt lat="44.793635397751196" lon="9.366982070249236"><ele>756.6666666666666</ele><time>2026-03-29T11:09:52.998Z</time></trkpt><trkpt lat="44.7936756799546" lon="9.366763031244282"><ele>755.0</ele><time>2026-03-29T11:09:53.998Z</time></trkpt><trkpt lat="44.793705542332056" lon="9.366547639081128"><ele>753.5</ele><time>2026-03-29T11:09:55Z</time></trkpt><trkpt lat="44.79373371043539" lon="9.366340990400756"><ele>752.0</ele><time>2026-03-29T11:09:56Z</time></trkpt><trkpt lat="44.79377996996036" lon="9.366147792737772"><ele>750.5</ele><time>2026-03-29T11:09:57Z</time></trkpt><trkpt lat="44.79385820666889" lon="9.365962782061981"><ele>749.0</ele><time>2026-03-29T11:09:58Z</time></trkpt><trkpt lat="44.79395155486998" lon="9.365775860507519"><ele>749.0</ele><time>2026-03-29T11:09:59Z</time></trkpt><trkpt lat="44.794044221283926" lon="9.365589043794843"><ele>749.0</ele><time>2026-03-29T11:10:00Z</time></trkpt><trkpt lat="44.79409863265513" lon="9.36535641303422"><ele>749.0</ele><time>2026-03-29T11:10:01Z</time></trkpt><trkpt lat="44.79415381548802" lon="9.365118985579374"><ele>744.3333333333333</ele><time>2026-03-29T11:10:02Z</time></trkpt><trkpt lat="44.79419090947253" lon="9.364882066696364"><ele>739.6666666666666</ele><time>2026-03-29T11:10:03Z</time></trkpt><trkpt lat="44.79420262864572" lon="9.364645416910522"><ele>735.0</ele><time>2026-03-29T11:10:04Z</time></trkpt><trkpt lat="44.79418719517452" lon="9.364397683677357"><ele>733.3333333333334</ele><time>2026-03-29T11:10:05Z</time></trkpt><trkpt lat="44.79415443877943" lon="9.364132287901835"><ele>731.6666666666667</ele><time>2026-03-29T11:10:06Z</time></trkpt><trkpt lat="44.7941059993309" lon="9.363849438070979"><ele>730.0</ele><time>2026-03-29T11:10:07Z</time></trkpt><trkpt lat="44.794047866033125" lon="9.363554190456092"><ele>730.0</ele><time>2026-03-29T11:10:08Z</time></trkpt><trkpt lat="44.79397629690705" lon="9.363254136968111"><ele>730.0</ele><time>2026-03-29T11:10:09Z</time></trkpt><trkpt lat="44.79390754642177" lon="9.36295537812391"><ele>730.0</ele><time>2026-03-29T11:10:10Z</time></trkpt><trkpt lat="44.79384275248641" lon="9.362646826364163"><ele>730.6666666666667</ele><time>2026-03-29T11:10:11Z</time></trkpt><trkpt lat="44.79377811842481" lon="9.362339639452964"><ele>731.3333333333334</ele><time>2026-03-29T11:10:12Z</time></trkpt><trkpt lat="44.79371462388248" lon="9.362045883135862"><ele>732.0</ele><time>2026-03-29T11:10:13Z</time></trkpt><trkpt lat="44.79365288433528" lon="9.361767723887889"><ele>732.3333333333334</ele><time>2026-03-29T11:10:14Z</time></trkpt><trkpt lat="44.79358380259843" lon="9.361498556068467"><ele>732.6666666666667</ele><time>2026-03-29T11:10:15Z</time></trkpt><trkpt lat="44.793530375398994" lon="9.361245693812721"><ele>733.0</ele><time>2026-03-29T11:10:16Z</time></trkpt><trkpt lat="44.79349331902078" lon="9.361026258983589"><ele>730.25</ele><time>2026-03-29T11:10:17Z</time></trkpt><trkpt lat="44.79346433793083" lon="9.360854121830254"><ele>727.5</ele><time>2026-03-29T11:10:18Z</time></trkpt><trkpt lat="44.793415884680385" lon="9.36071939605362"><ele>724.75</ele><time>2026-03-29T11:10:19Z</time></trkpt><trkpt lat="44.793329901946386" lon="9.360620384959331"><ele>722.0</ele><time>2026-03-29T11:10:20Z</time></trkpt><trkpt lat="44.79321069697299" lon="9.3605712540975"><ele>722.0</ele><time>2026-03-29T11:10:21Z</time></trkpt><trkpt lat="44.79307860085801" lon="9.360600435608287"><ele>722.0</ele><time>2026-03-29T11:10:22Z</time></trkpt><trkpt lat="44.79293908154816" lon="9.360727423577812"><ele>722.0</ele><time>2026-03-29T11:10:23Z</time></trkpt><trkpt lat="44.79281983797038" lon="9.360879013238652"><ele>722.0</ele><time>2026-03-29T11:10:24Z</time></trkpt><trkpt lat="44.79270123716" lon="9.361061267364438"><ele>722.0</ele><time>2026-03-29T11:10:25Z</time></trkpt><trkpt lat="44.792588643478645" lon="9.361245766579296"><ele>722.0</ele><time>2026-03-29T11:10:26Z</time></trkpt><trkpt lat="44.792485288211005" lon="9.361418997174571"><ele>719.75</ele><time>2026-03-29T11:10:27Z</time></trkpt><trkpt lat="44.79236738067486" lon="9.36154482668286"><ele>717.5</ele><time>2026-03-29T11:10:28Z</time></trkpt><trkpt lat="44.792254100582" lon="9.361648731048078"><ele>715.25</ele><time>2026-03-29T11:10:29Z</time></trkpt><trkpt lat="44.79214235666709" lon="9.361735550985772"><ele>713.0</ele><time>2026-03-29T11:10:30Z</time></trkpt><trkpt lat="44.792016960088176" lon="9.36171241468544"><ele>713.0</ele><time>2026-03-29T11:10:31Z</time></trkpt><trkpt lat="44.79189840505487" lon="9.361662147467664"><ele>713.0</ele><time>2026-03-29T11:10:32Z</time></trkpt><trkpt lat="44.791782505622294" lon="9.361562741968307"><ele>713.0</ele><time>2026-03-29T11:10:33Z</time></trkpt><trkpt lat="44.79166861510853" lon="9.361413768014138"><ele>713.0</ele><time>2026-03-29T11:10:34Z</time></trkpt><trkpt lat="44.791559738412616" lon="9.361224690296972"><ele>711.6666666666666</ele><time>2026-03-29T11:10:35Z</time></trkpt><trkpt lat="44.791440078066174" lon="9.361036522168218"><ele>710.3333333333334</ele><time>2026-03-29T11:10:36Z</time></trkpt><trkpt lat="44.79132398041275" lon="9.360852675737144"><ele>709.0</ele><time>2026-03-29T11:10:37Z</time></trkpt><trkpt lat="44.79120716950807" lon="9.360691557628893"><ele>710.0</ele><time>2026-03-29T11:10:38Z</time></trkpt><trkpt lat="44.791109566021056" lon="9.360519176129705"><ele>711.0</ele><time>2026-03-29T11:10:39Z</time></trkpt><trkpt lat="44.79104846569135" lon="9.360314139776785"><ele>712.0</ele><time>2026-03-29T11:10:40Z</time></trkpt><trkpt lat="44.790993510715474" lon="9.360093507881146"><ele>708.0</ele><time>2026-03-29T11:10:41Z</time></trkpt><trkpt lat="44.79090518569331" lon="9.359884654172093"><ele>704.0</ele><time>2026-03-29T11:10:42Z</time></trkpt><trkpt lat="44.79078401221268" lon="9.359687033118153"><ele>700.0</ele><time>2026-03-29T11:10:43Z</time></trkpt><trkpt lat="44.79063918262683" lon="9.359498309776164"><ele>700.0</ele><time>2026-03-29T11:10:44Z</time></trkpt><trkpt lat="44.79048953881721" lon="9.359310113457434"><ele>700.0</ele><time>2026-03-29T11:10:45Z</time></trkpt><trkpt lat="44.79034407513585" lon="9.359118775542086"><ele>700.0</ele><time>2026-03-29T11:10:46Z</time></trkpt><trkpt lat="44.79020923163324" lon="9.358937332869719"><ele>696.3333333333334</ele><time>2026-03-29T11:10:47Z</time></trkpt><trkpt lat="44.790078859985044" lon="9.358762553752273"><ele>692.6666666666666</ele><time>2026-03-29T11:10:48Z</time></trkpt><trkpt lat="44.789944925103995" lon="9.35860682239047"><ele>689.0</ele><time>2026-03-29T11:10:49Z</time></trkpt><trkpt lat="44.78980309969323" lon="9.358481868542087"><ele>689.0</ele><time>2026-03-29T11:10:50Z</time></trkpt><trkpt lat="44.7896527255143" lon="9.358387138494045"><ele>689.0</ele><time>2026-03-29T11:10:51Z</time></trkpt><trkpt lat="44.78950056730213" lon="9.35833887039917"><ele>689.0</ele><time>2026-03-29T11:10:52Z</time></trkpt><trkpt lat="44.789352839547064" lon="9.358336603315989"><ele>685.3333333333333</ele><time>2026-03-29T11:10:53Z</time></trkpt><trkpt lat="44.789200640237766" lon="9.358371315710226"><ele>681.6666666666666</ele><time>2026-03-29T11:10:54Z</time></trkpt><trkpt lat="44.78904352261908" lon="9.358444265975425"><ele>678.0</ele><time>2026-03-29T11:10:55Z</time></trkpt><trkpt lat="44.78888064460272" lon="9.358525544733379"><ele>678.0</ele><time>2026-03-29T11:10:55.999Z</time></trkpt><trkpt lat="44.78872017554941" lon="9.358590609957485"><ele>678.0</ele><time>2026-03-29T11:10:56.999Z</time></trkpt><trkpt lat="44.788578863337676" lon="9.358659935916577"><ele>678.0</ele><time>2026-03-29T11:10:57.999Z</time></trkpt><trkpt lat="44.7884545163827" lon="9.358710574221949"><ele>678.0</ele><time>2026-03-29T11:10:58.999Z</time></trkpt><trkpt lat="44.788349653338436" lon="9.358727950106983"><ele>676.25</ele><time>2026-03-29T11:10:59.999Z</time></trkpt><trkpt lat="44.788249556723734" lon="9.35869350630792"><ele>674.5</ele><time>2026-03-29T11:11:00.999Z</time></trkpt><trkpt lat="44.78817720100097" lon="9.358557451553319"><ele>672.75</ele><time>2026-03-29T11:11:01.999Z</time></trkpt><trkpt lat="44.78807157504532" lon="9.358425916471619"><ele>671.0</ele><time>2026-03-29T11:11:02.999Z</time></trkpt><trkpt lat="44.78797387901013" lon="9.358275826772383"><ele>671.0</ele><time>2026-03-29T11:11:03.999Z</time></trkpt><trkpt lat="44.787871416514804" lon="9.358135573062091"><ele>671.0</ele><time>2026-03-29T11:11:04.999Z</time></trkpt><trkpt lat="44.78777774110765" lon="9.358006077775492"><ele>671.0</ele><time>2026-03-29T11:11:05.999Z</time></trkpt><trkpt lat="44.78771508662932" lon="9.357848813628085"><ele>671.0</ele><time>2026-03-29T11:11:06.999Z</time></trkpt><trkpt lat="44.78765180477748" lon="9.357673678398477"><ele>666.0</ele><time>2026-03-29T11:11:07.999Z</time></trkpt><trkpt lat="44.78765095485483" lon="9.357457733341391"><ele>661.0</ele><time>2026-03-29T11:11:08.999Z</time></trkpt><trkpt lat="44.787636276714835" lon="9.357240637022626"><ele>656.0</ele><time>2026-03-29T11:11:09.999Z</time></trkpt><trkpt lat="44.787632241928144" lon="9.357005048643577"><ele>655.0</ele><time>2026-03-29T11:11:10.999Z</time></trkpt><trkpt lat="44.787618261948836" lon="9.356752811931127"><ele>654.0</ele><time>2026-03-29T11:11:11.999Z</time></trkpt><trkpt lat="44.78760002602567" lon="9.356501712431314"><ele>653.0</ele><time>2026-03-29T11:11:12.999Z</time></trkpt><trkpt lat="44.787580335478474" lon="9.356260688674467"><ele>653.0</ele><time>2026-03-29T11:11:13.999Z</time></trkpt><trkpt lat="44.78756121300787" lon="9.356032376410662"><ele>653.0</ele><time>2026-03-29T11:11:14.999Z</time></trkpt><trkpt lat="44.787544491766766" lon="9.355818973390713"><ele>653.0</ele><time>2026-03-29T11:11:15.999Z</time></trkpt><trkpt lat="44.787522772096445" lon="9.355637031860608"><ele>653.0</ele><time>2026-03-29T11:11:16.999Z</time></trkpt><trkpt lat="44.78748796926409" lon="9.35550430009198"><ele>653.5</ele><time>2026-03-29T11:11:17.999Z</time></trkpt><trkpt lat="44.78742280563038" lon="9.355396220858182"><ele>654.0</ele><time>2026-03-29T11:11:18.999Z</time></trkpt><trkpt lat="44.78732024207436" lon="9.355321833665434"><ele>654.5</ele><time>2026-03-29T11:11:19.999Z</time></trkpt><trkpt lat="44.78719600941781" lon="9.3553135761949"><ele>655.0</ele><time>2026-03-29T11:11:20.999Z</time></trkpt><trkpt lat="44.78706134493002" lon="9.355370038357691"><ele>655.0</ele><time>2026-03-29T11:11:21.999Z</time></trkpt><trkpt lat="44.78691649209039" lon="9.355464979506424"><ele>655.0</ele><time>2026-03-29T11:11:22.999Z</time></trkpt><trkpt lat="44.78676301736927" lon="9.355559577965177"><ele>655.0</ele><time>2026-03-29T11:11:23.999Z</time></trkpt><trkpt lat="44.78660375522389" lon="9.355643060218636"><ele>650.0</ele><time>2026-03-29T11:11:24.999Z</time></trkpt><trkpt lat="44.786443246487224" lon="9.355724180217628"><ele>645.0</ele><time>2026-03-29T11:11:25.999Z</time></trkpt><trkpt lat="44.786277023384514" lon="9.355808785415855"><ele>640.0</ele><time>2026-03-29T11:11:26.999Z</time></trkpt><trkpt lat="44.786116953625566" lon="9.355886968796527"><ele>638.0</ele><time>2026-03-29T11:11:27.999Z</time></trkpt><trkpt lat="44.7859683147352" lon="9.355962652817219"><ele>636.0</ele><time>2026-03-29T11:11:28.999Z</time></trkpt><trkpt lat="44.78584139500244" lon="9.356065687060589"><ele>634.0</ele><time>2026-03-29T11:11:29.999Z</time></trkpt><trkpt lat="44.78573483460866" lon="9.356216550550151"><ele>632.6666666666667</ele><time>2026-03-29T11:11:30.999Z</time></trkpt><trkpt lat="44.78564434489126" lon="9.356409087790446"><ele>631.3333333333334</ele><time>2026-03-29T11:11:31.999Z</time></trkpt><trkpt lat="44.785554115253355" lon="9.356600830160396"><ele>630.0</ele><time>2026-03-29T11:11:32.999Z</time></trkpt><trkpt lat="44.78542870090078" lon="9.35672636355198"><ele>630.0</ele><time>2026-03-29T11:11:33.999Z</time></trkpt><trkpt lat="44.785292398842046" lon="9.35683600359184"><ele>630.0</ele><time>2026-03-29T11:11:34.999Z</time></trkpt><trkpt lat="44.78514866710439" lon="9.356934560500585"><ele>630.0</ele><time>2026-03-29T11:11:35.999Z</time></trkpt><trkpt lat="44.78502933429637" lon="9.357031465303265"><ele>628.6</ele><time>2026-03-29T11:11:36.999Z</time></trkpt><trkpt lat="44.7849278983095" lon="9.35707831308939"><ele>627.2</ele><time>2026-03-29T11:11:37.999Z</time></trkpt><trkpt lat="44.78484274850731" lon="9.35708930306071"><ele>625.8</ele><time>2026-03-29T11:11:38.999Z</time></trkpt><trkpt lat="44.7847585434966" lon="9.357028251700964"><ele>624.4</ele><time>2026-03-29T11:11:39.999Z</time></trkpt><trkpt lat="44.78468296796412" lon="9.356900880641644"><ele>623.0</ele><time>2026-03-29T11:11:40.999Z</time></trkpt><trkpt lat="44.784608754019644" lon="9.356746792308"><ele>623.0</ele><time>2026-03-29T11:11:41.999Z</time></trkpt><trkpt lat="44.784527331401875" lon="9.356608355388266"><ele>623.0</ele><time>2026-03-29T11:11:42.999Z</time></trkpt><trkpt lat="44.78442464925773" lon="9.356520943200211"><ele>623.0</ele><time>2026-03-29T11:11:43.999Z</time></trkpt><trkpt lat="44.78430621426597" lon="9.356446154873373"><ele>623.0</ele><time>2026-03-29T11:11:44.999Z</time></trkpt><trkpt lat="44.78416620903484" lon="9.356426566290766"><ele>621.6666666666666</ele><time>2026-03-29T11:11:45.999Z</time></trkpt><trkpt lat="44.784008424512564" lon="9.35644140293792"><ele>620.3333333333334</ele><time>2026-03-29T11:11:46.999Z</time></trkpt><trkpt lat="44.78384641273658" lon="9.3564656604004"><ele>619.0</ele><time>2026-03-29T11:11:47.999Z</time></trkpt><trkpt lat="44.78369535474297" lon="9.3564867732405"><ele>619.0</ele><time>2026-03-29T11:11:48.999Z</time></trkpt><trkpt lat="44.7835545012078" lon="9.356499341718653"><ele>619.0</ele><time>2026-03-29T11:11:49.999Z</time></trkpt><trkpt lat="44.78341457365891" lon="9.356502804850855"><ele>619.0</ele><time>2026-03-29T11:11:50.999Z</time></trkpt><trkpt lat="44.78328742873219" lon="9.356444415691534"><ele>619.0</ele><time>2026-03-29T11:11:51.999Z</time></trkpt><trkpt lat="44.78316752825103" lon="9.35635525308838"><ele>616.5</ele><time>2026-03-29T11:11:52.999Z</time></trkpt><trkpt lat="44.783054414845076" lon="9.356287975240635"><ele>614.0</ele><time>2026-03-29T11:11:53.999Z</time></trkpt><trkpt lat="44.7829478123652" lon="9.356237833051255"><ele>611.5</ele><time>2026-03-29T11:11:54.999Z</time></trkpt><trkpt lat="44.782833511364274" lon="9.356260101304372"><ele>609.0</ele><time>2026-03-29T11:11:55.999Z</time></trkpt><trkpt lat="44.78273203804823" lon="9.356332856738844"><ele>609.8</ele><time>2026-03-29T11:11:56.998Z</time></trkpt><trkpt lat="44.782665578692786" lon="9.356447607406206"><ele>610.5999999999999</ele><time>2026-03-29T11:11:57.998Z</time></trkpt><trkpt lat="44.782629591229856" lon="9.356563167504785"><ele>611.4</ele><time>2026-03-29T11:11:58.998Z</time></trkpt><trkpt lat="44.78268136951268" lon="9.356716142906967"><ele>612.1999999999999</ele><time>2026-03-29T11:11:59.998Z</time></trkpt><trkpt lat="44.78275052477365" lon="9.35686106238899"><ele>613.0</ele><time>2026-03-29T11:12:01Z</time></trkpt><trkpt lat="44.78283327494782" lon="9.3570207725787"><ele>613.0</ele><time>2026-03-29T11:12:02Z</time></trkpt><trkpt lat="44.78292119472012" lon="9.35719323376367"><ele>613.0</ele><time>2026-03-29T11:12:03Z</time></trkpt><trkpt lat="44.783009719230236" lon="9.357358478635382"><ele>613.0</ele><time>2026-03-29T11:12:04Z</time></trkpt><trkpt lat="44.78308434431852" lon="9.357508772704106"><ele>613.0</ele><time>2026-03-29T11:12:05Z</time></trkpt><trkpt lat="44.783127766242025" lon="9.357651089277672"><ele>611.25</ele><time>2026-03-29T11:12:06Z</time></trkpt><trkpt lat="44.78309894439326" lon="9.3577905838707"><ele>609.5</ele><time>2026-03-29T11:12:07Z</time></trkpt><trkpt lat="44.78305587858091" lon="9.357915889466787"><ele>607.75</ele><time>2026-03-29T11:12:08Z</time></trkpt><trkpt lat="44.78293330245796" lon="9.357990542194612"><ele>606.0</ele><time>2026-03-29T11:12:09Z</time></trkpt><trkpt lat="44.78282954110144" lon="9.358129351587271"><ele>603.75</ele><time>2026-03-29T11:12:10Z</time></trkpt><trkpt lat="44.78270991053762" lon="9.358251591119766"><ele>601.5</ele><time>2026-03-29T11:12:11Z</time></trkpt><trkpt lat="44.78260249274588" lon="9.358371047186187"><ele>599.25</ele><time>2026-03-29T11:12:12Z</time></trkpt><trkpt lat="44.782528677647136" lon="9.358497070288784"><ele>597.0</ele><time>2026-03-29T11:12:13Z</time></trkpt><trkpt lat="44.78249201675493" lon="9.358629609666492"><ele>595.5</ele><time>2026-03-29T11:12:14Z</time></trkpt><trkpt lat="44.78251352118867" lon="9.358766212902989"><ele>594.0</ele><time>2026-03-29T11:12:15Z</time></trkpt><trkpt lat="44.78257249288795" lon="9.358892077816394"><ele>592.5</ele><time>2026-03-29T11:12:16Z</time></trkpt><trkpt lat="44.78267378778772" lon="9.359003621890306"><ele>591.0</ele><time>2026-03-29T11:12:17Z</time></trkpt><trkpt lat="44.78278601767422" lon="9.359120749419592"><ele>591.0</ele><time>2026-03-29T11:12:18Z</time></trkpt><trkpt lat="44.78288451872874" lon="9.359246965979992"><ele>591.0</ele><time>2026-03-29T11:12:19Z</time></trkpt><trkpt lat="44.782961331656445" lon="9.359384266481062"><ele>591.0</ele><time>2026-03-29T11:12:20Z</time></trkpt><trkpt lat="44.78300192298693" lon="9.359537123244603"><ele>591.0</ele><time>2026-03-29T11:12:21Z</time></trkpt><trkpt lat="44.78298315397773" lon="9.359699259827464"><ele>588.75</ele><time>2026-03-29T11:12:22Z</time></trkpt><trkpt lat="44.78293038530372" lon="9.35984896182373"><ele>586.5</ele><time>2026-03-29T11:12:23Z</time></trkpt><trkpt lat="44.782849620603955" lon="9.359986313376915"><ele>584.25</ele><time>2026-03-29T11:12:24Z</time></trkpt><trkpt lat="44.78275458157641" lon="9.360083231936075"><ele>582.0</ele><time>2026-03-29T11:12:25Z</time></trkpt><trkpt lat="44.782645619307324" lon="9.36013797249722"><ele>580.5</ele><time>2026-03-29T11:12:26Z</time></trkpt><trkpt lat="44.782522736100375" lon="9.36007728791979"><ele>579.0</ele><time>2026-03-29T11:12:27Z</time></trkpt><trkpt lat="44.78238639852954" lon="9.36001005300622"><ele>577.5</ele><time>2026-03-29T11:12:28Z</time></trkpt><trkpt lat="44.78223580802504" lon="9.359942518351279"><ele>576.0</ele><time>2026-03-29T11:12:29Z</time></trkpt><trkpt lat="44.782079339094246" lon="9.359852725728066"><ele>576.0</ele><time>2026-03-29T11:12:30Z</time></trkpt><trkpt lat="44.7819163174932" lon="9.359773259932041"><ele>576.0</ele><time>2026-03-29T11:12:31Z</time></trkpt><trkpt lat="44.78175987711448" lon="9.359703519637307"><ele>576.0</ele><time>2026-03-29T11:12:32Z</time></trkpt><trkpt lat="44.78161800639082" lon="9.359643757258471"><ele>575.0</ele><time>2026-03-29T11:12:33Z</time></trkpt><trkpt lat="44.78148489199928" lon="9.359589591022239"><ele>574.0</ele><time>2026-03-29T11:12:34Z</time></trkpt><trkpt lat="44.78136361218011" lon="9.35952124027074"><ele>573.0</ele><time>2026-03-29T11:12:35Z</time></trkpt><trkpt lat="44.781257257971745" lon="9.359396961389267"><ele>572.0</ele><time>2026-03-29T11:12:36Z</time></trkpt><trkpt lat="44.781171964203466" lon="9.359239804816921"><ele>572.0</ele><time>2026-03-29T11:12:37Z</time></trkpt><trkpt lat="44.781099121433265" lon="9.35908689549446"><ele>572.0</ele><time>2026-03-29T11:12:38Z</time></trkpt><trkpt lat="44.78101554621163" lon="9.35896158184794"><ele>572.0</ele><time>2026-03-29T11:12:39Z</time></trkpt><trkpt lat="44.780910890782245" lon="9.358864221141609"><ele>572.0</ele><time>2026-03-29T11:12:40Z</time></trkpt><trkpt lat="44.780780468976324" lon="9.358811576044083"><ele>571.25</ele><time>2026-03-29T11:12:41Z</time></trkpt><trkpt lat="44.78063350181218" lon="9.358784131998485"><ele>570.5</ele><time>2026-03-29T11:12:42Z</time></trkpt><trkpt lat="44.78049080978394" lon="9.358732706443618"><ele>569.75</ele><time>2026-03-29T11:12:43Z</time></trkpt><trkpt lat="44.78035998099117" lon="9.358635096559402"><ele>569.0</ele><time>2026-03-29T11:12:44Z</time></trkpt><trkpt lat="44.78024377775229" lon="9.358520239853211"><ele>566.25</ele><time>2026-03-29T11:12:45Z</time></trkpt><trkpt lat="44.780140682463845" lon="9.358382573691"><ele>563.5</ele><time>2026-03-29T11:12:46Z</time></trkpt><trkpt lat="44.78005809342408" lon="9.358207541537766"><ele>560.75</ele><time>2026-03-29T11:12:47Z</time></trkpt><trkpt lat="44.779997104369315" lon="9.358013916361223"><ele>558.0</ele><time>2026-03-29T11:12:48Z</time></trkpt><trkpt lat="44.779930477514355" lon="9.357840855076333"><ele>558.0</ele><time>2026-03-29T11:12:49Z</time></trkpt><trkpt lat="44.779838556361014" lon="9.357692040477465"><ele>558.0</ele><time>2026-03-29T11:12:50Z</time></trkpt><trkpt lat="44.77973360113776" lon="9.357542406296183"><ele>558.0</ele><time>2026-03-29T11:12:51Z</time></trkpt><trkpt lat="44.77963418551543" lon="9.357399526370587"><ele>558.0</ele><time>2026-03-29T11:12:52Z</time></trkpt><trkpt lat="44.779533274696114" lon="9.357264787239886"><ele>558.25</ele><time>2026-03-29T11:12:53Z</time></trkpt><trkpt lat="44.779414733553935" lon="9.357146233407244"><ele>558.5</ele><time>2026-03-29T11:12:54Z</time></trkpt><trkpt lat="44.779280094514746" lon="9.357055499052919"><ele>558.75</ele><time>2026-03-29T11:12:55Z</time></trkpt><trkpt lat="44.77913457641436" lon="9.356981654441038"><ele>559.0</ele><time>2026-03-29T11:12:56Z</time></trkpt><trkpt lat="44.77898404079235" lon="9.356926066210123"><ele>556.6666666666667</ele><time>2026-03-29T11:12:57Z</time></trkpt><trkpt lat="44.77882885860588" lon="9.356880364767015"><ele>554.3333333333334</ele><time>2026-03-29T11:12:58Z</time></trkpt><trkpt lat="44.77867452508383" lon="9.35683328480205"><ele>552.0</ele><time>2026-03-29T11:12:59Z</time></trkpt><trkpt lat="44.77852074154353" lon="9.35678171106713"><ele>549.75</ele><time>2026-03-29T11:13:00Z</time></trkpt><trkpt lat="44.778374194519536" lon="9.356731196267054"><ele>547.5</ele><time>2026-03-29T11:13:00.999Z</time></trkpt><trkpt lat="44.778232099780645" lon="9.356693885402066"><ele>545.25</ele><time>2026-03-29T11:13:01.999Z</time></trkpt><trkpt lat="44.77808889702325" lon="9.356673792041551"><ele>543.0</ele><time>2026-03-29T11:13:02.999Z</time></trkpt><trkpt lat="44.777950258164545" lon="9.356674198880128"><ele>543.0</ele><time>2026-03-29T11:13:03.999Z</time></trkpt><trkpt lat="44.77782258819647" lon="9.356696625431503"><ele>543.0</ele><time>2026-03-29T11:13:04.999Z</time></trkpt><trkpt lat="44.77770610406639" lon="9.356700845508193"><ele>543.0</ele><time>2026-03-29T11:13:05.999Z</time></trkpt><trkpt lat="44.7775956317631" lon="9.35664884597137"><ele>543.0</ele><time>2026-03-29T11:13:06.999Z</time></trkpt><trkpt lat="44.777493839659215" lon="9.356542040374473"><ele>541.75</ele><time>2026-03-29T11:13:07.999Z</time></trkpt><trkpt lat="44.77740389826679" lon="9.356392579511242"><ele>540.5</ele><time>2026-03-29T11:13:08.999Z</time></trkpt><trkpt lat="44.77731792263696" lon="9.356220937897493"><ele>539.25</ele><time>2026-03-29T11:13:09.999Z</time></trkpt><trkpt lat="44.77722641980175" lon="9.356060037646168"><ele>538.0</ele><time>2026-03-29T11:13:10.999Z</time></trkpt><trkpt lat="44.777143247244425" lon="9.355920271408715"><ele>538.0</ele><time>2026-03-29T11:13:11.999Z</time></trkpt><trkpt lat="44.77705567575378" lon="9.355804012515929"><ele>538.0</ele><time>2026-03-29T11:13:12.999Z</time></trkpt><trkpt lat="44.776949445087354" lon="9.355723845397085"><ele>538.0</ele><time>2026-03-29T11:13:13.999Z</time></trkpt><trkpt lat="44.77681605242193" lon="9.355693082405688"><ele>538.0</ele><time>2026-03-29T11:13:14.999Z</time></trkpt><trkpt lat="44.776662108824844" lon="9.355709484950866"><ele>533.3333333333334</ele><time>2026-03-29T11:13:15.999Z</time></trkpt><trkpt lat="44.77650026110681" lon="9.355739461728785"><ele>528.6666666666666</ele><time>2026-03-29T11:13:16.999Z</time></trkpt><trkpt lat="44.77634547313466" lon="9.355764262714965"><ele>524.0</ele><time>2026-03-29T11:13:17.999Z</time></trkpt><trkpt lat="44.77619106387225" lon="9.355745582087659"><ele>524.0</ele><time>2026-03-29T11:13:18.999Z</time></trkpt><trkpt lat="44.77602820584857" lon="9.355675253816704"><ele>524.0</ele><time>2026-03-29T11:13:19.999Z</time></trkpt><trkpt lat="44.775861005477495" lon="9.355601549769808"><ele>524.0</ele><time>2026-03-29T11:13:20.999Z</time></trkpt><trkpt lat="44.7757028493169" lon="9.355543604236898"><ele>522.0</ele><time>2026-03-29T11:13:21.999Z</time></trkpt><trkpt lat="44.775561138051536" lon="9.355493236839862"><ele>520.0</ele><time>2026-03-29T11:13:22.999Z</time></trkpt><trkpt lat="44.77544244856854" lon="9.355446712238722"><ele>518.0</ele><time>2026-03-29T11:13:23.999Z</time></trkpt><trkpt lat="44.77535671746427" lon="9.35538863673433"><ele>516.0</ele><time>2026-03-29T11:13:24.999Z</time></trkpt><trkpt lat="44.77529983171475" lon="9.355285840154677"><ele>516.0</ele><time>2026-03-29T11:13:25.999Z</time></trkpt><trkpt lat="44.77528558033658" lon="9.355139086684678"><ele>516.0</ele><time>2026-03-29T11:13:26.999Z</time></trkpt><trkpt lat="44.775286945511326" lon="9.35497879972589"><ele>516.0</ele><time>2026-03-29T11:13:27.999Z</time></trkpt><trkpt lat="44.775261885151096" lon="9.354833760411818"><ele>516.0</ele><time>2026-03-29T11:13:28.999Z</time></trkpt><trkpt lat="44.775209644615096" lon="9.354713897649663"><ele>516.0</ele><time>2026-03-29T11:13:29.999Z</time></trkpt><trkpt lat="44.77514140909567" lon="9.354628308134751"><ele>513.2</ele><time>2026-03-29T11:13:30.999Z</time></trkpt><trkpt lat="44.77505669260499" lon="9.354576388119133"><ele>510.40000000000003</ele><time>2026-03-29T11:13:31.999Z</time></trkpt><trkpt lat="44.774965776048134" lon="9.35456656184253"><ele>507.6</ele><time>2026-03-29T11:13:32.999Z</time></trkpt><trkpt lat="44.774881866544085" lon="9.354613123452019"><ele>504.8</ele><time>2026-03-29T11:13:33.999Z</time></trkpt><trkpt lat="44.774808210256516" lon="9.35470324943677"><ele>502.0</ele><time>2026-03-29T11:13:34.999Z</time></trkpt><trkpt lat="44.77475166255961" lon="9.3548255742811"><ele>502.0</ele><time>2026-03-29T11:13:35.999Z</time></trkpt><trkpt lat="44.77471991217178" lon="9.354968294220344"><ele>502.0</ele><time>2026-03-29T11:13:36.999Z</time></trkpt><trkpt lat="44.77472607789617" lon="9.355118379001569"><ele>502.0</ele><time>2026-03-29T11:13:37.999Z</time></trkpt><trkpt lat="44.77474987306721" lon="9.355343484527074"><ele>502.0</ele><time>2026-03-29T11:13:38.999Z</time></trkpt><trkpt lat="44.77481653457725" lon="9.355558381816703"><ele>501.0</ele><time>2026-03-29T11:13:39.999Z</time></trkpt><trkpt lat="44.77488451617079" lon="9.355793268100316"><ele>500.0</ele><time>2026-03-29T11:13:40.999Z</time></trkpt><trkpt lat="44.77494820262577" lon="9.356068396014022"><ele>499.0</ele><time>2026-03-29T11:13:41.999Z</time></trkpt><trkpt lat="44.77501515567302" lon="9.356348578953043"><ele>497.6666666666667</ele><time>2026-03-29T11:13:42.999Z</time></trkpt><trkpt lat="44.775080021748096" lon="9.356603644688928"><ele>496.33333333333337</ele><time>2026-03-29T11:13:43.999Z</time></trkpt><trkpt lat="44.775143743756175" lon="9.356850163494661"><ele>495.0</ele><time>2026-03-29T11:13:44.999Z</time></trkpt><trkpt lat="44.77520064847256" lon="9.357074702875954"><ele>496.25</ele><time>2026-03-29T11:13:45.999Z</time></trkpt><trkpt lat="44.77523456125839" lon="9.357295066352824"><ele>497.5</ele><time>2026-03-29T11:13:46.999Z</time></trkpt><trkpt lat="44.77526060771664" lon="9.35749613860248"><ele>498.75</ele><time>2026-03-29T11:13:47.999Z</time></trkpt><trkpt lat="44.77526242608213" lon="9.357687081719316"><ele>500.0</ele><time>2026-03-29T11:13:48.999Z</time></trkpt><trkpt lat="44.77525459133049" lon="9.357871714590102"><ele>498.6</ele><time>2026-03-29T11:13:49.999Z</time></trkpt><trkpt lat="44.77526151935322" lon="9.358048533233946"><ele>497.2</ele><time>2026-03-29T11:13:50.999Z</time></trkpt><trkpt lat="44.77525016513315" lon="9.358201458862444"><ele>495.79999999999995</ele><time>2026-03-29T11:13:51.999Z</time></trkpt><trkpt lat="44.77526587567894" lon="9.35833421549051"><ele>494.4</ele><time>2026-03-29T11:13:52.999Z</time></trkpt><trkpt lat="44.77531445201962" lon="9.358443768035253"><ele>493.0</ele><time>2026-03-29T11:13:53.999Z</time></trkpt><trkpt lat="44.77540948287947" lon="9.358529230825628"><ele>493.0</ele><time>2026-03-29T11:13:54.999Z</time></trkpt><trkpt lat="44.775543418933275" lon="9.358576142376743"><ele>493.0</ele><time>2026-03-29T11:13:55.999Z</time></trkpt><trkpt lat="44.77567851522487" lon="9.358638534989007"><ele>493.0</ele><time>2026-03-29T11:13:56.999Z</time></trkpt><trkpt lat="44.7757579560225" lon="9.358778564520048"><ele>493.0</ele><time>2026-03-29T11:13:57.999Z</time></trkpt><trkpt lat="44.775863317293236" lon="9.358922961815713"><ele>493.0</ele><time>2026-03-29T11:13:58.999Z</time></trkpt><trkpt lat="44.775963543552436" lon="9.359107802135792"><ele>493.0</ele><time>2026-03-29T11:13:59.999Z</time></trkpt><trkpt lat="44.776065489115425" lon="9.3592957389052"><ele>493.0</ele><time>2026-03-29T11:14:00.999Z</time></trkpt><trkpt lat="44.77616814100764" lon="9.359496968492351"><ele>493.0</ele><time>2026-03-29T11:14:01.999Z</time></trkpt><trkpt lat="44.77627340708716" lon="9.359692742410294"><ele>493.0</ele><time>2026-03-29T11:14:02.998Z</time></trkpt><trkpt lat="44.77638915640833" lon="9.359877548863249"><ele>493.0</ele><time>2026-03-29T11:14:03.998Z</time></trkpt><trkpt lat="44.776519110731286" lon="9.360018165355655"><ele>491.75</ele><time>2026-03-29T11:14:04.998Z</time></trkpt><trkpt lat="44.776660030695574" lon="9.360115906726886"><ele>490.5</ele><time>2026-03-29T11:14:05.998Z</time></trkpt><trkpt lat="44.77679663582748" lon="9.360181434507629"><ele>489.25</ele><time>2026-03-29T11:14:07Z</time></trkpt><trkpt lat="44.776898081416654" lon="9.360255862080955"><ele>488.0</ele><time>2026-03-29T11:14:08Z</time></trkpt><trkpt lat="44.776963678912566" lon="9.36034431348457"><ele>487.2</ele><time>2026-03-29T11:14:09Z</time></trkpt><trkpt lat="44.777001642344345" lon="9.36044917095265"><ele>486.4</ele><time>2026-03-29T11:14:10Z</time></trkpt><trkpt lat="44.77700599685096" lon="9.360573013344013"><ele>485.59999999999997</ele><time>2026-03-29T11:14:11Z</time></trkpt><trkpt lat="44.77696910051632" lon="9.360723061042142"><ele>484.79999999999995</ele><time>2026-03-29T11:14:12Z</time></trkpt><trkpt lat="44.77690078158972" lon="9.360876979893781"><ele>484.0</ele><time>2026-03-29T11:14:13Z</time></trkpt><trkpt lat="44.77679387566307" lon="9.361007355134022"><ele>484.0</ele><time>2026-03-29T11:14:14Z</time></trkpt><trkpt lat="44.77670214170276" lon="9.361163098267024"><ele>484.0</ele><time>2026-03-29T11:14:15Z</time></trkpt><trkpt lat="44.77661001303194" lon="9.361293974416101"><ele>484.0</ele><time>2026-03-29T11:14:16Z</time></trkpt><trkpt lat="44.77654617014129" lon="9.36141976052886"><ele>484.0</ele><time>2026-03-29T11:14:17Z</time></trkpt><trkpt lat="44.7765205050612" lon="9.361559779833385"><ele>482.5</ele><time>2026-03-29T11:14:18Z</time></trkpt><trkpt lat="44.77653552890692" lon="9.361714657140201"><ele>481.0</ele><time>2026-03-29T11:14:19Z</time></trkpt><trkpt lat="44.7765906944609" lon="9.361870839362505"><ele>479.5</ele><time>2026-03-29T11:14:20Z</time></trkpt><trkpt lat="44.77668215851023" lon="9.36200075774373"><ele>478.0</ele><time>2026-03-29T11:14:21Z</time></trkpt><trkpt lat="44.77680362060277" lon="9.362099797253876"><ele>480.5</ele><time>2026-03-29T11:14:22Z</time></trkpt><trkpt lat="44.77691829445097" lon="9.362186858383778"><ele>483.0</ele><time>2026-03-29T11:14:23Z</time></trkpt><trkpt lat="44.77699518911541" lon="9.362294873799021"><ele>485.5</ele><time>2026-03-29T11:14:24Z</time></trkpt><trkpt lat="44.77703206662343" lon="9.36243488167562"><ele>488.0</ele><time>2026-03-29T11:14:25Z</time></trkpt><trkpt lat="44.776975405683174" lon="9.36259254288698"><ele>488.0</ele><time>2026-03-29T11:14:26Z</time></trkpt><trkpt lat="44.77694109687338" lon="9.362777145510158"><ele>488.0</ele><time>2026-03-29T11:14:27Z</time></trkpt><trkpt lat="44.77692080730633" lon="9.3629864436569"><ele>488.0</ele><time>2026-03-29T11:14:28Z</time></trkpt><trkpt lat="44.77688359246481" lon="9.36321132541283"><ele>488.0</ele><time>2026-03-29T11:14:29Z</time></trkpt><trkpt lat="44.77684675322673" lon="9.363445916872891"><ele>481.3333333333333</ele><time>2026-03-29T11:14:30Z</time></trkpt><trkpt lat="44.77681226661988" lon="9.363671485523673"><ele>474.66666666666663</ele><time>2026-03-29T11:14:31Z</time></trkpt><trkpt lat="44.77676808144011" lon="9.363902296029652"><ele>468.0</ele><time>2026-03-29T11:14:32Z</time></trkpt><trkpt lat="44.776682156128665" lon="9.364119439619012"><ele>468.0</ele><time>2026-03-29T11:14:33Z</time></trkpt><trkpt lat="44.776576318720565" lon="9.364324990566844"><ele>468.0</ele><time>2026-03-29T11:14:34Z</time></trkpt><trkpt lat="44.776464632387636" lon="9.36453430588905"><ele>468.0</ele><time>2026-03-29T11:14:35Z</time></trkpt><trkpt lat="44.77636323279171" lon="9.364745762747667"><ele>468.66666666666663</ele><time>2026-03-29T11:14:36Z</time></trkpt><trkpt lat="44.77625986271878" lon="9.364933866947458"><ele>469.3333333333333</ele><time>2026-03-29T11:14:37Z</time></trkpt><trkpt lat="44.776164260111905" lon="9.365118403855687"><ele>470.0</ele><time>2026-03-29T11:14:38Z</time></trkpt><trkpt lat="44.77607816676275" lon="9.36529066546895"><ele>467.0</ele><time>2026-03-29T11:14:39Z</time></trkpt><trkpt lat="44.77598601992959" lon="9.365425079579774"><ele>464.0</ele><time>2026-03-29T11:14:40Z</time></trkpt><trkpt lat="44.77591831184757" lon="9.36552834909318"><ele>461.0</ele><time>2026-03-29T11:14:41Z</time></trkpt><trkpt lat="44.77584337409815" lon="9.36559852895211"><ele>458.0</ele><time>2026-03-29T11:14:42Z</time></trkpt><trkpt lat="44.77575783162069" lon="9.365628129154302"><ele>455.0</ele><time>2026-03-29T11:14:43Z</time></trkpt><trkpt lat="44.775661281606034" lon="9.365564366191668"><ele>455.0</ele><time>2026-03-29T11:14:44Z</time></trkpt><trkpt lat="44.775590760673225" lon="9.365449494901094"><ele>455.0</ele><time>2026-03-29T11:14:45Z</time></trkpt><trkpt lat="44.77558798444571" lon="9.365259643450175"><ele>455.0</ele><time>2026-03-29T11:14:46Z</time></trkpt><trkpt lat="44.77554870770608" lon="9.365090690830465"><ele>455.0</ele><time>2026-03-29T11:14:47Z</time></trkpt><trkpt lat="44.77549367784827" lon="9.364960503863092"><ele>455.0</ele><time>2026-03-29T11:14:48Z</time></trkpt><trkpt lat="44.775373344568834" lon="9.364864146401217"><ele>455.0</ele><time>2026-03-29T11:14:49Z</time></trkpt><trkpt lat="44.77523392701951" lon="9.364804847308367"><ele>455.0</ele><time>2026-03-29T11:14:50Z</time></trkpt><trkpt lat="44.77510871602869" lon="9.364739192025407"><ele>455.0</ele><time>2026-03-29T11:14:51Z</time></trkpt><trkpt lat="44.7750313130906" lon="9.364587422788917"><ele>452.75</ele><time>2026-03-29T11:14:52Z</time></trkpt><trkpt lat="44.77496460554028" lon="9.364403916095165"><ele>450.5</ele><time>2026-03-29T11:14:53Z</time></trkpt><trkpt lat="44.774886274517584" lon="9.364223844371013"><ele>448.25</ele><time>2026-03-29T11:14:54Z</time></trkpt><trkpt lat="44.774830528019784" lon="9.364048270793115"><ele>446.0</ele><time>2026-03-29T11:14:55Z</time></trkpt><trkpt lat="44.774769811409854" lon="9.363897412089806"><ele>446.75</ele><time>2026-03-29T11:14:56Z</time></trkpt><trkpt lat="44.774678835762415" lon="9.36377184638628"><ele>447.5</ele><time>2026-03-29T11:14:57Z</time></trkpt><trkpt lat="44.7745473993609" lon="9.36368256577682"><ele>448.25</ele><time>2026-03-29T11:14:58Z</time></trkpt><trkpt lat="44.77438893110621" lon="9.363617411293019"><ele>449.0</ele><time>2026-03-29T11:14:59Z</time></trkpt><trkpt lat="44.774240781348375" lon="9.363547473161079"><ele>446.5</ele><time>2026-03-29T11:15:00Z</time></trkpt><trkpt lat="44.77410930772034" lon="9.363474005729888"><ele>444.0</ele><time>2026-03-29T11:15:01Z</time></trkpt><trkpt lat="44.773987396923765" lon="9.363407030889006"><ele>441.5</ele><time>2026-03-29T11:15:02Z</time></trkpt><trkpt lat="44.773868304733895" lon="9.363361826684729"><ele>439.0</ele><time>2026-03-29T11:15:03Z</time></trkpt><trkpt lat="44.77374651082337" lon="9.36335675820319"><ele>439.0</ele><time>2026-03-29T11:15:04Z</time></trkpt><trkpt lat="44.773615161397444" lon="9.363398006234876"><ele>439.0</ele><time>2026-03-29T11:15:04.999Z</time></trkpt><trkpt lat="44.773477668447235" lon="9.363486121593782"><ele>439.0</ele><time>2026-03-29T11:15:05.999Z</time></trkpt><trkpt lat="44.77334484150696" lon="9.363577217594136"><ele>439.0</ele><time>2026-03-29T11:15:06.999Z</time></trkpt><trkpt lat="44.77322517103054" lon="9.363649736532913"><ele>436.6</ele><time>2026-03-29T11:15:07.999Z</time></trkpt><trkpt lat="44.773117650581106" lon="9.36370966629179"><ele>434.2</ele><time>2026-03-29T11:15:08.999Z</time></trkpt><trkpt lat="44.77303321236134" lon="9.363778085350967"><ele>431.80000000000007</ele><time>2026-03-29T11:15:09.999Z</time></trkpt><trkpt lat="44.772977277489446" lon="9.36387705665381"><ele>429.40000000000003</ele><time>2026-03-29T11:15:10.999Z</time></trkpt><trkpt lat="44.772953859915745" lon="9.36400953278645"><ele>427.0</ele><time>2026-03-29T11:15:11.999Z</time></trkpt><trkpt lat="44.772973860678064" lon="9.364167013295374"><ele>427.0</ele><time>2026-03-29T11:15:12.999Z</time></trkpt><trkpt lat="44.773027827573415" lon="9.364341538486999"><ele>427.0</ele><time>2026-03-29T11:15:13.999Z</time></trkpt><trkpt lat="44.7730813608629" lon="9.3645226077304"><ele>427.0</ele><time>2026-03-29T11:15:14.999Z</time></trkpt><trkpt lat="44.77310874198064" lon="9.364707427740619"><ele>427.0</ele><time>2026-03-29T11:15:15.999Z</time></trkpt><trkpt lat="44.77313848437842" lon="9.364867850755958"><ele>426.6</ele><time>2026-03-29T11:15:16.999Z</time></trkpt><trkpt lat="44.77313865352771" lon="9.36500810660068"><ele>426.20000000000005</ele><time>2026-03-29T11:15:17.999Z</time></trkpt><trkpt lat="44.77309915669935" lon="9.365134067176701"><ele>425.8</ele><time>2026-03-29T11:15:18.999Z</time></trkpt><trkpt lat="44.77302678626219" lon="9.365252090922779"><ele>425.4</ele><time>2026-03-29T11:15:19.999Z</time></trkpt><trkpt lat="44.77296043883994" lon="9.365414475199493"><ele>425.0</ele><time>2026-03-29T11:15:20.999Z</time></trkpt><trkpt lat="44.77286899135203" lon="9.36556767847729"><ele>424.0</ele><time>2026-03-29T11:15:21.999Z</time></trkpt><trkpt lat="44.77278919347814" lon="9.365732420769138"><ele>423.0</ele><time>2026-03-29T11:15:22.999Z</time></trkpt><trkpt lat="44.7727197055156" lon="9.365884615377748"><ele>422.0</ele><time>2026-03-29T11:15:23.999Z</time></trkpt><trkpt lat="44.7726653937357" lon="9.366039382001825"><ele>421.0</ele><time>2026-03-29T11:15:24.999Z</time></trkpt><trkpt lat="44.772636711252936" lon="9.366220160455276"><ele>417.75</ele><time>2026-03-29T11:15:25.999Z</time></trkpt><trkpt lat="44.772630823447884" lon="9.366415397881275"><ele>414.5</ele><time>2026-03-29T11:15:26.999Z</time></trkpt><trkpt lat="44.77263464772402" lon="9.366599025058083"><ele>411.25</ele><time>2026-03-29T11:15:27.999Z</time></trkpt><trkpt lat="44.77263613738478" lon="9.366757492286578"><ele>408.0</ele><time>2026-03-29T11:15:28.999Z</time></trkpt><trkpt lat="44.77265444367849" lon="9.366884435702573"><ele>409.75</ele><time>2026-03-29T11:15:29.999Z</time></trkpt><trkpt lat="44.772714712610934" lon="9.366977884798017"><ele>411.5</ele><time>2026-03-29T11:15:30.999Z</time></trkpt><trkpt lat="44.77281188995095" lon="9.367044732415689"><ele>413.25</ele><time>2026-03-29T11:15:31.999Z</time></trkpt><trkpt lat="44.77292988241947" lon="9.367101817539849"><ele>415.0</ele><time>2026-03-29T11:15:32.999Z</time></trkpt><trkpt lat="44.773046366316876" lon="9.367181463707121"><ele>414.0</ele><time>2026-03-29T11:15:33.999Z</time></trkpt><trkpt lat="44.773140070236984" lon="9.367296050249461"><ele>413.0</ele><time>2026-03-29T11:15:34.999Z</time></trkpt><trkpt lat="44.77317317984676" lon="9.367462645663688"><ele>412.0</ele><time>2026-03-29T11:15:35.999Z</time></trkpt><trkpt lat="44.77319963963277" lon="9.367634395548722"><ele>411.0</ele><time>2026-03-29T11:15:36.999Z</time></trkpt><trkpt lat="44.77322245715919" lon="9.367811045780362"><ele>411.0</ele><time>2026-03-29T11:15:37.999Z</time></trkpt><trkpt lat="44.77321533275672" lon="9.367964892362691"><ele>411.0</ele><time>2026-03-29T11:15:38.999Z</time></trkpt><trkpt lat="44.773152375539745" lon="9.368087848402505"><ele>411.0</ele><time>2026-03-29T11:15:39.999Z</time></trkpt><trkpt lat="44.77306525124528" lon="9.368217921511167"><ele>411.0</ele><time>2026-03-29T11:15:40.999Z</time></trkpt><trkpt lat="44.77297926956942" lon="9.368382072076802"><ele>412.5</ele><time>2026-03-29T11:15:41.999Z</time></trkpt><trkpt lat="44.77287918574116" lon="9.368543301644886"><ele>414.0</ele><time>2026-03-29T11:15:42.999Z</time></trkpt><trkpt lat="44.77278480269736" lon="9.368697967911535"><ele>415.5</ele><time>2026-03-29T11:15:43.999Z</time></trkpt><trkpt lat="44.772699327523505" lon="9.368838989602656"><ele>417.0</ele><time>2026-03-29T11:15:44.999Z</time></trkpt><trkpt lat="44.77263204627369" lon="9.368989880620534"><ele>411.25</ele><time>2026-03-29T11:15:45.999Z</time></trkpt><trkpt lat="44.772587467651455" lon="9.369172746429793"><ele>405.5</ele><time>2026-03-29T11:15:46.999Z</time></trkpt><trkpt lat="44.77257398946883" lon="9.369381754156178"><ele>399.75</ele><time>2026-03-29T11:15:47.999Z</time></trkpt><trkpt lat="44.772571120182555" lon="9.369601133323307"><ele>394.0</ele><time>2026-03-29T11:15:48.999Z</time></trkpt><trkpt lat="44.7725636539103" lon="9.369816680148178"><ele>393.0</ele><time>2026-03-29T11:15:49.999Z</time></trkpt><trkpt lat="44.77255253791481" lon="9.370020410767752"><ele>392.0</ele><time>2026-03-29T11:15:50.999Z</time></trkpt><trkpt lat="44.77254453499195" lon="9.37020766642761"><ele>391.0</ele><time>2026-03-29T11:15:51.999Z</time></trkpt><trkpt lat="44.77255238926203" lon="9.370384352298244"><ele>390.0</ele><time>2026-03-29T11:15:52.999Z</time></trkpt><trkpt lat="44.77258429978962" lon="9.370548201009838"><ele>387.0</ele><time>2026-03-29T11:15:53.999Z</time></trkpt><trkpt lat="44.772647962205305" lon="9.370701320491671"><ele>384.0</ele><time>2026-03-29T11:15:54.999Z</time></trkpt><trkpt lat="44.77274023709682" lon="9.370842867765285"><ele>381.0</ele><time>2026-03-29T11:15:55.999Z</time></trkpt><trkpt lat="44.772833166986985" lon="9.370964421724546"><ele>378.0</ele><time>2026-03-29T11:15:56.999Z</time></trkpt><trkpt lat="44.77286632712787" lon="9.371117932075446"><ele>382.25</ele><time>2026-03-29T11:15:57.999Z</time></trkpt><trkpt lat="44.77286815342576" lon="9.371285244549968"><ele>386.5</ele><time>2026-03-29T11:15:58.999Z</time></trkpt><trkpt lat="44.77285198883813" lon="9.371479464631326"><ele>390.75</ele><time>2026-03-29T11:15:59.999Z</time></trkpt><trkpt lat="44.772861492987204" lon="9.371673081500223"><ele>395.0</ele><time>2026-03-29T11:16:00.999Z</time></trkpt><trkpt lat="44.772884145353125" lon="9.371856491538876"><ele>395.0</ele><time>2026-03-29T11:16:01.999Z</time></trkpt><trkpt lat="44.77291472426081" lon="9.372042207166869"><ele>395.0</ele><time>2026-03-29T11:16:02.999Z</time></trkpt><trkpt lat="44.77290632644733" lon="9.372245235549995"><ele>395.0</ele><time>2026-03-29T11:16:03.999Z</time></trkpt><trkpt lat="44.772828935548866" lon="9.372444437305976"><ele>395.0</ele><time>2026-03-29T11:16:04.998Z</time></trkpt><trkpt lat="44.77276507765578" lon="9.372666183283277"><ele>386.66666666666663</ele><time>2026-03-29T11:16:05.998Z</time></trkpt><trkpt lat="44.772677484167154" lon="9.372876289526893"><ele>378.3333333333333</ele><time>2026-03-29T11:16:06.998Z</time></trkpt><trkpt lat="44.772606680146744" lon="9.373087855893871"><ele>370.0</ele><time>2026-03-29T11:16:07.998Z</time></trkpt><trkpt lat="44.77254464000824" lon="9.373289048044462"><ele>370.0</ele><time>2026-03-29T11:16:08.998Z</time></trkpt><trkpt lat="44.77248139920068" lon="9.373476965761634"><ele>370.0</ele><time>2026-03-29T11:16:09.998Z</time></trkpt><trkpt lat="44.772414026964796" lon="9.373657337718454"><ele>370.0</ele><time>2026-03-29T11:16:10.998Z</time></trkpt><trkpt lat="44.77232187482427" lon="9.373801751300402"><ele>370.0</ele><time>2026-03-29T11:16:11.998Z</time></trkpt><trkpt lat="44.772216462715164" lon="9.373901440312244"><ele>370.75</ele><time>2026-03-29T11:16:13Z</time></trkpt><trkpt lat="44.77209505318903" lon="9.37394799063816"><ele>371.5</ele><time>2026-03-29T11:16:14Z</time></trkpt><trkpt lat="44.77195150936435" lon="9.373956625187722"><ele>372.25</ele><time>2026-03-29T11:16:15Z</time></trkpt><trkpt lat="44.77181300534834" lon="9.373969917869294"><ele>373.0</ele><time>2026-03-29T11:16:16Z</time></trkpt><trkpt lat="44.771683130968306" lon="9.373988862204989"><ele>370.4</ele><time>2026-03-29T11:16:17Z</time></trkpt><trkpt lat="44.771564209551094" lon="9.3740128875075"><ele>367.79999999999995</ele><time>2026-03-29T11:16:18Z</time></trkpt><trkpt lat="44.7714667510102" lon="9.374060361198826"><ele>365.2</ele><time>2026-03-29T11:16:19Z</time></trkpt><trkpt lat="44.771396300035875" lon="9.374136255123263"><ele>362.6</ele><time>2026-03-29T11:16:20Z</time></trkpt><trkpt lat="44.771349721259355" lon="9.37424827895083"><ele>360.0</ele><time>2026-03-29T11:16:21Z</time></trkpt><trkpt lat="44.77132456695222" lon="9.374394426395147"><ele>360.0</ele><time>2026-03-29T11:16:22Z</time></trkpt><trkpt lat="44.77130571992252" lon="9.374565818227437"><ele>360.0</ele><time>2026-03-29T11:16:23Z</time></trkpt><trkpt lat="44.77128217689807" lon="9.374734927449435"><ele>360.0</ele><time>2026-03-29T11:16:24Z</time></trkpt><trkpt lat="44.77125313774558" lon="9.374888510487565"><ele>360.0</ele><time>2026-03-29T11:16:25Z</time></trkpt><trkpt lat="44.771196912129874" lon="9.37501203829197"><ele>360.25</ele><time>2026-03-29T11:16:26Z</time></trkpt><trkpt lat="44.77111307767596" lon="9.375086936979033"><ele>360.5</ele><time>2026-03-29T11:16:27Z</time></trkpt><trkpt lat="44.77100438470138" lon="9.375085347501553"><ele>360.75</ele><time>2026-03-29T11:16:28Z</time></trkpt><trkpt lat="44.770875714125985" lon="9.375095172179181"><ele>361.0</ele><time>2026-03-29T11:16:29Z</time></trkpt><trkpt lat="44.77073580016132" lon="9.375075932011718"><ele>359.0</ele><time>2026-03-29T11:16:30Z</time></trkpt><trkpt lat="44.77059768964656" lon="9.375055387424466"><ele>357.0</ele><time>2026-03-29T11:16:31Z</time></trkpt><trkpt lat="44.77047240774214" lon="9.375037712667272"><ele>355.0</ele><time>2026-03-29T11:16:32Z</time></trkpt><trkpt lat="44.77036093625805" lon="9.375028988397217"><ele>353.0</ele><time>2026-03-29T11:16:33Z</time></trkpt><trkpt lat="44.770265556016106" lon="9.375046899836043"><ele>352.0</ele><time>2026-03-29T11:16:34Z</time></trkpt><trkpt lat="44.77018055685665" lon="9.375098603922803"><ele>351.0</ele><time>2026-03-29T11:16:35Z</time></trkpt><trkpt lat="44.77011000770903" lon="9.37519334939587"><ele>350.0</ele><time>2026-03-29T11:16:36Z</time></trkpt><trkpt lat="44.770082712626014" lon="9.375365916054006"><ele>349.0</ele><time>2026-03-29T11:16:37Z</time></trkpt><trkpt lat="44.77003912323098" lon="9.375538675240755"><ele>348.0</ele><time>2026-03-29T11:16:38Z</time></trkpt><trkpt lat="44.769947587579324" lon="9.375691025133131"><ele>347.75</ele><time>2026-03-29T11:16:39Z</time></trkpt><trkpt lat="44.76982987877377" lon="9.375818298346827"><ele>347.5</ele><time>2026-03-29T11:16:40Z</time></trkpt><trkpt lat="44.7697226075231" lon="9.375936812471398"><ele>347.25</ele><time>2026-03-29T11:16:41Z</time></trkpt><trkpt lat="44.76963837367555" lon="9.376067586489599"><ele>347.0</ele><time>2026-03-29T11:16:42Z</time></trkpt><trkpt lat="44.76957955782793" lon="9.376232868532382"><ele>347.25</ele><time>2026-03-29T11:16:43Z</time></trkpt><trkpt lat="44.76954297219662" lon="9.37642067184068"><ele>347.5</ele><time>2026-03-29T11:16:44Z</time></trkpt><trkpt lat="44.76951624411925" lon="9.3765982397411"><ele>347.75</ele><time>2026-03-29T11:16:45Z</time></trkpt><trkpt lat="44.76948074154103" lon="9.376763347438425"><ele>348.0</ele><time>2026-03-29T11:16:46Z</time></trkpt><trkpt lat="44.76939951309736" lon="9.376898353204856"><ele>344.6666666666667</ele><time>2026-03-29T11:16:47Z</time></trkpt><trkpt lat="44.76928027661521" lon="9.377021239049416"><ele>341.33333333333337</ele><time>2026-03-29T11:16:48Z</time></trkpt><trkpt lat="44.76913699490138" lon="9.377143821262544"><ele>338.0</ele><time>2026-03-29T11:16:49Z</time></trkpt><trkpt lat="44.76899840157418" lon="9.377266551443665"><ele>338.0</ele><time>2026-03-29T11:16:50Z</time></trkpt><trkpt lat="44.76893015066747" lon="9.377386718181462"><ele>338.0</ele><time>2026-03-29T11:16:51Z</time></trkpt><trkpt lat="44.76882774802353" lon="9.377499054072237"><ele>338.0</ele><time>2026-03-29T11:16:52Z</time></trkpt><trkpt lat="44.76874901504132" lon="9.37761203157128"><ele>338.0</ele><time>2026-03-29T11:16:53Z</time></trkpt><trkpt lat="44.768685455533884" lon="9.377726549695273"><ele>338.0</ele><time>2026-03-29T11:16:54Z</time></trkpt><trkpt lat="44.76865019647083" lon="9.377878004643291"><ele>338.0</ele><time>2026-03-29T11:16:55Z</time></trkpt><trkpt lat="44.76862905445031" lon="9.37804310252567"><ele>338.0</ele><time>2026-03-29T11:16:56Z</time></trkpt><trkpt lat="44.768607470995605" lon="9.378182793671277"><ele>338.0</ele><time>2026-03-29T11:16:57Z</time></trkpt><trkpt lat="44.76857396785735" lon="9.378323495333102"><ele>338.0</ele><time>2026-03-29T11:16:58Z</time></trkpt><trkpt lat="44.768505515186746" lon="9.378441645313297"><ele>334.79999999999995</ele><time>2026-03-29T11:16:59Z</time></trkpt><trkpt lat="44.76843574718851" lon="9.37855645013441"><ele>331.6</ele><time>2026-03-29T11:17:00Z</time></trkpt><trkpt lat="44.76836515901846" lon="9.378673001338552"><ele>328.4</ele><time>2026-03-29T11:17:01Z</time></trkpt><trkpt lat="44.76830614267261" lon="9.378784778776597"><ele>325.20000000000005</ele><time>2026-03-29T11:17:02Z</time></trkpt><trkpt lat="44.76827206509709" lon="9.378906629182769"><ele>322.0</ele><time>2026-03-29T11:17:03Z</time></trkpt><trkpt lat="44.768243416394306" lon="9.379036137824347"><ele>321.8</ele><time>2026-03-29T11:17:04Z</time></trkpt><trkpt lat="44.768231662478776" lon="9.379173011514395"><ele>321.6</ele><time>2026-03-29T11:17:05Z</time></trkpt><trkpt lat="44.768256348164265" lon="9.379312718025892"><ele>321.40000000000003</ele><time>2026-03-29T11:17:06Z</time></trkpt><trkpt lat="44.76830201543905" lon="9.379444642068757"><ele>321.20000000000005</ele><time>2026-03-29T11:17:07Z</time></trkpt><trkpt lat="44.76835145964334" lon="9.379580018916856"><ele>321.0</ele><time>2026-03-29T11:17:08Z</time></trkpt><trkpt lat="44.768394091873816" lon="9.379707768259198"><ele>320.2</ele><time>2026-03-29T11:17:09Z</time></trkpt><trkpt lat="44.76843412438892" lon="9.379828423751597"><ele>319.40000000000003</ele><time>2026-03-29T11:17:09.999Z</time></trkpt><trkpt lat="44.76847646246351" lon="9.379946856746551"><ele>318.6</ele><time>2026-03-29T11:17:10.999Z</time></trkpt><trkpt lat="44.7684876266806" lon="9.380079067284663"><ele>317.8</ele><time>2026-03-29T11:17:11.999Z</time></trkpt><trkpt lat="44.768496543516996" lon="9.380221516686673"><ele>317.0</ele><time>2026-03-29T11:17:12.999Z</time></trkpt><trkpt lat="44.768506150903434" lon="9.380380659088527"><ele>318.25</ele><time>2026-03-29T11:17:13.999Z</time></trkpt><trkpt lat="44.768529010257986" lon="9.380543082180354"><ele>319.5</ele><time>2026-03-29T11:17:14.999Z</time></trkpt><trkpt lat="44.76853544100442" lon="9.380710545461266"><ele>320.75</ele><time>2026-03-29T11:17:15.999Z</time></trkpt><trkpt lat="44.768543969665984" lon="9.38087918305738"><ele>322.0</ele><time>2026-03-29T11:17:16.999Z</time></trkpt><trkpt lat="44.76854766493352" lon="9.381044096936716"><ele>322.0</ele><time>2026-03-29T11:17:17.999Z</time></trkpt><trkpt lat="44.76855283712893" lon="9.381210830338464"><ele>322.0</ele><time>2026-03-29T11:17:18.999Z</time></trkpt><trkpt lat="44.76856485653338" lon="9.381374928334687"><ele>322.0</ele><time>2026-03-29T11:17:19.999Z</time></trkpt><trkpt lat="44.7685727079416" lon="9.381538559537498"><ele>322.0</ele><time>2026-03-29T11:17:20.999Z</time></trkpt><trkpt lat="44.76858286718683" lon="9.381692209423383"><ele>319.75</ele><time>2026-03-29T11:17:21.999Z</time></trkpt><trkpt lat="44.76860313812587" lon="9.381845236292158"><ele>317.5</ele><time>2026-03-29T11:17:22.999Z</time></trkpt><trkpt lat="44.768641818067664" lon="9.38199723233832"><ele>315.25</ele><time>2026-03-29T11:17:23.999Z</time></trkpt><trkpt lat="44.76870615018352" lon="9.382146161231194"><ele>313.0</ele><time>2026-03-29T11:17:24.999Z</time></trkpt><trkpt lat="44.768772505912324" lon="9.382294590066321"><ele>311.75</ele><time>2026-03-29T11:17:25.999Z</time></trkpt><trkpt lat="44.76884340824049" lon="9.382441184157013"><ele>310.5</ele><time>2026-03-29T11:17:26.999Z</time></trkpt><trkpt lat="44.768918763741944" lon="9.382590138879527"><ele>309.25</ele><time>2026-03-29T11:17:27.999Z</time></trkpt><trkpt lat="44.76898848214625" lon="9.382737199976535"><ele>308.0</ele><time>2026-03-29T11:17:28.999Z</time></trkpt><trkpt lat="44.76906450361486" lon="9.382895669226041"><ele>306.75</ele><time>2026-03-29T11:17:29.999Z</time></trkpt><trkpt lat="44.76914098978815" lon="9.383051891284612"><ele>305.5</ele><time>2026-03-29T11:17:30.999Z</time></trkpt><trkpt lat="44.76921904728765" lon="9.383203959971832"><ele>304.25</ele><time>2026-03-29T11:17:31.999Z</time></trkpt><trkpt lat="44.76928935012038" lon="9.383349540874628"><ele>303.0</ele><time>2026-03-29T11:17:32.999Z</time></trkpt><trkpt lat="44.769358569162435" lon="9.38349132207211"><ele>302.0</ele><time>2026-03-29T11:17:33.999Z</time></trkpt><trkpt lat="44.769423380650785" lon="9.383630097217472"><ele>301.0</ele><time>2026-03-29T11:17:34.999Z</time></trkpt><trkpt lat="44.76948960832804" lon="9.383766225938702"><ele>300.0</ele><time>2026-03-29T11:17:35.999Z</time></trkpt><trkpt lat="44.76955885633679" lon="9.38390041566022"><ele>299.0</ele><time>2026-03-29T11:17:36.999Z</time></trkpt><trkpt lat="44.76962016952527" lon="9.384040449010604"><ele>299.0</ele><time>2026-03-29T11:17:37.999Z</time></trkpt><trkpt lat="44.76969118024171" lon="9.384179309146198"><ele>299.0</ele><time>2026-03-29T11:17:38.999Z</time></trkpt><trkpt lat="44.76975667835227" lon="9.38432418420151"><ele>299.0</ele><time>2026-03-29T11:17:39.999Z</time></trkpt><trkpt lat="44.76982308557402" lon="9.384466600993012"><ele>299.0</ele><time>2026-03-29T11:17:40.999Z</time></trkpt><trkpt lat="44.76989109139644" lon="9.384604527231186"><ele>296.5</ele><time>2026-03-29T11:17:41.999Z</time></trkpt><trkpt lat="44.76995855637244" lon="9.384745859683884"><ele>294.0</ele><time>2026-03-29T11:17:42.999Z</time></trkpt><trkpt lat="44.77002711100115" lon="9.384880583445424"><ele>291.5</ele><time>2026-03-29T11:17:43.999Z</time></trkpt><trkpt lat="44.77008990545728" lon="9.385014741750913"><ele>289.0</ele><time>2026-03-29T11:17:44.999Z</time></trkpt><trkpt lat="44.77014369660393" lon="9.385152405758623"><ele>289.0</ele><time>2026-03-29T11:17:45.999Z</time></trkpt><trkpt lat="44.77015763921049" lon="9.38530795892422"><ele>289.0</ele><time>2026-03-29T11:17:46.999Z</time></trkpt><trkpt lat="44.77015725315322" lon="9.385460313167759"><ele>289.0</ele><time>2026-03-29T11:17:47.999Z</time></trkpt><trkpt lat="44.77016114893444" lon="9.385601062473551"><ele>289.0</ele><time>2026-03-29T11:17:48.999Z</time></trkpt><trkpt lat="44.77011104219956" lon="9.385710187113608"><ele>289.0</ele><time>2026-03-29T11:17:49.999Z</time></trkpt><trkpt lat="44.770084220271954" lon="9.385807051419764"><ele>288.16666666666663</ele><time>2026-03-29T11:17:50.999Z</time></trkpt><trkpt lat="44.77001687253656" lon="9.385884932110613"><ele>287.3333333333333</ele><time>2026-03-29T11:17:52.999Z</time></trkpt><trkpt lat="44.76995242333856" lon="9.385912764391641"><ele>286.5</ele><time>2026-03-29T11:17:56.999Z</time></trkpt><trkpt lat="44.7698686622939" lon="9.38586652520889"><ele>285.6666666666667</ele><time>2026-03-29T11:18:04.999Z</time></trkpt><trkpt lat="44.76979225835414" lon="9.385826254870283"><ele>284.83333333333337</ele><time>2026-03-29T11:18:07.999Z</time></trkpt><trkpt lat="44.76973551070941" lon="9.385782033711754"><ele>284.0</ele><time>2026-03-29T11:18:26Z</time></trkpt><trkpt lat="44.76966192830428" lon="9.385758554530925"><ele>284.0</ele><time>2026-03-29T11:18:31Z</time></trkpt><trkpt lat="44.769566223179346" lon="9.385737233949863"><ele>284.0</ele><time>2026-03-29T11:18:33Z</time></trkpt><trkpt lat="44.769460828450356" lon="9.385706473973535"><ele>284.0</ele><time>2026-03-29T11:18:35Z</time></trkpt><trkpt lat="44.769361353630046" lon="9.385700025746369"><ele>284.0</ele><time>2026-03-29T11:18:37Z</time></trkpt><trkpt lat="44.76926709269908" lon="9.385709587742364"><ele>284.0</ele><time>2026-03-29T11:18:39Z</time></trkpt><trkpt lat="44.769221875728334" lon="9.385819824018787"><ele>282.0</ele><time>2026-03-29T11:18:41Z</time></trkpt><trkpt lat="44.76925902678287" lon="9.38589461547364"><ele>282.0</ele><time>2026-03-29T11:18:42Z</time></trkpt><trkpt lat="44.769311123303204" lon="9.385961988194584"><ele>282.0</ele><time>2026-03-29T11:18:44Z</time></trkpt><trkpt lat="44.76937873349702" lon="9.385940351343116"><ele>284.0</ele><time>2026-03-29T11:18:46Z</time></trkpt><trkpt lat="44.769457987282124" lon="9.385906887445744"><ele>284.0</ele><time>2026-03-29T11:18:49Z</time></trkpt><trkpt lat="44.76952594007171" lon="9.385899536229081"><ele>284.0</ele><time>2026-03-29T11:18:52Z</time></trkpt></trkseg><trkseg><trkpt lat="44.769571089357065" lon="9.385834778236628"><ele>284.0</ele><time>2026-03-29T13:11:49Z</time></trkpt><trkpt lat="44.76963808908364" lon="9.385831025155756"><ele>284.0</ele><time>2026-03-29T13:11:52Z</time></trkpt><trkpt lat="44.76970629852619" lon="9.385856491554396"><ele>284.0</ele><time>2026-03-29T13:12:12.999Z</time></trkpt><trkpt lat="44.76980202376302" lon="9.385894858416156"><ele>284.0</ele><time>2026-03-29T13:12:14.999Z</time></trkpt><trkpt lat="44.76987057332376" lon="9.385945320341522"><ele>284.0</ele><time>2026-03-29T13:12:16.999Z</time></trkpt><trkpt lat="44.76986036674908" lon="9.386041527843636"><ele>284.0</ele><time>2026-03-29T13:12:24.999Z</time></trkpt><trkpt lat="44.769785542818745" lon="9.38612374400121"><ele>284.0</ele><time>2026-03-29T13:12:26.999Z</time></trkpt><trkpt lat="44.76972213698894" lon="9.386148042964475"><ele>284.0</ele><time>2026-03-29T13:12:27.999Z</time></trkpt><trkpt lat="44.769659965840724" lon="9.386171010124082"><ele>284.0</ele><time>2026-03-29T13:12:28.999Z</time></trkpt><trkpt lat="44.76957119426588" lon="9.38621974612253"><ele>284.0</ele><time>2026-03-29T13:12:30.999Z</time></trkpt><trkpt lat="44.769496855352436" lon="9.386274723042"><ele>284.0</ele><time>2026-03-29T13:12:32.999Z</time></trkpt><trkpt lat="44.7694273301303" lon="9.386332620434736"><ele>284.0</ele><time>2026-03-29T13:12:34.999Z</time></trkpt><trkpt lat="44.76936435238057" lon="9.386411080064459"><ele>283.5</ele><time>2026-03-29T13:12:36.999Z</time></trkpt><trkpt lat="44.76928805180423" lon="9.386523371407314"><ele>283.0</ele><time>2026-03-29T13:12:38.999Z</time></trkpt><trkpt lat="44.76925330100911" lon="9.386610245839714"><ele>282.5</ele><time>2026-03-29T13:12:39.999Z</time></trkpt><trkpt lat="44.7692122208231" lon="9.386704639927402"><ele>282.0</ele><time>2026-03-29T13:12:40.999Z</time></trkpt><trkpt lat="44.769171451074676" lon="9.386816580157424"><ele>281.5</ele><time>2026-03-29T13:12:41.999Z</time></trkpt><trkpt lat="44.769129803777254" lon="9.386935211148492"><ele>281.0</ele><time>2026-03-29T13:12:42.998Z</time></trkpt><trkpt lat="44.76909672686881" lon="9.387050791004583"><ele>281.0</ele><time>2026-03-29T13:12:43.998Z</time></trkpt><trkpt lat="44.76906554746017" lon="9.387153471417383"><ele>281.0</ele><time>2026-03-29T13:12:44.998Z</time></trkpt><trkpt lat="44.7690415629423" lon="9.387254102177259"><ele>281.0</ele><time>2026-03-29T13:12:45.998Z</time></trkpt><trkpt lat="44.769022198839906" lon="9.387347243996686"><ele>281.0</ele><time>2026-03-29T13:12:46.998Z</time></trkpt><trkpt lat="44.76895079177448" lon="9.387484752136137"><ele>281.0</ele><time>2026-03-29T13:12:48.998Z</time></trkpt><trkpt lat="44.7687441279701" lon="9.387480859398996"><ele>280.14285714285717</ele><time>2026-03-29T13:12:51.998Z</time></trkpt><trkpt lat="44.768671749740456" lon="9.38746437048612"><ele>279.2857142857143</ele><time>2026-03-29T13:12:52.998Z</time></trkpt><trkpt lat="44.76860563956299" lon="9.38745913154895"><ele>278.42857142857144</ele><time>2026-03-29T13:12:53.998Z</time></trkpt><trkpt lat="44.76852904424338" lon="9.387461803198097"><ele>277.57142857142856</ele><time>2026-03-29T13:12:54.998Z</time></trkpt><trkpt lat="44.768458606184424" lon="9.387468157391941"><ele>276.7142857142857</ele><time>2026-03-29T13:12:55.998Z</time></trkpt><trkpt lat="44.76838646957682" lon="9.387485049034032"><ele>275.8571428571429</ele><time>2026-03-29T13:12:56.998Z</time></trkpt><trkpt lat="44.76831473258978" lon="9.387502408722298"><ele>275.0</ele><time>2026-03-29T13:12:57.998Z</time></trkpt><trkpt lat="44.768243278283315" lon="9.387520995271034"><ele>275.0</ele><time>2026-03-29T13:12:58.998Z</time></trkpt><trkpt lat="44.76817176977888" lon="9.387542129555909"><ele>275.0</ele><time>2026-03-29T13:12:59.998Z</time></trkpt><trkpt lat="44.76810002518302" lon="9.387567557106852"><ele>275.0</ele><time>2026-03-29T13:13:00.998Z</time></trkpt><trkpt lat="44.76802999663" lon="9.387601394324935"><ele>275.0</ele><time>2026-03-29T13:13:01.998Z</time></trkpt><trkpt lat="44.76796110865629" lon="9.387642675286349"><ele>275.0</ele><time>2026-03-29T13:13:02.998Z</time></trkpt><trkpt lat="44.767896731175654" lon="9.387682044214865"><ele>275.0</ele><time>2026-03-29T13:13:03.998Z</time></trkpt><trkpt lat="44.76783856789203" lon="9.387718993061439"><ele>275.0</ele><time>2026-03-29T13:13:04.998Z</time></trkpt><trkpt lat="44.76776264636968" lon="9.387768356403521"><ele>275.0</ele><time>2026-03-29T13:13:06.998Z</time></trkpt><trkpt lat="44.76770360231603" lon="9.387838484045973"><ele>275.0</ele><time>2026-03-29T13:13:09.998Z</time></trkpt><trkpt lat="44.7676449302831" lon="9.387927785112472"><ele>275.0</ele><time>2026-03-29T13:13:11.998Z</time></trkpt><trkpt lat="44.76757089685004" lon="9.3880534094285"><ele>275.0</ele><time>2026-03-29T13:13:13.998Z</time></trkpt><trkpt lat="44.76752688984811" lon="9.388125162530603"><ele>275.0</ele><time>2026-03-29T13:13:14.998Z</time></trkpt><trkpt lat="44.767477861098506" lon="9.38819835790867"><ele>275.0</ele><time>2026-03-29T13:13:15.998Z</time></trkpt><trkpt lat="44.767429739690485" lon="9.38827667663874"><ele>274.1666666666667</ele><time>2026-03-29T13:13:16.998Z</time></trkpt><trkpt lat="44.76738019622444" lon="9.388354701610817"><ele>273.33333333333337</ele><time>2026-03-29T13:13:17.998Z</time></trkpt><trkpt lat="44.76732796792643" lon="9.388430081435898"><ele>272.5</ele><time>2026-03-29T13:13:18.998Z</time></trkpt><trkpt lat="44.767275763798764" lon="9.38849914577326"><ele>271.6666666666667</ele><time>2026-03-29T13:13:19.998Z</time></trkpt><trkpt lat="44.767219876775066" lon="9.38855209239235"><ele>270.8333333333333</ele><time>2026-03-29T13:13:20.998Z</time></trkpt><trkpt lat="44.767092116350035" lon="9.3885824890808"><ele>270.0</ele><time>2026-03-29T13:13:23Z</time></trkpt><trkpt lat="44.76703100232203" lon="9.388555971998708"><ele>270.0</ele><time>2026-03-29T13:13:24Z</time></trkpt><trkpt lat="44.76696669804402" lon="9.388520479245642"><ele>270.0</ele><time>2026-03-29T13:13:24.999Z</time></trkpt><trkpt lat="44.76689872169417" lon="9.38848150834135"><ele>270.0</ele><time>2026-03-29T13:13:26Z</time></trkpt><trkpt lat="44.76682418939151" lon="9.388444949054419"><ele>270.0</ele><time>2026-03-29T13:13:27Z</time></trkpt><trkpt lat="44.76674269228089" lon="9.388408767796877"><ele>270.0</ele><time>2026-03-29T13:13:28Z</time></trkpt><trkpt lat="44.76665512142509" lon="9.38837319287975"><ele>270.0</ele><time>2026-03-29T13:13:29Z</time></trkpt><trkpt lat="44.76656565051337" lon="9.388339068606124"><ele>270.1666666666667</ele><time>2026-03-29T13:13:30Z</time></trkpt><trkpt lat="44.766474416433574" lon="9.388307461393236"><ele>270.3333333333333</ele><time>2026-03-29T13:13:31Z</time></trkpt><trkpt lat="44.766391315243794" lon="9.388268448983936"><ele>270.5</ele><time>2026-03-29T13:13:32Z</time></trkpt><trkpt lat="44.76631759690075" lon="9.38821973542864"><ele>270.66666666666663</ele><time>2026-03-29T13:13:33Z</time></trkpt><trkpt lat="44.76625619987105" lon="9.388154010585616"><ele>270.8333333333333</ele><time>2026-03-29T13:13:34Z</time></trkpt><trkpt lat="44.766212561806746" lon="9.388069647230463"><ele>271.0</ele><time>2026-03-29T13:13:35Z</time></trkpt><trkpt lat="44.766186241944595" lon="9.387979032861343"><ele>272.5</ele><time>2026-03-29T13:13:36Z</time></trkpt><trkpt lat="44.76617090559458" lon="9.387884946023172"><ele>274.0</ele><time>2026-03-29T13:13:37Z</time></trkpt><trkpt lat="44.76615795112383" lon="9.387781404401606"><ele>275.5</ele><time>2026-03-29T13:13:38Z</time></trkpt><trkpt lat="44.76614302169938" lon="9.387674941180997"><ele>277.0</ele><time>2026-03-29T13:13:39Z</time></trkpt><trkpt lat="44.76614786538829" lon="9.38755629657505"><ele>278.5</ele><time>2026-03-29T13:13:40Z</time></trkpt><trkpt lat="44.766137970360894" lon="9.387434085502663"><ele>280.0</ele><time>2026-03-29T13:13:41Z</time></trkpt><trkpt lat="44.76611751885497" lon="9.38730868100142"><ele>280.0</ele><time>2026-03-29T13:13:42Z</time></trkpt><trkpt lat="44.76611180722645" lon="9.387181140186575"><ele>280.0</ele><time>2026-03-29T13:13:43Z</time></trkpt><trkpt lat="44.76610084420749" lon="9.387051756065395"><ele>280.0</ele><time>2026-03-29T13:13:44Z</time></trkpt><trkpt lat="44.766094409924406" lon="9.386935564977804"><ele>280.0</ele><time>2026-03-29T13:13:44.999Z</time></trkpt><trkpt lat="44.766081075392634" lon="9.386814031281396"><ele>280.0</ele><time>2026-03-29T13:13:45.999Z</time></trkpt><trkpt lat="44.766046860387306" lon="9.386704650787824"><ele>280.0</ele><time>2026-03-29T13:13:46.999Z</time></trkpt><trkpt lat="44.765990913010526" lon="9.38661247821106"><ele>278.3333333333333</ele><time>2026-03-29T13:13:47.999Z</time></trkpt><trkpt lat="44.76591377047907" lon="9.386540164991752"><ele>276.66666666666663</ele><time>2026-03-29T13:13:48.999Z</time></trkpt><trkpt lat="44.765828662391264" lon="9.386484169772594"><ele>275.0</ele><time>2026-03-29T13:13:49.999Z</time></trkpt><trkpt lat="44.76574674307457" lon="9.386454074473821"><ele>273.3333333333333</ele><time>2026-03-29T13:13:50.999Z</time></trkpt><trkpt lat="44.76566903471867" lon="9.386422013678272"><ele>271.6666666666667</ele><time>2026-03-29T13:13:51.999Z</time></trkpt><trkpt lat="44.76559167586241" lon="9.386394562050707"><ele>270.0</ele><time>2026-03-29T13:13:52.999Z</time></trkpt><trkpt lat="44.765519993471486" lon="9.38637012819395"><ele>270.0</ele><time>2026-03-29T13:13:53.999Z</time></trkpt><trkpt lat="44.76545015196848" lon="9.386345145531086"><ele>270.0</ele><time>2026-03-29T13:13:54.999Z</time></trkpt><trkpt lat="44.76537352933153" lon="9.386321845870764"><ele>270.0</ele><time>2026-03-29T13:13:55.999Z</time></trkpt><trkpt lat="44.76529553811611" lon="9.386294964001694"><ele>270.0</ele><time>2026-03-29T13:13:56.999Z</time></trkpt><trkpt lat="44.76521544390046" lon="9.386268367978634"><ele>270.0</ele><time>2026-03-29T13:13:57.999Z</time></trkpt><trkpt lat="44.765134782848556" lon="9.386240385068662"><ele>270.0</ele><time>2026-03-29T13:13:58.999Z</time></trkpt><trkpt lat="44.76505077771708" lon="9.386212958910379"><ele>269.8333333333333</ele><time>2026-03-29T13:13:59.999Z</time></trkpt><trkpt lat="44.76496669607348" lon="9.386184872376749"><ele>269.6666666666667</ele><time>2026-03-29T13:14:00.999Z</time></trkpt><trkpt lat="44.76488345058126" lon="9.386160208126066"><ele>269.5</ele><time>2026-03-29T13:14:01.999Z</time></trkpt><trkpt lat="44.76480842901902" lon="9.386134291164591"><ele>269.33333333333337</ele><time>2026-03-29T13:14:02.999Z</time></trkpt><trkpt lat="44.76473703297127" lon="9.386108436658322"><ele>269.1666666666667</ele><time>2026-03-29T13:14:03.999Z</time></trkpt><trkpt lat="44.76463138291071" lon="9.386062289615678"><ele>269.0</ele><time>2026-03-29T13:14:05.999Z</time></trkpt><trkpt lat="44.76452198533063" lon="9.386034131053263"><ele>269.0</ele><time>2026-03-29T13:14:07.999Z</time></trkpt><trkpt lat="44.76440366392624" lon="9.385995837769709"><ele>269.0</ele><time>2026-03-29T13:14:09.999Z</time></trkpt><trkpt lat="44.76434017671034" lon="9.385967917789607"><ele>269.0</ele><time>2026-03-29T13:14:10.999Z</time></trkpt><trkpt lat="44.764276015994525" lon="9.38592638919871"><ele>269.0</ele><time>2026-03-29T13:14:11.999Z</time></trkpt><trkpt lat="44.76421239979688" lon="9.385869094055504"><ele>269.0</ele><time>2026-03-29T13:14:12.999Z</time></trkpt><trkpt lat="44.7641500359361" lon="9.385800941227373"><ele>269.0</ele><time>2026-03-29T13:14:13.999Z</time></trkpt><trkpt lat="44.7640944268723" lon="9.385725463140705"><ele>268.4</ele><time>2026-03-29T13:14:14.999Z</time></trkpt><trkpt lat="44.76403880058568" lon="9.385640167851923"><ele>267.79999999999995</ele><time>2026-03-29T13:14:15.999Z</time></trkpt><trkpt lat="44.76398206370633" lon="9.3855427005928"><ele>267.20000000000005</ele><time>2026-03-29T13:14:16.999Z</time></trkpt><trkpt lat="44.763919184890376" lon="9.385437440514828"><ele>266.6</ele><time>2026-03-29T13:14:17.999Z</time></trkpt><trkpt lat="44.76384989878405" lon="9.385313924175005"><ele>266.0</ele><time>2026-03-29T13:14:18.999Z</time></trkpt><trkpt lat="44.763777400653424" lon="9.385170167616563"><ele>266.5</ele><time>2026-03-29T13:14:19.999Z</time></trkpt><trkpt lat="44.76370036598232" lon="9.385009184984579"><ele>267.0</ele><time>2026-03-29T13:14:20.999Z</time></trkpt><trkpt lat="44.76362270965421" lon="9.384843093778542"><ele>267.5</ele><time>2026-03-29T13:14:21.999Z</time></trkpt><trkpt lat="44.76354969458723" lon="9.384668516437396"><ele>268.0</ele><time>2026-03-29T13:14:22.999Z</time></trkpt><trkpt lat="44.763471690229046" lon="9.384488484692946"><ele>268.0</ele><time>2026-03-29T13:14:23.999Z</time></trkpt><trkpt lat="44.76339051128167" lon="9.384313168978284"><ele>268.0</ele><time>2026-03-29T13:14:24.999Z</time></trkpt><trkpt lat="44.763303076347626" lon="9.384139782694499"><ele>268.0</ele><time>2026-03-29T13:14:25.999Z</time></trkpt><trkpt lat="44.763203306275805" lon="9.383963008445194"><ele>270.66666666666663</ele><time>2026-03-29T13:14:26.999Z</time></trkpt><trkpt lat="44.7630930003957" lon="9.383785192129476"><ele>273.3333333333333</ele><time>2026-03-29T13:14:27.999Z</time></trkpt><trkpt lat="44.76296820948749" lon="9.383614820114444"><ele>276.0</ele><time>2026-03-29T13:14:28.999Z</time></trkpt><trkpt lat="44.76282849035548" lon="9.383453104068218"><ele>271.6666666666667</ele><time>2026-03-29T13:14:29.999Z</time></trkpt><trkpt lat="44.76267547167036" lon="9.383303639106046"><ele>267.33333333333337</ele><time>2026-03-29T13:14:30.999Z</time></trkpt><trkpt lat="44.76250637019706" lon="9.383170966675747"><ele>263.0</ele><time>2026-03-29T13:14:31.999Z</time></trkpt><trkpt lat="44.76232584920629" lon="9.38305703234857"><ele>263.0</ele><time>2026-03-29T13:14:32.999Z</time></trkpt><trkpt lat="44.762142312578334" lon="9.382945910674087"><ele>263.0</ele><time>2026-03-29T13:14:33.999Z</time></trkpt><trkpt lat="44.76197155400351" lon="9.382833728942598"><ele>263.0</ele><time>2026-03-29T13:14:34.999Z</time></trkpt><trkpt lat="44.76180768773524" lon="9.38271892230538"><ele>263.0</ele><time>2026-03-29T13:14:35.999Z</time></trkpt><trkpt lat="44.76164370529118" lon="9.382605023856025"><ele>263.0</ele><time>2026-03-29T13:14:36.999Z</time></trkpt><trkpt lat="44.76147759297626" lon="9.382491330144848"><ele>263.0</ele><time>2026-03-29T13:14:37.999Z</time></trkpt><trkpt lat="44.76130835894903" lon="9.382374225388178"><ele>263.0</ele><time>2026-03-29T13:14:38.999Z</time></trkpt><trkpt lat="44.76113807779479" lon="9.382255039651978"><ele>263.0</ele><time>2026-03-29T13:14:39.999Z</time></trkpt><trkpt lat="44.76096680811218" lon="9.382134532683756"><ele>263.0</ele><time>2026-03-29T13:14:40.999Z</time></trkpt><trkpt lat="44.76079551509473" lon="9.382013496676858"><ele>264.6666666666667</ele><time>2026-03-29T13:14:41.999Z</time></trkpt><trkpt lat="44.760626424276126" lon="9.381896257772473"><ele>266.3333333333333</ele><time>2026-03-29T13:14:42.999Z</time></trkpt><trkpt lat="44.76045689827214" lon="9.381790585583735"><ele>268.0</ele><time>2026-03-29T13:14:43.999Z</time></trkpt><trkpt lat="44.76028657950651" lon="9.38170417082831"><ele>267.3333333333333</ele><time>2026-03-29T13:14:44.999Z</time></trkpt><trkpt lat="44.760114897190334" lon="9.38164046209716"><ele>266.6666666666667</ele><time>2026-03-29T13:14:45.999Z</time></trkpt><trkpt lat="44.75994641740117" lon="9.38160389057474"><ele>266.0</ele><time>2026-03-29T13:14:46.999Z</time></trkpt><trkpt lat="44.75977508224513" lon="9.38159402894505"><ele>266.0</ele><time>2026-03-29T13:14:47.999Z</time></trkpt><trkpt lat="44.75960097277582" lon="9.38160096572155"><ele>266.0</ele><time>2026-03-29T13:14:48.999Z</time></trkpt><trkpt lat="44.75942385488184" lon="9.381633314752706"><ele>266.0</ele><time>2026-03-29T13:14:49.999Z</time></trkpt><trkpt lat="44.759240558240826" lon="9.381670062001147"><ele>266.0</ele><time>2026-03-29T13:14:50.998Z</time></trkpt><trkpt lat="44.759053092538316" lon="9.381703667643416"><ele>266.0</ele><time>2026-03-29T13:14:51.998Z</time></trkpt><trkpt lat="44.758858150738604" lon="9.38173617856138"><ele>266.0</ele><time>2026-03-29T13:14:52.998Z</time></trkpt><trkpt lat="44.75865968630672" lon="9.381770735785404"><ele>266.33333333333337</ele><time>2026-03-29T13:14:53.998Z</time></trkpt><trkpt lat="44.75845588062176" lon="9.381805116291101"><ele>266.6666666666667</ele><time>2026-03-29T13:14:54.998Z</time></trkpt><trkpt lat="44.758250540010295" lon="9.38184380413597"><ele>267.0</ele><time>2026-03-29T13:14:55.998Z</time></trkpt><trkpt lat="44.758042410989006" lon="9.381882974192179"><ele>267.0</ele><time>2026-03-29T13:14:56.998Z</time></trkpt><trkpt lat="44.757833615941884" lon="9.381922067729535"><ele>267.0</ele><time>2026-03-29T13:14:57.998Z</time></trkpt><trkpt lat="44.757620441853234" lon="9.381959429879082"><ele>267.0</ele><time>2026-03-29T13:14:58.998Z</time></trkpt><trkpt lat="44.75740744435009" lon="9.381998853524768"><ele>267.6666666666667</ele><time>2026-03-29T13:14:59.998Z</time></trkpt><trkpt lat="44.75719803232465" lon="9.382034974376857"><ele>268.33333333333337</ele><time>2026-03-29T13:15:00.998Z</time></trkpt><trkpt lat="44.75699009397755" lon="9.382064973872527"><ele>269.0</ele><time>2026-03-29T13:15:01.998Z</time></trkpt><trkpt lat="44.75678908618312" lon="9.382073619832324"><ele>269.6666666666667</ele><time>2026-03-29T13:15:02.998Z</time></trkpt><trkpt lat="44.75659685035278" lon="9.382034280665936"><ele>270.3333333333333</ele><time>2026-03-29T13:15:03.998Z</time></trkpt><trkpt lat="44.75640393529007" lon="9.381981365000454"><ele>271.0</ele><time>2026-03-29T13:15:04.998Z</time></trkpt><trkpt lat="44.756218822672814" lon="9.381898005123158"><ele>271.0</ele><time>2026-03-29T13:15:05.998Z</time></trkpt><trkpt lat="44.75603748132746" lon="9.381787523393774"><ele>271.0</ele><time>2026-03-29T13:15:06.998Z</time></trkpt><trkpt lat="44.755863810603884" lon="9.38165467430241"><ele>271.0</ele><time>2026-03-29T13:15:07.998Z</time></trkpt><trkpt lat="44.755697012740015" lon="9.381494587918151"><ele>271.0</ele><time>2026-03-29T13:15:08.998Z</time></trkpt><trkpt lat="44.75553017739412" lon="9.381330796446978"><ele>271.0</ele><time>2026-03-29T13:15:09.998Z</time></trkpt><trkpt lat="44.75535986971349" lon="9.381170790059459"><ele>271.0</ele><time>2026-03-29T13:15:10.998Z</time></trkpt><trkpt lat="44.75518380912731" lon="9.381012629089843"><ele>271.0</ele><time>2026-03-29T13:15:11.998Z</time></trkpt><trkpt lat="44.75500604917516" lon="9.380855682867306"><ele>271.0</ele><time>2026-03-29T13:15:12.998Z</time></trkpt><trkpt lat="44.7548303937258" lon="9.380694384687066"><ele>271.0</ele><time>2026-03-29T13:15:13.998Z</time></trkpt><trkpt lat="44.75465685106892" lon="9.380533277819112"><ele>271.0</ele><time>2026-03-29T13:15:14.998Z</time></trkpt><trkpt lat="44.75448337950524" lon="9.38037399466234"><ele>271.0</ele><time>2026-03-29T13:15:15.998Z</time></trkpt><trkpt lat="44.75431092423074" lon="9.380220000134386"><ele>271.0</ele><time>2026-03-29T13:15:16.998Z</time></trkpt><trkpt lat="44.75414070290001" lon="9.380086062022558"><ele>271.0</ele><time>2026-03-29T13:15:17.998Z</time></trkpt><trkpt lat="44.75396009305965" lon="9.37998898251622"><ele>271.0</ele><time>2026-03-29T13:15:18.998Z</time></trkpt><trkpt lat="44.75376782253735" lon="9.37991609388358"><ele>271.0</ele><time>2026-03-29T13:15:19.998Z</time></trkpt><trkpt lat="44.75356697305783" lon="9.379872073218"><ele>268.66666666666663</ele><time>2026-03-29T13:15:20.998Z</time></trkpt><trkpt lat="44.75335919658405" lon="9.379849417093435"><ele>266.3333333333333</ele><time>2026-03-29T13:15:21.998Z</time></trkpt><trkpt lat="44.75314616970854" lon="9.379835382808922"><ele>264.0</ele><time>2026-03-29T13:15:22.998Z</time></trkpt><trkpt lat="44.75292726647734" lon="9.379817187258636"><ele>263.0</ele><time>2026-03-29T13:15:23.998Z</time></trkpt><trkpt lat="44.752703697346604" lon="9.379798864497277"><ele>262.0</ele><time>2026-03-29T13:15:24.998Z</time></trkpt><trkpt lat="44.75247357728227" lon="9.37977716474733"><ele>262.0</ele><time>2026-03-29T13:15:25.998Z</time></trkpt><trkpt lat="44.75224133746825" lon="9.379755847328646"><ele>262.0</ele><time>2026-03-29T13:15:26.998Z</time></trkpt><trkpt lat="44.7520127957774" lon="9.379739858961287"><ele>263.5</ele><time>2026-03-29T13:15:28Z</time></trkpt><trkpt lat="44.75177939369754" lon="9.379723224623936"><ele>265.0</ele><time>2026-03-29T13:15:29Z</time></trkpt><trkpt lat="44.75154490770022" lon="9.379704626367355"><ele>264.5</ele><time>2026-03-29T13:15:30Z</time></trkpt><trkpt lat="44.75131023849912" lon="9.379682041786962"><ele>264.0</ele><time>2026-03-29T13:15:31Z</time></trkpt><trkpt lat="44.75107842302611" lon="9.379658171945767"><ele>265.0</ele><time>2026-03-29T13:15:32Z</time></trkpt><trkpt lat="44.75085044234329" lon="9.37963486105387"><ele>266.0</ele><time>2026-03-29T13:15:33Z</time></trkpt><trkpt lat="44.75063008426699" lon="9.379618329797626"><ele>267.0</ele><time>2026-03-29T13:15:34Z</time></trkpt><trkpt lat="44.75041384079544" lon="9.379616478594892"><ele>267.0</ele><time>2026-03-29T13:15:35Z</time></trkpt><trkpt lat="44.75020847049692" lon="9.3796396504904"><ele>267.0</ele><time>2026-03-29T13:15:36Z</time></trkpt><trkpt lat="44.750016945968" lon="9.379695077890151"><ele>267.0</ele><time>2026-03-29T13:15:37Z</time></trkpt><trkpt lat="44.74983289057306" lon="9.37977733547976"><ele>268.0</ele><time>2026-03-29T13:15:38Z</time></trkpt><trkpt lat="44.74965613452136" lon="9.379892357268199"><ele>269.0</ele><time>2026-03-29T13:15:39Z</time></trkpt><trkpt lat="44.74948721990428" lon="9.380035563457934"><ele>270.0</ele><time>2026-03-29T13:15:40Z</time></trkpt><trkpt lat="44.74932952339453" lon="9.380203595377013"><ele>272.0</ele><time>2026-03-29T13:15:41Z</time></trkpt><trkpt lat="44.74918933162414" lon="9.380401740954813"><ele>274.0</ele><time>2026-03-29T13:15:42Z</time></trkpt><trkpt lat="44.74906438928384" lon="9.380622918239169"><ele>276.0</ele><time>2026-03-29T13:15:43Z</time></trkpt><trkpt lat="44.748953597467136" lon="9.38086284800838"><ele>279.0</ele><time>2026-03-29T13:15:44Z</time></trkpt><trkpt lat="44.74886170871121" lon="9.381121742664835"><ele>282.0</ele><time>2026-03-29T13:15:45Z</time></trkpt><trkpt lat="44.74879531611797" lon="9.381402778555918"><ele>285.0</ele><time>2026-03-29T13:15:46Z</time></trkpt><trkpt lat="44.74874541984177" lon="9.381698421519374"><ele>289.6666666666667</ele><time>2026-03-29T13:15:47Z</time></trkpt><trkpt lat="44.748728577946494" lon="9.382002944685704"><ele>294.33333333333337</ele><time>2026-03-29T13:15:48Z</time></trkpt><trkpt lat="44.748706828436724" lon="9.382254965768254"><ele>299.0</ele><time>2026-03-29T13:15:49Z</time></trkpt><trkpt lat="44.74873993578312" lon="9.382550828904945"><ele>301.33333333333337</ele><time>2026-03-29T13:15:49.999Z</time></trkpt><trkpt lat="44.74879155801433" lon="9.382846115004671"><ele>303.6666666666667</ele><time>2026-03-29T13:15:50.999Z</time></trkpt><trkpt lat="44.74885528439772" lon="9.383137544947527"><ele>306.0</ele><time>2026-03-29T13:15:51.999Z</time></trkpt><trkpt lat="44.748913835329695" lon="9.38342914100205"><ele>306.3333333333333</ele><time>2026-03-29T13:15:52.999Z</time></trkpt><trkpt lat="44.74895651065183" lon="9.383726612550241"><ele>306.66666666666663</ele><time>2026-03-29T13:15:53.999Z</time></trkpt><trkpt lat="44.748960671895595" lon="9.384036436973147"><ele>307.0</ele><time>2026-03-29T13:15:54.999Z</time></trkpt><trkpt lat="44.7489627531332" lon="9.384343193328665"><ele>307.66666666666663</ele><time>2026-03-29T13:15:55.999Z</time></trkpt><trkpt lat="44.74896357948682" lon="9.384654586343425"><ele>308.3333333333333</ele><time>2026-03-29T13:15:56.999Z</time></trkpt><trkpt lat="44.74898204991618" lon="9.384966596681242"><ele>309.0</ele><time>2026-03-29T13:15:57.999Z</time></trkpt><trkpt lat="44.748980010300265" lon="9.385276691909388"><ele>311.6666666666667</ele><time>2026-03-29T13:15:58.999Z</time></trkpt><trkpt lat="44.74898004660608" lon="9.385590615179863"><ele>314.33333333333337</ele><time>2026-03-29T13:15:59.999Z</time></trkpt><trkpt lat="44.748978258239404" lon="9.385901923090344"><ele>317.0</ele><time>2026-03-29T13:16:00.999Z</time></trkpt><trkpt lat="44.748953449886535" lon="9.386203963739305"><ele>321.6666666666667</ele><time>2026-03-29T13:16:01.999Z</time></trkpt><trkpt lat="44.7489244742911" lon="9.38651249122404"><ele>326.3333333333333</ele><time>2026-03-29T13:16:02.999Z</time></trkpt><trkpt lat="44.74887615751292" lon="9.38681307798532"><ele>331.0</ele><time>2026-03-29T13:16:03.999Z</time></trkpt><trkpt lat="44.74881435778989" lon="9.387107897415946"><ele>336.3333333333333</ele><time>2026-03-29T13:16:04.999Z</time></trkpt><trkpt lat="44.74873823619536" lon="9.387395672892104"><ele>341.6666666666667</ele><time>2026-03-29T13:16:05.999Z</time></trkpt><trkpt lat="44.74864866089119" lon="9.387673224012975"><ele>347.0</ele><time>2026-03-29T13:16:06.999Z</time></trkpt><trkpt lat="44.74854794733239" lon="9.387939556313668"><ele>333.6666666666667</ele><time>2026-03-29T13:16:07.999Z</time></trkpt><trkpt lat="44.74843416466592" lon="9.388205776350796"><ele>320.3333333333333</ele><time>2026-03-29T13:16:08.999Z</time></trkpt><trkpt lat="44.748334376769776" lon="9.38847737467722"><ele>307.0</ele><time>2026-03-29T13:16:09.999Z</time></trkpt><trkpt lat="44.74821786839803" lon="9.388730439781765"><ele>317.0</ele><time>2026-03-29T13:16:10.999Z</time></trkpt><trkpt lat="44.74810510223516" lon="9.388972700061013"><ele>327.0</ele><time>2026-03-29T13:16:11.999Z</time></trkpt><trkpt lat="44.74799480326626" lon="9.389201664022204"><ele>337.0</ele><time>2026-03-29T13:16:12.999Z</time></trkpt><trkpt lat="44.74785770140057" lon="9.389386612683253"><ele>337.0</ele><time>2026-03-29T13:16:13.999Z</time></trkpt><trkpt lat="44.74772457680367" lon="9.389580461384941"><ele>337.0</ele><time>2026-03-29T13:16:14.999Z</time></trkpt><trkpt lat="44.747563847476655" lon="9.38973728356521"><ele>337.0</ele><time>2026-03-29T13:16:15.999Z</time></trkpt><trkpt lat="44.74739203168012" lon="9.38987589937199"><ele>332.66666666666663</ele><time>2026-03-29T13:16:16.999Z</time></trkpt><trkpt lat="44.74720887287004" lon="9.389987223468491"><ele>328.3333333333333</ele><time>2026-03-29T13:16:17.999Z</time></trkpt><trkpt lat="44.74701498319488" lon="9.390069021847186"><ele>324.0</ele><time>2026-03-29T13:16:18.999Z</time></trkpt><trkpt lat="44.74681292794772" lon="9.39011602626542"><ele>318.0</ele><time>2026-03-29T13:16:19.999Z</time></trkpt><trkpt lat="44.746604145504925" lon="9.390128464222942"><ele>312.0</ele><time>2026-03-29T13:16:20.999Z</time></trkpt><trkpt lat="44.74639274878379" lon="9.390117154703363"><ele>306.0</ele><time>2026-03-29T13:16:21.999Z</time></trkpt><trkpt lat="44.746183491558234" lon="9.390068837848867"><ele>311.3333333333333</ele><time>2026-03-29T13:16:22.999Z</time></trkpt><trkpt lat="44.7459799080597" lon="9.389987129020506"><ele>316.66666666666663</ele><time>2026-03-29T13:16:23.999Z</time></trkpt><trkpt lat="44.7457800427637" lon="9.38988954938387"><ele>322.0</ele><time>2026-03-29T13:16:24.999Z</time></trkpt><trkpt lat="44.745585167957024" lon="9.389777155016668"><ele>319.3333333333333</ele><time>2026-03-29T13:16:25.999Z</time></trkpt><trkpt lat="44.745397787105" lon="9.389643788685975"><ele>316.6666666666667</ele><time>2026-03-29T13:16:26.999Z</time></trkpt><trkpt lat="44.74521678800011" lon="9.389495838637743"><ele>314.0</ele><time>2026-03-29T13:16:27.999Z</time></trkpt><trkpt lat="44.74503683645934" lon="9.389343156178542"><ele>314.0</ele><time>2026-03-29T13:16:28.999Z</time></trkpt><trkpt lat="44.744852119729416" lon="9.389211164143004"><ele>314.0</ele><time>2026-03-29T13:16:29.999Z</time></trkpt><trkpt lat="44.74466610040142" lon="9.389100989109318"><ele>314.0</ele><time>2026-03-29T13:16:30.999Z</time></trkpt><trkpt lat="44.74447251425519" lon="9.389019389368181"><ele>319.33333333333337</ele><time>2026-03-29T13:16:31.999Z</time></trkpt><trkpt lat="44.744275371236284" lon="9.388979297058109"><ele>324.6666666666667</ele><time>2026-03-29T13:16:32.999Z</time></trkpt><trkpt lat="44.7440785935603" lon="9.388959472570823"><ele>330.0</ele><time>2026-03-29T13:16:33.999Z</time></trkpt><trkpt lat="44.74389524687557" lon="9.388964642926231"><ele>330.0</ele><time>2026-03-29T13:16:34.999Z</time></trkpt><trkpt lat="44.74373212720422" lon="9.388982731426093"><ele>330.0</ele><time>2026-03-29T13:16:35.999Z</time></trkpt><trkpt lat="44.74358123154536" lon="9.38900019388257"><ele>330.0</ele><time>2026-03-29T13:16:36.999Z</time></trkpt><trkpt lat="44.74344767291732" lon="9.389000835327977"><ele>330.0</ele><time>2026-03-29T13:16:37.999Z</time></trkpt><trkpt lat="44.743323342220975" lon="9.388985132978627"><ele>333.4</ele><time>2026-03-29T13:16:38.999Z</time></trkpt><trkpt lat="44.743209058526084" lon="9.388948963631693"><ele>336.8</ele><time>2026-03-29T13:16:39.999Z</time></trkpt><trkpt lat="44.743107633410915" lon="9.388902306265711"><ele>340.20000000000005</ele><time>2026-03-29T13:16:40.999Z</time></trkpt><trkpt lat="44.74301553477304" lon="9.388855835844215"><ele>343.6</ele><time>2026-03-29T13:16:41.999Z</time></trkpt><trkpt lat="44.742940647722655" lon="9.388810824394154"><ele>347.0</ele><time>2026-03-29T13:16:42.999Z</time></trkpt><trkpt lat="44.74285132710156" lon="9.388751360391481"><ele>344.20000000000005</ele><time>2026-03-29T13:16:44.999Z</time></trkpt><trkpt lat="44.74277326543477" lon="9.388708866936568"><ele>341.4</ele><time>2026-03-29T13:16:47.999Z</time></trkpt><trkpt lat="44.74267360885747" lon="9.388637672410573"><ele>338.6</ele><time>2026-03-29T13:18:51.999Z</time></trkpt><trkpt lat="44.74260998478317" lon="9.388596256074607"><ele>335.79999999999995</ele><time>2026-03-29T13:18:52.999Z</time></trkpt><trkpt lat="44.74252472288553" lon="9.38854310892937"><ele>333.0</ele><time>2026-03-29T13:18:53.999Z</time></trkpt><trkpt lat="44.74242361353018" lon="9.388483617476195"><ele>333.0</ele><time>2026-03-29T13:18:54.999Z</time></trkpt><trkpt lat="44.74230160404658" lon="9.388411542762723"><ele>333.0</ele><time>2026-03-29T13:18:55.999Z</time></trkpt><trkpt lat="44.74217446698951" lon="9.388371986903111"><ele>333.0</ele><time>2026-03-29T13:18:56.999Z</time></trkpt><trkpt lat="44.7420523226741" lon="9.388279467245624"><ele>333.0</ele><time>2026-03-29T13:18:57.999Z</time></trkpt><trkpt lat="44.74191868927212" lon="9.388200022292365"><ele>340.0</ele><time>2026-03-29T13:18:58.999Z</time></trkpt><trkpt lat="44.74178189378094" lon="9.388118697536193"><ele>347.0</ele><time>2026-03-29T13:18:59.999Z</time></trkpt><trkpt lat="44.74163728504279" lon="9.38804790777024"><ele>354.0</ele><time>2026-03-29T13:19:00.999Z</time></trkpt><trkpt lat="44.74150075627243" lon="9.387996888366619"><ele>361.0</ele><time>2026-03-29T13:19:02.066Z</time></trkpt><trkpt lat="44.74108877590382" lon="9.38895592058844"><ele>361.0</ele><time>2026-03-29T13:19:03.057Z</time></trkpt><trkpt lat="44.74089231897532" lon="9.389237118251662"><ele>361.0</ele><time>2026-03-29T13:19:04.056Z</time></trkpt><trkpt lat="44.74108796725982" lon="9.387741535962364"><ele>359.75</ele><time>2026-03-29T13:19:05.052Z</time></trkpt><trkpt lat="44.74095647015948" lon="9.3876533403034"><ele>358.5</ele><time>2026-03-29T13:19:06.052Z</time></trkpt><trkpt lat="44.74082997051905" lon="9.387552780282643"><ele>357.25</ele><time>2026-03-29T13:19:07.044Z</time></trkpt><trkpt lat="44.740698808230604" lon="9.387473997652034"><ele>356.0</ele><time>2026-03-29T13:19:08.026Z</time></trkpt><trkpt lat="44.74009921882113" lon="9.387195483379397"><ele>342.6666666666667</ele><time>2026-03-29T13:19:09.998Z</time></trkpt><trkpt lat="44.7399418370596" lon="9.387163065355368"><ele>329.3333333333333</ele><time>2026-03-29T13:19:10.998Z</time></trkpt><trkpt lat="44.73977371345348" lon="9.387169564701574"><ele>316.0</ele><time>2026-03-29T13:19:11.998Z</time></trkpt><trkpt lat="44.73961466996077" lon="9.387194525134275"><ele>316.0</ele><time>2026-03-29T13:19:12.998Z</time></trkpt><trkpt lat="44.73945322958648" lon="9.387245167742474"><ele>316.0</ele><time>2026-03-29T13:19:13.998Z</time></trkpt><trkpt lat="44.73928654599384" lon="9.387326435798043"><ele>316.0</ele><time>2026-03-29T13:19:14.998Z</time></trkpt><trkpt lat="44.73909947787099" lon="9.387394622042171"><ele>320.0</ele><time>2026-03-29T13:19:15.998Z</time></trkpt><trkpt lat="44.73894108528605" lon="9.387517389485769"><ele>324.0</ele><time>2026-03-29T13:19:16.998Z</time></trkpt><trkpt lat="44.738788031231074" lon="9.387674995066495"><ele>328.0</ele><time>2026-03-29T13:19:17.998Z</time></trkpt><trkpt lat="44.73864302375075" lon="9.387867881079499"><ele>327.3333333333333</ele><time>2026-03-29T13:19:18.998Z</time></trkpt><trkpt lat="44.73849101782771" lon="9.388078082632191"><ele>326.6666666666667</ele><time>2026-03-29T13:19:19.998Z</time></trkpt><trkpt lat="44.738328475833214" lon="9.388299638638532"><ele>326.0</ele><time>2026-03-29T13:19:20.998Z</time></trkpt><trkpt lat="44.73815766800928" lon="9.38851270634007"><ele>326.0</ele><time>2026-03-29T13:19:21.998Z</time></trkpt><trkpt lat="44.73798421240855" lon="9.38871389396985"><ele>326.0</ele><time>2026-03-29T13:19:22.998Z</time></trkpt><trkpt lat="44.73780191872221" lon="9.388908699248745"><ele>329.5</ele><time>2026-03-29T13:19:23.998Z</time></trkpt><trkpt lat="44.7376119316563" lon="9.389099684439783"><ele>333.0</ele><time>2026-03-29T13:19:24.998Z</time></trkpt><trkpt lat="44.73742165035406" lon="9.389268363339818"><ele>333.0</ele><time>2026-03-29T13:19:25.998Z</time></trkpt><trkpt lat="44.73722876908116" lon="9.389420657813941"><ele>333.0</ele><time>2026-03-29T13:19:26.998Z</time></trkpt><trkpt lat="44.737022101946145" lon="9.389524422334869"><ele>333.0</ele><time>2026-03-29T13:19:27.998Z</time></trkpt><trkpt lat="44.736818302994756" lon="9.389614782654814"><ele>330.0</ele><time>2026-03-29T13:19:28.998Z</time></trkpt><trkpt lat="44.736603123660274" lon="9.389640282205178"><ele>327.0</ele><time>2026-03-29T13:19:29.998Z</time></trkpt><trkpt lat="44.73638431121165" lon="9.389678738550854"><ele>324.0</ele><time>2026-03-29T13:19:30.998Z</time></trkpt><trkpt lat="44.73616230114675" lon="9.389678698838555"><ele>336.0</ele><time>2026-03-29T13:19:31.998Z</time></trkpt><trkpt lat="44.73594231477926" lon="9.389677073287611"><ele>348.0</ele><time>2026-03-29T13:19:32.998Z</time></trkpt><trkpt lat="44.73572934801748" lon="9.389682906537228"><ele>360.0</ele><time>2026-03-29T13:19:33.998Z</time></trkpt><trkpt lat="44.73552043786996" lon="9.389684099027072"><ele>350.0</ele><time>2026-03-29T13:19:34.998Z</time></trkpt><trkpt lat="44.73531633312121" lon="9.389660959421692"><ele>340.0</ele><time>2026-03-29T13:19:35.998Z</time></trkpt><trkpt lat="44.73513151871639" lon="9.389594447736352"><ele>330.0</ele><time>2026-03-29T13:19:36.998Z</time></trkpt><trkpt lat="44.73495453674198" lon="9.389503019968261"><ele>330.0</ele><time>2026-03-29T13:19:37.998Z</time></trkpt><trkpt lat="44.73478168274316" lon="9.389403720958596"><ele>330.0</ele><time>2026-03-29T13:19:39Z</time></trkpt><trkpt lat="44.7346216629274" lon="9.389283750405657"><ele>330.0</ele><time>2026-03-29T13:19:40Z</time></trkpt><trkpt lat="44.73446757961157" lon="9.389161182159901"><ele>335.0</ele><time>2026-03-29T13:19:41Z</time></trkpt><trkpt lat="44.734297301528265" lon="9.389085235229496"><ele>340.0</ele><time>2026-03-29T13:19:42Z</time></trkpt><trkpt lat="44.73411169017896" lon="9.389049164027638"><ele>345.0</ele><time>2026-03-29T13:19:43Z</time></trkpt><trkpt lat="44.73391983272733" lon="9.389044965264285"><ele>345.0</ele><time>2026-03-29T13:19:44Z</time></trkpt><trkpt lat="44.733725779879734" lon="9.389065397999474"><ele>345.0</ele><time>2026-03-29T13:19:45Z</time></trkpt><trkpt lat="44.733537099640856" lon="9.389106504518827"><ele>345.0</ele><time>2026-03-29T13:19:46Z</time></trkpt><trkpt lat="44.73335711748949" lon="9.389132980199083"><ele>346.0</ele><time>2026-03-29T13:19:47Z</time></trkpt><trkpt lat="44.73319580619444" lon="9.389056843588541"><ele>347.0</ele><time>2026-03-29T13:19:48Z</time></trkpt><trkpt lat="44.73301662032797" lon="9.389025187774008"><ele>348.0</ele><time>2026-03-29T13:19:49Z</time></trkpt><trkpt lat="44.73284350335493" lon="9.388994654767673"><ele>355.0</ele><time>2026-03-29T13:19:50Z</time></trkpt><trkpt lat="44.73266564181232" lon="9.389001928070448"><ele>362.0</ele><time>2026-03-29T13:19:51Z</time></trkpt><trkpt lat="44.732512982616015" lon="9.388991954807429"><ele>369.0</ele><time>2026-03-29T13:19:52Z</time></trkpt><trkpt lat="44.73239448160329" lon="9.38895049419785"><ele>356.25</ele><time>2026-03-29T13:19:53Z</time></trkpt><trkpt lat="44.732311809865045" lon="9.388840475037044"><ele>343.5</ele><time>2026-03-29T13:19:54Z</time></trkpt><trkpt lat="44.73225107983418" lon="9.388695530289377"><ele>330.75</ele><time>2026-03-29T13:19:55Z</time></trkpt><trkpt lat="44.73216692367816" lon="9.388574766401968"><ele>318.0</ele><time>2026-03-29T13:19:56Z</time></trkpt><trkpt lat="44.73203156822603" lon="9.38850813330555"><ele>325.6666666666667</ele><time>2026-03-29T13:19:57Z</time></trkpt><trkpt lat="44.731878375998846" lon="9.388426280852881"><ele>333.33333333333337</ele><time>2026-03-29T13:19:58Z</time></trkpt><trkpt lat="44.731724570790554" lon="9.38837503075256"><ele>341.0</ele><time>2026-03-29T13:19:59Z</time></trkpt><trkpt lat="44.73156670909328" lon="9.388365371610496"><ele>341.0</ele><time>2026-03-29T13:20:00Z</time></trkpt><trkpt lat="44.73140313812161" lon="9.388412310260358"><ele>341.0</ele><time>2026-03-29T13:20:01Z</time></trkpt><trkpt lat="44.73125445210427" lon="9.388468507267211"><ele>341.0</ele><time>2026-03-29T13:20:02Z</time></trkpt><trkpt lat="44.73112458210165" lon="9.388486505563055"><ele>344.8</ele><time>2026-03-29T13:20:03Z</time></trkpt><trkpt lat="44.731026288621585" lon="9.388436322552694"><ele>348.6</ele><time>2026-03-29T13:20:04Z</time></trkpt><trkpt lat="44.73094854410587" lon="9.388336420055635"><ele>352.4</ele><time>2026-03-29T13:20:05Z</time></trkpt><trkpt lat="44.730903397055236" lon="9.388189522835907"><ele>356.2</ele><time>2026-03-29T13:20:06Z</time></trkpt><trkpt lat="44.730823374530715" lon="9.388076955774736"><ele>360.0</ele><time>2026-03-29T13:20:07Z</time></trkpt><trkpt lat="44.730697842129736" lon="9.388028432561667"><ele>360.0</ele><time>2026-03-29T13:20:08Z</time></trkpt><trkpt lat="44.7305497565339" lon="9.388029061162417"><ele>360.0</ele><time>2026-03-29T13:20:09Z</time></trkpt><trkpt lat="44.73039458077803" lon="9.388021427054579"><ele>360.0</ele><time>2026-03-29T13:20:09.999Z</time></trkpt><trkpt lat="44.73024820669198" lon="9.38793532552181"><ele>352.0</ele><time>2026-03-29T13:20:10.999Z</time></trkpt><trkpt lat="44.73010507248639" lon="9.387818616167156"><ele>344.0</ele><time>2026-03-29T13:20:11.999Z</time></trkpt><trkpt lat="44.72996087522331" lon="9.387746872574496"><ele>336.0</ele><time>2026-03-29T13:20:12.999Z</time></trkpt><trkpt lat="44.7298267470369" lon="9.387695784933594"><ele>336.0</ele><time>2026-03-29T13:20:13.999Z</time></trkpt><trkpt lat="44.72971943881786" lon="9.387603150595496"><ele>336.0</ele><time>2026-03-29T13:20:14.999Z</time></trkpt><trkpt lat="44.729631610893" lon="9.38745490339531"><ele>336.0</ele><time>2026-03-29T13:20:15.999Z</time></trkpt><trkpt lat="44.72953523521643" lon="9.387353632745421"><ele>336.0</ele><time>2026-03-29T13:20:16.999Z</time></trkpt><trkpt lat="44.72941326113978" lon="9.387342881048253"><ele>345.75</ele><time>2026-03-29T13:20:17.999Z</time></trkpt><trkpt lat="44.72929170591379" lon="9.387343050484214"><ele>355.5</ele><time>2026-03-29T13:20:18.999Z</time></trkpt><trkpt lat="44.72917804360097" lon="9.38735630949663"><ele>365.25</ele><time>2026-03-29T13:20:19.999Z</time></trkpt><trkpt lat="44.72903468648204" lon="9.387327438928693"><ele>375.0</ele><time>2026-03-29T13:20:20.999Z</time></trkpt><trkpt lat="44.72891875574472" lon="9.38727323654415"><ele>375.0</ele><time>2026-03-29T13:20:21.999Z</time></trkpt><trkpt lat="44.72883114851926" lon="9.387191132122267"><ele>375.0</ele><time>2026-03-29T13:20:22.999Z</time></trkpt><trkpt lat="44.7287798065981" lon="9.387065523928582"><ele>375.0</ele><time>2026-03-29T13:20:23.999Z</time></trkpt><trkpt lat="44.72873830687191" lon="9.386909777594784"><ele>375.0</ele><time>2026-03-29T13:20:24.999Z</time></trkpt><trkpt lat="44.728708143522276" lon="9.38676819646465"><ele>375.0</ele><time>2026-03-29T13:20:25.999Z</time></trkpt><trkpt lat="44.728627924867176" lon="9.386675251093552"><ele>371.25</ele><time>2026-03-29T13:20:26.999Z</time></trkpt><trkpt lat="44.72850448310095" lon="9.386640596247668"><ele>367.5</ele><time>2026-03-29T13:20:27.999Z</time></trkpt><trkpt lat="44.72835467199418" lon="9.386637023139665"><ele>363.75</ele><time>2026-03-29T13:20:28.999Z</time></trkpt><trkpt lat="44.72818912837368" lon="9.38660615385879"><ele>360.0</ele><time>2026-03-29T13:20:29.999Z</time></trkpt><trkpt lat="44.72801421792133" lon="9.386542235487598"><ele>360.0</ele><time>2026-03-29T13:20:30.999Z</time></trkpt><trkpt lat="44.7278329236613" lon="9.386459004484443"><ele>360.0</ele><time>2026-03-29T13:20:31.999Z</time></trkpt><trkpt lat="44.72765939899767" lon="9.386318994247883"><ele>360.0</ele><time>2026-03-29T13:20:32.999Z</time></trkpt><trkpt lat="44.727480593852654" lon="9.38618710432864"><ele>351.0</ele><time>2026-03-29T13:20:33.999Z</time></trkpt><trkpt lat="44.72730859093168" lon="9.38603485705495"><ele>342.0</ele><time>2026-03-29T13:20:34.999Z</time></trkpt><trkpt lat="44.72714488952823" lon="9.385913029140378"><ele>333.0</ele><time>2026-03-29T13:20:35.999Z</time></trkpt><trkpt lat="44.727008118373504" lon="9.385803085480843"><ele>333.0</ele><time>2026-03-29T13:20:36.999Z</time></trkpt><trkpt lat="44.72691328867523" lon="9.385651690875099"><ele>333.0</ele><time>2026-03-29T13:20:37.999Z</time></trkpt><trkpt lat="44.72682490480121" lon="9.385499132861726"><ele>333.0</ele><time>2026-03-29T13:20:38.999Z</time></trkpt><trkpt lat="44.726711387765775" lon="9.38539229080099"><ele>333.0</ele><time>2026-03-29T13:20:39.999Z</time></trkpt><trkpt lat="44.72656757796425" lon="9.385320987472412"><ele>329.79999999999995</ele><time>2026-03-29T13:20:40.999Z</time></trkpt><trkpt lat="44.726432669255075" lon="9.38526677308172"><ele>326.59999999999997</ele><time>2026-03-29T13:20:41.999Z</time></trkpt><trkpt lat="44.72633607245766" lon="9.385228757798014"><ele>323.4</ele><time>2026-03-29T13:20:42.999Z</time></trkpt><trkpt lat="44.726263282894365" lon="9.385215210685548"><ele>320.2</ele><time>2026-03-29T13:20:43.999Z</time></trkpt><trkpt lat="44.72619788336539" lon="9.385234341179121"><ele>317.0</ele><time>2026-03-29T13:20:44.999Z</time></trkpt><trkpt lat="44.726171878395945" lon="9.385369819410995"><ele>327.0</ele><time>2026-03-29T13:20:45.999Z</time></trkpt><trkpt lat="44.726181844997555" lon="9.385513638874713"><ele>337.0</ele><time>2026-03-29T13:20:46.999Z</time></trkpt><trkpt lat="44.7262504058587" lon="9.385688636513084"><ele>347.0</ele><time>2026-03-29T13:20:47.999Z</time></trkpt><trkpt lat="44.72627951445218" lon="9.385903706608598"><ele>357.0</ele><time>2026-03-29T13:20:48.999Z</time></trkpt><trkpt lat="44.7263184334188" lon="9.386142627271912"><ele>363.3333333333333</ele><time>2026-03-29T13:20:49.999Z</time></trkpt><trkpt lat="44.7263656101653" lon="9.386367849131243"><ele>369.66666666666663</ele><time>2026-03-29T13:20:50.999Z</time></trkpt><trkpt lat="44.726405769201406" lon="9.386576703189167"><ele>376.0</ele><time>2026-03-29T13:20:51.999Z</time></trkpt><trkpt lat="44.72642293646301" lon="9.386765436427492"><ele>376.0</ele><time>2026-03-29T13:20:52.999Z</time></trkpt><trkpt lat="44.726405092404256" lon="9.386952026619094"><ele>376.0</ele><time>2026-03-29T13:20:53.999Z</time></trkpt><trkpt lat="44.72635854792217" lon="9.387157306805795"><ele>376.0</ele><time>2026-03-29T13:20:54.999Z</time></trkpt><trkpt lat="44.72628667250553" lon="9.387371241699206"><ele>373.66666666666663</ele><time>2026-03-29T13:20:55.999Z</time></trkpt><trkpt lat="44.72619665186054" lon="9.387582047890717"><ele>371.3333333333333</ele><time>2026-03-29T13:20:56.999Z</time></trkpt><trkpt lat="44.7260946138409" lon="9.387797664189243"><ele>369.0</ele><time>2026-03-29T13:20:57.999Z</time></trkpt><trkpt lat="44.72600185265543" lon="9.388028249068247"><ele>369.0</ele><time>2026-03-29T13:20:58.999Z</time></trkpt><trkpt lat="44.725871441008216" lon="9.388216272161257"><ele>369.0</ele><time>2026-03-29T13:20:59.999Z</time></trkpt><trkpt lat="44.725736084630945" lon="9.388386878163008"><ele>369.0</ele><time>2026-03-29T13:21:00.999Z</time></trkpt><trkpt lat="44.725590089142266" lon="9.388541924654769"><ele>369.0</ele><time>2026-03-29T13:21:01.999Z</time></trkpt><trkpt lat="44.72544270368731" lon="9.388684901626082"><ele>369.0</ele><time>2026-03-29T13:21:02.999Z</time></trkpt><trkpt lat="44.725311196467395" lon="9.388818698737524"><ele>369.0</ele><time>2026-03-29T13:21:03.999Z</time></trkpt><trkpt lat="44.72517808243026" lon="9.388899163766778"><ele>366.0</ele><time>2026-03-29T13:21:04.999Z</time></trkpt><trkpt lat="44.725060005547284" lon="9.3889708432182"><ele>363.0</ele><time>2026-03-29T13:21:05.999Z</time></trkpt><trkpt lat="44.72496176819859" lon="9.389091291474625"><ele>360.0</ele><time>2026-03-29T13:21:06.999Z</time></trkpt><trkpt lat="44.72488791252937" lon="9.389262092138821"><ele>357.0</ele><time>2026-03-29T13:21:07.999Z</time></trkpt><trkpt lat="44.72483852016887" lon="9.3894782882904"><ele>357.5</ele><time>2026-03-29T13:21:08.999Z</time></trkpt><trkpt lat="44.724791119967676" lon="9.389686027929105"><ele>358.0</ele><time>2026-03-29T13:21:09.999Z</time></trkpt><trkpt lat="44.72474812784634" lon="9.389869669014127"><ele>358.5</ele><time>2026-03-29T13:21:10.999Z</time></trkpt><trkpt lat="44.72473041865631" lon="9.390033862711327"><ele>359.0</ele><time>2026-03-29T13:21:11.999Z</time></trkpt><trkpt lat="44.72476359046477" lon="9.390186497999224"><ele>359.0</ele><time>2026-03-29T13:21:12.999Z</time></trkpt><trkpt lat="44.72483102314321" lon="9.390327925107805"><ele>359.0</ele><time>2026-03-29T13:21:13.999Z</time></trkpt><trkpt lat="44.72491911755735" lon="9.390453326302994"><ele>359.0</ele><time>2026-03-29T13:21:14.998Z</time></trkpt><trkpt lat="44.724934560325" lon="9.390606579095106"><ele>359.0</ele><time>2026-03-29T13:21:15.998Z</time></trkpt><trkpt lat="44.724896576577315" lon="9.390764606940001"><ele>360.0</ele><time>2026-03-29T13:21:16.998Z</time></trkpt><trkpt lat="44.72486924436714" lon="9.390960857918573"><ele>361.0</ele><time>2026-03-29T13:21:17.998Z</time></trkpt><trkpt lat="44.72481204795281" lon="9.391159807561882"><ele>362.0</ele><time>2026-03-29T13:21:18.998Z</time></trkpt><trkpt lat="44.72476013396341" lon="9.391375592874487"><ele>362.0</ele><time>2026-03-29T13:21:19.998Z</time></trkpt><trkpt lat="44.7247079772278" lon="9.391593638345931"><ele>362.0</ele><time>2026-03-29T13:21:20.998Z</time></trkpt><trkpt lat="44.72465194405352" lon="9.39181312900381"><ele>362.0</ele><time>2026-03-29T13:21:21.998Z</time></trkpt><trkpt lat="44.72459646265355" lon="9.392031711888011"><ele>367.6666666666667</ele><time>2026-03-29T13:21:22.998Z</time></trkpt><trkpt lat="44.72454845087234" lon="9.392236216921779"><ele>373.3333333333333</ele><time>2026-03-29T13:21:23.998Z</time></trkpt><trkpt lat="44.72446783991155" lon="9.392417269164676"><ele>379.0</ele><time>2026-03-29T13:21:24.998Z</time></trkpt><trkpt lat="44.72437456151147" lon="9.392599378250429"><ele>375.75</ele><time>2026-03-29T13:21:25.998Z</time></trkpt><trkpt lat="44.72428586249685" lon="9.392788106375313"><ele>372.5</ele><time>2026-03-29T13:21:26.998Z</time></trkpt><trkpt lat="44.72418743282173" lon="9.392933068007586"><ele>369.25</ele><time>2026-03-29T13:21:27.998Z</time></trkpt><trkpt lat="44.72409823083435" lon="9.393066553426209"><ele>366.0</ele><time>2026-03-29T13:21:28.998Z</time></trkpt><trkpt lat="44.72402200897329" lon="9.393194096745882"><ele>366.0</ele><time>2026-03-29T13:21:29.998Z</time></trkpt><trkpt lat="44.72395707949061" lon="9.393315478149221"><ele>366.0</ele><time>2026-03-29T13:21:30.998Z</time></trkpt><trkpt lat="44.72388640623398" lon="9.393453387267133"><ele>366.0</ele><time>2026-03-29T13:21:31.998Z</time></trkpt><trkpt lat="44.723794593546295" lon="9.393592568196754"><ele>366.0</ele><time>2026-03-29T13:21:32.998Z</time></trkpt><trkpt lat="44.72367039443099" lon="9.393678746059134"><ele>366.5</ele><time>2026-03-29T13:21:33.998Z</time></trkpt><trkpt lat="44.72354706295618" lon="9.393771281395706"><ele>367.0</ele><time>2026-03-29T13:21:34.998Z</time></trkpt><trkpt lat="44.72340491439262" lon="9.39382807148359"><ele>367.5</ele><time>2026-03-29T13:21:35.998Z</time></trkpt><trkpt lat="44.72325959301663" lon="9.39388787171575"><ele>368.0</ele><time>2026-03-29T13:21:36.998Z</time></trkpt><trkpt lat="44.72311173450769" lon="9.393944129861284"><ele>368.0</ele><time>2026-03-29T13:21:37.998Z</time></trkpt><trkpt lat="44.72296495799166" lon="9.39399478443711"><ele>368.0</ele><time>2026-03-29T13:21:38.998Z</time></trkpt><trkpt lat="44.722835807808025" lon="9.394057723900533"><ele>368.0</ele><time>2026-03-29T13:21:39.998Z</time></trkpt><trkpt lat="44.72273187082297" lon="9.39413577444905"><ele>368.0</ele><time>2026-03-29T13:21:40.998Z</time></trkpt><trkpt lat="44.72266201116589" lon="9.39423724943462"><ele>362.4</ele><time>2026-03-29T13:21:41.998Z</time></trkpt><trkpt lat="44.72262093300083" lon="9.394366114071042"><ele>356.79999999999995</ele><time>2026-03-29T13:21:42.998Z</time></trkpt><trkpt lat="44.7225928774222" lon="9.39449362415081"><ele>351.2</ele><time>2026-03-29T13:21:43.998Z</time></trkpt><trkpt lat="44.722519987847505" lon="9.394554810663655"><ele>345.6</ele><time>2026-03-29T13:21:45Z</time></trkpt><trkpt lat="44.722433753942965" lon="9.39455585947524"><ele>340.0</ele><time>2026-03-29T13:21:46Z</time></trkpt><trkpt lat="44.722358420636915" lon="9.39450284505458"><ele>340.0</ele><time>2026-03-29T13:21:47Z</time></trkpt><trkpt lat="44.722284048283484" lon="9.39438138616756"><ele>340.0</ele><time>2026-03-29T13:21:48Z</time></trkpt><trkpt lat="44.72220065316539" lon="9.394235732974929"><ele>340.0</ele><time>2026-03-29T13:21:49Z</time></trkpt><trkpt lat="44.722103828770564" lon="9.394094397683993"><ele>340.0</ele><time>2026-03-29T13:21:50Z</time></trkpt><trkpt lat="44.72199623055694" lon="9.393968474638841"><ele>339.25</ele><time>2026-03-29T13:21:51Z</time></trkpt><trkpt lat="44.72188325995113" lon="9.393884781138588"><ele>338.5</ele><time>2026-03-29T13:21:52Z</time></trkpt><trkpt lat="44.72176966535457" lon="9.3938178646666"><ele>337.75</ele><time>2026-03-29T13:21:53Z</time></trkpt><trkpt lat="44.72163710025567" lon="9.393816177586114"><ele>337.0</ele><time>2026-03-29T13:21:54Z</time></trkpt><trkpt lat="44.721497049803354" lon="9.393904030958772"><ele>337.0</ele><time>2026-03-29T13:21:55Z</time></trkpt><trkpt lat="44.721400045287304" lon="9.394067567912192"><ele>337.0</ele><time>2026-03-29T13:21:56Z</time></trkpt><trkpt lat="44.721358497850424" lon="9.394293803595621"><ele>337.0</ele><time>2026-03-29T13:21:57Z</time></trkpt><trkpt lat="44.72132636992146" lon="9.394518307502143"><ele>337.0</ele><time>2026-03-29T13:21:58Z</time></trkpt><trkpt lat="44.72122103162273" lon="9.394629835944384"><ele>337.0</ele><time>2026-03-29T13:21:59Z</time></trkpt><trkpt lat="44.72109504258543" lon="9.394770628286189"><ele>337.0</ele><time>2026-03-29T13:22:00Z</time></trkpt><trkpt lat="44.7209698676595" lon="9.394900349381391"><ele>337.0</ele><time>2026-03-29T13:22:01Z</time></trkpt><trkpt lat="44.72084016582525" lon="9.395001510027924"><ele>339.40000000000003</ele><time>2026-03-29T13:22:02Z</time></trkpt><trkpt lat="44.72073601031889" lon="9.395033233369455"><ele>341.8</ele><time>2026-03-29T13:22:03Z</time></trkpt><trkpt lat="44.720649274759836" lon="9.395038178768925"><ele>344.2</ele><time>2026-03-29T13:22:04Z</time></trkpt><trkpt lat="44.72057056426446" lon="9.395020617358695"><ele>346.6</ele><time>2026-03-29T13:22:05Z</time></trkpt><trkpt lat="44.720455705616004" lon="9.394876331581827"><ele>349.0</ele><time>2026-03-29T13:22:08Z</time></trkpt><trkpt lat="44.72046976551645" lon="9.394720315899487"><ele>341.0</ele><time>2026-03-29T13:22:09Z</time></trkpt><trkpt lat="44.72048461173483" lon="9.394528108407224"><ele>333.0</ele><time>2026-03-29T13:22:10Z</time></trkpt><trkpt lat="44.72048491392688" lon="9.394285658676948"><ele>325.0</ele><time>2026-03-29T13:22:11Z</time></trkpt><trkpt lat="44.72052686506383" lon="9.394068404173742"><ele>325.0</ele><time>2026-03-29T13:22:12Z</time></trkpt><trkpt lat="44.720610887860595" lon="9.393911264565835"><ele>325.0</ele><time>2026-03-29T13:22:13Z</time></trkpt><trkpt lat="44.72069943096901" lon="9.393729370094231"><ele>325.0</ele><time>2026-03-29T13:22:14Z</time></trkpt><trkpt lat="44.72078252931849" lon="9.39355984170334"><ele>325.0</ele><time>2026-03-29T13:22:15Z</time></trkpt><trkpt lat="44.72082950710569" lon="9.393401188448168"><ele>325.4</ele><time>2026-03-29T13:22:15.999Z</time></trkpt><trkpt lat="44.72086508719081" lon="9.393266673558436"><ele>325.8</ele><time>2026-03-29T13:22:16.999Z</time></trkpt><trkpt lat="44.72085857767675" lon="9.393125170805515"><ele>326.20000000000005</ele><time>2026-03-29T13:22:17.999Z</time></trkpt><trkpt lat="44.7208157138724" lon="9.392984260826072"><ele>326.6</ele><time>2026-03-29T13:22:18.999Z</time></trkpt><trkpt lat="44.72074077522935" lon="9.392877574723055"><ele>327.0</ele><time>2026-03-29T13:22:19.999Z</time></trkpt><trkpt lat="44.72065510419093" lon="9.392801078032218"><ele>326.0</ele><time>2026-03-29T13:22:20.999Z</time></trkpt><trkpt lat="44.72057783521349" lon="9.392721191447908"><ele>325.0</ele><time>2026-03-29T13:22:21.999Z</time></trkpt><trkpt lat="44.72050854931121" lon="9.392622626104579"><ele>324.0</ele><time>2026-03-29T13:22:22.999Z</time></trkpt><trkpt lat="44.72045457742552" lon="9.392494716185213"><ele>323.0</ele><time>2026-03-29T13:22:23.999Z</time></trkpt><trkpt lat="44.720417406169865" lon="9.392353560836591"><ele>322.0</ele><time>2026-03-29T13:22:24.999Z</time></trkpt><trkpt lat="44.72037785672634" lon="9.392203682689694"><ele>319.40000000000003</ele><time>2026-03-29T13:22:25.999Z</time></trkpt><trkpt lat="44.72033942706263" lon="9.392059529220006"><ele>316.8</ele><time>2026-03-29T13:22:26.999Z</time></trkpt><trkpt lat="44.72030365293698" lon="9.391925077019707"><ele>314.2</ele><time>2026-03-29T13:22:27.999Z</time></trkpt><trkpt lat="44.72027704593907" lon="9.391784892902162"><ele>311.6</ele><time>2026-03-29T13:22:28.999Z</time></trkpt><trkpt lat="44.7202626958476" lon="9.391611006977403"><ele>309.0</ele><time>2026-03-29T13:22:29.999Z</time></trkpt><trkpt lat="44.72025970899431" lon="9.391406812578232"><ele>307.0</ele><time>2026-03-29T13:22:30.999Z</time></trkpt><trkpt lat="44.720247914696984" lon="9.391177389873482"><ele>305.0</ele><time>2026-03-29T13:22:31.999Z</time></trkpt><trkpt lat="44.72023196046572" lon="9.390934909861077"><ele>303.0</ele><time>2026-03-29T13:22:32.999Z</time></trkpt><trkpt lat="44.72021344267816" lon="9.390711795446474"><ele>307.0</ele><time>2026-03-29T13:22:33.999Z</time></trkpt><trkpt lat="44.72019938352508" lon="9.390513614235545"><ele>311.0</ele><time>2026-03-29T13:22:34.999Z</time></trkpt><trkpt lat="44.72017948970463" lon="9.390337281475702"><ele>315.0</ele><time>2026-03-29T13:22:35.999Z</time></trkpt><trkpt lat="44.72012945505724" lon="9.390185934240396"><ele>319.0</ele><time>2026-03-29T13:22:36.999Z</time></trkpt><trkpt lat="44.720038685256306" lon="9.390076299579185"><ele>319.0</ele><time>2026-03-29T13:22:37.999Z</time></trkpt><trkpt lat="44.719888768633275" lon="9.390015686682752"><ele>319.0</ele><time>2026-03-29T13:22:38.999Z</time></trkpt><trkpt lat="44.71974072357282" lon="9.389966170821213"><ele>319.0</ele><time>2026-03-29T13:22:39.999Z</time></trkpt><trkpt lat="44.719571692846564" lon="9.389941271966137"><ele>319.0</ele><time>2026-03-29T13:22:40.999Z</time></trkpt><trkpt lat="44.71940561688647" lon="9.389924651297733"><ele>319.0</ele><time>2026-03-29T13:22:41.999Z</time></trkpt><trkpt lat="44.7192471474819" lon="9.389940299102506"><ele>319.0</ele><time>2026-03-29T13:22:42.999Z</time></trkpt><trkpt lat="44.71909833827344" lon="9.389992052642272"><ele>320.3333333333333</ele><time>2026-03-29T13:22:43.999Z</time></trkpt><trkpt lat="44.71895197759233" lon="9.390098774674113"><ele>321.6666666666667</ele><time>2026-03-29T13:22:44.999Z</time></trkpt><trkpt lat="44.71880341232869" lon="9.390201078564239"><ele>323.0</ele><time>2026-03-29T13:22:45.999Z</time></trkpt><trkpt lat="44.71863864174494" lon="9.390230485868878"><ele>323.6666666666667</ele><time>2026-03-29T13:22:46.999Z</time></trkpt><trkpt lat="44.71845634228936" lon="9.390251950535262"><ele>324.3333333333333</ele><time>2026-03-29T13:22:47.999Z</time></trkpt><trkpt lat="44.71826276674081" lon="9.390217267517482"><ele>325.0</ele><time>2026-03-29T13:22:48.999Z</time></trkpt><trkpt lat="44.71806831931089" lon="9.39018151637404"><ele>325.0</ele><time>2026-03-29T13:22:49.999Z</time></trkpt><trkpt lat="44.717873071627025" lon="9.39013995705636"><ele>325.0</ele><time>2026-03-29T13:22:50.999Z</time></trkpt><trkpt lat="44.71769090989115" lon="9.390122706010038"><ele>325.0</ele><time>2026-03-29T13:22:51.999Z</time></trkpt><trkpt lat="44.717522931467784" lon="9.390129651869128"><ele>327.3333333333333</ele><time>2026-03-29T13:22:52.999Z</time></trkpt><trkpt lat="44.71736629595063" lon="9.390115991005876"><ele>329.6666666666667</ele><time>2026-03-29T13:22:53.999Z</time></trkpt><trkpt lat="44.7172217807966" lon="9.390008001800233"><ele>332.0</ele><time>2026-03-29T13:22:54.999Z</time></trkpt><trkpt lat="44.7170535139529" lon="9.389923443377517"><ele>337.0</ele><time>2026-03-29T13:22:55.999Z</time></trkpt><trkpt lat="44.71688461609367" lon="9.389827587981912"><ele>342.0</ele><time>2026-03-29T13:22:56.999Z</time></trkpt><trkpt lat="44.716712925448384" lon="9.389725074810354"><ele>347.0</ele><time>2026-03-29T13:22:57.999Z</time></trkpt><trkpt lat="44.71654488466975" lon="9.389602098145808"><ele>335.33333333333337</ele><time>2026-03-29T13:22:58.999Z</time></trkpt><trkpt lat="44.71638456138129" lon="9.389461749830497"><ele>323.6666666666667</ele><time>2026-03-29T13:22:59.999Z</time></trkpt><trkpt lat="44.71623879409393" lon="9.389329463360705"><ele>312.0</ele><time>2026-03-29T13:23:00.999Z</time></trkpt><trkpt lat="44.71610929534797" lon="9.389187078768666"><ele>316.0</ele><time>2026-03-29T13:23:01.999Z</time></trkpt><trkpt lat="44.71600805711634" lon="9.389026770654501"><ele>320.0</ele><time>2026-03-29T13:23:02.999Z</time></trkpt><trkpt lat="44.715959299022046" lon="9.388818221919859"><ele>324.0</ele><time>2026-03-29T13:23:03.999Z</time></trkpt><trkpt lat="44.71587995437599" lon="9.38861145542908"><ele>324.0</ele><time>2026-03-29T13:23:04.999Z</time></trkpt><trkpt lat="44.71582046055705" lon="9.388384499599916"><ele>324.0</ele><time>2026-03-29T13:23:05.999Z</time></trkpt><trkpt lat="44.715745870208465" lon="9.388160279964334"><ele>324.0</ele><time>2026-03-29T13:23:06.999Z</time></trkpt><trkpt lat="44.71566064198651" lon="9.387947912840188"><ele>319.6666666666667</ele><time>2026-03-29T13:23:07.999Z</time></trkpt><trkpt lat="44.71555420165986" lon="9.387779031944413"><ele>315.33333333333337</ele><time>2026-03-29T13:23:08.999Z</time></trkpt><trkpt lat="44.71543262831324" lon="9.387641267191448"><ele>311.0</ele><time>2026-03-29T13:23:09.999Z</time></trkpt><trkpt lat="44.71531295695753" lon="9.387507694800698"><ele>316.0</ele><time>2026-03-29T13:23:10.999Z</time></trkpt><trkpt lat="44.715235657476455" lon="9.387333312006758"><ele>321.0</ele><time>2026-03-29T13:23:11.999Z</time></trkpt><trkpt lat="44.71520447519656" lon="9.387139004632733"><ele>326.0</ele><time>2026-03-29T13:23:12.999Z</time></trkpt><trkpt lat="44.71514306313949" lon="9.386915276159703"><ele>326.0</ele><time>2026-03-29T13:23:13.999Z</time></trkpt><trkpt lat="44.71503456179756" lon="9.386703397556175"><ele>326.0</ele><time>2026-03-29T13:23:14.999Z</time></trkpt><trkpt lat="44.71494473392644" lon="9.386434864953"><ele>326.0</ele><time>2026-03-29T13:23:15.999Z</time></trkpt><trkpt lat="44.714834279729956" lon="9.386170137765264"><ele>322.33333333333337</ele><time>2026-03-29T13:23:16.999Z</time></trkpt><trkpt lat="44.714744281487874" lon="9.3859132359607"><ele>318.6666666666667</ele><time>2026-03-29T13:23:17.999Z</time></trkpt><trkpt lat="44.71465704320685" lon="9.38567630732752"><ele>315.0</ele><time>2026-03-29T13:23:18.999Z</time></trkpt><trkpt lat="44.71459080970132" lon="9.385489991554499"><ele>312.6666666666667</ele><time>2026-03-29T13:23:19.998Z</time></trkpt><trkpt lat="44.71450946963468" lon="9.38525739476065"><ele>310.33333333333337</ele><time>2026-03-29T13:23:20.998Z</time></trkpt><trkpt lat="44.71443889725682" lon="9.385088923238683"><ele>308.0</ele><time>2026-03-29T13:23:21.998Z</time></trkpt><trkpt lat="44.714442923950365" lon="9.384895515109775"><ele>308.0</ele><time>2026-03-29T13:23:22.998Z</time></trkpt><trkpt lat="44.714448615989845" lon="9.384676473410755"><ele>308.0</ele><time>2026-03-29T13:23:23.998Z</time></trkpt><trkpt lat="44.71446933665217" lon="9.384424616893499"><ele>308.0</ele><time>2026-03-29T13:23:24.998Z</time></trkpt><trkpt lat="44.71450273797459" lon="9.384178760114452"><ele>308.0</ele><time>2026-03-29T13:23:25.998Z</time></trkpt><trkpt lat="44.714515338566365" lon="9.383950772955481"><ele>308.0</ele><time>2026-03-29T13:23:26.998Z</time></trkpt><trkpt lat="44.714543222374544" lon="9.383753792944132"><ele>308.0</ele><time>2026-03-29T13:23:27.998Z</time></trkpt><trkpt lat="44.71455553130775" lon="9.383581070553879"><ele>308.0</ele><time>2026-03-29T13:23:28.998Z</time></trkpt><trkpt lat="44.71453651793142" lon="9.383415008649942"><ele>309.0</ele><time>2026-03-29T13:23:29.998Z</time></trkpt><trkpt lat="44.71447827130153" lon="9.383262326707902"><ele>310.0</ele><time>2026-03-29T13:23:30.998Z</time></trkpt><trkpt lat="44.71438760738822" lon="9.383114678520732"><ele>311.0</ele><time>2026-03-29T13:23:31.998Z</time></trkpt><trkpt lat="44.714272179817854" lon="9.382971570430282"><ele>312.0</ele><time>2026-03-29T13:23:32.998Z</time></trkpt><trkpt lat="44.71416499629786" lon="9.382816024645043"><ele>312.5</ele><time>2026-03-29T13:23:33.998Z</time></trkpt><trkpt lat="44.71406681568018" lon="9.382660366272853"><ele>313.0</ele><time>2026-03-29T13:23:34.998Z</time></trkpt><trkpt lat="44.71398929089119" lon="9.382505294914795"><ele>313.5</ele><time>2026-03-29T13:23:35.998Z</time></trkpt><trkpt lat="44.71393654568455" lon="9.382342357438542"><ele>314.0</ele><time>2026-03-29T13:23:36.998Z</time></trkpt><trkpt lat="44.71390841777142" lon="9.382165998995989"><ele>314.0</ele><time>2026-03-29T13:23:37.998Z</time></trkpt><trkpt lat="44.71390515393084" lon="9.381976838852497"><ele>314.0</ele><time>2026-03-29T13:23:38.998Z</time></trkpt><trkpt lat="44.71389669056016" lon="9.381789608212198"><ele>314.0</ele><time>2026-03-29T13:23:39.998Z</time></trkpt><trkpt lat="44.713881770720185" lon="9.381603859213378"><ele>314.0</ele><time>2026-03-29T13:23:40.998Z</time></trkpt><trkpt lat="44.71386341076665" lon="9.381419625859655"><ele>314.0</ele><time>2026-03-29T13:23:41.998Z</time></trkpt><trkpt lat="44.71383667630579" lon="9.381243064350974"><ele>314.0</ele><time>2026-03-29T13:23:42.998Z</time></trkpt><trkpt lat="44.713790414425574" lon="9.381078205976381"><ele>314.0</ele><time>2026-03-29T13:23:43.998Z</time></trkpt><trkpt lat="44.71371652254741" lon="9.380932544990955"><ele>314.0</ele><time>2026-03-29T13:23:44.998Z</time></trkpt><trkpt lat="44.7136289421004" lon="9.380796832357424"><ele>315.25</ele><time>2026-03-29T13:23:45.998Z</time></trkpt><trkpt lat="44.71354095319013" lon="9.38066868124028"><ele>316.5</ele><time>2026-03-29T13:23:46.998Z</time></trkpt><trkpt lat="44.71346314623954" lon="9.380549966564116"><ele>317.75</ele><time>2026-03-29T13:23:47.998Z</time></trkpt><trkpt lat="44.71339174470703" lon="9.38043954294438"><ele>319.0</ele><time>2026-03-29T13:23:48.998Z</time></trkpt><trkpt lat="44.71332206642348" lon="9.380334257984414"><ele>319.0</ele><time>2026-03-29T13:23:49.998Z</time></trkpt><trkpt lat="44.71324427503098" lon="9.380246592154863"><ele>319.0</ele><time>2026-03-29T13:23:51Z</time></trkpt><trkpt lat="44.713159737137616" lon="9.380179801581313"><ele>319.0</ele><time>2026-03-29T13:23:52Z</time></trkpt><trkpt lat="44.71307297433515" lon="9.380136606195702"><ele>319.0</ele><time>2026-03-29T13:23:53Z</time></trkpt><trkpt lat="44.71297952964687" lon="9.380109278285625"><ele>319.0</ele><time>2026-03-29T13:23:54Z</time></trkpt><trkpt lat="44.71286865009912" lon="9.380085722069298"><ele>319.0</ele><time>2026-03-29T13:23:55Z</time></trkpt><trkpt lat="44.71274012083038" lon="9.380076368869453"><ele>319.0</ele><time>2026-03-29T13:23:56Z</time></trkpt><trkpt lat="44.712599785867674" lon="9.380060344352188"><ele>319.0</ele><time>2026-03-29T13:23:57Z</time></trkpt><trkpt lat="44.71244796734821" lon="9.3800404327199"><ele>319.0</ele><time>2026-03-29T13:23:58Z</time></trkpt><trkpt lat="44.7122833827324" lon="9.380011566753556"><ele>318.66666666666663</ele><time>2026-03-29T13:23:59Z</time></trkpt><trkpt lat="44.71210613921205" lon="9.37998924757025"><ele>318.3333333333333</ele><time>2026-03-29T13:24:00Z</time></trkpt><trkpt lat="44.71193525728502" lon="9.379967780660069"><ele>318.0</ele><time>2026-03-29T13:24:01Z</time></trkpt><trkpt lat="44.71178334250946" lon="9.379943048988771"><ele>318.0</ele><time>2026-03-29T13:24:02Z</time></trkpt><trkpt lat="44.71166138323699" lon="9.379883059687826"><ele>318.0</ele><time>2026-03-29T13:24:03Z</time></trkpt><trkpt lat="44.71156240368418" lon="9.37977003678296"><ele>318.0</ele><time>2026-03-29T13:24:04Z</time></trkpt><trkpt lat="44.711486992468814" lon="9.379599352489368"><ele>318.0</ele><time>2026-03-29T13:24:05Z</time></trkpt><trkpt lat="44.71138897200682" lon="9.379422916110876"><ele>316.3333333333333</ele><time>2026-03-29T13:24:06Z</time></trkpt><trkpt lat="44.71130211642456" lon="9.379217723990227"><ele>314.66666666666663</ele><time>2026-03-29T13:24:07Z</time></trkpt><trkpt lat="44.71120328158227" lon="9.379007834893322"><ele>313.0</ele><time>2026-03-29T13:24:08Z</time></trkpt><trkpt lat="44.7110990992287" lon="9.37879056017678"><ele>314.0</ele><time>2026-03-29T13:24:09Z</time></trkpt><trkpt lat="44.71099699328032" lon="9.378577008677778"><ele>315.0</ele><time>2026-03-29T13:24:10Z</time></trkpt><trkpt lat="44.71089678652537" lon="9.378367456293297"><ele>316.0</ele><time>2026-03-29T13:24:11Z</time></trkpt><trkpt lat="44.71080335815219" lon="9.378167359486717"><ele>318.0</ele><time>2026-03-29T13:24:12Z</time></trkpt><trkpt lat="44.71072042525336" lon="9.37798241166877"><ele>320.0</ele><time>2026-03-29T13:24:13Z</time></trkpt><trkpt lat="44.71064652511244" lon="9.377813206685106"><ele>322.0</ele><time>2026-03-29T13:24:14Z</time></trkpt><trkpt lat="44.710570957332926" lon="9.377660115554967"><ele>324.0</ele><time>2026-03-29T13:24:15Z</time></trkpt><trkpt lat="44.71048965700892" lon="9.377541996461874"><ele>324.0</ele><time>2026-03-29T13:24:16Z</time></trkpt><trkpt lat="44.710386475169926" lon="9.377460460768528"><ele>324.0</ele><time>2026-03-29T13:24:17Z</time></trkpt><trkpt lat="44.71026197829631" lon="9.377425813652486"><ele>324.0</ele><time>2026-03-29T13:24:18Z</time></trkpt><trkpt lat="44.710129810115475" lon="9.37743799793387"><ele>324.0</ele><time>2026-03-29T13:24:19Z</time></trkpt><trkpt lat="44.70999813649332" lon="9.37749352107596"><ele>326.3333333333333</ele><time>2026-03-29T13:24:20Z</time></trkpt><trkpt lat="44.70986922291874" lon="9.377590481583377"><ele>328.66666666666663</ele><time>2026-03-29T13:24:21Z</time></trkpt><trkpt lat="44.7097504871332" lon="9.377716539351647"><ele>331.0</ele><time>2026-03-29T13:24:21.999Z</time></trkpt><trkpt lat="44.70962889410986" lon="9.377854234522518"><ele>331.0</ele><time>2026-03-29T13:24:22.999Z</time></trkpt><trkpt lat="44.709493647711575" lon="9.377966014407647"><ele>331.0</ele><time>2026-03-29T13:24:23.999Z</time></trkpt><trkpt lat="44.70933306965471" lon="9.378015167425563"><ele>331.0</ele><time>2026-03-29T13:24:24.999Z</time></trkpt><trkpt lat="44.70918117607728" lon="9.378069788774134"><ele>332.25</ele><time>2026-03-29T13:24:25.999Z</time></trkpt><trkpt lat="44.70905244707934" lon="9.378123691966408"><ele>333.5</ele><time>2026-03-29T13:24:26.999Z</time></trkpt><trkpt lat="44.70892482681306" lon="9.378119639722268"><ele>334.75</ele><time>2026-03-29T13:24:27.999Z</time></trkpt><trkpt lat="44.70879539677849" lon="9.378050241939572"><ele>336.0</ele><time>2026-03-29T13:24:28.999Z</time></trkpt><trkpt lat="44.708653514451164" lon="9.378006052590466"><ele>335.75</ele><time>2026-03-29T13:24:29.999Z</time></trkpt><trkpt lat="44.708515725445174" lon="9.377935503551821"><ele>335.5</ele><time>2026-03-29T13:24:30.999Z</time></trkpt><trkpt lat="44.70837993554662" lon="9.377870053992517"><ele>335.25</ele><time>2026-03-29T13:24:31.999Z</time></trkpt><trkpt lat="44.70825426769486" lon="9.377790742760684"><ele>335.0</ele><time>2026-03-29T13:24:32.999Z</time></trkpt><trkpt lat="44.708157796706125" lon="9.377674321765994"><ele>335.0</ele><time>2026-03-29T13:24:33.999Z</time></trkpt><trkpt lat="44.7081222712875" lon="9.377511116449275"><ele>335.0</ele><time>2026-03-29T13:24:34.999Z</time></trkpt><trkpt lat="44.70809649755263" lon="9.377340745785924"><ele>335.0</ele><time>2026-03-29T13:24:35.999Z</time></trkpt><trkpt lat="44.708062347466786" lon="9.377164212530662"><ele>335.0</ele><time>2026-03-29T13:24:36.999Z</time></trkpt><trkpt lat="44.70803436243708" lon="9.37700847155903"><ele>336.6666666666667</ele><time>2026-03-29T13:24:37.999Z</time></trkpt><trkpt lat="44.70797696330763" lon="9.376888457479414"><ele>338.33333333333337</ele><time>2026-03-29T13:24:38.999Z</time></trkpt><trkpt lat="44.707907921872476" lon="9.376825632638724"><ele>340.0</ele><time>2026-03-29T13:24:39.999Z</time></trkpt><trkpt lat="44.70781989374522" lon="9.376811305473069"><ele>341.6666666666667</ele><time>2026-03-29T13:24:41.999Z</time></trkpt><trkpt lat="44.70772715356587" lon="9.376817021447044"><ele>343.3333333333333</ele><time>2026-03-29T13:25:49.998Z</time></trkpt><trkpt lat="44.707662124115465" lon="9.376819522993745"><ele>345.0</ele><time>2026-03-29T13:25:50.998Z</time></trkpt><trkpt lat="44.7075713644089" lon="9.376831218527485"><ele>345.0</ele><time>2026-03-29T13:25:51.998Z</time></trkpt><trkpt lat="44.70746621006926" lon="9.376841503340597"><ele>345.0</ele><time>2026-03-29T13:25:52.998Z</time></trkpt><trkpt lat="44.70735624575508" lon="9.37684725795994"><ele>345.0</ele><time>2026-03-29T13:25:53.998Z</time></trkpt><trkpt lat="44.70725494489428" lon="9.376868894174201"><ele>345.0</ele><time>2026-03-29T13:25:54.998Z</time></trkpt><trkpt lat="44.70716535061872" lon="9.376886988112638"><ele>345.0</ele><time>2026-03-29T13:25:55.998Z</time></trkpt><trkpt lat="44.707078062222756" lon="9.376952178809677"><ele>345.0</ele><time>2026-03-29T13:25:57Z</time></trkpt><trkpt lat="44.70700428706944" lon="9.377045419857954"><ele>345.0</ele><time>2026-03-29T13:25:58Z</time></trkpt><trkpt lat="44.70693907763196" lon="9.377147296905319"><ele>345.0</ele><time>2026-03-29T13:25:59Z</time></trkpt><trkpt lat="44.706871291496675" lon="9.377241160302187"><ele>345.0</ele><time>2026-03-29T13:26:00Z</time></trkpt><trkpt lat="44.70680050982455" lon="9.37729966724711"><ele>345.0</ele><time>2026-03-29T13:26:01Z</time></trkpt><trkpt lat="44.70671755326495" lon="9.377330376003703"><ele>345.8</ele><time>2026-03-29T13:26:02Z</time></trkpt><trkpt lat="44.70663359981585" lon="9.377316806346073"><ele>346.6</ele><time>2026-03-29T13:26:03Z</time></trkpt><trkpt lat="44.706551011535566" lon="9.377270239101213"><ele>347.4</ele><time>2026-03-29T13:26:04Z</time></trkpt><trkpt lat="44.70647277110183" lon="9.377200876628944"><ele>348.2</ele><time>2026-03-29T13:26:05Z</time></trkpt><trkpt lat="44.706389638910636" lon="9.377120984851414"><ele>349.0</ele><time>2026-03-29T13:26:06Z</time></trkpt><trkpt lat="44.70629661840159" lon="9.37704003547365"><ele>349.0</ele><time>2026-03-29T13:26:07Z</time></trkpt><trkpt lat="44.706198738555535" lon="9.376948596199078"><ele>349.0</ele><time>2026-03-29T13:26:08Z</time></trkpt><trkpt lat="44.706096960294516" lon="9.376844128152468"><ele>349.0</ele><time>2026-03-29T13:26:09Z</time></trkpt><trkpt lat="44.70598980068004" lon="9.376732051866691"><ele>349.0</ele><time>2026-03-29T13:26:10Z</time></trkpt><trkpt lat="44.705883384185206" lon="9.376601606586673"><ele>348.25</ele><time>2026-03-29T13:26:11Z</time></trkpt><trkpt lat="44.705796054824816" lon="9.37645555752711"><ele>347.5</ele><time>2026-03-29T13:26:12Z</time></trkpt><trkpt lat="44.705736222001974" lon="9.376300975110983"><ele>346.75</ele><time>2026-03-29T13:26:13Z</time></trkpt><trkpt lat="44.705677034678324" lon="9.376136174641172"><ele>346.0</ele><time>2026-03-29T13:26:14Z</time></trkpt><trkpt lat="44.70561725248537" lon="9.375970362743807"><ele>347.75</ele><time>2026-03-29T13:26:15Z</time></trkpt><trkpt lat="44.7055619499363" lon="9.375801600601134"><ele>349.5</ele><time>2026-03-29T13:26:16Z</time></trkpt><trkpt lat="44.70553164965834" lon="9.37562705288508"><ele>351.25</ele><time>2026-03-29T13:26:17Z</time></trkpt><trkpt lat="44.70553009093429" lon="9.375452363724175"><ele>353.0</ele><time>2026-03-29T13:26:18Z</time></trkpt><trkpt lat="44.70558321945676" lon="9.375283071829104"><ele>354.0</ele><time>2026-03-29T13:26:19Z</time></trkpt><trkpt lat="44.70561774891461" lon="9.37509695740598"><ele>355.0</ele><time>2026-03-29T13:26:20Z</time></trkpt><trkpt lat="44.70567513992101" lon="9.374911217409863"><ele>356.0</ele><time>2026-03-29T13:26:21Z</time></trkpt><trkpt lat="44.70573321659708" lon="9.374718374430305"><ele>357.0</ele><time>2026-03-29T13:26:22Z</time></trkpt><trkpt lat="44.70578310584659" lon="9.37451501892487"><ele>358.0</ele><time>2026-03-29T13:26:23Z</time></trkpt><trkpt lat="44.70582311586703" lon="9.374315091423858"><ele>359.0</ele><time>2026-03-29T13:26:24Z</time></trkpt><trkpt lat="44.7058516041409" lon="9.37411985740245"><ele>360.0</ele><time>2026-03-29T13:26:25Z</time></trkpt><trkpt lat="44.70586957355219" lon="9.373960267769977"><ele>361.0</ele><time>2026-03-29T13:26:26Z</time></trkpt><trkpt lat="44.70583046394729" lon="9.373815587494331"><ele>365.5</ele><time>2026-03-29T13:26:27Z</time></trkpt><trkpt lat="44.70574813748872" lon="9.373686424249117"><ele>370.0</ele><time>2026-03-29T13:26:28Z</time></trkpt><trkpt lat="44.70563794811616" lon="9.373565087198589"><ele>374.5</ele><time>2026-03-29T13:26:29Z</time></trkpt><trkpt lat="44.70553414580705" lon="9.373425258881804"><ele>379.0</ele><time>2026-03-29T13:26:30Z</time></trkpt><trkpt lat="44.70543463593668" lon="9.373263778392474"><ele>379.0</ele><time>2026-03-29T13:26:30.999Z</time></trkpt><trkpt lat="44.70534678054453" lon="9.373119574911206"><ele>379.0</ele><time>2026-03-29T13:26:31.999Z</time></trkpt><trkpt lat="44.70526340027387" lon="9.373007187200576"><ele>379.0</ele><time>2026-03-29T13:26:32.999Z</time></trkpt><trkpt lat="44.70514302207662" lon="9.372948535806605"><ele>379.0</ele><time>2026-03-29T13:26:33.999Z</time></trkpt><trkpt lat="44.70499560307693" lon="9.372940109882835"><ele>383.3333333333333</ele><time>2026-03-29T13:26:34.999Z</time></trkpt><trkpt lat="44.70484201004023" lon="9.372905840992694"><ele>387.66666666666663</ele><time>2026-03-29T13:26:35.999Z</time></trkpt><trkpt lat="44.70470064263304" lon="9.372820110226796"><ele>392.0</ele><time>2026-03-29T13:26:36.999Z</time></trkpt><trkpt lat="44.70457060932661" lon="9.372741364886844"><ele>392.0</ele><time>2026-03-29T13:26:37.999Z</time></trkpt><trkpt lat="44.70443402509649" lon="9.37274350545923"><ele>392.0</ele><time>2026-03-29T13:26:38.999Z</time></trkpt><trkpt lat="44.70428842834563" lon="9.372805998701915"><ele>392.0</ele><time>2026-03-29T13:26:39.999Z</time></trkpt><trkpt lat="44.704142775940795" lon="9.372848964885234"><ele>392.0</ele><time>2026-03-29T13:26:40.999Z</time></trkpt><trkpt lat="44.704023412888745" lon="9.372792313742199"><ele>390.5</ele><time>2026-03-29T13:26:41.999Z</time></trkpt><trkpt lat="44.703910375355356" lon="9.372701468054272"><ele>389.0</ele><time>2026-03-29T13:26:42.999Z</time></trkpt><trkpt lat="44.70378211496479" lon="9.372594454023554"><ele>387.5</ele><time>2026-03-29T13:26:43.999Z</time></trkpt><trkpt lat="44.70366935104473" lon="9.372462802349895"><ele>386.0</ele><time>2026-03-29T13:26:44.999Z</time></trkpt><trkpt lat="44.70357339846311" lon="9.37229655662388"><ele>386.66666666666663</ele><time>2026-03-29T13:26:45.999Z</time></trkpt><trkpt lat="44.70346816599663" lon="9.372100762692885"><ele>387.33333333333337</ele><time>2026-03-29T13:26:46.999Z</time></trkpt><trkpt lat="44.70335474500876" lon="9.371901762686019"><ele>388.0</ele><time>2026-03-29T13:26:47.999Z</time></trkpt><trkpt lat="44.703259536593016" lon="9.371712264023198"><ele>388.0</ele><time>2026-03-29T13:26:48.999Z</time></trkpt><trkpt lat="44.70317159083131" lon="9.371568020028398"><ele>388.0</ele><time>2026-03-29T13:26:49.999Z</time></trkpt><trkpt lat="44.70305965141675" lon="9.37146174551423"><ele>388.0</ele><time>2026-03-29T13:26:50.999Z</time></trkpt><trkpt lat="44.702918912480186" lon="9.371408265589391"><ele>388.0</ele><time>2026-03-29T13:26:51.999Z</time></trkpt><trkpt lat="44.70276233888917" lon="9.371370781069837"><ele>392.0</ele><time>2026-03-29T13:26:52.999Z</time></trkpt><trkpt lat="44.70259568700599" lon="9.37133184391078"><ele>396.0</ele><time>2026-03-29T13:26:53.999Z</time></trkpt><trkpt lat="44.70243399737639" lon="9.371270472793631"><ele>400.0</ele><time>2026-03-29T13:26:54.999Z</time></trkpt><trkpt lat="44.702269006434655" lon="9.371204901960079"><ele>400.0</ele><time>2026-03-29T13:26:55.999Z</time></trkpt><trkpt lat="44.70211470948152" lon="9.371141621537777"><ele>400.0</ele><time>2026-03-29T13:26:56.999Z</time></trkpt><trkpt lat="44.701984888175566" lon="9.371066831081238"><ele>400.0</ele><time>2026-03-29T13:26:57.999Z</time></trkpt><trkpt lat="44.701885137505364" lon="9.37093841429574"><ele>400.0</ele><time>2026-03-29T13:26:58.999Z</time></trkpt><trkpt lat="44.70180251966942" lon="9.370783210618459"><ele>397.0</ele><time>2026-03-29T13:26:59.999Z</time></trkpt><trkpt lat="44.701756897763005" lon="9.3706266309258"><ele>394.0</ele><time>2026-03-29T13:27:00.999Z</time></trkpt><trkpt lat="44.70177583100018" lon="9.370456147323708"><ele>391.0</ele><time>2026-03-29T13:27:01.999Z</time></trkpt><trkpt lat="44.70180229096532" lon="9.370279090864392"><ele>388.0</ele><time>2026-03-29T13:27:02.999Z</time></trkpt><trkpt lat="44.70188314920268" lon="9.370119409429634"><ele>388.0</ele><time>2026-03-29T13:27:03.999Z</time></trkpt><trkpt lat="44.70194230832337" lon="9.369975697452265"><ele>388.0</ele><time>2026-03-29T13:27:04.999Z</time></trkpt><trkpt lat="44.70194565709033" lon="9.3698325329071"><ele>388.0</ele><time>2026-03-29T13:27:05.999Z</time></trkpt><trkpt lat="44.70188615896715" lon="9.369697411706564"><ele>388.0</ele><time>2026-03-29T13:27:06.999Z</time></trkpt><trkpt lat="44.70179391717565" lon="9.369564162949057"><ele>392.75</ele><time>2026-03-29T13:27:07.999Z</time></trkpt><trkpt lat="44.70173984504571" lon="9.369391831064398"><ele>397.5</ele><time>2026-03-29T13:27:08.999Z</time></trkpt><trkpt lat="44.70171060157211" lon="9.369195569205267"><ele>402.25</ele><time>2026-03-29T13:27:09.999Z</time></trkpt><trkpt lat="44.70168132754999" lon="9.369019252243039"><ele>407.0</ele><time>2026-03-29T13:27:10.999Z</time></trkpt><trkpt lat="44.70165248319414" lon="9.368878407306127"><ele>412.5</ele><time>2026-03-29T13:27:11.999Z</time></trkpt><trkpt lat="44.7015800048697" lon="9.36876271967076"><ele>418.0</ele><time>2026-03-29T13:27:12.999Z</time></trkpt><trkpt lat="44.70146530891055" lon="9.368673608505834"><ele>423.5</ele><time>2026-03-29T13:27:13.999Z</time></trkpt><trkpt lat="44.70136194042903" lon="9.368558580740999"><ele>429.0</ele><time>2026-03-29T13:27:14.999Z</time></trkpt><trkpt lat="44.70131837607945" lon="9.36837143473982"><ele>429.0</ele><time>2026-03-29T13:27:15.999Z</time></trkpt><trkpt lat="44.70124231212392" lon="9.36818246858532"><ele>429.0</ele><time>2026-03-29T13:27:16.999Z</time></trkpt><trkpt lat="44.70117946352753" lon="9.367982678722383"><ele>429.0</ele><time>2026-03-29T13:27:17.999Z</time></trkpt><trkpt lat="44.70107753462265" lon="9.36781473581146"><ele>424.33333333333337</ele><time>2026-03-29T13:27:18.999Z</time></trkpt><trkpt lat="44.700945364813094" lon="9.367681840529855"><ele>419.6666666666667</ele><time>2026-03-29T13:27:19.999Z</time></trkpt><trkpt lat="44.70080180724223" lon="9.367563832230468"><ele>415.0</ele><time>2026-03-29T13:27:20.999Z</time></trkpt><trkpt lat="44.70067597182369" lon="9.367441957124218"><ele>415.0</ele><time>2026-03-29T13:27:21.999Z</time></trkpt><trkpt lat="44.700566865333116" lon="9.367329276921255"><ele>415.0</ele><time>2026-03-29T13:27:22.999Z</time></trkpt><trkpt lat="44.700487487885034" lon="9.367206523756286"><ele>415.0</ele><time>2026-03-29T13:27:23.999Z</time></trkpt><trkpt lat="44.70044133406602" lon="9.367055202535369"><ele>415.0</ele><time>2026-03-29T13:27:24.999Z</time></trkpt><trkpt lat="44.70045626431997" lon="9.366883231259449"><ele>420.0</ele><time>2026-03-29T13:27:25.999Z</time></trkpt><trkpt lat="44.700478808747654" lon="9.3667002826822"><ele>425.0</ele><time>2026-03-29T13:27:26.999Z</time></trkpt><trkpt lat="44.700531462904394" lon="9.366545237405667"><ele>430.0</ele><time>2026-03-29T13:27:27.999Z</time></trkpt><trkpt lat="44.70053875973348" lon="9.366410774692968"><ele>435.0</ele><time>2026-03-29T13:27:28.999Z</time></trkpt><trkpt lat="44.70048400655767" lon="9.366287878185128"><ele>436.5</ele><time>2026-03-29T13:27:29.999Z</time></trkpt><trkpt lat="44.70038793240071" lon="9.36618921664036"><ele>438.0</ele><time>2026-03-29T13:27:30.999Z</time></trkpt><trkpt lat="44.700286039087835" lon="9.366115609589576"><ele>439.5</ele><time>2026-03-29T13:27:31.999Z</time></trkpt><trkpt lat="44.70016506537146" lon="9.366103399449841"><ele>441.0</ele><time>2026-03-29T13:27:32.999Z</time></trkpt><trkpt lat="44.70002368914475" lon="9.36615252180393"><ele>441.0</ele><time>2026-03-29T13:27:33.998Z</time></trkpt><trkpt lat="44.69987116834526" lon="9.366213654262335"><ele>441.0</ele><time>2026-03-29T13:27:34.998Z</time></trkpt><trkpt lat="44.69970848691738" lon="9.366262530023036"><ele>441.0</ele><time>2026-03-29T13:27:35.998Z</time></trkpt><trkpt lat="44.69954726173179" lon="9.366306431994364"><ele>436.5</ele><time>2026-03-29T13:27:36.998Z</time></trkpt><trkpt lat="44.69940380704152" lon="9.366339017454901"><ele>432.0</ele><time>2026-03-29T13:27:37.998Z</time></trkpt><trkpt lat="44.69928346562449" lon="9.36633622035011"><ele>427.5</ele><time>2026-03-29T13:27:38.998Z</time></trkpt><trkpt lat="44.69921215365882" lon="9.366232229440227"><ele>423.0</ele><time>2026-03-29T13:27:39.998Z</time></trkpt><trkpt lat="44.699121705457905" lon="9.366148802465913"><ele>423.0</ele><time>2026-03-29T13:27:40.998Z</time></trkpt><trkpt lat="44.699028212846045" lon="9.366057255042366"><ele>423.0</ele><time>2026-03-29T13:27:41.998Z</time></trkpt><trkpt lat="44.69892581721395" lon="9.366006830382869"><ele>423.0</ele><time>2026-03-29T13:27:42.998Z</time></trkpt><trkpt lat="44.69885506513122" lon="9.365924093319867"><ele>423.0</ele><time>2026-03-29T13:27:43.998Z</time></trkpt><trkpt lat="44.69882759580794" lon="9.365794596787161"><ele>423.0</ele><time>2026-03-29T13:27:44.998Z</time></trkpt><trkpt lat="44.69888259330617" lon="9.365646462545428"><ele>432.5</ele><time>2026-03-29T13:27:45.998Z</time></trkpt><trkpt lat="44.69887712925856" lon="9.36549392417018"><ele>442.0</ele><time>2026-03-29T13:27:46.998Z</time></trkpt><trkpt lat="44.69883421720739" lon="9.365327938148365"><ele>451.5</ele><time>2026-03-29T13:27:47.998Z</time></trkpt><trkpt lat="44.69875460624444" lon="9.365150860481496"><ele>461.0</ele><time>2026-03-29T13:27:48.998Z</time></trkpt><trkpt lat="44.69867805075201" lon="9.36498764932307"><ele>461.0</ele><time>2026-03-29T13:27:49.998Z</time></trkpt><trkpt lat="44.69860234534714" lon="9.36486285258083"><ele>461.0</ele><time>2026-03-29T13:27:50.998Z</time></trkpt><trkpt lat="44.698500770048994" lon="9.364794488271327"><ele>461.0</ele><time>2026-03-29T13:27:51.998Z</time></trkpt><trkpt lat="44.69837416181622" lon="9.36478113363558"><ele>461.0</ele><time>2026-03-29T13:27:52.998Z</time></trkpt><trkpt lat="44.69824705092503" lon="9.364788234118654"><ele>461.25</ele><time>2026-03-29T13:27:53.998Z</time></trkpt><trkpt lat="44.69813685547172" lon="9.364745212653297"><ele>461.5</ele><time>2026-03-29T13:27:54.998Z</time></trkpt><trkpt lat="44.698047212231685" lon="9.3646140353659"><ele>461.75</ele><time>2026-03-29T13:27:55.998Z</time></trkpt><trkpt lat="44.69797229033184" lon="9.364466382856383"><ele>462.0</ele><time>2026-03-29T13:27:56.998Z</time></trkpt><trkpt lat="44.69789135828562" lon="9.364308141896139"><ele>462.0</ele><time>2026-03-29T13:27:57.998Z</time></trkpt><trkpt lat="44.697841316845924" lon="9.364148432641247"><ele>462.0</ele><time>2026-03-29T13:27:58.998Z</time></trkpt><trkpt lat="44.697770037905684" lon="9.364049207009005"><ele>462.0</ele><time>2026-03-29T13:27:59.998Z</time></trkpt><trkpt lat="44.69766395469937" lon="9.364005641814796"><ele>462.0</ele><time>2026-03-29T13:28:00.998Z</time></trkpt><trkpt lat="44.69752886518596" lon="9.364016989054608"><ele>455.25</ele><time>2026-03-29T13:28:02Z</time></trkpt><trkpt lat="44.697381075035985" lon="9.364022647642983"><ele>448.5</ele><time>2026-03-29T13:28:03Z</time></trkpt><trkpt lat="44.6972376199502" lon="9.363993057679892"><ele>441.75</ele><time>2026-03-29T13:28:04Z</time></trkpt><trkpt lat="44.697108618260806" lon="9.363941197804241"><ele>435.0</ele><time>2026-03-29T13:28:05Z</time></trkpt><trkpt lat="44.69698819249425" lon="9.363947014752418"><ele>437.25</ele><time>2026-03-29T13:28:06Z</time></trkpt><trkpt lat="44.69686837403005" lon="9.364015896718513"><ele>439.5</ele><time>2026-03-29T13:28:07Z</time></trkpt><trkpt lat="44.69673127169045" lon="9.364055244675384"><ele>441.75</ele><time>2026-03-29T13:28:08Z</time></trkpt><trkpt lat="44.69657828698486" lon="9.36402961887788"><ele>444.0</ele><time>2026-03-29T13:28:09Z</time></trkpt><trkpt lat="44.696415424498504" lon="9.363999768655685"><ele>444.0</ele><time>2026-03-29T13:28:10Z</time></trkpt><trkpt lat="44.696251417358866" lon="9.36398027840896"><ele>444.0</ele><time>2026-03-29T13:28:11Z</time></trkpt><trkpt lat="44.69609562983212" lon="9.36395332414979"><ele>444.0</ele><time>2026-03-29T13:28:12Z</time></trkpt><trkpt lat="44.69595060864445" lon="9.363915983070823"><ele>457.0</ele><time>2026-03-29T13:28:13Z</time></trkpt><trkpt lat="44.69581718212913" lon="9.363838388080248"><ele>470.0</ele><time>2026-03-29T13:28:14Z</time></trkpt><trkpt lat="44.695672781986104" lon="9.363781404297395"><ele>483.0</ele><time>2026-03-29T13:28:15Z</time></trkpt><trkpt lat="44.69550717526881" lon="9.363787177167058"><ele>483.0</ele><time>2026-03-29T13:28:16Z</time></trkpt><trkpt lat="44.695330872480426" lon="9.36383118869675"><ele>483.0</ele><time>2026-03-29T13:28:17Z</time></trkpt><trkpt lat="44.69514955550649" lon="9.363879465006356"><ele>483.0</ele><time>2026-03-29T13:28:18Z</time></trkpt><trkpt lat="44.694965507250984" lon="9.363920367015782"><ele>470.66666666666663</ele><time>2026-03-29T13:28:19Z</time></trkpt><trkpt lat="44.694783623233185" lon="9.363952341471716"><ele>458.3333333333333</ele><time>2026-03-29T13:28:20Z</time></trkpt><trkpt lat="44.69462293734898" lon="9.363976883170448"><ele>446.0</ele><time>2026-03-29T13:28:21Z</time></trkpt><trkpt lat="44.69448923483579" lon="9.363999416990637"><ele>444.99999999999994</ele><time>2026-03-29T13:28:22Z</time></trkpt><trkpt lat="44.69438232537236" lon="9.364009733804103"><ele>444.0</ele><time>2026-03-29T13:28:23Z</time></trkpt><trkpt lat="44.69430281729455" lon="9.363977840124125"><ele>443.0</ele><time>2026-03-29T13:28:24Z</time></trkpt><trkpt lat="44.69426771965004" lon="9.363895197886071"><ele>442.0</ele><time>2026-03-29T13:28:25Z</time></trkpt><trkpt lat="44.694276399745526" lon="9.363801147813477"><ele>440.99999999999994</ele><time>2026-03-29T13:28:26Z</time></trkpt><trkpt lat="44.69434509010947" lon="9.363717819269377"><ele>440.0</ele><time>2026-03-29T13:28:27Z</time></trkpt><trkpt lat="44.694438218224285" lon="9.36366431968757"><ele>446.0</ele><time>2026-03-29T13:28:28Z</time></trkpt><trkpt lat="44.69454838232757" lon="9.363620487553835"><ele>452.0</ele><time>2026-03-29T13:28:29Z</time></trkpt><trkpt lat="44.6946286254827" lon="9.363551802087834"><ele>458.0</ele><time>2026-03-29T13:28:30Z</time></trkpt><trkpt lat="44.69467071096064" lon="9.363457507326364"><ele>464.0</ele><time>2026-03-29T13:28:31Z</time></trkpt><trkpt lat="44.69467152060726" lon="9.363339772488615"><ele>470.0</ele><time>2026-03-29T13:28:32Z</time></trkpt><trkpt lat="44.69464294395677" lon="9.363195541150434"><ele>470.0</ele><time>2026-03-29T13:28:33Z</time></trkpt><trkpt lat="44.694603211879034" lon="9.363038664738184"><ele>470.0</ele><time>2026-03-29T13:28:34Z</time></trkpt><trkpt lat="44.69459549173651" lon="9.362877352076389"><ele>470.0</ele><time>2026-03-29T13:28:35Z</time></trkpt><trkpt lat="44.69464049377433" lon="9.36272456168964"><ele>470.0</ele><time>2026-03-29T13:28:35.999Z</time></trkpt><trkpt lat="44.694737063983354" lon="9.362592585385471"><ele>467.75</ele><time>2026-03-29T13:28:36.999Z</time></trkpt><trkpt lat="44.694803831912694" lon="9.36244131263387"><ele>465.5</ele><time>2026-03-29T13:28:37.999Z</time></trkpt><trkpt lat="44.69488382579097" lon="9.362322395162867"><ele>463.25</ele><time>2026-03-29T13:28:38.999Z</time></trkpt><trkpt lat="44.6949849657385" lon="9.36222815808951"><ele>461.0</ele><time>2026-03-29T13:28:39.999Z</time></trkpt><trkpt lat="44.6951121558085" lon="9.362170826002478"><ele>457.0</ele><time>2026-03-29T13:28:40.999Z</time></trkpt><trkpt lat="44.69523688062191" lon="9.362126529427536"><ele>453.0</ele><time>2026-03-29T13:28:41.999Z</time></trkpt><trkpt lat="44.695340079364136" lon="9.362062723456846"><ele>449.0</ele><time>2026-03-29T13:28:42.999Z</time></trkpt><trkpt lat="44.6954113047141" lon="9.361949565477838"><ele>445.0</ele><time>2026-03-29T13:28:43.999Z</time></trkpt><trkpt lat="44.69542866438977" lon="9.361784585521026"><ele>453.25</ele><time>2026-03-29T13:28:44.999Z</time></trkpt><trkpt lat="44.69541223100153" lon="9.361603102947413"><ele>461.5</ele><time>2026-03-29T13:28:45.999Z</time></trkpt><trkpt lat="44.69537079371199" lon="9.361421555672257"><ele>469.75</ele><time>2026-03-29T13:28:46.999Z</time></trkpt><trkpt lat="44.69532440497697" lon="9.36124581000317"><ele>478.0</ele><time>2026-03-29T13:28:47.999Z</time></trkpt><trkpt lat="44.695300314311844" lon="9.361057934493083"><ele>478.0</ele><time>2026-03-29T13:28:48.999Z</time></trkpt><trkpt lat="44.69531921875636" lon="9.360860939701857"><ele>478.0</ele><time>2026-03-29T13:28:49.999Z</time></trkpt><trkpt lat="44.69536685965677" lon="9.360657543757226"><ele>478.0</ele><time>2026-03-29T13:28:50.999Z</time></trkpt><trkpt lat="44.69542035452611" lon="9.360446904429358"><ele>478.6666666666667</ele><time>2026-03-29T13:28:51.999Z</time></trkpt><trkpt lat="44.69548193006765" lon="9.360230516363623"><ele>479.33333333333337</ele><time>2026-03-29T13:28:52.999Z</time></trkpt><trkpt lat="44.69554353704248" lon="9.360018606094293"><ele>480.0</ele><time>2026-03-29T13:28:53.999Z</time></trkpt><trkpt lat="44.69559468834571" lon="9.359827691236948"><ele>480.5</ele><time>2026-03-29T13:28:54.999Z</time></trkpt><trkpt lat="44.69561903042569" lon="9.35965135113686"><ele>481.0</ele><time>2026-03-29T13:28:55.999Z</time></trkpt><trkpt lat="44.69561392357924" lon="9.35948415397075"><ele>481.5</ele><time>2026-03-29T13:28:56.999Z</time></trkpt><trkpt lat="44.69557863084909" lon="9.359332285499391"><ele>482.0</ele><time>2026-03-29T13:28:57.999Z</time></trkpt><trkpt lat="44.69550457674518" lon="9.359208610018005"><ele>482.0</ele><time>2026-03-29T13:28:58.999Z</time></trkpt><trkpt lat="44.695406337205725" lon="9.359115051209693"><ele>482.0</ele><time>2026-03-29T13:28:59.999Z</time></trkpt><trkpt lat="44.69528899360688" lon="9.35907122696326"><ele>482.0</ele><time>2026-03-29T13:29:00.999Z</time></trkpt><trkpt lat="44.69516853680273" lon="9.359077380763999"><ele>482.0</ele><time>2026-03-29T13:29:01.999Z</time></trkpt><trkpt lat="44.69503992686421" lon="9.359142524122868"><ele>479.75</ele><time>2026-03-29T13:29:02.999Z</time></trkpt><trkpt lat="44.69489678686527" lon="9.359214696934691"><ele>477.5</ele><time>2026-03-29T13:29:03.999Z</time></trkpt><trkpt lat="44.6947527294115" lon="9.35925904072061"><ele>475.25</ele><time>2026-03-29T13:29:04.999Z</time></trkpt><trkpt lat="44.69462123610307" lon="9.359295194228924"><ele>473.0</ele><time>2026-03-29T13:29:05.999Z</time></trkpt><trkpt lat="44.69450929527013" lon="9.359309276539632"><ele>473.0</ele><time>2026-03-29T13:29:06.999Z</time></trkpt><trkpt lat="44.69442480685068" lon="9.359253637619751"><ele>472.99999999999994</ele><time>2026-03-29T13:29:07.999Z</time></trkpt><trkpt lat="44.69435607747611" lon="9.359156567571738"><ele>472.99999999999994</ele><time>2026-03-29T13:29:08.999Z</time></trkpt><trkpt lat="44.69428754900131" lon="9.359013101723555"><ele>473.0</ele><time>2026-03-29T13:29:09.999Z</time></trkpt><trkpt lat="44.6942067547862" lon="9.358877831107588"><ele>473.0</ele><time>2026-03-29T13:29:10.999Z</time></trkpt><trkpt lat="44.69411972512" lon="9.358737984548162"><ele>471.79999999999995</ele><time>2026-03-29T13:29:11.999Z</time></trkpt><trkpt lat="44.69403585694802" lon="9.358609993739364"><ele>470.59999999999997</ele><time>2026-03-29T13:29:12.999Z</time></trkpt><trkpt lat="44.693969363846826" lon="9.358494211455737"><ele>469.40000000000003</ele><time>2026-03-29T13:29:13.999Z</time></trkpt><trkpt lat="44.693928023114886" lon="9.358385176241413"><ele>468.20000000000005</ele><time>2026-03-29T13:29:14.999Z</time></trkpt><trkpt lat="44.69392911775945" lon="9.358263425004694"><ele>467.0</ele><time>2026-03-29T13:29:15.999Z</time></trkpt><trkpt lat="44.69396399909704" lon="9.358140343369458"><ele>461.0</ele><time>2026-03-29T13:29:16.999Z</time></trkpt><trkpt lat="44.69402635398323" lon="9.358016323569771"><ele>455.0</ele><time>2026-03-29T13:29:17.999Z</time></trkpt><trkpt lat="44.694099901329615" lon="9.357886126373534"><ele>449.0</ele><time>2026-03-29T13:29:18.999Z</time></trkpt><trkpt lat="44.6942033104691" lon="9.357773501644116"><ele>443.0</ele><time>2026-03-29T13:29:19.999Z</time></trkpt><trkpt lat="44.69432624262644" lon="9.357687190956105"><ele>453.75</ele><time>2026-03-29T13:29:20.999Z</time></trkpt><trkpt lat="44.694450637613976" lon="9.357606914050308"><ele>464.5</ele><time>2026-03-29T13:29:21.999Z</time></trkpt><trkpt lat="44.69456062925882" lon="9.357520956097686"><ele>475.25</ele><time>2026-03-29T13:29:22.999Z</time></trkpt><trkpt lat="44.69464604518548" lon="9.357391481219867"><ele>486.0</ele><time>2026-03-29T13:29:23.999Z</time></trkpt><trkpt lat="44.69470721923349" lon="9.357211303042074"><ele>481.66666666666663</ele><time>2026-03-29T13:29:24.999Z</time></trkpt><trkpt lat="44.69476294859141" lon="9.357011206212016"><ele>477.3333333333333</ele><time>2026-03-29T13:29:25.999Z</time></trkpt><trkpt lat="44.694817132187005" lon="9.35680377543912"><ele>473.0</ele><time>2026-03-29T13:29:26.999Z</time></trkpt><trkpt lat="44.6948639475837" lon="9.356585937087427"><ele>473.0</ele><time>2026-03-29T13:29:27.999Z</time></trkpt><trkpt lat="44.694904059426335" lon="9.356379023969284"><ele>473.0</ele><time>2026-03-29T13:29:28.999Z</time></trkpt><trkpt lat="44.69493743249922" lon="9.356203799217857"><ele>473.0</ele><time>2026-03-29T13:29:29.999Z</time></trkpt><trkpt lat="44.69494874513352" lon="9.35605697735652"><ele>473.0</ele><time>2026-03-29T13:29:30.999Z</time></trkpt><trkpt lat="44.69490896071008" lon="9.355926664691635"><ele>472.25</ele><time>2026-03-29T13:29:31.999Z</time></trkpt><trkpt lat="44.694825783235785" lon="9.355821330568938"><ele>471.5</ele><time>2026-03-29T13:29:32.999Z</time></trkpt><trkpt lat="44.69476139828607" lon="9.355698331043195"><ele>470.75</ele><time>2026-03-29T13:29:33.999Z</time></trkpt><trkpt lat="44.69473038671248" lon="9.355544877937776"><ele>470.0</ele><time>2026-03-29T13:29:34.999Z</time></trkpt><trkpt lat="44.69475536601692" lon="9.355377883905799"><ele>469.25</ele><time>2026-03-29T13:29:35.999Z</time></trkpt><trkpt lat="44.694792999116714" lon="9.355201038001974"><ele>468.5</ele><time>2026-03-29T13:29:36.999Z</time></trkpt><trkpt lat="44.694830087362476" lon="9.355014340958665"><ele>467.75</ele><time>2026-03-29T13:29:37.999Z</time></trkpt><trkpt lat="44.69486520425069" lon="9.354831507436918"><ele>467.0</ele><time>2026-03-29T13:29:38.998Z</time></trkpt><trkpt lat="44.69488811715224" lon="9.35466473731762"><ele>469.75</ele><time>2026-03-29T13:29:39.998Z</time></trkpt><trkpt lat="44.69486193329365" lon="9.354507742969671"><ele>472.5</ele><time>2026-03-29T13:29:40.998Z</time></trkpt><trkpt lat="44.694787926552344" lon="9.354358729297587"><ele>475.25</ele><time>2026-03-29T13:29:41.998Z</time></trkpt><trkpt lat="44.69471456970817" lon="9.35420927119792"><ele>478.0</ele><time>2026-03-29T13:29:42.998Z</time></trkpt><trkpt lat="44.694672045419495" lon="9.354032443299351"><ele>483.0</ele><time>2026-03-29T13:29:43.998Z</time></trkpt><trkpt lat="44.69468096936195" lon="9.353844099828732"><ele>487.99999999999994</ele><time>2026-03-29T13:29:44.998Z</time></trkpt><trkpt lat="44.694709116298725" lon="9.353689035478029"><ele>492.99999999999994</ele><time>2026-03-29T13:29:45.998Z</time></trkpt><trkpt lat="44.69469439794823" lon="9.35356282338532"><ele>498.0</ele><time>2026-03-29T13:29:46.998Z</time></trkpt><trkpt lat="44.69463063460384" lon="9.353465826832128"><ele>503.0</ele><time>2026-03-29T13:29:47.998Z</time></trkpt><trkpt lat="44.694539861108154" lon="9.353393454420877"><ele>493.0</ele><time>2026-03-29T13:29:48.998Z</time></trkpt><trkpt lat="44.69441349396764" lon="9.353414836714002"><ele>483.0</ele><time>2026-03-29T13:29:49.998Z</time></trkpt><trkpt lat="44.6942844047632" lon="9.353449143390614"><ele>473.0</ele><time>2026-03-29T13:29:50.998Z</time></trkpt><trkpt lat="44.69415620441171" lon="9.353477193186151"><ele>463.0</ele><time>2026-03-29T13:29:51.998Z</time></trkpt><trkpt lat="44.69404264962433" lon="9.353494203955636"><ele>463.0</ele><time>2026-03-29T13:29:52.998Z</time></trkpt><trkpt lat="44.69394700523392" lon="9.353455663025583"><ele>462.99999999999994</ele><time>2026-03-29T13:29:53.998Z</time></trkpt><trkpt lat="44.69389419274429" lon="9.353324132310131"><ele>462.99999999999994</ele><time>2026-03-29T13:29:54.998Z</time></trkpt><trkpt lat="44.69381465111246" lon="9.353248766362885"><ele>463.0</ele><time>2026-03-29T13:29:55.998Z</time></trkpt><trkpt lat="44.693722277916436" lon="9.353196599969515"><ele>463.0</ele><time>2026-03-29T13:29:56.998Z</time></trkpt><trkpt lat="44.69360822418509" lon="9.35320158083004"><ele>459.0</ele><time>2026-03-29T13:29:57.998Z</time></trkpt><trkpt lat="44.693501118923685" lon="9.353221204754368"><ele>454.99999999999994</ele><time>2026-03-29T13:29:58.998Z</time></trkpt><trkpt lat="44.69340296037668" lon="9.353207335393055"><ele>450.99999999999994</ele><time>2026-03-29T13:29:59.998Z</time></trkpt><trkpt lat="44.69331913924721" lon="9.353135439502474"><ele>447.0</ele><time>2026-03-29T13:30:00.998Z</time></trkpt><trkpt lat="44.69327359927176" lon="9.35302614491714"><ele>443.0</ele><time>2026-03-29T13:30:01.998Z</time></trkpt><trkpt lat="44.693271885927004" lon="9.35289586285956"><ele>443.0</ele><time>2026-03-29T13:30:02.998Z</time></trkpt><trkpt lat="44.693300819861236" lon="9.35275010723802"><ele>442.99999999999994</ele><time>2026-03-29T13:30:03.998Z</time></trkpt><trkpt lat="44.693332434324056" lon="9.352607385734496"><ele>442.99999999999994</ele><time>2026-03-29T13:30:04.998Z</time></trkpt><trkpt lat="44.693344898917985" lon="9.352450765777132"><ele>443.0</ele><time>2026-03-29T13:30:05.998Z</time></trkpt><trkpt lat="44.69331436469013" lon="9.352292713651686"><ele>443.0</ele><time>2026-03-29T13:30:06.998Z</time></trkpt><trkpt lat="44.69325220248743" lon="9.352144993167771"><ele>449.0</ele><time>2026-03-29T13:30:08Z</time></trkpt><trkpt lat="44.69318029711227" lon="9.352009344053279"><ele>455.0</ele><time>2026-03-29T13:30:09Z</time></trkpt><trkpt lat="44.69311233950046" lon="9.351870887895313"><ele>461.0</ele><time>2026-03-29T13:30:10Z</time></trkpt><trkpt lat="44.693049409791165" lon="9.35173241477927"><ele>467.0</ele><time>2026-03-29T13:30:11Z</time></trkpt><trkpt lat="44.69298425174931" lon="9.351593451557244"><ele>467.0</ele><time>2026-03-29T13:30:12Z</time></trkpt><trkpt lat="44.69293458663766" lon="9.351445103456141"><ele>467.00000000000006</ele><time>2026-03-29T13:30:13Z</time></trkpt><trkpt lat="44.69291497574986" lon="9.351290123157721"><ele>467.00000000000006</ele><time>2026-03-29T13:30:14Z</time></trkpt><trkpt lat="44.69288590974014" lon="9.35114703230089"><ele>467.0</ele><time>2026-03-29T13:30:15Z</time></trkpt><trkpt lat="44.69281918652386" lon="9.351026354978105"><ele>467.0</ele><time>2026-03-29T13:30:16Z</time></trkpt><trkpt lat="44.692730090638534" lon="9.350923696578262"><ele>467.25</ele><time>2026-03-29T13:30:17Z</time></trkpt><trkpt lat="44.692639230350366" lon="9.350821811966476"><ele>467.5</ele><time>2026-03-29T13:30:18Z</time></trkpt><trkpt lat="44.69255072431107" lon="9.350713128231149"><ele>467.75</ele><time>2026-03-29T13:30:19Z</time></trkpt><trkpt lat="44.69247209159556" lon="9.350590681899659"><ele>468.0</ele><time>2026-03-29T13:30:20Z</time></trkpt><trkpt lat="44.692411146136216" lon="9.350445926789911"><ele>468.0</ele><time>2026-03-29T13:30:21Z</time></trkpt><trkpt lat="44.69236332016638" lon="9.350287817077858"><ele>468.0</ele><time>2026-03-29T13:30:22Z</time></trkpt><trkpt lat="44.69230095902082" lon="9.350140107201131"><ele>468.0</ele><time>2026-03-29T13:30:23Z</time></trkpt><trkpt lat="44.69220889732018" lon="9.350035362444054"><ele>468.0</ele><time>2026-03-29T13:30:24Z</time></trkpt><trkpt lat="44.69211572645251" lon="9.349942302167788"><ele>468.0</ele><time>2026-03-29T13:30:25Z</time></trkpt><trkpt lat="44.69205278419086" lon="9.349814436385028"><ele>467.99999999999994</ele><time>2026-03-29T13:30:26Z</time></trkpt><trkpt lat="44.692024123300904" lon="9.349654706024934"><ele>467.99999999999994</ele><time>2026-03-29T13:30:27Z</time></trkpt><trkpt lat="44.691977378873666" lon="9.349538891248008"><ele>468.0</ele><time>2026-03-29T13:30:28Z</time></trkpt><trkpt lat="44.691929825858736" lon="9.34942833838929"><ele>468.0</ele><time>2026-03-29T13:30:29Z</time></trkpt><trkpt lat="44.69183926643935" lon="9.349377022265331"><ele>460.59999999999997</ele><time>2026-03-29T13:30:30Z</time></trkpt><trkpt lat="44.69173242367709" lon="9.349349606249474"><ele>453.19999999999993</ele><time>2026-03-29T13:30:31Z</time></trkpt><trkpt lat="44.69163155481544" lon="9.349283277120861"><ele>445.8</ele><time>2026-03-29T13:30:32Z</time></trkpt><trkpt lat="44.69156130650016" lon="9.349182061617778"><ele>438.4</ele><time>2026-03-29T13:30:33Z</time></trkpt><trkpt lat="44.691514403351746" lon="9.349060529798617"><ele>431.0</ele><time>2026-03-29T13:30:34Z</time></trkpt><trkpt lat="44.69150004737951" lon="9.348910326493266"><ele>432.0</ele><time>2026-03-29T13:30:35Z</time></trkpt><trkpt lat="44.69156083171878" lon="9.348778443533627"><ele>433.0</ele><time>2026-03-29T13:30:36Z</time></trkpt><trkpt lat="44.6916456604766" lon="9.348676678807038"><ele>434.0</ele><time>2026-03-29T13:30:37Z</time></trkpt><trkpt lat="44.69170093188228" lon="9.348526930483564"><ele>435.0</ele><time>2026-03-29T13:30:38Z</time></trkpt><trkpt lat="44.691769393761035" lon="9.348394680635483"><ele>435.0</ele><time>2026-03-29T13:30:39Z</time></trkpt><trkpt lat="44.69181616865808" lon="9.348247645212446"><ele>435.0</ele><time>2026-03-29T13:30:40Z</time></trkpt><trkpt lat="44.69184047251152" lon="9.348108656462855"><ele>435.0</ele><time>2026-03-29T13:30:40.999Z</time></trkpt><trkpt lat="44.691865364124816" lon="9.347981576316652"><ele>435.0</ele><time>2026-03-29T13:30:41.999Z</time></trkpt><trkpt lat="44.691868765706175" lon="9.347856715434405"><ele>435.0</ele><time>2026-03-29T13:30:42.999Z</time></trkpt><trkpt lat="44.69182914760571" lon="9.347747378226622"><ele>436.4</ele><time>2026-03-29T13:30:43.999Z</time></trkpt><trkpt lat="44.69175193368863" lon="9.347677783550434"><ele>437.8</ele><time>2026-03-29T13:30:44.999Z</time></trkpt><trkpt lat="44.69165281099301" lon="9.347625748861963"><ele>439.20000000000005</ele><time>2026-03-29T13:30:45.999Z</time></trkpt><trkpt lat="44.69157319656352" lon="9.347543616986583"><ele>440.6</ele><time>2026-03-29T13:30:46.999Z</time></trkpt><trkpt lat="44.69151909265732" lon="9.347392227020364"><ele>442.0</ele><time>2026-03-29T13:30:47.999Z</time></trkpt><trkpt lat="44.69146530753299" lon="9.347260896417895"><ele>442.6</ele><time>2026-03-29T13:30:48.999Z</time></trkpt><trkpt lat="44.69144833142214" lon="9.347128438372087"><ele>443.20000000000005</ele><time>2026-03-29T13:30:49.999Z</time></trkpt><trkpt lat="44.69145687795252" lon="9.346997888902465"><ele>443.8</ele><time>2026-03-29T13:30:50.999Z</time></trkpt><trkpt lat="44.691514451007" lon="9.34686393999995"><ele>444.4</ele><time>2026-03-29T13:30:51.999Z</time></trkpt><trkpt lat="44.69157861228306" lon="9.346739226505122"><ele>445.0</ele><time>2026-03-29T13:30:52.999Z</time></trkpt><trkpt lat="44.69162086997642" lon="9.346622194875453"><ele>445.0</ele><time>2026-03-29T13:30:53.999Z</time></trkpt><trkpt lat="44.6916134706895" lon="9.346491234670726"><ele>445.0</ele><time>2026-03-29T13:30:54.999Z</time></trkpt><trkpt lat="44.691554280354346" lon="9.34636842170852"><ele>445.0</ele><time>2026-03-29T13:30:55.999Z</time></trkpt><trkpt lat="44.691453764533996" lon="9.34627959973029"><ele>445.0</ele><time>2026-03-29T13:30:56.999Z</time></trkpt><trkpt lat="44.69135181307579" lon="9.346199665327209"><ele>445.0</ele><time>2026-03-29T13:30:57.999Z</time></trkpt><trkpt lat="44.69125914226387" lon="9.346100673024084"><ele>445.0</ele><time>2026-03-29T13:30:58.999Z</time></trkpt><trkpt lat="44.69118388119246" lon="9.345970805234543"><ele>445.0</ele><time>2026-03-29T13:30:59.999Z</time></trkpt><trkpt lat="44.69114107715402" lon="9.34581589694747"><ele>445.0</ele><time>2026-03-29T13:31:00.999Z</time></trkpt><trkpt lat="44.69114032378901" lon="9.345641956961074"><ele>445.0</ele><time>2026-03-29T13:31:01.999Z</time></trkpt><trkpt lat="44.691159536155176" lon="9.345461804574336"><ele>445.0</ele><time>2026-03-29T13:31:02.999Z</time></trkpt><trkpt lat="44.69117650710072" lon="9.345282666881607"><ele>445.0</ele><time>2026-03-29T13:31:03.999Z</time></trkpt><trkpt lat="44.691181390013135" lon="9.34511671695095"><ele>445.0</ele><time>2026-03-29T13:31:04.999Z</time></trkpt><trkpt lat="44.69119920915447" lon="9.344964718469107"><ele>445.0</ele><time>2026-03-29T13:31:05.999Z</time></trkpt><trkpt lat="44.691253173157065" lon="9.34483206360575"><ele>445.0</ele><time>2026-03-29T13:31:06.999Z</time></trkpt><trkpt lat="44.69134574584987" lon="9.344756289424922"><ele>445.0</ele><time>2026-03-29T13:31:07.999Z</time></trkpt><trkpt lat="44.691447051214034" lon="9.3447435597837"><ele>445.0</ele><time>2026-03-29T13:31:08.999Z</time></trkpt><trkpt lat="44.691553501261254" lon="9.344674945147437"><ele>445.0</ele><time>2026-03-29T13:31:09.999Z</time></trkpt><trkpt lat="44.691668137709286" lon="9.344608120076357"><ele>444.75</ele><time>2026-03-29T13:31:10.999Z</time></trkpt><trkpt lat="44.69177070871254" lon="9.344487899107735"><ele>444.5</ele><time>2026-03-29T13:31:11.999Z</time></trkpt><trkpt lat="44.6918762330737" lon="9.344353718590808"><ele>444.25</ele><time>2026-03-29T13:31:12.999Z</time></trkpt><trkpt lat="44.691994285810004" lon="9.344233279177338"><ele>444.0</ele><time>2026-03-29T13:31:13.999Z</time></trkpt><trkpt lat="44.692132615351255" lon="9.344153478360797"><ele>444.0</ele><time>2026-03-29T13:31:14.999Z</time></trkpt><trkpt lat="44.69225807097194" lon="9.34402842818406"><ele>444.0</ele><time>2026-03-29T13:31:15.999Z</time></trkpt><trkpt lat="44.69238552962957" lon="9.34390407402847"><ele>444.0</ele><time>2026-03-29T13:31:16.999Z</time></trkpt><trkpt lat="44.69249317771813" lon="9.343758374902997"><ele>448.0</ele><time>2026-03-29T13:31:17.999Z</time></trkpt><trkpt lat="44.69258788053698" lon="9.343620535361397"><ele>452.0</ele><time>2026-03-29T13:31:18.999Z</time></trkpt><trkpt lat="44.69268320831279" lon="9.343487942198413"><ele>456.0</ele><time>2026-03-29T13:31:19.999Z</time></trkpt><trkpt lat="44.6927628099203" lon="9.343339396349633"><ele>460.0</ele><time>2026-03-29T13:31:20.999Z</time></trkpt><trkpt lat="44.6928124152067" lon="9.34316044272562"><ele>451.0</ele><time>2026-03-29T13:31:21.999Z</time></trkpt><trkpt lat="44.69283843574533" lon="9.342961375799227"><ele>442.0</ele><time>2026-03-29T13:31:22.999Z</time></trkpt><trkpt lat="44.69289769451541" lon="9.342777828096354"><ele>433.0</ele><time>2026-03-29T13:31:23.999Z</time></trkpt><trkpt lat="44.69298521639605" lon="9.342611960407941"><ele>424.0</ele><time>2026-03-29T13:31:24.999Z</time></trkpt><trkpt lat="44.693068435312306" lon="9.342424969382519"><ele>424.0</ele><time>2026-03-29T13:31:25.999Z</time></trkpt><trkpt lat="44.693168279785375" lon="9.342264294363073"><ele>424.0</ele><time>2026-03-29T13:31:26.999Z</time></trkpt><trkpt lat="44.693264020233606" lon="9.342124568455267"><ele>424.0</ele><time>2026-03-29T13:31:27.999Z</time></trkpt><trkpt lat="44.69335493865653" lon="9.342016309788594"><ele>424.0</ele><time>2026-03-29T13:31:28.999Z</time></trkpt><trkpt lat="44.693433258861226" lon="9.341928108671357"><ele>421.6</ele><time>2026-03-29T13:31:29.999Z</time></trkpt><trkpt lat="44.693467507269" lon="9.34181546712666"><ele>419.2</ele><time>2026-03-29T13:31:30.999Z</time></trkpt><trkpt lat="44.693461556566554" lon="9.341677834631088"><ele>416.8</ele><time>2026-03-29T13:31:31.999Z</time></trkpt><trkpt lat="44.6934375230448" lon="9.341530192275158"><ele>414.40000000000003</ele><time>2026-03-29T13:31:32.999Z</time></trkpt><trkpt lat="44.69342327843015" lon="9.341398789297578"><ele>412.0</ele><time>2026-03-29T13:31:33.999Z</time></trkpt><trkpt lat="44.69339121358151" lon="9.341281256325235"><ele>418.0</ele><time>2026-03-29T13:31:34.999Z</time></trkpt><trkpt lat="44.69331887526674" lon="9.341197998962667"><ele>424.0</ele><time>2026-03-29T13:31:35.999Z</time></trkpt><trkpt lat="44.693219054587736" lon="9.341148440026144"><ele>430.00000000000006</ele><time>2026-03-29T13:31:36.999Z</time></trkpt><trkpt lat="44.69310244331079" lon="9.341125284360478"><ele>436.0</ele><time>2026-03-29T13:31:37.999Z</time></trkpt><trkpt lat="44.692982321452085" lon="9.341116158483276"><ele>442.0</ele><time>2026-03-29T13:31:38.999Z</time></trkpt><trkpt lat="44.69285812697328" lon="9.34111913261971"><ele>441.25</ele><time>2026-03-29T13:31:39.999Z</time></trkpt><trkpt lat="44.69273235638322" lon="9.34115614569661"><ele>440.5</ele><time>2026-03-29T13:31:40.999Z</time></trkpt><trkpt lat="44.69261455389098" lon="9.341225143850652"><ele>439.75</ele><time>2026-03-29T13:31:41.999Z</time></trkpt><trkpt lat="44.69251416839253" lon="9.341355203329348"><ele>439.0</ele><time>2026-03-29T13:31:42.998Z</time></trkpt><trkpt lat="44.69243449958438" lon="9.341522221036763"><ele>432.5</ele><time>2026-03-29T13:31:43.998Z</time></trkpt><trkpt lat="44.69235305903776" lon="9.341689682986667"><ele>426.0</ele><time>2026-03-29T13:31:44.998Z</time></trkpt><trkpt lat="44.692258286557745" lon="9.341836324920138"><ele>419.5</ele><time>2026-03-29T13:31:45.998Z</time></trkpt><trkpt lat="44.69216350008956" lon="9.341958555216223"><ele>413.0</ele><time>2026-03-29T13:31:46.998Z</time></trkpt><trkpt lat="44.692091807476956" lon="9.34207884628874"><ele>413.0</ele><time>2026-03-29T13:31:47.998Z</time></trkpt><trkpt lat="44.69202848882971" lon="9.342193965970637"><ele>413.0</ele><time>2026-03-29T13:31:48.998Z</time></trkpt><trkpt lat="44.691935987077514" lon="9.342278259628872"><ele>413.0</ele><time>2026-03-29T13:31:49.998Z</time></trkpt><trkpt lat="44.69181703473102" lon="9.342325876760333"><ele>413.0</ele><time>2026-03-29T13:31:50.998Z</time></trkpt><trkpt lat="44.69168446172965" lon="9.342343722478264"><ele>413.79999999999995</ele><time>2026-03-29T13:31:51.998Z</time></trkpt><trkpt lat="44.691597441630236" lon="9.342351092533079"><ele>414.6</ele><time>2026-03-29T13:31:52.998Z</time></trkpt><trkpt lat="44.6915195405143" lon="9.342306008595067"><ele>415.4</ele><time>2026-03-29T13:31:53.998Z</time></trkpt><trkpt lat="44.69147535574442" lon="9.34220736624673"><ele>416.20000000000005</ele><time>2026-03-29T13:31:54.998Z</time></trkpt><trkpt lat="44.69146209701552" lon="9.34207619892806"><ele>417.0</ele><time>2026-03-29T13:31:55.998Z</time></trkpt><trkpt lat="44.69150477684368" lon="9.34194057744069"><ele>417.0</ele><time>2026-03-29T13:31:56.998Z</time></trkpt><trkpt lat="44.691530886698594" lon="9.34179553353593"><ele>417.0</ele><time>2026-03-29T13:31:57.998Z</time></trkpt><trkpt lat="44.69155845665673" lon="9.341640388276518"><ele>417.0</ele><time>2026-03-29T13:31:58.998Z</time></trkpt><trkpt lat="44.69154003456767" lon="9.341460856241897"><ele>417.0</ele><time>2026-03-29T13:31:59.998Z</time></trkpt><trkpt lat="44.691497502132634" lon="9.34127620306648"><ele>418.25</ele><time>2026-03-29T13:32:00.998Z</time></trkpt><trkpt lat="44.691448583215255" lon="9.341096585520308"><ele>419.5</ele><time>2026-03-29T13:32:01.998Z</time></trkpt><trkpt lat="44.691413591283585" lon="9.340933348566214"><ele>420.75</ele><time>2026-03-29T13:32:02.998Z</time></trkpt><trkpt lat="44.69142738752841" lon="9.340780604512826"><ele>422.0</ele><time>2026-03-29T13:32:03.998Z</time></trkpt><trkpt lat="44.6914426304545" lon="9.340616013507878"><ele>422.25</ele><time>2026-03-29T13:32:04.998Z</time></trkpt><trkpt lat="44.6914910550219" lon="9.340444205459645"><ele>422.5</ele><time>2026-03-29T13:32:05.998Z</time></trkpt><trkpt lat="44.691539378778714" lon="9.340263647166934"><ele>422.75</ele><time>2026-03-29T13:32:06.998Z</time></trkpt><trkpt lat="44.691579874028086" lon="9.340091422019613"><ele>423.0</ele><time>2026-03-29T13:32:07.998Z</time></trkpt><trkpt lat="44.691603098781535" lon="9.339940352008798"><ele>423.0</ele><time>2026-03-29T13:32:08.998Z</time></trkpt><trkpt lat="44.69159396190001" lon="9.339793403719058"><ele>423.0</ele><time>2026-03-29T13:32:09.998Z</time></trkpt><trkpt lat="44.69153557715414" lon="9.339649844960206"><ele>423.0</ele><time>2026-03-29T13:32:10.998Z</time></trkpt><trkpt lat="44.69146293600079" lon="9.33953488202077"><ele>423.0</ele><time>2026-03-29T13:32:11.998Z</time></trkpt><trkpt lat="44.69141088528725" lon="9.339432913797786"><ele>423.0</ele><time>2026-03-29T13:32:12.998Z</time></trkpt><trkpt lat="44.691422276221886" lon="9.339313088742845"><ele>422.5</ele><time>2026-03-29T13:32:14Z</time></trkpt><trkpt lat="44.69148162723198" lon="9.339186697245186"><ele>422.0</ele><time>2026-03-29T13:32:15Z</time></trkpt><trkpt lat="44.69155929134823" lon="9.339056651959623"><ele>421.5</ele><time>2026-03-29T13:32:16Z</time></trkpt><trkpt lat="44.691640248315466" lon="9.338922115832538"><ele>421.0</ele><time>2026-03-29T13:32:17Z</time></trkpt><trkpt lat="44.69172255074653" lon="9.338786336419922"><ele>420.8</ele><time>2026-03-29T13:32:18Z</time></trkpt><trkpt lat="44.69179089477312" lon="9.338664587811495"><ele>420.6</ele><time>2026-03-29T13:32:19Z</time></trkpt><trkpt lat="44.69183810537881" lon="9.33854235892917"><ele>420.4</ele><time>2026-03-29T13:32:20Z</time></trkpt><trkpt lat="44.69184789402682" lon="9.338399380962494"><ele>420.2</ele><time>2026-03-29T13:32:21Z</time></trkpt><trkpt lat="44.69180135926363" lon="9.33824214066659"><ele>420.0</ele><time>2026-03-29T13:32:22Z</time></trkpt><trkpt lat="44.691725700996905" lon="9.338098668805102"><ele>422.25</ele><time>2026-03-29T13:32:23Z</time></trkpt><trkpt lat="44.69162697011482" lon="9.337984418857426"><ele>424.5</ele><time>2026-03-29T13:32:24Z</time></trkpt><trkpt lat="44.691508401152134" lon="9.337914362090928"><ele>426.75</ele><time>2026-03-29T13:32:25Z</time></trkpt><trkpt lat="44.6913747464558" lon="9.337886408685602"><ele>429.0</ele><time>2026-03-29T13:32:26Z</time></trkpt><trkpt lat="44.691239162625145" lon="9.337862436542556"><ele>429.0</ele><time>2026-03-29T13:32:27Z</time></trkpt><trkpt lat="44.691109354677394" lon="9.337829372118225"><ele>429.0</ele><time>2026-03-29T13:32:28Z</time></trkpt><trkpt lat="44.690997240293306" lon="9.337787023128893"><ele>429.0</ele><time>2026-03-29T13:32:29Z</time></trkpt><trkpt lat="44.69089395740475" lon="9.337730836940795"><ele>429.0</ele><time>2026-03-29T13:32:30Z</time></trkpt><trkpt lat="44.6907987408414" lon="9.337629128107276"><ele>427.79999999999995</ele><time>2026-03-29T13:32:31Z</time></trkpt><trkpt lat="44.690719172936156" lon="9.33750526764866"><ele>426.59999999999997</ele><time>2026-03-29T13:32:32Z</time></trkpt><trkpt lat="44.690644318218624" lon="9.33739298892329"><ele>425.4</ele><time>2026-03-29T13:32:33Z</time></trkpt><trkpt lat="44.69057461253963" lon="9.337281941063129"><ele>424.2</ele><time>2026-03-29T13:32:34Z</time></trkpt><trkpt lat="44.690519525482564" lon="9.337158444176678"><ele>423.0</ele><time>2026-03-29T13:32:35Z</time></trkpt><trkpt lat="44.69050115533999" lon="9.337015605061467"><ele>423.0</ele><time>2026-03-29T13:32:36Z</time></trkpt><trkpt lat="44.69054428300687" lon="9.336857679051631"><ele>423.0</ele><time>2026-03-29T13:32:37Z</time></trkpt><trkpt lat="44.69055743954711" lon="9.336674559697856"><ele>423.0</ele><time>2026-03-29T13:32:38Z</time></trkpt><trkpt lat="44.69058101772525" lon="9.336477224003266"><ele>423.0</ele><time>2026-03-29T13:32:39Z</time></trkpt><trkpt lat="44.69058836348061" lon="9.336272054614646"><ele>422.75</ele><time>2026-03-29T13:32:40Z</time></trkpt><trkpt lat="44.69058909896106" lon="9.336061932183537"><ele>422.5</ele><time>2026-03-29T13:32:41Z</time></trkpt><trkpt lat="44.69058634559872" lon="9.335853799526449"><ele>422.25</ele><time>2026-03-29T13:32:42Z</time></trkpt><trkpt lat="44.690581734994055" lon="9.335652403792801"><ele>422.0</ele><time>2026-03-29T13:32:43Z</time></trkpt><trkpt lat="44.69058023110344" lon="9.335461823311615"><ele>422.0</ele><time>2026-03-29T13:32:44Z</time></trkpt><trkpt lat="44.69057944023616" lon="9.335280781647725"><ele>422.0</ele><time>2026-03-29T13:32:45Z</time></trkpt><trkpt lat="44.69056315106824" lon="9.33511463588016"><ele>422.0</ele><time>2026-03-29T13:32:46Z</time></trkpt><trkpt lat="44.690517163980395" lon="9.334955444845871"><ele>422.0</ele><time>2026-03-29T13:32:46.999Z</time></trkpt><trkpt lat="44.690441596755406" lon="9.33480832984748"><ele>420.75</ele><time>2026-03-29T13:32:47.999Z</time></trkpt><trkpt lat="44.690348116602905" lon="9.334669099035054"><ele>419.5</ele><time>2026-03-29T13:32:48.999Z</time></trkpt><trkpt lat="44.69026005084538" lon="9.334532908891354"><ele>418.25</ele><time>2026-03-29T13:32:49.999Z</time></trkpt><trkpt lat="44.690196381779195" lon="9.334394921157081"><ele>417.0</ele><time>2026-03-29T13:32:50.999Z</time></trkpt><trkpt lat="44.69016684566934" lon="9.334244025595321"><ele>412.0</ele><time>2026-03-29T13:32:51.999Z</time></trkpt><trkpt lat="44.69016634851393" lon="9.334069870556426"><ele>407.0</ele><time>2026-03-29T13:32:52.999Z</time></trkpt><trkpt lat="44.69017248861728" lon="9.333888202154956"><ele>402.0</ele><time>2026-03-29T13:32:53.999Z</time></trkpt><trkpt lat="44.69016875066206" lon="9.333699216219838"><ele>397.0</ele><time>2026-03-29T13:32:54.999Z</time></trkpt><trkpt lat="44.69014967039605" lon="9.333505246069416"><ele>397.0</ele><time>2026-03-29T13:32:55.999Z</time></trkpt><trkpt lat="44.690126548950204" lon="9.333329658606253"><ele>397.0</ele><time>2026-03-29T13:32:56.999Z</time></trkpt><trkpt lat="44.690110302147446" lon="9.333175092394391"><ele>397.0</ele><time>2026-03-29T13:32:57.999Z</time></trkpt><trkpt lat="44.6901342946721" lon="9.333045837518773"><ele>397.0</ele><time>2026-03-29T13:32:58.999Z</time></trkpt><trkpt lat="44.690207757340495" lon="9.332933304025094"><ele>397.0</ele><time>2026-03-29T13:32:59.999Z</time></trkpt><trkpt lat="44.690325126393155" lon="9.332856162890005"><ele>397.0</ele><time>2026-03-29T13:33:00.999Z</time></trkpt><trkpt lat="44.69043914551344" lon="9.332788197677422"><ele>397.0</ele><time>2026-03-29T13:33:01.999Z</time></trkpt><trkpt lat="44.690562972997206" lon="9.332757659579805"><ele>397.0</ele><time>2026-03-29T13:33:02.999Z</time></trkpt><trkpt lat="44.69068710912592" lon="9.332756659744064"><ele>397.0</ele><time>2026-03-29T13:33:03.999Z</time></trkpt><trkpt lat="44.69081248695097" lon="9.332750755358342"><ele>397.00000000000006</ele><time>2026-03-29T13:33:04.999Z</time></trkpt><trkpt lat="44.69091349992931" lon="9.332739996114341"><ele>397.0</ele><time>2026-03-29T13:33:05.999Z</time></trkpt><trkpt lat="44.69098494205838" lon="9.332703987183942"><ele>397.0</ele><time>2026-03-29T13:33:06.999Z</time></trkpt><trkpt lat="44.69103432263047" lon="9.332616214572026"><ele>397.0</ele><time>2026-03-29T13:33:07.999Z</time></trkpt><trkpt lat="44.69105566254424" lon="9.332499558459016"><ele>397.00000000000006</ele><time>2026-03-29T13:33:08.999Z</time></trkpt><trkpt lat="44.69104128324981" lon="9.332383499062685"><ele>397.0</ele><time>2026-03-29T13:33:09.999Z</time></trkpt><trkpt lat="44.69100093738381" lon="9.332280584124641"><ele>397.0</ele><time>2026-03-29T13:33:10.999Z</time></trkpt><trkpt lat="44.690902948563526" lon="9.332244958049928"><ele>397.0</ele><time>2026-03-29T13:33:11.999Z</time></trkpt><trkpt lat="44.69079449019164" lon="9.332233146444388"><ele>397.0</ele><time>2026-03-29T13:33:12.999Z</time></trkpt><trkpt lat="44.690693230912466" lon="9.332198951316903"><ele>397.0</ele><time>2026-03-29T13:33:13.999Z</time></trkpt><trkpt lat="44.69059979740246" lon="9.332131506036712"><ele>397.0</ele><time>2026-03-29T13:33:14.999Z</time></trkpt><trkpt lat="44.69052000309936" lon="9.332016289162018"><ele>398.75</ele><time>2026-03-29T13:33:15.999Z</time></trkpt><trkpt lat="44.69044485804656" lon="9.331885751055387"><ele>400.5</ele><time>2026-03-29T13:33:16.999Z</time></trkpt><trkpt lat="44.690371506408226" lon="9.331756765895287"><ele>402.25</ele><time>2026-03-29T13:33:17.999Z</time></trkpt><trkpt lat="44.69029668006702" lon="9.331635005352796"><ele>404.0</ele><time>2026-03-29T13:33:18.999Z</time></trkpt><trkpt lat="44.690227200039736" lon="9.331513779527057"><ele>398.2</ele><time>2026-03-29T13:33:19.999Z</time></trkpt><trkpt lat="44.69021352097222" lon="9.331368460057634"><ele>392.4</ele><time>2026-03-29T13:33:20.999Z</time></trkpt><trkpt lat="44.69019193678166" lon="9.331207148613464"><ele>386.6</ele><time>2026-03-29T13:33:21.999Z</time></trkpt><trkpt lat="44.6901847164771" lon="9.331059670651484"><ele>380.8</ele><time>2026-03-29T13:33:22.999Z</time></trkpt><trkpt lat="44.69016821761552" lon="9.330909903960265"><ele>375.0</ele><time>2026-03-29T13:33:23.999Z</time></trkpt><trkpt lat="44.690182429732936" lon="9.330743731383631"><ele>375.0</ele><time>2026-03-29T13:33:24.999Z</time></trkpt><trkpt lat="44.69020963236211" lon="9.33056681441264"><ele>375.0</ele><time>2026-03-29T13:33:25.999Z</time></trkpt><trkpt lat="44.6902368439382" lon="9.330397222647075"><ele>375.0</ele><time>2026-03-29T13:33:26.999Z</time></trkpt><trkpt lat="44.690243345311494" lon="9.33022184743845"><ele>375.0</ele><time>2026-03-29T13:33:27.999Z</time></trkpt><trkpt lat="44.690245867606066" lon="9.330054681890127"><ele>375.0</ele><time>2026-03-29T13:33:28.999Z</time></trkpt><trkpt lat="44.69024388840936" lon="9.32990547894719"><ele>375.0</ele><time>2026-03-29T13:33:29.999Z</time></trkpt><trkpt lat="44.69021680567228" lon="9.329769480711029"><ele>375.0</ele><time>2026-03-29T13:33:30.999Z</time></trkpt><trkpt lat="44.69014918116976" lon="9.329651890049416"><ele>375.0</ele><time>2026-03-29T13:33:31.999Z</time></trkpt><trkpt lat="44.69005371997707" lon="9.329565213246767"><ele>375.0</ele><time>2026-03-29T13:33:32.999Z</time></trkpt><trkpt lat="44.68994484782886" lon="9.329508335724952"><ele>375.0</ele><time>2026-03-29T13:33:33.999Z</time></trkpt><trkpt lat="44.68983467421066" lon="9.32946129712892"><ele>375.0</ele><time>2026-03-29T13:33:34.999Z</time></trkpt><trkpt lat="44.68972367668113" lon="9.329397095443904"><ele>375.0</ele><time>2026-03-29T13:33:35.999Z</time></trkpt><trkpt lat="44.68961386065912" lon="9.329330719979486"><ele>375.0</ele><time>2026-03-29T13:33:36.999Z</time></trkpt><trkpt lat="44.68950455061698" lon="9.32925759147273"><ele>372.75</ele><time>2026-03-29T13:33:37.999Z</time></trkpt><trkpt lat="44.68939153785235" lon="9.329186781379871"><ele>370.5</ele><time>2026-03-29T13:33:38.999Z</time></trkpt><trkpt lat="44.689279305545725" lon="9.32912501329144"><ele>368.25</ele><time>2026-03-29T13:33:39.999Z</time></trkpt><trkpt lat="44.68916506140723" lon="9.329063092373312"><ele>366.0</ele><time>2026-03-29T13:33:40.999Z</time></trkpt><trkpt lat="44.68906690247508" lon="9.328999070259673"><ele>366.0</ele><time>2026-03-29T13:33:41.999Z</time></trkpt><trkpt lat="44.688979185888726" lon="9.328936281952062"><ele>366.0</ele><time>2026-03-29T13:33:42.999Z</time></trkpt><trkpt lat="44.68890315702012" lon="9.328866457427669"><ele>366.0</ele><time>2026-03-29T13:33:43.999Z</time></trkpt><trkpt lat="44.68888047791032" lon="9.32875320640416"><ele>366.0</ele><time>2026-03-29T13:33:44.999Z</time></trkpt><trkpt lat="44.68888799996828" lon="9.328622159238176"><ele>366.0</ele><time>2026-03-29T13:33:45.999Z</time></trkpt><trkpt lat="44.68894698106055" lon="9.32850347117003"><ele>367.4</ele><time>2026-03-29T13:33:46.999Z</time></trkpt><trkpt lat="44.68896584420914" lon="9.328365820381514"><ele>368.8</ele><time>2026-03-29T13:33:47.998Z</time></trkpt><trkpt lat="44.68899931421461" lon="9.328227996973379"><ele>370.2</ele><time>2026-03-29T13:33:48.998Z</time></trkpt><trkpt lat="44.68903618355657" lon="9.328073778098927"><ele>371.59999999999997</ele><time>2026-03-29T13:33:49.998Z</time></trkpt><trkpt lat="44.689072315243116" lon="9.327905642848185"><ele>373.0</ele><time>2026-03-29T13:33:50.998Z</time></trkpt><trkpt lat="44.68910488314709" lon="9.327738055867155"><ele>373.8333333333333</ele><time>2026-03-29T13:33:51.998Z</time></trkpt><trkpt lat="44.689118411292284" lon="9.327588805026734"><ele>374.66666666666663</ele><time>2026-03-29T13:33:52.998Z</time></trkpt><trkpt lat="44.68912840588093" lon="9.32745241866309"><ele>375.5</ele><time>2026-03-29T13:33:53.998Z</time></trkpt><trkpt lat="44.689137323489746" lon="9.327339545927343"><ele>376.3333333333333</ele><time>2026-03-29T13:33:54.998Z</time></trkpt><trkpt lat="44.689147781691446" lon="9.32720556069785"><ele>377.1666666666667</ele><time>2026-03-29T13:33:56.998Z</time></trkpt><trkpt lat="44.68915924858111" lon="9.327116367451907"><ele>378.0</ele><time>2026-03-29T13:34:01.998Z</time></trkpt><trkpt lat="44.68917039553844" lon="9.326993334225586"><ele>379.4</ele><time>2026-03-29T13:35:22.999Z</time></trkpt><trkpt lat="44.68918169349025" lon="9.326886127239787"><ele>380.79999999999995</ele><time>2026-03-29T13:35:23.999Z</time></trkpt><trkpt lat="44.68919793847388" lon="9.326747496694294"><ele>382.2</ele><time>2026-03-29T13:35:24.999Z</time></trkpt><trkpt lat="44.68922504083407" lon="9.326585811803039"><ele>383.6</ele><time>2026-03-29T13:35:25.999Z</time></trkpt><trkpt lat="44.689256935866524" lon="9.326418651659447"><ele>385.0</ele><time>2026-03-29T13:35:26.999Z</time></trkpt><trkpt lat="44.689291139777616" lon="9.326238153078585"><ele>386.0</ele><time>2026-03-29T13:35:27.999Z</time></trkpt><trkpt lat="44.68931572330807" lon="9.326043404851502"><ele>387.0</ele><time>2026-03-29T13:35:28.999Z</time></trkpt><trkpt lat="44.68931651266843" lon="9.325840545980089"><ele>388.0</ele><time>2026-03-29T13:35:29.999Z</time></trkpt><trkpt lat="44.68934199308899" lon="9.325660754617655"><ele>389.0</ele><time>2026-03-29T13:35:30.999Z</time></trkpt><trkpt lat="44.68934807845262" lon="9.325485121368864"><ele>389.75</ele><time>2026-03-29T13:35:31.999Z</time></trkpt><trkpt lat="44.68933210955955" lon="9.325302387608506"><ele>390.5</ele><time>2026-03-29T13:35:32.999Z</time></trkpt><trkpt lat="44.68932987971458" lon="9.32510947072785"><ele>391.25</ele><time>2026-03-29T13:35:33.999Z</time></trkpt><trkpt lat="44.68932562567816" lon="9.324913845444422"><ele>392.0</ele><time>2026-03-29T13:35:34.999Z</time></trkpt><trkpt lat="44.68931844907223" lon="9.324712332030833"><ele>392.5</ele><time>2026-03-29T13:35:35.999Z</time></trkpt><trkpt lat="44.68931212562055" lon="9.324505170132348"><ele>393.0</ele><time>2026-03-29T13:35:36.999Z</time></trkpt><trkpt lat="44.68930749425894" lon="9.324297860890224"><ele>393.5</ele><time>2026-03-29T13:35:37.999Z</time></trkpt><trkpt lat="44.68930376433238" lon="9.324115887126416"><ele>394.0</ele><time>2026-03-29T13:35:38.999Z</time></trkpt><trkpt lat="44.689300985043744" lon="9.323959885053501"><ele>393.25</ele><time>2026-03-29T13:35:39.999Z</time></trkpt><trkpt lat="44.689278421786305" lon="9.323811866775912"><ele>392.5</ele><time>2026-03-29T13:35:40.999Z</time></trkpt><trkpt lat="44.68922219977897" lon="9.323660273900753"><ele>391.75</ele><time>2026-03-29T13:35:41.999Z</time></trkpt><trkpt lat="44.689136894294016" lon="9.323515835023105"><ele>391.0</ele><time>2026-03-29T13:35:42.999Z</time></trkpt><trkpt lat="44.68905074870833" lon="9.32337059544168"><ele>391.0</ele><time>2026-03-29T13:35:43.999Z</time></trkpt><trkpt lat="44.68897129497843" lon="9.323237575279828"><ele>391.0</ele><time>2026-03-29T13:35:44.999Z</time></trkpt><trkpt lat="44.688884917328075" lon="9.32313017739722"><ele>391.0</ele><time>2026-03-29T13:35:45.999Z</time></trkpt><trkpt lat="44.68877548580926" lon="9.323069937328631"><ele>391.0</ele><time>2026-03-29T13:35:46.999Z</time></trkpt><trkpt lat="44.68865029663619" lon="9.323028735172725"><ele>394.25</ele><time>2026-03-29T13:35:47.999Z</time></trkpt><trkpt lat="44.6885199971241" lon="9.322990262283417"><ele>397.5</ele><time>2026-03-29T13:35:48.999Z</time></trkpt><trkpt lat="44.68839814620038" lon="9.322939052581466"><ele>400.75</ele><time>2026-03-29T13:35:49.999Z</time></trkpt><trkpt lat="44.68830061378149" lon="9.322860194052767"><ele>404.0</ele><time>2026-03-29T13:35:50.999Z</time></trkpt><trkpt lat="44.68822711346217" lon="9.322754720048378"><ele>404.0</ele><time>2026-03-29T13:35:51.998Z</time></trkpt><trkpt lat="44.68819309472609" lon="9.322618394702692"><ele>404.0</ele><time>2026-03-29T13:35:52.998Z</time></trkpt><trkpt lat="44.68819835871718" lon="9.322462030438153"><ele>404.0</ele><time>2026-03-29T13:35:53.998Z</time></trkpt><trkpt lat="44.6882202534458" lon="9.32230327592766"><ele>404.0</ele><time>2026-03-29T13:35:54.998Z</time></trkpt><trkpt lat="44.68821660755891" lon="9.322144086853909"><ele>404.0</ele><time>2026-03-29T13:35:55.998Z</time></trkpt><trkpt lat="44.688185117715186" lon="9.321991436468581"><ele>404.0</ele><time>2026-03-29T13:35:56.998Z</time></trkpt><trkpt lat="44.68813056478221" lon="9.32184433100718"><ele>404.0</ele><time>2026-03-29T13:35:57.998Z</time></trkpt><trkpt lat="44.688077417303845" lon="9.321693064002464"><ele>404.0</ele><time>2026-03-29T13:35:58.998Z</time></trkpt><trkpt lat="44.688056272187666" lon="9.321526814727937"><ele>404.0</ele><time>2026-03-29T13:35:59.998Z</time></trkpt><trkpt lat="44.68805724339066" lon="9.321341959371452"><ele>402.66666666666663</ele><time>2026-03-29T13:36:00.998Z</time></trkpt><trkpt lat="44.688063116064356" lon="9.321140292602704"><ele>401.33333333333337</ele><time>2026-03-29T13:36:01.998Z</time></trkpt><trkpt lat="44.68807215018485" lon="9.320928128438235"><ele>400.0</ele><time>2026-03-29T13:36:02.998Z</time></trkpt><trkpt lat="44.68807909284589" lon="9.320700026137233"><ele>398.0</ele><time>2026-03-29T13:36:03.998Z</time></trkpt><trkpt lat="44.68808744777761" lon="9.3204680827875"><ele>396.0</ele><time>2026-03-29T13:36:04.998Z</time></trkpt><trkpt lat="44.688096939200655" lon="9.320236701183328"><ele>394.0</ele><time>2026-03-29T13:36:05.998Z</time></trkpt><trkpt lat="44.68810939305519" lon="9.320036054284412"><ele>394.0</ele><time>2026-03-29T13:36:06.998Z</time></trkpt><trkpt lat="44.688118716631244" lon="9.319854608975207"><ele>394.0</ele><time>2026-03-29T13:36:07.998Z</time></trkpt><trkpt lat="44.68812369910755" lon="9.319688613445978"><ele>394.0</ele><time>2026-03-29T13:36:08.998Z</time></trkpt><trkpt lat="44.68810234860016" lon="9.319544291983078"><ele>394.0</ele><time>2026-03-29T13:36:09.998Z</time></trkpt><trkpt lat="44.68804254606135" lon="9.319415995305643"><ele>392.5</ele><time>2026-03-29T13:36:10.998Z</time></trkpt><trkpt lat="44.68796217811706" lon="9.319294571088161"><ele>391.0</ele><time>2026-03-29T13:36:11.998Z</time></trkpt><trkpt lat="44.68785536347776" lon="9.319209229208747"><ele>389.5</ele><time>2026-03-29T13:36:12.998Z</time></trkpt><trkpt lat="44.68774549044674" lon="9.319179384676822"><ele>388.0</ele><time>2026-03-29T13:36:13.998Z</time></trkpt><trkpt lat="44.68765638240686" lon="9.319243609858297"><ele>394.2</ele><time>2026-03-29T13:36:14.998Z</time></trkpt><trkpt lat="44.68756945817303" lon="9.319319615511608"><ele>400.4</ele><time>2026-03-29T13:36:15.998Z</time></trkpt><trkpt lat="44.68747893004094" lon="9.319415386398894"><ele>406.59999999999997</ele><time>2026-03-29T13:36:16.998Z</time></trkpt><trkpt lat="44.68737103012816" lon="9.319476660605009"><ele>412.79999999999995</ele><time>2026-03-29T13:36:17.998Z</time></trkpt><trkpt lat="44.68727318090399" lon="9.319510444521793"><ele>419.0</ele><time>2026-03-29T13:36:18.998Z</time></trkpt><trkpt lat="44.6871955103604" lon="9.319495944512571"><ele>419.0</ele><time>2026-03-29T13:36:19.998Z</time></trkpt><trkpt lat="44.68710746120465" lon="9.319459702126986"><ele>419.0</ele><time>2026-03-29T13:36:20.998Z</time></trkpt><trkpt lat="44.687061333683" lon="9.31929718810775"><ele>419.0</ele><time>2026-03-29T13:36:21.998Z</time></trkpt><trkpt lat="44.68700960084262" lon="9.319129043474007"><ele>419.0</ele><time>2026-03-29T13:36:22.998Z</time></trkpt><trkpt lat="44.68695124322268" lon="9.318949085876588"><ele>426.0</ele><time>2026-03-29T13:36:23.998Z</time></trkpt><trkpt lat="44.68687861141938" lon="9.318774369867011"><ele>433.0</ele><time>2026-03-29T13:36:24.998Z</time></trkpt><trkpt lat="44.68685558538472" lon="9.318585194940367"><ele>440.0</ele><time>2026-03-29T13:36:26Z</time></trkpt><trkpt lat="44.686864461292515" lon="9.318407599108552"><ele>447.0</ele><time>2026-03-29T13:36:27Z</time></trkpt><trkpt lat="44.68689544099026" lon="9.318218480635052"><ele>437.75</ele><time>2026-03-29T13:36:28Z</time></trkpt><trkpt lat="44.68695293831917" lon="9.318033160246669"><ele>428.5</ele><time>2026-03-29T13:36:29Z</time></trkpt><trkpt lat="44.68704638542808" lon="9.31787981389048"><ele>419.25</ele><time>2026-03-29T13:36:30Z</time></trkpt><trkpt lat="44.68715240868383" lon="9.317733509245311"><ele>410.0</ele><time>2026-03-29T13:36:31Z</time></trkpt><trkpt lat="44.6872317933615" lon="9.317587815631194"><ele>410.0</ele><time>2026-03-29T13:36:32Z</time></trkpt><trkpt lat="44.68729978162964" lon="9.317464306607619"><ele>410.0</ele><time>2026-03-29T13:36:33Z</time></trkpt><trkpt lat="44.68733101137982" lon="9.317316748881966"><ele>410.0</ele><time>2026-03-29T13:36:34Z</time></trkpt><trkpt lat="44.68731973477841" lon="9.317145030935052"><ele>410.0</ele><time>2026-03-29T13:36:35Z</time></trkpt><trkpt lat="44.6872657331755" lon="9.316979923741785"><ele>413.0</ele><time>2026-03-29T13:36:36Z</time></trkpt><trkpt lat="44.687219076686546" lon="9.316806796784281"><ele>416.0</ele><time>2026-03-29T13:36:37Z</time></trkpt><trkpt lat="44.68725833058629" lon="9.316626406992826"><ele>419.0</ele><time>2026-03-29T13:36:38Z</time></trkpt><trkpt lat="44.68727542234848" lon="9.316424316695645"><ele>422.0</ele><time>2026-03-29T13:36:39Z</time></trkpt><trkpt lat="44.687308533798834" lon="9.316222084192153"><ele>424.5</ele><time>2026-03-29T13:36:40Z</time></trkpt><trkpt lat="44.68733847219695" lon="9.316015513994024"><ele>427.0</ele><time>2026-03-29T13:36:41Z</time></trkpt><trkpt lat="44.68736630416147" lon="9.315815432073821"><ele>429.5</ele><time>2026-03-29T13:36:42Z</time></trkpt><trkpt lat="44.68738853731808" lon="9.315644948091348"><ele>432.0</ele><time>2026-03-29T13:36:43Z</time></trkpt><trkpt lat="44.687370420884406" lon="9.315475765737666"><ele>434.6</ele><time>2026-03-29T13:36:44Z</time></trkpt><trkpt lat="44.68733486303026" lon="9.315322449439675"><ele>437.20000000000005</ele><time>2026-03-29T13:36:45Z</time></trkpt><trkpt lat="44.68734838154252" lon="9.315187367503919"><ele>439.8</ele><time>2026-03-29T13:36:46Z</time></trkpt><trkpt lat="44.68745502076127" lon="9.315122862996674"><ele>442.4</ele><time>2026-03-29T13:36:47Z</time></trkpt><trkpt lat="44.68750157088912" lon="9.314989566409388"><ele>445.0</ele><time>2026-03-29T13:36:48Z</time></trkpt><trkpt lat="44.68757517603602" lon="9.314845982930912"><ele>447.5</ele><time>2026-03-29T13:36:49Z</time></trkpt><trkpt lat="44.687638642915836" lon="9.314671099880234"><ele>450.0</ele><time>2026-03-29T13:36:50Z</time></trkpt><trkpt lat="44.687699117066124" lon="9.314489277826652"><ele>452.5</ele><time>2026-03-29T13:36:51Z</time></trkpt><trkpt lat="44.687734838755944" lon="9.314292824620555"><ele>455.0</ele><time>2026-03-29T13:36:52Z</time></trkpt><trkpt lat="44.68774556094746" lon="9.314088844861947"><ele>455.0</ele><time>2026-03-29T13:36:53Z</time></trkpt><trkpt lat="44.68773348497513" lon="9.31390984466076"><ele>455.0</ele><time>2026-03-29T13:36:54Z</time></trkpt><trkpt lat="44.687711072869966" lon="9.313756748976985"><ele>455.0</ele><time>2026-03-29T13:36:55Z</time></trkpt><trkpt lat="44.68765906853762" lon="9.313628514286345"><ele>455.0</ele><time>2026-03-29T13:36:56Z</time></trkpt><trkpt lat="44.687572971359394" lon="9.313535782678095"><ele>451.75</ele><time>2026-03-29T13:36:56.999Z</time></trkpt><trkpt lat="44.68745256285773" lon="9.313484912150981"><ele>448.5</ele><time>2026-03-29T13:36:57.999Z</time></trkpt><trkpt lat="44.68733152445439" lon="9.313445878846023"><ele>445.25</ele><time>2026-03-29T13:36:58.999Z</time></trkpt><trkpt lat="44.68723517325249" lon="9.313368578297242"><ele>442.0</ele><time>2026-03-29T13:36:59.999Z</time></trkpt><trkpt lat="44.68720568004391" lon="9.31320990823947"><ele>438.0</ele><time>2026-03-29T13:37:00.999Z</time></trkpt><trkpt lat="44.6871577299599" lon="9.313040706889225"><ele>434.0</ele><time>2026-03-29T13:37:01.999Z</time></trkpt><trkpt lat="44.68712144096002" lon="9.312849712868385"><ele>430.0</ele><time>2026-03-29T13:37:02.999Z</time></trkpt><trkpt lat="44.68706768662225" lon="9.312657541149179"><ele>426.0</ele><time>2026-03-29T13:37:03.999Z</time></trkpt><trkpt lat="44.687005712676985" lon="9.312462176460759"><ele>426.0</ele><time>2026-03-29T13:37:04.999Z</time></trkpt><trkpt lat="44.68693604731165" lon="9.312267901344311"><ele>426.0</ele><time>2026-03-29T13:37:05.999Z</time></trkpt><trkpt lat="44.686856847643384" lon="9.31207803647505"><ele>426.0</ele><time>2026-03-29T13:37:06.999Z</time></trkpt><trkpt lat="44.686777557007055" lon="9.311895529837551"><ele>433.5</ele><time>2026-03-29T13:37:07.999Z</time></trkpt><trkpt lat="44.68668610087262" lon="9.311737418191404"><ele>441.0</ele><time>2026-03-29T13:37:08.999Z</time></trkpt><trkpt lat="44.68656991547291" lon="9.311629906094343"><ele>448.5</ele><time>2026-03-29T13:37:09.999Z</time></trkpt><trkpt lat="44.68644568004851" lon="9.311552894029342"><ele>456.0</ele><time>2026-03-29T13:37:10.999Z</time></trkpt><trkpt lat="44.6863389544649" lon="9.31148806371687"><ele>454.0</ele><time>2026-03-29T13:37:11.999Z</time></trkpt><trkpt lat="44.686262855627945" lon="9.311379342360686"><ele>452.0</ele><time>2026-03-29T13:37:12.999Z</time></trkpt><trkpt lat="44.68621692690948" lon="9.311228077780845"><ele>450.0</ele><time>2026-03-29T13:37:13.999Z</time></trkpt><trkpt lat="44.68622022316464" lon="9.31105022842588"><ele>448.0</ele><time>2026-03-29T13:37:14.999Z</time></trkpt><trkpt lat="44.68622427698644" lon="9.31085743767019"><ele>448.0</ele><time>2026-03-29T13:37:15.999Z</time></trkpt><trkpt lat="44.68626613623551" lon="9.310671598019576"><ele>448.0</ele><time>2026-03-29T13:37:16.999Z</time></trkpt><trkpt lat="44.68631421557475" lon="9.310489467799178"><ele>448.0</ele><time>2026-03-29T13:37:17.999Z</time></trkpt><trkpt lat="44.68637235761034" lon="9.310332221010354"><ele>448.0</ele><time>2026-03-29T13:37:18.999Z</time></trkpt><trkpt lat="44.68646224011651" lon="9.310239777657447"><ele>453.5</ele><time>2026-03-29T13:37:19.999Z</time></trkpt><trkpt lat="44.68658567747901" lon="9.310224501417398"><ele>459.0</ele><time>2026-03-29T13:37:20.999Z</time></trkpt><trkpt lat="44.68670528920606" lon="9.310174971937665"><ele>464.5</ele><time>2026-03-29T13:37:21.999Z</time></trkpt><trkpt lat="44.68681932909617" lon="9.310093376151363"><ele>470.0</ele><time>2026-03-29T13:37:22.999Z</time></trkpt><trkpt lat="44.68690872431038" lon="9.309999121541663"><ele>455.75</ele><time>2026-03-29T13:37:23.999Z</time></trkpt><trkpt lat="44.68697550732759" lon="9.309844950793073"><ele>441.5</ele><time>2026-03-29T13:37:24.999Z</time></trkpt><trkpt lat="44.687011690501976" lon="9.309670073748318"><ele>427.25</ele><time>2026-03-29T13:37:25.999Z</time></trkpt><trkpt lat="44.68701073043487" lon="9.309492595668791"><ele>413.0</ele><time>2026-03-29T13:37:26.999Z</time></trkpt><trkpt lat="44.68696684046191" lon="9.309303993203923"><ele>426.75</ele><time>2026-03-29T13:37:27.999Z</time></trkpt><trkpt lat="44.68688878939566" lon="9.309142505781097"><ele>440.5</ele><time>2026-03-29T13:37:28.999Z</time></trkpt><trkpt lat="44.68677871050519" lon="9.309027400560826"><ele>454.25</ele><time>2026-03-29T13:37:29.999Z</time></trkpt><trkpt lat="44.686648470792605" lon="9.308953997433242"><ele>468.0</ele><time>2026-03-29T13:37:30.999Z</time></trkpt><trkpt lat="44.68650165234341" lon="9.30892074412553"><ele>464.0</ele><time>2026-03-29T13:37:31.999Z</time></trkpt><trkpt lat="44.68635471731084" lon="9.308875183128496"><ele>460.0</ele><time>2026-03-29T13:37:32.999Z</time></trkpt><trkpt lat="44.686215756450935" lon="9.308818906578493"><ele>456.0</ele><time>2026-03-29T13:37:33.999Z</time></trkpt><trkpt lat="44.686072836872086" lon="9.308793735604304"><ele>452.0</ele><time>2026-03-29T13:37:34.999Z</time></trkpt><trkpt lat="44.685920848806155" lon="9.308819137282628"><ele>452.0</ele><time>2026-03-29T13:37:35.999Z</time></trkpt><trkpt lat="44.6857613416672" lon="9.3088657335417"><ele>452.0</ele><time>2026-03-29T13:37:36.999Z</time></trkpt><trkpt lat="44.68559738567638" lon="9.30885393997036"><ele>452.0</ele><time>2026-03-29T13:37:37.999Z</time></trkpt><trkpt lat="44.68543011814807" lon="9.308848350477133"><ele>452.0</ele><time>2026-03-29T13:37:38.999Z</time></trkpt><trkpt lat="44.68526397555903" lon="9.30882737710655"><ele>452.0</ele><time>2026-03-29T13:37:39.999Z</time></trkpt><trkpt lat="44.685099087669606" lon="9.30884071257518"><ele>452.0</ele><time>2026-03-29T13:37:40.999Z</time></trkpt><trkpt lat="44.68494949074426" lon="9.308876797250816"><ele>461.5</ele><time>2026-03-29T13:37:41.999Z</time></trkpt><trkpt lat="44.684809563138835" lon="9.308936490058615"><ele>471.0</ele><time>2026-03-29T13:37:42.999Z</time></trkpt><trkpt lat="44.6846783473767" lon="9.30904044141666"><ele>480.5</ele><time>2026-03-29T13:37:43.999Z</time></trkpt><trkpt lat="44.68455476328488" lon="9.309141199881886"><ele>490.0</ele><time>2026-03-29T13:37:44.999Z</time></trkpt><trkpt lat="44.68441734657066" lon="9.309118817346159"><ele>490.25</ele><time>2026-03-29T13:37:45.999Z</time></trkpt><trkpt lat="44.68427183091879" lon="9.309133305505537"><ele>490.5</ele><time>2026-03-29T13:37:46.999Z</time></trkpt><trkpt lat="44.68413310568775" lon="9.309107347087528"><ele>490.75</ele><time>2026-03-29T13:37:47.999Z</time></trkpt><trkpt lat="44.68401667449142" lon="9.309075582973682"><ele>491.0</ele><time>2026-03-29T13:37:48.999Z</time></trkpt><trkpt lat="44.68392165667132" lon="9.309004392415773"><ele>487.5</ele><time>2026-03-29T13:37:49.999Z</time></trkpt><trkpt lat="44.683881812933066" lon="9.308849815458629"><ele>484.0</ele><time>2026-03-29T13:37:50.999Z</time></trkpt><trkpt lat="44.68381155516301" lon="9.3086985438902"><ele>480.5</ele><time>2026-03-29T13:37:51.999Z</time></trkpt><trkpt lat="44.68373050255598" lon="9.308556957272332"><ele>477.0</ele><time>2026-03-29T13:37:52.999Z</time></trkpt><trkpt lat="44.68361677016105" lon="9.30845663639582"><ele>479.40000000000003</ele><time>2026-03-29T13:37:53.999Z</time></trkpt><trkpt lat="44.68349013661438" lon="9.308389804029796"><ele>481.80000000000007</ele><time>2026-03-29T13:37:54.999Z</time></trkpt><trkpt lat="44.68337748358063" lon="9.30832879748478"><ele>484.2</ele><time>2026-03-29T13:37:55.999Z</time></trkpt><trkpt lat="44.68330635719574" lon="9.308251042809033"><ele>486.6</ele><time>2026-03-29T13:37:56.999Z</time></trkpt><trkpt lat="44.68328666921152" lon="9.30815421965057"><ele>489.0</ele><time>2026-03-29T13:37:57.998Z</time></trkpt><trkpt lat="44.683312157359296" lon="9.308050981620433"><ele>487.25</ele><time>2026-03-29T13:37:58.998Z</time></trkpt><trkpt lat="44.683378745913615" lon="9.307949604531949"><ele>485.5</ele><time>2026-03-29T13:37:59.998Z</time></trkpt><trkpt lat="44.683459680215805" lon="9.307843673296087"><ele>483.75</ele><time>2026-03-29T13:38:00.998Z</time></trkpt><trkpt lat="44.68354427535577" lon="9.307718431294537"><ele>482.0</ele><time>2026-03-29T13:38:01.998Z</time></trkpt><trkpt lat="44.68362392690291" lon="9.30757113928545"><ele>482.0</ele><time>2026-03-29T13:38:02.998Z</time></trkpt><trkpt lat="44.68368644332028" lon="9.307397125116367"><ele>482.0</ele><time>2026-03-29T13:38:03.998Z</time></trkpt><trkpt lat="44.68372611202326" lon="9.307223362955007"><ele>482.0</ele><time>2026-03-29T13:38:04.998Z</time></trkpt><trkpt lat="44.683756099951154" lon="9.307038932417978"><ele>482.0</ele><time>2026-03-29T13:38:05.998Z</time></trkpt><trkpt lat="44.68378536885347" lon="9.30685381306278"><ele>481.75</ele><time>2026-03-29T13:38:06.998Z</time></trkpt><trkpt lat="44.683812573562314" lon="9.306697857554825"><ele>481.5</ele><time>2026-03-29T13:38:07.998Z</time></trkpt><trkpt lat="44.68381717010711" lon="9.306554356245536"><ele>481.25</ele><time>2026-03-29T13:38:08.998Z</time></trkpt><trkpt lat="44.68379166904493" lon="9.306401515802577"><ele>481.0</ele><time>2026-03-29T13:38:09.998Z</time></trkpt><trkpt lat="44.68374096972893" lon="9.306238990976569"><ele>478.20000000000005</ele><time>2026-03-29T13:38:10.998Z</time></trkpt><trkpt lat="44.683693523757796" lon="9.3060822748728"><ele>475.40000000000003</ele><time>2026-03-29T13:38:11.998Z</time></trkpt><trkpt lat="44.68364640767329" lon="9.3059588501608"><ele>472.6</ele><time>2026-03-29T13:38:12.998Z</time></trkpt><trkpt lat="44.683568923743785" lon="9.305876635275375"><ele>469.8</ele><time>2026-03-29T13:38:13.998Z</time></trkpt><trkpt lat="44.68345283914507" lon="9.305850024265533"><ele>467.0</ele><time>2026-03-29T13:38:14.998Z</time></trkpt><trkpt lat="44.683331180366515" lon="9.305823664690822"><ele>472.5</ele><time>2026-03-29T13:38:15.998Z</time></trkpt><trkpt lat="44.68322804183928" lon="9.30572719588857"><ele>478.0</ele><time>2026-03-29T13:38:16.998Z</time></trkpt><trkpt lat="44.68313049449577" lon="9.305648220094907"><ele>483.5</ele><time>2026-03-29T13:38:17.998Z</time></trkpt><trkpt lat="44.68308013243572" lon="9.305516871704445"><ele>489.0</ele><time>2026-03-29T13:38:18.998Z</time></trkpt><trkpt lat="44.68307634068536" lon="9.30535546146816"><ele>489.0</ele><time>2026-03-29T13:38:19.998Z</time></trkpt><trkpt lat="44.683099438099134" lon="9.30519142495022"><ele>489.0</ele><time>2026-03-29T13:38:20.998Z</time></trkpt><trkpt lat="44.68309731898064" lon="9.305036387311057"><ele>489.0</ele><time>2026-03-29T13:38:21.998Z</time></trkpt><trkpt lat="44.68304323707747" lon="9.304878225363806"><ele>489.0</ele><time>2026-03-29T13:38:22.998Z</time></trkpt><trkpt lat="44.68296157429752" lon="9.30471657103356"><ele>489.5</ele><time>2026-03-29T13:38:23.998Z</time></trkpt><trkpt lat="44.68288208343256" lon="9.304543812861182"><ele>490.0</ele><time>2026-03-29T13:38:24.998Z</time></trkpt><trkpt lat="44.68281387833048" lon="9.304359555055653"><ele>490.5</ele><time>2026-03-29T13:38:25.998Z</time></trkpt><trkpt lat="44.68275368008493" lon="9.30418692967976"><ele>491.0</ele><time>2026-03-29T13:38:26.998Z</time></trkpt><trkpt lat="44.68269249924932" lon="9.304048009282694"><ele>493.5</ele><time>2026-03-29T13:38:27.998Z</time></trkpt><trkpt lat="44.68261903341141" lon="9.303944884689635"><ele>496.0</ele><time>2026-03-29T13:38:28.998Z</time></trkpt><trkpt lat="44.682518303143844" lon="9.30388841901229"><ele>498.5</ele><time>2026-03-29T13:38:29.998Z</time></trkpt><trkpt lat="44.68239707334342" lon="9.303889244046983"><ele>501.0</ele><time>2026-03-29T13:38:30.998Z</time></trkpt><trkpt lat="44.68226887761169" lon="9.30392831748194"><ele>501.0</ele><time>2026-03-29T13:38:32Z</time></trkpt><trkpt lat="44.68214542067531" lon="9.303970831942491"><ele>501.0</ele><time>2026-03-29T13:38:33Z</time></trkpt><trkpt lat="44.68203128490285" lon="9.304006686744152"><ele>501.0</ele><time>2026-03-29T13:38:34Z</time></trkpt><trkpt lat="44.68192838277898" lon="9.304033116760655"><ele>501.0</ele><time>2026-03-29T13:38:35Z</time></trkpt><trkpt lat="44.681837285218116" lon="9.304052453439335"><ele>501.0</ele><time>2026-03-29T13:38:36Z</time></trkpt><trkpt lat="44.681768184879616" lon="9.30406686609281"><ele>502.0</ele><time>2026-03-29T13:38:37Z</time></trkpt><trkpt lat="44.681693334563526" lon="9.304086346076728"><ele>503.0</ele><time>2026-03-29T13:38:39Z</time></trkpt><trkpt lat="44.681614044006814" lon="9.304090373313906"><ele>504.0</ele><time>2026-03-29T13:39:59.999Z</time></trkpt><trkpt lat="44.68148484703" lon="9.304118919839953"><ele>505.0</ele><time>2026-03-29T13:40:01.998Z</time></trkpt><trkpt lat="44.68140187534119" lon="9.304137503323359"><ele>506.0</ele><time>2026-03-29T13:40:02.998Z</time></trkpt><trkpt lat="44.68131053706115" lon="9.304158756368075"><ele>506.0</ele><time>2026-03-29T13:40:03.998Z</time></trkpt><trkpt lat="44.681207457749075" lon="9.304174060148746"><ele>506.0</ele><time>2026-03-29T13:40:04.998Z</time></trkpt><trkpt lat="44.68111130602439" lon="9.304161793873314"><ele>506.0</ele><time>2026-03-29T13:40:05.998Z</time></trkpt><trkpt lat="44.68100511659089" lon="9.30412917455198"><ele>506.0</ele><time>2026-03-29T13:40:06.998Z</time></trkpt><trkpt lat="44.680893972545256" lon="9.30406282999873"><ele>506.0</ele><time>2026-03-29T13:40:07.998Z</time></trkpt><trkpt lat="44.68078121776199" lon="9.303982954472254"><ele>504.75</ele><time>2026-03-29T13:40:08.998Z</time></trkpt><trkpt lat="44.68067300017032" lon="9.303858316881579"><ele>503.5</ele><time>2026-03-29T13:40:09.998Z</time></trkpt><trkpt lat="44.680564343388696" lon="9.303722170417227"><ele>502.25</ele><time>2026-03-29T13:40:10.998Z</time></trkpt><trkpt lat="44.680451050964486" lon="9.303590593804621"><ele>501.0</ele><time>2026-03-29T13:40:11.998Z</time></trkpt><trkpt lat="44.68035179746297" lon="9.303475553664247"><ele>504.4</ele><time>2026-03-29T13:40:12.998Z</time></trkpt><trkpt lat="44.680263865376624" lon="9.303376885655783"><ele>507.8</ele><time>2026-03-29T13:40:13.998Z</time></trkpt><trkpt lat="44.680172490079435" lon="9.303307549950302"><ele>511.19999999999993</ele><time>2026-03-29T13:40:14.998Z</time></trkpt><trkpt lat="44.68007075135799" lon="9.303278651459722"><ele>514.6</ele><time>2026-03-29T13:40:15.998Z</time></trkpt><trkpt lat="44.679955748621396" lon="9.303302817945244"><ele>518.0</ele><time>2026-03-29T13:40:16.998Z</time></trkpt><trkpt lat="44.67983901885432" lon="9.303389580559605"><ele>518.0</ele><time>2026-03-29T13:40:17.998Z</time></trkpt><trkpt lat="44.6797209764917" lon="9.303501043082342"><ele>518.0</ele><time>2026-03-29T13:40:18.998Z</time></trkpt><trkpt lat="44.679590649695044" lon="9.303614845147695"><ele>518.0</ele><time>2026-03-29T13:40:19.998Z</time></trkpt><trkpt lat="44.679467078216405" lon="9.303710287362458"><ele>518.0</ele><time>2026-03-29T13:40:20.998Z</time></trkpt><trkpt lat="44.67934032583337" lon="9.303767195523495"><ele>514.6666666666666</ele><time>2026-03-29T13:40:21.998Z</time></trkpt><trkpt lat="44.679195701351084" lon="9.303783308609107"><ele>511.33333333333337</ele><time>2026-03-29T13:40:22.998Z</time></trkpt><trkpt lat="44.67904558668649" lon="9.303796780047737"><ele>508.0</ele><time>2026-03-29T13:40:23.998Z</time></trkpt><trkpt lat="44.67889339326535" lon="9.303831713048105"><ele>508.0</ele><time>2026-03-29T13:40:24.998Z</time></trkpt><trkpt lat="44.67874283109024" lon="9.303887547349804"><ele>508.0</ele><time>2026-03-29T13:40:25.998Z</time></trkpt><trkpt lat="44.67860065505417" lon="9.303964041759937"><ele>508.0</ele><time>2026-03-29T13:40:26.998Z</time></trkpt><trkpt lat="44.67848012140033" lon="9.304071452998633"><ele>511.0</ele><time>2026-03-29T13:40:27.998Z</time></trkpt><trkpt lat="44.67838818754148" lon="9.304216501156775"><ele>514.0</ele><time>2026-03-29T13:40:28.998Z</time></trkpt><trkpt lat="44.678320659635204" lon="9.304381669463798"><ele>517.0</ele><time>2026-03-29T13:40:29.998Z</time></trkpt><trkpt lat="44.678274576417145" lon="9.30454196027289"><ele>520.0</ele><time>2026-03-29T13:40:30.998Z</time></trkpt><trkpt lat="44.67820744916812" lon="9.304658251068759"><ele>520.0</ele><time>2026-03-29T13:40:31.998Z</time></trkpt><trkpt lat="44.67811682795495" lon="9.304730458362142"><ele>520.0</ele><time>2026-03-29T13:40:32.998Z</time></trkpt><trkpt lat="44.67800568615141" lon="9.30475186210934"><ele>520.0</ele><time>2026-03-29T13:40:33.998Z</time></trkpt><trkpt lat="44.67789258045339" lon="9.304781809060747"><ele>520.0</ele><time>2026-03-29T13:40:34.998Z</time></trkpt><trkpt lat="44.67779021394497" lon="9.30486662462143"><ele>522.75</ele><time>2026-03-29T13:40:35.998Z</time></trkpt><trkpt lat="44.67768143006471" lon="9.30498425534889"><ele>525.5</ele><time>2026-03-29T13:40:36.998Z</time></trkpt><trkpt lat="44.67758758651989" lon="9.30513354298668"><ele>528.25</ele><time>2026-03-29T13:40:38Z</time></trkpt><trkpt lat="44.677516288255156" lon="9.305202408900398"><ele>531.0</ele><time>2026-03-29T13:40:39Z</time></trkpt><trkpt lat="44.67739717672051" lon="9.305161511249263"><ele>531.0</ele><time>2026-03-29T13:40:40Z</time></trkpt><trkpt lat="44.677259998261135" lon="9.305180859343816"><ele>531.0</ele><time>2026-03-29T13:40:41Z</time></trkpt><trkpt lat="44.67711889505865" lon="9.305219826511495"><ele>531.0</ele><time>2026-03-29T13:40:42Z</time></trkpt><trkpt lat="44.67696462076418" lon="9.305246172648589"><ele>531.0</ele><time>2026-03-29T13:40:43Z</time></trkpt><trkpt lat="44.67680595648788" lon="9.305271394905853"><ele>530.6666666666666</ele><time>2026-03-29T13:40:44Z</time></trkpt><trkpt lat="44.67663930492205" lon="9.30529347150843"><ele>530.3333333333333</ele><time>2026-03-29T13:40:45Z</time></trkpt><trkpt lat="44.67646884931086" lon="9.305319500892969"><ele>530.0</ele><time>2026-03-29T13:40:46Z</time></trkpt><trkpt lat="44.67629605088854" lon="9.30533877403608"><ele>530.0</ele><time>2026-03-29T13:40:47Z</time></trkpt><trkpt lat="44.67613813302187" lon="9.305372658193049"><ele>530.0</ele><time>2026-03-29T13:40:48Z</time></trkpt><trkpt lat="44.6759895929017" lon="9.305446923580277"><ele>530.0</ele><time>2026-03-29T13:40:49Z</time></trkpt><trkpt lat="44.675862424569495" lon="9.305573993338228"><ele>532.6666666666666</ele><time>2026-03-29T13:40:50Z</time></trkpt><trkpt lat="44.6757610020154" lon="9.305749705241576"><ele>535.3333333333334</ele><time>2026-03-29T13:40:51Z</time></trkpt><trkpt lat="44.675680934853254" lon="9.305942538279941"><ele>538.0</ele><time>2026-03-29T13:40:52Z</time></trkpt><trkpt lat="44.67562503561201" lon="9.306150721265894"><ele>538.0</ele><time>2026-03-29T13:40:53Z</time></trkpt><trkpt lat="44.67559037232749" lon="9.306343182888922"><ele>538.0</ele><time>2026-03-29T13:40:54Z</time></trkpt><trkpt lat="44.67557899113879" lon="9.306545264558114"><ele>538.0</ele><time>2026-03-29T13:40:55Z</time></trkpt><trkpt lat="44.67559632257667" lon="9.306738271095968"><ele>538.0</ele><time>2026-03-29T13:40:56Z</time></trkpt><trkpt lat="44.67561298188352" lon="9.306875273697933"><ele>540.8</ele><time>2026-03-29T13:40:57Z</time></trkpt><trkpt lat="44.67560978540475" lon="9.307028243104552"><ele>543.5999999999999</ele><time>2026-03-29T13:40:58Z</time></trkpt><trkpt lat="44.67551234210534" lon="9.307026551775698"><ele>546.4000000000001</ele><time>2026-03-29T13:40:59Z</time></trkpt><trkpt lat="44.67542764474869" lon="9.307056914670923"><ele>549.2</ele><time>2026-03-29T13:41:00Z</time></trkpt><trkpt lat="44.67533598465142" lon="9.307125541768231"><ele>552.0</ele><time>2026-03-29T13:41:01Z</time></trkpt><trkpt lat="44.67525430465146" lon="9.307226224826756"><ele>545.75</ele><time>2026-03-29T13:41:02Z</time></trkpt><trkpt lat="44.67521111834219" lon="9.307374278467602"><ele>539.5</ele><time>2026-03-29T13:41:03Z</time></trkpt><trkpt lat="44.67520710327665" lon="9.30755739672321"><ele>533.25</ele><time>2026-03-29T13:41:04Z</time></trkpt><trkpt lat="44.67522260760538" lon="9.307739169947634"><ele>527.0</ele><time>2026-03-29T13:41:05Z</time></trkpt><trkpt lat="44.67526735216236" lon="9.307926143412038"><ele>535.75</ele><time>2026-03-29T13:41:05.999Z</time></trkpt><trkpt lat="44.675320381300466" lon="9.308111245966575"><ele>544.5</ele><time>2026-03-29T13:41:06.999Z</time></trkpt><trkpt lat="44.67537475309298" lon="9.308295795368814"><ele>553.25</ele><time>2026-03-29T13:41:07.999Z</time></trkpt><trkpt lat="44.6754279180843" lon="9.30846307089586"><ele>562.0</ele><time>2026-03-29T13:41:08.999Z</time></trkpt><trkpt lat="44.67547764626759" lon="9.308593362726523"><ele>562.0</ele><time>2026-03-29T13:41:09.999Z</time></trkpt><trkpt lat="44.67550487687699" lon="9.308704391874423"><ele>562.0</ele><time>2026-03-29T13:41:10.999Z</time></trkpt><trkpt lat="44.675483757545585" lon="9.308811111466277"><ele>562.0</ele><time>2026-03-29T13:41:11.999Z</time></trkpt><trkpt lat="44.675416474533975" lon="9.30890371403181"><ele>562.0</ele><time>2026-03-29T13:41:12.999Z</time></trkpt><trkpt lat="44.675329072035225" lon="9.308962184343569"><ele>562.0</ele><time>2026-03-29T13:41:13.999Z</time></trkpt><trkpt lat="44.675261530090765" lon="9.308992905296426"><ele>562.0</ele><time>2026-03-29T13:41:14.999Z</time></trkpt><trkpt lat="44.675181593832725" lon="9.309041389737802"><ele>559.4</ele><time>2026-03-29T13:41:16.999Z</time></trkpt><trkpt lat="44.67511098440945" lon="9.309113772283432"><ele>556.8000000000001</ele><time>2026-03-29T13:42:17.998Z</time></trkpt><trkpt lat="44.67499680099889" lon="9.309222598324677"><ele>554.2</ele><time>2026-03-29T13:42:19.998Z</time></trkpt><trkpt lat="44.67492586966106" lon="9.309278695126794"><ele>551.6</ele><time>2026-03-29T13:42:20.998Z</time></trkpt><trkpt lat="44.67485038649399" lon="9.309294395286736"><ele>549.0</ele><time>2026-03-29T13:42:21.998Z</time></trkpt><trkpt lat="44.67477562499067" lon="9.309289011381889"><ele>549.0</ele><time>2026-03-29T13:42:22.998Z</time></trkpt><trkpt lat="44.67470733279986" lon="9.309192902220321"><ele>549.0</ele><time>2026-03-29T13:42:23.998Z</time></trkpt><trkpt lat="44.67465072045622" lon="9.309078031203256"><ele>549.0</ele><time>2026-03-29T13:42:24.998Z</time></trkpt><trkpt lat="44.67458202650353" lon="9.308972790581839"><ele>549.0</ele><time>2026-03-29T13:42:25.998Z</time></trkpt><trkpt lat="44.674489187395146" lon="9.308918486014074"><ele>549.0</ele><time>2026-03-29T13:42:26.998Z</time></trkpt><trkpt lat="44.67437112596641" lon="9.308929600401228"><ele>551.0</ele><time>2026-03-29T13:42:27.998Z</time></trkpt><trkpt lat="44.674250910063755" lon="9.30898063452545"><ele>553.0</ele><time>2026-03-29T13:42:28.998Z</time></trkpt><trkpt lat="44.67412603640149" lon="9.30903386344507"><ele>555.0</ele><time>2026-03-29T13:42:29.998Z</time></trkpt><trkpt lat="44.67400692144753" lon="9.309026470809007"><ele>557.0</ele><time>2026-03-29T13:42:30.998Z</time></trkpt><trkpt lat="44.67390483346796" lon="9.308922610296337"><ele>550.5</ele><time>2026-03-29T13:42:31.998Z</time></trkpt><trkpt lat="44.67379565517103" lon="9.30882746759576"><ele>544.0</ele><time>2026-03-29T13:42:32.998Z</time></trkpt><trkpt lat="44.67370952809429" lon="9.308683435261175"><ele>537.5</ele><time>2026-03-29T13:42:33.998Z</time></trkpt><trkpt lat="44.67361545792609" lon="9.308564075305473"><ele>531.0</ele><time>2026-03-29T13:42:34.998Z</time></trkpt><trkpt lat="44.673516071682926" lon="9.308492821641426"><ele>531.0</ele><time>2026-03-29T13:42:35.998Z</time></trkpt><trkpt lat="44.67341810715347" lon="9.308434923866926"><ele>531.0</ele><time>2026-03-29T13:42:36.998Z</time></trkpt><trkpt lat="44.67332132383459" lon="9.308410094988977"><ele>531.0</ele><time>2026-03-29T13:42:37.998Z</time></trkpt><trkpt lat="44.673218176721" lon="9.308434175607065"><ele>531.0</ele><time>2026-03-29T13:42:38.998Z</time></trkpt><trkpt lat="44.673120345875994" lon="9.308517292312214"><ele>531.0</ele><time>2026-03-29T13:42:39.998Z</time></trkpt><trkpt lat="44.673037100888024" lon="9.308651650731052"><ele>531.0</ele><time>2026-03-29T13:42:40.998Z</time></trkpt><trkpt lat="44.672976519695496" lon="9.308798936786578"><ele>531.0</ele><time>2026-03-29T13:42:41.998Z</time></trkpt><trkpt lat="44.67290735613546" lon="9.308934440594658"><ele>531.0</ele><time>2026-03-29T13:42:42.998Z</time></trkpt><trkpt lat="44.67282952739033" lon="9.309080727891844"><ele>531.0</ele><time>2026-03-29T13:42:44Z</time></trkpt><trkpt lat="44.67274926303054" lon="9.309188930462089"><ele>533.5</ele><time>2026-03-29T13:42:45Z</time></trkpt><trkpt lat="44.672644538302684" lon="9.309285741739114"><ele>536.0</ele><time>2026-03-29T13:42:46Z</time></trkpt><trkpt lat="44.672532168974385" lon="9.309383168385082"><ele>538.5</ele><time>2026-03-29T13:42:47Z</time></trkpt><trkpt lat="44.672409062244874" lon="9.309469045238792"><ele>541.0</ele><time>2026-03-29T13:42:48Z</time></trkpt><trkpt lat="44.672294597877794" lon="9.30956919176802"><ele>541.0</ele><time>2026-03-29T13:42:49Z</time></trkpt><trkpt lat="44.672183227357024" lon="9.309641611013934"><ele>541.0</ele><time>2026-03-29T13:42:50Z</time></trkpt><trkpt lat="44.67206613463537" lon="9.309676760289744"><ele>541.0</ele><time>2026-03-29T13:42:51Z</time></trkpt><trkpt lat="44.671931970309316" lon="9.309629499287043"><ele>541.0</ele><time>2026-03-29T13:42:52Z</time></trkpt><trkpt lat="44.6717967906876" lon="9.30963336277028"><ele>538.0</ele><time>2026-03-29T13:42:53Z</time></trkpt><trkpt lat="44.67165999454107" lon="9.309622385534928"><ele>535.0</ele><time>2026-03-29T13:42:54Z</time></trkpt><trkpt lat="44.67154704668712" lon="9.309657070149077"><ele>532.0</ele><time>2026-03-29T13:42:55Z</time></trkpt><trkpt lat="44.67144079214791" lon="9.30963354175324"><ele>529.0</ele><time>2026-03-29T13:42:56Z</time></trkpt><trkpt lat="44.67134061825371" lon="9.309544843159006"><ele>529.0</ele><time>2026-03-29T13:42:57Z</time></trkpt><trkpt lat="44.671250830685736" lon="9.309435532826386"><ele>529.0</ele><time>2026-03-29T13:42:58Z</time></trkpt><trkpt lat="44.67116368533496" lon="9.309372549371357"><ele>529.0</ele><time>2026-03-29T13:42:59Z</time></trkpt><trkpt lat="44.67106514053846" lon="9.309352998790919"><ele>529.0</ele><time>2026-03-29T13:43:00Z</time></trkpt><trkpt lat="44.67096726068932" lon="9.309403895548082"><ele>529.0</ele><time>2026-03-29T13:43:01Z</time></trkpt><trkpt lat="44.67086825027452" lon="9.309496972922673"><ele>529.75</ele><time>2026-03-29T13:43:02Z</time></trkpt><trkpt lat="44.670762839799444" lon="9.309592246666517"><ele>530.5</ele><time>2026-03-29T13:43:03Z</time></trkpt><trkpt lat="44.67063290695163" lon="9.309621943873251"><ele>531.25</ele><time>2026-03-29T13:43:04Z</time></trkpt><trkpt lat="44.67049242445301" lon="9.309617549976894"><ele>532.0</ele><time>2026-03-29T13:43:05Z</time></trkpt><trkpt lat="44.67035754876128" lon="9.309597648632133"><ele>530.25</ele><time>2026-03-29T13:43:06Z</time></trkpt><trkpt lat="44.670236073200805" lon="9.30954230901852"><ele>528.5</ele><time>2026-03-29T13:43:07Z</time></trkpt><trkpt lat="44.6701337903866" lon="9.309456633236433"><ele>526.75</ele><time>2026-03-29T13:43:08Z</time></trkpt><trkpt lat="44.67003924332699" lon="9.309394348353935"><ele>525.0</ele><time>2026-03-29T13:43:09Z</time></trkpt><trkpt lat="44.66993641613111" lon="9.309384766485014"><ele>525.0</ele><time>2026-03-29T13:43:10Z</time></trkpt><trkpt lat="44.66982807174458" lon="9.309451172741136"><ele>525.0</ele><time>2026-03-29T13:43:11Z</time></trkpt><trkpt lat="44.66974277473305" lon="9.30959594812354"><ele>525.0</ele><time>2026-03-29T13:43:12Z</time></trkpt><trkpt lat="44.669676685224154" lon="9.309739524965083"><ele>525.0</ele><time>2026-03-29T13:43:12.999Z</time></trkpt><trkpt lat="44.66963893477867" lon="9.30990490085989"><ele>532.25</ele><time>2026-03-29T13:43:13.999Z</time></trkpt><trkpt lat="44.66965226031818" lon="9.310086114108612"><ele>539.5</ele><time>2026-03-29T13:43:14.999Z</time></trkpt><trkpt lat="44.66968429260402" lon="9.31026733315904"><ele>546.75</ele><time>2026-03-29T13:43:15.999Z</time></trkpt><trkpt lat="44.66969004409188" lon="9.310433789305545"><ele>554.0</ele><time>2026-03-29T13:43:16.999Z</time></trkpt><trkpt lat="44.669710840094574" lon="9.310563596451782"><ele>551.0</ele><time>2026-03-29T13:43:17.999Z</time></trkpt><trkpt lat="44.66967726119617" lon="9.310684527487213"><ele>548.0</ele><time>2026-03-29T13:43:18.999Z</time></trkpt><trkpt lat="44.66961453805439" lon="9.310767600491088"><ele>545.0</ele><time>2026-03-29T13:43:19.999Z</time></trkpt><trkpt lat="44.669521887127715" lon="9.310796021073829"><ele>542.0</ele><time>2026-03-29T13:43:20.999Z</time></trkpt><trkpt lat="44.669417910178765" lon="9.31080213385662"><ele>539.0</ele><time>2026-03-29T13:43:21.999Z</time></trkpt><trkpt lat="44.66931117548084" lon="9.310823047114987"><ele>539.0</ele><time>2026-03-29T13:43:22.999Z</time></trkpt><trkpt lat="44.669199516794805" lon="9.310852664366756"><ele>539.0</ele><time>2026-03-29T13:43:23.999Z</time></trkpt><trkpt lat="44.6690946084189" lon="9.310924386214507"><ele>539.0</ele><time>2026-03-29T13:43:24.999Z</time></trkpt><trkpt lat="44.66900971073184" lon="9.311055221621308"><ele>539.0</ele><time>2026-03-29T13:43:25.999Z</time></trkpt><trkpt lat="44.66896472383816" lon="9.311227135198873"><ele>545.25</ele><time>2026-03-29T13:43:26.999Z</time></trkpt><trkpt lat="44.66893834447555" lon="9.31141184868967"><ele>551.5</ele><time>2026-03-29T13:43:27.999Z</time></trkpt><trkpt lat="44.668895775050466" lon="9.3115986089407"><ele>557.75</ele><time>2026-03-29T13:43:28.999Z</time></trkpt><trkpt lat="44.66887969448621" lon="9.31177132001402"><ele>564.0</ele><time>2026-03-29T13:43:29.999Z</time></trkpt><trkpt lat="44.6688354445739" lon="9.31190823749299"><ele>564.0</ele><time>2026-03-29T13:43:30.999Z</time></trkpt><trkpt lat="44.66875972532956" lon="9.311999940018085"><ele>564.0</ele><time>2026-03-29T13:43:31.999Z</time></trkpt><trkpt lat="44.66864253119091" lon="9.312048443421904"><ele>564.0</ele><time>2026-03-29T13:43:32.999Z</time></trkpt><trkpt lat="44.66850616736474" lon="9.31207394924073"><ele>564.0</ele><time>2026-03-29T13:43:33.999Z</time></trkpt><trkpt lat="44.66836990991243" lon="9.312070491022649"><ele>559.0</ele><time>2026-03-29T13:43:34.999Z</time></trkpt><trkpt lat="44.66823253458701" lon="9.312020928169277"><ele>554.0</ele><time>2026-03-29T13:43:35.999Z</time></trkpt><trkpt lat="44.66811151600679" lon="9.31192087383543"><ele>549.0</ele><time>2026-03-29T13:43:36.999Z</time></trkpt><trkpt lat="44.668012989372805" lon="9.311798069251061"><ele>544.0</ele><time>2026-03-29T13:43:37.999Z</time></trkpt><trkpt lat="44.66791481982389" lon="9.311713594979732"><ele>544.0</ele><time>2026-03-29T13:43:38.999Z</time></trkpt><trkpt lat="44.667814615600236" lon="9.31170784634151"><ele>544.0</ele><time>2026-03-29T13:43:39.999Z</time></trkpt><trkpt lat="44.66772417511895" lon="9.311761547730773"><ele>544.0</ele><time>2026-03-29T13:43:40.999Z</time></trkpt><trkpt lat="44.66766396417412" lon="9.31190763467776"><ele>544.0</ele><time>2026-03-29T13:43:41.999Z</time></trkpt><trkpt lat="44.667590737539584" lon="9.31206388445944"><ele>540.5</ele><time>2026-03-29T13:43:42.999Z</time></trkpt><trkpt lat="44.66750649635404" lon="9.312231294134161"><ele>537.0</ele><time>2026-03-29T13:43:43.999Z</time></trkpt><trkpt lat="44.667430738665175" lon="9.312410305935106"><ele>533.5</ele><time>2026-03-29T13:43:44.999Z</time></trkpt><trkpt lat="44.66734885847103" lon="9.31259168438555"><ele>530.0</ele><time>2026-03-29T13:43:45.999Z</time></trkpt><trkpt lat="44.66725615321437" lon="9.31273616067639"><ele>532.25</ele><time>2026-03-29T13:43:46.999Z</time></trkpt><trkpt lat="44.66713640574978" lon="9.31282585133903"><ele>534.5</ele><time>2026-03-29T13:43:47.999Z</time></trkpt><trkpt lat="44.66699434230117" lon="9.312870049897858"><ele>536.75</ele><time>2026-03-29T13:43:48.999Z</time></trkpt><trkpt lat="44.6668502436959" lon="9.312908849737768"><ele>539.0</ele><time>2026-03-29T13:43:49.999Z</time></trkpt><trkpt lat="44.66670506840595" lon="9.312955652674114"><ele>539.0</ele><time>2026-03-29T13:43:50.999Z</time></trkpt><trkpt lat="44.666568512783506" lon="9.313006473698605"><ele>539.0</ele><time>2026-03-29T13:43:51.999Z</time></trkpt><trkpt lat="44.66644244888824" lon="9.31304915681867"><ele>539.0</ele><time>2026-03-29T13:43:52.999Z</time></trkpt><trkpt lat="44.66632878093699" lon="9.31306315338628"><ele>539.0</ele><time>2026-03-29T13:43:53.999Z</time></trkpt><trkpt lat="44.666236647783144" lon="9.313010068600018"><ele>539.0</ele><time>2026-03-29T13:43:54.999Z</time></trkpt><trkpt lat="44.66617505942946" lon="9.31290459243491"><ele>539.0</ele><time>2026-03-29T13:43:55.999Z</time></trkpt><trkpt lat="44.666144950752376" lon="9.3127537041268"><ele>539.0</ele><time>2026-03-29T13:43:56.999Z</time></trkpt><trkpt lat="44.666071778402966" lon="9.312643756525867"><ele>539.0</ele><time>2026-03-29T13:43:57.999Z</time></trkpt><trkpt lat="44.665958776422535" lon="9.312558499871795"><ele>539.0</ele><time>2026-03-29T13:43:58.999Z</time></trkpt><trkpt lat="44.66582811671224" lon="9.312497763796657"><ele>539.0</ele><time>2026-03-29T13:43:59.999Z</time></trkpt><trkpt lat="44.66570334430339" lon="9.312422828774851"><ele>539.0</ele><time>2026-03-29T13:44:00.999Z</time></trkpt><trkpt lat="44.66560672196577" lon="9.312301399833508"><ele>539.0</ele><time>2026-03-29T13:44:01.999Z</time></trkpt><trkpt lat="44.66553276030505" lon="9.312131647454466"><ele>539.0</ele><time>2026-03-29T13:44:02.999Z</time></trkpt><trkpt lat="44.665488009748884" lon="9.311940224479468"><ele>539.0</ele><time>2026-03-29T13:44:03.999Z</time></trkpt><trkpt lat="44.66541496761395" lon="9.311764497732854"><ele>539.0</ele><time>2026-03-29T13:44:04.999Z</time></trkpt><trkpt lat="44.66531080809712" lon="9.311603128849498"><ele>539.0</ele><time>2026-03-29T13:44:05.999Z</time></trkpt><trkpt lat="44.66518965256137" lon="9.31145079624115"><ele>541.0</ele><time>2026-03-29T13:44:06.999Z</time></trkpt><trkpt lat="44.6650626040509" lon="9.311315306186584"><ele>543.0</ele><time>2026-03-29T13:44:07.999Z</time></trkpt><trkpt lat="44.6649282205083" lon="9.311217885271768"><ele>545.0</ele><time>2026-03-29T13:44:08.999Z</time></trkpt><trkpt lat="44.66479450639228" lon="9.311168612374916"><ele>547.0</ele><time>2026-03-29T13:44:09.999Z</time></trkpt><trkpt lat="44.6646513297392" lon="9.311157972061629"><ele>547.0</ele><time>2026-03-29T13:44:10.999Z</time></trkpt><trkpt lat="44.6645005585759" lon="9.311182914275738"><ele>547.0</ele><time>2026-03-29T13:44:11.999Z</time></trkpt><trkpt lat="44.66434751361177" lon="9.311227543885854"><ele>547.0</ele><time>2026-03-29T13:44:12.999Z</time></trkpt><trkpt lat="44.66420015686141" lon="9.311282390716205"><ele>545.0</ele><time>2026-03-29T13:44:13.998Z</time></trkpt><trkpt lat="44.664063492528875" lon="9.311320154650515"><ele>543.0</ele><time>2026-03-29T13:44:14.998Z</time></trkpt><trkpt lat="44.663930772534606" lon="9.311429266295306"><ele>541.0</ele><time>2026-03-29T13:44:15.998Z</time></trkpt><trkpt lat="44.663810961019" lon="9.311586654765405"><ele>541.0</ele><time>2026-03-29T13:44:16.998Z</time></trkpt><trkpt lat="44.663706928251116" lon="9.311743949675837"><ele>541.0</ele><time>2026-03-29T13:44:17.998Z</time></trkpt><trkpt lat="44.6635443287392" lon="9.3118496497843"><ele>541.0</ele><time>2026-03-29T13:44:18.998Z</time></trkpt><trkpt lat="44.66337934739018" lon="9.311972826677808"><ele>541.0</ele><time>2026-03-29T13:44:19.998Z</time></trkpt><trkpt lat="44.66320330752948" lon="9.312075401332942"><ele>541.0</ele><time>2026-03-29T13:44:20.998Z</time></trkpt><trkpt lat="44.663052603222454" lon="9.312196077897314"><ele>541.0</ele><time>2026-03-29T13:44:21.998Z</time></trkpt><trkpt lat="44.66291331666679" lon="9.31232599254018"><ele>540.75</ele><time>2026-03-29T13:44:22.998Z</time></trkpt><trkpt lat="44.662790858879156" lon="9.312458070744603"><ele>540.5</ele><time>2026-03-29T13:44:23.998Z</time></trkpt><trkpt lat="44.66267792486662" lon="9.312571031258546"><ele>540.25</ele><time>2026-03-29T13:44:24.998Z</time></trkpt><trkpt lat="44.66259491877585" lon="9.312694710588275"><ele>540.0</ele><time>2026-03-29T13:44:25.998Z</time></trkpt><trkpt lat="44.66254336505878" lon="9.312857378902857"><ele>540.0</ele><time>2026-03-29T13:44:26.998Z</time></trkpt><trkpt lat="44.6625001232039" lon="9.313030655740258"><ele>540.0</ele><time>2026-03-29T13:44:27.998Z</time></trkpt><trkpt lat="44.66241003527972" lon="9.31316378142888"><ele>540.0</ele><time>2026-03-29T13:44:28.998Z</time></trkpt><trkpt lat="44.662307390869614" lon="9.313288046037176"><ele>540.0</ele><time>2026-03-29T13:44:29.998Z</time></trkpt><trkpt lat="44.66218833620063" lon="9.313365378623724"><ele>541.2</ele><time>2026-03-29T13:44:30.998Z</time></trkpt><trkpt lat="44.66207649124597" lon="9.313424929938765"><ele>542.4</ele><time>2026-03-29T13:44:31.998Z</time></trkpt><trkpt lat="44.661967377891024" lon="9.313433808015176"><ele>543.6</ele><time>2026-03-29T13:44:32.998Z</time></trkpt><trkpt lat="44.66187168151568" lon="9.313370084452531"><ele>544.8</ele><time>2026-03-29T13:44:33.998Z</time></trkpt><trkpt lat="44.66180459360289" lon="9.313244518395248"><ele>546.0</ele><time>2026-03-29T13:44:34.998Z</time></trkpt><trkpt lat="44.66176089528568" lon="9.313068834852322"><ele>546.0</ele><time>2026-03-29T13:44:35.998Z</time></trkpt><trkpt lat="44.661702791790404" lon="9.312893616258933"><ele>546.0</ele><time>2026-03-29T13:44:36.998Z</time></trkpt><trkpt lat="44.66163503207537" lon="9.312706851118913"><ele>546.0</ele><time>2026-03-29T13:44:37.998Z</time></trkpt><trkpt lat="44.66156336307979" lon="9.312507191489763"><ele>546.0</ele><time>2026-03-29T13:44:38.998Z</time></trkpt><trkpt lat="44.661486295391505" lon="9.312293514824116"><ele>543.0</ele><time>2026-03-29T13:44:39.998Z</time></trkpt><trkpt lat="44.66140691642058" lon="9.312072231659032"><ele>540.0</ele><time>2026-03-29T13:44:40.998Z</time></trkpt><trkpt lat="44.66133047260162" lon="9.311846552929866"><ele>537.0</ele><time>2026-03-29T13:44:41.998Z</time></trkpt><trkpt lat="44.66126233778383" lon="9.311620336966739"><ele>535.6666666666666</ele><time>2026-03-29T13:44:42.998Z</time></trkpt><trkpt lat="44.66120407492275" lon="9.311392240878854"><ele>534.3333333333333</ele><time>2026-03-29T13:44:43.998Z</time></trkpt><trkpt lat="44.66116880788785" lon="9.311156863457983"><ele>533.0</ele><time>2026-03-29T13:44:44.998Z</time></trkpt><trkpt lat="44.66115344851042" lon="9.310923569070729"><ele>533.0</ele><time>2026-03-29T13:44:45.998Z</time></trkpt><trkpt lat="44.6611342308912" lon="9.310707037340133"><ele>533.0</ele><time>2026-03-29T13:44:46.998Z</time></trkpt><trkpt lat="44.66110467983845" lon="9.310502742251899"><ele>533.0</ele><time>2026-03-29T13:44:47.998Z</time></trkpt><trkpt lat="44.66105960316228" lon="9.310308935630284"><ele>533.0</ele><time>2026-03-29T13:44:48.998Z</time></trkpt><trkpt lat="44.66100156231989" lon="9.310137696075628"><ele>533.1999999999999</ele><time>2026-03-29T13:44:50Z</time></trkpt><trkpt lat="44.66094068707243" lon="9.310005397622938"><ele>533.4</ele><time>2026-03-29T13:44:51Z</time></trkpt><trkpt lat="44.66085641405551" lon="9.309929347488088"><ele>533.5999999999999</ele><time>2026-03-29T13:44:52Z</time></trkpt><trkpt lat="44.66076023891697" lon="9.30991041958966"><ele>533.8</ele><time>2026-03-29T13:44:53Z</time></trkpt><trkpt lat="44.66067153495306" lon="9.309953087102702"><ele>534.0</ele><time>2026-03-29T13:44:54Z</time></trkpt><trkpt lat="44.66059436709189" lon="9.31005251121043"><ele>534.0</ele><time>2026-03-29T13:44:55Z</time></trkpt><trkpt lat="44.66053700924809" lon="9.310205043286324"><ele>534.0</ele><time>2026-03-29T13:44:56Z</time></trkpt><trkpt lat="44.66049618660261" lon="9.31037424563876"><ele>534.0</ele><time>2026-03-29T13:44:57Z</time></trkpt><trkpt lat="44.660455885629574" lon="9.31053094897202"><ele>534.0</ele><time>2026-03-29T13:44:58Z</time></trkpt><trkpt lat="44.6603750782171" lon="9.310644546926392"><ele>534.0</ele><time>2026-03-29T13:44:59Z</time></trkpt><trkpt lat="44.660245200381645" lon="9.310704912143546"><ele>534.0</ele><time>2026-03-29T13:45:00Z</time></trkpt><trkpt lat="44.66012254135607" lon="9.31077722474067"><ele>534.0</ele><time>2026-03-29T13:45:01Z</time></trkpt><trkpt lat="44.65999161309116" lon="9.310889638182449"><ele>534.0</ele><time>2026-03-29T13:45:02Z</time></trkpt><trkpt lat="44.659858839595756" lon="9.311040364905955"><ele>534.0</ele><time>2026-03-29T13:45:03Z</time></trkpt><trkpt lat="44.65972414707771" lon="9.311203472052936"><ele>534.0</ele><time>2026-03-29T13:45:04Z</time></trkpt><trkpt lat="44.659583519513895" lon="9.31136507746894"><ele>534.0</ele><time>2026-03-29T13:45:05Z</time></trkpt><trkpt lat="44.659429145861395" lon="9.311503608152123"><ele>534.0</ele><time>2026-03-29T13:45:06Z</time></trkpt><trkpt lat="44.659265030652605" lon="9.311602383092934"><ele>534.0</ele><time>2026-03-29T13:45:07Z</time></trkpt><trkpt lat="44.659101913918086" lon="9.311680025436258"><ele>534.0</ele><time>2026-03-29T13:45:08Z</time></trkpt><trkpt lat="44.65895053747257" lon="9.311763039336162"><ele>534.0</ele><time>2026-03-29T13:45:09Z</time></trkpt><trkpt lat="44.65880660208527" lon="9.311857604543665"><ele>534.0</ele><time>2026-03-29T13:45:10Z</time></trkpt><trkpt lat="44.65866047099501" lon="9.311959693300789"><ele>534.0</ele><time>2026-03-29T13:45:11Z</time></trkpt><trkpt lat="44.65851223271559" lon="9.312061273223494"><ele>535.0</ele><time>2026-03-29T13:45:12Z</time></trkpt><trkpt lat="44.65836339841861" lon="9.312163708004977"><ele>536.0</ele><time>2026-03-29T13:45:13Z</time></trkpt><trkpt lat="44.658219286315976" lon="9.312267062255188"><ele>537.0</ele><time>2026-03-29T13:45:14Z</time></trkpt><trkpt lat="44.65807539365197" lon="9.312369906230801"><ele>537.0</ele><time>2026-03-29T13:45:15Z</time></trkpt><trkpt lat="44.65793093148397" lon="9.31246979204997"><ele>537.0</ele><time>2026-03-29T13:45:16Z</time></trkpt><trkpt lat="44.65778299975199" lon="9.312562579255383"><ele>537.0</ele><time>2026-03-29T13:45:17Z</time></trkpt><trkpt lat="44.65762748635083" lon="9.3126344034077"><ele>534.0</ele><time>2026-03-29T13:45:17.999Z</time></trkpt><trkpt lat="44.657475000132536" lon="9.31268671924031"><ele>531.0</ele><time>2026-03-29T13:45:18.999Z</time></trkpt><trkpt lat="44.65733846386381" lon="9.312753978705612"><ele>528.0</ele><time>2026-03-29T13:45:19.999Z</time></trkpt><trkpt lat="44.65720879687421" lon="9.31282776459602"><ele>525.0</ele><time>2026-03-29T13:45:20.999Z</time></trkpt><trkpt lat="44.65709815465415" lon="9.312894249433452"><ele>525.0</ele><time>2026-03-29T13:45:21.999Z</time></trkpt><trkpt lat="44.65699351097483" lon="9.312934645437213"><ele>525.0</ele><time>2026-03-29T13:45:22.999Z</time></trkpt><trkpt lat="44.65688851314394" lon="9.312907527886319"><ele>525.0</ele><time>2026-03-29T13:45:23.999Z</time></trkpt><trkpt lat="44.65678917550826" lon="9.312833813208439"><ele>525.0</ele><time>2026-03-29T13:45:24.999Z</time></trkpt><trkpt lat="44.65670617631502" lon="9.312714613363578"><ele>525.0</ele><time>2026-03-29T13:45:25.999Z</time></trkpt><trkpt lat="44.65662079070809" lon="9.312593368290102"><ele>525.75</ele><time>2026-03-29T13:45:26.999Z</time></trkpt><trkpt lat="44.65653041895112" lon="9.3124744607187"><ele>526.5</ele><time>2026-03-29T13:45:27.999Z</time></trkpt><trkpt lat="44.656441452135674" lon="9.312358377936988"><ele>527.25</ele><time>2026-03-29T13:45:28.999Z</time></trkpt><trkpt lat="44.65635623132583" lon="9.312255580218585"><ele>528.0</ele><time>2026-03-29T13:45:29.999Z</time></trkpt><trkpt lat="44.6562626850337" lon="9.312189480324292"><ele>528.0</ele><time>2026-03-29T13:45:30.999Z</time></trkpt><trkpt lat="44.656165166119315" lon="9.312172509482298"><ele>528.0</ele><time>2026-03-29T13:45:31.999Z</time></trkpt><trkpt lat="44.65607197545184" lon="9.31221456632051"><ele>528.0</ele><time>2026-03-29T13:45:32.999Z</time></trkpt><trkpt lat="44.655983624127174" lon="9.312301577317944"><ele>528.0</ele><time>2026-03-29T13:45:33.999Z</time></trkpt><trkpt lat="44.65589041624702" lon="9.312397057407056"><ele>528.0</ele><time>2026-03-29T13:45:34.999Z</time></trkpt><trkpt lat="44.65578320882477" lon="9.312466672449334"><ele>528.0</ele><time>2026-03-29T13:45:35.999Z</time></trkpt><trkpt lat="44.655661794461665" lon="9.31250780159103"><ele>528.0</ele><time>2026-03-29T13:45:36.999Z</time></trkpt><trkpt lat="44.655527666040584" lon="9.312508232345785"><ele>528.0</ele><time>2026-03-29T13:45:37.999Z</time></trkpt><trkpt lat="44.65539134248604" lon="9.312490026212528"><ele>528.0</ele><time>2026-03-29T13:45:38.999Z</time></trkpt><trkpt lat="44.655251954604275" lon="9.31244843820784"><ele>527.5</ele><time>2026-03-29T13:45:39.999Z</time></trkpt><trkpt lat="44.65511839688756" lon="9.312374053200141"><ele>527.0</ele><time>2026-03-29T13:45:40.999Z</time></trkpt><trkpt lat="44.65500855052362" lon="9.312276805711651"><ele>526.5</ele><time>2026-03-29T13:45:41.999Z</time></trkpt><trkpt lat="44.65490477220014" lon="9.312198331042291"><ele>526.0</ele><time>2026-03-29T13:45:42.999Z</time></trkpt><trkpt lat="44.654797021614414" lon="9.312171966083602"><ele>526.0</ele><time>2026-03-29T13:45:43.999Z</time></trkpt><trkpt lat="44.65468859039812" lon="9.312224164547283"><ele>526.0</ele><time>2026-03-29T13:45:44.999Z</time></trkpt><trkpt lat="44.65458489194264" lon="9.31231514654384"><ele>526.0</ele><time>2026-03-29T13:45:45.999Z</time></trkpt><trkpt lat="44.65448180880763" lon="9.31243284505679"><ele>526.0</ele><time>2026-03-29T13:45:46.999Z</time></trkpt><trkpt lat="44.654394491296166" lon="9.312582730702943"><ele>524.5</ele><time>2026-03-29T13:45:47.999Z</time></trkpt><trkpt lat="44.65433047340224" lon="9.312758839227513"><ele>523.0</ele><time>2026-03-29T13:45:48.999Z</time></trkpt><trkpt lat="44.654260303770364" lon="9.312931103347806"><ele>521.5</ele><time>2026-03-29T13:45:49.999Z</time></trkpt><trkpt lat="44.654159396396174" lon="9.313054375796542"><ele>520.0</ele><time>2026-03-29T13:45:50.999Z</time></trkpt><trkpt lat="44.65405225780547" lon="9.313143975620083"><ele>520.0</ele><time>2026-03-29T13:45:51.999Z</time></trkpt><trkpt lat="44.65396406321323" lon="9.313240301419357"><ele>520.0</ele><time>2026-03-29T13:45:52.999Z</time></trkpt><trkpt lat="44.65391716193388" lon="9.313350261430582"><ele>520.0</ele><time>2026-03-29T13:45:53.999Z</time></trkpt><trkpt lat="44.65393717618938" lon="9.31350789457499"><ele>520.0</ele><time>2026-03-29T13:45:54.999Z</time></trkpt><trkpt lat="44.65399424337195" lon="9.313646063582107"><ele>520.0</ele><time>2026-03-29T13:45:55.999Z</time></trkpt><trkpt lat="44.65408108437888" lon="9.313774643070765"><ele>518.5</ele><time>2026-03-29T13:45:56.999Z</time></trkpt><trkpt lat="44.65417665453064" lon="9.31390897962897"><ele>517.0</ele><time>2026-03-29T13:45:57.999Z</time></trkpt><trkpt lat="44.654272890194754" lon="9.314047091570423"><ele>515.5</ele><time>2026-03-29T13:45:58.999Z</time></trkpt><trkpt lat="44.65435761095246" lon="9.314177445591506"><ele>514.0</ele><time>2026-03-29T13:45:59.999Z</time></trkpt><trkpt lat="44.65442253767335" lon="9.314322824934617"><ele>514.0</ele><time>2026-03-29T13:46:00.999Z</time></trkpt><trkpt lat="44.65445607492193" lon="9.314485860212153"><ele>514.0</ele><time>2026-03-29T13:46:01.999Z</time></trkpt><trkpt lat="44.65444828025543" lon="9.314646302593152"><ele>514.0</ele><time>2026-03-29T13:46:02.999Z</time></trkpt><trkpt lat="44.65439985553007" lon="9.31478430550384"><ele>514.0</ele><time>2026-03-29T13:46:03.999Z</time></trkpt><trkpt lat="44.65432067096836" lon="9.314887770923875"><ele>514.5</ele><time>2026-03-29T13:46:04.999Z</time></trkpt><trkpt lat="44.654216584388145" lon="9.314955886016161"><ele>515.0</ele><time>2026-03-29T13:46:05.999Z</time></trkpt><trkpt lat="44.65409494319225" lon="9.314987602643338"><ele>515.5</ele><time>2026-03-29T13:46:06.999Z</time></trkpt><trkpt lat="44.65396643570501" lon="9.315013831357241"><ele>516.0</ele><time>2026-03-29T13:46:07.999Z</time></trkpt><trkpt lat="44.65384046503132" lon="9.315041504237092"><ele>516.0</ele><time>2026-03-29T13:46:08.999Z</time></trkpt><trkpt lat="44.653721560030085" lon="9.315069867073905"><ele>516.0</ele><time>2026-03-29T13:46:09.999Z</time></trkpt><trkpt lat="44.65361500767217" lon="9.31511704696916"><ele>516.0</ele><time>2026-03-29T13:46:10.999Z</time></trkpt><trkpt lat="44.65353070467968" lon="9.31520328786354"><ele>516.0</ele><time>2026-03-29T13:46:11.999Z</time></trkpt><trkpt lat="44.653468127245134" lon="9.315336344003109"><ele>515.0</ele><time>2026-03-29T13:46:12.999Z</time></trkpt><trkpt lat="44.653422481218605" lon="9.31548251809109"><ele>514.0</ele><time>2026-03-29T13:46:13.999Z</time></trkpt><trkpt lat="44.65337045449198" lon="9.315642979720073"><ele>513.0</ele><time>2026-03-29T13:46:14.999Z</time></trkpt><trkpt lat="44.65328850873869" lon="9.315755170508774"><ele>512.0</ele><time>2026-03-29T13:46:15.999Z</time></trkpt><trkpt lat="44.653168907460596" lon="9.315810310884126"><ele>512.0</ele><time>2026-03-29T13:46:16.999Z</time></trkpt><trkpt lat="44.65303262955006" lon="9.315824399539085"><ele>512.0</ele><time>2026-03-29T13:46:17.999Z</time></trkpt><trkpt lat="44.652895607022685" lon="9.31581812418371"><ele>512.0</ele><time>2026-03-29T13:46:18.999Z</time></trkpt><trkpt lat="44.65276443729416" lon="9.315820590582033"><ele>512.0</ele><time>2026-03-29T13:46:19.998Z</time></trkpt><trkpt lat="44.652647305673575" lon="9.315867733383431"><ele>512.25</ele><time>2026-03-29T13:46:20.998Z</time></trkpt><trkpt lat="44.65255177008134" lon="9.315969686367854"><ele>512.5</ele><time>2026-03-29T13:46:21.998Z</time></trkpt><trkpt lat="44.65247893132251" lon="9.316123161966567"><ele>512.75</ele><time>2026-03-29T13:46:22.998Z</time></trkpt><trkpt lat="44.65242040571849" lon="9.316289156578017"><ele>513.0</ele><time>2026-03-29T13:46:23.998Z</time></trkpt><trkpt lat="44.652339045283135" lon="9.31642052108109"><ele>513.0</ele><time>2026-03-29T13:46:24.998Z</time></trkpt><trkpt lat="44.65221421090474" lon="9.316479262717984"><ele>513.0</ele><time>2026-03-29T13:46:25.998Z</time></trkpt><trkpt lat="44.65208784825788" lon="9.316531781386047"><ele>513.0</ele><time>2026-03-29T13:46:26.998Z</time></trkpt><trkpt lat="44.6519744253001" lon="9.316572914185398"><ele>513.0</ele><time>2026-03-29T13:46:27.998Z</time></trkpt><trkpt lat="44.65188068806598" lon="9.316671345333921"><ele>508.0</ele><time>2026-03-29T13:46:28.998Z</time></trkpt><trkpt lat="44.651819390501835" lon="9.316813203695729"><ele>502.99999999999994</ele><time>2026-03-29T13:46:29.998Z</time></trkpt><trkpt lat="44.65177504393402" lon="9.316964164256683"><ele>497.99999999999994</ele><time>2026-03-29T13:46:30.998Z</time></trkpt><trkpt lat="44.65171758331357" lon="9.317076306917203"><ele>493.0</ele><time>2026-03-29T13:46:31.998Z</time></trkpt><trkpt lat="44.65162628647358" lon="9.317117762368504"><ele>488.0</ele><time>2026-03-29T13:46:32.998Z</time></trkpt><trkpt lat="44.65152797073531" lon="9.317148620236674"><ele>488.0</ele><time>2026-03-29T13:46:33.998Z</time></trkpt><trkpt lat="44.651445627628114" lon="9.317230168508056"><ele>487.99999999999994</ele><time>2026-03-29T13:46:34.998Z</time></trkpt><trkpt lat="44.65139058135413" lon="9.317352264035012"><ele>487.99999999999994</ele><time>2026-03-29T13:46:35.998Z</time></trkpt><trkpt lat="44.651352783009514" lon="9.317504864205615"><ele>488.0</ele><time>2026-03-29T13:46:36.998Z</time></trkpt><trkpt lat="44.65137155001897" lon="9.317684360282056"><ele>488.0</ele><time>2026-03-29T13:46:37.998Z</time></trkpt><trkpt lat="44.65134390571224" lon="9.317861619079293"><ele>490.25</ele><time>2026-03-29T13:46:38.998Z</time></trkpt><trkpt lat="44.65129503862419" lon="9.318029147295826"><ele>492.5</ele><time>2026-03-29T13:46:39.998Z</time></trkpt><trkpt lat="44.65125208285567" lon="9.31820446736619"><ele>494.75</ele><time>2026-03-29T13:46:40.998Z</time></trkpt><trkpt lat="44.651213509317074" lon="9.318375579689157"><ele>497.0</ele><time>2026-03-29T13:46:41.998Z</time></trkpt><trkpt lat="44.65120723273721" lon="9.318565049115572"><ele>500.75</ele><time>2026-03-29T13:46:42.998Z</time></trkpt><trkpt lat="44.651221554123666" lon="9.318763826507173"><ele>504.5</ele><time>2026-03-29T13:46:43.998Z</time></trkpt><trkpt lat="44.651236576717444" lon="9.318959538488665"><ele>508.25</ele><time>2026-03-29T13:46:44.998Z</time></trkpt><trkpt lat="44.65125026445609" lon="9.319153014083298"><ele>512.0</ele><time>2026-03-29T13:46:45.998Z</time></trkpt><trkpt lat="44.651263322051776" lon="9.319342399316978"><ele>512.0</ele><time>2026-03-29T13:46:46.998Z</time></trkpt><trkpt lat="44.651264635901384" lon="9.319526934531664"><ele>512.0</ele><time>2026-03-29T13:46:47.998Z</time></trkpt><trkpt lat="44.65131234127037" lon="9.31968787193162"><ele>512.0</ele><time>2026-03-29T13:46:48.998Z</time></trkpt><trkpt lat="44.65135470064487" lon="9.3198259311149"><ele>512.0</ele><time>2026-03-29T13:46:49.998Z</time></trkpt><trkpt lat="44.65139159954413" lon="9.319951477730976"><ele>508.6</ele><time>2026-03-29T13:46:50.998Z</time></trkpt><trkpt lat="44.651386618427395" lon="9.320079937901582"><ele>505.20000000000005</ele><time>2026-03-29T13:46:51.998Z</time></trkpt><trkpt lat="44.65132866392549" lon="9.320188608963246"><ele>501.8</ele><time>2026-03-29T13:46:52.998Z</time></trkpt><trkpt lat="44.651248810497606" lon="9.320252577551479"><ele>498.4</ele><time>2026-03-29T13:46:53.998Z</time></trkpt><trkpt lat="44.65120491668179" lon="9.320361421319204"><ele>495.0</ele><time>2026-03-29T13:46:55Z</time></trkpt><trkpt lat="44.65116555485188" lon="9.320464501414511"><ele>491.6</ele><time>2026-03-29T13:46:56Z</time></trkpt><trkpt lat="44.6511752638084" lon="9.32058407417709"><ele>488.2</ele><time>2026-03-29T13:46:57Z</time></trkpt><trkpt lat="44.65123573465367" lon="9.32068388170359"><ele>484.79999999999995</ele><time>2026-03-29T13:46:58Z</time></trkpt><trkpt lat="44.651335519925134" lon="9.320745787412827"><ele>481.4</ele><time>2026-03-29T13:46:59Z</time></trkpt><trkpt lat="44.65145342577674" lon="9.320786907792282"><ele>478.0</ele><time>2026-03-29T13:47:00Z</time></trkpt><trkpt lat="44.65155387608315" lon="9.32084265360136"><ele>478.0</ele><time>2026-03-29T13:47:01Z</time></trkpt><trkpt lat="44.651605193603906" lon="9.320968649021628"><ele>477.99999999999994</ele><time>2026-03-29T13:47:02Z</time></trkpt><trkpt lat="44.65162688693804" lon="9.321091303394645"><ele>477.99999999999994</ele><time>2026-03-29T13:47:03Z</time></trkpt><trkpt lat="44.65159092885821" lon="9.321191683979688"><ele>478.0</ele><time>2026-03-29T13:47:04Z</time></trkpt><trkpt lat="44.651543299813575" lon="9.32131380148"><ele>478.0</ele><time>2026-03-29T13:47:05Z</time></trkpt><trkpt lat="44.651499029800384" lon="9.321462491976716"><ele>478.0</ele><time>2026-03-29T13:47:06Z</time></trkpt><trkpt lat="44.65144055514645" lon="9.321584771337678"><ele>477.99999999999994</ele><time>2026-03-29T13:47:07Z</time></trkpt><trkpt lat="44.651390989143074" lon="9.32169242786183"><ele>477.99999999999994</ele><time>2026-03-29T13:47:08Z</time></trkpt><trkpt lat="44.65134278596544" lon="9.321769794372894"><ele>478.0</ele><time>2026-03-29T13:47:09Z</time></trkpt><trkpt lat="44.65126528869875" lon="9.321811286493814"><ele>478.0</ele><time>2026-03-29T13:47:10Z</time></trkpt><trkpt lat="44.65115094663269" lon="9.321717056975022"><ele>477.25</ele><time>2026-03-29T13:47:11Z</time></trkpt><trkpt lat="44.651094363803246" lon="9.321541048888264"><ele>476.5</ele><time>2026-03-29T13:47:12Z</time></trkpt><trkpt lat="44.65103805343773" lon="9.321395964797182"><ele>475.75</ele><time>2026-03-29T13:47:13Z</time></trkpt><trkpt lat="44.65097503821315" lon="9.321292650011666"><ele>475.0</ele><time>2026-03-29T13:47:14Z</time></trkpt><trkpt lat="44.6508749985743" lon="9.321226797581135"><ele>473.5</ele><time>2026-03-29T13:47:15Z</time></trkpt><trkpt lat="44.6507489727127" lon="9.321218577534962"><ele>472.0</ele><time>2026-03-29T13:47:16Z</time></trkpt><trkpt lat="44.65061937599398" lon="9.321187996615203"><ele>470.5</ele><time>2026-03-29T13:47:17Z</time></trkpt><trkpt lat="44.650502274750906" lon="9.32110109016124"><ele>469.0</ele><time>2026-03-29T13:47:18Z</time></trkpt><trkpt lat="44.65039612617319" lon="9.321015889487434"><ele>469.0</ele><time>2026-03-29T13:47:19Z</time></trkpt><trkpt lat="44.650322278770645" lon="9.320894622889702"><ele>469.0</ele><time>2026-03-29T13:47:20Z</time></trkpt><trkpt lat="44.65032512103331" lon="9.320749812051607"><ele>469.0</ele><time>2026-03-29T13:47:21Z</time></trkpt><trkpt lat="44.650299010774646" lon="9.32060408829855"><ele>469.0</ele><time>2026-03-29T13:47:21.999Z</time></trkpt><trkpt lat="44.65025821752115" lon="9.320485453384153"><ele>469.0</ele><time>2026-03-29T13:47:22.999Z</time></trkpt><trkpt lat="44.65019815976467" lon="9.320398475432237"><ele>467.0</ele><time>2026-03-29T13:47:23.999Z</time></trkpt><trkpt lat="44.650100482611144" lon="9.320366644218442"><ele>465.0</ele><time>2026-03-29T13:47:24.999Z</time></trkpt><trkpt lat="44.649974963735836" lon="9.320439066778166"><ele>463.0</ele><time>2026-03-29T13:47:25.999Z</time></trkpt><trkpt lat="44.64986187909793" lon="9.320525105961188"><ele>461.0</ele><time>2026-03-29T13:47:26.999Z</time></trkpt><trkpt lat="44.64973904005881" lon="9.320614085624634"><ele>461.0</ele><time>2026-03-29T13:47:27.999Z</time></trkpt><trkpt lat="44.64960965450366" lon="9.320700071046343"><ele>461.0</ele><time>2026-03-29T13:47:28.999Z</time></trkpt><trkpt lat="44.649487384101704" lon="9.320773901440885"><ele>461.0</ele><time>2026-03-29T13:47:29.999Z</time></trkpt><trkpt lat="44.64937700517055" lon="9.32085991017868"><ele>461.0</ele><time>2026-03-29T13:47:30.999Z</time></trkpt><trkpt lat="44.64927672614293" lon="9.320997260529985"><ele>461.66666666666663</ele><time>2026-03-29T13:47:31.999Z</time></trkpt><trkpt lat="44.64918931545127" lon="9.321171074396878"><ele>462.33333333333337</ele><time>2026-03-29T13:47:32.999Z</time></trkpt><trkpt lat="44.64910945757532" lon="9.321367489235564"><ele>463.0</ele><time>2026-03-29T13:47:33.999Z</time></trkpt><trkpt lat="44.64901573437855" lon="9.321555308499716"><ele>463.0</ele><time>2026-03-29T13:47:34.999Z</time></trkpt><trkpt lat="44.64891224827074" lon="9.321747886891497"><ele>463.0</ele><time>2026-03-29T13:47:35.999Z</time></trkpt><trkpt lat="44.648809753463226" lon="9.32194279449333"><ele>463.0</ele><time>2026-03-29T13:47:36.999Z</time></trkpt><trkpt lat="44.64871445104414" lon="9.322146155001441"><ele>463.6666666666667</ele><time>2026-03-29T13:47:37.999Z</time></trkpt><trkpt lat="44.648635795573995" lon="9.322354919992385"><ele>464.33333333333337</ele><time>2026-03-29T13:47:38.999Z</time></trkpt><trkpt lat="44.648572018133606" lon="9.322565813609874"><ele>465.0</ele><time>2026-03-29T13:47:39.999Z</time></trkpt><trkpt lat="44.64851429630648" lon="9.322785493498412"><ele>458.33333333333337</ele><time>2026-03-29T13:47:40.999Z</time></trkpt><trkpt lat="44.648452638673724" lon="9.323005920931685"><ele>451.6666666666667</ele><time>2026-03-29T13:47:41.999Z</time></trkpt><trkpt lat="44.64838753171681" lon="9.323222716448187"><ele>445.0</ele><time>2026-03-29T13:47:42.999Z</time></trkpt><trkpt lat="44.648325177245994" lon="9.323429326516676"><ele>445.0</ele><time>2026-03-29T13:47:43.999Z</time></trkpt><trkpt lat="44.64826680731601" lon="9.323632582505754"><ele>445.0</ele><time>2026-03-29T13:47:44.999Z</time></trkpt><trkpt lat="44.64820465801007" lon="9.323840964020578"><ele>445.0</ele><time>2026-03-29T13:47:45.999Z</time></trkpt><trkpt lat="44.64814139248469" lon="9.324057186167428"><ele>448.0</ele><time>2026-03-29T13:47:46.999Z</time></trkpt><trkpt lat="44.64807625304576" lon="9.324270551103975"><ele>451.0</ele><time>2026-03-29T13:47:47.999Z</time></trkpt><trkpt lat="44.6480114659391" lon="9.32447944587243"><ele>454.0</ele><time>2026-03-29T13:47:48.999Z</time></trkpt><trkpt lat="44.647954954820385" lon="9.324674160905806"><ele>454.25</ele><time>2026-03-29T13:47:49.999Z</time></trkpt><trkpt lat="44.64789974741789" lon="9.32486460921631"><ele>454.5</ele><time>2026-03-29T13:47:50.999Z</time></trkpt><trkpt lat="44.64784191092893" lon="9.325058960146164"><ele>454.75</ele><time>2026-03-29T13:47:51.999Z</time></trkpt><trkpt lat="44.64778567699232" lon="9.32525453296909"><ele>455.0</ele><time>2026-03-29T13:47:52.999Z</time></trkpt><trkpt lat="44.64772931682595" lon="9.325452569530476"><ele>453.0</ele><time>2026-03-29T13:47:53.999Z</time></trkpt><trkpt lat="44.64767057494113" lon="9.325650322673972"><ele>451.0</ele><time>2026-03-29T13:47:54.999Z</time></trkpt><trkpt lat="44.64760791426352" lon="9.32584636314874"><ele>449.0</ele><time>2026-03-29T13:47:55.999Z</time></trkpt><trkpt lat="44.64753749591656" lon="9.326036690380095"><ele>449.0</ele><time>2026-03-29T13:47:56.999Z</time></trkpt><trkpt lat="44.647456949169225" lon="9.326217385128025"><ele>449.0</ele><time>2026-03-29T13:47:57.999Z</time></trkpt><trkpt lat="44.64736731855426" lon="9.326394509979856"><ele>449.0</ele><time>2026-03-29T13:47:58.999Z</time></trkpt><trkpt lat="44.64727143711657" lon="9.32656546072988"><ele>449.0</ele><time>2026-03-29T13:47:59.999Z</time></trkpt><trkpt lat="44.64716986609335" lon="9.326730116228436"><ele>449.0</ele><time>2026-03-29T13:48:00.999Z</time></trkpt><trkpt lat="44.6470586277462" lon="9.326887931562931"><ele>449.0</ele><time>2026-03-29T13:48:01.999Z</time></trkpt><trkpt lat="44.64693853212466" lon="9.327037948827538"><ele>450.0</ele><time>2026-03-29T13:48:02.999Z</time></trkpt><trkpt lat="44.64680333896917" lon="9.3271797889606"><ele>451.0</ele><time>2026-03-29T13:48:03.999Z</time></trkpt><trkpt lat="44.64666398619637" lon="9.327312180493358"><ele>452.0</ele><time>2026-03-29T13:48:04.999Z</time></trkpt><trkpt lat="44.64651933186806" lon="9.327432118138606"><ele>452.0</ele><time>2026-03-29T13:48:05.999Z</time></trkpt><trkpt lat="44.646366696688794" lon="9.32754331767597"><ele>452.0</ele><time>2026-03-29T13:48:06.999Z</time></trkpt><trkpt lat="44.64621462783269" lon="9.327652485778483"><ele>452.0</ele><time>2026-03-29T13:48:07.999Z</time></trkpt><trkpt lat="44.6460688807423" lon="9.327758632861377"><ele>452.3333333333333</ele><time>2026-03-29T13:48:08.999Z</time></trkpt><trkpt lat="44.645924292672255" lon="9.327863546945402"><ele>452.66666666666663</ele><time>2026-03-29T13:48:09.999Z</time></trkpt><trkpt lat="44.64578150751644" lon="9.327972122243967"><ele>453.0</ele><time>2026-03-29T13:48:10.999Z</time></trkpt><trkpt lat="44.64563737694905" lon="9.32808052298123"><ele>453.0</ele><time>2026-03-29T13:48:11.999Z</time></trkpt><trkpt lat="44.645488332530995" lon="9.328186626349538"><ele>453.0</ele><time>2026-03-29T13:48:12.999Z</time></trkpt><trkpt lat="44.645332082657525" lon="9.328286449805992"><ele>453.0</ele><time>2026-03-29T13:48:13.999Z</time></trkpt><trkpt lat="44.645172217855915" lon="9.3283803621807"><ele>457.66666666666663</ele><time>2026-03-29T13:48:14.999Z</time></trkpt><trkpt lat="44.645003001965016" lon="9.328456214654379"><ele>462.3333333333333</ele><time>2026-03-29T13:48:15.999Z</time></trkpt><trkpt lat="44.64482339158555" lon="9.328514097752986"><ele>467.0</ele><time>2026-03-29T13:48:16.999Z</time></trkpt><trkpt lat="44.644644337806746" lon="9.3285727598922"><ele>467.66666666666663</ele><time>2026-03-29T13:48:17.999Z</time></trkpt><trkpt lat="44.64445971069743" lon="9.328625099298959"><ele>468.33333333333337</ele><time>2026-03-29T13:48:18.999Z</time></trkpt><trkpt lat="44.644269769220124" lon="9.328677048351484"><ele>469.0</ele><time>2026-03-29T13:48:19.999Z</time></trkpt><trkpt lat="44.644071385769884" lon="9.328727210888626"><ele>469.0</ele><time>2026-03-29T13:48:20.999Z</time></trkpt><trkpt lat="44.64386339771519" lon="9.32878352147272"><ele>469.0</ele><time>2026-03-29T13:48:21.999Z</time></trkpt><trkpt lat="44.64364689017294" lon="9.328845590197702"><ele>469.0</ele><time>2026-03-29T13:48:22.998Z</time></trkpt><trkpt lat="44.64342405359545" lon="9.328903021937066"><ele>466.33333333333337</ele><time>2026-03-29T13:48:23.998Z</time></trkpt><trkpt lat="44.64321080436631" lon="9.328956867650858"><ele>463.66666666666663</ele><time>2026-03-29T13:48:24.998Z</time></trkpt><trkpt lat="44.642992974149735" lon="9.329010884565028"><ele>461.0</ele><time>2026-03-29T13:48:25.998Z</time></trkpt><trkpt lat="44.64277390168869" lon="9.32906510092362"><ele>461.0</ele><time>2026-03-29T13:48:26.998Z</time></trkpt><trkpt lat="44.642551702595" lon="9.329123323566828"><ele>461.0</ele><time>2026-03-29T13:48:27.998Z</time></trkpt><trkpt lat="44.64232614796853" lon="9.329184090564743"><ele>461.0</ele><time>2026-03-29T13:48:28.998Z</time></trkpt><trkpt lat="44.64210108235601" lon="9.329243527671078"><ele>461.0</ele><time>2026-03-29T13:48:29.998Z</time></trkpt><trkpt lat="44.64187408724123" lon="9.329306211048065"><ele>462.5</ele><time>2026-03-29T13:48:30.998Z</time></trkpt><trkpt lat="44.64164890313699" lon="9.329364645226837"><ele>464.0</ele><time>2026-03-29T13:48:31.998Z</time></trkpt><trkpt lat="44.64142039848868" lon="9.329426412334167"><ele>464.0</ele><time>2026-03-29T13:48:32.998Z</time></trkpt><trkpt lat="44.64119440992729" lon="9.329484307933267"><ele>464.0</ele><time>2026-03-29T13:48:33.998Z</time></trkpt><trkpt lat="44.64097314544265" lon="9.329541698219812"><ele>465.3333333333333</ele><time>2026-03-29T13:48:34.998Z</time></trkpt><trkpt lat="44.640757231667116" lon="9.329600373189905"><ele>466.66666666666663</ele><time>2026-03-29T13:48:35.998Z</time></trkpt><trkpt lat="44.64054435259806" lon="9.32965655868599"><ele>468.0</ele><time>2026-03-29T13:48:36.998Z</time></trkpt><trkpt lat="44.640332799839335" lon="9.32971455255061"><ele>465.0</ele><time>2026-03-29T13:48:37.998Z</time></trkpt><trkpt lat="44.64012829419029" lon="9.32977177394491"><ele>462.0</ele><time>2026-03-29T13:48:38.998Z</time></trkpt><trkpt lat="44.63992682252257" lon="9.329820776535914"><ele>459.0</ele><time>2026-03-29T13:48:39.998Z</time></trkpt><trkpt lat="44.639731845896385" lon="9.329876164205837"><ele>459.0</ele><time>2026-03-29T13:48:40.998Z</time></trkpt><trkpt lat="44.63954347522385" lon="9.329927794756328"><ele>459.0</ele><time>2026-03-29T13:48:41.998Z</time></trkpt><trkpt lat="44.639368338559024" lon="9.329975157693367"><ele>459.0</ele><time>2026-03-29T13:48:42.998Z</time></trkpt><trkpt lat="44.639195478196896" lon="9.330017235666753"><ele>459.66666666666663</ele><time>2026-03-29T13:48:43.998Z</time></trkpt><trkpt lat="44.639028195486766" lon="9.330016367457475"><ele>460.3333333333333</ele><time>2026-03-29T13:48:44.998Z</time></trkpt><trkpt lat="44.6388575656044" lon="9.330000334528235"><ele>461.0</ele><time>2026-03-29T13:48:45.998Z</time></trkpt><trkpt lat="44.63868697963372" lon="9.329966623867197"><ele>460.66666666666663</ele><time>2026-03-29T13:48:46.998Z</time></trkpt><trkpt lat="44.6385192434323" lon="9.32991066469528"><ele>460.33333333333337</ele><time>2026-03-29T13:48:47.998Z</time></trkpt><trkpt lat="44.63835557610839" lon="9.329825753176566"><ele>460.0</ele><time>2026-03-29T13:48:48.998Z</time></trkpt><trkpt lat="44.63819546016181" lon="9.329719486248226"><ele>460.0</ele><time>2026-03-29T13:48:49.998Z</time></trkpt><trkpt lat="44.63803548927093" lon="9.329593234023246"><ele>460.0</ele><time>2026-03-29T13:48:50.998Z</time></trkpt><trkpt lat="44.63787360202682" lon="9.329463702171703"><ele>460.0</ele><time>2026-03-29T13:48:51.998Z</time></trkpt><trkpt lat="44.63770513606332" lon="9.32933707532181"><ele>462.6666666666667</ele><time>2026-03-29T13:48:52.998Z</time></trkpt><trkpt lat="44.637528425359605" lon="9.3292155510274"><ele>465.33333333333337</ele><time>2026-03-29T13:48:53.998Z</time></trkpt><trkpt lat="44.63735066461434" lon="9.329089240626228"><ele>468.0</ele><time>2026-03-29T13:48:54.998Z</time></trkpt><trkpt lat="44.63717327263598" lon="9.328953004951988"><ele>466.33333333333337</ele><time>2026-03-29T13:48:55.998Z</time></trkpt><trkpt lat="44.63699324423888" lon="9.328818079967137"><ele>464.6666666666667</ele><time>2026-03-29T13:48:56.998Z</time></trkpt><trkpt lat="44.636810622182196" lon="9.328688567393508"><ele>463.0</ele><time>2026-03-29T13:48:57.998Z</time></trkpt><trkpt lat="44.63663147302502" lon="9.328584603454184"><ele>463.0</ele><time>2026-03-29T13:48:58.998Z</time></trkpt><trkpt lat="44.63644604690791" lon="9.328509061926518"><ele>463.0</ele><time>2026-03-29T13:48:59.998Z</time></trkpt><trkpt lat="44.636255705515865" lon="9.328467626477956"><ele>463.0</ele><time>2026-03-29T13:49:01Z</time></trkpt><trkpt lat="44.63606404309036" lon="9.328457013810647"><ele>464.33333333333337</ele><time>2026-03-29T13:49:02Z</time></trkpt><trkpt lat="44.63586864107978" lon="9.328474328975693"><ele>465.66666666666663</ele><time>2026-03-29T13:49:03Z</time></trkpt><trkpt lat="44.635670418848754" lon="9.32851514537072"><ele>467.0</ele><time>2026-03-29T13:49:04Z</time></trkpt><trkpt lat="44.63547849731484" lon="9.32859410010848"><ele>466.3333333333333</ele><time>2026-03-29T13:49:05Z</time></trkpt><trkpt lat="44.635288210711416" lon="9.328704201979956"><ele>465.66666666666663</ele><time>2026-03-29T13:49:06Z</time></trkpt><trkpt lat="44.6351007961484" lon="9.32884005382766"><ele>465.0</ele><time>2026-03-29T13:49:07Z</time></trkpt><trkpt lat="44.63491087796525" lon="9.328979194865685"><ele>466.33333333333337</ele><time>2026-03-29T13:49:08Z</time></trkpt><trkpt lat="44.63471315365051" lon="9.329117320149562"><ele>467.6666666666667</ele><time>2026-03-29T13:49:09Z</time></trkpt><trkpt lat="44.63450796876836" lon="9.329251025907546"><ele>469.0</ele><time>2026-03-29T13:49:10Z</time></trkpt><trkpt lat="44.63429822658881" lon="9.329386431109116"><ele>469.0</ele><time>2026-03-29T13:49:11Z</time></trkpt><trkpt lat="44.634085551280265" lon="9.329529389688"><ele>469.0</ele><time>2026-03-29T13:49:12Z</time></trkpt><trkpt lat="44.63387400231286" lon="9.329677304380747"><ele>470.5</ele><time>2026-03-29T13:49:13Z</time></trkpt><trkpt lat="44.63366143663391" lon="9.329823747149835"><ele>472.0</ele><time>2026-03-29T13:49:14Z</time></trkpt><trkpt lat="44.63345042305792" lon="9.329965352197721"><ele>472.0</ele><time>2026-03-29T13:49:15Z</time></trkpt><trkpt lat="44.633246649627125" lon="9.330099761700207"><ele>472.0</ele><time>2026-03-29T13:49:16Z</time></trkpt><trkpt lat="44.63304517731506" lon="9.330236996239558"><ele>472.0</ele><time>2026-03-29T13:49:17Z</time></trkpt><trkpt lat="44.63284877292724" lon="9.330391497723562"><ele>474.0</ele><time>2026-03-29T13:49:18Z</time></trkpt><trkpt lat="44.63265612363783" lon="9.330566321323563"><ele>476.0</ele><time>2026-03-29T13:49:19Z</time></trkpt><trkpt lat="44.63247791352847" lon="9.330750055277946"><ele>476.0</ele><time>2026-03-29T13:49:20Z</time></trkpt><trkpt lat="44.63230052410841" lon="9.33093538768842"><ele>476.0</ele><time>2026-03-29T13:49:21Z</time></trkpt><trkpt lat="44.632115646974356" lon="9.331114573706314"><ele>476.0</ele><time>2026-03-29T13:49:22Z</time></trkpt><trkpt lat="44.631931738376025" lon="9.33129441628927"><ele>478.0</ele><time>2026-03-29T13:49:23Z</time></trkpt><trkpt lat="44.63174889952335" lon="9.331481569147638"><ele>480.0</ele><time>2026-03-29T13:49:24Z</time></trkpt><trkpt lat="44.63156121585905" lon="9.331673522733054"><ele>480.0</ele><time>2026-03-29T13:49:25Z</time></trkpt><trkpt lat="44.631368411491714" lon="9.331856698068636"><ele>480.0</ele><time>2026-03-29T13:49:26Z</time></trkpt><trkpt lat="44.63116702747616" lon="9.332025795363196"><ele>482.5</ele><time>2026-03-29T13:49:27Z</time></trkpt><trkpt lat="44.63096049852642" lon="9.33218202155523"><ele>485.0</ele><time>2026-03-29T13:49:28Z</time></trkpt><trkpt lat="44.63075177619028" lon="9.332331502585815"><ele>485.0</ele><time>2026-03-29T13:49:28.999Z</time></trkpt><trkpt lat="44.63054811114152" lon="9.332476207960601"><ele>485.0</ele><time>2026-03-29T13:49:29.999Z</time></trkpt><trkpt lat="44.63035498956262" lon="9.332613904063324"><ele>485.0</ele><time>2026-03-29T13:49:30.999Z</time></trkpt><trkpt lat="44.63016511319519" lon="9.332743854272476"><ele>480.3333333333333</ele><time>2026-03-29T13:49:31.999Z</time></trkpt><trkpt lat="44.62996869370197" lon="9.332857234860947"><ele>475.66666666666663</ele><time>2026-03-29T13:49:32.999Z</time></trkpt><trkpt lat="44.62976281670272" lon="9.332944087416152"><ele>471.0</ele><time>2026-03-29T13:49:33.999Z</time></trkpt><trkpt lat="44.62955182351172" lon="9.333007184501126"><ele>471.33333333333337</ele><time>2026-03-29T13:49:34.999Z</time></trkpt><trkpt lat="44.62933907100626" lon="9.333033285402955"><ele>471.6666666666667</ele><time>2026-03-29T13:49:35.999Z</time></trkpt><trkpt lat="44.62912444538765" lon="9.333047212711927"><ele>472.0</ele><time>2026-03-29T13:49:36.999Z</time></trkpt><trkpt lat="44.628909278818576" lon="9.333049285151558"><ele>472.0</ele><time>2026-03-29T13:49:37.999Z</time></trkpt><trkpt lat="44.6286923077165" lon="9.333033705294394"><ele>472.0</ele><time>2026-03-29T13:49:38.999Z</time></trkpt><trkpt lat="44.62847365629886" lon="9.333013539482735"><ele>472.0</ele><time>2026-03-29T13:49:39.999Z</time></trkpt><trkpt lat="44.628257130632214" lon="9.332997695807451"><ele>472.33333333333337</ele><time>2026-03-29T13:49:40.999Z</time></trkpt><trkpt lat="44.62804395905254" lon="9.332982780435326"><ele>472.66666666666663</ele><time>2026-03-29T13:49:41.999Z</time></trkpt><trkpt lat="44.62784038395642" lon="9.332965367536532"><ele>473.0</ele><time>2026-03-29T13:49:42.999Z</time></trkpt><trkpt lat="44.627635297906174" lon="9.332949324729512"><ele>473.0</ele><time>2026-03-29T13:49:43.999Z</time></trkpt><trkpt lat="44.62743116922952" lon="9.332929546502864"><ele>473.0</ele><time>2026-03-29T13:49:44.999Z</time></trkpt><trkpt lat="44.62722589255753" lon="9.332901588896133"><ele>473.0</ele><time>2026-03-29T13:49:45.999Z</time></trkpt><trkpt lat="44.627020767343325" lon="9.332859343575471"><ele>475.0</ele><time>2026-03-29T13:49:46.999Z</time></trkpt><trkpt lat="44.626814857623486" lon="9.33280696168191"><ele>477.0</ele><time>2026-03-29T13:49:47.999Z</time></trkpt><trkpt lat="44.62660616168596" lon="9.332745743079675"><ele>479.0</ele><time>2026-03-29T13:49:48.999Z</time></trkpt><trkpt lat="44.6263965214216" lon="9.332673863898702"><ele>479.0</ele><time>2026-03-29T13:49:49.999Z</time></trkpt><trkpt lat="44.62618748592169" lon="9.332591792832165"><ele>479.0</ele><time>2026-03-29T13:49:50.999Z</time></trkpt><trkpt lat="44.62598020745056" lon="9.33249708795498"><ele>479.0</ele><time>2026-03-29T13:49:51.999Z</time></trkpt><trkpt lat="44.62577351476856" lon="9.332392677583606"><ele>479.3333333333333</ele><time>2026-03-29T13:49:52.999Z</time></trkpt><trkpt lat="44.62556891858631" lon="9.332283433748373"><ele>479.66666666666663</ele><time>2026-03-29T13:49:53.999Z</time></trkpt><trkpt lat="44.62536307044095" lon="9.332166145892064"><ele>480.0</ele><time>2026-03-29T13:49:54.999Z</time></trkpt><trkpt lat="44.62515587281728" lon="9.332048993609623"><ele>480.0</ele><time>2026-03-29T13:49:55.999Z</time></trkpt><trkpt lat="44.62494826588324" lon="9.331931510815222"><ele>480.0</ele><time>2026-03-29T13:49:56.999Z</time></trkpt><trkpt lat="44.62474169188377" lon="9.331811831647217"><ele>480.0</ele><time>2026-03-29T13:49:57.999Z</time></trkpt><trkpt lat="44.62453328297619" lon="9.331690903280045"><ele>479.66666666666663</ele><time>2026-03-29T13:49:58.999Z</time></trkpt><trkpt lat="44.62432470815114" lon="9.331576377527023"><ele>479.3333333333333</ele><time>2026-03-29T13:49:59.999Z</time></trkpt><trkpt lat="44.624115239298526" lon="9.3314626419638"><ele>479.0</ele><time>2026-03-29T13:50:00.999Z</time></trkpt><trkpt lat="44.62391133295097" lon="9.33135145496168"><ele>479.0</ele><time>2026-03-29T13:50:01.999Z</time></trkpt><trkpt lat="44.62371130022253" lon="9.331238613351585"><ele>479.0</ele><time>2026-03-29T13:50:02.999Z</time></trkpt><trkpt lat="44.62351563501763" lon="9.331128659104618"><ele>479.0</ele><time>2026-03-29T13:50:03.999Z</time></trkpt><trkpt lat="44.623320765156485" lon="9.331018901205024"><ele>479.0</ele><time>2026-03-29T13:50:04.999Z</time></trkpt><trkpt lat="44.62313133041395" lon="9.330904061246839"><ele>479.0</ele><time>2026-03-29T13:50:05.999Z</time></trkpt><trkpt lat="44.6229434303486" lon="9.330782082109385"><ele>479.0</ele><time>2026-03-29T13:50:06.999Z</time></trkpt><trkpt lat="44.62275826761747" lon="9.33064701346537"><ele>480.3333333333333</ele><time>2026-03-29T13:50:07.999Z</time></trkpt><trkpt lat="44.622577220565546" lon="9.3304942710129"><ele>481.66666666666663</ele><time>2026-03-29T13:50:08.999Z</time></trkpt><trkpt lat="44.62240230650956" lon="9.33032162518399"><ele>483.0</ele><time>2026-03-29T13:50:09.999Z</time></trkpt><trkpt lat="44.62223525677101" lon="9.33013128721259"><ele>483.0</ele><time>2026-03-29T13:50:10.999Z</time></trkpt><trkpt lat="44.62207400404884" lon="9.32992784914761"><ele>483.0</ele><time>2026-03-29T13:50:11.999Z</time></trkpt><trkpt lat="44.62191876152269" lon="9.329706672564143"><ele>483.0</ele><time>2026-03-29T13:50:12.999Z</time></trkpt><trkpt lat="44.621771182171905" lon="9.329474446869408"><ele>484.0</ele><time>2026-03-29T13:50:13.999Z</time></trkpt><trkpt lat="44.62163547646563" lon="9.329227774002087"><ele>485.0</ele><time>2026-03-29T13:50:14.999Z</time></trkpt><trkpt lat="44.62151011249233" lon="9.32896600268342"><ele>486.0</ele><time>2026-03-29T13:50:15.999Z</time></trkpt><trkpt lat="44.621396055955294" lon="9.328694881200022"><ele>488.0</ele><time>2026-03-29T13:50:16.999Z</time></trkpt><trkpt lat="44.621283936780486" lon="9.328418852068664"><ele>490.0</ele><time>2026-03-29T13:50:17.999Z</time></trkpt><trkpt lat="44.62117733606256" lon="9.328139151157522"><ele>487.6666666666667</ele><time>2026-03-29T13:50:18.999Z</time></trkpt><trkpt lat="44.62106402540428" lon="9.327870933023014"><ele>485.33333333333337</ele><time>2026-03-29T13:50:19.999Z</time></trkpt><trkpt lat="44.62095052723617" lon="9.32760219247694"><ele>483.0</ele><time>2026-03-29T13:50:20.999Z</time></trkpt><trkpt lat="44.62083798831216" lon="9.327333283811539"><ele>483.33333333333337</ele><time>2026-03-29T13:50:21.999Z</time></trkpt><trkpt lat="44.6207237168859" lon="9.327074082076125"><ele>483.6666666666667</ele><time>2026-03-29T13:50:22.999Z</time></trkpt><trkpt lat="44.620606078225016" lon="9.326819549217571"><ele>484.0</ele><time>2026-03-29T13:50:23.999Z</time></trkpt><trkpt lat="44.6204786974073" lon="9.326578272661987"><ele>484.33333333333337</ele><time>2026-03-29T13:50:24.999Z</time></trkpt><trkpt lat="44.620341901493475" lon="9.326354309669517"><ele>484.66666666666663</ele><time>2026-03-29T13:50:25.999Z</time></trkpt><trkpt lat="44.62019410044639" lon="9.326136164622495"><ele>485.0</ele><time>2026-03-29T13:50:26.999Z</time></trkpt><trkpt lat="44.62003655048222" lon="9.32592190248219"><ele>486.0</ele><time>2026-03-29T13:50:27.999Z</time></trkpt><trkpt lat="44.6198753456943" lon="9.325709315875931"><ele>487.0</ele><time>2026-03-29T13:50:28.999Z</time></trkpt><trkpt lat="44.619709145194605" lon="9.325502137653897"><ele>488.0</ele><time>2026-03-29T13:50:29.999Z</time></trkpt><trkpt lat="44.61955549271034" lon="9.325268363649428"><ele>490.0</ele><time>2026-03-29T13:50:30.999Z</time></trkpt><trkpt lat="44.619383287306505" lon="9.325036339040594"><ele>492.0</ele><time>2026-03-29T13:50:31.998Z</time></trkpt><trkpt lat="44.61920544016786" lon="9.324796714280305"><ele>498.0</ele><time>2026-03-29T13:50:32.998Z</time></trkpt><trkpt lat="44.619024841008844" lon="9.324553380186629"><ele>504.0</ele><time>2026-03-29T13:50:33.998Z</time></trkpt><trkpt lat="44.61884707788305" lon="9.324316414829344"><ele>504.0</ele><time>2026-03-29T13:50:34.998Z</time></trkpt><trkpt lat="44.61866655544079" lon="9.324074119310152"><ele>504.0</ele><time>2026-03-29T13:50:35.998Z</time></trkpt><trkpt lat="44.61848671161839" lon="9.323839104678743"><ele>501.5</ele><time>2026-03-29T13:50:36.998Z</time></trkpt><trkpt lat="44.61832073802221" lon="9.323598304277226"><ele>499.0</ele><time>2026-03-29T13:50:37.998Z</time></trkpt><trkpt lat="44.61815318404017" lon="9.323378738077936"><ele>499.0</ele><time>2026-03-29T13:50:38.998Z</time></trkpt><trkpt lat="44.61799223604165" lon="9.323161568949763"><ele>499.0</ele><time>2026-03-29T13:50:39.998Z</time></trkpt><trkpt lat="44.61783201482991" lon="9.322948820757025"><ele>499.0</ele><time>2026-03-29T13:50:40.998Z</time></trkpt><trkpt lat="44.61767610333333" lon="9.322735212270576"><ele>496.0</ele><time>2026-03-29T13:50:41.998Z</time></trkpt><trkpt lat="44.61752181363086" lon="9.322529428410734"><ele>493.0</ele><time>2026-03-29T13:50:42.998Z</time></trkpt><trkpt lat="44.61738058212697" lon="9.322339963627392"><ele>490.0</ele><time>2026-03-29T13:50:43.998Z</time></trkpt><trkpt lat="44.61724471389705" lon="9.322163513032528"><ele>490.0</ele><time>2026-03-29T13:50:44.998Z</time></trkpt><trkpt lat="44.61710552410298" lon="9.322017742324494"><ele>490.0</ele><time>2026-03-29T13:50:45.998Z</time></trkpt><trkpt lat="44.61695262282953" lon="9.321899901659672"><ele>490.0</ele><time>2026-03-29T13:50:46.998Z</time></trkpt><trkpt lat="44.61678571016458" lon="9.321808494720754"><ele>494.0</ele><time>2026-03-29T13:50:47.998Z</time></trkpt><trkpt lat="44.61660825160184" lon="9.321751920698702"><ele>498.0</ele><time>2026-03-29T13:50:48.998Z</time></trkpt><trkpt lat="44.616419429610715" lon="9.321735487712374"><ele>502.0</ele><time>2026-03-29T13:50:49.998Z</time></trkpt><trkpt lat="44.616226267273525" lon="9.321746982086278"><ele>504.33333333333337</ele><time>2026-03-29T13:50:50.998Z</time></trkpt><trkpt lat="44.61602798813111" lon="9.321767427082728"><ele>506.66666666666663</ele><time>2026-03-29T13:50:51.998Z</time></trkpt><trkpt lat="44.61582606506684" lon="9.321782463896595"><ele>509.0</ele><time>2026-03-29T13:50:52.998Z</time></trkpt><trkpt lat="44.61562790626618" lon="9.321798443896261"><ele>509.0</ele><time>2026-03-29T13:50:53.998Z</time></trkpt><trkpt lat="44.61544259726072" lon="9.321809760426527"><ele>509.0</ele><time>2026-03-29T13:50:54.998Z</time></trkpt><trkpt lat="44.61527675184516" lon="9.321802491810535"><ele>509.0</ele><time>2026-03-29T13:50:55.998Z</time></trkpt><trkpt lat="44.61512268639711" lon="9.321725411895974"><ele>509.5</ele><time>2026-03-29T13:50:56.998Z</time></trkpt><trkpt lat="44.614982452107746" lon="9.321646575401136"><ele>510.0</ele><time>2026-03-29T13:50:57.998Z</time></trkpt><trkpt lat="44.61486931781037" lon="9.321523002914585"><ele>510.5</ele><time>2026-03-29T13:50:58.998Z</time></trkpt><trkpt lat="44.614773083503295" lon="9.32140703045607"><ele>511.0</ele><time>2026-03-29T13:50:59.998Z</time></trkpt><trkpt lat="44.614673465457805" lon="9.321345886819426"><ele>508.75</ele><time>2026-03-29T13:51:00.998Z</time></trkpt><trkpt lat="44.61454708149076" lon="9.321340965926158"><ele>506.5</ele><time>2026-03-29T13:51:01.998Z</time></trkpt><trkpt lat="44.614398251974805" lon="9.321365020890768"><ele>504.25</ele><time>2026-03-29T13:51:02.998Z</time></trkpt><trkpt lat="44.61424254494216" lon="9.321403647287116"><ele>502.0</ele><time>2026-03-29T13:51:03.998Z</time></trkpt><trkpt lat="44.61407776660905" lon="9.321444084754432"><ele>507.0</ele><time>2026-03-29T13:51:04.998Z</time></trkpt><trkpt lat="44.613907291830024" lon="9.321486446218138"><ele>512.0</ele><time>2026-03-29T13:51:05.998Z</time></trkpt><trkpt lat="44.613736661313254" lon="9.321537422916974"><ele>517.0</ele><time>2026-03-29T13:51:07Z</time></trkpt><trkpt lat="44.61356817068338" lon="9.321550252788837"><ele>517.0</ele><time>2026-03-29T13:51:08Z</time></trkpt><trkpt lat="44.61341640695246" lon="9.321582380487692"><ele>517.0</ele><time>2026-03-29T13:51:09Z</time></trkpt><trkpt lat="44.61329040595864" lon="9.321675010223197"><ele>517.0</ele><time>2026-03-29T13:51:10Z</time></trkpt><trkpt lat="44.613175883375284" lon="9.321673210511046"><ele>517.0</ele><time>2026-03-29T13:51:11Z</time></trkpt><trkpt lat="44.613082991845964" lon="9.321625485330529"><ele>517.0</ele><time>2026-03-29T13:51:12Z</time></trkpt><trkpt lat="44.61301761150405" lon="9.321517900563048"><ele>517.0</ele><time>2026-03-29T13:51:13Z</time></trkpt><trkpt lat="44.61299220851948" lon="9.321378816746698"><ele>517.0</ele><time>2026-03-29T13:51:14Z</time></trkpt><trkpt lat="44.612981348220124" lon="9.321235855627663"><ele>517.0</ele><time>2026-03-29T13:51:15Z</time></trkpt><trkpt lat="44.61296237313162" lon="9.321078676230867"><ele>517.0</ele><time>2026-03-29T13:51:16Z</time></trkpt><trkpt lat="44.61293567035522" lon="9.3209089115863"><ele>514.0</ele><time>2026-03-29T13:51:17Z</time></trkpt><trkpt lat="44.612894193636606" lon="9.320726980849981"><ele>511.0</ele><time>2026-03-29T13:51:18Z</time></trkpt><trkpt lat="44.61283046082976" lon="9.32055810741549"><ele>508.0</ele><time>2026-03-29T13:51:19Z</time></trkpt><trkpt lat="44.612730128725104" lon="9.320422488317833"><ele>505.0</ele><time>2026-03-29T13:51:20Z</time></trkpt><trkpt lat="44.6126018567851" lon="9.320312410035896"><ele>505.0</ele><time>2026-03-29T13:51:21Z</time></trkpt><trkpt lat="44.61246403539599" lon="9.320212439860349"><ele>505.0</ele><time>2026-03-29T13:51:22Z</time></trkpt><trkpt lat="44.6123240664538" lon="9.320105623975484"><ele>505.0</ele><time>2026-03-29T13:51:23Z</time></trkpt><trkpt lat="44.612197307008636" lon="9.320002521102344"><ele>505.0</ele><time>2026-03-29T13:51:24Z</time></trkpt><trkpt lat="44.612082253426976" lon="9.319914018608646"><ele>505.0</ele><time>2026-03-29T13:51:25Z</time></trkpt><trkpt lat="44.611982633795975" lon="9.319830819450516"><ele>505.0</ele><time>2026-03-29T13:51:26Z</time></trkpt><trkpt lat="44.611912938776435" lon="9.319725034247194"><ele>505.0</ele><time>2026-03-29T13:51:27Z</time></trkpt><trkpt lat="44.61188155013257" lon="9.319577732102799"><ele>505.0</ele><time>2026-03-29T13:51:27.999Z</time></trkpt><trkpt lat="44.611884843536714" lon="9.319405080145552"><ele>505.0</ele><time>2026-03-29T13:51:28.999Z</time></trkpt><trkpt lat="44.61190235447228" lon="9.319231118955544"><ele>505.0</ele><time>2026-03-29T13:51:29.999Z</time></trkpt><trkpt lat="44.611913337496944" lon="9.319073155103752"><ele>505.0</ele><time>2026-03-29T13:51:30.999Z</time></trkpt><trkpt lat="44.61189136173086" lon="9.318940189937887"><ele>512.0</ele><time>2026-03-29T13:51:31.999Z</time></trkpt><trkpt lat="44.61182192077544" lon="9.31883849623317"><ele>519.0</ele><time>2026-03-29T13:51:32.999Z</time></trkpt><trkpt lat="44.61171499438912" lon="9.318740506295034"><ele>526.0</ele><time>2026-03-29T13:51:33.999Z</time></trkpt><trkpt lat="44.611601235046244" lon="9.318652112508905"><ele>533.0</ele><time>2026-03-29T13:51:34.999Z</time></trkpt><trkpt lat="44.61148483501441" lon="9.318547014401666"><ele>533.0</ele><time>2026-03-29T13:51:35.999Z</time></trkpt><trkpt lat="44.61136481708242" lon="9.318430485161219"><ele>533.0</ele><time>2026-03-29T13:51:36.999Z</time></trkpt><trkpt lat="44.611242513793314" lon="9.318312903600411"><ele>533.0</ele><time>2026-03-29T13:51:37.999Z</time></trkpt><trkpt lat="44.611114053903236" lon="9.318213047973185"><ele>533.0</ele><time>2026-03-29T13:51:38.999Z</time></trkpt><trkpt lat="44.610986960797504" lon="9.318140490927425"><ele>528.8</ele><time>2026-03-29T13:51:39.999Z</time></trkpt><trkpt lat="44.610875551712745" lon="9.318082834573387"><ele>524.5999999999999</ele><time>2026-03-29T13:51:40.999Z</time></trkpt><trkpt lat="44.610796983749616" lon="9.318000737904974"><ele>520.4000000000001</ele><time>2026-03-29T13:51:41.999Z</time></trkpt><trkpt lat="44.6107592720252" lon="9.317875948953196"><ele>516.2</ele><time>2026-03-29T13:51:42.999Z</time></trkpt><trkpt lat="44.610754970909305" lon="9.317718702496576"><ele>512.0</ele><time>2026-03-29T13:51:43.999Z</time></trkpt><trkpt lat="44.61077805663498" lon="9.317550227856538"><ele>512.0</ele><time>2026-03-29T13:51:44.999Z</time></trkpt><trkpt lat="44.61079100750719" lon="9.31737589998782"><ele>512.0</ele><time>2026-03-29T13:51:45.999Z</time></trkpt><trkpt lat="44.61078397276043" lon="9.317185170421501"><ele>512.0</ele><time>2026-03-29T13:51:46.999Z</time></trkpt><trkpt lat="44.610762280679616" lon="9.31698993129914"><ele>512.0</ele><time>2026-03-29T13:51:47.999Z</time></trkpt><trkpt lat="44.6107460668376" lon="9.316797275925033"><ele>513.25</ele><time>2026-03-29T13:51:48.999Z</time></trkpt><trkpt lat="44.61076567597635" lon="9.31661712403881"><ele>514.5</ele><time>2026-03-29T13:51:49.999Z</time></trkpt><trkpt lat="44.61082772620247" lon="9.316447960867245"><ele>515.75</ele><time>2026-03-29T13:51:50.999Z</time></trkpt><trkpt lat="44.61087274777809" lon="9.3162668992474"><ele>517.0</ele><time>2026-03-29T13:51:51.999Z</time></trkpt><trkpt lat="44.61087049812201" lon="9.316066349708384"><ele>517.3333333333334</ele><time>2026-03-29T13:51:52.999Z</time></trkpt><trkpt lat="44.61084118740907" lon="9.315857400603878"><ele>517.6666666666666</ele><time>2026-03-29T13:51:53.999Z</time></trkpt><trkpt lat="44.610790429151024" lon="9.315644725197973"><ele>518.0</ele><time>2026-03-29T13:51:54.999Z</time></trkpt><trkpt lat="44.610738888258595" lon="9.315428619175254"><ele>518.3333333333333</ele><time>2026-03-29T13:51:55.999Z</time></trkpt><trkpt lat="44.610678930888696" lon="9.31521118001365"><ele>518.6666666666666</ele><time>2026-03-29T13:51:56.999Z</time></trkpt><trkpt lat="44.6106223282491" lon="9.314994008514185"><ele>519.0</ele><time>2026-03-29T13:51:57.999Z</time></trkpt><trkpt lat="44.61057524407605" lon="9.314792935468"><ele>521.6666666666666</ele><time>2026-03-29T13:51:58.999Z</time></trkpt><trkpt lat="44.610532219699465" lon="9.314593014220764"><ele>524.3333333333333</ele><time>2026-03-29T13:51:59.999Z</time></trkpt><trkpt lat="44.61050897507404" lon="9.314378737566544"><ele>527.0</ele><time>2026-03-29T13:52:00.999Z</time></trkpt><trkpt lat="44.61051330424642" lon="9.314147785649162"><ele>527.0</ele><time>2026-03-29T13:52:01.999Z</time></trkpt><trkpt lat="44.61052259227374" lon="9.31391119110235"><ele>527.0</ele><time>2026-03-29T13:52:02.999Z</time></trkpt><trkpt lat="44.610524721486215" lon="9.313668396831613"><ele>527.0</ele><time>2026-03-29T13:52:03.999Z</time></trkpt><trkpt lat="44.61051365703091" lon="9.313425278513154"><ele>527.0</ele><time>2026-03-29T13:52:04.999Z</time></trkpt><trkpt lat="44.61047347447047" lon="9.313186712932104"><ele>527.0</ele><time>2026-03-29T13:52:05.999Z</time></trkpt><trkpt lat="44.61041641513953" lon="9.312952524455175"><ele>527.0</ele><time>2026-03-29T13:52:06.999Z</time></trkpt><trkpt lat="44.610356319442246" lon="9.312723032653594"><ele>521.6666666666666</ele><time>2026-03-29T13:52:07.999Z</time></trkpt><trkpt lat="44.61029926223094" lon="9.312507575370752"><ele>516.3333333333334</ele><time>2026-03-29T13:52:08.999Z</time></trkpt><trkpt lat="44.61023416122458" lon="9.312308915001976"><ele>511.0</ele><time>2026-03-29T13:52:09.999Z</time></trkpt><trkpt lat="44.610164890194596" lon="9.31213006539505"><ele>511.0</ele><time>2026-03-29T13:52:10.999Z</time></trkpt><trkpt lat="44.610115511634476" lon="9.311956407179931"><ele>511.0</ele><time>2026-03-29T13:52:11.999Z</time></trkpt><trkpt lat="44.61011845414957" lon="9.311780829984647"><ele>511.0</ele><time>2026-03-29T13:52:12.999Z</time></trkpt><trkpt lat="44.610130734335826" lon="9.311609705926193"><ele>511.0</ele><time>2026-03-29T13:52:13.999Z</time></trkpt><trkpt lat="44.610210586231595" lon="9.3114538245885"><ele>510.5</ele><time>2026-03-29T13:52:14.999Z</time></trkpt><trkpt lat="44.61029849725876" lon="9.311297417258167"><ele>510.0</ele><time>2026-03-29T13:52:15.999Z</time></trkpt><trkpt lat="44.61039153969147" lon="9.311135137717573"><ele>509.5</ele><time>2026-03-29T13:52:16.999Z</time></trkpt><trkpt lat="44.61050124670886" lon="9.310983125012628"><ele>509.0</ele><time>2026-03-29T13:52:17.999Z</time></trkpt><trkpt lat="44.61060841767203" lon="9.31081210849372"><ele>511.0</ele><time>2026-03-29T13:52:18.998Z</time></trkpt><trkpt lat="44.61071590552798" lon="9.310627138289114"><ele>513.0</ele><time>2026-03-29T13:52:19.998Z</time></trkpt><trkpt lat="44.61082454640043" lon="9.310450256732633"><ele>515.0</ele><time>2026-03-29T13:52:20.998Z</time></trkpt><trkpt lat="44.610931566276406" lon="9.310296573676405"><ele>515.0</ele><time>2026-03-29T13:52:21.998Z</time></trkpt><trkpt lat="44.61102766432779" lon="9.310154263628933"><ele>515.0</ele><time>2026-03-29T13:52:22.998Z</time></trkpt><trkpt lat="44.61110400643098" lon="9.310000368829396"><ele>515.0</ele><time>2026-03-29T13:52:23.998Z</time></trkpt><trkpt lat="44.6111531368077" lon="9.309810589945949"><ele>515.0</ele><time>2026-03-29T13:52:24.998Z</time></trkpt><trkpt lat="44.61117497487669" lon="9.30959366762172"><ele>519.0</ele><time>2026-03-29T13:52:25.998Z</time></trkpt><trkpt lat="44.61119247484318" lon="9.309363185758622"><ele>523.0</ele><time>2026-03-29T13:52:26.998Z</time></trkpt><trkpt lat="44.61122366289706" lon="9.309159711426968"><ele>527.0</ele><time>2026-03-29T13:52:27.998Z</time></trkpt><trkpt lat="44.61126331292722" lon="9.308996729104424"><ele>531.0</ele><time>2026-03-29T13:52:28.998Z</time></trkpt><trkpt lat="44.61128415794507" lon="9.308851042406994"><ele>531.0</ele><time>2026-03-29T13:52:29.998Z</time></trkpt><trkpt lat="44.61125218079876" lon="9.308711763151596"><ele>531.0</ele><time>2026-03-29T13:52:30.998Z</time></trkpt><trkpt lat="44.611166770879635" lon="9.308571899214254"><ele>531.0</ele><time>2026-03-29T13:52:31.998Z</time></trkpt><trkpt lat="44.61105979711025" lon="9.308428773911213"><ele>531.0</ele><time>2026-03-29T13:52:32.998Z</time></trkpt><trkpt lat="44.61096185836957" lon="9.308262439157517"><ele>528.3333333333334</ele><time>2026-03-29T13:52:33.998Z</time></trkpt><trkpt lat="44.61086220492084" lon="9.308087454015045"><ele>525.6666666666667</ele><time>2026-03-29T13:52:34.998Z</time></trkpt><trkpt lat="44.610758444957305" lon="9.307924444829277"><ele>523.0</ele><time>2026-03-29T13:52:35.998Z</time></trkpt><trkpt lat="44.610670185463576" lon="9.307778325311174"><ele>523.0</ele><time>2026-03-29T13:52:36.998Z</time></trkpt><trkpt lat="44.61060497829571" lon="9.307628345304561"><ele>523.0</ele><time>2026-03-29T13:52:37.998Z</time></trkpt><trkpt lat="44.6106062770792" lon="9.307446742303943"><ele>523.0</ele><time>2026-03-29T13:52:38.998Z</time></trkpt><trkpt lat="44.610598831570954" lon="9.307262187831203"><ele>523.0</ele><time>2026-03-29T13:52:39.998Z</time></trkpt><trkpt lat="44.610613878112325" lon="9.307099596182844"><ele>526.0</ele><time>2026-03-29T13:52:40.998Z</time></trkpt><trkpt lat="44.61057817621657" lon="9.306962604119509"><ele>529.0</ele><time>2026-03-29T13:52:41.998Z</time></trkpt><trkpt lat="44.61047972264981" lon="9.306855387781603"><ele>532.0</ele><time>2026-03-29T13:52:42.998Z</time></trkpt><trkpt lat="44.610352146353385" lon="9.306775038589539"><ele>535.0</ele><time>2026-03-29T13:52:43.998Z</time></trkpt><trkpt lat="44.61021870394604" lon="9.306698661326987"><ele>535.0</ele><time>2026-03-29T13:52:44.998Z</time></trkpt><trkpt lat="44.61007201114788" lon="9.30664743208167"><ele>535.0</ele><time>2026-03-29T13:52:45.998Z</time></trkpt><trkpt lat="44.60991175400426" lon="9.306647692031694"><ele>535.0</ele><time>2026-03-29T13:52:46.998Z</time></trkpt><trkpt lat="44.60974296719135" lon="9.306685298952127"><ele>535.0</ele><time>2026-03-29T13:52:47.998Z</time></trkpt><trkpt lat="44.60956137226783" lon="9.306728240189187"><ele>535.0</ele><time>2026-03-29T13:52:48.998Z</time></trkpt><trkpt lat="44.60936989994161" lon="9.306769755740646"><ele>535.0</ele><time>2026-03-29T13:52:49.998Z</time></trkpt><trkpt lat="44.60917307265717" lon="9.306825616255571"><ele>533.3333333333334</ele><time>2026-03-29T13:52:50.998Z</time></trkpt><trkpt lat="44.608981419466154" lon="9.306901365565128"><ele>531.6666666666666</ele><time>2026-03-29T13:52:51.998Z</time></trkpt><trkpt lat="44.60881009369165" lon="9.306982727022032"><ele>530.0</ele><time>2026-03-29T13:52:52.998Z</time></trkpt><trkpt lat="44.60864997274699" lon="9.30702102597693"><ele>529.3333333333333</ele><time>2026-03-29T13:52:53.998Z</time></trkpt><trkpt lat="44.608505804005944" lon="9.307045676638545"><ele>528.6666666666666</ele><time>2026-03-29T13:52:54.998Z</time></trkpt><trkpt lat="44.60835756203657" lon="9.307006503523626"><ele>528.0</ele><time>2026-03-29T13:52:55.998Z</time></trkpt><trkpt lat="44.60818617207806" lon="9.306983532003995"><ele>528.0</ele><time>2026-03-29T13:52:56.998Z</time></trkpt><trkpt lat="44.60801700383493" lon="9.306950018657817"><ele>528.0</ele><time>2026-03-29T13:52:57.998Z</time></trkpt><trkpt lat="44.60784406390325" lon="9.306950356000021"><ele>528.0</ele><time>2026-03-29T13:52:58.998Z</time></trkpt><trkpt lat="44.60767489926234" lon="9.306966102170188"><ele>527.3333333333334</ele><time>2026-03-29T13:52:59.998Z</time></trkpt><trkpt lat="44.60751817220482" lon="9.306955588297996"><ele>526.6666666666667</ele><time>2026-03-29T13:53:00.998Z</time></trkpt><trkpt lat="44.607372725895395" lon="9.306867243543737"><ele>526.0</ele><time>2026-03-29T13:53:01.998Z</time></trkpt><trkpt lat="44.60725164935974" lon="9.306725691141736"><ele>526.0</ele><time>2026-03-29T13:53:02.998Z</time></trkpt><trkpt lat="44.60711391738283" lon="9.306609671892188"><ele>526.0</ele><time>2026-03-29T13:53:03.998Z</time></trkpt><trkpt lat="44.60700578774683" lon="9.306466293405972"><ele>526.0</ele><time>2026-03-29T13:53:04.998Z</time></trkpt><trkpt lat="44.60691544064698" lon="9.306309928458107"><ele>526.3333333333334</ele><time>2026-03-29T13:53:05.998Z</time></trkpt><trkpt lat="44.60686133646" lon="9.30612042117655"><ele>526.6666666666666</ele><time>2026-03-29T13:53:06.998Z</time></trkpt><trkpt lat="44.60683739900907" lon="9.305905088876928"><ele>527.0</ele><time>2026-03-29T13:53:07.998Z</time></trkpt><trkpt lat="44.60679666237287" lon="9.305695458349975"><ele>527.0</ele><time>2026-03-29T13:53:08.998Z</time></trkpt><trkpt lat="44.60675293410492" lon="9.305476771642468"><ele>527.0</ele><time>2026-03-29T13:53:09.998Z</time></trkpt><trkpt lat="44.606718855935846" lon="9.305253664838748"><ele>527.0</ele><time>2026-03-29T13:53:10.998Z</time></trkpt><trkpt lat="44.60669322531903" lon="9.305031938017935"><ele>527.0</ele><time>2026-03-29T13:53:11.998Z</time></trkpt><trkpt lat="44.606679099345136" lon="9.304826792479803"><ele>527.0</ele><time>2026-03-29T13:53:12.999Z</time></trkpt><trkpt lat="44.6066981748026" lon="9.304638106799286"><ele>527.0</ele><time>2026-03-29T13:53:13.999Z</time></trkpt><trkpt lat="44.6067590060446" lon="9.30446705459595"><ele>527.0</ele><time>2026-03-29T13:53:14.999Z</time></trkpt><trkpt lat="44.606846664192254" lon="9.304351308079578"><ele>528.5</ele><time>2026-03-29T13:53:15.999Z</time></trkpt><trkpt lat="44.606958083714005" lon="9.304300728383485"><ele>530.0</ele><time>2026-03-29T13:53:16.999Z</time></trkpt><trkpt lat="44.60708772504908" lon="9.30430331998705"><ele>531.5</ele><time>2026-03-29T13:53:17.999Z</time></trkpt><trkpt lat="44.60722747494518" lon="9.30431144026113"><ele>533.0</ele><time>2026-03-29T13:53:19Z</time></trkpt><trkpt lat="44.60737367574275" lon="9.304266009159019"><ele>533.0</ele><time>2026-03-29T13:53:20Z</time></trkpt><trkpt lat="44.6075189874214" lon="9.304182594925612"><ele>533.0</ele><time>2026-03-29T13:53:21Z</time></trkpt><trkpt lat="44.60766354415582" lon="9.30406776637799"><ele>533.0</ele><time>2026-03-29T13:53:22Z</time></trkpt><trkpt lat="44.60780767173253" lon="9.303935874119908"><ele>533.3333333333333</ele><time>2026-03-29T13:53:23Z</time></trkpt><trkpt lat="44.60795354825419" lon="9.303796058410608"><ele>533.6666666666666</ele><time>2026-03-29T13:53:24Z</time></trkpt><trkpt lat="44.60808921746812" lon="9.303640684490158"><ele>534.0</ele><time>2026-03-29T13:53:25Z</time></trkpt><trkpt lat="44.60820739171272" lon="9.303464958301428"><ele>534.0</ele><time>2026-03-29T13:53:26Z</time></trkpt><trkpt lat="44.60829610287787" lon="9.303270792239557"><ele>534.0</ele><time>2026-03-29T13:53:27Z</time></trkpt><trkpt lat="44.608364067665505" lon="9.303078289241931"><ele>534.0</ele><time>2026-03-29T13:53:28Z</time></trkpt><trkpt lat="44.60843221612124" lon="9.30290837899018"><ele>533.5</ele><time>2026-03-29T13:53:29Z</time></trkpt><trkpt lat="44.60849326778743" lon="9.302752717866207"><ele>533.0</ele><time>2026-03-29T13:53:30Z</time></trkpt><trkpt lat="44.608525380967514" lon="9.302587576973115"><ele>532.5</ele><time>2026-03-29T13:53:31Z</time></trkpt><trkpt lat="44.60851792294639" lon="9.302394827013359"><ele>532.0</ele><time>2026-03-29T13:53:32Z</time></trkpt><trkpt lat="44.608485418568044" lon="9.302190380114567"><ele>531.3333333333334</ele><time>2026-03-29T13:53:33Z</time></trkpt><trkpt lat="44.60845100001884" lon="9.301971567274109"><ele>530.6666666666666</ele><time>2026-03-29T13:53:34Z</time></trkpt><trkpt lat="44.608421830690695" lon="9.30174016854996"><ele>530.0</ele><time>2026-03-29T13:53:35Z</time></trkpt><trkpt lat="44.608398351109855" lon="9.301496800685216"><ele>531.0</ele><time>2026-03-29T13:53:36Z</time></trkpt><trkpt lat="44.608370004267464" lon="9.301239965562612"><ele>532.0</ele><time>2026-03-29T13:53:36.999Z</time></trkpt><trkpt lat="44.6083518118752" lon="9.30096795411354"><ele>533.0</ele><time>2026-03-29T13:53:37.999Z</time></trkpt><trkpt lat="44.60834391347661" lon="9.300700311701547"><ele>535.6666666666666</ele><time>2026-03-29T13:53:38.999Z</time></trkpt><trkpt lat="44.608342231752495" lon="9.300442778891853"><ele>538.3333333333334</ele><time>2026-03-29T13:53:39.999Z</time></trkpt><trkpt lat="44.60833316142427" lon="9.300184080390647"><ele>541.0</ele><time>2026-03-29T13:53:40.999Z</time></trkpt><trkpt lat="44.60831070234092" lon="9.299931748706706"><ele>543.0</ele><time>2026-03-29T13:53:41.999Z</time></trkpt><trkpt lat="44.608284505397194" lon="9.299676580130729"><ele>545.0</ele><time>2026-03-29T13:53:42.999Z</time></trkpt><trkpt lat="44.608252497029035" lon="9.299415435826326"><ele>547.0</ele><time>2026-03-29T13:53:43.999Z</time></trkpt><trkpt lat="44.60821530152004" lon="9.299156390781128"><ele>549.0</ele><time>2026-03-29T13:53:44.999Z</time></trkpt><trkpt lat="44.60817836535927" lon="9.298909492515152"><ele>551.0</ele><time>2026-03-29T13:53:45.999Z</time></trkpt><trkpt lat="44.60815050518905" lon="9.298681681693584"><ele>553.0</ele><time>2026-03-29T13:53:46.999Z</time></trkpt><trkpt lat="44.608121449284226" lon="9.298475324253015"><ele>553.0</ele><time>2026-03-29T13:53:47.999Z</time></trkpt><trkpt lat="44.60807483879705" lon="9.298300807511573"><ele>553.0</ele><time>2026-03-29T13:53:48.999Z</time></trkpt><trkpt lat="44.60799789926168" lon="9.298164505030037"><ele>553.0</ele><time>2026-03-29T13:53:49.999Z</time></trkpt><trkpt lat="44.607894011169144" lon="9.29806474596149"><ele>553.0</ele><time>2026-03-29T13:53:50.999Z</time></trkpt><trkpt lat="44.60776458318436" lon="9.297996765779713"><ele>548.25</ele><time>2026-03-29T13:53:51.999Z</time></trkpt><trkpt lat="44.6076284501488" lon="9.29793474454468"><ele>543.5</ele><time>2026-03-29T13:53:52.999Z</time></trkpt><trkpt lat="44.607502841659056" lon="9.297843793912474"><ele>538.75</ele><time>2026-03-29T13:53:53.999Z</time></trkpt><trkpt lat="44.60739310392522" lon="9.297712446721121"><ele>534.0</ele><time>2026-03-29T13:53:54.999Z</time></trkpt><trkpt lat="44.60729734437315" lon="9.297541741364471"><ele>534.0</ele><time>2026-03-29T13:53:55.999Z</time></trkpt><trkpt lat="44.60720513685556" lon="9.297355503516988"><ele>534.0</ele><time>2026-03-29T13:53:56.999Z</time></trkpt><trkpt lat="44.60710707504531" lon="9.297171418201426"><ele>534.0</ele><time>2026-03-29T13:53:57.999Z</time></trkpt><trkpt lat="44.607006783628876" lon="9.296985633262434"><ele>532.6666666666666</ele><time>2026-03-29T13:53:58.999Z</time></trkpt><trkpt lat="44.60692548913665" lon="9.296792066886264"><ele>531.3333333333333</ele><time>2026-03-29T13:53:59.999Z</time></trkpt><trkpt lat="44.60687824862443" lon="9.296588395090575"><ele>530.0</ele><time>2026-03-29T13:54:00.999Z</time></trkpt><trkpt lat="44.60686165305665" lon="9.29637325428137"><ele>530.0</ele><time>2026-03-29T13:54:01.999Z</time></trkpt><trkpt lat="44.60682325500186" lon="9.296163347460988"><ele>530.0</ele><time>2026-03-29T13:54:02.999Z</time></trkpt><trkpt lat="44.60674044864035" lon="9.295966988853129"><ele>530.0</ele><time>2026-03-29T13:54:03.999Z</time></trkpt><trkpt lat="44.60664392522513" lon="9.295779214619145"><ele>530.0</ele><time>2026-03-29T13:54:04.999Z</time></trkpt><trkpt lat="44.60654790308393" lon="9.295587662152304"><ele>530.0</ele><time>2026-03-29T13:54:05.999Z</time></trkpt><trkpt lat="44.60645652390712" lon="9.29539361277236"><ele>530.0</ele><time>2026-03-29T13:54:06.999Z</time></trkpt><trkpt lat="44.606365596952934" lon="9.295205620516418"><ele>529.6666666666666</ele><time>2026-03-29T13:54:07.999Z</time></trkpt><trkpt lat="44.60627554087411" lon="9.295020480648098"><ele>529.3333333333334</ele><time>2026-03-29T13:54:08.999Z</time></trkpt><trkpt lat="44.606186502849376" lon="9.2948368628516"><ele>529.0</ele><time>2026-03-29T13:54:09.999Z</time></trkpt><trkpt lat="44.60610012305469" lon="9.294653736670675"><ele>527.3333333333334</ele><time>2026-03-29T13:54:10.999Z</time></trkpt><trkpt lat="44.60601250057785" lon="9.294471152116566"><ele>525.6666666666666</ele><time>2026-03-29T13:54:11.999Z</time></trkpt><trkpt lat="44.6059235738383" lon="9.294295671738066"><ele>524.0</ele><time>2026-03-29T13:54:12.999Z</time></trkpt><trkpt lat="44.605838251219566" lon="9.294125726776086"><ele>524.0</ele><time>2026-03-29T13:54:13.999Z</time></trkpt><trkpt lat="44.60575502008624" lon="9.293962106303471"><ele>524.0</ele><time>2026-03-29T13:54:14.999Z</time></trkpt><trkpt lat="44.60567490074471" lon="9.293798288029832"><ele>524.0</ele><time>2026-03-29T13:54:15.999Z</time></trkpt><trkpt lat="44.60559804046139" lon="9.293635470544384"><ele>524.0</ele><time>2026-03-29T13:54:16.999Z</time></trkpt><trkpt lat="44.60552486572643" lon="9.293479912242097"><ele>524.0</ele><time>2026-03-29T13:54:17.999Z</time></trkpt><trkpt lat="44.60545074769561" lon="9.293332798538486"><ele>524.0</ele><time>2026-03-29T13:54:18.999Z</time></trkpt><trkpt lat="44.605380332249645" lon="9.293194769234798"><ele>524.0</ele><time>2026-03-29T13:54:19.999Z</time></trkpt><trkpt lat="44.60531371426175" lon="9.293063477713313"><ele>524.0</ele><time>2026-03-29T13:54:20.999Z</time></trkpt><trkpt lat="44.6052470689961" lon="9.292933450173278"><ele>524.25</ele><time>2026-03-29T13:54:21.999Z</time></trkpt><trkpt lat="44.60518134654267" lon="9.292805117418078"><ele>524.5</ele><time>2026-03-29T13:54:22.999Z</time></trkpt><trkpt lat="44.60512515095818" lon="9.292658288195335"><ele>524.75</ele><time>2026-03-29T13:54:23.999Z</time></trkpt><trkpt lat="44.60505652510725" lon="9.292533757137502"><ele>525.0</ele><time>2026-03-29T13:54:24.999Z</time></trkpt><trkpt lat="44.604993293214385" lon="9.292389600472548"><ele>525.75</ele><time>2026-03-29T13:54:25.999Z</time></trkpt><trkpt lat="44.60492225485977" lon="9.292247860944904"><ele>526.5</ele><time>2026-03-29T13:54:26.999Z</time></trkpt><trkpt lat="44.60484832042698" lon="9.292116325484972"><ele>527.25</ele><time>2026-03-29T13:54:27.999Z</time></trkpt><trkpt lat="44.60477111516296" lon="9.292000865716108"><ele>528.0</ele><time>2026-03-29T13:54:28.999Z</time></trkpt><trkpt lat="44.604686121512586" lon="9.291899005402197"><ele>528.0</ele><time>2026-03-29T13:54:29.999Z</time></trkpt><trkpt lat="44.60459445966804" lon="9.291815195567539"><ele>528.0</ele><time>2026-03-29T13:54:30.999Z</time></trkpt><trkpt lat="44.604490313688856" lon="9.291751465557306"><ele>528.0</ele><time>2026-03-29T13:54:31.999Z</time></trkpt><trkpt lat="44.604377596644916" lon="9.291698729281785"><ele>528.0</ele><time>2026-03-29T13:54:32.999Z</time></trkpt><trkpt lat="44.60426072955742" lon="9.291645791204312"><ele>527.25</ele><time>2026-03-29T13:54:33.999Z</time></trkpt><trkpt lat="44.60414191271067" lon="9.291589880972635"><ele>526.5</ele><time>2026-03-29T13:54:34.999Z</time></trkpt><trkpt lat="44.60401882116032" lon="9.291523816747793"><ele>525.75</ele><time>2026-03-29T13:54:35.999Z</time></trkpt><trkpt lat="44.60388986511427" lon="9.291458200692258"><ele>525.0</ele><time>2026-03-29T13:54:36.999Z</time></trkpt><trkpt lat="44.603757268349064" lon="9.291387776063546"><ele>524.0</ele><time>2026-03-29T13:54:37.999Z</time></trkpt><trkpt lat="44.603617866219224" lon="9.291319707020836"><ele>523.0</ele><time>2026-03-29T13:54:38.999Z</time></trkpt><trkpt lat="44.60347487785747" lon="9.291244207561467"><ele>522.0</ele><time>2026-03-29T13:54:39.999Z</time></trkpt><trkpt lat="44.60332207797452" lon="9.291170622917459"><ele>522.0</ele><time>2026-03-29T13:54:40.999Z</time></trkpt><trkpt lat="44.603162108171524" lon="9.291094644983742"><ele>522.0</ele><time>2026-03-29T13:54:41.999Z</time></trkpt><trkpt lat="44.60299706870766" lon="9.291016399161713"><ele>522.0</ele><time>2026-03-29T13:54:42.998Z</time></trkpt><trkpt lat="44.602822558269345" lon="9.29093372891466"><ele>525.0</ele><time>2026-03-29T13:54:43.998Z</time></trkpt><trkpt lat="44.60264796993987" lon="9.290822335092994"><ele>528.0</ele><time>2026-03-29T13:54:44.998Z</time></trkpt><trkpt lat="44.60246839395081" lon="9.290732253259172"><ele>531.0</ele><time>2026-03-29T13:54:45.998Z</time></trkpt><trkpt lat="44.60229156201438" lon="9.290642624379418"><ele>531.0</ele><time>2026-03-29T13:54:46.998Z</time></trkpt><trkpt lat="44.60210811946703" lon="9.290571771970077"><ele>531.0</ele><time>2026-03-29T13:54:47.998Z</time></trkpt><trkpt lat="44.60193818856305" lon="9.290475356546771"><ele>531.0</ele><time>2026-03-29T13:54:48.998Z</time></trkpt><trkpt lat="44.601776270559576" lon="9.290390461536571"><ele>531.0</ele><time>2026-03-29T13:54:49.998Z</time></trkpt><trkpt lat="44.60161302914876" lon="9.290319783285373"><ele>531.0</ele><time>2026-03-29T13:54:50.998Z</time></trkpt><trkpt lat="44.601443872804694" lon="9.290279672108309"><ele>531.0</ele><time>2026-03-29T13:54:51.998Z</time></trkpt><trkpt lat="44.60126944490378" lon="9.290287355473184"><ele>531.0</ele><time>2026-03-29T13:54:52.998Z</time></trkpt><trkpt lat="44.60109393192442" lon="9.290332805723157"><ele>531.0</ele><time>2026-03-29T13:54:53.998Z</time></trkpt><trkpt lat="44.600918642304386" lon="9.290403466195531"><ele>531.0</ele><time>2026-03-29T13:54:54.998Z</time></trkpt><trkpt lat="44.60075464586368" lon="9.290457505628577"><ele>531.0</ele><time>2026-03-29T13:54:55.998Z</time></trkpt><trkpt lat="44.600588526701124" lon="9.290541168984847"><ele>531.0</ele><time>2026-03-29T13:54:56.998Z</time></trkpt><trkpt lat="44.60044677360669" lon="9.290629617867664"><ele>531.0</ele><time>2026-03-29T13:54:57.998Z</time></trkpt><trkpt lat="44.60033306503018" lon="9.290748738316223"><ele>531.3333333333334</ele><time>2026-03-29T13:54:58.998Z</time></trkpt><trkpt lat="44.600227738106646" lon="9.290911190530215"><ele>531.6666666666667</ele><time>2026-03-29T13:54:59.998Z</time></trkpt><trkpt lat="44.60013318912955" lon="9.291113823074209"><ele>532.0</ele><time>2026-03-29T13:55:00.998Z</time></trkpt><trkpt lat="44.60003708123685" lon="9.29133227967042"><ele>536.0</ele><time>2026-03-29T13:55:01.998Z</time></trkpt><trkpt lat="44.5999425984821" lon="9.29155471768501"><ele>540.0</ele><time>2026-03-29T13:55:02.998Z</time></trkpt><trkpt lat="44.599849957229" lon="9.29178905597334"><ele>544.0</ele><time>2026-03-29T13:55:03.998Z</time></trkpt><trkpt lat="44.59973981419341" lon="9.29202345467031"><ele>541.0</ele><time>2026-03-29T13:55:04.998Z</time></trkpt><trkpt lat="44.59964860325109" lon="9.292267491625593"><ele>538.0</ele><time>2026-03-29T13:55:05.998Z</time></trkpt><trkpt lat="44.599573018961756" lon="9.292491509210867"><ele>535.0</ele><time>2026-03-29T13:55:06.998Z</time></trkpt><trkpt lat="44.599497010002544" lon="9.292678613607482"><ele>535.0</ele><time>2026-03-29T13:55:07.998Z</time></trkpt><trkpt lat="44.59939725415071" lon="9.292809359274719"><ele>535.0</ele><time>2026-03-29T13:55:08.998Z</time></trkpt><trkpt lat="44.599273681809166" lon="9.29289383781658"><ele>535.0</ele><time>2026-03-29T13:55:09.998Z</time></trkpt><trkpt lat="44.59912533621046" lon="9.292987002773208"><ele>535.0</ele><time>2026-03-29T13:55:10.998Z</time></trkpt><trkpt lat="44.59895924215387" lon="9.293078557576225"><ele>538.6666666666667</ele><time>2026-03-29T13:55:11.998Z</time></trkpt><trkpt lat="44.59878572940846" lon="9.293174590559614"><ele>542.3333333333334</ele><time>2026-03-29T13:55:12.998Z</time></trkpt><trkpt lat="44.59860423941119" lon="9.293278753184016"><ele>546.0</ele><time>2026-03-29T13:55:13.998Z</time></trkpt><trkpt lat="44.59841917835019" lon="9.293384965346592"><ele>546.0</ele><time>2026-03-29T13:55:14.998Z</time></trkpt><trkpt lat="44.59823314887727" lon="9.293493405197243"><ele>546.0</ele><time>2026-03-29T13:55:15.998Z</time></trkpt><trkpt lat="44.598059604929276" lon="9.29358086494007"><ele>546.0</ele><time>2026-03-29T13:55:16.998Z</time></trkpt><trkpt lat="44.5979051111107" lon="9.293618940722316"><ele>545.3333333333334</ele><time>2026-03-29T13:55:17.998Z</time></trkpt><trkpt lat="44.59774630579998" lon="9.293632400509265"><ele>544.6666666666667</ele><time>2026-03-29T13:55:19Z</time></trkpt><trkpt lat="44.59758521071239" lon="9.293605537134518"><ele>544.0</ele><time>2026-03-29T13:55:20Z</time></trkpt><trkpt lat="44.59742605952032" lon="9.29350748164107"><ele>544.0</ele><time>2026-03-29T13:55:21Z</time></trkpt><trkpt lat="44.59725293325759" lon="9.2934101126908"><ele>544.0</ele><time>2026-03-29T13:55:22Z</time></trkpt><trkpt lat="44.597076013771805" lon="9.293284753347768"><ele>544.0</ele><time>2026-03-29T13:55:23Z</time></trkpt><trkpt lat="44.59687507265396" lon="9.293180045411868"><ele>547.5</ele><time>2026-03-29T13:55:24Z</time></trkpt><trkpt lat="44.596652853659215" lon="9.29309843954205"><ele>551.0</ele><time>2026-03-29T13:55:25Z</time></trkpt><trkpt lat="44.59641101553985" lon="9.293031374043307"><ele>543.5</ele><time>2026-03-29T13:55:26Z</time></trkpt><trkpt lat="44.59616267799459" lon="9.292962928864945"><ele>536.0</ele><time>2026-03-29T13:55:27Z</time></trkpt><trkpt lat="44.595923580166016" lon="9.292872689243795"><ele>536.0</ele><time>2026-03-29T13:55:28Z</time></trkpt><trkpt lat="44.595706026059844" lon="9.292806394083867"><ele>536.0</ele><time>2026-03-29T13:55:29Z</time></trkpt><trkpt lat="44.59550759097921" lon="9.292746817912155"><ele>536.0</ele><time>2026-03-29T13:55:30Z</time></trkpt><trkpt lat="44.59533304908945" lon="9.29269544138903"><ele>540.75</ele><time>2026-03-29T13:55:31Z</time></trkpt><trkpt lat="44.595178588214495" lon="9.292666233875066"><ele>545.5</ele><time>2026-03-29T13:55:32Z</time></trkpt><trkpt lat="44.595086575960806" lon="9.292530058312291"><ele>550.25</ele><time>2026-03-29T13:55:33Z</time></trkpt><trkpt lat="44.594983833846634" lon="9.292420107826025"><ele>555.0</ele><time>2026-03-29T13:55:34Z</time></trkpt><trkpt lat="44.59488087163908" lon="9.292325360360246"><ele>555.0</ele><time>2026-03-29T13:55:35Z</time></trkpt><trkpt lat="44.59474545889364" lon="9.292295457203908"><ele>555.0</ele><time>2026-03-29T13:55:36Z</time></trkpt><trkpt lat="44.59458799694592" lon="9.292286782073267"><ele>555.0</ele><time>2026-03-29T13:55:37Z</time></trkpt><trkpt lat="44.594447756400726" lon="9.292209091512154"><ele>555.0</ele><time>2026-03-29T13:55:38Z</time></trkpt><trkpt lat="44.59431885661649" lon="9.292094177785225"><ele>554.75</ele><time>2026-03-29T13:55:39Z</time></trkpt><trkpt lat="44.59421637308632" lon="9.291953592098102"><ele>554.5</ele><time>2026-03-29T13:55:40Z</time></trkpt><trkpt lat="44.59413133617253" lon="9.291790207890898"><ele>554.25</ele><time>2026-03-29T13:55:41Z</time></trkpt><trkpt lat="44.594057128724856" lon="9.291597423796487"><ele>554.0</ele><time>2026-03-29T13:55:42Z</time></trkpt><trkpt lat="44.59400784799131" lon="9.291368282904516"><ele>572.0</ele><time>2026-03-29T13:55:43Z</time></trkpt><trkpt lat="44.5833632140016" lon="9.271798325380297"><ele>572.0</ele><time>2026-03-29T13:57:37Z</time></trkpt><trkpt lat="44.583238204898244" lon="9.271689828037196"><ele>572.0</ele><time>2026-03-29T13:57:38Z</time></trkpt><trkpt lat="44.58310167940795" lon="9.271583836226306"><ele>572.0</ele><time>2026-03-29T13:57:39Z</time></trkpt></trkseg><trkseg><trkpt lat="44.53097179490677" lon="9.171408501849509"><ele>1001.25</ele><time>2026-03-29T14:49:07Z</time></trkpt><trkpt lat="44.53100710935775" lon="9.171550837495081"><ele>1007.5</ele><time>2026-03-29T14:49:09Z</time></trkpt><trkpt lat="44.5310871819241" lon="9.171703513522795"><ele>1013.75</ele><time>2026-03-29T14:49:11Z</time></trkpt><trkpt lat="44.53113578986217" lon="9.17185037483471"><ele>1020.0</ele><time>2026-03-29T14:49:13Z</time></trkpt><trkpt lat="44.53119731564847" lon="9.17198855570045"><ele>1020.25</ele><time>2026-03-29T14:49:15Z</time></trkpt><trkpt lat="44.531261591375305" lon="9.172132912665415"><ele>1020.5</ele><time>2026-03-29T14:49:17.067Z</time></trkpt><trkpt lat="44.5313232454328" lon="9.172271381615927"><ele>1020.75</ele><time>2026-03-29T14:49:19.065Z</time></trkpt><trkpt lat="44.53142143991866" lon="9.172511947753602"><ele>1021.0</ele><time>2026-03-29T14:49:21Z</time></trkpt><trkpt lat="44.531460158393905" lon="9.172698740623165"><ele>1021.0</ele><time>2026-03-29T14:49:22Z</time></trkpt><trkpt lat="44.53144275935864" lon="9.172873788251003"><ele>1021.0</ele><time>2026-03-29T14:49:23Z</time></trkpt><trkpt lat="44.53137755866158" lon="9.173017220939265"><ele>1021.0</ele><time>2026-03-29T14:49:24Z</time></trkpt><trkpt lat="44.531315200906334" lon="9.173190662441357"><ele>1021.0</ele><time>2026-03-29T14:49:25Z</time></trkpt><trkpt lat="44.53126517851043" lon="9.173344304085623"><ele>1021.1666666666666</ele><time>2026-03-29T14:49:26Z</time></trkpt><trkpt lat="44.5312164501373" lon="9.17348035369737"><ele>1021.3333333333333</ele><time>2026-03-29T14:49:27Z</time></trkpt><trkpt lat="44.53116140814828" lon="9.173575564787583"><ele>1021.5</ele><time>2026-03-29T14:49:28Z</time></trkpt><trkpt lat="44.5310975611876" lon="9.173671705423235"><ele>1021.6666666666667</ele><time>2026-03-29T14:49:29Z</time></trkpt><trkpt lat="44.53106103873237" lon="9.173768795502372"><ele>1021.8333333333334</ele><time>2026-03-29T14:49:30Z</time></trkpt><trkpt lat="44.53106578222297" lon="9.17388265642242"><ele>1022.0</ele><time>2026-03-29T14:49:31Z</time></trkpt><trkpt lat="44.53110653469793" lon="9.174007206208072"><ele>1021.2</ele><time>2026-03-29T14:49:32Z</time></trkpt><trkpt lat="44.53116135151742" lon="9.174131191522557"><ele>1020.4000000000001</ele><time>2026-03-29T14:49:33Z</time></trkpt><trkpt lat="44.53120313370352" lon="9.174268934764681"><ele>1019.5999999999999</ele><time>2026-03-29T14:49:33.999Z</time></trkpt><trkpt lat="44.53120794329211" lon="9.174425572513274"><ele>1018.8</ele><time>2026-03-29T14:49:34.999Z</time></trkpt><trkpt lat="44.53123750815405" lon="9.174569339994061"><ele>1018.0</ele><time>2026-03-29T14:49:35.999Z</time></trkpt><trkpt lat="44.53125313663657" lon="9.174702746545384"><ele>1016.9999999999999</ele><time>2026-03-29T14:49:36.999Z</time></trkpt><trkpt lat="44.53126257841672" lon="9.174831047373887"><ele>1016.0</ele><time>2026-03-29T14:49:37.999Z</time></trkpt><trkpt lat="44.53127990338457" lon="9.174946507013347"><ele>1015.0</ele><time>2026-03-29T14:49:38.999Z</time></trkpt><trkpt lat="44.531284211685936" lon="9.175060414564323"><ele>1014.0</ele><time>2026-03-29T14:49:39.999Z</time></trkpt><trkpt lat="44.53127144730366" lon="9.175173770447573"><ele>1012.9999999999999</ele><time>2026-03-29T14:49:40.999Z</time></trkpt><trkpt lat="44.531243180410186" lon="9.175271383893358"><ele>1012.0</ele><time>2026-03-29T14:49:41.999Z</time></trkpt><trkpt lat="44.53119206823412" lon="9.175359607613112"><ele>1011.9999999999999</ele><time>2026-03-29T14:49:42.999Z</time></trkpt><trkpt lat="44.53112515005327" lon="9.175439793428836"><ele>1012.0</ele><time>2026-03-29T14:49:43.999Z</time></trkpt><trkpt lat="44.53106363044391" lon="9.175523548000513"><ele>1012.0</ele><time>2026-03-29T14:49:44.999Z</time></trkpt><trkpt lat="44.5310273359664" lon="9.175632122061414"><ele>1012.0</ele><time>2026-03-29T14:49:45.999Z</time></trkpt><trkpt lat="44.531017805434296" lon="9.175743488506939"><ele>1011.9999999999999</ele><time>2026-03-29T14:49:46.999Z</time></trkpt><trkpt lat="44.53101817001391" lon="9.175846478504452"><ele>1012.0</ele><time>2026-03-29T14:49:47.999Z</time></trkpt><trkpt lat="44.531027180069074" lon="9.175941897146496"><ele>1008.2</ele><time>2026-03-29T14:49:48.999Z</time></trkpt><trkpt lat="44.53103016573713" lon="9.176030431959939"><ele>1004.4000000000001</ele><time>2026-03-29T14:49:49.999Z</time></trkpt><trkpt lat="44.530969305584044" lon="9.176157190923789"><ele>1000.5999999999999</ele><time>2026-03-29T14:49:51.999Z</time></trkpt><trkpt lat="44.530850113428976" lon="9.176140890453967"><ele>996.8</ele><time>2026-03-29T14:49:53.999Z</time></trkpt><trkpt lat="44.53075828008837" lon="9.17604556852037"><ele>993.0</ele><time>2026-03-29T14:49:55.999Z</time></trkpt><trkpt lat="44.53066740139801" lon="9.176044090104424"><ele>993.0</ele><time>2026-03-29T14:49:57.999Z</time></trkpt><trkpt lat="44.530584676518345" lon="9.176135980270685"><ele>993.0</ele><time>2026-03-29T14:49:59.999Z</time></trkpt><trkpt lat="44.53056857462558" lon="9.176303041841136"><ele>993.0</ele><time>2026-03-29T14:50:01.999Z</time></trkpt><trkpt lat="44.530590992353616" lon="9.176387420973034"><ele>993.0</ele><time>2026-03-29T14:50:02.999Z</time></trkpt><trkpt lat="44.530687327232386" lon="9.176489747316712"><ele>993.0</ele><time>2026-03-29T14:50:04.999Z</time></trkpt><trkpt lat="44.530776391248" lon="9.176483325851066"><ele>993.0</ele><time>2026-03-29T14:50:05.999Z</time></trkpt><trkpt lat="44.53084978064215" lon="9.176494368177234"><ele>993.0</ele><time>2026-03-29T14:50:06.999Z</time></trkpt><trkpt lat="44.53092492676997" lon="9.176483469211748"><ele>993.0</ele><time>2026-03-29T14:50:07.999Z</time></trkpt><trkpt lat="44.53098839901001" lon="9.176460562715665"><ele>993.0</ele><time>2026-03-29T14:50:08.999Z</time></trkpt><trkpt lat="44.53104710533057" lon="9.17642835644299"><ele>993.0</ele><time>2026-03-29T14:50:09.999Z</time></trkpt><trkpt lat="44.531141668350855" lon="9.17631825460955"><ele>993.0</ele><time>2026-03-29T14:50:11.999Z</time></trkpt><trkpt lat="44.531188680443" lon="9.176161045394675"><ele>993.0</ele><time>2026-03-29T14:50:13.999Z</time></trkpt><trkpt lat="44.53119871092861" lon="9.175994007601236"><ele>993.0</ele><time>2026-03-29T14:50:15.999Z</time></trkpt><trkpt lat="44.53119332340416" lon="9.175818564569298"><ele>993.0</ele><time>2026-03-29T14:50:17.999Z</time></trkpt><trkpt lat="44.53122402109624" lon="9.175736475877915"><ele>993.0</ele><time>2026-03-29T14:50:18.999Z</time></trkpt><trkpt lat="44.531273559163274" lon="9.17567736084599"><ele>993.0</ele><time>2026-03-29T14:50:19.999Z</time></trkpt><trkpt lat="44.531327445629294" lon="9.175630227911356"><ele>993.0</ele><time>2026-03-29T14:50:20.999Z</time></trkpt><trkpt lat="44.53138380726516" lon="9.175580071368303"><ele>990.3333333333334</ele><time>2026-03-29T14:50:21.999Z</time></trkpt><trkpt lat="44.531483897793315" lon="9.175489519397862"><ele>987.6666666666667</ele><time>2026-03-29T14:50:23.999Z</time></trkpt><trkpt lat="44.53159761478759" lon="9.175408896095652"><ele>985.0</ele><time>2026-03-29T14:50:25.999Z</time></trkpt><trkpt lat="44.5316509258314" lon="9.17535513525942"><ele>982.3333333333334</ele><time>2026-03-29T14:50:26.999Z</time></trkpt><trkpt lat="44.53168612233878" lon="9.17527757698671"><ele>979.6666666666667</ele><time>2026-03-29T14:50:27.999Z</time></trkpt><trkpt lat="44.53169512244074" lon="9.1751825545389"><ele>977.0</ele><time>2026-03-29T14:50:29Z</time></trkpt><trkpt lat="44.53166820736127" lon="9.17507455786776"><ele>977.0000000000001</ele><time>2026-03-29T14:50:30Z</time></trkpt><trkpt lat="44.53162362250735" lon="9.174973365611482"><ele>977.0</ele><time>2026-03-29T14:50:31Z</time></trkpt><trkpt lat="44.53158918974752" lon="9.174876579422367"><ele>977.0</ele><time>2026-03-29T14:50:32Z</time></trkpt><trkpt lat="44.5315721295705" lon="9.174786769839809"><ele>977.0</ele><time>2026-03-29T14:50:33Z</time></trkpt><trkpt lat="44.53156731768338" lon="9.174686510226378"><ele>977.0000000000001</ele><time>2026-03-29T14:50:34Z</time></trkpt><trkpt lat="44.53158654723813" lon="9.174584074706706"><ele>977.0</ele><time>2026-03-29T14:50:35Z</time></trkpt><trkpt lat="44.53163153719732" lon="9.174491201647335"><ele>976.0000000000001</ele><time>2026-03-29T14:50:36Z</time></trkpt><trkpt lat="44.531693822351464" lon="9.174409834144946"><ele>975.0</ele><time>2026-03-29T14:50:37Z</time></trkpt><trkpt lat="44.53176199817993" lon="9.174343214412335"><ele>974.0</ele><time>2026-03-29T14:50:38Z</time></trkpt><trkpt lat="44.53183047445387" lon="9.174275533350258"><ele>973.0</ele><time>2026-03-29T14:50:39Z</time></trkpt><trkpt lat="44.531911352284745" lon="9.174239526251785"><ele>972.0000000000001</ele><time>2026-03-29T14:50:40Z</time></trkpt><trkpt lat="44.53199704846248" lon="9.174236294398904"><ele>971.0</ele><time>2026-03-29T14:50:41Z</time></trkpt><trkpt lat="44.53207948908357" lon="9.174257118709436"><ele>971.0000000000001</ele><time>2026-03-29T14:50:42Z</time></trkpt><trkpt lat="44.53215425239467" lon="9.174291366624294"><ele>971.0</ele><time>2026-03-29T14:50:43Z</time></trkpt><trkpt lat="44.53223271311249" lon="9.174326633750162"><ele>971.0</ele><time>2026-03-29T14:50:44Z</time></trkpt><trkpt lat="44.532304583382576" lon="9.174342658961953"><ele>971.0</ele><time>2026-03-29T14:50:45Z</time></trkpt><trkpt lat="44.53238198771468" lon="9.174340720368237"><ele>971.0000000000001</ele><time>2026-03-29T14:50:46Z</time></trkpt><trkpt lat="44.53245809650548" lon="9.174323656461493"><ele>971.0</ele><time>2026-03-29T14:50:47Z</time></trkpt><trkpt lat="44.532533234440976" lon="9.174296021439964"><ele>971.0000000000001</ele><time>2026-03-29T14:50:48Z</time></trkpt><trkpt lat="44.532600314276685" lon="9.174270297595502"><ele>971.0</ele><time>2026-03-29T14:50:49Z</time></trkpt><trkpt lat="44.532670558191775" lon="9.174233455629274"><ele>971.0</ele><time>2026-03-29T14:50:50Z</time></trkpt><trkpt lat="44.53274510277947" lon="9.174203744510509"><ele>971.0</ele><time>2026-03-29T14:50:51Z</time></trkpt><trkpt lat="44.5328264606578" lon="9.174190750235015"><ele>971.0000000000001</ele><time>2026-03-29T14:50:52Z</time></trkpt><trkpt lat="44.53290340230691" lon="9.174207957209173"><ele>971.0</ele><time>2026-03-29T14:50:53Z</time></trkpt><trkpt lat="44.532975946023655" lon="9.174238806155932"><ele>970.8333333333334</ele><time>2026-03-29T14:50:54Z</time></trkpt><trkpt lat="44.53304953989994" lon="9.174274717094429"><ele>970.6666666666667</ele><time>2026-03-29T14:50:55Z</time></trkpt><trkpt lat="44.53312092338051" lon="9.174312915679208"><ele>970.5</ele><time>2026-03-29T14:50:56Z</time></trkpt><trkpt lat="44.53318961505268" lon="9.174333286832184"><ele>970.3333333333333</ele><time>2026-03-29T14:50:57Z</time></trkpt><trkpt lat="44.533263360434375" lon="9.174333453562136"><ele>970.1666666666666</ele><time>2026-03-29T14:50:58Z</time></trkpt><trkpt lat="44.533334510131304" lon="9.174308193464944"><ele>970.0</ele><time>2026-03-29T14:50:59Z</time></trkpt><trkpt lat="44.53340706772708" lon="9.174258189580522"><ele>970.0</ele><time>2026-03-29T14:51:00Z</time></trkpt><trkpt lat="44.53352102534479" lon="9.174199415395195"><ele>970.0</ele><time>2026-03-29T14:51:02Z</time></trkpt><trkpt lat="44.53364448034224" lon="9.174253075162044"><ele>970.0</ele><time>2026-03-29T14:51:04Z</time></trkpt><trkpt lat="44.53369851093283" lon="9.174323131816198"><ele>970.0</ele><time>2026-03-29T14:51:05Z</time></trkpt><trkpt lat="44.53374175896724" lon="9.174417197723733"><ele>970.0</ele><time>2026-03-29T14:51:06Z</time></trkpt><trkpt lat="44.53378021864495" lon="9.174505845505255"><ele>970.1428571428573</ele><time>2026-03-29T14:51:07Z</time></trkpt><trkpt lat="44.53381746476171" lon="9.174597485269068"><ele>970.2857142857143</ele><time>2026-03-29T14:51:08Z</time></trkpt><trkpt lat="44.533854380355336" lon="9.174680173719599"><ele>970.4285714285716</ele><time>2026-03-29T14:51:09Z</time></trkpt><trkpt lat="44.53389047516823" lon="9.174761833446842"><ele>970.5714285714287</ele><time>2026-03-29T14:51:10Z</time></trkpt><trkpt lat="44.53392705100127" lon="9.174840877088297"><ele>970.7142857142858</ele><time>2026-03-29T14:51:11Z</time></trkpt><trkpt lat="44.533965755028866" lon="9.174918887251039"><ele>970.8571428571429</ele><time>2026-03-29T14:51:12Z</time></trkpt><trkpt lat="44.534001963635184" lon="9.174995064079946"><ele>971.0</ele><time>2026-03-29T14:51:13Z</time></trkpt><trkpt lat="44.53407689406195" lon="9.17512950579124"><ele>967.25</ele><time>2026-03-29T14:51:15Z</time></trkpt><trkpt lat="44.534152942004226" lon="9.175253376359521"><ele>963.5</ele><time>2026-03-29T14:51:17Z</time></trkpt><trkpt lat="44.534252954890356" lon="9.175339187176007"><ele>959.75</ele><time>2026-03-29T14:51:19Z</time></trkpt><trkpt lat="44.53436934496984" lon="9.175396130602874"><ele>956.0</ele><time>2026-03-29T14:51:21Z</time></trkpt><trkpt lat="44.534458880310176" lon="9.175284048995152"><ele>956.0000000000001</ele><time>2026-03-29T14:51:22Z</time></trkpt><trkpt lat="44.534537475620404" lon="9.175238720809237"><ele>956.0</ele><time>2026-03-29T14:51:23Z</time></trkpt><trkpt lat="44.53461588921467" lon="9.175201580546911"><ele>956.0</ele><time>2026-03-29T14:51:24Z</time></trkpt><trkpt lat="44.534694324131856" lon="9.17516821431967"><ele>956.0</ele><time>2026-03-29T14:51:24.999Z</time></trkpt><trkpt lat="44.534772015777975" lon="9.17514049520313"><ele>956.0000000000001</ele><time>2026-03-29T14:51:25.999Z</time></trkpt><trkpt lat="44.53484444231091" lon="9.175129095220473"><ele>956.0</ele><time>2026-03-29T14:51:26.999Z</time></trkpt><trkpt lat="44.53491270180056" lon="9.175139804963589"><ele>955.8333333333334</ele><time>2026-03-29T14:51:27.999Z</time></trkpt><trkpt lat="44.534972306704944" lon="9.175170402341829"><ele>955.6666666666667</ele><time>2026-03-29T14:51:28.999Z</time></trkpt><trkpt lat="44.535013335477686" lon="9.175256033067518"><ele>955.5</ele><time>2026-03-29T14:51:29.999Z</time></trkpt><trkpt lat="44.53508691725175" lon="9.175327868087287"><ele>955.3333333333333</ele><time>2026-03-29T14:51:30.999Z</time></trkpt><trkpt lat="44.5351518295974" lon="9.175416765611494"><ele>955.1666666666666</ele><time>2026-03-29T14:51:31.999Z</time></trkpt><trkpt lat="44.53521228730222" lon="9.175491038929907"><ele>955.0</ele><time>2026-03-29T14:51:32.999Z</time></trkpt><trkpt lat="44.535274452845265" lon="9.175563458208222"><ele>954.9999999999999</ele><time>2026-03-29T14:51:33.999Z</time></trkpt><trkpt lat="44.53533670660885" lon="9.1756334712494"><ele>955.0</ele><time>2026-03-29T14:51:34.999Z</time></trkpt><trkpt lat="44.53539918099476" lon="9.175701044278537"><ele>955.0</ele><time>2026-03-29T14:51:35.999Z</time></trkpt><trkpt lat="44.53545878928922" lon="9.175759209741974"><ele>955.0</ele><time>2026-03-29T14:51:36.999Z</time></trkpt><trkpt lat="44.53551478236773" lon="9.175833049495028"><ele>954.9999999999999</ele><time>2026-03-29T14:51:37.999Z</time></trkpt><trkpt lat="44.5355655246507" lon="9.1759131053366"><ele>955.0</ele><time>2026-03-29T14:51:38.999Z</time></trkpt><trkpt lat="44.53562038000885" lon="9.175983374486057"><ele>953.142857142857</ele><time>2026-03-29T14:51:39.999Z</time></trkpt><trkpt lat="44.535672910275316" lon="9.176052797295096"><ele>951.2857142857142</ele><time>2026-03-29T14:51:40.999Z</time></trkpt><trkpt lat="44.53572886709508" lon="9.176100934504342"><ele>949.4285714285714</ele><time>2026-03-29T14:51:41.999Z</time></trkpt><trkpt lat="44.53579393554514" lon="9.176122791479049"><ele>947.5714285714286</ele><time>2026-03-29T14:51:42.999Z</time></trkpt><trkpt lat="44.535864330871675" lon="9.176112200447916"><ele>945.7142857142858</ele><time>2026-03-29T14:51:43.999Z</time></trkpt><trkpt lat="44.53593195587485" lon="9.176067506636231"><ele>943.857142857143</ele><time>2026-03-29T14:51:44.999Z</time></trkpt><trkpt lat="44.535997674465435" lon="9.176003440317867"><ele>942.0000000000001</ele><time>2026-03-29T14:51:45.999Z</time></trkpt><trkpt lat="44.53605502808454" lon="9.175951368976012"><ele>942.0</ele><time>2026-03-29T14:51:46.999Z</time></trkpt><trkpt lat="44.53612286593815" lon="9.175927413525669"><ele>942.0</ele><time>2026-03-29T14:51:47.999Z</time></trkpt><trkpt lat="44.53620097787806" lon="9.175936420047872"><ele>942.0</ele><time>2026-03-29T14:51:48.999Z</time></trkpt><trkpt lat="44.5362959580067" lon="9.175988242173036"><ele>942.0</ele><time>2026-03-29T14:51:49.999Z</time></trkpt><trkpt lat="44.5364041001769" lon="9.176069124395614"><ele>942.0</ele><time>2026-03-29T14:51:50.999Z</time></trkpt><trkpt lat="44.53653011182008" lon="9.176148019157614"><ele>942.5</ele><time>2026-03-29T14:51:51.999Z</time></trkpt><trkpt lat="44.53665421840187" lon="9.176226800441636"><ele>943.0</ele><time>2026-03-29T14:51:52.999Z</time></trkpt><trkpt lat="44.536784322317665" lon="9.176294810791461"><ele>943.5</ele><time>2026-03-29T14:51:53.999Z</time></trkpt><trkpt lat="44.53692233647906" lon="9.176360140282489"><ele>944.0</ele><time>2026-03-29T14:51:54.999Z</time></trkpt><trkpt lat="44.53705927765126" lon="9.176398011115577"><ele>942.25</ele><time>2026-03-29T14:51:55.999Z</time></trkpt><trkpt lat="44.53718680523543" lon="9.1764241605049"><ele>940.5</ele><time>2026-03-29T14:51:56.999Z</time></trkpt><trkpt lat="44.53729703419646" lon="9.17648503124974"><ele>938.75</ele><time>2026-03-29T14:51:57.999Z</time></trkpt><trkpt lat="44.537395753874115" lon="9.176584209118765"><ele>937.0</ele><time>2026-03-29T14:51:58.999Z</time></trkpt><trkpt lat="44.53747349389651" lon="9.17671376428267"><ele>937.0</ele><time>2026-03-29T14:51:59.999Z</time></trkpt><trkpt lat="44.53754242109023" lon="9.176865966710407"><ele>937.0</ele><time>2026-03-29T14:52:00.999Z</time></trkpt><trkpt lat="44.537618774254724" lon="9.17700522923985"><ele>937.0</ele><time>2026-03-29T14:52:01.999Z</time></trkpt><trkpt lat="44.53769287629974" lon="9.177120508410168"><ele>937.0</ele><time>2026-03-29T14:52:02.999Z</time></trkpt><trkpt lat="44.53777103696751" lon="9.177208732419494"><ele>937.0</ele><time>2026-03-29T14:52:03.999Z</time></trkpt><trkpt lat="44.53786329013407" lon="9.177261670293124"><ele>937.0</ele><time>2026-03-29T14:52:04.999Z</time></trkpt><trkpt lat="44.53796616355295" lon="9.177288084851979"><ele>937.0</ele><time>2026-03-29T14:52:05.999Z</time></trkpt><trkpt lat="44.538081322363574" lon="9.177274622413346"><ele>937.0</ele><time>2026-03-29T14:52:06.999Z</time></trkpt><trkpt lat="44.53820047057997" lon="9.177241218394077"><ele>937.0</ele><time>2026-03-29T14:52:07.999Z</time></trkpt><trkpt lat="44.53833054559603" lon="9.177236772643317"><ele>939.25</ele><time>2026-03-29T14:52:08.999Z</time></trkpt><trkpt lat="44.53845490195049" lon="9.177246370989126"><ele>941.5</ele><time>2026-03-29T14:52:09.999Z</time></trkpt><trkpt lat="44.53857483092689" lon="9.17725221916906"><ele>943.75</ele><time>2026-03-29T14:52:10.999Z</time></trkpt><trkpt lat="44.53869339346205" lon="9.177263126221192"><ele>946.0</ele><time>2026-03-29T14:52:11.999Z</time></trkpt><trkpt lat="44.5388108713112" lon="9.177334260689587"><ele>939.75</ele><time>2026-03-29T14:52:12.999Z</time></trkpt><trkpt lat="44.53892385664359" lon="9.177432721443028"><ele>933.5</ele><time>2026-03-29T14:52:13.999Z</time></trkpt><trkpt lat="44.53906007441805" lon="9.17746713246097"><ele>927.25</ele><time>2026-03-29T14:52:14.999Z</time></trkpt><trkpt lat="44.53919271561353" lon="9.17750261740827"><ele>921.0</ele><time>2026-03-29T14:52:15.999Z</time></trkpt><trkpt lat="44.539325180323516" lon="9.17752382899966"><ele>921.0</ele><time>2026-03-29T14:52:16.999Z</time></trkpt><trkpt lat="44.53943656347967" lon="9.177542673201813"><ele>921.0</ele><time>2026-03-29T14:52:17.999Z</time></trkpt><trkpt lat="44.53952482059743" lon="9.177572165239996"><ele>921.0</ele><time>2026-03-29T14:52:18.999Z</time></trkpt><trkpt lat="44.53958708880225" lon="9.177623844881708"><ele>921.0</ele><time>2026-03-29T14:52:19.999Z</time></trkpt><trkpt lat="44.53962282488072" lon="9.177705485359908"><ele>921.0</ele><time>2026-03-29T14:52:20.999Z</time></trkpt><trkpt lat="44.539611553125724" lon="9.177824785953408"><ele>921.0</ele><time>2026-03-29T14:52:21.999Z</time></trkpt><trkpt lat="44.53955674183826" lon="9.177911718997949"><ele>921.0</ele><time>2026-03-29T14:52:22.999Z</time></trkpt><trkpt lat="44.539475101609476" lon="9.17793088446453"><ele>920.9999999999999</ele><time>2026-03-29T14:52:23.999Z</time></trkpt><trkpt lat="44.53938797889251" lon="9.17787008454533"><ele>920.9999999999999</ele><time>2026-03-29T14:52:24.999Z</time></trkpt><trkpt lat="44.539302291826786" lon="9.177798881848366"><ele>921.0</ele><time>2026-03-29T14:52:25.999Z</time></trkpt><trkpt lat="44.539204196860766" lon="9.177719827384065"><ele>921.0</ele><time>2026-03-29T14:52:26.999Z</time></trkpt><trkpt lat="44.539091268916735" lon="9.177642606775883"><ele>921.0</ele><time>2026-03-29T14:52:27.999Z</time></trkpt><trkpt lat="44.5389709805158" lon="9.177569163064682"><ele>921.0</ele><time>2026-03-29T14:52:28.999Z</time></trkpt><trkpt lat="44.53885258214924" lon="9.177502286017909"><ele>921.0</ele><time>2026-03-29T14:52:29.999Z</time></trkpt><trkpt lat="44.53874233208634" lon="9.177454825067036"><ele>921.0</ele><time>2026-03-29T14:52:30.999Z</time></trkpt><trkpt lat="44.538635361902976" lon="9.177424085247077"><ele>921.1999999999999</ele><time>2026-03-29T14:52:31.999Z</time></trkpt><trkpt lat="44.53851785859107" lon="9.177487108036452"><ele>921.3999999999999</ele><time>2026-03-29T14:52:32.999Z</time></trkpt><trkpt lat="44.53841557595461" lon="9.177531079299635"><ele>921.6</ele><time>2026-03-29T14:52:33.998Z</time></trkpt><trkpt lat="44.53833400036566" lon="9.17759704306695"><ele>921.8</ele><time>2026-03-29T14:52:34.999Z</time></trkpt><trkpt lat="44.53827420283428" lon="9.177694206449283"><ele>922.0</ele><time>2026-03-29T14:52:35.999Z</time></trkpt><trkpt lat="44.538242850721886" lon="9.177816306134837"><ele>922.0</ele><time>2026-03-29T14:52:36.999Z</time></trkpt><trkpt lat="44.538247825349956" lon="9.177950584321875"><ele>922.0</ele><time>2026-03-29T14:52:37.999Z</time></trkpt><trkpt lat="44.53828004800483" lon="9.178081403148168"><ele>922.0</ele><time>2026-03-29T14:52:38.999Z</time></trkpt><trkpt lat="44.53833002531899" lon="9.178204030287517"><ele>922.0</ele><time>2026-03-29T14:52:39.999Z</time></trkpt><trkpt lat="44.53836027170812" lon="9.178322648972395"><ele>922.0</ele><time>2026-03-29T14:52:40.999Z</time></trkpt><trkpt lat="44.5383409410675" lon="9.178437823654814"><ele>919.25</ele><time>2026-03-29T14:52:42Z</time></trkpt><trkpt lat="44.53829676788305" lon="9.178553892093214"><ele>916.5</ele><time>2026-03-29T14:52:43Z</time></trkpt><trkpt lat="44.53822087312626" lon="9.178669993158238"><ele>913.75</ele><time>2026-03-29T14:52:44Z</time></trkpt><trkpt lat="44.538128552194614" lon="9.178787760570126"><ele>911.0</ele><time>2026-03-29T14:52:45Z</time></trkpt><trkpt lat="44.5380289137699" lon="9.178905762026671"><ele>908.75</ele><time>2026-03-29T14:52:46Z</time></trkpt><trkpt lat="44.53795252486021" lon="9.179033008222323"><ele>906.5</ele><time>2026-03-29T14:52:47Z</time></trkpt><trkpt lat="44.537878243630836" lon="9.179193764827463"><ele>904.25</ele><time>2026-03-29T14:52:48Z</time></trkpt><trkpt lat="44.53781495946503" lon="9.179373729185484"><ele>902.0</ele><time>2026-03-29T14:52:49Z</time></trkpt><trkpt lat="44.5377660451264" lon="9.17956592910589"><ele>902.0</ele><time>2026-03-29T14:52:50Z</time></trkpt><trkpt lat="44.537729047728384" lon="9.179761639336292"><ele>902.0</ele><time>2026-03-29T14:52:51Z</time></trkpt><trkpt lat="44.5377037010772" lon="9.179947099609707"><ele>902.0</ele><time>2026-03-29T14:52:52Z</time></trkpt><trkpt lat="44.53768166916706" lon="9.180113112974329"><ele>902.0</ele><time>2026-03-29T14:52:53Z</time></trkpt><trkpt lat="44.537670226926124" lon="9.180249706094154"><ele>901.6666666666667</ele><time>2026-03-29T14:52:54Z</time></trkpt><trkpt lat="44.53768810494961" lon="9.18036046100564"><ele>901.3333333333334</ele><time>2026-03-29T14:52:55Z</time></trkpt><trkpt lat="44.537735051649456" lon="9.180457347077446"><ele>901.0</ele><time>2026-03-29T14:52:56Z</time></trkpt><trkpt lat="44.5378146117992" lon="9.180515167882254"><ele>900.6666666666667</ele><time>2026-03-29T14:52:57Z</time></trkpt><trkpt lat="44.53790025338333" lon="9.180523394870674"><ele>900.3333333333334</ele><time>2026-03-29T14:52:58Z</time></trkpt><trkpt lat="44.53797630008832" lon="9.180488641181006"><ele>900.0</ele><time>2026-03-29T14:52:59Z</time></trkpt><trkpt lat="44.538040845839284" lon="9.180421513215416"><ele>899.6</ele><time>2026-03-29T14:53:00Z</time></trkpt><trkpt lat="44.538080741370266" lon="9.180309470359797"><ele>899.2</ele><time>2026-03-29T14:53:01Z</time></trkpt><trkpt lat="44.538093274576546" lon="9.180171669321332"><ele>898.8</ele><time>2026-03-29T14:53:02Z</time></trkpt><trkpt lat="44.53808744765491" lon="9.180015550049497"><ele>898.4</ele><time>2026-03-29T14:53:03Z</time></trkpt><trkpt lat="44.53809504701252" lon="9.179875501807318"><ele>898.0</ele><time>2026-03-29T14:53:04Z</time></trkpt><trkpt lat="44.538122810676754" lon="9.179751194145052"><ele>898.0</ele><time>2026-03-29T14:53:05Z</time></trkpt><trkpt lat="44.53818566210371" lon="9.179646282159787"><ele>898.0</ele><time>2026-03-29T14:53:06Z</time></trkpt><trkpt lat="44.53827789483055" lon="9.179583819195653"><ele>898.0</ele><time>2026-03-29T14:53:07Z</time></trkpt><trkpt lat="44.53837495820088" lon="9.179557636171314"><ele>898.0</ele><time>2026-03-29T14:53:08Z</time></trkpt><trkpt lat="44.538449901183476" lon="9.179499419524475"><ele>898.0</ele><time>2026-03-29T14:53:09Z</time></trkpt><trkpt lat="44.53849184603187" lon="9.179386991984307"><ele>898.0</ele><time>2026-03-29T14:53:10Z</time></trkpt><trkpt lat="44.53850835971066" lon="9.179253240218534"><ele>898.0</ele><time>2026-03-29T14:53:11Z</time></trkpt><trkpt lat="44.538513121374635" lon="9.17912290211009"><ele>898.0</ele><time>2026-03-29T14:53:12Z</time></trkpt><trkpt lat="44.538537729960936" lon="9.178991754460245"><ele>898.0</ele><time>2026-03-29T14:53:13Z</time></trkpt><trkpt lat="44.538579926158434" lon="9.17888201900857"><ele>898.0</ele><time>2026-03-29T14:53:14Z</time></trkpt><trkpt lat="44.53863172525688" lon="9.178805599121223"><ele>897.2</ele><time>2026-03-29T14:53:15Z</time></trkpt><trkpt lat="44.53868649487174" lon="9.178757395794758"><ele>896.4</ele><time>2026-03-29T14:53:16Z</time></trkpt><trkpt lat="44.538808960438104" lon="9.178830951760483"><ele>895.6000000000001</ele><time>2026-03-29T14:53:18Z</time></trkpt><trkpt lat="44.53884293581399" lon="9.178951959740413"><ele>894.8000000000001</ele><time>2026-03-29T14:53:19Z</time></trkpt><trkpt lat="44.538865691923434" lon="9.179100792138433"><ele>894.0</ele><time>2026-03-29T14:53:20Z</time></trkpt><trkpt lat="44.538889758541764" lon="9.17923827070699"><ele>894.0</ele><time>2026-03-29T14:53:21Z</time></trkpt><trkpt lat="44.53893145118949" lon="9.179358008275907"><ele>894.0000000000001</ele><time>2026-03-29T14:53:21.999Z</time></trkpt><trkpt lat="44.53900443156778" lon="9.179470003857709"><ele>894.0000000000001</ele><time>2026-03-29T14:53:22.999Z</time></trkpt><trkpt lat="44.53909803824798" lon="9.179566305959403"><ele>894.0</ele><time>2026-03-29T14:53:23.999Z</time></trkpt><trkpt lat="44.53918830349464" lon="9.179668416541604"><ele>894.0</ele><time>2026-03-29T14:53:24.999Z</time></trkpt><trkpt lat="44.53928463611772" lon="9.179773641140962"><ele>890.25</ele><time>2026-03-29T14:53:25.999Z</time></trkpt><trkpt lat="44.53939252188077" lon="9.179866719449146"><ele>886.5</ele><time>2026-03-29T14:53:26.999Z</time></trkpt><trkpt lat="44.53950547954773" lon="9.179952298988301"><ele>882.75</ele><time>2026-03-29T14:53:27.999Z</time></trkpt><trkpt lat="44.53961535030201" lon="9.180018909163087"><ele>879.0</ele><time>2026-03-29T14:53:28.999Z</time></trkpt><trkpt lat="44.53971931930994" lon="9.180076621405348"><ele>878.6</ele><time>2026-03-29T14:53:29.999Z</time></trkpt><trkpt lat="44.53982003658578" lon="9.180113717456285"><ele>878.2</ele><time>2026-03-29T14:53:30.999Z</time></trkpt><trkpt lat="44.53992059595842" lon="9.180119172209599"><ele>877.8000000000001</ele><time>2026-03-29T14:53:31.999Z</time></trkpt><trkpt lat="44.540017470780484" lon="9.180088909973769"><ele>877.4000000000001</ele><time>2026-03-29T14:53:32.999Z</time></trkpt><trkpt lat="44.5401180911634" lon="9.180024068196742"><ele>877.0</ele><time>2026-03-29T14:53:33.999Z</time></trkpt><trkpt lat="44.540217712025594" lon="9.179933347192858"><ele>878.0</ele><time>2026-03-29T14:53:34.999Z</time></trkpt><trkpt lat="44.54031740521825" lon="9.179838666983093"><ele>879.0</ele><time>2026-03-29T14:53:35.999Z</time></trkpt><trkpt lat="44.54040713435954" lon="9.179749040234324"><ele>880.0</ele><time>2026-03-29T14:53:36.999Z</time></trkpt><trkpt lat="44.54049586799634" lon="9.179667416090714"><ele>881.0</ele><time>2026-03-29T14:53:37.999Z</time></trkpt><trkpt lat="44.54057135291279" lon="9.17957620419351"><ele>882.0</ele><time>2026-03-29T14:53:38.999Z</time></trkpt><trkpt lat="44.540644780447245" lon="9.179487557566812"><ele>882.0</ele><time>2026-03-29T14:53:39.999Z</time></trkpt><trkpt lat="44.54069923527284" lon="9.17939272531079"><ele>882.0</ele><time>2026-03-29T14:53:40.999Z</time></trkpt><trkpt lat="44.54079602926308" lon="9.17932863247034"><ele>882.0</ele><time>2026-03-29T14:53:41.999Z</time></trkpt><trkpt lat="44.54090315658909" lon="9.179331108717335"><ele>882.0</ele><time>2026-03-29T14:53:42.999Z</time></trkpt><trkpt lat="44.541003911693046" lon="9.17930857902013"><ele>882.0</ele><time>2026-03-29T14:53:43.999Z</time></trkpt><trkpt lat="44.541103528615295" lon="9.179285684895943"><ele>882.0</ele><time>2026-03-29T14:53:44.999Z</time></trkpt><trkpt lat="44.54120086021521" lon="9.179201433339944"><ele>882.0</ele><time>2026-03-29T14:53:45.999Z</time></trkpt><trkpt lat="44.54128568211458" lon="9.179085502569167"><ele>882.0</ele><time>2026-03-29T14:53:46.999Z</time></trkpt><trkpt lat="44.541361543279926" lon="9.178956933713184"><ele>882.0</ele><time>2026-03-29T14:53:47.999Z</time></trkpt><trkpt lat="44.541437078986974" lon="9.178852651046654"><ele>883.25</ele><time>2026-03-29T14:53:48.999Z</time></trkpt><trkpt lat="44.54153369005863" lon="9.178779841243253"><ele>884.5</ele><time>2026-03-29T14:53:49.999Z</time></trkpt><trkpt lat="44.54166937748992" lon="9.178766801797314"><ele>885.75</ele><time>2026-03-29T14:53:50.999Z</time></trkpt><trkpt lat="44.541796884845624" lon="9.17870716658898"><ele>887.0</ele><time>2026-03-29T14:53:51.999Z</time></trkpt><trkpt lat="44.54191924653022" lon="9.178638926067176"><ele>887.0</ele><time>2026-03-29T14:53:52.999Z</time></trkpt><trkpt lat="44.54203136877575" lon="9.17854813203449"><ele>887.0</ele><time>2026-03-29T14:53:53.999Z</time></trkpt><trkpt lat="44.54212969921993" lon="9.178473223562175"><ele>887.0</ele><time>2026-03-29T14:53:54.999Z</time></trkpt><trkpt lat="44.542215549165725" lon="9.178433452379391"><ele>887.0</ele><time>2026-03-29T14:53:55.999Z</time></trkpt><trkpt lat="44.54230161870481" lon="9.178414121697957"><ele>887.0</ele><time>2026-03-29T14:53:56.999Z</time></trkpt><trkpt lat="44.542402886630335" lon="9.17845633126661"><ele>884.4000000000001</ele><time>2026-03-29T14:53:57.999Z</time></trkpt><trkpt lat="44.54249324183924" lon="9.178575538766427"><ele>881.8000000000001</ele><time>2026-03-29T14:53:58.999Z</time></trkpt><trkpt lat="44.54259443112315" lon="9.178671995937288"><ele>879.2</ele><time>2026-03-29T14:53:59.999Z</time></trkpt><trkpt lat="44.542669469176644" lon="9.17877797258726"><ele>876.6</ele><time>2026-03-29T14:54:00.999Z</time></trkpt><trkpt lat="44.54275081846667" lon="9.178849559895857"><ele>874.0</ele><time>2026-03-29T14:54:01.999Z</time></trkpt><trkpt lat="44.54285031628768" lon="9.178892723810934"><ele>871.0</ele><time>2026-03-29T14:54:02.999Z</time></trkpt><trkpt lat="44.54295139866317" lon="9.178906589687736"><ele>868.0000000000001</ele><time>2026-03-29T14:54:03.999Z</time></trkpt><trkpt lat="44.54302136614546" lon="9.178886863118235"><ele>865.0000000000001</ele><time>2026-03-29T14:54:04.999Z</time></trkpt><trkpt lat="44.5430991993621" lon="9.178718878686029"><ele>862.0</ele><time>2026-03-29T14:54:06.999Z</time></trkpt><trkpt lat="44.54311824944773" lon="9.178565104817887"><ele>859.0</ele><time>2026-03-29T14:54:07.999Z</time></trkpt><trkpt lat="44.54316094949266" lon="9.178422885143126"><ele>859.0</ele><time>2026-03-29T14:54:08.999Z</time></trkpt><trkpt lat="44.54323927354887" lon="9.17831535086137"><ele>859.0000000000001</ele><time>2026-03-29T14:54:09.999Z</time></trkpt><trkpt lat="44.54332329814528" lon="9.178236883910905"><ele>859.0000000000001</ele><time>2026-03-29T14:54:10.999Z</time></trkpt><trkpt lat="44.54341772226288" lon="9.17819706902928"><ele>859.0</ele><time>2026-03-29T14:54:11.999Z</time></trkpt><trkpt lat="44.543505174985214" lon="9.178182926829558"><ele>859.0</ele><time>2026-03-29T14:54:12.999Z</time></trkpt><trkpt lat="44.54358108928775" lon="9.17816239580835"><ele>860.4999999999999</ele><time>2026-03-29T14:54:13.999Z</time></trkpt><trkpt lat="44.54364339621785" lon="9.17812147623506"><ele>862.0</ele><time>2026-03-29T14:54:14.999Z</time></trkpt><trkpt lat="44.54366452235119" lon="9.17800250172923"><ele>863.5</ele><time>2026-03-29T14:54:15.999Z</time></trkpt><trkpt lat="44.54361550855381" lon="9.177891971426355"><ele>865.0</ele><time>2026-03-29T14:54:16.999Z</time></trkpt><trkpt lat="44.543553518345234" lon="9.17780577738439"><ele>866.4999999999999</ele><time>2026-03-29T14:54:17.999Z</time></trkpt><trkpt lat="44.543509583118144" lon="9.177691133061547"><ele>868.0</ele><time>2026-03-29T14:54:18.999Z</time></trkpt><trkpt lat="44.5434555475998" lon="9.177572813418147"><ele>868.0</ele><time>2026-03-29T14:54:19.999Z</time></trkpt><trkpt lat="44.543413772810986" lon="9.177448844404802"><ele>868.0</ele><time>2026-03-29T14:54:20.999Z</time></trkpt><trkpt lat="44.543364675356045" lon="9.177336983396998"><ele>868.0</ele><time>2026-03-29T14:54:21.999Z</time></trkpt><trkpt lat="44.54335841209636" lon="9.177201383364364"><ele>868.0</ele><time>2026-03-29T14:54:22.999Z</time></trkpt><trkpt lat="44.543393552848016" lon="9.17706859133661"><ele>868.0</ele><time>2026-03-29T14:54:23.999Z</time></trkpt><trkpt lat="44.54344636486668" lon="9.17694809922293"><ele>868.0</ele><time>2026-03-29T14:54:24.999Z</time></trkpt><trkpt lat="44.54351440950605" lon="9.176832659935398"><ele>868.0</ele><time>2026-03-29T14:54:25.999Z</time></trkpt><trkpt lat="44.54357281320577" lon="9.176708061219909"><ele>868.0</ele><time>2026-03-29T14:54:26.999Z</time></trkpt><trkpt lat="44.54360727565014" lon="9.17656302507759"><ele>868.0</ele><time>2026-03-29T14:54:27.999Z</time></trkpt><trkpt lat="44.543622997276024" lon="9.1764246772142"><ele>868.0</ele><time>2026-03-29T14:54:28.999Z</time></trkpt><trkpt lat="44.5436225955668" lon="9.176293665057813"><ele>865.5999999999999</ele><time>2026-03-29T14:54:29.999Z</time></trkpt><trkpt lat="44.54359262829524" lon="9.17617002591216"><ele>863.1999999999999</ele><time>2026-03-29T14:54:30.999Z</time></trkpt><trkpt lat="44.543529009491635" lon="9.176054508855868"><ele>860.8</ele><time>2026-03-29T14:54:31.999Z</time></trkpt><trkpt lat="44.54344406507165" lon="9.175943635723684"><ele>858.4</ele><time>2026-03-29T14:54:32.999Z</time></trkpt><trkpt lat="44.54336395471424" lon="9.175808116122601"><ele>856.0</ele><time>2026-03-29T14:54:33.999Z</time></trkpt><trkpt lat="44.54326848495192" lon="9.17568187741139"><ele>851.75</ele><time>2026-03-29T14:54:34.999Z</time></trkpt><trkpt lat="44.54317012852212" lon="9.17555775037562"><ele>847.5</ele><time>2026-03-29T14:54:35.999Z</time></trkpt><trkpt lat="44.54309629533969" lon="9.175403906379314"><ele>843.25</ele><time>2026-03-29T14:54:36.999Z</time></trkpt><trkpt lat="44.543028888146345" lon="9.175234112814188"><ele>839.0</ele><time>2026-03-29T14:54:37.999Z</time></trkpt><trkpt lat="44.54295921185776" lon="9.175064489394407"><ele>839.0</ele><time>2026-03-29T14:54:38.999Z</time></trkpt><trkpt lat="44.54289489121108" lon="9.174893353947903"><ele>839.0</ele><time>2026-03-29T14:54:39.999Z</time></trkpt><trkpt lat="44.54283666984177" lon="9.174718910826565"><ele>839.0</ele><time>2026-03-29T14:54:41Z</time></trkpt><trkpt lat="44.54277965380596" lon="9.174556677999485"><ele>839.0</ele><time>2026-03-29T14:54:42Z</time></trkpt><trkpt lat="44.54272561059792" lon="9.174402164266894"><ele>843.8333333333334</ele><time>2026-03-29T14:54:43Z</time></trkpt><trkpt lat="44.54269019956859" lon="9.174246050027794"><ele>848.6666666666667</ele><time>2026-03-29T14:54:44Z</time></trkpt><trkpt lat="44.54263711735082" lon="9.174140897720774"><ele>853.5</ele><time>2026-03-29T14:54:45Z</time></trkpt><trkpt lat="44.54261982140962" lon="9.174038766145227"><ele>858.3333333333333</ele><time>2026-03-29T14:54:46Z</time></trkpt><trkpt lat="44.542644793436715" lon="9.17395325420399"><ele>863.1666666666666</ele><time>2026-03-29T14:54:47Z</time></trkpt><trkpt lat="44.54270251531991" lon="9.173879222990097"><ele>868.0</ele><time>2026-03-29T14:54:48Z</time></trkpt><trkpt lat="44.5427781584722" lon="9.173833981690475"><ele>868.2</ele><time>2026-03-29T14:54:49Z</time></trkpt><trkpt lat="44.54286430656791" lon="9.173857678009584"><ele>868.4</ele><time>2026-03-29T14:54:50Z</time></trkpt><trkpt lat="44.54292975607194" lon="9.173964683967643"><ele>868.6000000000001</ele><time>2026-03-29T14:54:51Z</time></trkpt><trkpt lat="44.543020033107716" lon="9.174048348285561"><ele>868.8000000000001</ele><time>2026-03-29T14:54:52Z</time></trkpt><trkpt lat="44.543107905403886" lon="9.174145516959912"><ele>869.0</ele><time>2026-03-29T14:54:53Z</time></trkpt><trkpt lat="44.54321357228624" lon="9.174225086652198"><ele>864.0</ele><time>2026-03-29T14:54:54Z</time></trkpt><trkpt lat="44.54332178662475" lon="9.174301536745936"><ele>859.0</ele><time>2026-03-29T14:54:55Z</time></trkpt><trkpt lat="44.54342849585636" lon="9.174370627420243"><ele>854.0</ele><time>2026-03-29T14:54:56Z</time></trkpt><trkpt lat="44.54353463252324" lon="9.174423553297245"><ele>849.0</ele><time>2026-03-29T14:54:57Z</time></trkpt><trkpt lat="44.54364396707473" lon="9.174439609165443"><ele>849.6</ele><time>2026-03-29T14:54:58Z</time></trkpt><trkpt lat="44.54375223565934" lon="9.174445535147969"><ele>850.2</ele><time>2026-03-29T14:54:59Z</time></trkpt><trkpt lat="44.54385891773386" lon="9.174422279388931"><ele>850.8000000000001</ele><time>2026-03-29T14:55:00Z</time></trkpt><trkpt lat="44.543952593140695" lon="9.174378763562194"><ele>851.4000000000001</ele><time>2026-03-29T14:55:01Z</time></trkpt><trkpt lat="44.54401606837113" lon="9.174301380841168"><ele>852.0</ele><time>2026-03-29T14:55:02Z</time></trkpt><trkpt lat="44.544052317564834" lon="9.174181561578225"><ele>852.0</ele><time>2026-03-29T14:55:03Z</time></trkpt><trkpt lat="44.54407203128984" lon="9.174065539228646"><ele>852.0</ele><time>2026-03-29T14:55:04Z</time></trkpt><trkpt lat="44.544103063249345" lon="9.173961107126699"><ele>852.0</ele><time>2026-03-29T14:55:05Z</time></trkpt><trkpt lat="44.54417092574302" lon="9.173875559472586"><ele>852.0</ele><time>2026-03-29T14:55:06Z</time></trkpt><trkpt lat="44.5442641554192" lon="9.173822283164883"><ele>852.0</ele><time>2026-03-29T14:55:07Z</time></trkpt><trkpt lat="44.54435732964175" lon="9.17381530880898"><ele>855.2</ele><time>2026-03-29T14:55:08Z</time></trkpt><trkpt lat="44.54444220192205" lon="9.17387059302103"><ele>858.4000000000001</ele><time>2026-03-29T14:55:09Z</time></trkpt><trkpt lat="44.544500669907244" lon="9.174000476200169"><ele>861.5999999999999</ele><time>2026-03-29T14:55:10Z</time></trkpt><trkpt lat="44.54458037617607" lon="9.174109455175747"><ele>864.8</ele><time>2026-03-29T14:55:11Z</time></trkpt><trkpt lat="44.54465056651706" lon="9.174236172774812"><ele>868.0</ele><time>2026-03-29T14:55:12Z</time></trkpt><trkpt lat="44.54473142645718" lon="9.174362677142373"><ele>868.0</ele><time>2026-03-29T14:55:13Z</time></trkpt><trkpt lat="44.544823647841376" lon="9.174482026545054"><ele>868.0</ele><time>2026-03-29T14:55:14Z</time></trkpt><trkpt lat="44.54493241205907" lon="9.174591223732973"><ele>868.0</ele><time>2026-03-29T14:55:15Z</time></trkpt><trkpt lat="44.545055642599515" lon="9.174695955039029"><ele>868.0</ele><time>2026-03-29T14:55:16Z</time></trkpt><trkpt lat="44.54518534707738" lon="9.174806186288421"><ele>868.6666666666666</ele><time>2026-03-29T14:55:17Z</time></trkpt><trkpt lat="44.54532406063886" lon="9.174927327766873"><ele>869.3333333333333</ele><time>2026-03-29T14:55:18Z</time></trkpt><trkpt lat="44.54547331528291" lon="9.17505921949947"><ele>870.0</ele><time>2026-03-29T14:55:19Z</time></trkpt><trkpt lat="44.54561602983503" lon="9.175183940445487"><ele>870.0</ele><time>2026-03-29T14:55:20Z</time></trkpt><trkpt lat="44.54574938679029" lon="9.17529795145162"><ele>870.0</ele><time>2026-03-29T14:55:21Z</time></trkpt><trkpt lat="44.54588737744542" lon="9.175414182174887"><ele>870.0</ele><time>2026-03-29T14:55:22Z</time></trkpt><trkpt lat="44.546031343492196" lon="9.175520790544919"><ele>870.0</ele><time>2026-03-29T14:55:23Z</time></trkpt><trkpt lat="44.54617568383629" lon="9.17561622826695"><ele>870.0</ele><time>2026-03-29T14:55:24Z</time></trkpt><trkpt lat="44.54631429442408" lon="9.17571068238471"><ele>870.0</ele><time>2026-03-29T14:55:25Z</time></trkpt><trkpt lat="44.54644261312688" lon="9.175793530737963"><ele>871.25</ele><time>2026-03-29T14:55:26Z</time></trkpt><trkpt lat="44.54655916536577" lon="9.17586659684396"><ele>872.5</ele><time>2026-03-29T14:55:27Z</time></trkpt><trkpt lat="44.5466692178864" lon="9.175954402094497"><ele>873.75</ele><time>2026-03-29T14:55:28Z</time></trkpt><trkpt lat="44.54676164520261" lon="9.176077570312074"><ele>875.0</ele><time>2026-03-29T14:55:29Z</time></trkpt><trkpt lat="44.546834203035544" lon="9.176235703264322"><ele>875.0</ele><time>2026-03-29T14:55:30Z</time></trkpt><trkpt lat="44.5468953132056" lon="9.1764097481849"><ele>875.0</ele><time>2026-03-29T14:55:31Z</time></trkpt><trkpt lat="44.54696643088844" lon="9.176584668648635"><ele>875.0</ele><time>2026-03-29T14:55:32Z</time></trkpt><trkpt lat="44.54704834635473" lon="9.176756298193506"><ele>875.0</ele><time>2026-03-29T14:55:33Z</time></trkpt><trkpt lat="44.547141322080556" lon="9.176919338843566"><ele>876.0</ele><time>2026-03-29T14:55:34Z</time></trkpt><trkpt lat="44.547246622803776" lon="9.177070314587686"><ele>877.0</ele><time>2026-03-29T14:55:35Z</time></trkpt><trkpt lat="44.54735217507547" lon="9.177210708565385"><ele>878.0</ele><time>2026-03-29T14:55:36Z</time></trkpt><trkpt lat="44.54744381629825" lon="9.177340582822826"><ele>879.0</ele><time>2026-03-29T14:55:36.999Z</time></trkpt><trkpt lat="44.547528517594984" lon="9.177452490934995"><ele>879.0</ele><time>2026-03-29T14:55:37.999Z</time></trkpt><trkpt lat="44.54760471580942" lon="9.177530218222902"><ele>879.0000000000001</ele><time>2026-03-29T14:55:38.999Z</time></trkpt><trkpt lat="44.54768588552867" lon="9.177565116921903"><ele>879.0000000000001</ele><time>2026-03-29T14:55:39.999Z</time></trkpt><trkpt lat="44.54777375140184" lon="9.177557051299392"><ele>879.0</ele><time>2026-03-29T14:55:40.999Z</time></trkpt><trkpt lat="44.547858533087464" lon="9.177503943854445"><ele>879.0</ele><time>2026-03-29T14:55:41.999Z</time></trkpt><trkpt lat="44.547922734688875" lon="9.177411258528418"><ele>878.2</ele><time>2026-03-29T14:55:42.999Z</time></trkpt><trkpt lat="44.547959932225304" lon="9.17729340876727"><ele>877.4000000000001</ele><time>2026-03-29T14:55:43.999Z</time></trkpt><trkpt lat="44.54796930212547" lon="9.177152619408414"><ele>876.6</ele><time>2026-03-29T14:55:44.999Z</time></trkpt><trkpt lat="44.5479542031197" lon="9.17698935416451"><ele>875.8</ele><time>2026-03-29T14:55:45.999Z</time></trkpt><trkpt lat="44.547948368663235" lon="9.1768173160656"><ele>875.0</ele><time>2026-03-29T14:55:46.999Z</time></trkpt><trkpt lat="44.547942986461706" lon="9.176631418354061"><ele>876.75</ele><time>2026-03-29T14:55:47.999Z</time></trkpt><trkpt lat="44.54793588789341" lon="9.17643387823286"><ele>878.5</ele><time>2026-03-29T14:55:48.999Z</time></trkpt><trkpt lat="44.5479475130997" lon="9.176226932172813"><ele>880.25</ele><time>2026-03-29T14:55:49.999Z</time></trkpt><trkpt lat="44.54793746563938" lon="9.176027416617565"><ele>882.0</ele><time>2026-03-29T14:55:50.999Z</time></trkpt><trkpt lat="44.54790663410959" lon="9.17585048899213"><ele>884.25</ele><time>2026-03-29T14:55:51.999Z</time></trkpt><trkpt lat="44.54789529563532" lon="9.175679102791335"><ele>886.5</ele><time>2026-03-29T14:55:52.999Z</time></trkpt><trkpt lat="44.547907546130645" lon="9.175524008705965"><ele>888.75</ele><time>2026-03-29T14:55:53.999Z</time></trkpt><trkpt lat="44.54794991906936" lon="9.175376899140574"><ele>891.0</ele><time>2026-03-29T14:55:54.999Z</time></trkpt><trkpt lat="44.54801807172697" lon="9.175246199337627"><ele>891.0</ele><time>2026-03-29T14:55:55.999Z</time></trkpt><trkpt lat="44.548094129234805" lon="9.175126734459965"><ele>891.0</ele><time>2026-03-29T14:55:56.999Z</time></trkpt><trkpt lat="44.54817611115164" lon="9.175006287796753"><ele>891.0</ele><time>2026-03-29T14:55:57.999Z</time></trkpt><trkpt lat="44.54826077686206" lon="9.17488611923814"><ele>891.0</ele><time>2026-03-29T14:55:58.999Z</time></trkpt><trkpt lat="44.54833978758135" lon="9.174792354785733"><ele>891.0</ele><time>2026-03-29T14:55:59.999Z</time></trkpt><trkpt lat="44.54842877797151" lon="9.174728132036833"><ele>891.0</ele><time>2026-03-29T14:56:00.999Z</time></trkpt><trkpt lat="44.54853218187394" lon="9.174716417567618"><ele>891.0</ele><time>2026-03-29T14:56:01.999Z</time></trkpt><trkpt lat="44.54864398841728" lon="9.174790700635093"><ele>891.0</ele><time>2026-03-29T14:56:02.999Z</time></trkpt><trkpt lat="44.54875783052484" lon="9.174874267606706"><ele>891.0</ele><time>2026-03-29T14:56:03.999Z</time></trkpt><trkpt lat="44.54887861903422" lon="9.174944047149609"><ele>891.0</ele><time>2026-03-29T14:56:04.999Z</time></trkpt><trkpt lat="44.54899906496505" lon="9.175028651823563"><ele>891.0</ele><time>2026-03-29T14:56:05.999Z</time></trkpt><trkpt lat="44.54912650591423" lon="9.175101917184746"><ele>891.0</ele><time>2026-03-29T14:56:06.999Z</time></trkpt><trkpt lat="44.54926603594018" lon="9.175164874998748"><ele>891.0</ele><time>2026-03-29T14:56:07.999Z</time></trkpt><trkpt lat="44.54941175811988" lon="9.175207324224685"><ele>891.0</ele><time>2026-03-29T14:56:08.999Z</time></trkpt><trkpt lat="44.54953548599783" lon="9.175280728717446"><ele>891.0</ele><time>2026-03-29T14:56:09.999Z</time></trkpt><trkpt lat="44.54965250525762" lon="9.175377651366455"><ele>891.0</ele><time>2026-03-29T14:56:10.999Z</time></trkpt><trkpt lat="44.54976585520127" lon="9.175503614749575"><ele>891.0</ele><time>2026-03-29T14:56:11.999Z</time></trkpt><trkpt lat="44.54986300737565" lon="9.17565329409865"><ele>891.0</ele><time>2026-03-29T14:56:12.999Z</time></trkpt><trkpt lat="44.54996435828178" lon="9.175793694761426"><ele>891.0</ele><time>2026-03-29T14:56:13.999Z</time></trkpt><trkpt lat="44.5500645054436" lon="9.175923742085924"><ele>891.0</ele><time>2026-03-29T14:56:14.999Z</time></trkpt><trkpt lat="44.55016156662185" lon="9.176037457443401"><ele>891.0</ele><time>2026-03-29T14:56:15.999Z</time></trkpt><trkpt lat="44.55026469721489" lon="9.176139185892243"><ele>891.0</ele><time>2026-03-29T14:56:16.999Z</time></trkpt><trkpt lat="44.55037752556561" lon="9.176217510969423"><ele>891.0</ele><time>2026-03-29T14:56:17.999Z</time></trkpt><trkpt lat="44.55049620036019" lon="9.176270665447143"><ele>891.0</ele><time>2026-03-29T14:56:18.999Z</time></trkpt><trkpt lat="44.550624786587086" lon="9.176288900535154"><ele>894.25</ele><time>2026-03-29T14:56:19.999Z</time></trkpt><trkpt lat="44.55076471015289" lon="9.176294250575138"><ele>897.5</ele><time>2026-03-29T14:56:20.999Z</time></trkpt><trkpt lat="44.55090758627605" lon="9.176290754725475"><ele>900.75</ele><time>2026-03-29T14:56:21.999Z</time></trkpt><trkpt lat="44.55105180509268" lon="9.176286638213504"><ele>904.0</ele><time>2026-03-29T14:56:22.999Z</time></trkpt><trkpt lat="44.5511966383068" lon="9.176296523957644"><ele>905.0</ele><time>2026-03-29T14:56:23.999Z</time></trkpt><trkpt lat="44.551345003677376" lon="9.176288131512708"><ele>906.0</ele><time>2026-03-29T14:56:24.999Z</time></trkpt><trkpt lat="44.551487053897084" lon="9.176271879242583"><ele>907.0</ele><time>2026-03-29T14:56:25.999Z</time></trkpt><trkpt lat="44.551611102869096" lon="9.176234731095462"><ele>908.0</ele><time>2026-03-29T14:56:26.999Z</time></trkpt><trkpt lat="44.5517180191192" lon="9.176205897929446"><ele>908.0</ele><time>2026-03-29T14:56:27.999Z</time></trkpt><trkpt lat="44.55180629510376" lon="9.176181589382104"><ele>908.0</ele><time>2026-03-29T14:56:28.999Z</time></trkpt><trkpt lat="44.551884095781276" lon="9.176123180210276"><ele>908.0</ele><time>2026-03-29T14:56:29.999Z</time></trkpt><trkpt lat="44.5519509946741" lon="9.176029750339843"><ele>908.0</ele><time>2026-03-29T14:56:30.999Z</time></trkpt><trkpt lat="44.552011339394014" lon="9.175914295487406"><ele>908.0</ele><time>2026-03-29T14:56:31.999Z</time></trkpt><trkpt lat="44.55207635796619" lon="9.175779646472954"><ele>905.0</ele><time>2026-03-29T14:56:32.999Z</time></trkpt><trkpt lat="44.552144491301526" lon="9.175635653886522"><ele>902.0</ele><time>2026-03-29T14:56:33.999Z</time></trkpt><trkpt lat="44.552218699913226" lon="9.17549165081156"><ele>899.0</ele><time>2026-03-29T14:56:34.999Z</time></trkpt><trkpt lat="44.55229458807743" lon="9.175365015464013"><ele>896.0</ele><time>2026-03-29T14:56:35.999Z</time></trkpt><trkpt lat="44.55237534833342" lon="9.175264188828193"><ele>896.0</ele><time>2026-03-29T14:56:36.999Z</time></trkpt><trkpt lat="44.5524457946471" lon="9.17517897218335"><ele>895.9999999999999</ele><time>2026-03-29T14:56:37.999Z</time></trkpt><trkpt lat="44.55249027534917" lon="9.175081458411638"><ele>895.9999999999999</ele><time>2026-03-29T14:56:38.999Z</time></trkpt><trkpt lat="44.55250669437617" lon="9.17496392318958"><ele>896.0</ele><time>2026-03-29T14:56:39.999Z</time></trkpt><trkpt lat="44.55249688153117" lon="9.174821947861414"><ele>896.0</ele><time>2026-03-29T14:56:40.999Z</time></trkpt><trkpt lat="44.552480367666554" lon="9.174674177247137"><ele>898.1999999999999</ele><time>2026-03-29T14:56:41.999Z</time></trkpt><trkpt lat="44.55250167959315" lon="9.174521705953387"><ele>900.3999999999999</ele><time>2026-03-29T14:56:42.999Z</time></trkpt><trkpt lat="44.552496343024664" lon="9.17438211476354"><ele>902.6</ele><time>2026-03-29T14:56:43.999Z</time></trkpt><trkpt lat="44.55247321428949" lon="9.174250534331472"><ele>904.8</ele><time>2026-03-29T14:56:44.999Z</time></trkpt><trkpt lat="44.552497771295" lon="9.174117221514761"><ele>907.0</ele><time>2026-03-29T14:56:45.999Z</time></trkpt><trkpt lat="44.55257054817914" lon="9.173992968340775"><ele>911.5</ele><time>2026-03-29T14:56:47Z</time></trkpt><trkpt lat="44.552629072602805" lon="9.173826880971188"><ele>916.0</ele><time>2026-03-29T14:56:48Z</time></trkpt><trkpt lat="44.55269710995449" lon="9.17365883472496"><ele>920.5</ele><time>2026-03-29T14:56:49Z</time></trkpt><trkpt lat="44.55277345812572" lon="9.173505559231574"><ele>925.0</ele><time>2026-03-29T14:56:50Z</time></trkpt><trkpt lat="44.55286305062318" lon="9.173355833010737"><ele>915.5</ele><time>2026-03-29T14:56:51Z</time></trkpt><trkpt lat="44.55294379206598" lon="9.173191119482903"><ele>906.0</ele><time>2026-03-29T14:56:52Z</time></trkpt><trkpt lat="44.55300986463314" lon="9.173010425116434"><ele>896.5</ele><time>2026-03-29T14:56:53Z</time></trkpt><trkpt lat="44.55307733062325" lon="9.17283334858351"><ele>887.0</ele><time>2026-03-29T14:56:54Z</time></trkpt><trkpt lat="44.55315268321525" lon="9.172663627306237"><ele>887.0</ele><time>2026-03-29T14:56:55Z</time></trkpt><trkpt lat="44.55323761539679" lon="9.172507011596052"><ele>887.0</ele><time>2026-03-29T14:56:56Z</time></trkpt><trkpt lat="44.553340668286616" lon="9.172367198313154"><ele>887.0</ele><time>2026-03-29T14:56:57Z</time></trkpt><trkpt lat="44.55343993954953" lon="9.172247082276993"><ele>887.0</ele><time>2026-03-29T14:56:58Z</time></trkpt><trkpt lat="44.553535140654674" lon="9.17213800688724"><ele>886.0</ele><time>2026-03-29T14:56:59Z</time></trkpt><trkpt lat="44.55363341802654" lon="9.17204718236895"><ele>885.0</ele><time>2026-03-29T14:57:00Z</time></trkpt><trkpt lat="44.55374818172838" lon="9.171995347447657"><ele>884.0</ele><time>2026-03-29T14:57:01Z</time></trkpt><trkpt lat="44.55385789089441" lon="9.171974036902943"><ele>883.0</ele><time>2026-03-29T14:57:02Z</time></trkpt><trkpt lat="44.55395184722305" lon="9.171937589445147"><ele>882.0</ele><time>2026-03-29T14:57:03Z</time></trkpt><trkpt lat="44.55402458314046" lon="9.17186624117151"><ele>882.0</ele><time>2026-03-29T14:57:04Z</time></trkpt><trkpt lat="44.55407266496983" lon="9.171749775929236"><ele>882.0</ele><time>2026-03-29T14:57:05Z</time></trkpt><trkpt lat="44.55408356600201" lon="9.171606903841587"><ele>882.0</ele><time>2026-03-29T14:57:06Z</time></trkpt><trkpt lat="44.55407402791653" lon="9.171461880046017"><ele>882.0</ele><time>2026-03-29T14:57:07Z</time></trkpt><trkpt lat="44.55409250889544" lon="9.171337434540256"><ele>882.0</ele><time>2026-03-29T14:57:08Z</time></trkpt><trkpt lat="44.5541500110829" lon="9.171243818653888"><ele>886.2</ele><time>2026-03-29T14:57:09Z</time></trkpt><trkpt lat="44.55423103989706" lon="9.17118715965594"><ele>890.4000000000001</ele><time>2026-03-29T14:57:10Z</time></trkpt><trkpt lat="44.55433343092188" lon="9.171157423254682"><ele>894.5999999999999</ele><time>2026-03-29T14:57:11Z</time></trkpt><trkpt lat="44.554417991400655" lon="9.171108683565965"><ele>898.8</ele><time>2026-03-29T14:57:12Z</time></trkpt><trkpt lat="44.55448378569889" lon="9.171016866966463"><ele>903.0</ele><time>2026-03-29T14:57:13Z</time></trkpt><trkpt lat="44.55453480339368" lon="9.17089697516348"><ele>899.5999999999999</ele><time>2026-03-29T14:57:14Z</time></trkpt><trkpt lat="44.55457571870913" lon="9.170756681345104"><ele>896.1999999999999</ele><time>2026-03-29T14:57:15Z</time></trkpt><trkpt lat="44.55463154470991" lon="9.170627208767199"><ele>892.8</ele><time>2026-03-29T14:57:16Z</time></trkpt><trkpt lat="44.554661149849416" lon="9.170495845793596"><ele>889.4</ele><time>2026-03-29T14:57:17Z</time></trkpt><trkpt lat="44.55473111399202" lon="9.17040305637908"><ele>886.0</ele><time>2026-03-29T14:57:18Z</time></trkpt><trkpt lat="44.55480145771793" lon="9.170330116304578"><ele>885.9999999999999</ele><time>2026-03-29T14:57:19Z</time></trkpt><trkpt lat="44.55485877190462" lon="9.170246554673062"><ele>886.0</ele><time>2026-03-29T14:57:20Z</time></trkpt><trkpt lat="44.554849382416236" lon="9.170104074689576"><ele>886.0</ele><time>2026-03-29T14:57:21Z</time></trkpt><trkpt lat="44.55482731648957" lon="9.16999285804774"><ele>886.0</ele><time>2026-03-29T14:57:22Z</time></trkpt><trkpt lat="44.55482809980166" lon="9.169899352571932"><ele>885.9999999999999</ele><time>2026-03-29T14:57:23Z</time></trkpt><trkpt lat="44.55491662981972" lon="9.169801103426671"><ele>886.0</ele><time>2026-03-29T14:57:25Z</time></trkpt><trkpt lat="44.555004194939606" lon="9.169832602233667"><ele>893.0</ele><time>2026-03-29T14:57:26Z</time></trkpt><trkpt lat="44.555092273069334" lon="9.169796794669239"><ele>900.0</ele><time>2026-03-29T14:57:27Z</time></trkpt><trkpt lat="44.55518143098029" lon="9.169702932893562"><ele>907.0</ele><time>2026-03-29T14:57:28Z</time></trkpt><trkpt lat="44.5552752911143" lon="9.169585309057663"><ele>914.0</ele><time>2026-03-29T14:57:29Z</time></trkpt><trkpt lat="44.55535714957176" lon="9.169452049039073"><ele>912.25</ele><time>2026-03-29T14:57:30Z</time></trkpt><trkpt lat="44.555418832526556" lon="9.16929071735959"><ele>910.5</ele><time>2026-03-29T14:57:31Z</time></trkpt><trkpt lat="44.55547038396728" lon="9.169146889652739"><ele>908.75</ele><time>2026-03-29T14:57:32Z</time></trkpt><trkpt lat="44.555540779788785" lon="9.169026023592401"><ele>907.0</ele><time>2026-03-29T14:57:33Z</time></trkpt><trkpt lat="44.55561061419206" lon="9.168901988024402"><ele>907.0</ele><time>2026-03-29T14:57:34Z</time></trkpt><trkpt lat="44.55572715035778" lon="9.168855532707225"><ele>907.0</ele><time>2026-03-29T14:57:35Z</time></trkpt><trkpt lat="44.55583896507645" lon="9.168787663753397"><ele>907.0</ele><time>2026-03-29T14:57:36Z</time></trkpt><trkpt lat="44.55595015000229" lon="9.168711487471755"><ele>907.0</ele><time>2026-03-29T14:57:37Z</time></trkpt><trkpt lat="44.55604346202523" lon="9.168615231757283"><ele>907.0</ele><time>2026-03-29T14:57:38Z</time></trkpt><trkpt lat="44.55614860843106" lon="9.168581789330661"><ele>907.0</ele><time>2026-03-29T14:57:39Z</time></trkpt><trkpt lat="44.55625306497825" lon="9.168623117552679"><ele>907.0</ele><time>2026-03-29T14:57:40Z</time></trkpt><trkpt lat="44.556353881192045" lon="9.168649535790829"><ele>907.0</ele><time>2026-03-29T14:57:41Z</time></trkpt><trkpt lat="44.55642751444017" lon="9.168686063933553"><ele>907.0</ele><time>2026-03-29T14:57:42Z</time></trkpt><trkpt lat="44.55650568120493" lon="9.168737210336047"><ele>904.8333333333333</ele><time>2026-03-29T14:57:43Z</time></trkpt><trkpt lat="44.55655513671369" lon="9.168829591294351"><ele>902.6666666666666</ele><time>2026-03-29T14:57:44Z</time></trkpt><trkpt lat="44.55658772858146" lon="9.168925676824362"><ele>900.5</ele><time>2026-03-29T14:57:45Z</time></trkpt><trkpt lat="44.556581183750346" lon="9.169031553219977"><ele>898.3333333333333</ele><time>2026-03-29T14:57:46Z</time></trkpt><trkpt lat="44.556542784598854" lon="9.169137624956143"><ele>896.1666666666666</ele><time>2026-03-29T14:57:47Z</time></trkpt><trkpt lat="44.55648401703793" lon="9.169238215416653"><ele>894.0</ele><time>2026-03-29T14:57:48Z</time></trkpt><trkpt lat="44.556407929830755" lon="9.16930588132253"><ele>893.4000000000001</ele><time>2026-03-29T14:57:49Z</time></trkpt><trkpt lat="44.55631479714622" lon="9.169312606271065"><ele>892.8000000000001</ele><time>2026-03-29T14:57:50Z</time></trkpt><trkpt lat="44.5562347337778" lon="9.169387222256491"><ele>892.1999999999999</ele><time>2026-03-29T14:57:51Z</time></trkpt><trkpt lat="44.556140544215964" lon="9.169456516827262"><ele>891.5999999999999</ele><time>2026-03-29T14:57:52Z</time></trkpt><trkpt lat="44.556082183037304" lon="9.169572007155438"><ele>891.0</ele><time>2026-03-29T14:57:52.999Z</time></trkpt><trkpt lat="44.55602753352497" lon="9.169685241978158"><ele>890.1999999999999</ele><time>2026-03-29T14:57:53.999Z</time></trkpt><trkpt lat="44.555981301158" lon="9.169827879801"><ele>889.3999999999999</ele><time>2026-03-29T14:57:54.999Z</time></trkpt><trkpt lat="44.55594878419533" lon="9.16996284117196"><ele>888.6</ele><time>2026-03-29T14:57:55.999Z</time></trkpt><trkpt lat="44.55591703351853" lon="9.170085702600817"><ele>887.8</ele><time>2026-03-29T14:57:56.999Z</time></trkpt><trkpt lat="44.55591801994906" lon="9.170230840087841"><ele>887.0</ele><time>2026-03-29T14:57:57.999Z</time></trkpt><trkpt lat="44.555942211563575" lon="9.170382972540988"><ele>886.0</ele><time>2026-03-29T14:57:58.999Z</time></trkpt><trkpt lat="44.5559553905978" lon="9.170543704456948"><ele>885.0</ele><time>2026-03-29T14:57:59.999Z</time></trkpt><trkpt lat="44.555915446508315" lon="9.170697947864802"><ele>884.0</ele><time>2026-03-29T14:58:00.999Z</time></trkpt><trkpt lat="44.55590642388158" lon="9.170862543295623"><ele>883.0</ele><time>2026-03-29T14:58:01.999Z</time></trkpt><trkpt lat="44.555922451471645" lon="9.171006604364898"><ele>883.0</ele><time>2026-03-29T14:58:02.999Z</time></trkpt><trkpt lat="44.55592200834505" lon="9.171140421213293"><ele>883.0</ele><time>2026-03-29T14:58:03.999Z</time></trkpt><trkpt lat="44.55587962360136" lon="9.171248476878576"><ele>883.0</ele><time>2026-03-29T14:58:04.999Z</time></trkpt><trkpt lat="44.55581462176032" lon="9.1713439700624"><ele>883.0</ele><time>2026-03-29T14:58:05.999Z</time></trkpt><trkpt lat="44.55575318739638" lon="9.171444787314549"><ele>883.0</ele><time>2026-03-29T14:58:06.999Z</time></trkpt><trkpt lat="44.55571283611826" lon="9.171560915643699"><ele>885.0</ele><time>2026-03-29T14:58:07.999Z</time></trkpt><trkpt lat="44.555727901107105" lon="9.171707547484534"><ele>887.0</ele><time>2026-03-29T14:58:08.999Z</time></trkpt><trkpt lat="44.55577778281813" lon="9.171879173690538"><ele>889.0</ele><time>2026-03-29T14:58:09.999Z</time></trkpt><trkpt lat="44.555814742057755" lon="9.172049337063845"><ele>891.0</ele><time>2026-03-29T14:58:10.999Z</time></trkpt><trkpt lat="44.555833045854385" lon="9.17223567785986"><ele>892.5</ele><time>2026-03-29T14:58:11.999Z</time></trkpt><trkpt lat="44.55583666596514" lon="9.172416515009354"><ele>894.0</ele><time>2026-03-29T14:58:12.999Z</time></trkpt><trkpt lat="44.55581231921674" lon="9.172587539801947"><ele>895.5</ele><time>2026-03-29T14:58:13.999Z</time></trkpt><trkpt lat="44.555769327818076" lon="9.172755516043411"><ele>897.0</ele><time>2026-03-29T14:58:14.999Z</time></trkpt><trkpt lat="44.55570967535359" lon="9.172920229716148"><ele>897.0</ele><time>2026-03-29T14:58:15.999Z</time></trkpt><trkpt lat="44.55565004754782" lon="9.17307315124943"><ele>897.0</ele><time>2026-03-29T14:58:16.999Z</time></trkpt><trkpt lat="44.555594428891524" lon="9.173205447692695"><ele>897.0</ele><time>2026-03-29T14:58:17.999Z</time></trkpt><trkpt lat="44.55556387478149" lon="9.173340056812119"><ele>897.0</ele><time>2026-03-29T14:58:18.999Z</time></trkpt><trkpt lat="44.555558674544855" lon="9.173477135613881"><ele>897.0</ele><time>2026-03-29T14:58:19.999Z</time></trkpt><trkpt lat="44.55558664832952" lon="9.173614080212559"><ele>896.75</ele><time>2026-03-29T14:58:20.999Z</time></trkpt><trkpt lat="44.55565088304669" lon="9.173763365293933"><ele>896.5</ele><time>2026-03-29T14:58:21.999Z</time></trkpt><trkpt lat="44.555714764997646" lon="9.173927509358455"><ele>896.25</ele><time>2026-03-29T14:58:22.999Z</time></trkpt><trkpt lat="44.55577541800071" lon="9.174108790578552"><ele>896.0</ele><time>2026-03-29T14:58:23.999Z</time></trkpt><trkpt lat="44.555821702802795" lon="9.17431588683868"><ele>896.0</ele><time>2026-03-29T14:58:24.999Z</time></trkpt><trkpt lat="44.55584493175348" lon="9.174530147573673"><ele>896.0</ele><time>2026-03-29T14:58:25.999Z</time></trkpt><trkpt lat="44.55586634502035" lon="9.174735575081435"><ele>896.0</ele><time>2026-03-29T14:58:26.999Z</time></trkpt><trkpt lat="44.55590103109358" lon="9.174930299357166"><ele>896.0</ele><time>2026-03-29T14:58:27.999Z</time></trkpt><trkpt lat="44.55594270142445" lon="9.17510921728347"><ele>894.75</ele><time>2026-03-29T14:58:28.999Z</time></trkpt><trkpt lat="44.55597515988315" lon="9.175271738003357"><ele>893.5</ele><time>2026-03-29T14:58:29.999Z</time></trkpt><trkpt lat="44.55601600355286" lon="9.175412294763628"><ele>892.25</ele><time>2026-03-29T14:58:30.999Z</time></trkpt><trkpt lat="44.55608579538419" lon="9.175524060126977"><ele>891.0</ele><time>2026-03-29T14:58:31.999Z</time></trkpt><trkpt lat="44.55618459895205" lon="9.175617680686369"><ele>892.25</ele><time>2026-03-29T14:58:32.999Z</time></trkpt><trkpt lat="44.55631293654667" lon="9.175663803902825"><ele>893.5</ele><time>2026-03-29T14:58:33.999Z</time></trkpt><trkpt lat="44.556443763869886" lon="9.17567520735508"><ele>894.75</ele><time>2026-03-29T14:58:34.999Z</time></trkpt><trkpt lat="44.55657964815174" lon="9.17568375412226"><ele>896.0</ele><time>2026-03-29T14:58:35.999Z</time></trkpt><trkpt lat="44.55670962143499" lon="9.175711335416688"><ele>896.0</ele><time>2026-03-29T14:58:36.999Z</time></trkpt><trkpt lat="44.55682690027961" lon="9.1757530077824"><ele>896.0</ele><time>2026-03-29T14:58:37.999Z</time></trkpt><trkpt lat="44.556926380449504" lon="9.17584846831327"><ele>896.0</ele><time>2026-03-29T14:58:38.999Z</time></trkpt><trkpt lat="44.55699715022254" lon="9.175994710011365"><ele>896.0</ele><time>2026-03-29T14:58:39.999Z</time></trkpt><trkpt lat="44.55708025668624" lon="9.176120308673585"><ele>899.25</ele><time>2026-03-29T14:58:40.999Z</time></trkpt><trkpt lat="44.55715839217468" lon="9.176223873127956"><ele>902.5</ele><time>2026-03-29T14:58:41.999Z</time></trkpt><trkpt lat="44.55726181894765" lon="9.176281430006508"><ele>905.75</ele><time>2026-03-29T14:58:42.999Z</time></trkpt><trkpt lat="44.557380027609256" lon="9.176285197014002"><ele>909.0</ele><time>2026-03-29T14:58:43.999Z</time></trkpt><trkpt lat="44.5575026591579" lon="9.176253038221049"><ele>909.0</ele><time>2026-03-29T14:58:44.999Z</time></trkpt><trkpt lat="44.55762561294722" lon="9.176182253154865"><ele>909.0</ele><time>2026-03-29T14:58:45.999Z</time></trkpt><trkpt lat="44.55774657438428" lon="9.176095610416962"><ele>909.0</ele><time>2026-03-29T14:58:46.999Z</time></trkpt><trkpt lat="44.55786779226482" lon="9.17599720289346"><ele>909.0</ele><time>2026-03-29T14:58:47.999Z</time></trkpt><trkpt lat="44.55797837985267" lon="9.175892116184212"><ele>909.0</ele><time>2026-03-29T14:58:48.999Z</time></trkpt><trkpt lat="44.558080978943494" lon="9.175796843855306"><ele>909.0000000000001</ele><time>2026-03-29T14:58:49.999Z</time></trkpt><trkpt lat="44.55816364878071" lon="9.175739053701761"><ele>909.0000000000001</ele><time>2026-03-29T14:58:50.999Z</time></trkpt><trkpt lat="44.55824458128896" lon="9.175725300624368"><ele>909.0</ele><time>2026-03-29T14:58:51.999Z</time></trkpt><trkpt lat="44.558331487441336" lon="9.175752561662353"><ele>909.0</ele><time>2026-03-29T14:58:53Z</time></trkpt><trkpt lat="44.558410702709935" lon="9.175835713462888"><ele>909.0</ele><time>2026-03-29T14:58:54Z</time></trkpt><trkpt lat="44.558476748164786" lon="9.17595782152749"><ele>909.0</ele><time>2026-03-29T14:58:55Z</time></trkpt><trkpt lat="44.55852218593917" lon="9.176122494388139"><ele>909.0</ele><time>2026-03-29T14:58:56Z</time></trkpt><trkpt lat="44.558556058171526" lon="9.176281297351359"><ele>909.0</ele><time>2026-03-29T14:58:57Z</time></trkpt><trkpt lat="44.55858022546745" lon="9.176436589818392"><ele>907.4000000000001</ele><time>2026-03-29T14:58:58Z</time></trkpt><trkpt lat="44.55860078490994" lon="9.176585458007303"><ele>905.8000000000001</ele><time>2026-03-29T14:58:59Z</time></trkpt><trkpt lat="44.55860963747848" lon="9.176736336697772"><ele>904.1999999999999</ele><time>2026-03-29T14:59:00Z</time></trkpt><trkpt lat="44.558591339539284" lon="9.176886429837538"><ele>902.5999999999999</ele><time>2026-03-29T14:59:01Z</time></trkpt><trkpt lat="44.55854284685483" lon="9.177041747190684"><ele>901.0</ele><time>2026-03-29T14:59:02Z</time></trkpt><trkpt lat="44.558478467673424" lon="9.177194976036425"><ele>901.0</ele><time>2026-03-29T14:59:03Z</time></trkpt><trkpt lat="44.55841612855348" lon="9.177341012976411"><ele>900.9999999999999</ele><time>2026-03-29T14:59:04Z</time></trkpt><trkpt lat="44.558370355672096" lon="9.177475435826402"><ele>900.9999999999999</ele><time>2026-03-29T14:59:05Z</time></trkpt><trkpt lat="44.55833265923364" lon="9.177612615814551"><ele>901.0</ele><time>2026-03-29T14:59:06Z</time></trkpt><trkpt lat="44.55832234458536" lon="9.177764328061924"><ele>901.0</ele><time>2026-03-29T14:59:07Z</time></trkpt><trkpt lat="44.55833181623905" lon="9.177929374495072"><ele>900.75</ele><time>2026-03-29T14:59:08Z</time></trkpt><trkpt lat="44.558371189301496" lon="9.178083408260914"><ele>900.5</ele><time>2026-03-29T14:59:09Z</time></trkpt><trkpt lat="44.5584366200546" lon="9.178223497405856"><ele>900.25</ele><time>2026-03-29T14:59:10Z</time></trkpt><trkpt lat="44.55851943931249" lon="9.178333108284308"><ele>900.0</ele><time>2026-03-29T14:59:11Z</time></trkpt><trkpt lat="44.55861963587465" lon="9.17840960542384"><ele>900.75</ele><time>2026-03-29T14:59:12Z</time></trkpt><trkpt lat="44.55872870727996" lon="9.178455963895413"><ele>901.5</ele><time>2026-03-29T14:59:13Z</time></trkpt><trkpt lat="44.55884852672097" lon="9.178476930058089"><ele>902.25</ele><time>2026-03-29T14:59:14Z</time></trkpt><trkpt lat="44.558980463012986" lon="9.17846210097687"><ele>903.0</ele><time>2026-03-29T14:59:15Z</time></trkpt><trkpt lat="44.559116932548235" lon="9.178425030843448"><ele>903.0</ele><time>2026-03-29T14:59:16Z</time></trkpt><trkpt lat="44.55925086528346" lon="9.178377684946593"><ele>903.0</ele><time>2026-03-29T14:59:17Z</time></trkpt><trkpt lat="44.55937185037108" lon="9.178326525186613"><ele>903.0</ele><time>2026-03-29T14:59:18Z</time></trkpt><trkpt lat="44.55949829165003" lon="9.178274919527585"><ele>903.0</ele><time>2026-03-29T14:59:19Z</time></trkpt><trkpt lat="44.559625094266025" lon="9.17824266716734"><ele>903.75</ele><time>2026-03-29T14:59:20Z</time></trkpt><trkpt lat="44.55975377333385" lon="9.178240489320254"><ele>904.5</ele><time>2026-03-29T14:59:21Z</time></trkpt><trkpt lat="44.55987714946915" lon="9.178288200911908"><ele>905.25</ele><time>2026-03-29T14:59:22Z</time></trkpt><trkpt lat="44.559993282916615" lon="9.178361654279518"><ele>906.0</ele><time>2026-03-29T14:59:23Z</time></trkpt><trkpt lat="44.56011182324897" lon="9.178425588353761"><ele>906.0</ele><time>2026-03-29T14:59:24Z</time></trkpt><trkpt lat="44.560245980745414" lon="9.178449861696173"><ele>906.0</ele><time>2026-03-29T14:59:25Z</time></trkpt><trkpt lat="44.56038903766583" lon="9.178436677252881"><ele>906.0</ele><time>2026-03-29T14:59:26Z</time></trkpt><trkpt lat="44.56053853712065" lon="9.178406801972859"><ele>906.0</ele><time>2026-03-29T14:59:27Z</time></trkpt><trkpt lat="44.56069464115469" lon="9.178379900745067"><ele>909.0</ele><time>2026-03-29T14:59:28Z</time></trkpt><trkpt lat="44.560858314536944" lon="9.178374132077092"><ele>912.0</ele><time>2026-03-29T14:59:29Z</time></trkpt><trkpt lat="44.561028344384624" lon="9.178388881987553"><ele>915.0</ele><time>2026-03-29T14:59:30Z</time></trkpt><trkpt lat="44.56120018050434" lon="9.178404663771182"><ele>915.3333333333333</ele><time>2026-03-29T14:59:31Z</time></trkpt><trkpt lat="44.561375277970356" lon="9.178403424048506"><ele>915.6666666666666</ele><time>2026-03-29T14:59:32Z</time></trkpt><trkpt lat="44.56155021273719" lon="9.178377743576297"><ele>916.0</ele><time>2026-03-29T14:59:33Z</time></trkpt><trkpt lat="44.56171264466562" lon="9.17833125605063"><ele>916.0</ele><time>2026-03-29T14:59:34Z</time></trkpt><trkpt lat="44.561863812923505" lon="9.178312051381845"><ele>916.0</ele><time>2026-03-29T14:59:35Z</time></trkpt><trkpt lat="44.56200317532463" lon="9.178330245920835"><ele>916.0</ele><time>2026-03-29T14:59:36Z</time></trkpt><trkpt lat="44.56214047409688" lon="9.178341197904537"><ele>916.0</ele><time>2026-03-29T14:59:37Z</time></trkpt><trkpt lat="44.56227762469176" lon="9.178299124345465"><ele>917.0</ele><time>2026-03-29T14:59:38Z</time></trkpt><trkpt lat="44.56241732127577" lon="9.178236964068416"><ele>918.0</ele><time>2026-03-29T14:59:39Z</time></trkpt><trkpt lat="44.56253338985764" lon="9.178130853757137"><ele>919.0</ele><time>2026-03-29T14:59:40Z</time></trkpt><trkpt lat="44.56265294618271" lon="9.178089285604115"><ele>920.0</ele><time>2026-03-29T14:59:41Z</time></trkpt><trkpt lat="44.56277464671579" lon="9.178091805034162"><ele>923.6</ele><time>2026-03-29T14:59:42Z</time></trkpt><trkpt lat="44.5628920484543" lon="9.178163614983001"><ele>927.2</ele><time>2026-03-29T14:59:43Z</time></trkpt><trkpt lat="44.5630035345754" lon="9.178189607048584"><ele>930.8</ele><time>2026-03-29T14:59:44Z</time></trkpt><trkpt lat="44.563088536116894" lon="9.178260320786345"><ele>934.4</ele><time>2026-03-29T14:59:45Z</time></trkpt><trkpt lat="44.56315511683016" lon="9.178373829903698"><ele>938.0</ele><time>2026-03-29T14:59:46Z</time></trkpt><trkpt lat="44.563176758895615" lon="9.178529904795113"><ele>938.0</ele><time>2026-03-29T14:59:47Z</time></trkpt><trkpt lat="44.563269520273806" lon="9.178635919828452"><ele>938.0</ele><time>2026-03-29T14:59:48Z</time></trkpt><trkpt lat="44.563388422713835" lon="9.178711949328447"><ele>938.0</ele><time>2026-03-29T14:59:49Z</time></trkpt><trkpt lat="44.563520877499336" lon="9.17877675168888"><ele>938.0</ele><time>2026-03-29T14:59:50Z</time></trkpt><trkpt lat="44.56365275721148" lon="9.178859878600717"><ele>937.75</ele><time>2026-03-29T14:59:51Z</time></trkpt><trkpt lat="44.56376755878739" lon="9.178995145346013"><ele>937.5</ele><time>2026-03-29T14:59:52Z</time></trkpt><trkpt lat="44.56385915755195" lon="9.179149284673619"><ele>937.25</ele><time>2026-03-29T14:59:53Z</time></trkpt><trkpt lat="44.56393835666889" lon="9.179279753436507"><ele>937.0</ele><time>2026-03-29T14:59:54Z</time></trkpt><trkpt lat="44.564022513614404" lon="9.17936297825933"><ele>937.0</ele><time>2026-03-29T14:59:55Z</time></trkpt><trkpt lat="44.5641247281977" lon="9.179398366740728"><ele>937.0</ele><time>2026-03-29T14:59:56Z</time></trkpt><trkpt lat="44.56425239539614" lon="9.17938991105801"><ele>937.0</ele><time>2026-03-29T14:59:57Z</time></trkpt><trkpt lat="44.564395157761524" lon="9.179399207343103"><ele>937.0</ele><time>2026-03-29T14:59:58Z</time></trkpt><trkpt lat="44.56453458686228" lon="9.17941575319984"><ele>941.75</ele><time>2026-03-29T14:59:59Z</time></trkpt><trkpt lat="44.56467063707557" lon="9.179441208132843"><ele>946.5</ele><time>2026-03-29T15:00:00Z</time></trkpt><trkpt lat="44.56478343737096" lon="9.179530935759905"><ele>951.25</ele><time>2026-03-29T15:00:01Z</time></trkpt><trkpt lat="44.564892878365015" lon="9.179601313831284"><ele>956.0</ele><time>2026-03-29T15:00:02Z</time></trkpt><trkpt lat="44.56501962423513" lon="9.179627454130681"><ele>956.0</ele><time>2026-03-29T15:00:03Z</time></trkpt><trkpt lat="44.56515914619573" lon="9.179601154802786"><ele>956.0</ele><time>2026-03-29T15:00:04Z</time></trkpt><trkpt lat="44.56530109645443" lon="9.179536494761377"><ele>956.0</ele><time>2026-03-29T15:00:05Z</time></trkpt><trkpt lat="44.56543954548847" lon="9.179459747263712"><ele>956.0</ele><time>2026-03-29T15:00:06Z</time></trkpt><trkpt lat="44.56558920836447" lon="9.179411025360375"><ele>957.0</ele><time>2026-03-29T15:00:07Z</time></trkpt><trkpt lat="44.56575273227858" lon="9.179425602898014"><ele>958.0</ele><time>2026-03-29T15:00:08Z</time></trkpt><trkpt lat="44.56589524260674" lon="9.179446767168642"><ele>959.0</ele><time>2026-03-29T15:00:09Z</time></trkpt><trkpt lat="44.56602021756193" lon="9.179468596484176"><ele>960.0</ele><time>2026-03-29T15:00:10Z</time></trkpt><trkpt lat="44.56612627490573" lon="9.179461967882919"><ele>956.75</ele><time>2026-03-29T15:00:11Z</time></trkpt><trkpt lat="44.566226218517826" lon="9.179389514977217"><ele>953.5</ele><time>2026-03-29T15:00:12Z</time></trkpt><trkpt lat="44.56633721889349" lon="9.179285791837449"><ele>950.25</ele><time>2026-03-29T15:00:13Z</time></trkpt><trkpt lat="44.56644372618279" lon="9.179155538255038"><ele>947.0</ele><time>2026-03-29T15:00:14Z</time></trkpt><trkpt lat="44.5665707236829" lon="9.179041771569878"><ele>961.3333333333334</ele><time>2026-03-29T15:00:15Z</time></trkpt><trkpt lat="44.566712032484105" lon="9.178927317059518"><ele>975.6666666666667</ele><time>2026-03-29T15:00:15.999Z</time></trkpt><trkpt lat="44.5668609722384" lon="9.17881195226728"><ele>990.0</ele><time>2026-03-29T15:00:16.999Z</time></trkpt><trkpt lat="44.567014330933794" lon="9.178681208895382"><ele>990.0</ele><time>2026-03-29T15:00:17.999Z</time></trkpt><trkpt lat="44.56714588010479" lon="9.178555429937022"><ele>990.0</ele><time>2026-03-29T15:00:18.999Z</time></trkpt><trkpt lat="44.567259590066996" lon="9.178444742032841"><ele>990.0</ele><time>2026-03-29T15:00:19.999Z</time></trkpt><trkpt lat="44.567359636127414" lon="9.178324999699237"><ele>990.0</ele><time>2026-03-29T15:00:20.999Z</time></trkpt><trkpt lat="44.56743596280324" lon="9.178180373541185"><ele>990.0</ele><time>2026-03-29T15:00:21.999Z</time></trkpt><trkpt lat="44.56748362650549" lon="9.17804507899073"><ele>990.0</ele><time>2026-03-29T15:00:22.999Z</time></trkpt><trkpt lat="44.56753611311214" lon="9.177935963228105"><ele>990.0</ele><time>2026-03-29T15:00:23.999Z</time></trkpt><trkpt lat="44.567605315218806" lon="9.177888768945298"><ele>990.0</ele><time>2026-03-29T15:00:24.999Z</time></trkpt><trkpt lat="44.56767637753953" lon="9.17787453233517"><ele>990.0</ele><time>2026-03-29T15:00:25.999Z</time></trkpt><trkpt lat="44.56774541522997" lon="9.177911571258674"><ele>990.0</ele><time>2026-03-29T15:00:26.999Z</time></trkpt><trkpt lat="44.567794846097605" lon="9.17801236170534"><ele>990.0</ele><time>2026-03-29T15:00:27.999Z</time></trkpt><trkpt lat="44.567821251457225" lon="9.17813961589544"><ele>990.0</ele><time>2026-03-29T15:00:28.999Z</time></trkpt><trkpt lat="44.56783437382426" lon="9.17829021560731"><ele>990.0</ele><time>2026-03-29T15:00:29.999Z</time></trkpt><trkpt lat="44.56783730372277" lon="9.178451103823742"><ele>990.0</ele><time>2026-03-29T15:00:30.999Z</time></trkpt><trkpt lat="44.56781230966884" lon="9.178621942336672"><ele>990.0</ele><time>2026-03-29T15:00:31.999Z</time></trkpt><trkpt lat="44.56775646756066" lon="9.1788039346347"><ele>982.3333333333333</ele><time>2026-03-29T15:00:32.999Z</time></trkpt><trkpt lat="44.567672432991756" lon="9.178977659136738"><ele>974.6666666666666</ele><time>2026-03-29T15:00:33.999Z</time></trkpt><trkpt lat="44.56757267956383" lon="9.179144052800575"><ele>967.0</ele><time>2026-03-29T15:00:34.999Z</time></trkpt><trkpt lat="44.56747469699426" lon="9.179300092268527"><ele>965.5</ele><time>2026-03-29T15:00:35.999Z</time></trkpt><trkpt lat="44.567383523236735" lon="9.179444730393016"><ele>964.0</ele><time>2026-03-29T15:00:36.999Z</time></trkpt><trkpt lat="44.56730630955333" lon="9.179585625369022"><ele>962.5</ele><time>2026-03-29T15:00:37.999Z</time></trkpt><trkpt lat="44.567244495452485" lon="9.179738226681087"><ele>961.0</ele><time>2026-03-29T15:00:38.999Z</time></trkpt><trkpt lat="44.56721107527129" lon="9.179896659921729"><ele>961.0</ele><time>2026-03-29T15:00:39.999Z</time></trkpt><trkpt lat="44.567202462413526" lon="9.180074688409926"><ele>961.0</ele><time>2026-03-29T15:00:40.999Z</time></trkpt><trkpt lat="44.56721600128474" lon="9.18026198930874"><ele>961.0</ele><time>2026-03-29T15:00:41.999Z</time></trkpt><trkpt lat="44.56724538219744" lon="9.180452094521819"><ele>961.0</ele><time>2026-03-29T15:00:42.999Z</time></trkpt><trkpt lat="44.56727656047516" lon="9.180643108866057"><ele>960.25</ele><time>2026-03-29T15:00:43.999Z</time></trkpt><trkpt lat="44.5672829304528" lon="9.180838997423345"><ele>959.5</ele><time>2026-03-29T15:00:44.999Z</time></trkpt><trkpt lat="44.56725323251332" lon="9.181011206206994"><ele>958.75</ele><time>2026-03-29T15:00:45.999Z</time></trkpt><trkpt lat="44.56721835347476" lon="9.181157936520222"><ele>958.0</ele><time>2026-03-29T15:00:46.999Z</time></trkpt><trkpt lat="44.56718738710302" lon="9.181280375515154"><ele>958.0</ele><time>2026-03-29T15:00:47.999Z</time></trkpt><trkpt lat="44.567179605912244" lon="9.181413604545986"><ele>958.0</ele><time>2026-03-29T15:00:48.999Z</time></trkpt><trkpt lat="44.56720771094347" lon="9.18156254148795"><ele>958.0</ele><time>2026-03-29T15:00:49.999Z</time></trkpt><trkpt lat="44.56726344810248" lon="9.181710265232295"><ele>958.0</ele><time>2026-03-29T15:00:50.999Z</time></trkpt><trkpt lat="44.56732441040261" lon="9.181849762685278"><ele>958.0</ele><time>2026-03-29T15:00:51.999Z</time></trkpt><trkpt lat="44.56738835960671" lon="9.181970934790703"><ele>956.5999999999999</ele><time>2026-03-29T15:00:52.999Z</time></trkpt><trkpt lat="44.56747341465109" lon="9.18205943854489"><ele>955.1999999999999</ele><time>2026-03-29T15:00:53.999Z</time></trkpt><trkpt lat="44.56757909084747" lon="9.182123966259699"><ele>953.8</ele><time>2026-03-29T15:00:54.999Z</time></trkpt><trkpt lat="44.56768438319859" lon="9.182168493200322"><ele>952.4</ele><time>2026-03-29T15:00:55.999Z</time></trkpt><trkpt lat="44.56777191373246" lon="9.182206368527163"><ele>951.0</ele><time>2026-03-29T15:00:56.999Z</time></trkpt><trkpt lat="44.56784836722986" lon="9.182228937297909"><ele>952.1999999999999</ele><time>2026-03-29T15:00:57.999Z</time></trkpt><trkpt lat="44.567928759276555" lon="9.182223292441396"><ele>953.3999999999999</ele><time>2026-03-29T15:00:59Z</time></trkpt><trkpt lat="44.568013203018126" lon="9.182225441570965"><ele>954.6</ele><time>2026-03-29T15:01:00Z</time></trkpt><trkpt lat="44.56812165888322" lon="9.182223550653317"><ele>955.8</ele><time>2026-03-29T15:01:01Z</time></trkpt><trkpt lat="44.56823280127426" lon="9.182171545082987"><ele>957.0</ele><time>2026-03-29T15:01:02Z</time></trkpt><trkpt lat="44.56832297747557" lon="9.182087158556023"><ele>957.0</ele><time>2026-03-29T15:01:03Z</time></trkpt><trkpt lat="44.56838022224717" lon="9.181969839526575"><ele>957.0</ele><time>2026-03-29T15:01:04Z</time></trkpt><trkpt lat="44.56846122608946" lon="9.181938303242223"><ele>957.0</ele><time>2026-03-29T15:01:05Z</time></trkpt><trkpt lat="44.56853342016258" lon="9.181943521154086"><ele>957.0</ele><time>2026-03-29T15:01:06Z</time></trkpt><trkpt lat="44.568593905065384" lon="9.181982476558087"><ele>957.0</ele><time>2026-03-29T15:01:07Z</time></trkpt><trkpt lat="44.56865212058385" lon="9.182054177844142"><ele>957.0</ele><time>2026-03-29T15:01:08Z</time></trkpt><trkpt lat="44.56870265945402" lon="9.182118782327036"><ele>956.1666666666666</ele><time>2026-03-29T15:01:09Z</time></trkpt><trkpt lat="44.56874969635545" lon="9.182186920910654"><ele>955.3333333333333</ele><time>2026-03-29T15:01:10Z</time></trkpt><trkpt lat="44.56879278009036" lon="9.182264777817458"><ele>954.5</ele><time>2026-03-29T15:01:11Z</time></trkpt><trkpt lat="44.568829744497364" lon="9.182357125207023"><ele>953.6666666666666</ele><time>2026-03-29T15:01:12Z</time></trkpt><trkpt lat="44.568842147122126" lon="9.182483982425337"><ele>952.8333333333333</ele><time>2026-03-29T15:01:13Z</time></trkpt><trkpt lat="44.56885041509655" lon="9.182607303971421"><ele>952.0</ele><time>2026-03-29T15:01:14Z</time></trkpt><trkpt lat="44.568873810180655" lon="9.18272999860289"><ele>952.0</ele><time>2026-03-29T15:01:15Z</time></trkpt><trkpt lat="44.56891032428914" lon="9.182833857692044"><ele>952.0</ele><time>2026-03-29T15:01:16Z</time></trkpt><trkpt lat="44.56896776700877" lon="9.182933970111511"><ele>952.0</ele><time>2026-03-29T15:01:17Z</time></trkpt><trkpt lat="44.56903514857019" lon="9.18303134968823"><ele>952.0</ele><time>2026-03-29T15:01:18Z</time></trkpt><trkpt lat="44.56912819488482" lon="9.183096172254585"><ele>952.0</ele><time>2026-03-29T15:01:19Z</time></trkpt><trkpt lat="44.56921350026314" lon="9.183160532888476"><ele>952.25</ele><time>2026-03-29T15:01:20Z</time></trkpt><trkpt lat="44.569299327441186" lon="9.18324142612532"><ele>952.5</ele><time>2026-03-29T15:01:21Z</time></trkpt><trkpt lat="44.56939914925729" lon="9.183321663373716"><ele>952.75</ele><time>2026-03-29T15:01:22Z</time></trkpt><trkpt lat="44.56949444750992" lon="9.183417031850945"><ele>953.0</ele><time>2026-03-29T15:01:23Z</time></trkpt><trkpt lat="44.56960265567412" lon="9.183496370111675"><ele>953.0</ele><time>2026-03-29T15:01:24Z</time></trkpt><trkpt lat="44.569710521888275" lon="9.18357763526119"><ele>953.0</ele><time>2026-03-29T15:01:25Z</time></trkpt><trkpt lat="44.56981473429196" lon="9.183672334135016"><ele>953.0</ele><time>2026-03-29T15:01:26Z</time></trkpt><trkpt lat="44.56990782597458" lon="9.183789152169274"><ele>953.0</ele><time>2026-03-29T15:01:27Z</time></trkpt><trkpt lat="44.569988719678264" lon="9.183916928303807"><ele>947.75</ele><time>2026-03-29T15:01:28Z</time></trkpt><trkpt lat="44.57006285809641" lon="9.184054177313909"><ele>942.5</ele><time>2026-03-29T15:01:29Z</time></trkpt><trkpt lat="44.570147149910255" lon="9.184183875545875"><ele>937.25</ele><time>2026-03-29T15:01:30Z</time></trkpt><trkpt lat="44.57024188396449" lon="9.184284073916228"><ele>932.0</ele><time>2026-03-29T15:01:31Z</time></trkpt><trkpt lat="44.570329257274594" lon="9.184359973480362"><ele>933.4000000000001</ele><time>2026-03-29T15:01:32Z</time></trkpt><trkpt lat="44.57039038885989" lon="9.18444604470667"><ele>934.8000000000001</ele><time>2026-03-29T15:01:33Z</time></trkpt><trkpt lat="44.57041291937765" lon="9.184560066146013"><ele>936.2</ele><time>2026-03-29T15:01:34Z</time></trkpt><trkpt lat="44.57040295961306" lon="9.184685429712331"><ele>937.6</ele><time>2026-03-29T15:01:35Z</time></trkpt><trkpt lat="44.570359916838974" lon="9.18480639746522"><ele>939.0</ele><time>2026-03-29T15:01:36Z</time></trkpt><trkpt lat="44.5702735552875" lon="9.18489101936987"><ele>939.0</ele><time>2026-03-29T15:01:37Z</time></trkpt><trkpt lat="44.570177160178794" lon="9.184934181071865"><ele>939.0</ele><time>2026-03-29T15:01:38Z</time></trkpt><trkpt lat="44.57006214225089" lon="9.18493658585302"><ele>939.0</ele><time>2026-03-29T15:01:39Z</time></trkpt><trkpt lat="44.569939187470396" lon="9.184916259186673"><ele>939.0</ele><time>2026-03-29T15:01:40Z</time></trkpt><trkpt lat="44.569792175655884" lon="9.184899947980993"><ele>939.0</ele><time>2026-03-29T15:01:41Z</time></trkpt><trkpt lat="44.569638525460086" lon="9.18488706776611"><ele>939.0</ele><time>2026-03-29T15:01:42Z</time></trkpt><trkpt lat="44.5694783089613" lon="9.1848719453126"><ele>939.0</ele><time>2026-03-29T15:01:43Z</time></trkpt><trkpt lat="44.569338669739814" lon="9.184840739135405"><ele>936.25</ele><time>2026-03-29T15:01:44Z</time></trkpt><trkpt lat="44.5692072427837" lon="9.18477652598271"><ele>933.5</ele><time>2026-03-29T15:01:45Z</time></trkpt><trkpt lat="44.56909283874467" lon="9.184687894402284"><ele>930.75</ele><time>2026-03-29T15:01:46Z</time></trkpt><trkpt lat="44.56897480335392" lon="9.184594869452061"><ele>928.0</ele><time>2026-03-29T15:01:47Z</time></trkpt><trkpt lat="44.56882240917251" lon="9.184619076400992"><ele>929.5</ele><time>2026-03-29T15:01:48Z</time></trkpt><trkpt lat="44.56868246746635" lon="9.184583385270136"><ele>931.0</ele><time>2026-03-29T15:01:49Z</time></trkpt><trkpt lat="44.56855227340659" lon="9.18450880295947"><ele>932.5</ele><time>2026-03-29T15:01:50Z</time></trkpt><trkpt lat="44.56841725561456" lon="9.184454938821457"><ele>934.0</ele><time>2026-03-29T15:01:51Z</time></trkpt><trkpt lat="44.5682722932342" lon="9.184425186799311"><ele>934.0</ele><time>2026-03-29T15:01:52Z</time></trkpt><trkpt lat="44.568121722499235" lon="9.18439033849533"><ele>934.0</ele><time>2026-03-29T15:01:53Z</time></trkpt><trkpt lat="44.56798436190613" lon="9.184357059688237"><ele>934.0</ele><time>2026-03-29T15:01:54Z</time></trkpt><trkpt lat="44.56784570565635" lon="9.18432206459105"><ele>934.0</ele><time>2026-03-29T15:01:55Z</time></trkpt><trkpt lat="44.56770308464615" lon="9.18430950775951"><ele>936.25</ele><time>2026-03-29T15:01:56Z</time></trkpt><trkpt lat="44.56756858052593" lon="9.18430955690922"><ele>938.5</ele><time>2026-03-29T15:01:57Z</time></trkpt><trkpt lat="44.5674379276414" lon="9.184320777391171"><ele>940.75</ele><time>2026-03-29T15:01:58Z</time></trkpt><trkpt lat="44.5673076689063" lon="9.18435907521804"><ele>943.0</ele><time>2026-03-29T15:01:59Z</time></trkpt><trkpt lat="44.56717894778463" lon="9.184408890768937"><ele>943.0</ele><time>2026-03-29T15:02:00Z</time></trkpt><trkpt lat="44.567051059218585" lon="9.184443684025043"><ele>943.0</ele><time>2026-03-29T15:02:01Z</time></trkpt><trkpt lat="44.566938661691275" lon="9.184529055535563"><ele>943.0</ele><time>2026-03-29T15:02:02Z</time></trkpt><trkpt lat="44.56682716122782" lon="9.184582082124116"><ele>943.0</ele><time>2026-03-29T15:02:03Z</time></trkpt><trkpt lat="44.56672756512" lon="9.184587193673492"><ele>944.5999999999999</ele><time>2026-03-29T15:02:04Z</time></trkpt><trkpt lat="44.56663759710979" lon="9.18453081266273"><ele>946.1999999999999</ele><time>2026-03-29T15:02:05Z</time></trkpt><trkpt lat="44.56656997538651" lon="9.184418541688935"><ele>947.8</ele><time>2026-03-29T15:02:06Z</time></trkpt><trkpt lat="44.566498888397426" lon="9.184298596600875"><ele>949.4</ele><time>2026-03-29T15:02:07Z</time></trkpt><trkpt lat="44.56641552552597" lon="9.184210821970204"><ele>951.0</ele><time>2026-03-29T15:02:08Z</time></trkpt><trkpt lat="44.56634586075698" lon="9.18413921873988"><ele>951.0</ele><time>2026-03-29T15:02:09Z</time></trkpt><trkpt lat="44.56627656885503" lon="9.184082090162743"><ele>951.0</ele><time>2026-03-29T15:02:10Z</time></trkpt><trkpt lat="44.56619940924727" lon="9.184051622178695"><ele>951.0</ele><time>2026-03-29T15:02:11Z</time></trkpt><trkpt lat="44.56611453598879" lon="9.184071221969424"><ele>951.0</ele><time>2026-03-29T15:02:12Z</time></trkpt><trkpt lat="44.566029466694495" lon="9.18413986203627"><ele>951.0</ele><time>2026-03-29T15:02:13Z</time></trkpt><trkpt lat="44.56594867429148" lon="9.184229029326845"><ele>951.0</ele><time>2026-03-29T15:02:14Z</time></trkpt><trkpt lat="44.56585074859172" lon="9.184314234263594"><ele>953.5</ele><time>2026-03-29T15:02:15Z</time></trkpt><trkpt lat="44.565744020464386" lon="9.184396909727807"><ele>956.0</ele><time>2026-03-29T15:02:16Z</time></trkpt><trkpt lat="44.565624607856435" lon="9.184467805694881"><ele>958.5</ele><time>2026-03-29T15:02:17Z</time></trkpt><trkpt lat="44.56550113039368" lon="9.184526978575317"><ele>961.0</ele><time>2026-03-29T15:02:18Z</time></trkpt><trkpt lat="44.56538773759969" lon="9.18458668898062"><ele>960.4</ele><time>2026-03-29T15:02:19Z</time></trkpt><trkpt lat="44.56528879298778" lon="9.184640177990174"><ele>959.8</ele><time>2026-03-29T15:02:20Z</time></trkpt><trkpt lat="44.5651963828853" lon="9.18469385322662"><ele>959.1999999999999</ele><time>2026-03-29T15:02:21Z</time></trkpt><trkpt lat="44.56511296120662" lon="9.184745556182746"><ele>958.5999999999999</ele><time>2026-03-29T15:02:22Z</time></trkpt><trkpt lat="44.56503608295584" lon="9.184806242267896"><ele>958.0</ele><time>2026-03-29T15:02:23Z</time></trkpt><trkpt lat="44.56496336626333" lon="9.184885769815594"><ele>960.4999999999999</ele><time>2026-03-29T15:02:24Z</time></trkpt><trkpt lat="44.56490388333104" lon="9.184971371153834"><ele>963.0</ele><time>2026-03-29T15:02:24.999Z</time></trkpt><trkpt lat="44.564850989563546" lon="9.185060606134112"><ele>965.5</ele><time>2026-03-29T15:02:25.999Z</time></trkpt><trkpt lat="44.56480668878502" lon="9.18516758683375"><ele>968.0</ele><time>2026-03-29T15:02:26.999Z</time></trkpt><trkpt lat="44.56477866808045" lon="9.185289582122733"><ele>970.4999999999999</ele><time>2026-03-29T15:02:27.999Z</time></trkpt><trkpt lat="44.56476702530034" lon="9.185423421174354"><ele>973.0</ele><time>2026-03-29T15:02:28.999Z</time></trkpt><trkpt lat="44.56476922245097" lon="9.185566838328008"><ele>975.8</ele><time>2026-03-29T15:02:29.999Z</time></trkpt><trkpt lat="44.56477831531065" lon="9.185714435886736"><ele>978.5999999999999</ele><time>2026-03-29T15:02:30.999Z</time></trkpt><trkpt lat="44.5647871559861" lon="9.185863521821044"><ele>981.4000000000001</ele><time>2026-03-29T15:02:31.999Z</time></trkpt><trkpt lat="44.564789765543786" lon="9.186024747522472"><ele>984.2</ele><time>2026-03-29T15:02:32.999Z</time></trkpt><trkpt lat="44.56478184276995" lon="9.186188002803092"><ele>987.0</ele><time>2026-03-29T15:02:33.999Z</time></trkpt><trkpt lat="44.564759030837365" lon="9.186352719362493"><ele>987.0</ele><time>2026-03-29T15:02:34.999Z</time></trkpt><trkpt lat="44.56474128135657" lon="9.18648012364116"><ele>987.0</ele><time>2026-03-29T15:02:35.999Z</time></trkpt><trkpt lat="44.56471557648183" lon="9.186584881473541"><ele>987.0</ele><time>2026-03-29T15:02:36.999Z</time></trkpt><trkpt lat="44.56468501745963" lon="9.186676009685302"><ele>987.0</ele><time>2026-03-29T15:02:37.999Z</time></trkpt><trkpt lat="44.564569312786276" lon="9.186732803055122"><ele>987.0</ele><time>2026-03-29T15:02:39.999Z</time></trkpt><trkpt lat="44.56450137246597" lon="9.186692887276312"><ele>987.0</ele><time>2026-03-29T15:02:40.999Z</time></trkpt><trkpt lat="44.564431557061596" lon="9.186628180656253"><ele>987.4000000000001</ele><time>2026-03-29T15:02:41.999Z</time></trkpt><trkpt lat="44.56436201585438" lon="9.18654679713278"><ele>987.8000000000001</ele><time>2026-03-29T15:02:42.999Z</time></trkpt><trkpt lat="44.56425837359989" lon="9.186494549171995"><ele>988.2</ele><time>2026-03-29T15:02:43.999Z</time></trkpt><trkpt lat="44.56414063281891" lon="9.186472630821324"><ele>988.6</ele><time>2026-03-29T15:02:44.999Z</time></trkpt><trkpt lat="44.56403053944727" lon="9.186465341515904"><ele>989.0</ele><time>2026-03-29T15:02:45.999Z</time></trkpt><trkpt lat="44.56393761121142" lon="9.186479439580209"><ele>987.2</ele><time>2026-03-29T15:02:46.999Z</time></trkpt><trkpt lat="44.56384680945152" lon="9.186466439583805"><ele>985.4000000000001</ele><time>2026-03-29T15:02:47.999Z</time></trkpt><trkpt lat="44.56376040444347" lon="9.186458997125102"><ele>983.6</ele><time>2026-03-29T15:02:48.999Z</time></trkpt><trkpt lat="44.563671533758175" lon="9.186423783585916"><ele>981.8</ele><time>2026-03-29T15:02:49.999Z</time></trkpt><trkpt lat="44.56356640163798" lon="9.186412797830496"><ele>980.0</ele><time>2026-03-29T15:02:50.999Z</time></trkpt><trkpt lat="44.563465918509316" lon="9.186415253107247"><ele>978.6</ele><time>2026-03-29T15:02:51.999Z</time></trkpt><trkpt lat="44.56339424599423" lon="9.186417004405085"><ele>977.2</ele><time>2026-03-29T15:02:52.999Z</time></trkpt><trkpt lat="44.56333375069229" lon="9.186567686287454"><ele>975.8</ele><time>2026-03-29T15:02:53.999Z</time></trkpt><trkpt lat="44.56329274533669" lon="9.186716956845846"><ele>974.4</ele><time>2026-03-29T15:02:55.999Z</time></trkpt><trkpt lat="44.563325636955355" lon="9.186803816409245"><ele>973.0</ele><time>2026-03-29T15:02:56.999Z</time></trkpt><trkpt lat="44.563388560222904" lon="9.186873243495613"><ele>976.2</ele><time>2026-03-29T15:02:57.999Z</time></trkpt><trkpt lat="44.56347964171302" lon="9.186923017980378"><ele>979.4</ele><time>2026-03-29T15:02:58.999Z</time></trkpt><trkpt lat="44.56357862383982" lon="9.186975162176521"><ele>982.6000000000001</ele><time>2026-03-29T15:02:59.999Z</time></trkpt><trkpt lat="44.56367863231162" lon="9.187040111607342"><ele>985.8000000000001</ele><time>2026-03-29T15:03:00.999Z</time></trkpt><trkpt lat="44.563782159165854" lon="9.187091347789204"><ele>989.0</ele><time>2026-03-29T15:03:01.999Z</time></trkpt><trkpt lat="44.56389710113397" lon="9.187106001223542"><ele>989.0</ele><time>2026-03-29T15:03:02.999Z</time></trkpt><trkpt lat="44.564015581649954" lon="9.187118902272555"><ele>989.0000000000001</ele><time>2026-03-29T15:03:03.999Z</time></trkpt><trkpt lat="44.56412278047264" lon="9.18715120854121"><ele>989.0000000000001</ele><time>2026-03-29T15:03:05Z</time></trkpt><trkpt lat="44.564221192102764" lon="9.18721199971496"><ele>989.0</ele><time>2026-03-29T15:03:06Z</time></trkpt><trkpt lat="44.56430891712392" lon="9.187296858666004"><ele>989.0</ele><time>2026-03-29T15:03:07Z</time></trkpt><trkpt lat="44.564386407423335" lon="9.187371972923195"><ele>992.1666666666667</ele><time>2026-03-29T15:03:08Z</time></trkpt><trkpt lat="44.56445077722295" lon="9.187424962893143"><ele>995.3333333333334</ele><time>2026-03-29T15:03:09Z</time></trkpt><trkpt lat="44.56451750468813" lon="9.18748599356824"><ele>998.5</ele><time>2026-03-29T15:03:10Z</time></trkpt><trkpt lat="44.56457704745476" lon="9.187574491788137"><ele>1001.6666666666667</ele><time>2026-03-29T15:03:11Z</time></trkpt><trkpt lat="44.5646344423141" lon="9.187667749531778"><ele>1004.8333333333334</ele><time>2026-03-29T15:03:12Z</time></trkpt><trkpt lat="44.56469482475573" lon="9.187755410729771"><ele>1008.0</ele><time>2026-03-29T15:03:13Z</time></trkpt><trkpt lat="44.56475686254153" lon="9.187842337432047"><ele>1008.1666666666666</ele><time>2026-03-29T15:03:14Z</time></trkpt><trkpt lat="44.56482109784784" lon="9.187921936078755"><ele>1008.3333333333333</ele><time>2026-03-29T15:03:15Z</time></trkpt><trkpt lat="44.564893881897355" lon="9.1879685171189"><ele>1008.5</ele><time>2026-03-29T15:03:16Z</time></trkpt><trkpt lat="44.56497506065278" lon="9.187969359423317"><ele>1008.6666666666666</ele><time>2026-03-29T15:03:17Z</time></trkpt><trkpt lat="44.5650487764686" lon="9.187928822743284"><ele>1008.8333333333333</ele><time>2026-03-29T15:03:18Z</time></trkpt><trkpt lat="44.56511478224826" lon="9.187845389948913"><ele>1009.0</ele><time>2026-03-29T15:03:19Z</time></trkpt><trkpt lat="44.565158159897145" lon="9.187728976339224"><ele>1009.0</ele><time>2026-03-29T15:03:20Z</time></trkpt><trkpt lat="44.56519666073381" lon="9.18759842186809"><ele>1009.0000000000001</ele><time>2026-03-29T15:03:21Z</time></trkpt><trkpt lat="44.5652391978237" lon="9.187459050536548"><ele>1009.0000000000001</ele><time>2026-03-29T15:03:22Z</time></trkpt><trkpt lat="44.56528929372775" lon="9.187331094313487"><ele>1009.0</ele><time>2026-03-29T15:03:23Z</time></trkpt><trkpt lat="44.56535330732099" lon="9.187230993485201"><ele>1009.0</ele><time>2026-03-29T15:03:24Z</time></trkpt><trkpt lat="44.565440515070854" lon="9.187155800858125"><ele>1010.0</ele><time>2026-03-29T15:03:25Z</time></trkpt><trkpt lat="44.56553593160016" lon="9.187086972893777"><ele>1011.0000000000001</ele><time>2026-03-29T15:03:26Z</time></trkpt><trkpt lat="44.56562273381291" lon="9.18700091425673"><ele>1012.0000000000001</ele><time>2026-03-29T15:03:27Z</time></trkpt><trkpt lat="44.565706872999584" lon="9.18690118889966"><ele>1013.0</ele><time>2026-03-29T15:03:28Z</time></trkpt><trkpt lat="44.56579895394235" lon="9.186815389069348"><ele>1014.0</ele><time>2026-03-29T15:03:29Z</time></trkpt><trkpt lat="44.56589677933537" lon="9.186759841005847"><ele>1014.0</ele><time>2026-03-29T15:03:30Z</time></trkpt><trkpt lat="44.56599871701308" lon="9.186744906837509"><ele>1014.0000000000001</ele><time>2026-03-29T15:03:31Z</time></trkpt><trkpt lat="44.56610675436296" lon="9.18676902541837"><ele>1014.0000000000001</ele><time>2026-03-29T15:03:32Z</time></trkpt><trkpt lat="44.56621406563576" lon="9.186819697895604"><ele>1014.0</ele><time>2026-03-29T15:03:33Z</time></trkpt><trkpt lat="44.566323486357724" lon="9.186873688353153"><ele>1014.0</ele><time>2026-03-29T15:03:34Z</time></trkpt><trkpt lat="44.5664404847047" lon="9.186925272747597"><ele>1015.2</ele><time>2026-03-29T15:03:35Z</time></trkpt><trkpt lat="44.56656228722621" lon="9.18697193312842"><ele>1016.4000000000001</ele><time>2026-03-29T15:03:36Z</time></trkpt><trkpt lat="44.56667979833985" lon="9.187025807211306"><ele>1017.6</ele><time>2026-03-29T15:03:37Z</time></trkpt><trkpt lat="44.56677599346649" lon="9.187082938110724"><ele>1018.8</ele><time>2026-03-29T15:03:38Z</time></trkpt><trkpt lat="44.566850370687945" lon="9.187149149394271"><ele>1020.0</ele><time>2026-03-29T15:03:39Z</time></trkpt><trkpt lat="44.56688180776003" lon="9.187230855050604"><ele>1020.0</ele><time>2026-03-29T15:03:40Z</time></trkpt><trkpt lat="44.56683832078159" lon="9.18737089813335"><ele>1020.0</ele><time>2026-03-29T15:03:42Z</time></trkpt><trkpt lat="44.566748881163576" lon="9.18734125244041"><ele>1020.0</ele><time>2026-03-29T15:03:43Z</time></trkpt><trkpt lat="44.566650849059535" lon="9.187342596182646"><ele>1020.0</ele><time>2026-03-29T15:03:44Z</time></trkpt><trkpt lat="44.566528676567984" lon="9.187368117008992"><ele>1020.0</ele><time>2026-03-29T15:03:45Z</time></trkpt><trkpt lat="44.566395540384775" lon="9.187384329386218"><ele>1021.6</ele><time>2026-03-29T15:03:46Z</time></trkpt><trkpt lat="44.56627200426813" lon="9.187394438342192"><ele>1023.2</ele><time>2026-03-29T15:03:47Z</time></trkpt><trkpt lat="44.56616096615815" lon="9.187412793661696"><ele>1024.8</ele><time>2026-03-29T15:03:48Z</time></trkpt><trkpt lat="44.566061848603034" lon="9.187449842125657"><ele>1026.4</ele><time>2026-03-29T15:03:49Z</time></trkpt><trkpt lat="44.56596714416989" lon="9.18752024206407"><ele>1028.0</ele><time>2026-03-29T15:03:50Z</time></trkpt><trkpt lat="44.565885429120186" lon="9.187641903143827"><ele>1028.0</ele><time>2026-03-29T15:03:51Z</time></trkpt><trkpt lat="44.56582071431205" lon="9.187799051008673"><ele>1028.0</ele><time>2026-03-29T15:03:52Z</time></trkpt><trkpt lat="44.56575642487932" lon="9.187963946620046"><ele>1028.0</ele><time>2026-03-29T15:03:53Z</time></trkpt><trkpt lat="44.5656863428724" lon="9.188135791678057"><ele>1028.0</ele><time>2026-03-29T15:03:54Z</time></trkpt><trkpt lat="44.565600363472996" lon="9.188288852942438"><ele>1028.0</ele><time>2026-03-29T15:03:55Z</time></trkpt><trkpt lat="44.56552299333409" lon="9.188450947485299"><ele>1028.0</ele><time>2026-03-29T15:03:56Z</time></trkpt><trkpt lat="44.565465610607575" lon="9.188623131172383"><ele>1028.0</ele><time>2026-03-29T15:03:57Z</time></trkpt><trkpt lat="44.5654130834555" lon="9.188782435238938"><ele>1028.0</ele><time>2026-03-29T15:03:58Z</time></trkpt><trkpt lat="44.56533130688581" lon="9.188914732715608"><ele>1034.25</ele><time>2026-03-29T15:03:59Z</time></trkpt><trkpt lat="44.56522447322449" lon="9.189021528374385"><ele>1040.5</ele><time>2026-03-29T15:04:00Z</time></trkpt><trkpt lat="44.56510836782994" lon="9.189117041809906"><ele>1046.75</ele><time>2026-03-29T15:04:01Z</time></trkpt><trkpt lat="44.56497415285823" lon="9.189147869287863"><ele>1053.0</ele><time>2026-03-29T15:04:02Z</time></trkpt><trkpt lat="44.564835286676505" lon="9.18917452380858"><ele>1053.0</ele><time>2026-03-29T15:04:03Z</time></trkpt><trkpt lat="44.56470224176393" lon="9.189233483531671"><ele>1053.0</ele><time>2026-03-29T15:04:04Z</time></trkpt><trkpt lat="44.56458430135025" lon="9.189282117426384"><ele>1053.0</ele><time>2026-03-29T15:04:05Z</time></trkpt><trkpt lat="44.56448190758734" lon="9.18933396154316"><ele>1053.0</ele><time>2026-03-29T15:04:06Z</time></trkpt><trkpt lat="44.564394158806756" lon="9.18940888176928"><ele>1052.8</ele><time>2026-03-29T15:04:07Z</time></trkpt><trkpt lat="44.56433396346725" lon="9.1895288911435"><ele>1052.6</ele><time>2026-03-29T15:04:08Z</time></trkpt><trkpt lat="44.56429817053586" lon="9.189674288151938"><ele>1052.4</ele><time>2026-03-29T15:04:09Z</time></trkpt><trkpt lat="44.56427059491532" lon="9.18980431994335"><ele>1052.2</ele><time>2026-03-29T15:04:10Z</time></trkpt><trkpt lat="44.56421170280917" lon="9.189879535809407"><ele>1052.0</ele><time>2026-03-29T15:04:11Z</time></trkpt><trkpt lat="44.56414040217439" lon="9.189883957708501"><ele>1052.0</ele><time>2026-03-29T15:04:12Z</time></trkpt><trkpt lat="44.56408736768156" lon="9.189792806746782"><ele>1052.0</ele><time>2026-03-29T15:04:13Z</time></trkpt><trkpt lat="44.56399553457225" lon="9.189733914707476"><ele>1052.0</ele><time>2026-03-29T15:04:14Z</time></trkpt><trkpt lat="44.56390925398265" lon="9.189662395768936"><ele>1052.0</ele><time>2026-03-29T15:04:15Z</time></trkpt><trkpt lat="44.56381221399787" lon="9.18962145418778"><ele>1052.0</ele><time>2026-03-29T15:04:16Z</time></trkpt><trkpt lat="44.56373282112404" lon="9.18961578278724"><ele>1052.6</ele><time>2026-03-29T15:04:17Z</time></trkpt><trkpt lat="44.56365862497354" lon="9.18961515617233"><ele>1053.2</ele><time>2026-03-29T15:04:18Z</time></trkpt><trkpt lat="44.56361490143573" lon="9.189723412951766"><ele>1053.8</ele><time>2026-03-29T15:04:19Z</time></trkpt><trkpt lat="44.56361086403389" lon="9.189846385234862"><ele>1054.4</ele><time>2026-03-29T15:04:20Z</time></trkpt><trkpt lat="44.56365664863629" lon="9.18996693593501"><ele>1055.0</ele><time>2026-03-29T15:04:21Z</time></trkpt><trkpt lat="44.56373988723236" lon="9.190069169167455"><ele>1058.25</ele><time>2026-03-29T15:04:22Z</time></trkpt><trkpt lat="44.563841277219005" lon="9.190171587141151"><ele>1061.5</ele><time>2026-03-29T15:04:23Z</time></trkpt><trkpt lat="44.56396512890974" lon="9.1902801976484"><ele>1064.75</ele><time>2026-03-29T15:04:24Z</time></trkpt><trkpt lat="44.56411209829956" lon="9.19036895019246"><ele>1068.0</ele><time>2026-03-29T15:04:25Z</time></trkpt><trkpt lat="44.56426187673077" lon="9.190413239959812"><ele>1068.0</ele><time>2026-03-29T15:04:26Z</time></trkpt><trkpt lat="44.56441888365756" lon="9.190417248528561"><ele>1068.0</ele><time>2026-03-29T15:04:27Z</time></trkpt><trkpt lat="44.56458650043127" lon="9.190379877015475"><ele>1068.0</ele><time>2026-03-29T15:04:28Z</time></trkpt><trkpt lat="44.56475588863575" lon="9.190340182009198"><ele>1070.3333333333333</ele><time>2026-03-29T15:04:29Z</time></trkpt><trkpt lat="44.564928905254625" lon="9.190317794165473"><ele>1072.6666666666665</ele><time>2026-03-29T15:04:30Z</time></trkpt><trkpt lat="44.565103605171686" lon="9.190304317778947"><ele>1075.0</ele><time>2026-03-29T15:04:31Z</time></trkpt><trkpt lat="44.565278061157024" lon="9.190267408316721"><ele>1080.0</ele><time>2026-03-29T15:04:32Z</time></trkpt><trkpt lat="44.565458806845015" lon="9.19023713775041"><ele>1085.0</ele><time>2026-03-29T15:04:33Z</time></trkpt><trkpt lat="44.565612546930055" lon="9.190122567891368"><ele>1090.0</ele><time>2026-03-29T15:04:34Z</time></trkpt><trkpt lat="44.56575449194983" lon="9.190019588043285"><ele>1090.0</ele><time>2026-03-29T15:04:35Z</time></trkpt><trkpt lat="44.565897494608635" lon="9.189959394652423"><ele>1090.0</ele><time>2026-03-29T15:04:36Z</time></trkpt><trkpt lat="44.56601770308113" lon="9.189890591291018"><ele>1090.0</ele><time>2026-03-29T15:04:36.999Z</time></trkpt><trkpt lat="44.56611353845152" lon="9.189815337439194"><ele>1090.0</ele><time>2026-03-29T15:04:37.999Z</time></trkpt><trkpt lat="44.56622188646012" lon="9.189798651403972"><ele>1092.25</ele><time>2026-03-29T15:04:38.999Z</time></trkpt><trkpt lat="44.56633696672745" lon="9.189818715560918"><ele>1094.5</ele><time>2026-03-29T15:04:39.999Z</time></trkpt><trkpt lat="44.566457464201484" lon="9.18984490379525"><ele>1096.75</ele><time>2026-03-29T15:04:40.999Z</time></trkpt><trkpt lat="44.56658232071178" lon="9.189871347330099"><ele>1099.0</ele><time>2026-03-29T15:04:41.999Z</time></trkpt><trkpt lat="44.56670725939628" lon="9.189920122961098"><ele>1099.0</ele><time>2026-03-29T15:04:42.999Z</time></trkpt><trkpt lat="44.56682528110535" lon="9.189969025604817"><ele>1099.0</ele><time>2026-03-29T15:04:43.999Z</time></trkpt><trkpt lat="44.56692851754363" lon="9.189984728753213"><ele>1099.0</ele><time>2026-03-29T15:04:44.999Z</time></trkpt><trkpt lat="44.56702562545035" lon="9.189954314156648"><ele>1099.0</ele><time>2026-03-29T15:04:45.999Z</time></trkpt><trkpt lat="44.567110006007496" lon="9.189904707161668"><ele>1099.0</ele><time>2026-03-29T15:04:46.999Z</time></trkpt><trkpt lat="44.56718901713583" lon="9.18988268184553"><ele>1100.2</ele><time>2026-03-29T15:04:47.999Z</time></trkpt><trkpt lat="44.56727662633834" lon="9.189907674052602"><ele>1101.4</ele><time>2026-03-29T15:04:48.999Z</time></trkpt><trkpt lat="44.56736707735391" lon="9.189977160380078"><ele>1102.6</ele><time>2026-03-29T15:04:49.999Z</time></trkpt><trkpt lat="44.567469759383826" lon="9.190029040104726"><ele>1103.8</ele><time>2026-03-29T15:04:50.999Z</time></trkpt><trkpt lat="44.56758561252466" lon="9.190038644209496"><ele>1105.0</ele><time>2026-03-29T15:04:51.999Z</time></trkpt><trkpt lat="44.56770061040839" lon="9.19000193762399"><ele>1105.0</ele><time>2026-03-29T15:04:52.999Z</time></trkpt><trkpt lat="44.56781881509601" lon="9.18993923309547"><ele>1105.0</ele><time>2026-03-29T15:04:53.999Z</time></trkpt><trkpt lat="44.56793645991046" lon="9.189866473186838"><ele>1105.0</ele><time>2026-03-29T15:04:54.999Z</time></trkpt><trkpt lat="44.56803402250493" lon="9.189757498664907"><ele>1105.0</ele><time>2026-03-29T15:04:55.999Z</time></trkpt><trkpt lat="44.56811850108374" lon="9.189656595975771"><ele>1104.6</ele><time>2026-03-29T15:04:56.999Z</time></trkpt><trkpt lat="44.56821216963344" lon="9.18959472318919"><ele>1104.2</ele><time>2026-03-29T15:04:57.999Z</time></trkpt><trkpt lat="44.56829639962375" lon="9.189524898736769"><ele>1103.8</ele><time>2026-03-29T15:04:58.999Z</time></trkpt><trkpt lat="44.568387919220434" lon="9.189464976161549"><ele>1103.4</ele><time>2026-03-29T15:04:59.999Z</time></trkpt><trkpt lat="44.56849124745524" lon="9.189450512048666"><ele>1103.0</ele><time>2026-03-29T15:05:00.999Z</time></trkpt><trkpt lat="44.568601184053904" lon="9.189466516834678"><ele>1102.8</ele><time>2026-03-29T15:05:01.999Z</time></trkpt><trkpt lat="44.56870920265155" lon="9.18950739930447"><ele>1102.6</ele><time>2026-03-29T15:05:02.999Z</time></trkpt><trkpt lat="44.56881374741047" lon="9.189546581941649"><ele>1102.4</ele><time>2026-03-29T15:05:03.999Z</time></trkpt><trkpt lat="44.56891209692978" lon="9.18958020302902"><ele>1102.2</ele><time>2026-03-29T15:05:04.999Z</time></trkpt><trkpt lat="44.568995616277626" lon="9.189637291403024"><ele>1102.0</ele><time>2026-03-29T15:05:05.999Z</time></trkpt><trkpt lat="44.56907325768858" lon="9.189735116790578"><ele>1108.25</ele><time>2026-03-29T15:05:06.999Z</time></trkpt><trkpt lat="44.56915811358484" lon="9.189842847023012"><ele>1114.5</ele><time>2026-03-29T15:05:07.999Z</time></trkpt><trkpt lat="44.569270741754" lon="9.189931338724188"><ele>1120.75</ele><time>2026-03-29T15:05:08.999Z</time></trkpt><trkpt lat="44.56939311712488" lon="9.19001473917356"><ele>1127.0</ele><time>2026-03-29T15:05:09.999Z</time></trkpt><trkpt lat="44.569507568814885" lon="9.190105106568097"><ele>1126.8</ele><time>2026-03-29T15:05:11Z</time></trkpt><trkpt lat="44.56960779771197" lon="9.190195014736693"><ele>1126.6</ele><time>2026-03-29T15:05:12Z</time></trkpt><trkpt lat="44.5696803853707" lon="9.190301559896225"><ele>1126.3999999999999</ele><time>2026-03-29T15:05:13Z</time></trkpt><trkpt lat="44.56973054394256" lon="9.190422869711629"><ele>1126.2</ele><time>2026-03-29T15:05:14Z</time></trkpt><trkpt lat="44.56974855423456" lon="9.190562658098932"><ele>1126.0</ele><time>2026-03-29T15:05:15Z</time></trkpt><trkpt lat="44.56975113970344" lon="9.190710527722995"><ele>1126.0</ele><time>2026-03-29T15:05:16Z</time></trkpt><trkpt lat="44.56975854416099" lon="9.19085808728416"><ele>1126.0</ele><time>2026-03-29T15:05:17Z</time></trkpt><trkpt lat="44.56978039082431" lon="9.191017917700362"><ele>1126.0</ele><time>2026-03-29T15:05:18Z</time></trkpt><trkpt lat="44.569824047664156" lon="9.19116547976854"><ele>1126.0</ele><time>2026-03-29T15:05:19Z</time></trkpt><trkpt lat="44.569882643080376" lon="9.19129060712585"><ele>1126.0</ele><time>2026-03-29T15:05:20Z</time></trkpt><trkpt lat="44.56994765658672" lon="9.191371186706592"><ele>1126.0</ele><time>2026-03-29T15:05:21Z</time></trkpt><trkpt lat="44.57000747652091" lon="9.19145640516822"><ele>1126.0</ele><time>2026-03-29T15:05:22Z</time></trkpt><trkpt lat="44.57004054453714" lon="9.19158137215648"><ele>1126.0</ele><time>2026-03-29T15:05:23Z</time></trkpt><trkpt lat="44.57006531167169" lon="9.191721165904568"><ele>1126.0</ele><time>2026-03-29T15:05:24Z</time></trkpt><trkpt lat="44.570115061937216" lon="9.191859861792341"><ele>1126.0</ele><time>2026-03-29T15:05:25Z</time></trkpt><trkpt lat="44.57016665323429" lon="9.192009618865812"><ele>1130.0</ele><time>2026-03-29T15:05:26Z</time></trkpt><trkpt lat="44.57021322908238" lon="9.192157590912519"><ele>1134.0</ele><time>2026-03-29T15:05:27Z</time></trkpt><trkpt lat="44.57025070714751" lon="9.192307932500873"><ele>1138.0</ele><time>2026-03-29T15:05:28Z</time></trkpt><trkpt lat="44.57027825083192" lon="9.192446489902055"><ele>1142.0</ele><time>2026-03-29T15:05:29Z</time></trkpt><trkpt lat="44.570281689900554" lon="9.192569426744493"><ele>1146.0</ele><time>2026-03-29T15:05:30Z</time></trkpt><trkpt lat="44.57031961244613" lon="9.192686124016591"><ele>1145.3333333333333</ele><time>2026-03-29T15:05:31Z</time></trkpt><trkpt lat="44.570410601351895" lon="9.192765237920069"><ele>1144.6666666666667</ele><time>2026-03-29T15:05:32Z</time></trkpt><trkpt lat="44.570507511058125" lon="9.192758353496652"><ele>1144.0</ele><time>2026-03-29T15:05:33Z</time></trkpt><trkpt lat="44.57059246333385" lon="9.192757427980563"><ele>1143.3333333333335</ele><time>2026-03-29T15:05:34Z</time></trkpt><trkpt lat="44.5706606022685" lon="9.192786670908507"><ele>1142.6666666666667</ele><time>2026-03-29T15:05:35Z</time></trkpt><trkpt lat="44.57071793877807" lon="9.1928376241283"><ele>1142.0</ele><time>2026-03-29T15:05:36Z</time></trkpt><trkpt lat="44.570762020110706" lon="9.192904166869939"><ele>1142.0</ele><time>2026-03-29T15:05:37Z</time></trkpt><trkpt lat="44.570801796574564" lon="9.193009163642081"><ele>1142.0</ele><time>2026-03-29T15:05:38Z</time></trkpt><trkpt lat="44.57083556359683" lon="9.19312208282343"><ele>1142.0</ele><time>2026-03-29T15:05:39Z</time></trkpt><trkpt lat="44.57083998287877" lon="9.193241517083557"><ele>1142.0</ele><time>2026-03-29T15:05:40Z</time></trkpt><trkpt lat="44.57083373614936" lon="9.193359936149385"><ele>1142.0</ele><time>2026-03-29T15:05:41Z</time></trkpt><trkpt lat="44.57086775339525" lon="9.19348333261548"><ele>1142.0</ele><time>2026-03-29T15:05:42Z</time></trkpt><trkpt lat="44.57090774200824" lon="9.193598358783337"><ele>1145.0</ele><time>2026-03-29T15:05:43Z</time></trkpt><trkpt lat="44.571009241062455" lon="9.193624588721859"><ele>1148.0</ele><time>2026-03-29T15:05:44Z</time></trkpt><trkpt lat="44.57107950078695" lon="9.193668666202376"><ele>1151.0</ele><time>2026-03-29T15:05:45Z</time></trkpt><trkpt lat="44.57112196780752" lon="9.193765784427994"><ele>1154.0</ele><time>2026-03-29T15:05:46Z</time></trkpt><trkpt lat="44.57114011260064" lon="9.193884347930032"><ele>1157.0</ele><time>2026-03-29T15:05:47Z</time></trkpt><trkpt lat="44.57113387635464" lon="9.194007154018703"><ele>1160.0</ele><time>2026-03-29T15:05:48Z</time></trkpt><trkpt lat="44.57113196451634" lon="9.19413365467018"><ele>1161.8</ele><time>2026-03-29T15:05:49Z</time></trkpt><trkpt lat="44.57119555372639" lon="9.194245791894689"><ele>1163.6</ele><time>2026-03-29T15:05:50Z</time></trkpt><trkpt lat="44.57127527023392" lon="9.19431779409854"><ele>1165.4</ele><time>2026-03-29T15:05:51Z</time></trkpt><trkpt lat="44.57136722340892" lon="9.194353243390601"><ele>1167.2</ele><time>2026-03-29T15:05:52Z</time></trkpt><trkpt lat="44.57145888506243" lon="9.19439273763526"><ele>1169.0</ele><time>2026-03-29T15:05:53Z</time></trkpt><trkpt lat="44.571564565454715" lon="9.194379726823284"><ele>1169.0</ele><time>2026-03-29T15:05:54Z</time></trkpt><trkpt lat="44.57165788954021" lon="9.194325227355854"><ele>1169.0</ele><time>2026-03-29T15:05:55Z</time></trkpt><trkpt lat="44.57171090602005" lon="9.194234205299788"><ele>1169.0</ele><time>2026-03-29T15:05:56Z</time></trkpt><trkpt lat="44.57179430088676" lon="9.194196295895228"><ele>1169.0</ele><time>2026-03-29T15:05:57Z</time></trkpt><trkpt lat="44.57189909960228" lon="9.194153919487357"><ele>1169.0</ele><time>2026-03-29T15:05:58Z</time></trkpt><trkpt lat="44.57201560776496" lon="9.19418517063042"><ele>1170.2</ele><time>2026-03-29T15:05:59Z</time></trkpt><trkpt lat="44.572106149172264" lon="9.194215543587747"><ele>1171.4</ele><time>2026-03-29T15:06:00Z</time></trkpt><trkpt lat="44.57221330754742" lon="9.194179919675248"><ele>1172.6</ele><time>2026-03-29T15:06:01Z</time></trkpt><trkpt lat="44.57232350609465" lon="9.194133377696387"><ele>1173.8</ele><time>2026-03-29T15:06:02Z</time></trkpt><trkpt lat="44.57242113266691" lon="9.19411666646491"><ele>1175.0</ele><time>2026-03-29T15:06:03Z</time></trkpt><trkpt lat="44.5725050758227" lon="9.194132417130243"><ele>1175.0</ele><time>2026-03-29T15:06:04Z</time></trkpt><trkpt lat="44.57258501139489" lon="9.194191122053482"><ele>1175.0</ele><time>2026-03-29T15:06:05Z</time></trkpt><trkpt lat="44.57265874493871" lon="9.194279628473586"><ele>1175.0</ele><time>2026-03-29T15:06:06Z</time></trkpt><trkpt lat="44.57275246759987" lon="9.194358121609207"><ele>1175.0</ele><time>2026-03-29T15:06:07Z</time></trkpt><trkpt lat="44.57286591796276" lon="9.19441655258961"><ele>1175.0</ele><time>2026-03-29T15:06:08Z</time></trkpt><trkpt lat="44.57298140888761" lon="9.194471522395006"><ele>1175.25</ele><time>2026-03-29T15:06:09Z</time></trkpt><trkpt lat="44.57310422659922" lon="9.194524123216631"><ele>1175.5</ele><time>2026-03-29T15:06:10Z</time></trkpt><trkpt lat="44.57322542986864" lon="9.19454844933622"><ele>1175.75</ele><time>2026-03-29T15:06:11Z</time></trkpt><trkpt lat="44.57333856794858" lon="9.194545123060818"><ele>1176.0</ele><time>2026-03-29T15:06:12Z</time></trkpt><trkpt lat="44.57344140462987" lon="9.19454526158472"><ele>1176.0</ele><time>2026-03-29T15:06:13Z</time></trkpt><trkpt lat="44.57353424115937" lon="9.194519827986303"><ele>1176.0</ele><time>2026-03-29T15:06:14Z</time></trkpt><trkpt lat="44.57360528974688" lon="9.194447980239678"><ele>1176.0</ele><time>2026-03-29T15:06:15Z</time></trkpt><trkpt lat="44.57366592128788" lon="9.194384906832866"><ele>1176.0</ele><time>2026-03-29T15:06:16Z</time></trkpt><trkpt lat="44.57374333314479" lon="9.194410120208502"><ele>1176.0</ele><time>2026-03-29T15:06:17Z</time></trkpt><trkpt lat="44.57380624349116" lon="9.194481527185932"><ele>1176.0</ele><time>2026-03-29T15:06:18Z</time></trkpt><trkpt lat="44.57386012647663" lon="9.194568081027038"><ele>1176.5</ele><time>2026-03-29T15:06:19Z</time></trkpt><trkpt lat="44.573925358240494" lon="9.19463503194794"><ele>1177.0</ele><time>2026-03-29T15:06:20Z</time></trkpt><trkpt lat="44.57399588174125" lon="9.19466795040511"><ele>1177.5</ele><time>2026-03-29T15:06:21Z</time></trkpt><trkpt lat="44.57406469642588" lon="9.19471213014888"><ele>1178.0</ele><time>2026-03-29T15:06:22Z</time></trkpt><trkpt lat="44.57408730930172" lon="9.194803292909281"><ele>1178.5</ele><time>2026-03-29T15:06:23Z</time></trkpt><trkpt lat="44.57410189822461" lon="9.194909302440667"><ele>1179.0</ele><time>2026-03-29T15:06:24Z</time></trkpt><trkpt lat="44.57412742174215" lon="9.1950181342306"><ele>1181.0</ele><time>2026-03-29T15:06:25Z</time></trkpt><trkpt lat="44.574154748448755" lon="9.195118819957338"><ele>1183.0</ele><time>2026-03-29T15:06:26Z</time></trkpt><trkpt lat="44.57422383165096" lon="9.195213733262488"><ele>1185.0</ele><time>2026-03-29T15:06:27Z</time></trkpt><trkpt lat="44.5743355957262" lon="9.19520192266902"><ele>1187.0</ele><time>2026-03-29T15:06:28Z</time></trkpt><trkpt lat="44.5743956209923" lon="9.19517368751771"><ele>1189.0</ele><time>2026-03-29T15:06:29Z</time></trkpt><trkpt lat="44.57448619944128" lon="9.195195743764774"><ele>1191.0</ele><time>2026-03-29T15:06:31Z</time></trkpt><trkpt lat="44.574523753898326" lon="9.195292516273152"><ele>1191.0</ele><time>2026-03-29T15:06:32Z</time></trkpt><trkpt lat="44.57456569470903" lon="9.195395982621912"><ele>1191.0</ele><time>2026-03-29T15:06:33Z</time></trkpt><trkpt lat="44.574622802554764" lon="9.195497345053314"><ele>1191.0</ele><time>2026-03-29T15:06:34Z</time></trkpt><trkpt lat="44.57468946641738" lon="9.19559421237318"><ele>1191.0</ele><time>2026-03-29T15:06:35Z</time></trkpt><trkpt lat="44.57475492042239" lon="9.195681245343298"><ele>1191.0</ele><time>2026-03-29T15:06:36Z</time></trkpt><trkpt lat="44.574817409294944" lon="9.195753103670778"><ele>1191.0</ele><time>2026-03-29T15:06:37Z</time></trkpt><trkpt lat="44.574903387788524" lon="9.19576238715842"><ele>1191.0</ele><time>2026-03-29T15:06:38Z</time></trkpt><trkpt lat="44.57499988272668" lon="9.195726546687693"><ele>1191.0</ele><time>2026-03-29T15:06:39Z</time></trkpt><trkpt lat="44.57509950416359" lon="9.195647766879908"><ele>1191.0</ele><time>2026-03-29T15:06:40Z</time></trkpt><trkpt lat="44.57515576515553" lon="9.19555340805542"><ele>1191.0</ele><time>2026-03-29T15:06:41Z</time></trkpt><trkpt lat="44.57521883266486" lon="9.195449703897337"><ele>1191.0</ele><time>2026-03-29T15:06:43Z</time></trkpt><trkpt lat="44.57527569094936" lon="9.195489705116536"><ele>1191.0</ele><time>2026-03-29T15:06:44Z</time></trkpt><trkpt lat="44.575321853137" lon="9.195582511072466"><ele>1191.0</ele><time>2026-03-29T15:06:45Z</time></trkpt><trkpt lat="44.57535478165061" lon="9.195681238251396"><ele>1191.0</ele><time>2026-03-29T15:06:46Z</time></trkpt><trkpt lat="44.57538308980548" lon="9.195778350698559"><ele>1191.0</ele><time>2026-03-29T15:06:47Z</time></trkpt><trkpt lat="44.57543294218438" lon="9.195871180461276"><ele>1191.0</ele><time>2026-03-29T15:06:48Z</time></trkpt><trkpt lat="44.57548865706045" lon="9.195955005125768"><ele>1191.0</ele><time>2026-03-29T15:06:49Z</time></trkpt><trkpt lat="44.57558676921452" lon="9.196014806768627"><ele>1195.8</ele><time>2026-03-29T15:06:50Z</time></trkpt><trkpt lat="44.575701785411894" lon="9.196000344160447"><ele>1200.6</ele><time>2026-03-29T15:06:51Z</time></trkpt><trkpt lat="44.575774985694224" lon="9.196016538647385"><ele>1205.4</ele><time>2026-03-29T15:06:51.999Z</time></trkpt><trkpt lat="44.5758750082908" lon="9.19606818711564"><ele>1210.2</ele><time>2026-03-29T15:06:52.999Z</time></trkpt><trkpt lat="44.57599681593758" lon="9.19601993133166"><ele>1215.0</ele><time>2026-03-29T15:06:53.999Z</time></trkpt><trkpt lat="44.57611706144897" lon="9.195931679632478"><ele>1218.0</ele><time>2026-03-29T15:06:54.999Z</time></trkpt><trkpt lat="44.576242478638385" lon="9.195908573115792"><ele>1221.0</ele><time>2026-03-29T15:06:55.999Z</time></trkpt><trkpt lat="44.57639356702769" lon="9.195908033951508"><ele>1224.0</ele><time>2026-03-29T15:06:56.999Z</time></trkpt><trkpt lat="44.57655536686634" lon="9.195901963630993"><ele>1227.0</ele><time>2026-03-29T15:06:57.999Z</time></trkpt><trkpt lat="44.576703316395744" lon="9.195901476347057"><ele>1227.0</ele><time>2026-03-29T15:06:58.999Z</time></trkpt><trkpt lat="44.57684687771241" lon="9.195905887070989"><ele>1227.0</ele><time>2026-03-29T15:06:59.999Z</time></trkpt><trkpt lat="44.576984717242055" lon="9.19589011602085"><ele>1227.0</ele><time>2026-03-29T15:07:00.999Z</time></trkpt><trkpt lat="44.57710275950788" lon="9.195843963901963"><ele>1227.0</ele><time>2026-03-29T15:07:01.999Z</time></trkpt><trkpt lat="44.577191947624776" lon="9.19581175604314"><ele>1227.2</ele><time>2026-03-29T15:07:02.999Z</time></trkpt><trkpt lat="44.57727370658423" lon="9.195792342411472"><ele>1227.4</ele><time>2026-03-29T15:07:03.999Z</time></trkpt><trkpt lat="44.57735863039444" lon="9.195811194189146"><ele>1227.6</ele><time>2026-03-29T15:07:04.999Z</time></trkpt><trkpt lat="44.57745615480073" lon="9.195850901203821"><ele>1227.8</ele><time>2026-03-29T15:07:05.999Z</time></trkpt><trkpt lat="44.57755946532183" lon="9.195925796605014"><ele>1228.0</ele><time>2026-03-29T15:07:06.999Z</time></trkpt><trkpt lat="44.577668704524356" lon="9.195997088901096"><ele>1228.0</ele><time>2026-03-29T15:07:07.999Z</time></trkpt><trkpt lat="44.577791960472574" lon="9.196078262183931"><ele>1228.0</ele><time>2026-03-29T15:07:08.999Z</time></trkpt><trkpt lat="44.57792122575912" lon="9.196155124474922"><ele>1228.0</ele><time>2026-03-29T15:07:09.999Z</time></trkpt><trkpt lat="44.57805420590112" lon="9.196235427133754"><ele>1228.0</ele><time>2026-03-29T15:07:10.999Z</time></trkpt><trkpt lat="44.57819515592762" lon="9.196322246500278"><ele>1227.75</ele><time>2026-03-29T15:07:11.999Z</time></trkpt><trkpt lat="44.57833622102916" lon="9.19640650019445"><ele>1227.5</ele><time>2026-03-29T15:07:12.999Z</time></trkpt><trkpt lat="44.57847674526597" lon="9.196477419442314"><ele>1227.25</ele><time>2026-03-29T15:07:13.999Z</time></trkpt><trkpt lat="44.578614233184965" lon="9.196524142737497"><ele>1227.0</ele><time>2026-03-29T15:07:14.999Z</time></trkpt><trkpt lat="44.57874914339363" lon="9.196555246395118"><ele>1229.4</ele><time>2026-03-29T15:07:15.999Z</time></trkpt><trkpt lat="44.57887237348667" lon="9.196574532148551"><ele>1231.8000000000002</ele><time>2026-03-29T15:07:16.999Z</time></trkpt><trkpt lat="44.578983836405484" lon="9.196570172193143"><ele>1234.2</ele><time>2026-03-29T15:07:17.999Z</time></trkpt><trkpt lat="44.579081684965274" lon="9.196526614498795"><ele>1236.6000000000001</ele><time>2026-03-29T15:07:18.999Z</time></trkpt><trkpt lat="44.57917923553575" lon="9.196465108427317"><ele>1239.0</ele><time>2026-03-29T15:07:19.999Z</time></trkpt><trkpt lat="44.579236866099585" lon="9.196322470788907"><ele>1239.0</ele><time>2026-03-29T15:07:20.999Z</time></trkpt><trkpt lat="44.57932654910464" lon="9.196225232804219"><ele>1239.0</ele><time>2026-03-29T15:07:21.999Z</time></trkpt><trkpt lat="44.57941959114726" lon="9.196123061185643"><ele>1239.0</ele><time>2026-03-29T15:07:22.999Z</time></trkpt><trkpt lat="44.57949365076098" lon="9.196018702945501"><ele>1239.0</ele><time>2026-03-29T15:07:23.999Z</time></trkpt><trkpt lat="44.57959625782839" lon="9.195998896037347"><ele>1239.0</ele><time>2026-03-29T15:07:24.999Z</time></trkpt><trkpt lat="44.57970015528688" lon="9.195987962482848"><ele>1241.0</ele><time>2026-03-29T15:07:25.999Z</time></trkpt><trkpt lat="44.57980682256295" lon="9.195968460114251"><ele>1243.0</ele><time>2026-03-29T15:07:26.999Z</time></trkpt><trkpt lat="44.579897002440475" lon="9.196000035416374"><ele>1245.0</ele><time>2026-03-29T15:07:27.999Z</time></trkpt><trkpt lat="44.57995450011227" lon="9.196065201630182"><ele>1247.0</ele><time>2026-03-29T15:07:28.999Z</time></trkpt><trkpt lat="44.57997712123234" lon="9.196163117179667"><ele>1249.0</ele><time>2026-03-29T15:07:29.999Z</time></trkpt><trkpt lat="44.57996877024288" lon="9.196274260010883"><ele>1251.0</ele><time>2026-03-29T15:07:30.999Z</time></trkpt><trkpt lat="44.57993330249476" lon="9.196373026481504"><ele>1251.0</ele><time>2026-03-29T15:07:31.999Z</time></trkpt><trkpt lat="44.579856158296074" lon="9.196457347843172"><ele>1251.0</ele><time>2026-03-29T15:07:32.999Z</time></trkpt><trkpt lat="44.57976499691721" lon="9.196549564294166"><ele>1251.0</ele><time>2026-03-29T15:07:33.999Z</time></trkpt><trkpt lat="44.57967402294649" lon="9.196666884146277"><ele>1251.0</ele><time>2026-03-29T15:07:34.999Z</time></trkpt><trkpt lat="44.57957075821314" lon="9.196779402506671"><ele>1253.25</ele><time>2026-03-29T15:07:35.999Z</time></trkpt><trkpt lat="44.579435552955836" lon="9.196823781268412"><ele>1255.5</ele><time>2026-03-29T15:07:36.999Z</time></trkpt><trkpt lat="44.5793289645756" lon="9.196928093957379"><ele>1257.75</ele><time>2026-03-29T15:07:37.999Z</time></trkpt><trkpt lat="44.57922996586217" lon="9.19701417597017"><ele>1260.0</ele><time>2026-03-29T15:07:38.999Z</time></trkpt><trkpt lat="44.579116562485304" lon="9.1970788362307"><ele>1260.0</ele><time>2026-03-29T15:07:39.999Z</time></trkpt><trkpt lat="44.57899064543963" lon="9.197118552255874"><ele>1260.0</ele><time>2026-03-29T15:07:40.999Z</time></trkpt><trkpt lat="44.57885981392452" lon="9.19714817381738"><ele>1260.0</ele><time>2026-03-29T15:07:41.999Z</time></trkpt><trkpt lat="44.578721183046454" lon="9.197182806997782"><ele>1260.0</ele><time>2026-03-29T15:07:42.999Z</time></trkpt><trkpt lat="44.57857595623554" lon="9.19719836649361"><ele>1259.2</ele><time>2026-03-29T15:07:43.999Z</time></trkpt><trkpt lat="44.57844466043523" lon="9.197238290262973"><ele>1258.4</ele><time>2026-03-29T15:07:45Z</time></trkpt><trkpt lat="44.57833916198014" lon="9.197283453067003"><ele>1257.6</ele><time>2026-03-29T15:07:46Z</time></trkpt><trkpt lat="44.57824741699737" lon="9.197301247228808"><ele>1256.8</ele><time>2026-03-29T15:07:47Z</time></trkpt><trkpt lat="44.57816398136698" lon="9.19729537416114"><ele>1256.0</ele><time>2026-03-29T15:07:48Z</time></trkpt><trkpt lat="44.57810067742116" lon="9.197208187545423"><ele>1256.0</ele><time>2026-03-29T15:07:49Z</time></trkpt><trkpt lat="44.57801669753574" lon="9.197156670629994"><ele>1256.0</ele><time>2026-03-29T15:07:50Z</time></trkpt><trkpt lat="44.57791748460735" lon="9.19712347885474"><ele>1256.0</ele><time>2026-03-29T15:07:51Z</time></trkpt><trkpt lat="44.577817500234794" lon="9.19708647412494"><ele>1256.0</ele><time>2026-03-29T15:07:52Z</time></trkpt><trkpt lat="44.57772023586127" lon="9.197047072592964"><ele>1256.0</ele><time>2026-03-29T15:07:53Z</time></trkpt><trkpt lat="44.57762414123726" lon="9.197015063374756"><ele>1257.1666666666667</ele><time>2026-03-29T15:07:54Z</time></trkpt><trkpt lat="44.577523202261816" lon="9.197035399951275"><ele>1258.3333333333335</ele><time>2026-03-29T15:07:55Z</time></trkpt><trkpt lat="44.57743304124965" lon="9.197062589969942"><ele>1259.5</ele><time>2026-03-29T15:07:56Z</time></trkpt><trkpt lat="44.57736089943716" lon="9.19712064008779"><ele>1260.6666666666667</ele><time>2026-03-29T15:07:57Z</time></trkpt><trkpt lat="44.57731839013293" lon="9.197205200459043"><ele>1261.8333333333333</ele><time>2026-03-29T15:07:58Z</time></trkpt><trkpt lat="44.57731142676466" lon="9.197311566735703"><ele>1263.0</ele><time>2026-03-29T15:07:59Z</time></trkpt><trkpt lat="44.57734589628149" lon="9.197414095962765"><ele>1267.8</ele><time>2026-03-29T15:08:00Z</time></trkpt><trkpt lat="44.57741121825896" lon="9.19749342932702"><ele>1272.6</ele><time>2026-03-29T15:08:01Z</time></trkpt><trkpt lat="44.577509738896325" lon="9.197531016231483"><ele>1277.3999999999999</ele><time>2026-03-29T15:08:02Z</time></trkpt><trkpt lat="44.577612146071594" lon="9.197560942758823"><ele>1282.1999999999998</ele><time>2026-03-29T15:08:03Z</time></trkpt><trkpt lat="44.57772765543774" lon="9.197585147087233"><ele>1287.0</ele><time>2026-03-29T15:08:04Z</time></trkpt><trkpt lat="44.577851573604136" lon="9.197624021272683"><ele>1288.0</ele><time>2026-03-29T15:08:05Z</time></trkpt><trkpt lat="44.57798357613275" lon="9.197667982424953"><ele>1289.0</ele><time>2026-03-29T15:08:06Z</time></trkpt><trkpt lat="44.57812587399286" lon="9.197708200032078"><ele>1290.0</ele><time>2026-03-29T15:08:07Z</time></trkpt><trkpt lat="44.57827613077417" lon="9.197711830387565"><ele>1291.0</ele><time>2026-03-29T15:08:08Z</time></trkpt><trkpt lat="44.578424074277734" lon="9.197701237386998"><ele>1291.0</ele><time>2026-03-29T15:08:09Z</time></trkpt><trkpt lat="44.578573342509806" lon="9.19772765892303"><ele>1291.0</ele><time>2026-03-29T15:08:10Z</time></trkpt><trkpt lat="44.578721705182794" lon="9.197776120290627"><ele>1291.0</ele><time>2026-03-29T15:08:11Z</time></trkpt><trkpt lat="44.57887773673059" lon="9.19783701682449"><ele>1291.0</ele><time>2026-03-29T15:08:12Z</time></trkpt><trkpt lat="44.57903452644604" lon="9.19789445172648"><ele>1291.0</ele><time>2026-03-29T15:08:13Z</time></trkpt><trkpt lat="44.57918052102639" lon="9.19793889783127"><ele>1291.0</ele><time>2026-03-29T15:08:14Z</time></trkpt><trkpt lat="44.57933215410831" lon="9.19798173924735"><ele>1291.0</ele><time>2026-03-29T15:08:15Z</time></trkpt><trkpt lat="44.579485734635725" lon="9.198029178903315"><ele>1291.0</ele><time>2026-03-29T15:08:16Z</time></trkpt><trkpt lat="44.57963873461196" lon="9.198079652129321"><ele>1291.0</ele><time>2026-03-29T15:08:17Z</time></trkpt><trkpt lat="44.57978785114972" lon="9.198116393017662"><ele>1292.75</ele><time>2026-03-29T15:08:18Z</time></trkpt><trkpt lat="44.57993119714689" lon="9.198133539089435"><ele>1294.5</ele><time>2026-03-29T15:08:19Z</time></trkpt><trkpt lat="44.580068302424294" lon="9.198123778019665"><ele>1296.25</ele><time>2026-03-29T15:08:20Z</time></trkpt><trkpt lat="44.580201645146566" lon="9.198068182947951"><ele>1298.0</ele><time>2026-03-29T15:08:21Z</time></trkpt><trkpt lat="44.580329117321185" lon="9.19797853859374"><ele>1303.0</ele><time>2026-03-29T15:08:22Z</time></trkpt><trkpt lat="44.58045377708806" lon="9.197866215586817"><ele>1308.0</ele><time>2026-03-29T15:08:23Z</time></trkpt><trkpt lat="44.58057891653416" lon="9.197753224567492"><ele>1313.0</ele><time>2026-03-29T15:08:24Z</time></trkpt><trkpt lat="44.580700261292904" lon="9.197623559336185"><ele>1318.0</ele><time>2026-03-29T15:08:25Z</time></trkpt><trkpt lat="44.580807987990966" lon="9.197483369525006"><ele>1318.0</ele><time>2026-03-29T15:08:26Z</time></trkpt><trkpt lat="44.580885249503055" lon="9.197347743730095"><ele>1318.0</ele><time>2026-03-29T15:08:27Z</time></trkpt><trkpt lat="44.580946060164486" lon="9.197238349479848"><ele>1318.0</ele><time>2026-03-29T15:08:28Z</time></trkpt><trkpt lat="44.58102932797565" lon="9.197154701688918"><ele>1318.0</ele><time>2026-03-29T15:08:29Z</time></trkpt><trkpt lat="44.58113048942755" lon="9.197092982099129"><ele>1318.0</ele><time>2026-03-29T15:08:30Z</time></trkpt><trkpt lat="44.581249107232225" lon="9.197079552266532"><ele>1318.5</ele><time>2026-03-29T15:08:31Z</time></trkpt><trkpt lat="44.5813652779175" lon="9.197015534175257"><ele>1319.0</ele><time>2026-03-29T15:08:32Z</time></trkpt><trkpt lat="44.58148190911245" lon="9.196947107821572"><ele>1319.5</ele><time>2026-03-29T15:08:33Z</time></trkpt><trkpt lat="44.58158990861359" lon="9.196855759226695"><ele>1320.0</ele><time>2026-03-29T15:08:34Z</time></trkpt><trkpt lat="44.58169959918135" lon="9.196779280236205"><ele>1320.0</ele><time>2026-03-29T15:08:35Z</time></trkpt><trkpt lat="44.581809386330676" lon="9.196741445626268"><ele>1320.0</ele><time>2026-03-29T15:08:36Z</time></trkpt><trkpt lat="44.58192778038907" lon="9.196726470599529"><ele>1320.0</ele><time>2026-03-29T15:08:37Z</time></trkpt><trkpt lat="44.582052144983855" lon="9.196719557695017"><ele>1320.0</ele><time>2026-03-29T15:08:38Z</time></trkpt><trkpt lat="44.58217839401726" lon="9.196702498740407"><ele>1323.75</ele><time>2026-03-29T15:08:39Z</time></trkpt><trkpt lat="44.58230898787276" lon="9.196690892061788"><ele>1327.5</ele><time>2026-03-29T15:08:40Z</time></trkpt><trkpt lat="44.58244417145619" lon="9.196694338438057"><ele>1331.25</ele><time>2026-03-29T15:08:41Z</time></trkpt><trkpt lat="44.58257917190039" lon="9.196688570977209"><ele>1335.0</ele><time>2026-03-29T15:08:42Z</time></trkpt><trkpt lat="44.58271631240467" lon="9.196685978545682"><ele>1335.75</ele><time>2026-03-29T15:08:43Z</time></trkpt><trkpt lat="44.58285469589006" lon="9.196715510428414"><ele>1336.5</ele><time>2026-03-29T15:08:44Z</time></trkpt><trkpt lat="44.582992765567624" lon="9.196763854244063"><ele>1337.25</ele><time>2026-03-29T15:08:45Z</time></trkpt><trkpt lat="44.58313414337384" lon="9.196810327613981"><ele>1338.0</ele><time>2026-03-29T15:08:46Z</time></trkpt><trkpt lat="44.58327425922549" lon="9.196849959256934"><ele>1338.0</ele><time>2026-03-29T15:08:47Z</time></trkpt><trkpt lat="44.58341431396646" lon="9.196896500463353"><ele>1338.0</ele><time>2026-03-29T15:08:48Z</time></trkpt><trkpt lat="44.58355036091414" lon="9.196940784513478"><ele>1338.0</ele><time>2026-03-29T15:08:49Z</time></trkpt><trkpt lat="44.58367949378493" lon="9.196987659140602"><ele>1338.0</ele><time>2026-03-29T15:08:49.999Z</time></trkpt><trkpt lat="44.583798670624674" lon="9.197033996733326"><ele>1336.4</ele><time>2026-03-29T15:08:50.999Z</time></trkpt><trkpt lat="44.58390316999524" lon="9.197077349419642"><ele>1334.8000000000002</ele><time>2026-03-29T15:08:51.999Z</time></trkpt><trkpt lat="44.58399898310923" lon="9.197129574448171"><ele>1333.2</ele><time>2026-03-29T15:08:52.999Z</time></trkpt><trkpt lat="44.58408569146119" lon="9.197201106746098"><ele>1331.6</ele><time>2026-03-29T15:08:53.999Z</time></trkpt><trkpt lat="44.58415926018898" lon="9.197300988764729"><ele>1330.0</ele><time>2026-03-29T15:08:54.999Z</time></trkpt><trkpt lat="44.584218759658945" lon="9.197426276375369"><ele>1335.0</ele><time>2026-03-29T15:08:55.999Z</time></trkpt><trkpt lat="44.58427209682571" lon="9.197563380597199"><ele>1340.0</ele><time>2026-03-29T15:08:56.999Z</time></trkpt><trkpt lat="44.584337121362914" lon="9.197700545103974"><ele>1345.0</ele><time>2026-03-29T15:08:57.999Z</time></trkpt><trkpt lat="44.5844133355087" lon="9.197836286241522"><ele>1350.0</ele><time>2026-03-29T15:08:58.999Z</time></trkpt><trkpt lat="44.584487447807675" lon="9.197969169536169"><ele>1350.5</ele><time>2026-03-29T15:08:59.999Z</time></trkpt><trkpt lat="44.584560197769015" lon="9.198108745893608"><ele>1351.0</ele><time>2026-03-29T15:09:00.999Z</time></trkpt><trkpt lat="44.584646582507155" lon="9.198239760931557"><ele>1351.5</ele><time>2026-03-29T15:09:01.999Z</time></trkpt><trkpt lat="44.58474168263225" lon="9.198373145659211"><ele>1352.0</ele><time>2026-03-29T15:09:02.999Z</time></trkpt><trkpt lat="44.58486144249679" lon="9.198446308657683"><ele>1352.0</ele><time>2026-03-29T15:09:03.999Z</time></trkpt><trkpt lat="44.58496967994976" lon="9.19852253164437"><ele>1352.0</ele><time>2026-03-29T15:09:04.999Z</time></trkpt><trkpt lat="44.585067479134324" lon="9.198590604376172"><ele>1352.0</ele><time>2026-03-29T15:09:05.999Z</time></trkpt><trkpt lat="44.585162518566065" lon="9.198652878134677"><ele>1352.0</ele><time>2026-03-29T15:09:06.999Z</time></trkpt><trkpt lat="44.58525591458021" lon="9.198718215435381"><ele>1352.0</ele><time>2026-03-29T15:09:07.999Z</time></trkpt><trkpt lat="44.58534330617632" lon="9.198796228052046"><ele>1352.0</ele><time>2026-03-29T15:09:08.999Z</time></trkpt><trkpt lat="44.585438710476595" lon="9.198853379299404"><ele>1352.0</ele><time>2026-03-29T15:09:09.999Z</time></trkpt><trkpt lat="44.58552071186887" lon="9.19893955597574"><ele>1352.0</ele><time>2026-03-29T15:09:10.999Z</time></trkpt><trkpt lat="44.58559040251395" lon="9.199022851232808"><ele>1352.0</ele><time>2026-03-29T15:09:11.999Z</time></trkpt><trkpt lat="44.58566327441928" lon="9.199089722653438"><ele>1352.0</ele><time>2026-03-29T15:09:12.999Z</time></trkpt><trkpt lat="44.585749307540596" lon="9.199132174795405"><ele>1352.0</ele><time>2026-03-29T15:09:13.999Z</time></trkpt><trkpt lat="44.58584942005109" lon="9.199167098384347"><ele>1352.0</ele><time>2026-03-29T15:09:14.999Z</time></trkpt><trkpt lat="44.585954616471994" lon="9.199201520148202"><ele>1352.0</ele><time>2026-03-29T15:09:15.999Z</time></trkpt><trkpt lat="44.586061039629485" lon="9.1992374627678"><ele>1352.0</ele><time>2026-03-29T15:09:16.999Z</time></trkpt><trkpt lat="44.5861579762231" lon="9.199275895766403"><ele>1352.0</ele><time>2026-03-29T15:09:17.999Z</time></trkpt><trkpt lat="44.586246581905094" lon="9.19932438977889"><ele>1353.8333333333335</ele><time>2026-03-29T15:09:18.999Z</time></trkpt><trkpt lat="44.58633058969328" lon="9.199377906123763"><ele>1355.6666666666667</ele><time>2026-03-29T15:09:19.999Z</time></trkpt><trkpt lat="44.58641067760669" lon="9.199418853210702"><ele>1357.5</ele><time>2026-03-29T15:09:20.999Z</time></trkpt><trkpt lat="44.586490335456475" lon="9.199450499140926"><ele>1359.3333333333333</ele><time>2026-03-29T15:09:21.999Z</time></trkpt><trkpt lat="44.586566945997454" lon="9.199469077699142"><ele>1361.1666666666665</ele><time>2026-03-29T15:09:22.999Z</time></trkpt><trkpt lat="44.58663898553104" lon="9.199493596467894"><ele>1363.0</ele><time>2026-03-29T15:09:23.999Z</time></trkpt><trkpt lat="44.58669921498695" lon="9.19953252629144"><ele>1363.0</ele><time>2026-03-29T15:09:24.999Z</time></trkpt><trkpt lat="44.58675112793523" lon="9.19959551508721"><ele>1363.0</ele><time>2026-03-29T15:09:25.999Z</time></trkpt><trkpt lat="44.58678652790166" lon="9.199678480704097"><ele>1363.0</ele><time>2026-03-29T15:09:26.999Z</time></trkpt><trkpt lat="44.58681432815212" lon="9.199819047939767"><ele>1363.0</ele><time>2026-03-29T15:09:29Z</time></trkpt><trkpt lat="44.58684342016221" lon="9.199961725331985"><ele>1363.0</ele><time>2026-03-29T15:09:41Z</time></trkpt><trkpt lat="44.58691798755582" lon="9.200010936773111"><ele>1363.0</ele><time>2026-03-29T15:09:42Z</time></trkpt><trkpt lat="44.586990977279925" lon="9.200089155874263"><ele>1362.0</ele><time>2026-03-29T15:09:43Z</time></trkpt><trkpt lat="44.587094850948745" lon="9.200149650857979"><ele>1361.0</ele><time>2026-03-29T15:09:44Z</time></trkpt><trkpt lat="44.58718951960309" lon="9.200260141600504"><ele>1360.0</ele><time>2026-03-29T15:09:45Z</time></trkpt><trkpt lat="44.58728781652709" lon="9.200347788920512"><ele>1359.0</ele><time>2026-03-29T15:09:46Z</time></trkpt><trkpt lat="44.58739708424242" lon="9.200429569333856"><ele>1359.0</ele><time>2026-03-29T15:09:47Z</time></trkpt><trkpt lat="44.58750653124401" lon="9.200521703241419"><ele>1359.0</ele><time>2026-03-29T15:09:48Z</time></trkpt><trkpt lat="44.587612795316744" lon="9.200607749261396"><ele>1359.0</ele><time>2026-03-29T15:09:49Z</time></trkpt><trkpt lat="44.58771668116981" lon="9.200689983944935"><ele>1359.0</ele><time>2026-03-29T15:09:50Z</time></trkpt><trkpt lat="44.58781707990664" lon="9.200755319922267"><ele>1360.2</ele><time>2026-03-29T15:09:51Z</time></trkpt><trkpt lat="44.58791775735503" lon="9.200810443761442"><ele>1361.4</ele><time>2026-03-29T15:09:52Z</time></trkpt><trkpt lat="44.58800261580819" lon="9.200901123591107"><ele>1362.6</ele><time>2026-03-29T15:09:53Z</time></trkpt><trkpt lat="44.58807443012443" lon="9.201030059806873"><ele>1363.8</ele><time>2026-03-29T15:09:54Z</time></trkpt><trkpt lat="44.58814478228159" lon="9.201158732716511"><ele>1365.0</ele><time>2026-03-29T15:09:55Z</time></trkpt><trkpt lat="44.58821496161124" lon="9.20128053777361"><ele>1365.0</ele><time>2026-03-29T15:09:56Z</time></trkpt><trkpt lat="44.58828468613711" lon="9.201398863508013"><ele>1365.0</ele><time>2026-03-29T15:09:57Z</time></trkpt><trkpt lat="44.58834758877199" lon="9.201510878430636"><ele>1365.0</ele><time>2026-03-29T15:09:58Z</time></trkpt><trkpt lat="44.588407912917795" lon="9.20161148674486"><ele>1365.0</ele><time>2026-03-29T15:09:59Z</time></trkpt><trkpt lat="44.588454923900734" lon="9.20169708864067"><ele>1365.0</ele><time>2026-03-29T15:10:00Z</time></trkpt><trkpt lat="44.58850707511727" lon="9.201774639499517"><ele>1363.6666666666667</ele><time>2026-03-29T15:10:01Z</time></trkpt><trkpt lat="44.58854385096654" lon="9.201854903448938"><ele>1362.3333333333333</ele><time>2026-03-29T15:10:02Z</time></trkpt><trkpt lat="44.588616357768295" lon="9.201964492792742"><ele>1361.0</ele><time>2026-03-29T15:10:03Z</time></trkpt><trkpt lat="44.588672560679065" lon="9.202058290327491"><ele>1359.6666666666665</ele><time>2026-03-29T15:10:04Z</time></trkpt><trkpt lat="44.588714239523284" lon="9.202151773663534"><ele>1358.3333333333333</ele><time>2026-03-29T15:10:05Z</time></trkpt><trkpt lat="44.5887444737429" lon="9.202250907348606"><ele>1357.0</ele><time>2026-03-29T15:10:06Z</time></trkpt><trkpt lat="44.58875544730448" lon="9.202360062213092"><ele>1358.0</ele><time>2026-03-29T15:10:07Z</time></trkpt><trkpt lat="44.588721281029564" lon="9.202482233981435"><ele>1359.0</ele><time>2026-03-29T15:10:08Z</time></trkpt><trkpt lat="44.588656447278325" lon="9.202574322422702"><ele>1360.0</ele><time>2026-03-29T15:10:09Z</time></trkpt><trkpt lat="44.58856269821299" lon="9.202595773188314"><ele>1361.0</ele><time>2026-03-29T15:10:10Z</time></trkpt><trkpt lat="44.588472610107004" lon="9.202623046648597"><ele>1362.0</ele><time>2026-03-29T15:10:11Z</time></trkpt><trkpt lat="44.58839398439508" lon="9.202646003169072"><ele>1362.0000000000002</ele><time>2026-03-29T15:10:12Z</time></trkpt><trkpt lat="44.58832296949552" lon="9.20269881069134"><ele>1362.0</ele><time>2026-03-29T15:10:13Z</time></trkpt><trkpt lat="44.588268539171395" lon="9.202745696308378"><ele>1362.0</ele><time>2026-03-29T15:10:14Z</time></trkpt><trkpt lat="44.58821582276577" lon="9.202803378419786"><ele>1362.0</ele><time>2026-03-29T15:10:15Z</time></trkpt><trkpt lat="44.58821430808703" lon="9.202913269618065"><ele>1362.0</ele><time>2026-03-29T15:10:16Z</time></trkpt><trkpt lat="44.588230323024355" lon="9.203016904750294"><ele>1362.0000000000002</ele><time>2026-03-29T15:10:17Z</time></trkpt><trkpt lat="44.58827354583072" lon="9.20310799599833"><ele>1362.0</ele><time>2026-03-29T15:10:18Z</time></trkpt><trkpt lat="44.588331932675416" lon="9.203193674274708"><ele>1363.3999999999999</ele><time>2026-03-29T15:10:19Z</time></trkpt><trkpt lat="44.58839935071242" lon="9.20327500492689"><ele>1364.8</ele><time>2026-03-29T15:10:20Z</time></trkpt><trkpt lat="44.58846088811126" lon="9.203368554592197"><ele>1366.2</ele><time>2026-03-29T15:10:21Z</time></trkpt><trkpt lat="44.588515287927414" lon="9.203480588032164"><ele>1367.6</ele><time>2026-03-29T15:10:22Z</time></trkpt><trkpt lat="44.588548110943115" lon="9.203607321609406"><ele>1369.0</ele><time>2026-03-29T15:10:23Z</time></trkpt><trkpt lat="44.58855873244987" lon="9.203723053215544"><ele>1369.0</ele><time>2026-03-29T15:10:24Z</time></trkpt><trkpt lat="44.5885743593545" lon="9.203829259954306"><ele>1369.0</ele><time>2026-03-29T15:10:25Z</time></trkpt><trkpt lat="44.58860521988996" lon="9.203928058821493"><ele>1369.0</ele><time>2026-03-29T15:10:26Z</time></trkpt><trkpt lat="44.58865020416727" lon="9.204016003047673"><ele>1369.0</ele><time>2026-03-29T15:10:27Z</time></trkpt><trkpt lat="44.58870267540122" lon="9.204082806108879"><ele>1369.0</ele><time>2026-03-29T15:10:28Z</time></trkpt><trkpt lat="44.58877198791694" lon="9.204116482396547"><ele>1369.0</ele><time>2026-03-29T15:10:29Z</time></trkpt><trkpt lat="44.588854537636735" lon="9.204130597862003"><ele>1369.6666666666665</ele><time>2026-03-29T15:10:30Z</time></trkpt><trkpt lat="44.58893775626329" lon="9.204092486241356"><ele>1370.3333333333333</ele><time>2026-03-29T15:10:31Z</time></trkpt><trkpt lat="44.589017898262114" lon="9.204040912377888"><ele>1371.0</ele><time>2026-03-29T15:10:32Z</time></trkpt><trkpt lat="44.58909563786806" lon="9.203984688296238"><ele>1371.6666666666667</ele><time>2026-03-29T15:10:33Z</time></trkpt><trkpt lat="44.58917800069487" lon="9.203931344086856"><ele>1372.3333333333335</ele><time>2026-03-29T15:10:34Z</time></trkpt><trkpt lat="44.5892651139346" lon="9.203892879107057"><ele>1373.0</ele><time>2026-03-29T15:10:35Z</time></trkpt><trkpt lat="44.589358899359375" lon="9.203857803942414"><ele>1374.8000000000002</ele><time>2026-03-29T15:10:36Z</time></trkpt><trkpt lat="44.58945107190242" lon="9.203818580087132"><ele>1376.6</ele><time>2026-03-29T15:10:37Z</time></trkpt><trkpt lat="44.58953325270476" lon="9.20375599504269"><ele>1378.4</ele><time>2026-03-29T15:10:38Z</time></trkpt><trkpt lat="44.58960189835086" lon="9.203687462061696"><ele>1380.1999999999998</ele><time>2026-03-29T15:10:39Z</time></trkpt><trkpt lat="44.589662457813496" lon="9.203629513229357"><ele>1382.0</ele><time>2026-03-29T15:10:40Z</time></trkpt><trkpt lat="44.589760533823174" lon="9.203563821439491"><ele>1383.6</ele><time>2026-03-29T15:10:42Z</time></trkpt><trkpt lat="44.58985575360596" lon="9.203522742571224"><ele>1385.1999999999998</ele><time>2026-03-29T15:10:44Z</time></trkpt><trkpt lat="44.589956414178644" lon="9.203517147995617"><ele>1386.8</ele><time>2026-03-29T15:10:46Z</time></trkpt><trkpt lat="44.59005206503188" lon="9.203536934631588"><ele>1388.4</ele><time>2026-03-29T15:10:48Z</time></trkpt><trkpt lat="44.59014192739652" lon="9.203586680784397"><ele>1390.0</ele><time>2026-03-29T15:10:50Z</time></trkpt><trkpt lat="44.590210645851556" lon="9.203682829263904"><ele>1390.0</ele><time>2026-03-29T15:10:52Z</time></trkpt><trkpt lat="44.59026322342525" lon="9.203790748862634"><ele>1390.0</ele><time>2026-03-29T15:10:54Z</time></trkpt><trkpt lat="44.59033412769079" lon="9.203904619309615"><ele>1390.0</ele><time>2026-03-29T15:10:56Z</time></trkpt><trkpt lat="44.59039633384145" lon="9.204018141869236"><ele>1390.0</ele><time>2026-03-29T15:10:58Z</time></trkpt><trkpt lat="44.59043949570777" lon="9.20408730756419"><ele>1390.0</ele><time>2026-03-29T15:11:00Z</time></trkpt><trkpt lat="44.59048039718299" lon="9.204166322399413"><ele>1390.0</ele><time>2026-03-29T15:11:02Z</time></trkpt><trkpt lat="44.590525865718504" lon="9.204233129967754"><ele>1391.1666666666665</ele><time>2026-03-29T15:11:05Z</time></trkpt><trkpt lat="44.59056324934855" lon="9.204063776910541"><ele>1392.3333333333333</ele><time>2026-03-29T15:11:09Z</time></trkpt><trkpt lat="44.59054188039753" lon="9.203979501538983"><ele>1393.5</ele><time>2026-03-29T15:11:10Z</time></trkpt><trkpt lat="44.59051174375918" lon="9.203898798880441"><ele>1394.6666666666667</ele><time>2026-03-29T15:11:11Z</time></trkpt><trkpt lat="44.59047555954707" lon="9.203821222388866"><ele>1395.8333333333335</ele><time>2026-03-29T15:11:12Z</time></trkpt><trkpt lat="44.590433674413966" lon="9.20373997043806"><ele>1397.0</ele><time>2026-03-29T15:11:13Z</time></trkpt><trkpt lat="44.59037239875468" lon="9.203632539439992"><ele>1405.0</ele><time>2026-03-29T15:11:15Z</time></trkpt><trkpt lat="44.59031629804059" lon="9.20353512634037"><ele>1390.0</ele><time>2026-03-29T15:11:17Z</time></trkpt><trkpt lat="44.5902675530952" lon="9.203451318483815"><ele>1390.0</ele><time>2026-03-29T15:11:19Z</time></trkpt><trkpt lat="44.59020497484282" lon="9.203349944899822"><ele>1390.0</ele><time>2026-03-29T15:11:22Z</time></trkpt><trkpt lat="44.59014354427897" lon="9.2032821888051"><ele>1390.0</ele><time>2026-03-29T15:11:24Z</time></trkpt><trkpt lat="44.59008405201319" lon="9.203235988412212"><ele>1390.0</ele><time>2026-03-29T15:11:27Z</time></trkpt></trkseg><trkseg><trkpt lat="44.590138690495024" lon="9.203337696210518"><ele>1390.0</ele><time>2026-03-29T15:34:32Z</time></trkpt><trkpt lat="44.59023579268382" lon="9.203445108086166"><ele>1390.0</ele><time>2026-03-29T15:34:34Z</time></trkpt><trkpt lat="44.59028582892183" lon="9.203522438547836"><ele>1390.0</ele><time>2026-03-29T15:34:35Z</time></trkpt><trkpt lat="44.590331177661135" lon="9.203592609274631"><ele>1390.0</ele><time>2026-03-29T15:34:36Z</time></trkpt><trkpt lat="44.5903857651861" lon="9.203711117783516"><ele>1390.0</ele><time>2026-03-29T15:34:38Z</time></trkpt><trkpt lat="44.59044326817164" lon="9.203848622159772"><ele>1391.4</ele><time>2026-03-29T15:34:40Z</time></trkpt><trkpt lat="44.59049626458202" lon="9.203996582116355"><ele>1392.8</ele><time>2026-03-29T15:34:42Z</time></trkpt><trkpt lat="44.5905406967241" lon="9.204123729391327"><ele>1394.1999999999998</ele><time>2026-03-29T15:34:44Z</time></trkpt><trkpt lat="44.59057369930972" lon="9.204218318206532"><ele>1395.6</ele><time>2026-03-29T15:34:46Z</time></trkpt><trkpt lat="44.590595892516426" lon="9.204358817579049"><ele>1397.0</ele><time>2026-03-29T15:34:48Z</time></trkpt><trkpt lat="44.59063697510867" lon="9.204428836237565"><ele>1397.0000000000002</ele><time>2026-03-29T15:34:49Z</time></trkpt><trkpt lat="44.5906901390545" lon="9.204499310635777"><ele>1397.0</ele><time>2026-03-29T15:34:50Z</time></trkpt><trkpt lat="44.59074455171132" lon="9.204563500042154"><ele>1397.0</ele><time>2026-03-29T15:34:51Z</time></trkpt><trkpt lat="44.59080646210615" lon="9.204605626550412"><ele>1397.0</ele><time>2026-03-29T15:34:52Z</time></trkpt><trkpt lat="44.590875711578995" lon="9.204610795475542"><ele>1397.0</ele><time>2026-03-29T15:34:53Z</time></trkpt><trkpt lat="44.590946056059494" lon="9.204582670137905"><ele>1397.0000000000002</ele><time>2026-03-29T15:34:54Z</time></trkpt><trkpt lat="44.59101018009063" lon="9.204522366266028"><ele>1397.0</ele><time>2026-03-29T15:34:55Z</time></trkpt><trkpt lat="44.591073504084164" lon="9.20444310911699"><ele>1397.0</ele><time>2026-03-29T15:34:56Z</time></trkpt><trkpt lat="44.59114680683989" lon="9.204362521793843"><ele>1397.0</ele><time>2026-03-29T15:34:57Z</time></trkpt><trkpt lat="44.591224398081636" lon="9.204287732882213"><ele>1397.0</ele><time>2026-03-29T15:34:58Z</time></trkpt><trkpt lat="44.591302897549966" lon="9.204209517777532"><ele>1397.0</ele><time>2026-03-29T15:34:59Z</time></trkpt><trkpt lat="44.59137408075534" lon="9.20414514755669"><ele>1397.0</ele><time>2026-03-29T15:35:00Z</time></trkpt><trkpt lat="44.59144981323884" lon="9.204080316880544"><ele>1395.8</ele><time>2026-03-29T15:35:01Z</time></trkpt><trkpt lat="44.59152439680976" lon="9.204014950546869"><ele>1394.6</ele><time>2026-03-29T15:35:02Z</time></trkpt><trkpt lat="44.59161030928815" lon="9.203948883362006"><ele>1393.3999999999999</ele><time>2026-03-29T15:35:03Z</time></trkpt><trkpt lat="44.591693784782485" lon="9.203883102888325"><ele>1392.1999999999998</ele><time>2026-03-29T15:35:04Z</time></trkpt><trkpt lat="44.59178087661638" lon="9.203830928420992"><ele>1391.0</ele><time>2026-03-29T15:35:05Z</time></trkpt><trkpt lat="44.59187574092597" lon="9.20378103796582"><ele>1395.8</ele><time>2026-03-29T15:35:06Z</time></trkpt><trkpt lat="44.59197649408604" lon="9.203735105928036"><ele>1400.6</ele><time>2026-03-29T15:35:07Z</time></trkpt><trkpt lat="44.59207959246889" lon="9.203685671067129"><ele>1405.4</ele><time>2026-03-29T15:35:07.999Z</time></trkpt><trkpt lat="44.59218577719474" lon="9.20363707841871"><ele>1410.2</ele><time>2026-03-29T15:35:08.999Z</time></trkpt><trkpt lat="44.59229322002808" lon="9.203566520825518"><ele>1415.0</ele><time>2026-03-29T15:35:09.999Z</time></trkpt><trkpt lat="44.59240433613088" lon="9.203490546205998"><ele>1415.0</ele><time>2026-03-29T15:35:10.999Z</time></trkpt><trkpt lat="44.59251932939397" lon="9.20343344619837"><ele>1415.0</ele><time>2026-03-29T15:35:11.999Z</time></trkpt><trkpt lat="44.59264678256334" lon="9.203419318381213"><ele>1415.0</ele><time>2026-03-29T15:35:12.999Z</time></trkpt><trkpt lat="44.592767507734806" lon="9.203399562965494"><ele>1415.0</ele><time>2026-03-29T15:35:13.999Z</time></trkpt><trkpt lat="44.59288900541512" lon="9.203394107879346"><ele>1415.0</ele><time>2026-03-29T15:35:14.999Z</time></trkpt><trkpt lat="44.59301211106705" lon="9.203392559905291"><ele>1415.0</ele><time>2026-03-29T15:35:15.999Z</time></trkpt><trkpt lat="44.593135618299314" lon="9.203410213910622"><ele>1415.0</ele><time>2026-03-29T15:35:16.999Z</time></trkpt><trkpt lat="44.593259989165674" lon="9.203446703979422"><ele>1415.0</ele><time>2026-03-29T15:35:17.999Z</time></trkpt><trkpt lat="44.59338773377977" lon="9.203494789494112"><ele>1415.0</ele><time>2026-03-29T15:35:18.999Z</time></trkpt><trkpt lat="44.59351309020939" lon="9.203562396001153"><ele>1415.0</ele><time>2026-03-29T15:35:19.999Z</time></trkpt><trkpt lat="44.59362845049803" lon="9.203637922660322"><ele>1415.0</ele><time>2026-03-29T15:35:20.999Z</time></trkpt><trkpt lat="44.59374073501243" lon="9.203707836516557"><ele>1415.0</ele><time>2026-03-29T15:35:21.999Z</time></trkpt><trkpt lat="44.59384989902718" lon="9.203759672982889"><ele>1418.5</ele><time>2026-03-29T15:35:22.999Z</time></trkpt><trkpt lat="44.59396731896339" lon="9.203787523964971"><ele>1422.0</ele><time>2026-03-29T15:35:23.999Z</time></trkpt><trkpt lat="44.594092850194116" lon="9.20378734602116"><ele>1425.5</ele><time>2026-03-29T15:35:24.999Z</time></trkpt><trkpt lat="44.59422483650952" lon="9.203768026439768"><ele>1429.0</ele><time>2026-03-29T15:35:25.999Z</time></trkpt><trkpt lat="44.5943635371929" lon="9.203745815731702"><ele>1430.0</ele><time>2026-03-29T15:35:26.999Z</time></trkpt><trkpt lat="44.59450653218907" lon="9.203721511227094"><ele>1431.0</ele><time>2026-03-29T15:35:27.999Z</time></trkpt><trkpt lat="44.59465988419148" lon="9.203697783898948"><ele>1432.0</ele><time>2026-03-29T15:35:28.999Z</time></trkpt><trkpt lat="44.59481249335766" lon="9.20367490265481"><ele>1432.0</ele><time>2026-03-29T15:35:29.999Z</time></trkpt><trkpt lat="44.59496203169" lon="9.203637075410677"><ele>1432.0</ele><time>2026-03-29T15:35:30.999Z</time></trkpt><trkpt lat="44.595108343515534" lon="9.20358572311545"><ele>1432.0</ele><time>2026-03-29T15:35:31.999Z</time></trkpt><trkpt lat="44.595252717278505" lon="9.203542435229796"><ele>1429.0</ele><time>2026-03-29T15:35:32.999Z</time></trkpt><trkpt lat="44.59537977092287" lon="9.203512039284506"><ele>1426.0</ele><time>2026-03-29T15:35:33.999Z</time></trkpt><trkpt lat="44.595507409355506" lon="9.203507425410391"><ele>1423.0</ele><time>2026-03-29T15:35:34.999Z</time></trkpt><trkpt lat="44.595625916972836" lon="9.203562611959184"><ele>1420.0</ele><time>2026-03-29T15:35:35.999Z</time></trkpt><trkpt lat="44.59573424444012" lon="9.203629838932741"><ele>1420.0</ele><time>2026-03-29T15:35:36.999Z</time></trkpt><trkpt lat="44.595854000279324" lon="9.203697224804213"><ele>1420.0</ele><time>2026-03-29T15:35:37.999Z</time></trkpt><trkpt lat="44.59595874161146" lon="9.2038002287054"><ele>1420.0</ele><time>2026-03-29T15:35:38.999Z</time></trkpt><trkpt lat="44.596064461395606" lon="9.20387315940465"><ele>1420.0</ele><time>2026-03-29T15:35:39.999Z</time></trkpt><trkpt lat="44.5961839795693" lon="9.203911652338478"><ele>1418.25</ele><time>2026-03-29T15:35:40.999Z</time></trkpt><trkpt lat="44.59631896651678" lon="9.203911566400127"><ele>1416.5</ele><time>2026-03-29T15:35:41.999Z</time></trkpt><trkpt lat="44.59645362938698" lon="9.203887925274493"><ele>1414.75</ele><time>2026-03-29T15:35:42.999Z</time></trkpt><trkpt lat="44.59657821027081" lon="9.203883822292827"><ele>1413.0</ele><time>2026-03-29T15:35:43.999Z</time></trkpt><trkpt lat="44.596695132975114" lon="9.203929793321846"><ele>1413.5</ele><time>2026-03-29T15:35:44.999Z</time></trkpt><trkpt lat="44.59681098857472" lon="9.204008167832237"><ele>1414.0</ele><time>2026-03-29T15:35:45.999Z</time></trkpt><trkpt lat="44.59692195030189" lon="9.204107791735815"><ele>1414.5</ele><time>2026-03-29T15:35:46.999Z</time></trkpt><trkpt lat="44.59703801692361" lon="9.204207976179083"><ele>1415.0</ele><time>2026-03-29T15:35:47.999Z</time></trkpt><trkpt lat="44.59716319143981" lon="9.20429557510551"><ele>1415.0</ele><time>2026-03-29T15:35:48.999Z</time></trkpt><trkpt lat="44.597288852895296" lon="9.204382755859273"><ele>1415.0</ele><time>2026-03-29T15:35:49.999Z</time></trkpt><trkpt lat="44.597413612682914" lon="9.204468501975374"><ele>1415.0</ele><time>2026-03-29T15:35:50.999Z</time></trkpt><trkpt lat="44.59754354646335" lon="9.204537393952132"><ele>1415.0</ele><time>2026-03-29T15:35:51.999Z</time></trkpt><trkpt lat="44.59767872948748" lon="9.204589091576045"><ele>1415.0</ele><time>2026-03-29T15:35:52.999Z</time></trkpt><trkpt lat="44.59781023185854" lon="9.204629402152191"><ele>1415.0</ele><time>2026-03-29T15:35:53.999Z</time></trkpt><trkpt lat="44.59793881601877" lon="9.204651488977145"><ele>1415.0</ele><time>2026-03-29T15:35:54.999Z</time></trkpt><trkpt lat="44.598057472476206" lon="9.204656804060455"><ele>1415.0</ele><time>2026-03-29T15:35:55.999Z</time></trkpt><trkpt lat="44.598171981450385" lon="9.204671685304023"><ele>1412.5</ele><time>2026-03-29T15:35:56.999Z</time></trkpt><trkpt lat="44.598290904415464" lon="9.204705912581582"><ele>1410.0</ele><time>2026-03-29T15:35:57.999Z</time></trkpt><trkpt lat="44.598410950622736" lon="9.20475517012504"><ele>1407.5</ele><time>2026-03-29T15:35:58.999Z</time></trkpt><trkpt lat="44.5985249583686" lon="9.20481053851347"><ele>1405.0</ele><time>2026-03-29T15:35:59.999Z</time></trkpt><trkpt lat="44.598636256752826" lon="9.204864502218618"><ele>1402.8</ele><time>2026-03-29T15:36:00.999Z</time></trkpt><trkpt lat="44.598745436743044" lon="9.20492269104038"><ele>1400.6</ele><time>2026-03-29T15:36:01.999Z</time></trkpt><trkpt lat="44.59885031085911" lon="9.204981395110591"><ele>1398.4</ele><time>2026-03-29T15:36:02.999Z</time></trkpt><trkpt lat="44.59894900406863" lon="9.205036483397933"><ele>1396.2</ele><time>2026-03-29T15:36:03.999Z</time></trkpt><trkpt lat="44.59904378213105" lon="9.205090421215012"><ele>1394.0</ele><time>2026-03-29T15:36:04.999Z</time></trkpt><trkpt lat="44.599142182258966" lon="9.205144785048848"><ele>1394.0</ele><time>2026-03-29T15:36:05.999Z</time></trkpt><trkpt lat="44.59924070593198" lon="9.205187776575395"><ele>1394.0</ele><time>2026-03-29T15:36:06.999Z</time></trkpt><trkpt lat="44.599336880717125" lon="9.205216245488183"><ele>1394.0</ele><time>2026-03-29T15:36:07.999Z</time></trkpt><trkpt lat="44.59944269515883" lon="9.205232784891956"><ele>1394.0</ele><time>2026-03-29T15:36:08.999Z</time></trkpt><trkpt lat="44.599551482785515" lon="9.205235426641106"><ele>1394.0</ele><time>2026-03-29T15:36:09.999Z</time></trkpt><trkpt lat="44.59966485556226" lon="9.205239183837225"><ele>1390.0</ele><time>2026-03-29T15:36:10.999Z</time></trkpt><trkpt lat="44.599783149337966" lon="9.20525238773909"><ele>1386.0</ele><time>2026-03-29T15:36:11.999Z</time></trkpt><trkpt lat="44.599899558370296" lon="9.205276390470688"><ele>1382.0</ele><time>2026-03-29T15:36:12.999Z</time></trkpt><trkpt lat="44.60001642892955" lon="9.205296112948043"><ele>1378.0</ele><time>2026-03-29T15:36:13.999Z</time></trkpt><trkpt lat="44.600137102438055" lon="9.205294451456128"><ele>1378.0</ele><time>2026-03-29T15:36:14.999Z</time></trkpt><trkpt lat="44.60026023894041" lon="9.205280351903447"><ele>1378.0</ele><time>2026-03-29T15:36:15.999Z</time></trkpt><trkpt lat="44.600385614417775" lon="9.205257055108541"><ele>1378.0</ele><time>2026-03-29T15:36:16.999Z</time></trkpt><trkpt lat="44.60051688895114" lon="9.205223284210133"><ele>1378.0</ele><time>2026-03-29T15:36:17.999Z</time></trkpt><trkpt lat="44.600647151592405" lon="9.205187206459623"><ele>1376.0</ele><time>2026-03-29T15:36:18.999Z</time></trkpt><trkpt lat="44.600776804501955" lon="9.205145395393972"><ele>1374.0</ele><time>2026-03-29T15:36:19.999Z</time></trkpt><trkpt lat="44.600907660306454" lon="9.205106206127228"><ele>1372.0</ele><time>2026-03-29T15:36:20.999Z</time></trkpt><trkpt lat="44.60103715212569" lon="9.205075751552352"><ele>1370.0</ele><time>2026-03-29T15:36:21.998Z</time></trkpt><trkpt lat="44.6011733850124" lon="9.20503891880761"><ele>1368.75</ele><time>2026-03-29T15:36:22.998Z</time></trkpt><trkpt lat="44.60130188792409" lon="9.204984057367332"><ele>1367.5</ele><time>2026-03-29T15:36:23.998Z</time></trkpt><trkpt lat="44.60142594070591" lon="9.204914924626642"><ele>1366.25</ele><time>2026-03-29T15:36:24.998Z</time></trkpt><trkpt lat="44.60154974749657" lon="9.204830043193505"><ele>1365.0</ele><time>2026-03-29T15:36:25.998Z</time></trkpt><trkpt lat="44.60166193196483" lon="9.20473135753738"><ele>1364.25</ele><time>2026-03-29T15:36:26.998Z</time></trkpt><trkpt lat="44.601773928318565" lon="9.204631535475734"><ele>1363.5</ele><time>2026-03-29T15:36:27.998Z</time></trkpt><trkpt lat="44.60189128880345" lon="9.204541096371017"><ele>1362.75</ele><time>2026-03-29T15:36:28.998Z</time></trkpt><trkpt lat="44.60201648932383" lon="9.204468354832288"><ele>1362.0</ele><time>2026-03-29T15:36:29.998Z</time></trkpt><trkpt lat="44.60214107764565" lon="9.204389133615912"><ele>1362.0</ele><time>2026-03-29T15:36:30.998Z</time></trkpt><trkpt lat="44.602267934670294" lon="9.204316732100116"><ele>1362.0</ele><time>2026-03-29T15:36:31.998Z</time></trkpt><trkpt lat="44.602391761584265" lon="9.204248289932586"><ele>1362.0</ele><time>2026-03-29T15:36:32.998Z</time></trkpt><trkpt lat="44.60251346296453" lon="9.20418556152546"><ele>1362.0</ele><time>2026-03-29T15:36:33.998Z</time></trkpt><trkpt lat="44.60262770542074" lon="9.204129260939107"><ele>1362.0</ele><time>2026-03-29T15:36:34.998Z</time></trkpt><trkpt lat="44.60274684476918" lon="9.204084394748625"><ele>1362.0</ele><time>2026-03-29T15:36:36Z</time></trkpt><trkpt lat="44.602868303549315" lon="9.204059967565295"><ele>1362.0</ele><time>2026-03-29T15:36:37Z</time></trkpt><trkpt lat="44.602998049801634" lon="9.204050176037303"><ele>1362.0</ele><time>2026-03-29T15:36:38Z</time></trkpt><trkpt lat="44.60312745781263" lon="9.204036675753192"><ele>1364.25</ele><time>2026-03-29T15:36:39Z</time></trkpt><trkpt lat="44.60325650977775" lon="9.204016064090384"><ele>1366.5</ele><time>2026-03-29T15:36:40Z</time></trkpt><trkpt lat="44.60338541757904" lon="9.203988769454424"><ele>1368.75</ele><time>2026-03-29T15:36:41Z</time></trkpt><trkpt lat="44.60351285499848" lon="9.203960518897983"><ele>1371.0</ele><time>2026-03-29T15:36:42Z</time></trkpt><trkpt lat="44.60363820961907" lon="9.203919328973388"><ele>1366.5</ele><time>2026-03-29T15:36:43Z</time></trkpt><trkpt lat="44.60376397035118" lon="9.20388714589863"><ele>1362.0</ele><time>2026-03-29T15:36:44Z</time></trkpt><trkpt lat="44.60388079661537" lon="9.203846951641037"><ele>1357.5</ele><time>2026-03-29T15:36:45Z</time></trkpt><trkpt lat="44.604010594688894" lon="9.20380741022358"><ele>1353.0</ele><time>2026-03-29T15:36:46Z</time></trkpt><trkpt lat="44.60413338655427" lon="9.20376383509346"><ele>1353.0</ele><time>2026-03-29T15:36:47Z</time></trkpt><trkpt lat="44.60424540487445" lon="9.203710770536064"><ele>1353.0</ele><time>2026-03-29T15:36:48Z</time></trkpt><trkpt lat="44.60435124500551" lon="9.203667461735138"><ele>1353.0</ele><time>2026-03-29T15:36:49Z</time></trkpt><trkpt lat="44.60444451830681" lon="9.203630744143886"><ele>1353.0</ele><time>2026-03-29T15:36:50Z</time></trkpt><trkpt lat="44.60453059847312" lon="9.203608644496446"><ele>1353.0</ele><time>2026-03-29T15:36:51Z</time></trkpt><trkpt lat="44.60459571173781" lon="9.203552464801811"><ele>1355.0</ele><time>2026-03-29T15:36:52Z</time></trkpt><trkpt lat="44.60465004592132" lon="9.203482176150494"><ele>1357.0</ele><time>2026-03-29T15:36:53Z</time></trkpt><trkpt lat="44.60470098234867" lon="9.203420545983006"><ele>1359.0</ele><time>2026-03-29T15:36:54Z</time></trkpt><trkpt lat="44.60474161824918" lon="9.203338638496916"><ele>1361.0</ele><time>2026-03-29T15:36:55Z</time></trkpt><trkpt lat="44.60476430984824" lon="9.203236178752357"><ele>1363.0</ele><time>2026-03-29T15:36:56Z</time></trkpt><trkpt lat="44.6047698301621" lon="9.203127429958839"><ele>1365.0</ele><time>2026-03-29T15:36:57Z</time></trkpt><trkpt lat="44.60477229630969" lon="9.203002370147102"><ele>1365.0</ele><time>2026-03-29T15:36:58Z</time></trkpt><trkpt lat="44.60478098486597" lon="9.20287974871671"><ele>1365.0</ele><time>2026-03-29T15:36:59Z</time></trkpt><trkpt lat="44.604771865400714" lon="9.202754216694624"><ele>1365.0</ele><time>2026-03-29T15:37:00Z</time></trkpt><trkpt lat="44.60474929238118" lon="9.20263315863292"><ele>1365.0</ele><time>2026-03-29T15:37:01Z</time></trkpt><trkpt lat="44.60474682132559" lon="9.202517793239343"><ele>1365.0</ele><time>2026-03-29T15:37:02Z</time></trkpt><trkpt lat="44.60472719902517" lon="9.202421669442835"><ele>1365.0</ele><time>2026-03-29T15:37:02.999Z</time></trkpt><trkpt lat="44.60471079147917" lon="9.20232483374958"><ele>1361.5</ele><time>2026-03-29T15:37:03.999Z</time></trkpt><trkpt lat="44.604702473236706" lon="9.202214051395341"><ele>1358.0</ele><time>2026-03-29T15:37:04.999Z</time></trkpt><trkpt lat="44.60471220628356" lon="9.20210683950793"><ele>1354.5</ele><time>2026-03-29T15:37:05.999Z</time></trkpt><trkpt lat="44.60473950966556" lon="9.202007348796904"><ele>1351.0</ele><time>2026-03-29T15:37:06.999Z</time></trkpt><trkpt lat="44.60478319860785" lon="9.20192141754303"><ele>1347.5</ele><time>2026-03-29T15:37:07.999Z</time></trkpt><trkpt lat="44.604853116248634" lon="9.201851611213112"><ele>1344.0</ele><time>2026-03-29T15:37:08.999Z</time></trkpt><trkpt lat="44.60493074894606" lon="9.2018006451684"><ele>1344.0</ele><time>2026-03-29T15:37:09.999Z</time></trkpt><trkpt lat="44.60500675138863" lon="9.201780248215465"><ele>1344.0</ele><time>2026-03-29T15:37:10.999Z</time></trkpt><trkpt lat="44.60507454809173" lon="9.201785084111469"><ele>1344.0</ele><time>2026-03-29T15:37:11.999Z</time></trkpt><trkpt lat="44.605141925777346" lon="9.201810614690295"><ele>1344.0</ele><time>2026-03-29T15:37:12.999Z</time></trkpt><trkpt lat="44.60520739496849" lon="9.20185586879108"><ele>1344.0</ele><time>2026-03-29T15:37:13.999Z</time></trkpt><trkpt lat="44.60527214444127" lon="9.20191080123627"><ele>1344.0</ele><time>2026-03-29T15:37:14.999Z</time></trkpt><trkpt lat="44.60533702071936" lon="9.201969521322225"><ele>1344.0</ele><time>2026-03-29T15:37:15.999Z</time></trkpt><trkpt lat="44.60540526116735" lon="9.202029430964282"><ele>1344.142857142857</ele><time>2026-03-29T15:37:16.999Z</time></trkpt><trkpt lat="44.60546891339811" lon="9.202092097830022"><ele>1344.2857142857142</ele><time>2026-03-29T15:37:17.999Z</time></trkpt><trkpt lat="44.60552737319003" lon="9.202153949485721"><ele>1344.4285714285716</ele><time>2026-03-29T15:37:18.999Z</time></trkpt><trkpt lat="44.60558732400301" lon="9.202207891964152"><ele>1344.5714285714284</ele><time>2026-03-29T15:37:19.999Z</time></trkpt><trkpt lat="44.605653130798075" lon="9.202244359800583"><ele>1344.7142857142858</ele><time>2026-03-29T15:37:20.999Z</time></trkpt><trkpt lat="44.60571878357804" lon="9.202261892817479"><ele>1344.857142857143</ele><time>2026-03-29T15:37:21.999Z</time></trkpt><trkpt lat="44.60579168241352" lon="9.20227069865773"><ele>1345.0</ele><time>2026-03-29T15:37:22.999Z</time></trkpt><trkpt lat="44.60587147136849" lon="9.20224933648297"><ele>1345.0</ele><time>2026-03-29T15:37:23.999Z</time></trkpt><trkpt lat="44.60595035227637" lon="9.202234755228224"><ele>1345.0</ele><time>2026-03-29T15:37:24.999Z</time></trkpt><trkpt lat="44.60601614565258" lon="9.202158638539736"><ele>1345.0</ele><time>2026-03-29T15:37:25.999Z</time></trkpt><trkpt lat="44.60608245494426" lon="9.202093626906517"><ele>1345.0</ele><time>2026-03-29T15:37:26.999Z</time></trkpt><trkpt lat="44.606142244949616" lon="9.201995064218668"><ele>1345.0</ele><time>2026-03-29T15:37:27.999Z</time></trkpt><trkpt lat="44.60621802972998" lon="9.20190179665588"><ele>1345.0</ele><time>2026-03-29T15:37:28.999Z</time></trkpt><trkpt lat="44.606274213239445" lon="9.201792022881046"><ele>1342.6</ele><time>2026-03-29T15:37:29.999Z</time></trkpt><trkpt lat="44.6063415284719" lon="9.20167994498541"><ele>1340.2</ele><time>2026-03-29T15:37:30.999Z</time></trkpt><trkpt lat="44.606411928470585" lon="9.20157345462737"><ele>1337.8000000000002</ele><time>2026-03-29T15:37:31.999Z</time></trkpt><trkpt lat="44.606490146995235" lon="9.201456339540957"><ele>1335.4</ele><time>2026-03-29T15:37:32.999Z</time></trkpt><trkpt lat="44.60659215864437" lon="9.201379039593911"><ele>1333.0</ele><time>2026-03-29T15:37:33.999Z</time></trkpt><trkpt lat="44.60669711011292" lon="9.201303922281802"><ele>1333.0</ele><time>2026-03-29T15:37:34.999Z</time></trkpt><trkpt lat="44.60680973036593" lon="9.201239723446012"><ele>1333.0</ele><time>2026-03-29T15:37:35.999Z</time></trkpt><trkpt lat="44.60692115669486" lon="9.201168320307684"><ele>1333.0</ele><time>2026-03-29T15:37:36.999Z</time></trkpt><trkpt lat="44.60703343475738" lon="9.201106324557658"><ele>1333.0</ele><time>2026-03-29T15:37:37.999Z</time></trkpt><trkpt lat="44.60715110122297" lon="9.201059221373766"><ele>1336.2</ele><time>2026-03-29T15:37:38.999Z</time></trkpt><trkpt lat="44.60725190626929" lon="9.201018040030235"><ele>1339.4</ele><time>2026-03-29T15:37:39.999Z</time></trkpt><trkpt lat="44.60734424898135" lon="9.200980958460297"><ele>1342.6000000000001</ele><time>2026-03-29T15:37:40.999Z</time></trkpt><trkpt lat="44.607430287118085" lon="9.20093870071023"><ele>1345.8000000000002</ele><time>2026-03-29T15:37:41.999Z</time></trkpt><trkpt lat="44.60750713289126" lon="9.200882223857834"><ele>1349.0</ele><time>2026-03-29T15:37:42.999Z</time></trkpt><trkpt lat="44.60758284767879" lon="9.200814935657684"><ele>1349.0</ele><time>2026-03-29T15:37:43.999Z</time></trkpt><trkpt lat="44.60765646177917" lon="9.200738977807623"><ele>1349.0</ele><time>2026-03-29T15:37:44.999Z</time></trkpt><trkpt lat="44.6077284927313" lon="9.200650849326788"><ele>1349.0</ele><time>2026-03-29T15:37:45.999Z</time></trkpt><trkpt lat="44.607807574747376" lon="9.200600675126779"><ele>1349.0</ele><time>2026-03-29T15:37:46.999Z</time></trkpt><trkpt lat="44.6079059708621" lon="9.200586979886442"><ele>1349.0</ele><time>2026-03-29T15:37:47.999Z</time></trkpt><trkpt lat="44.60800777922985" lon="9.200598310681588"><ele>1346.0</ele><time>2026-03-29T15:37:48.999Z</time></trkpt><trkpt lat="44.608099744175256" lon="9.200604178480143"><ele>1343.0</ele><time>2026-03-29T15:37:49.999Z</time></trkpt><trkpt lat="44.60818429657087" lon="9.200591818745513"><ele>1340.0</ele><time>2026-03-29T15:37:50.999Z</time></trkpt><trkpt lat="44.60825703590538" lon="9.200548033762951"><ele>1337.0</ele><time>2026-03-29T15:37:51.999Z</time></trkpt><trkpt lat="44.60833883984325" lon="9.200494764066635"><ele>1334.0</ele><time>2026-03-29T15:37:52.999Z</time></trkpt><trkpt lat="44.6084195173043" lon="9.200438778854053"><ele>1331.0</ele><time>2026-03-29T15:37:53.999Z</time></trkpt><trkpt lat="44.60848818553645" lon="9.200366357082945"><ele>1331.0</ele><time>2026-03-29T15:37:54.999Z</time></trkpt><trkpt lat="44.60855632133492" lon="9.200290254309335"><ele>1331.0</ele><time>2026-03-29T15:37:55.999Z</time></trkpt><trkpt lat="44.608617669955954" lon="9.200222646102105"><ele>1331.0</ele><time>2026-03-29T15:37:56.999Z</time></trkpt><trkpt lat="44.60866730155716" lon="9.200150377755465"><ele>1331.0</ele><time>2026-03-29T15:37:57.999Z</time></trkpt><trkpt lat="44.60871902138901" lon="9.200069578054407"><ele>1331.0</ele><time>2026-03-29T15:37:58.999Z</time></trkpt><trkpt lat="44.60871322192921" lon="9.199928169040074"><ele>1331.0</ele><time>2026-03-29T15:37:59.999Z</time></trkpt><trkpt lat="44.608678812189396" lon="9.199814775527923"><ele>1328.6666666666667</ele><time>2026-03-29T15:38:00.999Z</time></trkpt><trkpt lat="44.60861147799784" lon="9.19972870090393"><ele>1326.3333333333335</ele><time>2026-03-29T15:38:01.999Z</time></trkpt><trkpt lat="44.608555501903226" lon="9.199631955443056"><ele>1324.0</ele><time>2026-03-29T15:38:02.999Z</time></trkpt><trkpt lat="44.60850382069773" lon="9.199552359977643"><ele>1321.6666666666667</ele><time>2026-03-29T15:38:03.999Z</time></trkpt><trkpt lat="44.60848594381147" lon="9.199439253821131"><ele>1319.3333333333333</ele><time>2026-03-29T15:38:04.999Z</time></trkpt><trkpt lat="44.60849075766672" lon="9.199311290251787"><ele>1317.0</ele><time>2026-03-29T15:38:05.999Z</time></trkpt><trkpt lat="44.608508009201465" lon="9.199170775822836"><ele>1317.0</ele><time>2026-03-29T15:38:06.999Z</time></trkpt><trkpt lat="44.608524512130735" lon="9.199027633804477"><ele>1317.0</ele><time>2026-03-29T15:38:07.999Z</time></trkpt><trkpt lat="44.60852723616273" lon="9.19887762805755"><ele>1317.0</ele><time>2026-03-29T15:38:08.999Z</time></trkpt><trkpt lat="44.608531284177765" lon="9.198724097043263"><ele>1317.0</ele><time>2026-03-29T15:38:09.999Z</time></trkpt><trkpt lat="44.608487761276606" lon="9.198585838311779"><ele>1317.0</ele><time>2026-03-29T15:38:10.999Z</time></trkpt><trkpt lat="44.608451347125715" lon="9.198445744915926"><ele>1316.1999999999998</ele><time>2026-03-29T15:38:11.999Z</time></trkpt><trkpt lat="44.608432978926515" lon="9.198304093631776"><ele>1315.4</ele><time>2026-03-29T15:38:12.999Z</time></trkpt><trkpt lat="44.60841041786826" lon="9.198169965453694"><ele>1314.6</ele><time>2026-03-29T15:38:13.999Z</time></trkpt><trkpt lat="44.608417352148095" lon="9.19803587868528"><ele>1313.8000000000002</ele><time>2026-03-29T15:38:14.999Z</time></trkpt><trkpt lat="44.60844786478365" lon="9.197911071856037"><ele>1313.0</ele><time>2026-03-29T15:38:15.998Z</time></trkpt><trkpt lat="44.608493354530864" lon="9.197803697095312"><ele>1311.0</ele><time>2026-03-29T15:38:16.998Z</time></trkpt><trkpt lat="44.60856562798172" lon="9.197714048765441"><ele>1309.0</ele><time>2026-03-29T15:38:17.998Z</time></trkpt><trkpt lat="44.60865138675861" lon="9.197637283190035"><ele>1307.0</ele><time>2026-03-29T15:38:18.998Z</time></trkpt><trkpt lat="44.60874293908989" lon="9.197584554157844"><ele>1305.0</ele><time>2026-03-29T15:38:19.998Z</time></trkpt><trkpt lat="44.6088324059048" lon="9.197531125557536"><ele>1303.0</ele><time>2026-03-29T15:38:20.998Z</time></trkpt><trkpt lat="44.60891311494565" lon="9.197457291768394"><ele>1305.6000000000001</ele><time>2026-03-29T15:38:21.998Z</time></trkpt><trkpt lat="44.6089795276334" lon="9.197369439549819"><ele>1308.2</ele><time>2026-03-29T15:38:22.998Z</time></trkpt><trkpt lat="44.60904457647403" lon="9.197247696221822"><ele>1310.8</ele><time>2026-03-29T15:38:23.998Z</time></trkpt><trkpt lat="44.60910311416696" lon="9.197110081438858"><ele>1313.4</ele><time>2026-03-29T15:38:24.998Z</time></trkpt><trkpt lat="44.60914794752543" lon="9.196957290841066"><ele>1316.0</ele><time>2026-03-29T15:38:25.998Z</time></trkpt><trkpt lat="44.6091755132374" lon="9.196793613055249"><ele>1316.0</ele><time>2026-03-29T15:38:26.998Z</time></trkpt><trkpt lat="44.609200402063756" lon="9.196639534468401"><ele>1316.0</ele><time>2026-03-29T15:38:27.998Z</time></trkpt><trkpt lat="44.60923841722274" lon="9.196489642569464"><ele>1316.0</ele><time>2026-03-29T15:38:28.998Z</time></trkpt><trkpt lat="44.609251636325894" lon="9.196334669867731"><ele>1316.0</ele><time>2026-03-29T15:38:29.998Z</time></trkpt><trkpt lat="44.60924802348082" lon="9.196184074229219"><ele>1316.0</ele><time>2026-03-29T15:38:30.998Z</time></trkpt><trkpt lat="44.60923461722536" lon="9.196042884593245"><ele>1312.4</ele><time>2026-03-29T15:38:31.998Z</time></trkpt><trkpt lat="44.609219872815146" lon="9.195900157531664"><ele>1308.8</ele><time>2026-03-29T15:38:32.998Z</time></trkpt><trkpt lat="44.60924971894263" lon="9.195756457053692"><ele>1305.2</ele><time>2026-03-29T15:38:33.998Z</time></trkpt><trkpt lat="44.60929232554374" lon="9.195618562152957"><ele>1301.6000000000001</ele><time>2026-03-29T15:38:34.998Z</time></trkpt><trkpt lat="44.60935531354029" lon="9.195479476064722"><ele>1298.0</ele><time>2026-03-29T15:38:35.998Z</time></trkpt><trkpt lat="44.60941778763229" lon="9.195336203160595"><ele>1294.75</ele><time>2026-03-29T15:38:36.998Z</time></trkpt><trkpt lat="44.60947190278872" lon="9.195187774721392"><ele>1291.5</ele><time>2026-03-29T15:38:37.998Z</time></trkpt><trkpt lat="44.60952886038804" lon="9.195041385221353"><ele>1288.25</ele><time>2026-03-29T15:38:38.998Z</time></trkpt><trkpt lat="44.609598341933975" lon="9.194910597845459"><ele>1285.0</ele><time>2026-03-29T15:38:39.998Z</time></trkpt><trkpt lat="44.60968391046046" lon="9.194797622279735"><ele>1285.0</ele><time>2026-03-29T15:38:40.998Z</time></trkpt><trkpt lat="44.60978172239933" lon="9.194710905981106"><ele>1285.0</ele><time>2026-03-29T15:38:42Z</time></trkpt><trkpt lat="44.609880410320564" lon="9.194634529863126"><ele>1285.0</ele><time>2026-03-29T15:38:43Z</time></trkpt><trkpt lat="44.60997417738872" lon="9.194557074191703"><ele>1285.0</ele><time>2026-03-29T15:38:44Z</time></trkpt><trkpt lat="44.61005648068342" lon="9.194461989543703"><ele>1285.0</ele><time>2026-03-29T15:38:45Z</time></trkpt><trkpt lat="44.61012482502351" lon="9.194341815854491"><ele>1285.0</ele><time>2026-03-29T15:38:46Z</time></trkpt><trkpt lat="44.61018444984928" lon="9.194201646842588"><ele>1285.0</ele><time>2026-03-29T15:38:47Z</time></trkpt><trkpt lat="44.610248956243765" lon="9.194053219911385"><ele>1285.0</ele><time>2026-03-29T15:38:48Z</time></trkpt><trkpt lat="44.610319945659455" lon="9.19391085080075"><ele>1285.0</ele><time>2026-03-29T15:38:49Z</time></trkpt><trkpt lat="44.61039107496169" lon="9.19376503405576"><ele>1283.75</ele><time>2026-03-29T15:38:50Z</time></trkpt><trkpt lat="44.610454433556555" lon="9.193600094743957"><ele>1282.5</ele><time>2026-03-29T15:38:51Z</time></trkpt><trkpt lat="44.61051015479395" lon="9.193431282114812"><ele>1281.25</ele><time>2026-03-29T15:38:52Z</time></trkpt><trkpt lat="44.610570885608375" lon="9.193254882570074"><ele>1280.0</ele><time>2026-03-29T15:38:53Z</time></trkpt><trkpt lat="44.61062676710656" lon="9.193075774059398"><ele>1280.0</ele><time>2026-03-29T15:38:54Z</time></trkpt><trkpt lat="44.61068307517658" lon="9.192878438512896"><ele>1280.0</ele><time>2026-03-29T15:38:55Z</time></trkpt><trkpt lat="44.61073781686565" lon="9.192674336915955"><ele>1280.0</ele><time>2026-03-29T15:38:56Z</time></trkpt><trkpt lat="44.610761786199824" lon="9.192570566912282"><ele>1280.0</ele><time>2026-03-29T15:38:57Z</time></trkpt><trkpt lat="44.61079283071414" lon="9.192377262696029"><ele>1278.5</ele><time>2026-03-29T15:38:58Z</time></trkpt><trkpt lat="44.61081016999906" lon="9.19219630493875"><ele>1277.0</ele><time>2026-03-29T15:38:59Z</time></trkpt><trkpt lat="44.61081838584386" lon="9.192030303599534"><ele>1275.5</ele><time>2026-03-29T15:39:00Z</time></trkpt><trkpt lat="44.610814451182414" lon="9.191868665839321"><ele>1274.0</ele><time>2026-03-29T15:39:01Z</time></trkpt><trkpt lat="44.61079532471881" lon="9.191707128396153"><ele>1274.0</ele><time>2026-03-29T15:39:02Z</time></trkpt><trkpt lat="44.61076673524366" lon="9.191554450249408"><ele>1274.0</ele><time>2026-03-29T15:39:02.999Z</time></trkpt><trkpt lat="44.61074282871038" lon="9.191390140750896"><ele>1274.0</ele><time>2026-03-29T15:39:03.999Z</time></trkpt><trkpt lat="44.610719001267164" lon="9.191218831126875"><ele>1274.0</ele><time>2026-03-29T15:39:04.999Z</time></trkpt><trkpt lat="44.610696158549125" lon="9.191046696940736"><ele>1272.25</ele><time>2026-03-29T15:39:05.999Z</time></trkpt><trkpt lat="44.61067043563802" lon="9.190871465269655"><ele>1270.5</ele><time>2026-03-29T15:39:06.999Z</time></trkpt><trkpt lat="44.610645157508145" lon="9.190700936578807"><ele>1268.75</ele><time>2026-03-29T15:39:07.999Z</time></trkpt><trkpt lat="44.61062080195168" lon="9.190540640172795"><ele>1267.0</ele><time>2026-03-29T15:39:08.999Z</time></trkpt><trkpt lat="44.61059702659387" lon="9.190388438470277"><ele>1263.8</ele><time>2026-03-29T15:39:09.999Z</time></trkpt><trkpt lat="44.61057845461365" lon="9.190260770953978"><ele>1260.6</ele><time>2026-03-29T15:39:10.999Z</time></trkpt><trkpt lat="44.61056192283092" lon="9.190163436419239"><ele>1257.3999999999999</ele><time>2026-03-29T15:39:11.999Z</time></trkpt><trkpt lat="44.61059352205993" lon="9.189996171091364"><ele>1254.2</ele><time>2026-03-29T15:39:13.999Z</time></trkpt><trkpt lat="44.61066091056615" lon="9.189967315575814"><ele>1251.0</ele><time>2026-03-29T15:39:14.999Z</time></trkpt><trkpt lat="44.610805176315" lon="9.189945321378318"><ele>1251.0</ele><time>2026-03-29T15:39:16.999Z</time></trkpt><trkpt lat="44.610894606693414" lon="9.189915095091928"><ele>1251.0</ele><time>2026-03-29T15:39:17.999Z</time></trkpt><trkpt lat="44.6110025259283" lon="9.18991216785001"><ele>1251.0</ele><time>2026-03-29T15:39:18.999Z</time></trkpt><trkpt lat="44.61109484506941" lon="9.189884338999597"><ele>1251.0</ele><time>2026-03-29T15:39:19.999Z</time></trkpt><trkpt lat="44.61119121106225" lon="9.189864781822095"><ele>1251.0</ele><time>2026-03-29T15:39:20.999Z</time></trkpt><trkpt lat="44.6112932022386" lon="9.189844739620609"><ele>1248.0</ele><time>2026-03-29T15:39:21.999Z</time></trkpt><trkpt lat="44.61139202253162" lon="9.189828427832687"><ele>1245.0</ele><time>2026-03-29T15:39:22.999Z</time></trkpt><trkpt lat="44.61148805463623" lon="9.189808709553624"><ele>1242.0</ele><time>2026-03-29T15:39:23.999Z</time></trkpt><trkpt lat="44.6115770131915" lon="9.189786449877396"><ele>1239.0</ele><time>2026-03-29T15:39:24.999Z</time></trkpt><trkpt lat="44.61166211293825" lon="9.189758821548876"><ele>1236.0</ele><time>2026-03-29T15:39:25.999Z</time></trkpt><trkpt lat="44.611740944378845" lon="9.189730095690331"><ele>1236.0</ele><time>2026-03-29T15:39:26.999Z</time></trkpt><trkpt lat="44.61181282920694" lon="9.189686998804863"><ele>1236.0</ele><time>2026-03-29T15:39:27.999Z</time></trkpt><trkpt lat="44.611881845196514" lon="9.18963468529632"><ele>1236.0</ele><time>2026-03-29T15:39:28.999Z</time></trkpt><trkpt lat="44.6119581053755" lon="9.189585403415325"><ele>1236.0</ele><time>2026-03-29T15:39:29.999Z</time></trkpt><trkpt lat="44.61202505116559" lon="9.189538411599774"><ele>1236.0</ele><time>2026-03-29T15:39:30.999Z</time></trkpt><trkpt lat="44.61211693439416" lon="9.189444202006149"><ele>1236.0</ele><time>2026-03-29T15:39:32.999Z</time></trkpt><trkpt lat="44.612151656278" lon="9.18929378722422"><ele>1236.0</ele><time>2026-03-29T15:39:34.999Z</time></trkpt><trkpt lat="44.612062122337996" lon="9.189149734965778"><ele>1236.0</ele><time>2026-03-29T15:39:36.999Z</time></trkpt><trkpt lat="44.611987347727336" lon="9.189134179093797"><ele>1236.0</ele><time>2026-03-29T15:39:37.999Z</time></trkpt><trkpt lat="44.611908623971" lon="9.189161196386928"><ele>1236.0</ele><time>2026-03-29T15:39:38.999Z</time></trkpt><trkpt lat="44.611823928457895" lon="9.189171970109994"><ele>1236.0</ele><time>2026-03-29T15:39:39.999Z</time></trkpt><trkpt lat="44.61173615794811" lon="9.189160175237461"><ele>1236.0</ele><time>2026-03-29T15:39:40.999Z</time></trkpt><trkpt lat="44.61164236455279" lon="9.189170667014972"><ele>1236.0</ele><time>2026-03-29T15:39:41.999Z</time></trkpt><trkpt lat="44.611545766221845" lon="9.18918022633061"><ele>1236.0</ele><time>2026-03-29T15:39:42.999Z</time></trkpt><trkpt lat="44.61144432935136" lon="9.189186670685086"><ele>1236.0</ele><time>2026-03-29T15:39:43.999Z</time></trkpt><trkpt lat="44.61134344172851" lon="9.189189637823572"><ele>1236.0</ele><time>2026-03-29T15:39:44.999Z</time></trkpt><trkpt lat="44.611233405350454" lon="9.189192320424384"><ele>1235.0</ele><time>2026-03-29T15:39:45.999Z</time></trkpt><trkpt lat="44.611137174849965" lon="9.189214408026514"><ele>1234.0</ele><time>2026-03-29T15:39:46.999Z</time></trkpt><trkpt lat="44.611032606309806" lon="9.18920633599426"><ele>1233.0</ele><time>2026-03-29T15:39:47.999Z</time></trkpt><trkpt lat="44.610928415065175" lon="9.189210448690947"><ele>1232.0</ele><time>2026-03-29T15:39:48.999Z</time></trkpt><trkpt lat="44.61083255078657" lon="9.189224493491398"><ele>1231.0</ele><time>2026-03-29T15:39:49.999Z</time></trkpt><trkpt lat="44.61074764706342" lon="9.189243258371933"><ele>1231.0</ele><time>2026-03-29T15:39:50.999Z</time></trkpt><trkpt lat="44.61067577759886" lon="9.18925038440185"><ele>1231.0</ele><time>2026-03-29T15:39:51.999Z</time></trkpt><trkpt lat="44.61056989149717" lon="9.189231163297638"><ele>1231.0</ele><time>2026-03-29T15:39:53.999Z</time></trkpt><trkpt lat="44.61054130826191" lon="9.189111595659103"><ele>1231.0</ele><time>2026-03-29T15:39:55.999Z</time></trkpt><trkpt lat="44.61057692048844" lon="9.18903491541238"><ele>1231.0</ele><time>2026-03-29T15:39:56.999Z</time></trkpt><trkpt lat="44.61063159382533" lon="9.188966844847227"><ele>1231.0</ele><time>2026-03-29T15:39:57.999Z</time></trkpt><trkpt lat="44.61070311564192" lon="9.188914498359617"><ele>1228.6666666666665</ele><time>2026-03-29T15:39:58.999Z</time></trkpt><trkpt lat="44.61078227540818" lon="9.188859350728077"><ele>1226.3333333333333</ele><time>2026-03-29T15:39:59.999Z</time></trkpt><trkpt lat="44.6108567519356" lon="9.188799674060117"><ele>1224.0</ele><time>2026-03-29T15:40:00.999Z</time></trkpt><trkpt lat="44.61092274243534" lon="9.188721038765818"><ele>1221.6666666666667</ele><time>2026-03-29T15:40:01.999Z</time></trkpt><trkpt lat="44.610998556319" lon="9.188648837189792"><ele>1219.3333333333335</ele><time>2026-03-29T15:40:02.999Z</time></trkpt><trkpt lat="44.611071502540234" lon="9.188573132406601"><ele>1217.0</ele><time>2026-03-29T15:40:03.999Z</time></trkpt><trkpt lat="44.61113942479109" lon="9.18849364377915"><ele>1217.1666666666667</ele><time>2026-03-29T15:40:04.999Z</time></trkpt><trkpt lat="44.61121086594889" lon="9.188400342680476"><ele>1217.3333333333335</ele><time>2026-03-29T15:40:05.999Z</time></trkpt><trkpt lat="44.611284759966004" lon="9.188308858236791"><ele>1217.5</ele><time>2026-03-29T15:40:06.999Z</time></trkpt><trkpt lat="44.61134832992146" lon="9.18821839040986"><ele>1217.6666666666667</ele><time>2026-03-29T15:40:07.999Z</time></trkpt><trkpt lat="44.61139158058393" lon="9.188135591923954"><ele>1217.8333333333333</ele><time>2026-03-29T15:40:08.999Z</time></trkpt><trkpt lat="44.6114286251982" lon="9.188055820863744"><ele>1218.0</ele><time>2026-03-29T15:40:09.999Z</time></trkpt><trkpt lat="44.611458905580136" lon="9.187973803344349"><ele>1218.0</ele><time>2026-03-29T15:40:10.999Z</time></trkpt><trkpt lat="44.611469142041855" lon="9.187867849676145"><ele>1218.0</ele><time>2026-03-29T15:40:11.999Z</time></trkpt><trkpt lat="44.61145325683221" lon="9.18775894873793"><ele>1218.0</ele><time>2026-03-29T15:40:12.999Z</time></trkpt><trkpt lat="44.611414778714575" lon="9.187646146280512"><ele>1218.0</ele><time>2026-03-29T15:40:13.999Z</time></trkpt><trkpt lat="44.611366622150335" lon="9.187544398528543"><ele>1218.0</ele><time>2026-03-29T15:40:14.999Z</time></trkpt><trkpt lat="44.61131597064909" lon="9.187438083144782"><ele>1218.0</ele><time>2026-03-29T15:40:15.999Z</time></trkpt><trkpt lat="44.61128039349764" lon="9.187316575025068"><ele>1217.2</ele><time>2026-03-29T15:40:16.998Z</time></trkpt><trkpt lat="44.611262687530704" lon="9.187172668775565"><ele>1216.4</ele><time>2026-03-29T15:40:17.998Z</time></trkpt><trkpt lat="44.6112538774402" lon="9.187023963727023"><ele>1215.6000000000001</ele><time>2026-03-29T15:40:18.998Z</time></trkpt><trkpt lat="44.61124489417788" lon="9.186866660008551"><ele>1214.8</ele><time>2026-03-29T15:40:19.998Z</time></trkpt><trkpt lat="44.61122386591106" lon="9.18671789644226"><ele>1214.0</ele><time>2026-03-29T15:40:20.998Z</time></trkpt><trkpt lat="44.6111966128072" lon="9.18657048682702"><ele>1212.6000000000001</ele><time>2026-03-29T15:40:21.998Z</time></trkpt><trkpt lat="44.61117340096224" lon="9.186426056048491"><ele>1211.2</ele><time>2026-03-29T15:40:22.998Z</time></trkpt><trkpt lat="44.611158058913865" lon="9.186283766818123"><ele>1209.8000000000002</ele><time>2026-03-29T15:40:23.998Z</time></trkpt><trkpt lat="44.61115135902996" lon="9.186143444176494"><ele>1208.4</ele><time>2026-03-29T15:40:24.998Z</time></trkpt><trkpt lat="44.61114032760673" lon="9.186004833155305"><ele>1207.0</ele><time>2026-03-29T15:40:25.998Z</time></trkpt><trkpt lat="44.61113888779201" lon="9.185861031206374"><ele>1203.2</ele><time>2026-03-29T15:40:26.998Z</time></trkpt><trkpt lat="44.61114630587681" lon="9.185716637465026"><ele>1199.4</ele><time>2026-03-29T15:40:27.998Z</time></trkpt><trkpt lat="44.61115865236063" lon="9.185574736514168"><ele>1195.6</ele><time>2026-03-29T15:40:28.998Z</time></trkpt><trkpt lat="44.61117019359875" lon="9.185429606115349"><ele>1191.8</ele><time>2026-03-29T15:40:29.998Z</time></trkpt><trkpt lat="44.61119357043443" lon="9.185294225063874"><ele>1188.0</ele><time>2026-03-29T15:40:30.998Z</time></trkpt><trkpt lat="44.61123545226351" lon="9.185173107261445"><ele>1188.0</ele><time>2026-03-29T15:40:31.998Z</time></trkpt><trkpt lat="44.61129361898987" lon="9.185065813892498"><ele>1188.0</ele><time>2026-03-29T15:40:32.998Z</time></trkpt><trkpt lat="44.61137822158358" lon="9.184979804410405"><ele>1188.0</ele><time>2026-03-29T15:40:33.998Z</time></trkpt><trkpt lat="44.61147523010405" lon="9.184918569062887"><ele>1188.0</ele><time>2026-03-29T15:40:34.998Z</time></trkpt><trkpt lat="44.61157469252423" lon="9.184866451245997"><ele>1188.0</ele><time>2026-03-29T15:40:35.998Z</time></trkpt><trkpt lat="44.61167335335198" lon="9.184813389709168"><ele>1186.0</ele><time>2026-03-29T15:40:36.998Z</time></trkpt><trkpt lat="44.61177888376574" lon="9.184761703468515"><ele>1184.0</ele><time>2026-03-29T15:40:37.998Z</time></trkpt><trkpt lat="44.61188964274105" lon="9.184720593515213"><ele>1182.0</ele><time>2026-03-29T15:40:38.998Z</time></trkpt><trkpt lat="44.611999540438525" lon="9.184694012563918"><ele>1180.0</ele><time>2026-03-29T15:40:39.998Z</time></trkpt><trkpt lat="44.61210082479763" lon="9.184672100747532"><ele>1178.0</ele><time>2026-03-29T15:40:40.998Z</time></trkpt><trkpt lat="44.61219883947972" lon="9.184650399410266"><ele>1178.0</ele><time>2026-03-29T15:40:41.998Z</time></trkpt><trkpt lat="44.61230197083643" lon="9.184632901080462"><ele>1178.0</ele><time>2026-03-29T15:40:42.998Z</time></trkpt><trkpt lat="44.61239218050655" lon="9.184585930851323"><ele>1178.0</ele><time>2026-03-29T15:40:43.998Z</time></trkpt><trkpt lat="44.612474841217555" lon="9.184546517558053"><ele>1178.0</ele><time>2026-03-29T15:40:44.998Z</time></trkpt><trkpt lat="44.61255689598466" lon="9.1844922382281"><ele>1178.0</ele><time>2026-03-29T15:40:45.998Z</time></trkpt><trkpt lat="44.61262726123797" lon="9.184416059842784"><ele>1178.0</ele><time>2026-03-29T15:40:46.998Z</time></trkpt><trkpt lat="44.612672910039485" lon="9.184319717323183"><ele>1178.0</ele><time>2026-03-29T15:40:48Z</time></trkpt><trkpt lat="44.61269023484816" lon="9.184223212780381"><ele>1178.0</ele><time>2026-03-29T15:40:49Z</time></trkpt><trkpt lat="44.612656926653024" lon="9.184081395394829"><ele>1178.0</ele><time>2026-03-29T15:40:51Z</time></trkpt><trkpt lat="44.61252923125484" lon="9.184047703596612"><ele>1178.0</ele><time>2026-03-29T15:40:53Z</time></trkpt><trkpt lat="44.61245399167278" lon="9.184093623531183"><ele>1178.0</ele><time>2026-03-29T15:40:54Z</time></trkpt><trkpt lat="44.61237397520844" lon="9.184158702728714"><ele>1178.0</ele><time>2026-03-29T15:40:55Z</time></trkpt><trkpt lat="44.6122853935957" lon="9.184213015950823"><ele>1178.0</ele><time>2026-03-29T15:40:56Z</time></trkpt><trkpt lat="44.6121921362165" lon="9.184251450411075"><ele>1178.0</ele><time>2026-03-29T15:40:57Z</time></trkpt><trkpt lat="44.61209595226087" lon="9.184260812397977"><ele>1178.0</ele><time>2026-03-29T15:40:58Z</time></trkpt><trkpt lat="44.611992782361924" lon="9.184260336058056"><ele>1175.4</ele><time>2026-03-29T15:40:59Z</time></trkpt><trkpt lat="44.611884420971165" lon="9.184247452754787"><ele>1172.8</ele><time>2026-03-29T15:41:00Z</time></trkpt><trkpt lat="44.61177506897887" lon="9.184257302981772"><ele>1170.2</ele><time>2026-03-29T15:41:01Z</time></trkpt><trkpt lat="44.61166628537785" lon="9.184265745610716"><ele>1167.6</ele><time>2026-03-29T15:41:02Z</time></trkpt><trkpt lat="44.61156173557705" lon="9.184264820622131"><ele>1165.0</ele><time>2026-03-29T15:41:03Z</time></trkpt><trkpt lat="44.61145862385941" lon="9.184260549646078"><ele>1165.0</ele><time>2026-03-29T15:41:04Z</time></trkpt><trkpt lat="44.61135802473856" lon="9.184254648732617"><ele>1165.0</ele><time>2026-03-29T15:41:05Z</time></trkpt><trkpt lat="44.61126014602922" lon="9.184237403641314"><ele>1165.0</ele><time>2026-03-29T15:41:06Z</time></trkpt><trkpt lat="44.61116178693062" lon="9.184242027128223"><ele>1165.0</ele><time>2026-03-29T15:41:07Z</time></trkpt><trkpt lat="44.61106488080625" lon="9.184267268175136"><ele>1165.0</ele><time>2026-03-29T15:41:08Z</time></trkpt><trkpt lat="44.61097794110684" lon="9.184319058219847"><ele>1161.6666666666665</ele><time>2026-03-29T15:41:08.999Z</time></trkpt><trkpt lat="44.61089177369471" lon="9.184381237554677"><ele>1158.3333333333333</ele><time>2026-03-29T15:41:09.999Z</time></trkpt><trkpt lat="44.61081786859632" lon="9.184461669931476"><ele>1155.0</ele><time>2026-03-29T15:41:10.999Z</time></trkpt><trkpt lat="44.610753922256556" lon="9.184541090237747"><ele>1151.6666666666667</ele><time>2026-03-29T15:41:11.999Z</time></trkpt><trkpt lat="44.61070949914576" lon="9.18461462076725"><ele>1148.3333333333335</ele><time>2026-03-29T15:41:12.999Z</time></trkpt><trkpt lat="44.61064756865378" lon="9.184724397676975"><ele>1145.0</ele><time>2026-03-29T15:41:14.999Z</time></trkpt><trkpt lat="44.610583513469344" lon="9.184828941993853"><ele>1145.0</ele><time>2026-03-29T15:41:16.999Z</time></trkpt><trkpt lat="44.610515321835585" lon="9.18483594078496"><ele>1145.0</ele><time>2026-03-29T15:41:18.999Z</time></trkpt><trkpt lat="44.61048863125572" lon="9.184696645082436"><ele>1145.0</ele><time>2026-03-29T15:41:20.999Z</time></trkpt><trkpt lat="44.610531264487214" lon="9.18461529771217"><ele>1145.0</ele><time>2026-03-29T15:41:21.999Z</time></trkpt><trkpt lat="44.610583692214604" lon="9.184526640275285"><ele>1145.0</ele><time>2026-03-29T15:41:22.999Z</time></trkpt><trkpt lat="44.610639202913944" lon="9.184424578623995"><ele>1145.0</ele><time>2026-03-29T15:41:23.999Z</time></trkpt><trkpt lat="44.61070283894691" lon="9.184308343229679"><ele>1145.0</ele><time>2026-03-29T15:41:24.999Z</time></trkpt><trkpt lat="44.61076823489339" lon="9.18418891495143"><ele>1145.0</ele><time>2026-03-29T15:41:25.999Z</time></trkpt><trkpt lat="44.610831908668246" lon="9.184058589470297"><ele>1145.0</ele><time>2026-03-29T15:41:26.999Z</time></trkpt><trkpt lat="44.61089339314481" lon="9.183921296591352"><ele>1145.0</ele><time>2026-03-29T15:41:27.999Z</time></trkpt><trkpt lat="44.610954772299976" lon="9.183785967394025"><ele>1145.0</ele><time>2026-03-29T15:41:28.999Z</time></trkpt><trkpt lat="44.61100764219337" lon="9.183646848187276"><ele>1145.0</ele><time>2026-03-29T15:41:29.999Z</time></trkpt><trkpt lat="44.6110598868815" lon="9.183513073514302"><ele>1145.0</ele><time>2026-03-29T15:41:30.999Z</time></trkpt><trkpt lat="44.611112429419634" lon="9.183384430298245"><ele>1145.0</ele><time>2026-03-29T15:41:31.999Z</time></trkpt><trkpt lat="44.611165904236636" lon="9.183261584850358"><ele>1145.0</ele><time>2026-03-29T15:41:32.999Z</time></trkpt><trkpt lat="44.6112289795326" lon="9.183148770074544"><ele>1145.0</ele><time>2026-03-29T15:41:33.999Z</time></trkpt><trkpt lat="44.61130374731179" lon="9.183059801961283"><ele>1139.6</ele><time>2026-03-29T15:41:34.999Z</time></trkpt><trkpt lat="44.611394106477206" lon="9.182994021447136"><ele>1134.2</ele><time>2026-03-29T15:41:35.999Z</time></trkpt><trkpt lat="44.61148849163278" lon="9.182954809203629"><ele>1128.8</ele><time>2026-03-29T15:41:36.999Z</time></trkpt><trkpt lat="44.6115913283796" lon="9.182932403013051"><ele>1123.4</ele><time>2026-03-29T15:41:37.999Z</time></trkpt><trkpt lat="44.611690720659574" lon="9.18290316177233"><ele>1118.0</ele><time>2026-03-29T15:41:38.999Z</time></trkpt><trkpt lat="44.61178829841877" lon="9.182847150429286"><ele>1118.0</ele><time>2026-03-29T15:41:39.999Z</time></trkpt><trkpt lat="44.611880999978055" lon="9.18278988361132"><ele>1118.0</ele><time>2026-03-29T15:41:40.999Z</time></trkpt><trkpt lat="44.61198306271563" lon="9.18274530384602"><ele>1118.0</ele><time>2026-03-29T15:41:41.999Z</time></trkpt><trkpt lat="44.61207733621362" lon="9.182706373346974"><ele>1118.0</ele><time>2026-03-29T15:41:42.999Z</time></trkpt><trkpt lat="44.61216560474085" lon="9.182671112574917"><ele>1118.0</ele><time>2026-03-29T15:41:43.999Z</time></trkpt><trkpt lat="44.61224541858525" lon="9.182645507199558"><ele>1119.5</ele><time>2026-03-29T15:41:44.999Z</time></trkpt><trkpt lat="44.6123107143914" lon="9.18262958325657"><ele>1121.0</ele><time>2026-03-29T15:41:45.999Z</time></trkpt><trkpt lat="44.61238588770666" lon="9.182602485493268"><ele>1122.5</ele><time>2026-03-29T15:41:46.999Z</time></trkpt><trkpt lat="44.612449004757615" lon="9.182548623065431"><ele>1124.0</ele><time>2026-03-29T15:41:47.999Z</time></trkpt><trkpt lat="44.61249420413327" lon="9.182470026539315"><ele>1125.5</ele><time>2026-03-29T15:41:48.999Z</time></trkpt><trkpt lat="44.612520031848156" lon="9.182360918456869"><ele>1127.0</ele><time>2026-03-29T15:41:49.999Z</time></trkpt><trkpt lat="44.61252080702658" lon="9.182239238950965"><ele>1127.0</ele><time>2026-03-29T15:41:50.999Z</time></trkpt><trkpt lat="44.612510746544" lon="9.182117574502414"><ele>1127.0</ele><time>2026-03-29T15:41:51.999Z</time></trkpt><trkpt lat="44.612484130948104" lon="9.181983054510964"><ele>1127.0</ele><time>2026-03-29T15:41:52.999Z</time></trkpt><trkpt lat="44.61245698691304" lon="9.18184991252921"><ele>1127.0</ele><time>2026-03-29T15:41:53.999Z</time></trkpt><trkpt lat="44.612436253434694" lon="9.181711458789469"><ele>1127.0</ele><time>2026-03-29T15:41:54.999Z</time></trkpt><trkpt lat="44.61241451689592" lon="9.181563853925141"><ele>1124.0</ele><time>2026-03-29T15:41:55.999Z</time></trkpt><trkpt lat="44.61239185936377" lon="9.18141571211988"><ele>1121.0</ele><time>2026-03-29T15:41:56.999Z</time></trkpt><trkpt lat="44.61236901495887" lon="9.181269009631851"><ele>1118.0</ele><time>2026-03-29T15:41:57.999Z</time></trkpt><trkpt lat="44.61234394398321" lon="9.181126576372623"><ele>1115.0</ele><time>2026-03-29T15:41:58.999Z</time></trkpt><trkpt lat="44.61232733947249" lon="9.180986903569616"><ele>1112.0</ele><time>2026-03-29T15:41:59.999Z</time></trkpt><trkpt lat="44.612315134251524" lon="9.18086041983974"><ele>1112.0</ele><time>2026-03-29T15:42:00.999Z</time></trkpt><trkpt lat="44.61231119871521" lon="9.180740587840495"><ele>1112.0</ele><time>2026-03-29T15:42:01.999Z</time></trkpt><trkpt lat="44.61233249854934" lon="9.180627125580424"><ele>1112.0</ele><time>2026-03-29T15:42:02.999Z</time></trkpt><trkpt lat="44.61236672115497" lon="9.18051075016299"><ele>1112.0</ele><time>2026-03-29T15:42:03.999Z</time></trkpt><trkpt lat="44.61243728119201" lon="9.18040940603223"><ele>1112.0</ele><time>2026-03-29T15:42:04.999Z</time></trkpt><trkpt lat="44.612528235039825" lon="9.180324106472517"><ele>1108.8</ele><time>2026-03-29T15:42:05.999Z</time></trkpt><trkpt lat="44.61262051001088" lon="9.180250497913853"><ele>1105.6</ele><time>2026-03-29T15:42:06.999Z</time></trkpt><trkpt lat="44.612717397046815" lon="9.18019284332486"><ele>1102.3999999999999</ele><time>2026-03-29T15:42:07.999Z</time></trkpt><trkpt lat="44.61282161285711" lon="9.180154992979034"><ele>1099.2</ele><time>2026-03-29T15:42:08.999Z</time></trkpt><trkpt lat="44.61293827168299" lon="9.18015240985487"><ele>1096.0</ele><time>2026-03-29T15:42:09.999Z</time></trkpt><trkpt lat="44.61306067033504" lon="9.180160300387268"><ele>1095.0</ele><time>2026-03-29T15:42:10.999Z</time></trkpt><trkpt lat="44.61318692751258" lon="9.180175210480911"><ele>1094.0</ele><time>2026-03-29T15:42:11.999Z</time></trkpt><trkpt lat="44.61331207125244" lon="9.180194870025868"><ele>1093.0</ele><time>2026-03-29T15:42:12.999Z</time></trkpt><trkpt lat="44.613426243678305" lon="9.180228834070707"><ele>1092.0</ele><time>2026-03-29T15:42:13.999Z</time></trkpt><trkpt lat="44.613528650477434" lon="9.180290701361116"><ele>1092.0</ele><time>2026-03-29T15:42:14.999Z</time></trkpt><trkpt lat="44.61363274110393" lon="9.180356206094196"><ele>1092.0</ele><time>2026-03-29T15:42:15.999Z</time></trkpt><trkpt lat="44.61374310563266" lon="9.180411005803215"><ele>1092.0</ele><time>2026-03-29T15:42:16.999Z</time></trkpt><trkpt lat="44.61386128356722" lon="9.180422012867437"><ele>1092.0</ele><time>2026-03-29T15:42:17.999Z</time></trkpt><trkpt lat="44.613979299429026" lon="9.180400118080469"><ele>1090.8</ele><time>2026-03-29T15:42:18.999Z</time></trkpt><trkpt lat="44.61409019298068" lon="9.180359552242173"><ele>1089.6</ele><time>2026-03-29T15:42:19.999Z</time></trkpt><trkpt lat="44.614181254770166" lon="9.180300690141335"><ele>1088.3999999999999</ele><time>2026-03-29T15:42:20.999Z</time></trkpt><trkpt lat="44.61424628433004" lon="9.18021171221379"><ele>1087.2</ele><time>2026-03-29T15:42:21.999Z</time></trkpt><trkpt lat="44.6142961060572" lon="9.180103953506364"><ele>1086.0</ele><time>2026-03-29T15:42:22.999Z</time></trkpt><trkpt lat="44.61434455804151" lon="9.179988959477786"><ele>1086.0</ele><time>2026-03-29T15:42:23.998Z</time></trkpt><trkpt lat="44.61439410406693" lon="9.179867184875405"><ele>1086.0</ele><time>2026-03-29T15:42:24.998Z</time></trkpt><trkpt lat="44.61439425848922" lon="9.179721344126921"><ele>1086.0</ele><time>2026-03-29T15:42:25.998Z</time></trkpt><trkpt lat="44.61442863672791" lon="9.17959728578723"><ele>1086.0</ele><time>2026-03-29T15:42:26.998Z</time></trkpt><trkpt lat="44.61447284152575" lon="9.179500268493898"><ele>1086.0</ele><time>2026-03-29T15:42:27.998Z</time></trkpt><trkpt lat="44.614534684658615" lon="9.179447724965547"><ele>1082.0</ele><time>2026-03-29T15:42:28.998Z</time></trkpt><trkpt lat="44.61461425724593" lon="9.179428649517853"><ele>1078.0</ele><time>2026-03-29T15:42:29.998Z</time></trkpt><trkpt lat="44.61471109246864" lon="9.179447152804642"><ele>1074.0</ele><time>2026-03-29T15:42:30.998Z</time></trkpt><trkpt lat="44.61482363213277" lon="9.179483473398337"><ele>1070.0</ele><time>2026-03-29T15:42:31.998Z</time></trkpt><trkpt lat="44.614940548179646" lon="9.179516335360749"><ele>1066.0</ele><time>2026-03-29T15:42:32.998Z</time></trkpt><trkpt lat="44.6150643130181" lon="9.179551502643113"><ele>1066.0</ele><time>2026-03-29T15:42:33.998Z</time></trkpt><trkpt lat="44.61518575055054" lon="9.179571694706173"><ele>1066.0</ele><time>2026-03-29T15:42:34.998Z</time></trkpt><trkpt lat="44.61530749355405" lon="9.17959601535618"><ele>1066.0</ele><time>2026-03-29T15:42:35.998Z</time></trkpt><trkpt lat="44.61542912217489" lon="9.179617319571703"><ele>1066.0</ele><time>2026-03-29T15:42:36.998Z</time></trkpt><trkpt lat="44.61554819292014" lon="9.179652742986008"><ele>1063.75</ele><time>2026-03-29T15:42:37.998Z</time></trkpt><trkpt lat="44.615666649936045" lon="9.179674123072774"><ele>1061.5</ele><time>2026-03-29T15:42:38.998Z</time></trkpt><trkpt lat="44.615786728516966" lon="9.179697436532315"><ele>1059.25</ele><time>2026-03-29T15:42:39.998Z</time></trkpt><trkpt lat="44.61590466860978" lon="9.17975996998639"><ele>1057.0</ele><time>2026-03-29T15:42:40.998Z</time></trkpt><trkpt lat="44.61602254385276" lon="9.179827442731956"><ele>1057.25</ele><time>2026-03-29T15:42:41.998Z</time></trkpt><trkpt lat="44.616131801632385" lon="9.179889381170266"><ele>1057.5</ele><time>2026-03-29T15:42:42.998Z</time></trkpt><trkpt lat="44.61623430413346" lon="9.179951435967713"><ele>1057.75</ele><time>2026-03-29T15:42:43.998Z</time></trkpt><trkpt lat="44.61633876808263" lon="9.18001243641613"><ele>1058.0</ele><time>2026-03-29T15:42:44.998Z</time></trkpt><trkpt lat="44.6164399958375" lon="9.180089167408248"><ele>1058.0</ele><time>2026-03-29T15:42:45.998Z</time></trkpt><trkpt lat="44.61652403833427" lon="9.180191547575907"><ele>1058.0</ele><time>2026-03-29T15:42:46.998Z</time></trkpt><trkpt lat="44.61659388762794" lon="9.180317975657319"><ele>1058.0</ele><time>2026-03-29T15:42:47.998Z</time></trkpt><trkpt lat="44.616657945074735" lon="9.180427888385893"><ele>1058.0</ele><time>2026-03-29T15:42:48.998Z</time></trkpt><trkpt lat="44.61671694318377" lon="9.180513031951401"><ele>1058.0</ele><time>2026-03-29T15:42:49.998Z</time></trkpt><trkpt lat="44.61676581781411" lon="9.180580210679572"><ele>1058.0</ele><time>2026-03-29T15:42:50.998Z</time></trkpt><trkpt lat="44.61685983057093" lon="9.18059020458767"><ele>1058.0</ele><time>2026-03-29T15:42:52.998Z</time></trkpt><trkpt lat="44.616909714906654" lon="9.180519881348378"><ele>1058.0</ele><time>2026-03-29T15:42:54Z</time></trkpt><trkpt lat="44.6169194459202" lon="9.180410385490125"><ele>1058.0</ele><time>2026-03-29T15:42:55Z</time></trkpt><trkpt lat="44.61688242675345" lon="9.180307097708676"><ele>1058.0</ele><time>2026-03-29T15:42:56Z</time></trkpt><trkpt lat="44.61682114344554" lon="9.180212456908214"><ele>1058.0</ele><time>2026-03-29T15:42:57Z</time></trkpt><trkpt lat="44.61675049189005" lon="9.18012226530578"><ele>1058.0</ele><time>2026-03-29T15:42:58Z</time></trkpt><trkpt lat="44.61668698473621" lon="9.180019129329457"><ele>1058.0</ele><time>2026-03-29T15:42:59Z</time></trkpt><trkpt lat="44.616622994374204" lon="9.179912462165971"><ele>1058.0</ele><time>2026-03-29T15:43:00Z</time></trkpt><trkpt lat="44.61655707909232" lon="9.179803778385391"><ele>1058.0</ele><time>2026-03-29T15:43:01Z</time></trkpt><trkpt lat="44.616496218478275" lon="9.179694138180398"><ele>1058.0</ele><time>2026-03-29T15:43:02Z</time></trkpt><trkpt lat="44.61641971343932" lon="9.179581146306488"><ele>1057.8</ele><time>2026-03-29T15:43:03Z</time></trkpt><trkpt lat="44.616342963001436" lon="9.179466991238433"><ele>1057.6</ele><time>2026-03-29T15:43:04Z</time></trkpt><trkpt lat="44.61626741091609" lon="9.179348302369062"><ele>1057.4</ele><time>2026-03-29T15:43:05Z</time></trkpt><trkpt lat="44.61619888805017" lon="9.179222615771778"><ele>1057.2</ele><time>2026-03-29T15:43:06Z</time></trkpt><trkpt lat="44.61613548336069" lon="9.179106164120014"><ele>1057.0</ele><time>2026-03-29T15:43:07Z</time></trkpt><trkpt lat="44.616092712100496" lon="9.178979309149568"><ele>1054.0</ele><time>2026-03-29T15:43:08Z</time></trkpt><trkpt lat="44.616069044651766" lon="9.178840718456922"><ele>1051.0</ele><time>2026-03-29T15:43:09Z</time></trkpt><trkpt lat="44.616056137509474" lon="9.178698221385465"><ele>1048.0</ele><time>2026-03-29T15:43:10Z</time></trkpt><trkpt lat="44.61604881092046" lon="9.178558834417709"><ele>1045.0</ele><time>2026-03-29T15:43:11Z</time></trkpt><trkpt lat="44.61603439460825" lon="9.178427568720682"><ele>1042.0</ele><time>2026-03-29T15:43:12Z</time></trkpt><trkpt lat="44.6160164942141" lon="9.178303376838763"><ele>1042.0</ele><time>2026-03-29T15:43:13Z</time></trkpt><trkpt lat="44.615985175226044" lon="9.178192086498349"><ele>1042.0</ele><time>2026-03-29T15:43:14Z</time></trkpt><trkpt lat="44.61594606130988" lon="9.178101555752221"><ele>1042.0</ele><time>2026-03-29T15:43:15Z</time></trkpt><trkpt lat="44.615889727604255" lon="9.178039481988417"><ele>1042.0</ele><time>2026-03-29T15:43:16Z</time></trkpt><trkpt lat="44.61581611054447" lon="9.17800620798388"><ele>1042.0</ele><time>2026-03-29T15:43:17Z</time></trkpt><trkpt lat="44.615722190228894" lon="9.178010488541748"><ele>1042.0</ele><time>2026-03-29T15:43:17.999Z</time></trkpt><trkpt lat="44.61561814360724" lon="9.178047921928835"><ele>1037.75</ele><time>2026-03-29T15:43:18.999Z</time></trkpt><trkpt lat="44.615506142211196" lon="9.178088637997833"><ele>1033.5</ele><time>2026-03-29T15:43:19.999Z</time></trkpt><trkpt lat="44.61538874300027" lon="9.17811731980974"><ele>1029.25</ele><time>2026-03-29T15:43:20.999Z</time></trkpt><trkpt lat="44.615265068188464" lon="9.178137081129126"><ele>1025.0</ele><time>2026-03-29T15:43:21.999Z</time></trkpt><trkpt lat="44.61514542530802" lon="9.17815877044186"><ele>1025.0</ele><time>2026-03-29T15:43:22.999Z</time></trkpt><trkpt lat="44.61502880989805" lon="9.178160065257305"><ele>1025.0</ele><time>2026-03-29T15:43:23.999Z</time></trkpt><trkpt lat="44.614913596369306" lon="9.178150812974987"><ele>1025.0</ele><time>2026-03-29T15:43:24.999Z</time></trkpt><trkpt lat="44.6148071998501" lon="9.178111000678577"><ele>1025.0</ele><time>2026-03-29T15:43:25.999Z</time></trkpt><trkpt lat="44.61470761174451" lon="9.17807041922573"><ele>1025.0</ele><time>2026-03-29T15:43:26.999Z</time></trkpt><trkpt lat="44.61462495853212" lon="9.17801792865629"><ele>1025.0</ele><time>2026-03-29T15:43:27.999Z</time></trkpt><trkpt lat="44.614553340222244" lon="9.177938349191779"><ele>1025.0</ele><time>2026-03-29T15:43:28.999Z</time></trkpt><trkpt lat="44.61451109692734" lon="9.177843864371683"><ele>1025.0</ele><time>2026-03-29T15:43:29.999Z</time></trkpt><trkpt lat="44.6144998966927" lon="9.17771826071483"><ele>1025.0</ele><time>2026-03-29T15:43:30.999Z</time></trkpt><trkpt lat="44.61452099185029" lon="9.17757350635076"><ele>1025.0</ele><time>2026-03-29T15:43:31.999Z</time></trkpt><trkpt lat="44.614560710609936" lon="9.17742614423214"><ele>1023.8</ele><time>2026-03-29T15:43:32.999Z</time></trkpt><trkpt lat="44.61461623764218" lon="9.177284397388416"><ele>1022.6</ele><time>2026-03-29T15:43:33.999Z</time></trkpt><trkpt lat="44.61468495968038" lon="9.17714954172837"><ele>1021.4000000000001</ele><time>2026-03-29T15:43:34.999Z</time></trkpt><trkpt lat="44.61475993170058" lon="9.17703433262085"><ele>1020.2</ele><time>2026-03-29T15:43:35.999Z</time></trkpt><trkpt lat="44.61480515188121" lon="9.176904763215418"><ele>1019.0</ele><time>2026-03-29T15:43:36.999Z</time></trkpt><trkpt lat="44.61481753855124" lon="9.176757517641017"><ele>1019.0</ele><time>2026-03-29T15:43:37.999Z</time></trkpt><trkpt lat="44.61480976626862" lon="9.17661016229479"><ele>1019.0</ele><time>2026-03-29T15:43:38.999Z</time></trkpt><trkpt lat="44.614784179314114" lon="9.176462631526705"><ele>1019.0</ele><time>2026-03-29T15:43:39.999Z</time></trkpt><trkpt lat="44.614734996718674" lon="9.176328155787658"><ele>1019.0</ele><time>2026-03-29T15:43:40.999Z</time></trkpt><trkpt lat="44.61462984146943" lon="9.176220037262116"><ele>1017.75</ele><time>2026-03-29T15:43:41.999Z</time></trkpt><trkpt lat="44.61453712354468" lon="9.176118938237106"><ele>1016.5</ele><time>2026-03-29T15:43:42.999Z</time></trkpt><trkpt lat="44.61444371880641" lon="9.176015845588608"><ele>1015.25</ele><time>2026-03-29T15:43:43.999Z</time></trkpt><trkpt lat="44.614354627298965" lon="9.175911617144259"><ele>1014.0</ele><time>2026-03-29T15:43:44.999Z</time></trkpt><trkpt lat="44.61427990521871" lon="9.175799324227885"><ele>1011.4000000000001</ele><time>2026-03-29T15:43:45.999Z</time></trkpt><trkpt lat="44.614236889875095" lon="9.175664162311023"><ele>1008.8000000000001</ele><time>2026-03-29T15:43:46.999Z</time></trkpt><trkpt lat="44.61421309281103" lon="9.175528884559913"><ele>1006.1999999999999</ele><time>2026-03-29T15:43:47.999Z</time></trkpt><trkpt lat="44.614190197499894" lon="9.175400222293788"><ele>1003.5999999999999</ele><time>2026-03-29T15:43:48.999Z</time></trkpt><trkpt lat="44.614155364390214" lon="9.175306916593014"><ele>1001.0</ele><time>2026-03-29T15:43:49.999Z</time></trkpt><trkpt lat="44.614087782923846" lon="9.175240676622863"><ele>1001.0</ele><time>2026-03-29T15:43:50.999Z</time></trkpt><trkpt lat="44.613996901955254" lon="9.175200679671576"><ele>1000.9999999999999</ele><time>2026-03-29T15:43:51.999Z</time></trkpt><trkpt lat="44.61390331899248" lon="9.175186770278422"><ele>1000.9999999999999</ele><time>2026-03-29T15:43:52.999Z</time></trkpt><trkpt lat="44.613808640072534" lon="9.175208752606283"><ele>1001.0</ele><time>2026-03-29T15:43:53.999Z</time></trkpt><trkpt lat="44.61372405301923" lon="9.175259500396619"><ele>1001.0</ele><time>2026-03-29T15:43:54.999Z</time></trkpt><trkpt lat="44.61365177289617" lon="9.175309087009873"><ele>1001.0</ele><time>2026-03-29T15:43:55.999Z</time></trkpt><trkpt lat="44.61355319311515" lon="9.175333304691842"><ele>1000.9999999999999</ele><time>2026-03-29T15:43:57.999Z</time></trkpt><trkpt lat="44.61352248028961" lon="9.175179164820555"><ele>1000.9999999999999</ele><time>2026-03-29T15:43:59.999Z</time></trkpt><trkpt lat="44.61357410872951" lon="9.175099372266438"><ele>1001.0</ele><time>2026-03-29T15:44:00.999Z</time></trkpt><trkpt lat="44.61365796961536" lon="9.175044711392012"><ele>1001.0</ele><time>2026-03-29T15:44:01.999Z</time></trkpt><trkpt lat="44.61374620635009" lon="9.175007430041115"><ele>1001.0</ele><time>2026-03-29T15:44:02.999Z</time></trkpt><trkpt lat="44.61383050334233" lon="9.174954644005703"><ele>1000.9999999999999</ele><time>2026-03-29T15:44:03.999Z</time></trkpt><trkpt lat="44.61392070177658" lon="9.174885372591046"><ele>1000.9999999999999</ele><time>2026-03-29T15:44:04.999Z</time></trkpt><trkpt lat="44.61403204872788" lon="9.174794357704252"><ele>1001.0</ele><time>2026-03-29T15:44:05.999Z</time></trkpt><trkpt lat="44.614140993984755" lon="9.17472274500905"><ele>1001.0</ele><time>2026-03-29T15:44:06.999Z</time></trkpt><trkpt lat="44.61425093049928" lon="9.174661807014528"><ele>996.75</ele><time>2026-03-29T15:44:07.999Z</time></trkpt><trkpt lat="44.61438854215623" lon="9.174620129763783"><ele>992.5</ele><time>2026-03-29T15:44:08.999Z</time></trkpt><trkpt lat="44.61452410346892" lon="9.174580894477216"><ele>988.25</ele><time>2026-03-29T15:44:09.999Z</time></trkpt><trkpt lat="44.61465669372324" lon="9.174522304167045"><ele>984.0</ele><time>2026-03-29T15:44:10.999Z</time></trkpt><trkpt lat="44.61478184701043" lon="9.174457416265266"><ele>984.0</ele><time>2026-03-29T15:44:11.999Z</time></trkpt><trkpt lat="44.61490302631659" lon="9.174416044322362"><ele>984.0</ele><time>2026-03-29T15:44:12.999Z</time></trkpt><trkpt lat="44.61502802037278" lon="9.174381304445863"><ele>984.0</ele><time>2026-03-29T15:44:13.999Z</time></trkpt><trkpt lat="44.615153312755666" lon="9.174378712816896"><ele>984.0</ele><time>2026-03-29T15:44:14.999Z</time></trkpt><trkpt lat="44.615296954721984" lon="9.17439637402941"><ele>981.0</ele><time>2026-03-29T15:44:15.999Z</time></trkpt><trkpt lat="44.615437800969296" lon="9.174419491180759"><ele>978.0</ele><time>2026-03-29T15:44:16.999Z</time></trkpt><trkpt lat="44.61557116338693" lon="9.174431815180757"><ele>975.0</ele><time>2026-03-29T15:44:17.999Z</time></trkpt><trkpt lat="44.615698759193236" lon="9.174446635148533"><ele>972.0</ele><time>2026-03-29T15:44:18.999Z</time></trkpt><trkpt lat="44.6158183476712" lon="9.17447292231566"><ele>972.0</ele><time>2026-03-29T15:44:19.999Z</time></trkpt><trkpt lat="44.61593373310352" lon="9.174505113864875"><ele>972.0</ele><time>2026-03-29T15:44:20.999Z</time></trkpt><trkpt lat="44.616054542298365" lon="9.174549500065313"><ele>972.0</ele><time>2026-03-29T15:44:21.999Z</time></trkpt><trkpt lat="44.61617780407348" lon="9.174607876296706"><ele>972.0</ele><time>2026-03-29T15:44:22.999Z</time></trkpt><trkpt lat="44.61629854821887" lon="9.17464202436646"><ele>969.8</ele><time>2026-03-29T15:44:23.999Z</time></trkpt><trkpt lat="44.61641956733395" lon="9.174657810641209"><ele>967.6</ele><time>2026-03-29T15:44:24.999Z</time></trkpt><trkpt lat="44.61652898122998" lon="9.17466944298728"><ele>965.3999999999999</ele><time>2026-03-29T15:44:25.999Z</time></trkpt><trkpt lat="44.616616986376236" lon="9.174696819690222"><ele>963.1999999999999</ele><time>2026-03-29T15:44:26.999Z</time></trkpt><trkpt lat="44.616690729725605" lon="9.174748621440944"><ele>961.0</ele><time>2026-03-29T15:44:27.999Z</time></trkpt><trkpt lat="44.61675423515391" lon="9.174811577684425"><ele>960.6666666666666</ele><time>2026-03-29T15:44:28.998Z</time></trkpt><trkpt lat="44.61680662180991" lon="9.174877416375617"><ele>960.3333333333333</ele><time>2026-03-29T15:44:29.998Z</time></trkpt><trkpt lat="44.61690638560523" lon="9.175004474855863"><ele>960.0</ele><time>2026-03-29T15:44:31.998Z</time></trkpt><trkpt lat="44.61695947997382" lon="9.17506747437087"><ele>959.6666666666667</ele><time>2026-03-29T15:44:32.998Z</time></trkpt><trkpt lat="44.61701676948351" lon="9.175131827191324"><ele>959.3333333333334</ele><time>2026-03-29T15:44:33.998Z</time></trkpt><trkpt lat="44.61708005270269" lon="9.175200447829395"><ele>959.0</ele><time>2026-03-29T15:44:34.998Z</time></trkpt><trkpt lat="44.617139096666406" lon="9.175277209880708"><ele>959.0000000000001</ele><time>2026-03-29T15:44:35.998Z</time></trkpt><trkpt lat="44.61718833294784" lon="9.175368512893783"><ele>959.0</ele><time>2026-03-29T15:44:36.998Z</time></trkpt><trkpt lat="44.61721979148551" lon="9.175476539008157"><ele>959.0</ele><time>2026-03-29T15:44:37.998Z</time></trkpt><trkpt lat="44.61724366886745" lon="9.175586617765516"><ele>959.0</ele><time>2026-03-29T15:44:38.998Z</time></trkpt><trkpt lat="44.61726237347107" lon="9.175696804072125"><ele>959.0000000000001</ele><time>2026-03-29T15:44:39.998Z</time></trkpt><trkpt lat="44.617281071582205" lon="9.175808454897256"><ele>959.0</ele><time>2026-03-29T15:44:40.998Z</time></trkpt><trkpt lat="44.617306006018616" lon="9.175919780208469"><ele>959.6666666666667</ele><time>2026-03-29T15:44:41.998Z</time></trkpt><trkpt lat="44.61732241471255" lon="9.176025694011232"><ele>960.3333333333334</ele><time>2026-03-29T15:44:42.998Z</time></trkpt><trkpt lat="44.61735309664279" lon="9.17611581299938"><ele>961.0</ele><time>2026-03-29T15:44:43.998Z</time></trkpt><trkpt lat="44.61739816395335" lon="9.176198149366137"><ele>961.6666666666667</ele><time>2026-03-29T15:44:44.998Z</time></trkpt><trkpt lat="44.617487036335035" lon="9.176252599583902"><ele>962.3333333333334</ele><time>2026-03-29T15:44:46.998Z</time></trkpt><trkpt lat="44.617555104508696" lon="9.176251483819248"><ele>963.0</ele><time>2026-03-29T15:44:47.998Z</time></trkpt><trkpt lat="44.617627689120006" lon="9.176236738689804"><ele>963.0</ele><time>2026-03-29T15:44:48.998Z</time></trkpt><trkpt lat="44.617705781517635" lon="9.176227044764508"><ele>963.0</ele><time>2026-03-29T15:44:49.998Z</time></trkpt><trkpt lat="44.617785413178225" lon="9.176210191807854"><ele>963.0</ele><time>2026-03-29T15:44:50.998Z</time></trkpt><trkpt lat="44.61785746768948" lon="9.17620514248145"><ele>963.0</ele><time>2026-03-29T15:44:51.998Z</time></trkpt><trkpt lat="44.617933228687164" lon="9.176198079869895"><ele>963.0</ele><time>2026-03-29T15:44:52.998Z</time></trkpt><trkpt lat="44.61800609476144" lon="9.176183741481282"><ele>963.0</ele><time>2026-03-29T15:44:53.998Z</time></trkpt><trkpt lat="44.61808518558687" lon="9.176164270061562"><ele>960.8333333333334</ele><time>2026-03-29T15:44:54.998Z</time></trkpt><trkpt lat="44.618164310281415" lon="9.176153674539153"><ele>958.6666666666667</ele><time>2026-03-29T15:44:55.998Z</time></trkpt><trkpt lat="44.61825001962193" lon="9.176148996869328"><ele>956.5</ele><time>2026-03-29T15:44:56.998Z</time></trkpt><trkpt lat="44.618338234897074" lon="9.17615267709329"><ele>954.3333333333334</ele><time>2026-03-29T15:44:57.998Z</time></trkpt><trkpt lat="44.61842772051452" lon="9.176150485292302"><ele>952.1666666666667</ele><time>2026-03-29T15:44:59Z</time></trkpt><trkpt lat="44.61851919220815" lon="9.176146343985007"><ele>950.0</ele><time>2026-03-29T15:45:00Z</time></trkpt><trkpt lat="44.61861306424332" lon="9.176144501594168"><ele>948.4</ele><time>2026-03-29T15:45:01Z</time></trkpt><trkpt lat="44.61870840667548" lon="9.176128076143762"><ele>946.8</ele><time>2026-03-29T15:45:02Z</time></trkpt><trkpt lat="44.6188042271946" lon="9.176115649526272"><ele>945.2</ele><time>2026-03-29T15:45:03Z</time></trkpt><trkpt lat="44.61889931646735" lon="9.176107322239575"><ele>943.6</ele><time>2026-03-29T15:45:04Z</time></trkpt><trkpt lat="44.618984611032616" lon="9.176119621168132"><ele>942.0</ele><time>2026-03-29T15:45:05Z</time></trkpt><trkpt lat="44.61907229879224" lon="9.176141656467504"><ele>942.0</ele><time>2026-03-29T15:45:06Z</time></trkpt><trkpt lat="44.619157143136526" lon="9.176166483713203"><ele>942.0</ele><time>2026-03-29T15:45:07Z</time></trkpt><trkpt lat="44.61923294551954" lon="9.176210071796522"><ele>942.0</ele><time>2026-03-29T15:45:08Z</time></trkpt><trkpt lat="44.61930740526649" lon="9.176238951779967"><ele>942.0</ele><time>2026-03-29T15:45:09Z</time></trkpt><trkpt lat="44.6193897276276" lon="9.176264487535787"><ele>942.0</ele><time>2026-03-29T15:45:10Z</time></trkpt><trkpt lat="44.619469099300595" lon="9.176311973150298"><ele>942.0</ele><time>2026-03-29T15:45:11Z</time></trkpt><trkpt lat="44.61953941239715" lon="9.176360507105132"><ele>941.6666666666666</ele><time>2026-03-29T15:45:12Z</time></trkpt><trkpt lat="44.61958859776472" lon="9.176433706436354"><ele>941.3333333333333</ele><time>2026-03-29T15:45:13Z</time></trkpt><trkpt lat="44.6196229978549" lon="9.17653094315095"><ele>941.0</ele><time>2026-03-29T15:45:14Z</time></trkpt><trkpt lat="44.61964250546688" lon="9.176636976848313"><ele>940.6666666666666</ele><time>2026-03-29T15:45:15Z</time></trkpt><trkpt lat="44.619648494662776" lon="9.176746019614573"><ele>940.3333333333333</ele><time>2026-03-29T15:45:16Z</time></trkpt><trkpt lat="44.61964207011381" lon="9.17685414176867"><ele>940.0</ele><time>2026-03-29T15:45:17Z</time></trkpt><trkpt lat="44.61961954276986" lon="9.176964072695677"><ele>940.0</ele><time>2026-03-29T15:45:18Z</time></trkpt><trkpt lat="44.619594135319346" lon="9.17708048063084"><ele>940.0</ele><time>2026-03-29T15:45:19Z</time></trkpt><trkpt lat="44.619575610676975" lon="9.177198529698206"><ele>940.0</ele><time>2026-03-29T15:45:20Z</time></trkpt><trkpt lat="44.61958578972256" lon="9.177336583102337"><ele>940.0</ele><time>2026-03-29T15:45:21Z</time></trkpt><trkpt lat="44.619602051008144" lon="9.17746698566307"><ele>940.0</ele><time>2026-03-29T15:45:22Z</time></trkpt><trkpt lat="44.61961074401153" lon="9.177595110806076"><ele>939.8333333333333</ele><time>2026-03-29T15:45:23Z</time></trkpt><trkpt lat="44.61961433173433" lon="9.177719905857332"><ele>939.6666666666666</ele><time>2026-03-29T15:45:23.999Z</time></trkpt><trkpt lat="44.619613609634136" lon="9.177846291647628"><ele>939.5</ele><time>2026-03-29T15:45:24.999Z</time></trkpt><trkpt lat="44.61960789321455" lon="9.177973539474594"><ele>939.3333333333333</ele><time>2026-03-29T15:45:25.999Z</time></trkpt><trkpt lat="44.61959311744654" lon="9.178097967775397"><ele>939.1666666666666</ele><time>2026-03-29T15:45:26.999Z</time></trkpt><trkpt lat="44.619567256082824" lon="9.178212541174794"><ele>939.0</ele><time>2026-03-29T15:45:27.999Z</time></trkpt><trkpt lat="44.619538743578104" lon="9.178318651794315"><ele>939.0</ele><time>2026-03-29T15:45:28.999Z</time></trkpt><trkpt lat="44.61951260492828" lon="9.178420021008842"><ele>939.0</ele><time>2026-03-29T15:45:29.999Z</time></trkpt><trkpt lat="44.61950873389512" lon="9.17852116129564"><ele>939.0</ele><time>2026-03-29T15:45:30.999Z</time></trkpt><trkpt lat="44.61953360725679" lon="9.17862230987576"><ele>939.0</ele><time>2026-03-29T15:45:31.999Z</time></trkpt><trkpt lat="44.619575782708985" lon="9.178704054660436"><ele>939.0</ele><time>2026-03-29T15:45:32.999Z</time></trkpt><trkpt lat="44.61964599921664" lon="9.178765614102838"><ele>939.0</ele><time>2026-03-29T15:45:33.999Z</time></trkpt><trkpt lat="44.619722071806144" lon="9.178823351013651"><ele>939.0</ele><time>2026-03-29T15:45:34.999Z</time></trkpt><trkpt lat="44.61980518788593" lon="9.17888375556733"><ele>939.0000000000001</ele><time>2026-03-29T15:45:35.999Z</time></trkpt><trkpt lat="44.619893249251945" lon="9.178943989484058"><ele>939.0000000000001</ele><time>2026-03-29T15:45:36.999Z</time></trkpt><trkpt lat="44.61998198179713" lon="9.17900123505133"><ele>939.0</ele><time>2026-03-29T15:45:37.999Z</time></trkpt><trkpt lat="44.62006975767505" lon="9.179050437647836"><ele>939.0</ele><time>2026-03-29T15:45:38.999Z</time></trkpt><trkpt lat="44.62015847003928" lon="9.179089501680213"><ele>938.6666666666666</ele><time>2026-03-29T15:45:39.999Z</time></trkpt><trkpt lat="44.62024061560293" lon="9.17912531814908"><ele>938.3333333333333</ele><time>2026-03-29T15:45:40.999Z</time></trkpt><trkpt lat="44.620318449003555" lon="9.179144436692294"><ele>938.0</ele><time>2026-03-29T15:45:41.999Z</time></trkpt><trkpt lat="44.62039800214008" lon="9.179135676771363"><ele>937.6666666666666</ele><time>2026-03-29T15:45:42.999Z</time></trkpt><trkpt lat="44.620478551219584" lon="9.17909962711169"><ele>937.3333333333333</ele><time>2026-03-29T15:45:43.999Z</time></trkpt><trkpt lat="44.62055895143938" lon="9.179034515416841"><ele>937.0</ele><time>2026-03-29T15:45:44.999Z</time></trkpt><trkpt lat="44.62063852354275" lon="9.178945835289081"><ele>936.9999999999999</ele><time>2026-03-29T15:45:45.999Z</time></trkpt><trkpt lat="44.62071565529521" lon="9.178859321637274"><ele>937.0</ele><time>2026-03-29T15:45:46.999Z</time></trkpt><trkpt lat="44.620795374339075" lon="9.178791453561894"><ele>937.0</ele><time>2026-03-29T15:45:47.999Z</time></trkpt><trkpt lat="44.62087056724787" lon="9.178757378644674"><ele>937.0</ele><time>2026-03-29T15:45:48.999Z</time></trkpt><trkpt lat="44.62093591698117" lon="9.178776254921894"><ele>936.9999999999999</ele><time>2026-03-29T15:45:49.999Z</time></trkpt><trkpt lat="44.62099637581735" lon="9.178829063771584"><ele>937.0</ele><time>2026-03-29T15:45:50.999Z</time></trkpt><trkpt lat="44.62105121202455" lon="9.178927563605978"><ele>938.0</ele><time>2026-03-29T15:45:51.999Z</time></trkpt><trkpt lat="44.6211043382729" lon="9.179041415955494"><ele>939.0</ele><time>2026-03-29T15:45:52.999Z</time></trkpt><trkpt lat="44.621171273259556" lon="9.179150550069183"><ele>940.0</ele><time>2026-03-29T15:45:53.999Z</time></trkpt><trkpt lat="44.62124066146136" lon="9.17924698564138"><ele>941.0</ele><time>2026-03-29T15:45:54.999Z</time></trkpt><trkpt lat="44.621310424305605" lon="9.179323623177314"><ele>942.0</ele><time>2026-03-29T15:45:55.999Z</time></trkpt><trkpt lat="44.621382944968055" lon="9.179387083015998"><ele>942.0</ele><time>2026-03-29T15:45:56.999Z</time></trkpt><trkpt lat="44.62146305369748" lon="9.17943323721548"><ele>942.0</ele><time>2026-03-29T15:45:57.999Z</time></trkpt><trkpt lat="44.6215426852852" lon="9.179441109727208"><ele>942.0</ele><time>2026-03-29T15:45:58.999Z</time></trkpt><trkpt lat="44.62161761106105" lon="9.179416845669735"><ele>942.0</ele><time>2026-03-29T15:45:59.999Z</time></trkpt><trkpt lat="44.62168900327971" lon="9.179367467941912"><ele>942.0</ele><time>2026-03-29T15:46:00.999Z</time></trkpt><trkpt lat="44.62176372952254" lon="9.179326106331583"><ele>942.0</ele><time>2026-03-29T15:46:01.999Z</time></trkpt><trkpt lat="44.6218515916327" lon="9.179280587842042"><ele>942.0</ele><time>2026-03-29T15:46:02.999Z</time></trkpt><trkpt lat="44.62194754945554" lon="9.179250013628515"><ele>942.0</ele><time>2026-03-29T15:46:03.999Z</time></trkpt><trkpt lat="44.62205691607398" lon="9.179232681155135"><ele>942.0</ele><time>2026-03-29T15:46:04.999Z</time></trkpt><trkpt lat="44.62215484405156" lon="9.179202621714497"><ele>942.0</ele><time>2026-03-29T15:46:05.999Z</time></trkpt><trkpt lat="44.62224412922159" lon="9.179167588843296"><ele>942.0</ele><time>2026-03-29T15:46:06.999Z</time></trkpt><trkpt lat="44.6223229668454" lon="9.179165575068778"><ele>941.4000000000001</ele><time>2026-03-29T15:46:07.999Z</time></trkpt><trkpt lat="44.62239248116423" lon="9.179212446430371"><ele>940.8000000000001</ele><time>2026-03-29T15:46:08.999Z</time></trkpt><trkpt lat="44.62245080982608" lon="9.17930884758152"><ele>940.2</ele><time>2026-03-29T15:46:09.999Z</time></trkpt><trkpt lat="44.62249836127701" lon="9.179428663148364"><ele>939.6</ele><time>2026-03-29T15:46:10.999Z</time></trkpt><trkpt lat="44.62255275408349" lon="9.17955356542085"><ele>939.0</ele><time>2026-03-29T15:46:11.999Z</time></trkpt><trkpt lat="44.622601370186665" lon="9.179670119260857"><ele>939.0</ele><time>2026-03-29T15:46:12.999Z</time></trkpt><trkpt lat="44.62264490395466" lon="9.17977248163109"><ele>939.0</ele><time>2026-03-29T15:46:13.999Z</time></trkpt><trkpt lat="44.62270231599857" lon="9.179846730442339"><ele>939.0</ele><time>2026-03-29T15:46:14.999Z</time></trkpt><trkpt lat="44.62276853342708" lon="9.17987202710049"><ele>939.0</ele><time>2026-03-29T15:46:15.999Z</time></trkpt><trkpt lat="44.622840863037005" lon="9.179853285847777"><ele>939.0</ele><time>2026-03-29T15:46:16.999Z</time></trkpt><trkpt lat="44.622890639126986" lon="9.179782611428916"><ele>939.0</ele><time>2026-03-29T15:46:17.999Z</time></trkpt><trkpt lat="44.62290926643902" lon="9.179675949814126"><ele>939.8333333333334</ele><time>2026-03-29T15:46:18.999Z</time></trkpt><trkpt lat="44.622907439102704" lon="9.179553359858692"><ele>940.6666666666667</ele><time>2026-03-29T15:46:19.999Z</time></trkpt><trkpt lat="44.62289225754667" lon="9.179433262715337"><ele>941.5</ele><time>2026-03-29T15:46:20.999Z</time></trkpt><trkpt lat="44.62288174617726" lon="9.17930204381658"><ele>942.3333333333334</ele><time>2026-03-29T15:46:21.999Z</time></trkpt><trkpt lat="44.62289100506604" lon="9.179178836782821"><ele>943.1666666666667</ele><time>2026-03-29T15:46:22.999Z</time></trkpt><trkpt lat="44.62289627333127" lon="9.179051872930353"><ele>944.0</ele><time>2026-03-29T15:46:23.999Z</time></trkpt><trkpt lat="44.62288759413892" lon="9.178922614444463"><ele>944.0000000000001</ele><time>2026-03-29T15:46:24.999Z</time></trkpt><trkpt lat="44.62286536873447" lon="9.178794813030756"><ele>944.0</ele><time>2026-03-29T15:46:25.999Z</time></trkpt><trkpt lat="44.62283188241471" lon="9.17867603833359"><ele>944.0</ele><time>2026-03-29T15:46:26.999Z</time></trkpt><trkpt lat="44.62278689178238" lon="9.178566657827416"><ele>944.0</ele><time>2026-03-29T15:46:27.999Z</time></trkpt><trkpt lat="44.62274932570227" lon="9.178470048541584"><ele>944.0000000000001</ele><time>2026-03-29T15:46:28.999Z</time></trkpt><trkpt lat="44.622729557229476" lon="9.178375711940296"><ele>944.0</ele><time>2026-03-29T15:46:29.999Z</time></trkpt><trkpt lat="44.622743180954245" lon="9.17828810670193"><ele>944.0000000000001</ele><time>2026-03-29T15:46:30.999Z</time></trkpt><trkpt lat="44.62281481145684" lon="9.178210180156649"><ele>944.0</ele><time>2026-03-29T15:46:31.999Z</time></trkpt><trkpt lat="44.62288897446531" lon="9.17814106818035"><ele>944.0</ele><time>2026-03-29T15:46:32.999Z</time></trkpt><trkpt lat="44.6229681959202" lon="9.178070518188232"><ele>944.0</ele><time>2026-03-29T15:46:33.999Z</time></trkpt><trkpt lat="44.623047083028304" lon="9.1780208985865"><ele>944.0000000000001</ele><time>2026-03-29T15:46:34.998Z</time></trkpt><trkpt lat="44.62313504780876" lon="9.17801561383796"><ele>944.0</ele><time>2026-03-29T15:46:35.998Z</time></trkpt><trkpt lat="44.62322275123985" lon="9.17806088219772"><ele>940.8333333333334</ele><time>2026-03-29T15:46:36.998Z</time></trkpt><trkpt lat="44.62329960390119" lon="9.178097572215528"><ele>937.6666666666667</ele><time>2026-03-29T15:46:37.998Z</time></trkpt><trkpt lat="44.62337596037236" lon="9.1780775903853"><ele>934.5</ele><time>2026-03-29T15:46:38.998Z</time></trkpt><trkpt lat="44.623443063537124" lon="9.177998469733378"><ele>931.3333333333333</ele><time>2026-03-29T15:46:39.998Z</time></trkpt><trkpt lat="44.62348692359116" lon="9.1778974067938"><ele>928.1666666666666</ele><time>2026-03-29T15:46:40.998Z</time></trkpt><trkpt lat="44.62349576110038" lon="9.17776683575574"><ele>925.0</ele><time>2026-03-29T15:46:41.998Z</time></trkpt><trkpt lat="44.623492670670295" lon="9.17762086953495"><ele>925.0</ele><time>2026-03-29T15:46:42.998Z</time></trkpt><trkpt lat="44.62350978006499" lon="9.177471509368667"><ele>925.0</ele><time>2026-03-29T15:46:43.998Z</time></trkpt><trkpt lat="44.623555155982665" lon="9.177320069369726"><ele>925.0</ele><time>2026-03-29T15:46:44.998Z</time></trkpt><trkpt lat="44.623603040684216" lon="9.177165451713394"><ele>925.0</ele><time>2026-03-29T15:46:45.998Z</time></trkpt><trkpt lat="44.62365403837131" lon="9.17701653275644"><ele>924.75</ele><time>2026-03-29T15:46:46.998Z</time></trkpt><trkpt lat="44.6237000998528" lon="9.176849389471197"><ele>924.5</ele><time>2026-03-29T15:46:47.998Z</time></trkpt><trkpt lat="44.62373446552503" lon="9.176675431094221"><ele>924.25</ele><time>2026-03-29T15:46:48.998Z</time></trkpt><trkpt lat="44.623761817169175" lon="9.176500363452842"><ele>924.0</ele><time>2026-03-29T15:46:49.998Z</time></trkpt><trkpt lat="44.62378844600937" lon="9.176332304180352"><ele>924.0</ele><time>2026-03-29T15:46:50.998Z</time></trkpt><trkpt lat="44.62381868584794" lon="9.176176615322838"><ele>924.0000000000001</ele><time>2026-03-29T15:46:51.998Z</time></trkpt><trkpt lat="44.62386002850742" lon="9.17604841177004"><ele>924.0000000000001</ele><time>2026-03-29T15:46:52.998Z</time></trkpt><trkpt lat="44.62392768876691" lon="9.175951710197625"><ele>924.0</ele><time>2026-03-29T15:46:53.998Z</time></trkpt><trkpt lat="44.624015618709336" lon="9.175889256170116"><ele>924.0</ele><time>2026-03-29T15:46:54.998Z</time></trkpt><trkpt lat="44.62412373338675" lon="9.17587961143514"><ele>924.0</ele><time>2026-03-29T15:46:55.998Z</time></trkpt><trkpt lat="44.624242329585776" lon="9.175875414397433"><ele>924.0</ele><time>2026-03-29T15:46:56.998Z</time></trkpt><trkpt lat="44.62435713419912" lon="9.17584591692262"><ele>924.0</ele><time>2026-03-29T15:46:57.998Z</time></trkpt><trkpt lat="44.62448224212471" lon="9.17581275080812"><ele>924.0</ele><time>2026-03-29T15:46:58.998Z</time></trkpt><trkpt lat="44.624598448671925" lon="9.175775783399473"><ele>925.8000000000001</ele><time>2026-03-29T15:46:59.998Z</time></trkpt><trkpt lat="44.62471106970033" lon="9.17575144529623"><ele>927.6000000000001</ele><time>2026-03-29T15:47:00.998Z</time></trkpt><trkpt lat="44.624802903735606" lon="9.175713061647999"><ele>929.4</ele><time>2026-03-29T15:47:01.998Z</time></trkpt><trkpt lat="44.6248959090958" lon="9.175659172297264"><ele>931.2</ele><time>2026-03-29T15:47:02.998Z</time></trkpt><trkpt lat="44.62497576519868" lon="9.175581926329867"><ele>933.0</ele><time>2026-03-29T15:47:04Z</time></trkpt><trkpt lat="44.62497371417702" lon="9.175409448757092"><ele>933.0</ele><time>2026-03-29T15:47:05Z</time></trkpt><trkpt lat="44.62497787592896" lon="9.175252430909953"><ele>933.0</ele><time>2026-03-29T15:47:06Z</time></trkpt><trkpt lat="44.62496169098335" lon="9.175087804942109"><ele>933.0</ele><time>2026-03-29T15:47:07Z</time></trkpt><trkpt lat="44.62492909852144" lon="9.174935153031173"><ele>933.0</ele><time>2026-03-29T15:47:08Z</time></trkpt><trkpt lat="44.624880477625325" lon="9.174786110025037"><ele>935.4</ele><time>2026-03-29T15:47:09Z</time></trkpt><trkpt lat="44.624819782189064" lon="9.174652724386965"><ele>937.8</ele><time>2026-03-29T15:47:10Z</time></trkpt><trkpt lat="44.624759903031894" lon="9.174517694218498"><ele>940.2</ele><time>2026-03-29T15:47:11Z</time></trkpt><trkpt lat="44.62472325765514" lon="9.174373376026718"><ele>942.6</ele><time>2026-03-29T15:47:12Z</time></trkpt><trkpt lat="44.62469482611693" lon="9.174232866443763"><ele>945.0</ele><time>2026-03-29T15:47:13Z</time></trkpt><trkpt lat="44.62465709895336" lon="9.174085038595045"><ele>947.2</ele><time>2026-03-29T15:47:14Z</time></trkpt><trkpt lat="44.624628037548106" lon="9.173940779928632"><ele>949.4</ele><time>2026-03-29T15:47:15Z</time></trkpt><trkpt lat="44.624612211909586" lon="9.17379082685186"><ele>951.5999999999999</ele><time>2026-03-29T15:47:16Z</time></trkpt><trkpt lat="44.62459333039627" lon="9.173657794434943"><ele>953.8</ele><time>2026-03-29T15:47:17Z</time></trkpt><trkpt lat="44.62453713899978" lon="9.173546389503223"><ele>956.0</ele><time>2026-03-29T15:47:18Z</time></trkpt><trkpt lat="44.62445837652756" lon="9.173453480708435"><ele>945.5999999999999</ele><time>2026-03-29T15:47:19Z</time></trkpt><trkpt lat="44.62438225084063" lon="9.173370299949456"><ele>935.1999999999999</ele><time>2026-03-29T15:47:20Z</time></trkpt><trkpt lat="44.62431310107908" lon="9.17329053747976"><ele>924.8000000000001</ele><time>2026-03-29T15:47:21Z</time></trkpt><trkpt lat="44.6242528474919" lon="9.173188378041496"><ele>914.4000000000001</ele><time>2026-03-29T15:47:22Z</time></trkpt><trkpt lat="44.62421601521986" lon="9.173068423917314"><ele>904.0</ele><time>2026-03-29T15:47:23Z</time></trkpt><trkpt lat="44.62421603022154" lon="9.17294373604985"><ele>903.0</ele><time>2026-03-29T15:47:24Z</time></trkpt><trkpt lat="44.62425227295609" lon="9.17282959096512"><ele>902.0000000000001</ele><time>2026-03-29T15:47:25Z</time></trkpt><trkpt lat="44.62431318913164" lon="9.172724715408325"><ele>901.0000000000001</ele><time>2026-03-29T15:47:26Z</time></trkpt><trkpt lat="44.62438989443421" lon="9.172621378530833"><ele>900.0</ele><time>2026-03-29T15:47:27Z</time></trkpt><trkpt lat="44.624442936575264" lon="9.17249993757686"><ele>899.0</ele><time>2026-03-29T15:47:28Z</time></trkpt><trkpt lat="44.624468613267695" lon="9.172359247391727"><ele>900.25</ele><time>2026-03-29T15:47:29Z</time></trkpt><trkpt lat="44.62445664288044" lon="9.172194943736205"><ele>901.5</ele><time>2026-03-29T15:47:29.999Z</time></trkpt><trkpt lat="44.624429950119065" lon="9.172038619374764"><ele>902.75</ele><time>2026-03-29T15:47:30.999Z</time></trkpt><trkpt lat="44.62438290065396" lon="9.171892126873361"><ele>904.0</ele><time>2026-03-29T15:47:31.999Z</time></trkpt><trkpt lat="44.624321773677245" lon="9.171750382683038"><ele>904.0</ele><time>2026-03-29T15:47:32.999Z</time></trkpt><trkpt lat="44.624253733457856" lon="9.171605709839227"><ele>904.0</ele><time>2026-03-29T15:47:33.999Z</time></trkpt><trkpt lat="44.62418633719083" lon="9.171462473787939"><ele>904.0</ele><time>2026-03-29T15:47:34.999Z</time></trkpt><trkpt lat="44.624112136685376" lon="9.171319148455197"><ele>904.0</ele><time>2026-03-29T15:47:35.999Z</time></trkpt><trkpt lat="44.624036201529954" lon="9.171192231505781"><ele>907.25</ele><time>2026-03-29T15:47:36.999Z</time></trkpt><trkpt lat="44.623954630815795" lon="9.171080139673993"><ele>910.5</ele><time>2026-03-29T15:47:37.999Z</time></trkpt><trkpt lat="44.62387659751072" lon="9.170969466319875"><ele>913.75</ele><time>2026-03-29T15:47:38.999Z</time></trkpt><trkpt lat="44.62380095925285" lon="9.170854787523236"><ele>917.0</ele><time>2026-03-29T15:47:39.999Z</time></trkpt><trkpt lat="44.62373560256062" lon="9.17072133132386"><ele>924.0</ele><time>2026-03-29T15:47:40.999Z</time></trkpt><trkpt lat="44.623689470296846" lon="9.170567801693302"><ele>931.0</ele><time>2026-03-29T15:47:41.999Z</time></trkpt><trkpt lat="44.62366052096335" lon="9.170395465142294"><ele>938.0</ele><time>2026-03-29T15:47:42.999Z</time></trkpt><trkpt lat="44.62363515221853" lon="9.170225190351816"><ele>945.0</ele><time>2026-03-29T15:47:43.999Z</time></trkpt><trkpt lat="44.62358146542636" lon="9.170059203956399"><ele>932.75</ele><time>2026-03-29T15:47:44.999Z</time></trkpt><trkpt lat="44.62351649720714" lon="9.169902872600522"><ele>920.5</ele><time>2026-03-29T15:47:45.999Z</time></trkpt><trkpt lat="44.62344994124504" lon="9.16975199408534"><ele>908.25</ele><time>2026-03-29T15:47:46.999Z</time></trkpt><trkpt lat="44.62338636525526" lon="9.169593576447292"><ele>896.0</ele><time>2026-03-29T15:47:47.999Z</time></trkpt><trkpt lat="44.62332809305197" lon="9.169440275435853"><ele>896.0</ele><time>2026-03-29T15:47:48.999Z</time></trkpt><trkpt lat="44.62328784203937" lon="9.169273579880487"><ele>896.0</ele><time>2026-03-29T15:47:49.999Z</time></trkpt><trkpt lat="44.62326529557896" lon="9.169104864320575"><ele>896.0</ele><time>2026-03-29T15:47:50.999Z</time></trkpt><trkpt lat="44.62324785986213" lon="9.16894174441114"><ele>896.0</ele><time>2026-03-29T15:47:51.999Z</time></trkpt><trkpt lat="44.62324143572719" lon="9.168785451328825"><ele>896.4</ele><time>2026-03-29T15:47:52.999Z</time></trkpt><trkpt lat="44.62322574600134" lon="9.16863799120651"><ele>896.8</ele><time>2026-03-29T15:47:53.999Z</time></trkpt><trkpt lat="44.62318749797833" lon="9.168496312088998"><ele>897.1999999999999</ele><time>2026-03-29T15:47:54.999Z</time></trkpt><trkpt lat="44.623129241798296" lon="9.168362075118065"><ele>897.5999999999999</ele><time>2026-03-29T15:47:55.999Z</time></trkpt><trkpt lat="44.62305821231728" lon="9.168233071360762"><ele>898.0</ele><time>2026-03-29T15:47:56.999Z</time></trkpt><trkpt lat="44.62298827787166" lon="9.16811397684856"><ele>897.1666666666666</ele><time>2026-03-29T15:47:57.999Z</time></trkpt><trkpt lat="44.62293386499171" lon="9.167998079553616"><ele>896.3333333333333</ele><time>2026-03-29T15:47:58.999Z</time></trkpt><trkpt lat="44.62292029475198" lon="9.167880938043627"><ele>895.5</ele><time>2026-03-29T15:47:59.999Z</time></trkpt><trkpt lat="44.6229391773705" lon="9.167772595980937"><ele>894.6666666666667</ele><time>2026-03-29T15:48:00.999Z</time></trkpt><trkpt lat="44.6229896616646" lon="9.167687457380458"><ele>893.8333333333334</ele><time>2026-03-29T15:48:01.999Z</time></trkpt><trkpt lat="44.62307222467227" lon="9.167632846861746"><ele>893.0</ele><time>2026-03-29T15:48:02.999Z</time></trkpt><trkpt lat="44.62315751063386" lon="9.167571064925509"><ele>893.0</ele><time>2026-03-29T15:48:03.999Z</time></trkpt><trkpt lat="44.62323762341985" lon="9.16746649854341"><ele>893.0</ele><time>2026-03-29T15:48:04.999Z</time></trkpt><trkpt lat="44.62332282075993" lon="9.167342633355476"><ele>893.0</ele><time>2026-03-29T15:48:05.999Z</time></trkpt><trkpt lat="44.62337043619933" lon="9.167184303502758"><ele>893.0</ele><time>2026-03-29T15:48:06.999Z</time></trkpt><trkpt lat="44.6234059164471" lon="9.167040681764725"><ele>887.2</ele><time>2026-03-29T15:48:07.999Z</time></trkpt><trkpt lat="44.62343911988303" lon="9.166896698315291"><ele>881.4</ele><time>2026-03-29T15:48:08.999Z</time></trkpt><trkpt lat="44.62345676248073" lon="9.166758067760394"><ele>875.6000000000001</ele><time>2026-03-29T15:48:09.999Z</time></trkpt><trkpt lat="44.623479640854214" lon="9.1666356021228"><ele>869.8000000000001</ele><time>2026-03-29T15:48:10.999Z</time></trkpt><trkpt lat="44.62353041233693" lon="9.166517474571252"><ele>864.0</ele><time>2026-03-29T15:48:11.999Z</time></trkpt><trkpt lat="44.62359711518222" lon="9.166421454064565"><ele>865.0</ele><time>2026-03-29T15:48:12.999Z</time></trkpt><trkpt lat="44.6236758702858" lon="9.166328202363339"><ele>866.0000000000001</ele><time>2026-03-29T15:48:13.999Z</time></trkpt><trkpt lat="44.623742917986554" lon="9.166220979850893"><ele>867.0000000000001</ele><time>2026-03-29T15:48:14.999Z</time></trkpt><trkpt lat="44.62380235762001" lon="9.16608161644179"><ele>868.0</ele><time>2026-03-29T15:48:15.999Z</time></trkpt><trkpt lat="44.623857693221055" lon="9.165954125773395"><ele>869.0</ele><time>2026-03-29T15:48:16.999Z</time></trkpt><trkpt lat="44.62394165163259" lon="9.165868163419908"><ele>869.0</ele><time>2026-03-29T15:48:17.999Z</time></trkpt><trkpt lat="44.624039283252394" lon="9.16580286130706"><ele>869.0000000000001</ele><time>2026-03-29T15:48:18.999Z</time></trkpt><trkpt lat="44.62414920379898" lon="9.16576309373266"><ele>869.0000000000001</ele><time>2026-03-29T15:48:19.999Z</time></trkpt><trkpt lat="44.62426099607875" lon="9.165722941075895"><ele>869.0</ele><time>2026-03-29T15:48:20.999Z</time></trkpt><trkpt lat="44.62436753543218" lon="9.1657295173147"><ele>869.0</ele><time>2026-03-29T15:48:21.999Z</time></trkpt><trkpt lat="44.62446764855492" lon="9.165763747331159"><ele>869.6666666666667</ele><time>2026-03-29T15:48:22.999Z</time></trkpt><trkpt lat="44.62455367884287" lon="9.16579977479107"><ele>870.3333333333334</ele><time>2026-03-29T15:48:23.999Z</time></trkpt><trkpt lat="44.624634421591814" lon="9.16586711128382"><ele>871.0</ele><time>2026-03-29T15:48:24.999Z</time></trkpt><trkpt lat="44.62471626036949" lon="9.165912921978784"><ele>871.6666666666667</ele><time>2026-03-29T15:48:25.999Z</time></trkpt><trkpt lat="44.62479125982985" lon="9.16593306655428"><ele>872.3333333333334</ele><time>2026-03-29T15:48:26.999Z</time></trkpt><trkpt lat="44.62486187683759" lon="9.165938178232182"><ele>873.0</ele><time>2026-03-29T15:48:27.999Z</time></trkpt><trkpt lat="44.62493574216995" lon="9.165936253086576"><ele>873.0</ele><time>2026-03-29T15:48:28.999Z</time></trkpt><trkpt lat="44.62501492133888" lon="9.165933559929618"><ele>873.0</ele><time>2026-03-29T15:48:29.999Z</time></trkpt><trkpt lat="44.62509273555539" lon="9.165916679098551"><ele>873.0</ele><time>2026-03-29T15:48:30.999Z</time></trkpt><trkpt lat="44.625167642062735" lon="9.165900585032645"><ele>873.0</ele><time>2026-03-29T15:48:31.999Z</time></trkpt><trkpt lat="44.6252453880184" lon="9.165876672289487"><ele>873.0</ele><time>2026-03-29T15:48:32.999Z</time></trkpt><trkpt lat="44.62531990696916" lon="9.165834509646125"><ele>873.0</ele><time>2026-03-29T15:48:33.999Z</time></trkpt><trkpt lat="44.62539500377537" lon="9.165791971505849"><ele>876.5</ele><time>2026-03-29T15:48:34.999Z</time></trkpt><trkpt lat="44.62546340938744" lon="9.16574263662522"><ele>880.0</ele><time>2026-03-29T15:48:35.999Z</time></trkpt><trkpt lat="44.62553291922471" lon="9.165690751300342"><ele>883.5</ele><time>2026-03-29T15:48:36.999Z</time></trkpt><trkpt lat="44.625594343834734" lon="9.165640348447896"><ele>887.0</ele><time>2026-03-29T15:48:37.999Z</time></trkpt><trkpt lat="44.625662347630744" lon="9.165579499321973"><ele>890.5</ele><time>2026-03-29T15:48:38.998Z</time></trkpt><trkpt lat="44.625726628996034" lon="9.165512085219802"><ele>894.0</ele><time>2026-03-29T15:48:39.998Z</time></trkpt><trkpt lat="44.625790844478566" lon="9.165444506186144"><ele>886.5</ele><time>2026-03-29T15:48:40.998Z</time></trkpt><trkpt lat="44.62585874568088" lon="9.165386788182213"><ele>879.0</ele><time>2026-03-29T15:48:41.998Z</time></trkpt><trkpt lat="44.6259242755421" lon="9.165331663161886"><ele>871.5</ele><time>2026-03-29T15:48:42.998Z</time></trkpt><trkpt lat="44.62598836244553" lon="9.165263101922914"><ele>864.0</ele><time>2026-03-29T15:48:43.998Z</time></trkpt><trkpt lat="44.6260390092979" lon="9.1651765715522"><ele>856.5</ele><time>2026-03-29T15:48:44.998Z</time></trkpt><trkpt lat="44.626076508737206" lon="9.165082007532739"><ele>849.0</ele><time>2026-03-29T15:48:45.998Z</time></trkpt><trkpt lat="44.62610395867022" lon="9.164978307802192"><ele>849.0</ele><time>2026-03-29T15:48:46.998Z</time></trkpt><trkpt lat="44.62613596753344" lon="9.16488229585604"><ele>849.0</ele><time>2026-03-29T15:48:47.998Z</time></trkpt><trkpt lat="44.626173135228846" lon="9.164800576858585"><ele>849.0</ele><time>2026-03-29T15:48:48.998Z</time></trkpt><trkpt lat="44.6262785795607" lon="9.16471896391658"><ele>849.0</ele><time>2026-03-29T15:48:50.998Z</time></trkpt><trkpt lat="44.62635430109347" lon="9.164735563294583"><ele>849.0</ele><time>2026-03-29T15:48:51.998Z</time></trkpt><trkpt lat="44.62643984984173" lon="9.164779976826164"><ele>849.0</ele><time>2026-03-29T15:48:52.998Z</time></trkpt><trkpt lat="44.62652635583093" lon="9.164816124251557"><ele>847.6666666666666</ele><time>2026-03-29T15:48:53.998Z</time></trkpt><trkpt lat="44.62660540141723" lon="9.164864325429079"><ele>846.3333333333333</ele><time>2026-03-29T15:48:54.998Z</time></trkpt><trkpt lat="44.62667864887762" lon="9.164916441323454"><ele>845.0</ele><time>2026-03-29T15:48:55.998Z</time></trkpt><trkpt lat="44.62674337136192" lon="9.16495730032298"><ele>843.6666666666666</ele><time>2026-03-29T15:48:56.998Z</time></trkpt><trkpt lat="44.626867366321505" lon="9.164933567448218"><ele>842.3333333333333</ele><time>2026-03-29T15:48:58.998Z</time></trkpt><trkpt lat="44.62691690378604" lon="9.164849890195548"><ele>841.0</ele><time>2026-03-29T15:48:59.998Z</time></trkpt><trkpt lat="44.626967799435874" lon="9.164774050983826"><ele>848.9999999999999</ele><time>2026-03-29T15:49:00.998Z</time></trkpt><trkpt lat="44.627016156403705" lon="9.164686718795519"><ele>857.0</ele><time>2026-03-29T15:49:01.998Z</time></trkpt><trkpt lat="44.62705153726953" lon="9.164574523738375"><ele>865.0</ele><time>2026-03-29T15:49:02.998Z</time></trkpt><trkpt lat="44.62706063090432" lon="9.164456654327486"><ele>873.0</ele><time>2026-03-29T15:49:03.998Z</time></trkpt><trkpt lat="44.627052182161414" lon="9.16433080998595"><ele>880.9999999999999</ele><time>2026-03-29T15:49:04.998Z</time></trkpt><trkpt lat="44.62704564007059" lon="9.164192168585778"><ele>889.0</ele><time>2026-03-29T15:49:05.998Z</time></trkpt><trkpt lat="44.62704143136903" lon="9.164052992616629"><ele>884.2</ele><time>2026-03-29T15:49:06.998Z</time></trkpt><trkpt lat="44.62705172569077" lon="9.16390442007815"><ele>879.4000000000001</ele><time>2026-03-29T15:49:07.998Z</time></trkpt><trkpt lat="44.62707052167556" lon="9.163752890174665"><ele>874.6</ele><time>2026-03-29T15:49:08.998Z</time></trkpt><trkpt lat="44.627089216146054" lon="9.163610596183142"><ele>869.8</ele><time>2026-03-29T15:49:10Z</time></trkpt><trkpt lat="44.627101403163124" lon="9.1634631534765"><ele>865.0</ele><time>2026-03-29T15:49:11Z</time></trkpt><trkpt lat="44.62709816340128" lon="9.163313280433613"><ele>859.4</ele><time>2026-03-29T15:49:12Z</time></trkpt><trkpt lat="44.62710018271531" lon="9.163162647062919"><ele>853.8</ele><time>2026-03-29T15:49:13Z</time></trkpt><trkpt lat="44.62710982063558" lon="9.163014570933788"><ele>848.2</ele><time>2026-03-29T15:49:14Z</time></trkpt><trkpt lat="44.62711472614468" lon="9.162879012313656"><ele>842.6</ele><time>2026-03-29T15:49:15Z</time></trkpt><trkpt lat="44.62712740777279" lon="9.162762832356254"><ele>837.0</ele><time>2026-03-29T15:49:16Z</time></trkpt><trkpt lat="44.62716214942046" lon="9.162678808708336"><ele>837.0</ele><time>2026-03-29T15:49:17Z</time></trkpt><trkpt lat="44.627217718706255" lon="9.16262238884796"><ele>837.0</ele><time>2026-03-29T15:49:18Z</time></trkpt><trkpt lat="44.62730884681334" lon="9.162605366023136"><ele>837.0</ele><time>2026-03-29T15:49:19Z</time></trkpt><trkpt lat="44.627394489276924" lon="9.16258292803296"><ele>837.0</ele><time>2026-03-29T15:49:20Z</time></trkpt><trkpt lat="44.627479433550384" lon="9.162539136227855"><ele>837.0</ele><time>2026-03-29T15:49:21Z</time></trkpt><trkpt lat="44.62756247252645" lon="9.162478761324985"><ele>837.0</ele><time>2026-03-29T15:49:22Z</time></trkpt><trkpt lat="44.62764908703355" lon="9.162432859664811"><ele>837.0</ele><time>2026-03-29T15:49:23Z</time></trkpt><trkpt lat="44.62773076232703" lon="9.162367314389396"><ele>837.0</ele><time>2026-03-29T15:49:24Z</time></trkpt><trkpt lat="44.62779632987736" lon="9.162264689580137"><ele>837.0</ele><time>2026-03-29T15:49:25Z</time></trkpt><trkpt lat="44.627843438535876" lon="9.162144866921567"><ele>837.0</ele><time>2026-03-29T15:49:26Z</time></trkpt><trkpt lat="44.627858872061466" lon="9.1620046654506"><ele>837.0</ele><time>2026-03-29T15:49:27Z</time></trkpt><trkpt lat="44.62786576936985" lon="9.161867088170602"><ele>838.0</ele><time>2026-03-29T15:49:28Z</time></trkpt><trkpt lat="44.62788261483444" lon="9.161729387940325"><ele>839.0</ele><time>2026-03-29T15:49:29Z</time></trkpt><trkpt lat="44.627913026670775" lon="9.161604853991504"><ele>840.0</ele><time>2026-03-29T15:49:30Z</time></trkpt><trkpt lat="44.62796374403426" lon="9.161498063614555"><ele>841.0</ele><time>2026-03-29T15:49:31Z</time></trkpt><trkpt lat="44.62804778663942" lon="9.161413676942972"><ele>842.0</ele><time>2026-03-29T15:49:32Z</time></trkpt><trkpt lat="44.62813694046757" lon="9.16134458478073"><ele>837.6666666666667</ele><time>2026-03-29T15:49:33Z</time></trkpt><trkpt lat="44.62821763493812" lon="9.161268121856118"><ele>833.3333333333334</ele><time>2026-03-29T15:49:34Z</time></trkpt><trkpt lat="44.62829273337214" lon="9.16118211577391"><ele>829.0</ele><time>2026-03-29T15:49:35Z</time></trkpt><trkpt lat="44.628367410657475" lon="9.161101929773992"><ele>824.6666666666667</ele><time>2026-03-29T15:49:35.999Z</time></trkpt><trkpt lat="44.62843938523612" lon="9.161038635496023"><ele>820.3333333333334</ele><time>2026-03-29T15:49:36.999Z</time></trkpt><trkpt lat="44.62848605470144" lon="9.160956918572115"><ele>816.0</ele><time>2026-03-29T15:49:37.999Z</time></trkpt><trkpt lat="44.628497237672185" lon="9.160852683929768"><ele>816.0</ele><time>2026-03-29T15:49:38.999Z</time></trkpt><trkpt lat="44.628478757187416" lon="9.160741050310817"><ele>816.0</ele><time>2026-03-29T15:49:39.999Z</time></trkpt><trkpt lat="44.628424694624236" lon="9.160642376738874"><ele>816.0</ele><time>2026-03-29T15:49:40.999Z</time></trkpt><trkpt lat="44.62835972768139" lon="9.160567246382787"><ele>816.0</ele><time>2026-03-29T15:49:41.999Z</time></trkpt><trkpt lat="44.628290005811714" lon="9.160489524280612"><ele>816.0</ele><time>2026-03-29T15:49:42.999Z</time></trkpt><trkpt lat="44.6282334244452" lon="9.160391314074268"><ele>816.0</ele><time>2026-03-29T15:49:43.999Z</time></trkpt><trkpt lat="44.62821167356478" lon="9.160264800787983"><ele>813.0</ele><time>2026-03-29T15:49:44.999Z</time></trkpt><trkpt lat="44.62821182765725" lon="9.160140576189635"><ele>810.0</ele><time>2026-03-29T15:49:45.999Z</time></trkpt><trkpt lat="44.62823965093827" lon="9.160020917626884"><ele>807.0</ele><time>2026-03-29T15:49:46.999Z</time></trkpt><trkpt lat="44.62828998942802" lon="9.159909026840717"><ele>804.0</ele><time>2026-03-29T15:49:47.999Z</time></trkpt><trkpt lat="44.62834494491226" lon="9.159794645447416"><ele>801.0</ele><time>2026-03-29T15:49:48.999Z</time></trkpt><trkpt lat="44.62837774833771" lon="9.159668730604395"><ele>796.5999999999999</ele><time>2026-03-29T15:49:49.999Z</time></trkpt><trkpt lat="44.628406873349526" lon="9.159552715085617"><ele>792.2</ele><time>2026-03-29T15:49:50.999Z</time></trkpt><trkpt lat="44.62846948476491" lon="9.159460167014526"><ele>787.8</ele><time>2026-03-29T15:49:51.999Z</time></trkpt><trkpt lat="44.62855192051221" lon="9.159392055129866"><ele>783.4000000000001</ele><time>2026-03-29T15:49:52.999Z</time></trkpt><trkpt lat="44.62862354750608" lon="9.15931448059123"><ele>779.0</ele><time>2026-03-29T15:49:53.999Z</time></trkpt><trkpt lat="44.62867584286647" lon="9.159207845669956"><ele>783.0</ele><time>2026-03-29T15:49:54.999Z</time></trkpt><trkpt lat="44.62869870864073" lon="9.159071888252411"><ele>787.0</ele><time>2026-03-29T15:49:55.999Z</time></trkpt><trkpt lat="44.62870873154305" lon="9.158932684913454"><ele>791.0</ele><time>2026-03-29T15:49:56.999Z</time></trkpt><trkpt lat="44.62873912782004" lon="9.158799208684611"><ele>795.0</ele><time>2026-03-29T15:49:57.999Z</time></trkpt><trkpt lat="44.628780167468314" lon="9.158661471218828"><ele>799.0</ele><time>2026-03-29T15:49:58.999Z</time></trkpt><trkpt lat="44.62880975529183" lon="9.158518363909852"><ele>799.0</ele><time>2026-03-29T15:49:59.999Z</time></trkpt><trkpt lat="44.6288334715922" lon="9.158370588526397"><ele>799.0</ele><time>2026-03-29T15:50:00.999Z</time></trkpt><trkpt lat="44.628867582515014" lon="9.158246295873234"><ele>799.0</ele><time>2026-03-29T15:50:01.999Z</time></trkpt><trkpt lat="44.628904789679275" lon="9.158137316126778"><ele>799.0</ele><time>2026-03-29T15:50:02.999Z</time></trkpt><trkpt lat="44.62894956076514" lon="9.15802930993926"><ele>799.0</ele><time>2026-03-29T15:50:03.999Z</time></trkpt><trkpt lat="44.629012686578506" lon="9.157931544823644"><ele>792.0</ele><time>2026-03-29T15:50:04.999Z</time></trkpt><trkpt lat="44.62909789961418" lon="9.157848098335958"><ele>785.0</ele><time>2026-03-29T15:50:05.999Z</time></trkpt><trkpt lat="44.62918195426601" lon="9.157753792694509"><ele>778.0</ele><time>2026-03-29T15:50:06.999Z</time></trkpt><trkpt lat="44.62924739238784" lon="9.157638559229255"><ele>771.0</ele><time>2026-03-29T15:50:07.999Z</time></trkpt><trkpt lat="44.62930187871883" lon="9.157522650363966"><ele>764.0</ele><time>2026-03-29T15:50:08.999Z</time></trkpt><trkpt lat="44.629379693745506" lon="9.157441222917917"><ele>764.0</ele><time>2026-03-29T15:50:09.999Z</time></trkpt><trkpt lat="44.62947016649545" lon="9.15740022984172"><ele>764.0</ele><time>2026-03-29T15:50:10.999Z</time></trkpt><trkpt lat="44.62957065749439" lon="9.157405003494818"><ele>764.0</ele><time>2026-03-29T15:50:11.999Z</time></trkpt><trkpt lat="44.62966362286774" lon="9.157443886747789"><ele>764.0</ele><time>2026-03-29T15:50:12.999Z</time></trkpt><trkpt lat="44.62972634075704" lon="9.157526802477872"><ele>764.0</ele><time>2026-03-29T15:50:13.999Z</time></trkpt><trkpt lat="44.629782602232304" lon="9.157620433185038"><ele>765.5</ele><time>2026-03-29T15:50:14.999Z</time></trkpt><trkpt lat="44.629844874090615" lon="9.15768358679524"><ele>767.0</ele><time>2026-03-29T15:50:15.999Z</time></trkpt><trkpt lat="44.62993638569767" lon="9.157714796529868"><ele>768.5</ele><time>2026-03-29T15:50:16.999Z</time></trkpt><trkpt lat="44.6300237366694" lon="9.157736647345304"><ele>770.0</ele><time>2026-03-29T15:50:17.999Z</time></trkpt><trkpt lat="44.63009691646399" lon="9.157717114240903"><ele>771.5000000000001</ele><time>2026-03-29T15:50:18.999Z</time></trkpt><trkpt lat="44.6301591294701" lon="9.15764885970877"><ele>773.0</ele><time>2026-03-29T15:50:19.999Z</time></trkpt><trkpt lat="44.63020528883902" lon="9.157557636782347"><ele>773.0</ele><time>2026-03-29T15:50:20.999Z</time></trkpt><trkpt lat="44.63022740220184" lon="9.157428484997522"><ele>773.0</ele><time>2026-03-29T15:50:21.999Z</time></trkpt><trkpt lat="44.630258436370475" lon="9.15729423346921"><ele>773.0</ele><time>2026-03-29T15:50:22.999Z</time></trkpt><trkpt lat="44.63029973709678" lon="9.157144147893732"><ele>773.0</ele><time>2026-03-29T15:50:23.999Z</time></trkpt><trkpt lat="44.630360611924544" lon="9.157023238487005"><ele>773.0</ele><time>2026-03-29T15:50:24.999Z</time></trkpt><trkpt lat="44.63041865475942" lon="9.156930696686967"><ele>769.0</ele><time>2026-03-29T15:50:25.999Z</time></trkpt><trkpt lat="44.63051049975332" lon="9.156846774313498"><ele>765.0</ele><time>2026-03-29T15:50:26.999Z</time></trkpt><trkpt lat="44.630612661287046" lon="9.156791868424689"><ele>761.0</ele><time>2026-03-29T15:50:27.999Z</time></trkpt><trkpt lat="44.63071547844343" lon="9.156742232064303"><ele>757.0</ele><time>2026-03-29T15:50:28.999Z</time></trkpt><trkpt lat="44.63081768890879" lon="9.156685770867002"><ele>753.0</ele><time>2026-03-29T15:50:29.999Z</time></trkpt><trkpt lat="44.6309062158879" lon="9.156619281368684"><ele>752.8333333333334</ele><time>2026-03-29T15:50:30.999Z</time></trkpt><trkpt lat="44.63098408944703" lon="9.156532095001419"><ele>752.6666666666666</ele><time>2026-03-29T15:50:31.999Z</time></trkpt><trkpt lat="44.631051612172925" lon="9.156468601694744"><ele>752.5</ele><time>2026-03-29T15:50:32.999Z</time></trkpt><trkpt lat="44.63111983977708" lon="9.156440335285005"><ele>752.3333333333333</ele><time>2026-03-29T15:50:33.999Z</time></trkpt><trkpt lat="44.631181217549575" lon="9.156475761859674"><ele>752.1666666666666</ele><time>2026-03-29T15:50:34.999Z</time></trkpt><trkpt lat="44.63125508630498" lon="9.156561923662911"><ele>752.0</ele><time>2026-03-29T15:50:35.999Z</time></trkpt><trkpt lat="44.63132633633072" lon="9.156662254624806"><ele>752.0</ele><time>2026-03-29T15:50:36.999Z</time></trkpt><trkpt lat="44.63139293248707" lon="9.156759054760066"><ele>752.0</ele><time>2026-03-29T15:50:37.999Z</time></trkpt><trkpt lat="44.6314536017003" lon="9.156841663634019"><ele>752.0</ele><time>2026-03-29T15:50:38.999Z</time></trkpt><trkpt lat="44.63150433046768" lon="9.156901796421762"><ele>752.0</ele><time>2026-03-29T15:50:39.999Z</time></trkpt><trkpt lat="44.6315643034421" lon="9.156930072756778"><ele>752.0</ele><time>2026-03-29T15:50:40.999Z</time></trkpt><trkpt lat="44.63162602167343" lon="9.156911390982279"><ele>752.0</ele><time>2026-03-29T15:50:41.999Z</time></trkpt><trkpt lat="44.63168731751909" lon="9.156838751476943"><ele>752.0</ele><time>2026-03-29T15:50:42.999Z</time></trkpt><trkpt lat="44.63174204371657" lon="9.156716494280586"><ele>752.0</ele><time>2026-03-29T15:50:43.998Z</time></trkpt><trkpt lat="44.6318073740701" lon="9.156590447261223"><ele>752.0</ele><time>2026-03-29T15:50:44.998Z</time></trkpt><trkpt lat="44.63188305179809" lon="9.156468331779482"><ele>752.0</ele><time>2026-03-29T15:50:45.998Z</time></trkpt><trkpt lat="44.63197024427508" lon="9.156357895545225"><ele>752.0</ele><time>2026-03-29T15:50:46.998Z</time></trkpt><trkpt lat="44.63206549547011" lon="9.156252059639122"><ele>744.75</ele><time>2026-03-29T15:50:47.998Z</time></trkpt><trkpt lat="44.63216742875838" lon="9.156158340481221"><ele>737.5</ele><time>2026-03-29T15:50:48.998Z</time></trkpt><trkpt lat="44.63226880003887" lon="9.156073781808626"><ele>730.25</ele><time>2026-03-29T15:50:49.998Z</time></trkpt><trkpt lat="44.632370403407315" lon="9.156004298057487"><ele>723.0</ele><time>2026-03-29T15:50:50.998Z</time></trkpt><trkpt lat="44.63247074924036" lon="9.155936720269354"><ele>723.0</ele><time>2026-03-29T15:50:51.998Z</time></trkpt><trkpt lat="44.632569224923515" lon="9.155892901197412"><ele>723.0</ele><time>2026-03-29T15:50:52.998Z</time></trkpt><trkpt lat="44.63267466805799" lon="9.155887346204894"><ele>723.0</ele><time>2026-03-29T15:50:53.998Z</time></trkpt><trkpt lat="44.63278381851778" lon="9.155917184546688"><ele>723.0</ele><time>2026-03-29T15:50:54.998Z</time></trkpt><trkpt lat="44.63288904269696" lon="9.155944841062382"><ele>723.0</ele><time>2026-03-29T15:50:55.998Z</time></trkpt><trkpt lat="44.632990447485014" lon="9.155973322840707"><ele>720.2</ele><time>2026-03-29T15:50:56.998Z</time></trkpt><trkpt lat="44.63308429186087" lon="9.15601542304876"><ele>717.4</ele><time>2026-03-29T15:50:57.998Z</time></trkpt><trkpt lat="44.6331687620571" lon="9.156086071757647"><ele>714.6</ele><time>2026-03-29T15:50:58.998Z</time></trkpt><trkpt lat="44.63323240185926" lon="9.15618453809357"><ele>711.8000000000001</ele><time>2026-03-29T15:50:59.998Z</time></trkpt><trkpt lat="44.63328713936535" lon="9.156291815373446"><ele>709.0</ele><time>2026-03-29T15:51:00.998Z</time></trkpt><trkpt lat="44.633335822443826" lon="9.156396245986736"><ele>709.0</ele><time>2026-03-29T15:51:01.998Z</time></trkpt><trkpt lat="44.63337108768359" lon="9.156514202912499"><ele>709.0</ele><time>2026-03-29T15:51:02.998Z</time></trkpt><trkpt lat="44.63338354297809" lon="9.156635773593223"><ele>709.0</ele><time>2026-03-29T15:51:03.998Z</time></trkpt><trkpt lat="44.63337788873818" lon="9.156758480341727"><ele>709.0</ele><time>2026-03-29T15:51:04.998Z</time></trkpt><trkpt lat="44.633371572125824" lon="9.156874891565232"><ele>709.0</ele><time>2026-03-29T15:51:05.998Z</time></trkpt><trkpt lat="44.63336483600213" lon="9.15698854631881"><ele>709.0</ele><time>2026-03-29T15:51:06.998Z</time></trkpt><trkpt lat="44.63336060232786" lon="9.157085850719422"><ele>709.6</ele><time>2026-03-29T15:51:07.998Z</time></trkpt><trkpt lat="44.63335605522778" lon="9.157175436780042"><ele>710.2</ele><time>2026-03-29T15:51:08.998Z</time></trkpt><trkpt lat="44.63337388596543" lon="9.157333768518827"><ele>710.8000000000001</ele><time>2026-03-29T15:51:10.998Z</time></trkpt><trkpt lat="44.63350136000406" lon="9.157380223415558"><ele>711.4000000000001</ele><time>2026-03-29T15:51:12.998Z</time></trkpt><trkpt lat="44.63358635581776" lon="9.157376252413911"><ele>712.0</ele><time>2026-03-29T15:51:13.998Z</time></trkpt><trkpt lat="44.63367703757776" lon="9.157371010473604"><ele>712.0</ele><time>2026-03-29T15:51:14.998Z</time></trkpt><trkpt lat="44.633767976258355" lon="9.157351669431831"><ele>712.0</ele><time>2026-03-29T15:51:16Z</time></trkpt><trkpt lat="44.63384624495079" lon="9.157346904039642"><ele>712.0</ele><time>2026-03-29T15:51:17Z</time></trkpt><trkpt lat="44.633928870110545" lon="9.157365536991282"><ele>712.0</ele><time>2026-03-29T15:51:18Z</time></trkpt><trkpt lat="44.63400976075017" lon="9.157416694813337"><ele>712.0</ele><time>2026-03-29T15:51:19Z</time></trkpt><trkpt lat="44.6340903914169" lon="9.157493942585715"><ele>712.0</ele><time>2026-03-29T15:51:20Z</time></trkpt><trkpt lat="44.63417901374766" lon="9.157567875050443"><ele>712.0</ele><time>2026-03-29T15:51:21Z</time></trkpt><trkpt lat="44.634270772585445" lon="9.157600883103205"><ele>712.0</ele><time>2026-03-29T15:51:22Z</time></trkpt><trkpt lat="44.634355173083655" lon="9.157598633761214"><ele>712.0</ele><time>2026-03-29T15:51:23Z</time></trkpt><trkpt lat="44.634444091653485" lon="9.157563473660959"><ele>712.0</ele><time>2026-03-29T15:51:24Z</time></trkpt><trkpt lat="44.63453278155194" lon="9.157523422951881"><ele>712.0</ele><time>2026-03-29T15:51:25Z</time></trkpt><trkpt lat="44.63461755257835" lon="9.157497570070731"><ele>708.0</ele><time>2026-03-29T15:51:26Z</time></trkpt><trkpt lat="44.63469882397496" lon="9.157503755123814"><ele>704.0</ele><time>2026-03-29T15:51:27Z</time></trkpt><trkpt lat="44.63476975754671" lon="9.15756198998247"><ele>700.0</ele><time>2026-03-29T15:51:28Z</time></trkpt><trkpt lat="44.63483905697126" lon="9.157655089275924"><ele>696.0</ele><time>2026-03-29T15:51:29Z</time></trkpt><trkpt lat="44.634890687961445" lon="9.157743078655766"><ele>692.0</ele><time>2026-03-29T15:51:30Z</time></trkpt><trkpt lat="44.63490725851019" lon="9.157862847698626"><ele>688.0</ele><time>2026-03-29T15:51:31Z</time></trkpt><trkpt lat="44.634898962518946" lon="9.157988524910722"><ele>688.0</ele><time>2026-03-29T15:51:32Z</time></trkpt><trkpt lat="44.63486689609385" lon="9.158128568041558"><ele>688.0</ele><time>2026-03-29T15:51:33Z</time></trkpt><trkpt lat="44.63486028981018" lon="9.158250694703971"><ele>688.0</ele><time>2026-03-29T15:51:34Z</time></trkpt><trkpt lat="44.63486335241643" lon="9.15836768199399"><ele>688.0</ele><time>2026-03-29T15:51:35Z</time></trkpt><trkpt lat="44.634900553213406" lon="9.15848221533846"><ele>688.0</ele><time>2026-03-29T15:51:36Z</time></trkpt><trkpt lat="44.63493709403946" lon="9.158581357881893"><ele>688.0</ele><time>2026-03-29T15:51:37Z</time></trkpt><trkpt lat="44.63498603828737" lon="9.158673761724428"><ele>689.4</ele><time>2026-03-29T15:51:38Z</time></trkpt><trkpt lat="44.63505306182828" lon="9.15873800375147"><ele>690.8</ele><time>2026-03-29T15:51:39Z</time></trkpt><trkpt lat="44.63513764203918" lon="9.158789580124447"><ele>692.2</ele><time>2026-03-29T15:51:39.999Z</time></trkpt><trkpt lat="44.63521760913631" lon="9.158838451549208"><ele>693.6</ele><time>2026-03-29T15:51:40.999Z</time></trkpt><trkpt lat="44.63529982810603" lon="9.158903657956499"><ele>695.0</ele><time>2026-03-29T15:51:41.999Z</time></trkpt><trkpt lat="44.63538559929869" lon="9.158993066699715"><ele>695.5</ele><time>2026-03-29T15:51:42.999Z</time></trkpt><trkpt lat="44.63546963487289" lon="9.159070348511493"><ele>696.0</ele><time>2026-03-29T15:51:43.999Z</time></trkpt><trkpt lat="44.6355504906839" lon="9.15911989086655"><ele>696.5</ele><time>2026-03-29T15:51:44.999Z</time></trkpt><trkpt lat="44.635628049469446" lon="9.159156751732896"><ele>697.0</ele><time>2026-03-29T15:51:45.999Z</time></trkpt><trkpt lat="44.63569931564535" lon="9.15918833137633"><ele>697.5</ele><time>2026-03-29T15:51:46.999Z</time></trkpt><trkpt lat="44.63576705450991" lon="9.159205519262438"><ele>698.0</ele><time>2026-03-29T15:51:47.999Z</time></trkpt><trkpt lat="44.63587303740473" lon="9.159141443381891"><ele>697.9999999999999</ele><time>2026-03-29T15:51:49.999Z</time></trkpt><trkpt lat="44.63591818229485" lon="9.159062138140156"><ele>698.0</ele><time>2026-03-29T15:51:50.999Z</time></trkpt><trkpt lat="44.63597544712733" lon="9.158986216316304"><ele>698.0</ele><time>2026-03-29T15:51:51.999Z</time></trkpt><trkpt lat="44.6360352899075" lon="9.158920399443504"><ele>698.0</ele><time>2026-03-29T15:51:52.999Z</time></trkpt><trkpt lat="44.63608890753506" lon="9.158853118690699"><ele>698.0</ele><time>2026-03-29T15:51:53.999Z</time></trkpt><trkpt lat="44.63613737148295" lon="9.158784227063125"><ele>697.9999999999999</ele><time>2026-03-29T15:51:54.999Z</time></trkpt><trkpt lat="44.63613059745398" lon="9.15869587800766"><ele>698.0</ele><time>2026-03-29T15:51:55.999Z</time></trkpt><trkpt lat="44.63609961107313" lon="9.158616901909268"><ele>697.5</ele><time>2026-03-29T15:51:56.999Z</time></trkpt><trkpt lat="44.636041032683146" lon="9.158560167292206"><ele>697.0</ele><time>2026-03-29T15:51:57.999Z</time></trkpt><trkpt lat="44.6359664377832" lon="9.158520500095065"><ele>696.5</ele><time>2026-03-29T15:51:58.999Z</time></trkpt><trkpt lat="44.635881074001084" lon="9.158505107299076"><ele>696.0</ele><time>2026-03-29T15:51:59.999Z</time></trkpt><trkpt lat="44.6357955120694" lon="9.158461938196616"><ele>695.5</ele><time>2026-03-29T15:52:00.999Z</time></trkpt><trkpt lat="44.635727284462035" lon="9.158395214262395"><ele>695.0</ele><time>2026-03-29T15:52:01.999Z</time></trkpt><trkpt lat="44.63568574736759" lon="9.158303909626879"><ele>695.0</ele><time>2026-03-29T15:52:02.999Z</time></trkpt><trkpt lat="44.63567354742898" lon="9.158204435673632"><ele>695.0</ele><time>2026-03-29T15:52:03.999Z</time></trkpt><trkpt lat="44.63569061662116" lon="9.158108882262606"><ele>695.0</ele><time>2026-03-29T15:52:04.999Z</time></trkpt><trkpt lat="44.63573983385931" lon="9.158013204646988"><ele>695.0</ele><time>2026-03-29T15:52:05.999Z</time></trkpt><trkpt lat="44.63579806318707" lon="9.157901512457489"><ele>695.0</ele><time>2026-03-29T15:52:06.999Z</time></trkpt><trkpt lat="44.635848611265594" lon="9.157776768922325"><ele>695.0</ele><time>2026-03-29T15:52:07.999Z</time></trkpt><trkpt lat="44.63589648548665" lon="9.157652933049311"><ele>694.0</ele><time>2026-03-29T15:52:08.999Z</time></trkpt><trkpt lat="44.63593319613191" lon="9.157539128091521"><ele>693.0</ele><time>2026-03-29T15:52:09.999Z</time></trkpt><trkpt lat="44.63595636559438" lon="9.157406085455644"><ele>692.0</ele><time>2026-03-29T15:52:10.999Z</time></trkpt><trkpt lat="44.635948515805126" lon="9.157285417895118"><ele>691.0</ele><time>2026-03-29T15:52:11.999Z</time></trkpt><trkpt lat="44.63592300164391" lon="9.157154112105367"><ele>690.0</ele><time>2026-03-29T15:52:12.999Z</time></trkpt><trkpt lat="44.635882629575626" lon="9.157031261069722"><ele>693.2</ele><time>2026-03-29T15:52:13.999Z</time></trkpt><trkpt lat="44.635848895405395" lon="9.156866719795273"><ele>696.4</ele><time>2026-03-29T15:52:14.999Z</time></trkpt><trkpt lat="44.63580094122911" lon="9.156772791588912"><ele>699.5999999999999</ele><time>2026-03-29T15:52:15.999Z</time></trkpt><trkpt lat="44.63573559422226" lon="9.156676533022617"><ele>702.8</ele><time>2026-03-29T15:52:16.999Z</time></trkpt><trkpt lat="44.63565779941595" lon="9.156618346583638"><ele>706.0</ele><time>2026-03-29T15:52:17.999Z</time></trkpt><trkpt lat="44.63561757428655" lon="9.156511670060441"><ele>710.1999999999999</ele><time>2026-03-29T15:52:18.999Z</time></trkpt><trkpt lat="44.63558209218635" lon="9.156388011590213"><ele>714.4</ele><time>2026-03-29T15:52:19.999Z</time></trkpt><trkpt lat="44.63552422595825" lon="9.15626910876342"><ele>718.6</ele><time>2026-03-29T15:52:20.999Z</time></trkpt><trkpt lat="44.635445230115494" lon="9.156166979695024"><ele>722.8</ele><time>2026-03-29T15:52:21.999Z</time></trkpt><trkpt lat="44.63536615033575" lon="9.156070873576146"><ele>727.0</ele><time>2026-03-29T15:52:22.999Z</time></trkpt><trkpt lat="44.63528974112557" lon="9.15598280385208"><ele>718.2</ele><time>2026-03-29T15:52:23.999Z</time></trkpt><trkpt lat="44.63520245846336" lon="9.155919669618433"><ele>709.4000000000001</ele><time>2026-03-29T15:52:24.999Z</time></trkpt><trkpt lat="44.63510976196849" lon="9.155873598342431"><ele>700.5999999999999</ele><time>2026-03-29T15:52:25.999Z</time></trkpt><trkpt lat="44.63500575478741" lon="9.155866975650628"><ele>691.8</ele><time>2026-03-29T15:52:26.999Z</time></trkpt><trkpt lat="44.634910050390914" lon="9.155865855430715"><ele>683.0</ele><time>2026-03-29T15:52:27.999Z</time></trkpt><trkpt lat="44.63483540983892" lon="9.155849073174334"><ele>683.0</ele><time>2026-03-29T15:52:28.999Z</time></trkpt><trkpt lat="44.63477934233204" lon="9.155808264281868"><ele>683.0</ele><time>2026-03-29T15:52:29.999Z</time></trkpt><trkpt lat="44.63474423291623" lon="9.155733736415215"><ele>683.0</ele><time>2026-03-29T15:52:30.999Z</time></trkpt><trkpt lat="44.63471976148829" lon="9.15562172526668"><ele>683.0</ele><time>2026-03-29T15:52:31.999Z</time></trkpt><trkpt lat="44.63469412533637" lon="9.155492828146212"><ele>683.0</ele><time>2026-03-29T15:52:32.999Z</time></trkpt><trkpt lat="44.63467419787231" lon="9.155387185811175"><ele>683.0</ele><time>2026-03-29T15:52:33.999Z</time></trkpt><trkpt lat="44.63468304425466" lon="9.15527955467735"><ele>687.8</ele><time>2026-03-29T15:52:34.999Z</time></trkpt><trkpt lat="44.63471277643315" lon="9.155145835132176"><ele>692.5999999999999</ele><time>2026-03-29T15:52:35.999Z</time></trkpt><trkpt lat="44.63474106140726" lon="9.155041603075423"><ele>697.4000000000001</ele><time>2026-03-29T15:52:36.999Z</time></trkpt><trkpt lat="44.63471083881577" lon="9.154869853597969"><ele>702.2</ele><time>2026-03-29T15:52:38.999Z</time></trkpt><trkpt lat="44.634657162475236" lon="9.15480386537834"><ele>707.0</ele><time>2026-03-29T15:52:39.999Z</time></trkpt><trkpt lat="44.63458739972959" lon="9.154745149523501"><ele>712.2</ele><time>2026-03-29T15:52:40.999Z</time></trkpt><trkpt lat="44.63452910508216" lon="9.154665783465084"><ele>717.4000000000001</ele><time>2026-03-29T15:52:41.999Z</time></trkpt><trkpt lat="44.634497482698144" lon="9.154558582840593"><ele>722.5999999999999</ele><time>2026-03-29T15:52:42.999Z</time></trkpt><trkpt lat="44.634453529401696" lon="9.154443157394814"><ele>727.8</ele><time>2026-03-29T15:52:43.999Z</time></trkpt><trkpt lat="44.63439622193926" lon="9.15432175871447"><ele>733.0</ele><time>2026-03-29T15:52:44.999Z</time></trkpt><trkpt lat="44.634337268237964" lon="9.154221288810335"><ele>727.5</ele><time>2026-03-29T15:52:45.999Z</time></trkpt><trkpt lat="44.63428648046095" lon="9.15412522731126"><ele>722.0</ele><time>2026-03-29T15:52:46.998Z</time></trkpt><trkpt lat="44.63425556852983" lon="9.154006523403467"><ele>716.5</ele><time>2026-03-29T15:52:47.998Z</time></trkpt><trkpt lat="44.634195975013625" lon="9.153917523616718"><ele>711.0</ele><time>2026-03-29T15:52:48.998Z</time></trkpt><trkpt lat="44.63412834905964" lon="9.153844781154751"><ele>705.5</ele><time>2026-03-29T15:52:49.998Z</time></trkpt><trkpt lat="44.63404770289426" lon="9.15378905510582"><ele>700.0</ele><time>2026-03-29T15:52:50.998Z</time></trkpt><trkpt lat="44.63395917075225" lon="9.153756908826615"><ele>700.0</ele><time>2026-03-29T15:52:51.998Z</time></trkpt><trkpt lat="44.63386942307736" lon="9.153721563709434"><ele>700.0</ele><time>2026-03-29T15:52:52.998Z</time></trkpt><trkpt lat="44.63377872117729" lon="9.153682397507263"><ele>700.0</ele><time>2026-03-29T15:52:53.998Z</time></trkpt><trkpt lat="44.63369675866179" lon="9.153643854142777"><ele>700.0</ele><time>2026-03-29T15:52:54.998Z</time></trkpt><trkpt lat="44.63361690214563" lon="9.153611512876761"><ele>700.0</ele><time>2026-03-29T15:52:55.998Z</time></trkpt><trkpt lat="44.633549194475805" lon="9.15356982568778"><ele>700.0</ele><time>2026-03-29T15:52:56.998Z</time></trkpt><trkpt lat="44.633499941831616" lon="9.153494666524574"><ele>691.0</ele><time>2026-03-29T15:52:57.998Z</time></trkpt><trkpt lat="44.633467595089755" lon="9.153371078909682"><ele>682.0</ele><time>2026-03-29T15:52:58.998Z</time></trkpt><trkpt lat="44.63345019771323" lon="9.153241492639012"><ele>673.0</ele><time>2026-03-29T15:52:59.998Z</time></trkpt><trkpt lat="44.63346268026449" lon="9.15312028944478"><ele>664.0</ele><time>2026-03-29T15:53:00.998Z</time></trkpt><trkpt lat="44.63350117821082" lon="9.152995432713311"><ele>655.0</ele><time>2026-03-29T15:53:01.998Z</time></trkpt><trkpt lat="44.633555839939824" lon="9.152877520759247"><ele>657.4</ele><time>2026-03-29T15:53:02.998Z</time></trkpt><trkpt lat="44.63362655137228" lon="9.15276418186248"><ele>659.8</ele><time>2026-03-29T15:53:03.998Z</time></trkpt><trkpt lat="44.63370534868091" lon="9.152651435653599"><ele>662.2</ele><time>2026-03-29T15:53:04.998Z</time></trkpt><trkpt lat="44.63378064687367" lon="9.152535259701379"><ele>664.6</ele><time>2026-03-29T15:53:05.998Z</time></trkpt><trkpt lat="44.63385955437713" lon="9.152426021614936"><ele>667.0</ele><time>2026-03-29T15:53:06.998Z</time></trkpt><trkpt lat="44.63393857009515" lon="9.152322269032663"><ele>667.0</ele><time>2026-03-29T15:53:07.998Z</time></trkpt><trkpt lat="44.634004834935354" lon="9.152204481810188"><ele>667.0</ele><time>2026-03-29T15:53:08.998Z</time></trkpt><trkpt lat="44.63405181878493" lon="9.152063889581548"><ele>667.0</ele><time>2026-03-29T15:53:09.998Z</time></trkpt><trkpt lat="44.63408501585367" lon="9.151923999404593"><ele>667.0</ele><time>2026-03-29T15:53:10.998Z</time></trkpt><trkpt lat="44.63412058255262" lon="9.151795568135496"><ele>667.0</ele><time>2026-03-29T15:53:11.998Z</time></trkpt><trkpt lat="44.6341554290673" lon="9.151673652370498"><ele>664.2</ele><time>2026-03-29T15:53:12.998Z</time></trkpt><trkpt lat="44.63415577146356" lon="9.151534716767644"><ele>661.4000000000001</ele><time>2026-03-29T15:53:13.998Z</time></trkpt><trkpt lat="44.634139572421844" lon="9.151388234977105"><ele>658.5999999999999</ele><time>2026-03-29T15:53:14.998Z</time></trkpt><trkpt lat="44.63412251164571" lon="9.15125441832329"><ele>655.8</ele><time>2026-03-29T15:53:15.998Z</time></trkpt><trkpt lat="44.634114118802536" lon="9.151125346083363"><ele>653.0</ele><time>2026-03-29T15:53:16.998Z</time></trkpt><trkpt lat="44.634121868263314" lon="9.150994117993607"><ele>653.0</ele><time>2026-03-29T15:53:17.998Z</time></trkpt><trkpt lat="44.6341553119349" lon="9.15086275466854"><ele>653.0</ele><time>2026-03-29T15:53:18.998Z</time></trkpt><trkpt lat="44.6342005469079" lon="9.150736071965474"><ele>653.0</ele><time>2026-03-29T15:53:19.998Z</time></trkpt><trkpt lat="44.634259118268304" lon="9.150629329160255"><ele>653.0</ele><time>2026-03-29T15:53:20.998Z</time></trkpt><trkpt lat="44.63434054928465" lon="9.150540837032258"><ele>653.0</ele><time>2026-03-29T15:53:22Z</time></trkpt><trkpt lat="44.63442881837525" lon="9.150446906667153"><ele>659.5</ele><time>2026-03-29T15:53:23Z</time></trkpt><trkpt lat="44.634515120496424" lon="9.150335949626628"><ele>666.0</ele><time>2026-03-29T15:53:24Z</time></trkpt><trkpt lat="44.634593683890316" lon="9.15020665704198"><ele>672.5</ele><time>2026-03-29T15:53:25Z</time></trkpt><trkpt lat="44.634667559786024" lon="9.15006189935064"><ele>679.0</ele><time>2026-03-29T15:53:26Z</time></trkpt><trkpt lat="44.634734461326225" lon="9.149921784846422"><ele>674.2</ele><time>2026-03-29T15:53:27Z</time></trkpt><trkpt lat="44.63479041959141" lon="9.149784665795769"><ele>669.4000000000001</ele><time>2026-03-29T15:53:28Z</time></trkpt><trkpt lat="44.634842934404574" lon="9.14965214453214"><ele>664.6</ele><time>2026-03-29T15:53:29Z</time></trkpt><trkpt lat="44.63489397161604" lon="9.149509164231105"><ele>659.8</ele><time>2026-03-29T15:53:30Z</time></trkpt><trkpt lat="44.6349332863159" lon="9.149360146874278"><ele>655.0</ele><time>2026-03-29T15:53:31Z</time></trkpt><trkpt lat="44.63496554301129" lon="9.149203666672465"><ele>655.0</ele><time>2026-03-29T15:53:32Z</time></trkpt><trkpt lat="44.63500032359012" lon="9.149054987274386"><ele>655.0</ele><time>2026-03-29T15:53:33Z</time></trkpt><trkpt lat="44.63503630343458" lon="9.148915158249107"><ele>655.0</ele><time>2026-03-29T15:53:34Z</time></trkpt><trkpt lat="44.63507711304629" lon="9.148782681600796"><ele>655.0</ele><time>2026-03-29T15:53:35Z</time></trkpt><trkpt lat="44.63513526113548" lon="9.148672759441286"><ele>655.0</ele><time>2026-03-29T15:53:36Z</time></trkpt><trkpt lat="44.63522562279901" lon="9.148584815509587"><ele>655.75</ele><time>2026-03-29T15:53:37Z</time></trkpt><trkpt lat="44.6353338549755" lon="9.148528926236551"><ele>656.5</ele><time>2026-03-29T15:53:38Z</time></trkpt><trkpt lat="44.63544659107616" lon="9.14846546712115"><ele>657.25</ele><time>2026-03-29T15:53:39Z</time></trkpt><trkpt lat="44.635553519930056" lon="9.148388599416593"><ele>658.0</ele><time>2026-03-29T15:53:40Z</time></trkpt><trkpt lat="44.63564551484379" lon="9.148310332757605"><ele>658.0</ele><time>2026-03-29T15:53:41Z</time></trkpt><trkpt lat="44.63573714617106" lon="9.148237324056403"><ele>658.0</ele><time>2026-03-29T15:53:42Z</time></trkpt><trkpt lat="44.635838145903996" lon="9.148209432740089"><ele>658.0</ele><time>2026-03-29T15:53:43Z</time></trkpt><trkpt lat="44.63594061317373" lon="9.148223149177488"><ele>658.0</ele><time>2026-03-29T15:53:44Z</time></trkpt><trkpt lat="44.636028129716685" lon="9.148251239957428"><ele>658.0</ele><time>2026-03-29T15:53:44.999Z</time></trkpt><trkpt lat="44.63610848852805" lon="9.148267335262487"><ele>660.5</ele><time>2026-03-29T15:53:45.999Z</time></trkpt><trkpt lat="44.63617399216192" lon="9.148224671700039"><ele>663.0</ele><time>2026-03-29T15:53:46.999Z</time></trkpt><trkpt lat="44.63621411904113" lon="9.148130403724963"><ele>665.5</ele><time>2026-03-29T15:53:47.999Z</time></trkpt><trkpt lat="44.63623717548292" lon="9.148031339697003"><ele>668.0</ele><time>2026-03-29T15:53:48.999Z</time></trkpt><trkpt lat="44.636243059115145" lon="9.147928850952987"><ele>670.5</ele><time>2026-03-29T15:53:49.999Z</time></trkpt><trkpt lat="44.636240339103416" lon="9.14781633082102"><ele>673.0</ele><time>2026-03-29T15:53:50.999Z</time></trkpt><trkpt lat="44.636251046371285" lon="9.147706203487715"><ele>673.0</ele><time>2026-03-29T15:53:51.999Z</time></trkpt><trkpt lat="44.636278510779235" lon="9.147583112252686"><ele>673.0</ele><time>2026-03-29T15:53:52.999Z</time></trkpt><trkpt lat="44.636320763622315" lon="9.147475609714393"><ele>673.0</ele><time>2026-03-29T15:53:53.999Z</time></trkpt><trkpt lat="44.636366085504186" lon="9.14736258159401"><ele>673.0</ele><time>2026-03-29T15:53:54.999Z</time></trkpt><trkpt lat="44.636423523635116" lon="9.147251185298012"><ele>673.0</ele><time>2026-03-29T15:53:55.999Z</time></trkpt><trkpt lat="44.6364835105317" lon="9.147145129420469"><ele>672.6666666666667</ele><time>2026-03-29T15:53:56.999Z</time></trkpt><trkpt lat="44.63653854869871" lon="9.1470410156303"><ele>672.3333333333334</ele><time>2026-03-29T15:53:57.999Z</time></trkpt><trkpt lat="44.63657269156083" lon="9.14693123948848"><ele>672.0</ele><time>2026-03-29T15:53:58.999Z</time></trkpt><trkpt lat="44.636572185725164" lon="9.146818680714405"><ele>671.6666666666666</ele><time>2026-03-29T15:53:59.999Z</time></trkpt><trkpt lat="44.63655198996879" lon="9.146703153072922"><ele>671.3333333333333</ele><time>2026-03-29T15:54:00.999Z</time></trkpt><trkpt lat="44.63650845997052" lon="9.146584263249082"><ele>671.0</ele><time>2026-03-29T15:54:01.999Z</time></trkpt><trkpt lat="44.63644719988024" lon="9.146476110771674"><ele>675.0</ele><time>2026-03-29T15:54:02.999Z</time></trkpt><trkpt lat="44.63637186547946" lon="9.146375024506073"><ele>679.0</ele><time>2026-03-29T15:54:03.999Z</time></trkpt><trkpt lat="44.63629928406623" lon="9.146274530798513"><ele>683.0</ele><time>2026-03-29T15:54:04.999Z</time></trkpt><trkpt lat="44.636250224584984" lon="9.146152958714849"><ele>687.0</ele><time>2026-03-29T15:54:05.999Z</time></trkpt><trkpt lat="44.63619954124913" lon="9.145998506422384"><ele>691.0</ele><time>2026-03-29T15:54:06.999Z</time></trkpt><trkpt lat="44.63614477655852" lon="9.145849743008952"><ele>681.1999999999999</ele><time>2026-03-29T15:54:07.999Z</time></trkpt><trkpt lat="44.63608836303275" lon="9.145720823746798"><ele>671.4</ele><time>2026-03-29T15:54:08.999Z</time></trkpt><trkpt lat="44.63603050000225" lon="9.145604291039415"><ele>661.6</ele><time>2026-03-29T15:54:09.999Z</time></trkpt><trkpt lat="44.6359571859558" lon="9.145504580784515"><ele>651.8</ele><time>2026-03-29T15:54:10.999Z</time></trkpt><trkpt lat="44.635872802168514" lon="9.145414527885581"><ele>642.0</ele><time>2026-03-29T15:54:11.999Z</time></trkpt><trkpt lat="44.63579612531482" lon="9.145314952947434"><ele>642.0</ele><time>2026-03-29T15:54:12.999Z</time></trkpt><trkpt lat="44.6357340966002" lon="9.145199297919032"><ele>642.0</ele><time>2026-03-29T15:54:13.999Z</time></trkpt><trkpt lat="44.63569140069597" lon="9.145078001250537"><ele>642.0</ele><time>2026-03-29T15:54:14.999Z</time></trkpt><trkpt lat="44.635665275748025" lon="9.144944347735567"><ele>642.0</ele><time>2026-03-29T15:54:15.999Z</time></trkpt><trkpt lat="44.63565739631575" lon="9.144805160187751"><ele>642.0</ele><time>2026-03-29T15:54:16.999Z</time></trkpt><trkpt lat="44.63566336341153" lon="9.144695962705867"><ele>639.6</ele><time>2026-03-29T15:54:17.999Z</time></trkpt><trkpt lat="44.6357472982808" lon="9.144545500107354"><ele>637.2</ele><time>2026-03-29T15:54:19.999Z</time></trkpt><trkpt lat="44.635821136631854" lon="9.14448161425395"><ele>634.8</ele><time>2026-03-29T15:54:20.999Z</time></trkpt><trkpt lat="44.63588582224498" lon="9.144417124158489"><ele>632.4</ele><time>2026-03-29T15:54:21.999Z</time></trkpt><trkpt lat="44.63594776465503" lon="9.144342977537642"><ele>630.0</ele><time>2026-03-29T15:54:22.999Z</time></trkpt><trkpt lat="44.63600203676476" lon="9.144251011617943"><ele>630.0</ele><time>2026-03-29T15:54:23.999Z</time></trkpt><trkpt lat="44.63605367478268" lon="9.144137315379954"><ele>630.0</ele><time>2026-03-29T15:54:24.999Z</time></trkpt><trkpt lat="44.636100076198" lon="9.144020716063995"><ele>630.0</ele><time>2026-03-29T15:54:25.999Z</time></trkpt><trkpt lat="44.63613337213378" lon="9.143909015087253"><ele>630.0</ele><time>2026-03-29T15:54:26.999Z</time></trkpt><trkpt lat="44.63616257535227" lon="9.143794001039428"><ele>630.0</ele><time>2026-03-29T15:54:27.999Z</time></trkpt><trkpt lat="44.63618224044651" lon="9.143672723242092"><ele>627.8333333333334</ele><time>2026-03-29T15:54:28.999Z</time></trkpt><trkpt lat="44.63617699326977" lon="9.143548716088807"><ele>625.6666666666666</ele><time>2026-03-29T15:54:29.999Z</time></trkpt><trkpt lat="44.63615568258958" lon="9.143418135644787"><ele>623.5</ele><time>2026-03-29T15:54:30.999Z</time></trkpt><trkpt lat="44.63613159547496" lon="9.14328663320741"><ele>621.3333333333333</ele><time>2026-03-29T15:54:31.999Z</time></trkpt><trkpt lat="44.63611146981933" lon="9.143164713975077"><ele>619.1666666666666</ele><time>2026-03-29T15:54:32.999Z</time></trkpt><trkpt lat="44.63610291087803" lon="9.1430556725036"><ele>617.0</ele><time>2026-03-29T15:54:33.999Z</time></trkpt><trkpt lat="44.6361178864692" lon="9.142961410829747"><ele>620.2</ele><time>2026-03-29T15:54:34.999Z</time></trkpt><trkpt lat="44.636169116361046" lon="9.142884324033878"><ele>623.4000000000001</ele><time>2026-03-29T15:54:35.999Z</time></trkpt><trkpt lat="44.6362402186324" lon="9.142819414279776"><ele>626.5999999999999</ele><time>2026-03-29T15:54:36.999Z</time></trkpt><trkpt lat="44.636333141256394" lon="9.142762841988992"><ele>629.8</ele><time>2026-03-29T15:54:37.999Z</time></trkpt><trkpt lat="44.63642702176511" lon="9.14272129756064"><ele>633.0</ele><time>2026-03-29T15:54:38.999Z</time></trkpt><trkpt lat="44.63650440158702" lon="9.142634803896918"><ele>633.0</ele><time>2026-03-29T15:54:39.999Z</time></trkpt><trkpt lat="44.63656443009945" lon="9.142512462011743"><ele>633.0</ele><time>2026-03-29T15:54:40.999Z</time></trkpt><trkpt lat="44.636621655851165" lon="9.142390920534242"><ele>633.0</ele><time>2026-03-29T15:54:41.999Z</time></trkpt><trkpt lat="44.636679854690264" lon="9.14227796398843"><ele>633.0</ele><time>2026-03-29T15:54:42.999Z</time></trkpt><trkpt lat="44.63673931644318" lon="9.142156260320903"><ele>633.0</ele><time>2026-03-29T15:54:43.999Z</time></trkpt><trkpt lat="44.636811791252455" lon="9.142046095627256"><ele>630.6</ele><time>2026-03-29T15:54:44.999Z</time></trkpt><trkpt lat="44.6368873621322" lon="9.141940796551516"><ele>628.1999999999999</ele><time>2026-03-29T15:54:45.999Z</time></trkpt><trkpt lat="44.63696057333705" lon="9.141824792687485"><ele>625.8</ele><time>2026-03-29T15:54:46.999Z</time></trkpt><trkpt lat="44.637032517635156" lon="9.141687536016502"><ele>623.4</ele><time>2026-03-29T15:54:47.999Z</time></trkpt><trkpt lat="44.63709994481695" lon="9.14159798297838"><ele>621.0</ele><time>2026-03-29T15:54:48.999Z</time></trkpt><trkpt lat="44.63716145960806" lon="9.141494357379766"><ele>617.3333333333334</ele><time>2026-03-29T15:54:49.999Z</time></trkpt><trkpt lat="44.637227644771535" lon="9.141419799961334"><ele>613.6666666666666</ele><time>2026-03-29T15:54:50.999Z</time></trkpt><trkpt lat="44.637299379367626" lon="9.141382496190838"><ele>610.0</ele><time>2026-03-29T15:54:51.998Z</time></trkpt><trkpt lat="44.63738516771607" lon="9.141407187471533"><ele>606.3333333333333</ele><time>2026-03-29T15:54:52.998Z</time></trkpt><trkpt lat="44.63747436394908" lon="9.141447802607498"><ele>602.6666666666666</ele><time>2026-03-29T15:54:53.998Z</time></trkpt><trkpt lat="44.637570600235236" lon="9.141495138566746"><ele>599.0</ele><time>2026-03-29T15:54:54.998Z</time></trkpt><trkpt lat="44.637668277402064" lon="9.141533748991655"><ele>601.8333333333333</ele><time>2026-03-29T15:54:55.998Z</time></trkpt><trkpt lat="44.63777264266631" lon="9.141574858893144"><ele>604.6666666666666</ele><time>2026-03-29T15:54:56.998Z</time></trkpt><trkpt lat="44.637864067273114" lon="9.141609132518397"><ele>607.5</ele><time>2026-03-29T15:54:57.998Z</time></trkpt><trkpt lat="44.63794610397131" lon="9.141632796358579"><ele>610.3333333333334</ele><time>2026-03-29T15:54:58.998Z</time></trkpt><trkpt lat="44.63801401244379" lon="9.141667929001454"><ele>613.1666666666667</ele><time>2026-03-29T15:54:59.998Z</time></trkpt><trkpt lat="44.63808132008461" lon="9.14164739550603"><ele>616.0</ele><time>2026-03-29T15:55:00.998Z</time></trkpt><trkpt lat="44.6381388099556" lon="9.141579061916852"><ele>613.4</ele><time>2026-03-29T15:55:01.998Z</time></trkpt><trkpt lat="44.638168762861085" lon="9.141448475850074"><ele>610.8</ele><time>2026-03-29T15:55:02.998Z</time></trkpt><trkpt lat="44.63820140987138" lon="9.141331722286422"><ele>608.1999999999999</ele><time>2026-03-29T15:55:03.998Z</time></trkpt><trkpt lat="44.63823443482395" lon="9.141221153931046"><ele>605.6</ele><time>2026-03-29T15:55:04.998Z</time></trkpt><trkpt lat="44.63827376584253" lon="9.141105174701094"><ele>603.0</ele><time>2026-03-29T15:55:05.998Z</time></trkpt><trkpt lat="44.63831270857409" lon="9.140989747306843"><ele>603.0</ele><time>2026-03-29T15:55:06.998Z</time></trkpt><trkpt lat="44.63835111208417" lon="9.140870816875216"><ele>603.0</ele><time>2026-03-29T15:55:07.998Z</time></trkpt><trkpt lat="44.63838187974868" lon="9.140765856128587"><ele>603.0</ele><time>2026-03-29T15:55:08.998Z</time></trkpt><trkpt lat="44.638417349597795" lon="9.140666881183286"><ele>603.0</ele><time>2026-03-29T15:55:09.998Z</time></trkpt><trkpt lat="44.63844694593744" lon="9.140577985547049"><ele>603.0</ele><time>2026-03-29T15:55:10.998Z</time></trkpt><trkpt lat="44.63848543232158" lon="9.140505939367069"><ele>603.0</ele><time>2026-03-29T15:55:11.998Z</time></trkpt><trkpt lat="44.63854195476502" lon="9.140453415358532"><ele>607.5</ele><time>2026-03-29T15:55:12.998Z</time></trkpt><trkpt lat="44.63861632732302" lon="9.14041426942805"><ele>612.0</ele><time>2026-03-29T15:55:13.998Z</time></trkpt><trkpt lat="44.63869772590792" lon="9.140391446591433"><ele>616.5</ele><time>2026-03-29T15:55:14.998Z</time></trkpt><trkpt lat="44.638783617870466" lon="9.140362217003931"><ele>621.0</ele><time>2026-03-29T15:55:15.998Z</time></trkpt><trkpt lat="44.63888011335353" lon="9.140337191344656"><ele>625.5</ele><time>2026-03-29T15:55:16.998Z</time></trkpt><trkpt lat="44.63898028574268" lon="9.140325990128348"><ele>630.0</ele><time>2026-03-29T15:55:17.998Z</time></trkpt><trkpt lat="44.639078441060484" lon="9.140320030374962"><ele>630.3333333333334</ele><time>2026-03-29T15:55:18.998Z</time></trkpt><trkpt lat="44.63916868956622" lon="9.140327122627081"><ele>630.6666666666666</ele><time>2026-03-29T15:55:19.998Z</time></trkpt><trkpt lat="44.639251124949105" lon="9.140330827212612"><ele>631.0</ele><time>2026-03-29T15:55:20.998Z</time></trkpt><trkpt lat="44.63932615289768" lon="9.140335986886459"><ele>631.3333333333333</ele><time>2026-03-29T15:55:21.998Z</time></trkpt><trkpt lat="44.63939508871685" lon="9.140336807120974"><ele>631.6666666666666</ele><time>2026-03-29T15:55:22.998Z</time></trkpt><trkpt lat="44.639467805162596" lon="9.140334554963927"><ele>632.0</ele><time>2026-03-29T15:55:23.998Z</time></trkpt><trkpt lat="44.63954458938224" lon="9.140324722956924"><ele>632.0</ele><time>2026-03-29T15:55:24.998Z</time></trkpt><trkpt lat="44.63962360710445" lon="9.140314680184717"><ele>632.0</ele><time>2026-03-29T15:55:25.998Z</time></trkpt><trkpt lat="44.6397079317791" lon="9.140294017161764"><ele>632.0</ele><time>2026-03-29T15:55:27Z</time></trkpt><trkpt lat="44.639796437905176" lon="9.14026812447268"><ele>632.0</ele><time>2026-03-29T15:55:28Z</time></trkpt><trkpt lat="44.63988903469024" lon="9.140246312296398"><ele>632.0</ele><time>2026-03-29T15:55:29Z</time></trkpt><trkpt lat="44.639981703783086" lon="9.140226969525257"><ele>632.0</ele><time>2026-03-29T15:55:30Z</time></trkpt><trkpt lat="44.64007248083316" lon="9.140228061885955"><ele>632.0</ele><time>2026-03-29T15:55:31Z</time></trkpt><trkpt lat="44.64016026530057" lon="9.140243728090072"><ele>632.0</ele><time>2026-03-29T15:55:32Z</time></trkpt><trkpt lat="44.64024637210605" lon="9.14025106884836"><ele>632.0</ele><time>2026-03-29T15:55:33Z</time></trkpt><trkpt lat="44.64032590223344" lon="9.140238974953025"><ele>632.0</ele><time>2026-03-29T15:55:34Z</time></trkpt><trkpt lat="44.64040400535546" lon="9.140193828315537"><ele>632.0</ele><time>2026-03-29T15:55:35Z</time></trkpt><trkpt lat="44.64046735155321" lon="9.140130010804016"><ele>632.0</ele><time>2026-03-29T15:55:36Z</time></trkpt><trkpt lat="44.64051672007764" lon="9.140043679317957"><ele>632.6666666666666</ele><time>2026-03-29T15:55:37Z</time></trkpt><trkpt lat="44.64055338177755" lon="9.139945108427543"><ele>633.3333333333333</ele><time>2026-03-29T15:55:38Z</time></trkpt><trkpt lat="44.6405780806867" lon="9.139837396639738"><ele>634.0</ele><time>2026-03-29T15:55:39Z</time></trkpt><trkpt lat="44.64060173478728" lon="9.13974492157625"><ele>634.6666666666666</ele><time>2026-03-29T15:55:40Z</time></trkpt><trkpt lat="44.64063929245597" lon="9.139652467202389"><ele>635.3333333333334</ele><time>2026-03-29T15:55:41Z</time></trkpt><trkpt lat="44.64069109389951" lon="9.139554414083086"><ele>636.0</ele><time>2026-03-29T15:55:42Z</time></trkpt><trkpt lat="44.640749106905" lon="9.139453464413961"><ele>636.0</ele><time>2026-03-29T15:55:42.999Z</time></trkpt><trkpt lat="44.64081588036784" lon="9.139353189965426"><ele>636.0</ele><time>2026-03-29T15:55:43.999Z</time></trkpt><trkpt lat="44.64089709268828" lon="9.139265018236083"><ele>636.0</ele><time>2026-03-29T15:55:44.999Z</time></trkpt><trkpt lat="44.640982262358676" lon="9.139189289372736"><ele>636.0</ele><time>2026-03-29T15:55:45.999Z</time></trkpt><trkpt lat="44.641068164055724" lon="9.139127135358317"><ele>636.0</ele><time>2026-03-29T15:55:46.999Z</time></trkpt><trkpt lat="44.641154515360505" lon="9.13907082541613"><ele>633.0</ele><time>2026-03-29T15:55:47.999Z</time></trkpt><trkpt lat="44.641244025840976" lon="9.139027187332816"><ele>630.0</ele><time>2026-03-29T15:55:48.999Z</time></trkpt><trkpt lat="44.64133354529657" lon="9.139002908848271"><ele>627.0</ele><time>2026-03-29T15:55:49.999Z</time></trkpt><trkpt lat="44.64142454876408" lon="9.13899843782767"><ele>624.0</ele><time>2026-03-29T15:55:50.999Z</time></trkpt><trkpt lat="44.641508106467995" lon="9.139009951666552"><ele>621.0</ele><time>2026-03-29T15:55:51.999Z</time></trkpt><trkpt lat="44.64157837197508" lon="9.139036643249456"><ele>618.0</ele><time>2026-03-29T15:55:52.999Z</time></trkpt><trkpt lat="44.64164240656723" lon="9.139072496274974"><ele>618.0</ele><time>2026-03-29T15:55:53.999Z</time></trkpt><trkpt lat="44.64170221121709" lon="9.13911918966331"><ele>618.0</ele><time>2026-03-29T15:55:54.999Z</time></trkpt><trkpt lat="44.641768427303354" lon="9.139174867413217"><ele>618.0</ele><time>2026-03-29T15:55:55.999Z</time></trkpt><trkpt lat="44.641841519488274" lon="9.139226736888094"><ele>618.0</ele><time>2026-03-29T15:55:56.999Z</time></trkpt><trkpt lat="44.64191690844217" lon="9.139280567693426"><ele>618.0</ele><time>2026-03-29T15:55:57.999Z</time></trkpt><trkpt lat="44.64199528724393" lon="9.139333788158837"><ele>618.0</ele><time>2026-03-29T15:55:58.999Z</time></trkpt><trkpt lat="44.64208076739811" lon="9.139382629918893"><ele>619.6666666666666</ele><time>2026-03-29T15:55:59.999Z</time></trkpt><trkpt lat="44.642163045528925" lon="9.139424193960952"><ele>621.3333333333334</ele><time>2026-03-29T15:56:00.999Z</time></trkpt><trkpt lat="44.642242716488575" lon="9.139456721293792"><ele>623.0</ele><time>2026-03-29T15:56:01.999Z</time></trkpt><trkpt lat="44.64232690354329" lon="9.139473259530881"><ele>624.6666666666667</ele><time>2026-03-29T15:56:02.999Z</time></trkpt><trkpt lat="44.642416793041946" lon="9.139463426569515"><ele>626.3333333333334</ele><time>2026-03-29T15:56:03.999Z</time></trkpt><trkpt lat="44.64251672611753" lon="9.139441514955319"><ele>628.0</ele><time>2026-03-29T15:56:04.999Z</time></trkpt><trkpt lat="44.642607273285115" lon="9.139421551637183"><ele>628.0</ele><time>2026-03-29T15:56:05.999Z</time></trkpt><trkpt lat="44.64268813021043" lon="9.139399527449614"><ele>628.0</ele><time>2026-03-29T15:56:06.999Z</time></trkpt><trkpt lat="44.642757388577174" lon="9.139359072283352"><ele>628.0</ele><time>2026-03-29T15:56:07.999Z</time></trkpt><trkpt lat="44.64282282912569" lon="9.13927554313816"><ele>628.0</ele><time>2026-03-29T15:56:08.999Z</time></trkpt><trkpt lat="44.64287597911071" lon="9.139163255575587"><ele>628.0</ele><time>2026-03-29T15:56:09.999Z</time></trkpt><trkpt lat="44.64293395945662" lon="9.139047338198107"><ele>628.0</ele><time>2026-03-29T15:56:10.999Z</time></trkpt><trkpt lat="44.643001749010516" lon="9.138946113433928"><ele>633.8</ele><time>2026-03-29T15:56:11.999Z</time></trkpt><trkpt lat="44.64308763530557" lon="9.13887183724636"><ele>639.5999999999999</ele><time>2026-03-29T15:56:12.999Z</time></trkpt><trkpt lat="44.64319032295945" lon="9.138819720001344"><ele>645.4000000000001</ele><time>2026-03-29T15:56:13.999Z</time></trkpt><trkpt lat="44.64329386577669" lon="9.13878795039059"><ele>651.2</ele><time>2026-03-29T15:56:14.999Z</time></trkpt><trkpt lat="44.64340500363502" lon="9.138776834990741"><ele>657.0</ele><time>2026-03-29T15:56:15.999Z</time></trkpt><trkpt lat="44.64352416972935" lon="9.138785011529652"><ele>655.8</ele><time>2026-03-29T15:56:16.999Z</time></trkpt><trkpt lat="44.64363772445689" lon="9.13880372274557"><ele>654.6</ele><time>2026-03-29T15:56:17.999Z</time></trkpt><trkpt lat="44.64374595513353" lon="9.138848194874878"><ele>653.4</ele><time>2026-03-29T15:56:18.999Z</time></trkpt><trkpt lat="44.64384913267722" lon="9.13890314168278"><ele>652.1999999999999</ele><time>2026-03-29T15:56:19.999Z</time></trkpt><trkpt lat="44.64393889628143" lon="9.138960088470537"><ele>651.0</ele><time>2026-03-29T15:56:20.999Z</time></trkpt><trkpt lat="44.6440075561751" lon="9.139029309997483"><ele>651.0</ele><time>2026-03-29T15:56:21.999Z</time></trkpt><trkpt lat="44.64409194740814" lon="9.13907922322101"><ele>651.0</ele><time>2026-03-29T15:56:22.999Z</time></trkpt><trkpt lat="44.64419091857794" lon="9.139075851582636"><ele>651.0</ele><time>2026-03-29T15:56:23.999Z</time></trkpt><trkpt lat="44.6442956426972" lon="9.139046659421803"><ele>651.0</ele><time>2026-03-29T15:56:24.999Z</time></trkpt><trkpt lat="44.644411480984" lon="9.1390152043915"><ele>651.0</ele><time>2026-03-29T15:56:25.999Z</time></trkpt><trkpt lat="44.64452722122169" lon="9.138975518649477"><ele>643.5</ele><time>2026-03-29T15:56:26.999Z</time></trkpt><trkpt lat="44.64464075981119" lon="9.138926622972305"><ele>636.0</ele><time>2026-03-29T15:56:27.999Z</time></trkpt><trkpt lat="44.64475019209836" lon="9.138870043176835"><ele>628.5</ele><time>2026-03-29T15:56:28.999Z</time></trkpt><trkpt lat="44.644856927186275" lon="9.138819329417181"><ele>621.0</ele><time>2026-03-29T15:56:29.999Z</time></trkpt><trkpt lat="44.644967069539675" lon="9.138762411976694"><ele>621.0</ele><time>2026-03-29T15:56:30.999Z</time></trkpt><trkpt lat="44.64507611785314" lon="9.138689401414831"><ele>621.0</ele><time>2026-03-29T15:56:31.999Z</time></trkpt><trkpt lat="44.645195510409565" lon="9.13862776902518"><ele>621.0</ele><time>2026-03-29T15:56:32.999Z</time></trkpt><trkpt lat="44.645290062391524" lon="9.138518065671418"><ele>621.0</ele><time>2026-03-29T15:56:33.999Z</time></trkpt><trkpt lat="44.645381243392514" lon="9.138432915321046"><ele>618.2</ele><time>2026-03-29T15:56:34.999Z</time></trkpt><trkpt lat="44.64546945091783" lon="9.138343696625808"><ele>615.4000000000001</ele><time>2026-03-29T15:56:35.999Z</time></trkpt><trkpt lat="44.645551029919694" lon="9.138246168599265"><ele>612.6</ele><time>2026-03-29T15:56:36.999Z</time></trkpt><trkpt lat="44.64561752407033" lon="9.138126734345537"><ele>609.8000000000001</ele><time>2026-03-29T15:56:37.999Z</time></trkpt><trkpt lat="44.64567003854431" lon="9.137993551667238"><ele>607.0</ele><time>2026-03-29T15:56:38.999Z</time></trkpt><trkpt lat="44.64571047903875" lon="9.13784881205245"><ele>607.0</ele><time>2026-03-29T15:56:39.999Z</time></trkpt><trkpt lat="44.64576491520501" lon="9.13772656237615"><ele>607.0</ele><time>2026-03-29T15:56:40.999Z</time></trkpt><trkpt lat="44.645846718253715" lon="9.137635532499873"><ele>607.0</ele><time>2026-03-29T15:56:41.999Z</time></trkpt><trkpt lat="44.6459511800444" lon="9.137567334116957"><ele>607.0</ele><time>2026-03-29T15:56:42.999Z</time></trkpt><trkpt lat="44.64605757737405" lon="9.137498939788607"><ele>607.0</ele><time>2026-03-29T15:56:43.999Z</time></trkpt><trkpt lat="44.64615700506691" lon="9.137421299622094"><ele>605.0</ele><time>2026-03-29T15:56:44.999Z</time></trkpt><trkpt lat="44.64625132916135" lon="9.137315837177889"><ele>603.0</ele><time>2026-03-29T15:56:45.999Z</time></trkpt><trkpt lat="44.64634276046283" lon="9.13719000829148"><ele>601.0</ele><time>2026-03-29T15:56:46.999Z</time></trkpt><trkpt lat="44.64643548574077" lon="9.137068553168614"><ele>599.0</ele><time>2026-03-29T15:56:47.999Z</time></trkpt><trkpt lat="44.64652925094321" lon="9.136952635544462"><ele>599.0</ele><time>2026-03-29T15:56:48.999Z</time></trkpt><trkpt lat="44.64662669671396" lon="9.136850575900965"><ele>599.0</ele><time>2026-03-29T15:56:49.999Z</time></trkpt><trkpt lat="44.64672146596437" lon="9.136754321921481"><ele>599.0</ele><time>2026-03-29T15:56:50.999Z</time></trkpt><trkpt lat="44.64682188559869" lon="9.136654552163"><ele>599.0</ele><time>2026-03-29T15:56:51.999Z</time></trkpt><trkpt lat="44.64694158420668" lon="9.136542771034982"><ele>605.3333333333333</ele><time>2026-03-29T15:56:52.998Z</time></trkpt><trkpt lat="44.64707075755046" lon="9.13641804354022"><ele>611.6666666666666</ele><time>2026-03-29T15:56:53.998Z</time></trkpt><trkpt lat="44.64721110539216" lon="9.136296005529921"><ele>618.0</ele><time>2026-03-29T15:56:54.998Z</time></trkpt><trkpt lat="44.64735386444793" lon="9.136177269553924"><ele>618.0</ele><time>2026-03-29T15:56:55.998Z</time></trkpt><trkpt lat="44.64749071038748" lon="9.136061098690822"><ele>618.0</ele><time>2026-03-29T15:56:56.998Z</time></trkpt><trkpt lat="44.64762632264438" lon="9.135960690520468"><ele>618.0</ele><time>2026-03-29T15:56:57.998Z</time></trkpt><trkpt lat="44.64774446241865" lon="9.13585953282329"><ele>612.75</ele><time>2026-03-29T15:56:58.998Z</time></trkpt><trkpt lat="44.64786648231791" lon="9.135789461122398"><ele>607.5</ele><time>2026-03-29T15:56:59.998Z</time></trkpt><trkpt lat="44.647997237171715" lon="9.135755794336598"><ele>602.25</ele><time>2026-03-29T15:57:00.998Z</time></trkpt><trkpt lat="44.64813728480782" lon="9.135718901239839"><ele>597.0</ele><time>2026-03-29T15:57:01.998Z</time></trkpt><trkpt lat="44.64827287749058" lon="9.135665675272161"><ele>602.0</ele><time>2026-03-29T15:57:02.998Z</time></trkpt><trkpt lat="44.64840640852761" lon="9.135620724632085"><ele>607.0</ele><time>2026-03-29T15:57:03.998Z</time></trkpt><trkpt lat="44.64852949007406" lon="9.135623795353347"><ele>612.0</ele><time>2026-03-29T15:57:04.998Z</time></trkpt><trkpt lat="44.64864652806356" lon="9.13563960808745"><ele>617.0</ele><time>2026-03-29T15:57:05.998Z</time></trkpt><trkpt lat="44.64875312433104" lon="9.13564119846741"><ele>617.0</ele><time>2026-03-29T15:57:06.998Z</time></trkpt><trkpt lat="44.64885423404053" lon="9.1356321956354"><ele>617.0</ele><time>2026-03-29T15:57:07.998Z</time></trkpt><trkpt lat="44.648951131180404" lon="9.135610094310813"><ele>617.0</ele><time>2026-03-29T15:57:08.998Z</time></trkpt><trkpt lat="44.649039404963936" lon="9.135570991950118"><ele>617.0</ele><time>2026-03-29T15:57:09.998Z</time></trkpt><trkpt lat="44.64910975271088" lon="9.135503023536168"><ele>617.0</ele><time>2026-03-29T15:57:10.998Z</time></trkpt><trkpt lat="44.64916237022088" lon="9.135407723401082"><ele>617.0</ele><time>2026-03-29T15:57:11.998Z</time></trkpt><trkpt lat="44.6491932973285" lon="9.135286031018772"><ele>617.0</ele><time>2026-03-29T15:57:12.998Z</time></trkpt><trkpt lat="44.64920890254164" lon="9.135168043302599"><ele>617.0</ele><time>2026-03-29T15:57:13.998Z</time></trkpt><trkpt lat="44.64924722251993" lon="9.135091199505561"><ele>617.0</ele><time>2026-03-29T15:57:14.998Z</time></trkpt><trkpt lat="44.6493054868416" lon="9.135054120321115"><ele>617.0</ele><time>2026-03-29T15:57:15.998Z</time></trkpt><trkpt lat="44.649423230740695" lon="9.135151810990255"><ele>617.0</ele><time>2026-03-29T15:57:17.998Z</time></trkpt><trkpt lat="44.64948325907294" lon="9.135215079146555"><ele>613.8333333333333</ele><time>2026-03-29T15:57:18.998Z</time></trkpt><trkpt lat="44.64954544240472" lon="9.135275139219837"><ele>610.6666666666666</ele><time>2026-03-29T15:57:19.998Z</time></trkpt><trkpt lat="44.64961628310953" lon="9.135298548802842"><ele>607.5</ele><time>2026-03-29T15:57:20.998Z</time></trkpt><trkpt lat="44.649693805105606" lon="9.135283943620259"><ele>604.3333333333334</ele><time>2026-03-29T15:57:21.998Z</time></trkpt><trkpt lat="44.64976846597297" lon="9.13522634440857"><ele>601.1666666666667</ele><time>2026-03-29T15:57:22.998Z</time></trkpt><trkpt lat="44.64984343595747" lon="9.135139349425812"><ele>598.0</ele><time>2026-03-29T15:57:23.998Z</time></trkpt><trkpt lat="44.64991529181251" lon="9.135048690730091"><ele>598.0</ele><time>2026-03-29T15:57:24.998Z</time></trkpt><trkpt lat="44.650006364104556" lon="9.134954998128352"><ele>598.0</ele><time>2026-03-29T15:57:25.998Z</time></trkpt><trkpt lat="44.650075291863125" lon="9.13485784413548"><ele>598.0</ele><time>2026-03-29T15:57:26.998Z</time></trkpt><trkpt lat="44.6501272542599" lon="9.134767293350805"><ele>598.0</ele><time>2026-03-29T15:57:27.998Z</time></trkpt><trkpt lat="44.65016401637353" lon="9.134671055632325"><ele>598.0</ele><time>2026-03-29T15:57:28.998Z</time></trkpt><trkpt lat="44.65021194908167" lon="9.134590514771714"><ele>598.0</ele><time>2026-03-29T15:57:29.998Z</time></trkpt><trkpt lat="44.6502843903516" lon="9.13454022491966"><ele>604.4</ele><time>2026-03-29T15:57:30.998Z</time></trkpt><trkpt lat="44.65038275452666" lon="9.13454558238189"><ele>610.8</ele><time>2026-03-29T15:57:31.998Z</time></trkpt><trkpt lat="44.65049997221403" lon="9.134579717317656"><ele>617.2</ele><time>2026-03-29T15:57:32.999Z</time></trkpt><trkpt lat="44.65060976702603" lon="9.134598292985954"><ele>623.6</ele><time>2026-03-29T15:57:33.999Z</time></trkpt><trkpt lat="44.65070801597663" lon="9.134595733796505"><ele>630.0</ele><time>2026-03-29T15:57:34.999Z</time></trkpt><trkpt lat="44.65080882360772" lon="9.134584726984677"><ele>630.0</ele><time>2026-03-29T15:57:35.999Z</time></trkpt><trkpt lat="44.65091388914463" lon="9.134614930484863"><ele>630.0</ele><time>2026-03-29T15:57:36.999Z</time></trkpt><trkpt lat="44.65101726602501" lon="9.134658375711954"><ele>630.0</ele><time>2026-03-29T15:57:37.999Z</time></trkpt><trkpt lat="44.65112405538545" lon="9.13469219480553"><ele>630.0</ele><time>2026-03-29T15:57:38.999Z</time></trkpt><trkpt lat="44.65123142633396" lon="9.134739163391869"><ele>630.0</ele><time>2026-03-29T15:57:39.999Z</time></trkpt><trkpt lat="44.65131736347629" lon="9.134833124219178"><ele>627.6</ele><time>2026-03-29T15:57:40.999Z</time></trkpt><trkpt lat="44.6514123989059" lon="9.13489627871825"><ele>625.2</ele><time>2026-03-29T15:57:41.999Z</time></trkpt><trkpt lat="44.65149604285355" lon="9.134996601711839"><ele>622.8</ele><time>2026-03-29T15:57:42.999Z</time></trkpt><trkpt lat="44.65157346673193" lon="9.13511128199156"><ele>620.4</ele><time>2026-03-29T15:57:43.999Z</time></trkpt><trkpt lat="44.65164170967632" lon="9.135241071154315"><ele>618.0</ele><time>2026-03-29T15:57:44.999Z</time></trkpt><trkpt lat="44.651695797968735" lon="9.135387161497944"><ele>618.0</ele><time>2026-03-29T15:57:45.999Z</time></trkpt><trkpt lat="44.651745163099285" lon="9.135526671271329"><ele>618.0</ele><time>2026-03-29T15:57:46.999Z</time></trkpt><trkpt lat="44.651779618134036" lon="9.135680449405648"><ele>618.0</ele><time>2026-03-29T15:57:47.999Z</time></trkpt><trkpt lat="44.65180649169216" lon="9.135816847040049"><ele>618.0</ele><time>2026-03-29T15:57:48.999Z</time></trkpt><trkpt lat="44.651823607830515" lon="9.13594345240185"><ele>618.0</ele><time>2026-03-29T15:57:49.999Z</time></trkpt><trkpt lat="44.65182111244499" lon="9.136055842077596"><ele>618.1666666666666</ele><time>2026-03-29T15:57:50.999Z</time></trkpt><trkpt lat="44.65181936187944" lon="9.136168636281552"><ele>618.3333333333334</ele><time>2026-03-29T15:57:51.999Z</time></trkpt><trkpt lat="44.65183816353475" lon="9.136271277563184"><ele>618.5</ele><time>2026-03-29T15:57:52.999Z</time></trkpt><trkpt lat="44.6518819100843" lon="9.13635930100821"><ele>618.6666666666667</ele><time>2026-03-29T15:57:53.999Z</time></trkpt><trkpt lat="44.651954625625166" lon="9.136424096655746"><ele>618.8333333333334</ele><time>2026-03-29T15:57:54.999Z</time></trkpt><trkpt lat="44.65203687243523" lon="9.136484462328069"><ele>619.0</ele><time>2026-03-29T15:57:55.999Z</time></trkpt><trkpt lat="44.65211623264727" lon="9.136550867890826"><ele>613.3333333333334</ele><time>2026-03-29T15:57:56.999Z</time></trkpt><trkpt lat="44.65218239885514" lon="9.136627158305263"><ele>607.6666666666667</ele><time>2026-03-29T15:57:57.999Z</time></trkpt><trkpt lat="44.65223881313369" lon="9.13669487087689"><ele>602.0</ele><time>2026-03-29T15:57:58.999Z</time></trkpt><trkpt lat="44.65230387175708" lon="9.136737964946064"><ele>596.3333333333334</ele><time>2026-03-29T15:57:59.999Z</time></trkpt><trkpt lat="44.65237676098015" lon="9.13675063984815"><ele>590.6666666666666</ele><time>2026-03-29T15:58:00.999Z</time></trkpt><trkpt lat="44.6524573093664" lon="9.136721001298362"><ele>585.0</ele><time>2026-03-29T15:58:01.999Z</time></trkpt><trkpt lat="44.65254413068311" lon="9.136670637627175"><ele>585.0</ele><time>2026-03-29T15:58:02.999Z</time></trkpt><trkpt lat="44.652636750884085" lon="9.136602003669374"><ele>585.0</ele><time>2026-03-29T15:58:03.999Z</time></trkpt><trkpt lat="44.65272813760964" lon="9.136529337976468"><ele>585.0</ele><time>2026-03-29T15:58:04.999Z</time></trkpt><trkpt lat="44.65281982370018" lon="9.136442744629344"><ele>585.0</ele><time>2026-03-29T15:58:05.999Z</time></trkpt><trkpt lat="44.65290736822421" lon="9.13634404457623"><ele>585.0</ele><time>2026-03-29T15:58:06.999Z</time></trkpt><trkpt lat="44.652990975546714" lon="9.136231681257023"><ele>585.25</ele><time>2026-03-29T15:58:07.999Z</time></trkpt><trkpt lat="44.6530871267344" lon="9.136123630584754"><ele>585.5</ele><time>2026-03-29T15:58:08.999Z</time></trkpt><trkpt lat="44.65316481731495" lon="9.135992949227193"><ele>585.75</ele><time>2026-03-29T15:58:09.999Z</time></trkpt><trkpt lat="44.65323613148165" lon="9.135862200209447"><ele>586.0</ele><time>2026-03-29T15:58:10.999Z</time></trkpt><trkpt lat="44.65330509364134" lon="9.135721851801367"><ele>585.5</ele><time>2026-03-29T15:58:11.999Z</time></trkpt><trkpt lat="44.65337630590812" lon="9.135588836563826"><ele>585.0</ele><time>2026-03-29T15:58:12.999Z</time></trkpt><trkpt lat="44.65346055294101" lon="9.13547467721997"><ele>584.5</ele><time>2026-03-29T15:58:13.999Z</time></trkpt><trkpt lat="44.65355160177078" lon="9.135372423743988"><ele>584.0</ele><time>2026-03-29T15:58:14.999Z</time></trkpt><trkpt lat="44.65362255168832" lon="9.135264495215903"><ele>584.0</ele><time>2026-03-29T15:58:15.999Z</time></trkpt><trkpt lat="44.65367541589211" lon="9.135149868857955"><ele>584.0</ele><time>2026-03-29T15:58:16.999Z</time></trkpt><trkpt lat="44.65372367915455" lon="9.135045086199339"><ele>584.0</ele><time>2026-03-29T15:58:17.999Z</time></trkpt><trkpt lat="44.65377669311182" lon="9.134953045882822"><ele>584.0</ele><time>2026-03-29T15:58:18.999Z</time></trkpt><trkpt lat="44.653845333505444" lon="9.13489932489166"><ele>584.0</ele><time>2026-03-29T15:58:19.999Z</time></trkpt><trkpt lat="44.653928542372405" lon="9.134864889040573"><ele>584.0</ele><time>2026-03-29T15:58:20.999Z</time></trkpt><trkpt lat="44.65402678247861" lon="9.134851803193875"><ele>592.6</ele><time>2026-03-29T15:58:21.999Z</time></trkpt><trkpt lat="44.654123846827815" lon="9.134838375499625"><ele>601.2</ele><time>2026-03-29T15:58:22.999Z</time></trkpt><trkpt lat="44.65421684851111" lon="9.134798076364476"><ele>609.8000000000001</ele><time>2026-03-29T15:58:23.999Z</time></trkpt><trkpt lat="44.65429618515469" lon="9.134715477167223"><ele>618.4</ele><time>2026-03-29T15:58:24.999Z</time></trkpt><trkpt lat="44.65435593488242" lon="9.134616374255057"><ele>627.0</ele><time>2026-03-29T15:58:25.999Z</time></trkpt><trkpt lat="44.65442568912074" lon="9.134527353755777"><ele>622.6</ele><time>2026-03-29T15:58:26.999Z</time></trkpt><trkpt lat="44.65450978164656" lon="9.134467077030756"><ele>618.2</ele><time>2026-03-29T15:58:27.999Z</time></trkpt><trkpt lat="44.65460179336612" lon="9.13441863518646"><ele>613.8</ele><time>2026-03-29T15:58:28.999Z</time></trkpt><trkpt lat="44.65470130777354" lon="9.134395731431985"><ele>609.4</ele><time>2026-03-29T15:58:29.999Z</time></trkpt><trkpt lat="44.65480585704006" lon="9.134375992868923"><ele>605.0</ele><time>2026-03-29T15:58:30.999Z</time></trkpt><trkpt lat="44.65491447800862" lon="9.134362802026052"><ele>605.0</ele><time>2026-03-29T15:58:31.999Z</time></trkpt><trkpt lat="44.655014691699954" lon="9.134357645400923"><ele>605.0</ele><time>2026-03-29T15:58:32.999Z</time></trkpt><trkpt lat="44.65511803679546" lon="9.134330781980504"><ele>605.0</ele><time>2026-03-29T15:58:33.999Z</time></trkpt><trkpt lat="44.65521811440778" lon="9.134277745146349"><ele>605.0</ele><time>2026-03-29T15:58:34.999Z</time></trkpt><trkpt lat="44.65531558663358" lon="9.134200282306905"><ele>605.0</ele><time>2026-03-29T15:58:35.999Z</time></trkpt><trkpt lat="44.65541166168584" lon="9.134113555692883"><ele>608.5</ele><time>2026-03-29T15:58:36.999Z</time></trkpt><trkpt lat="44.655510507006724" lon="9.134024940855275"><ele>612.0</ele><time>2026-03-29T15:58:37.999Z</time></trkpt><trkpt lat="44.655611512672024" lon="9.133939151605837"><ele>615.5</ele><time>2026-03-29T15:58:38.999Z</time></trkpt><trkpt lat="44.65571877444109" lon="9.13384975211035"><ele>619.0</ele><time>2026-03-29T15:58:39.999Z</time></trkpt><trkpt lat="44.65582919492297" lon="9.133756824999828"><ele>619.0</ele><time>2026-03-29T15:58:40.999Z</time></trkpt><trkpt lat="44.65593879638702" lon="9.133658300649387"><ele>619.0</ele><time>2026-03-29T15:58:41.999Z</time></trkpt><trkpt lat="44.65603706354" lon="9.133552906571433"><ele>619.0</ele><time>2026-03-29T15:58:42.999Z</time></trkpt><trkpt lat="44.65612892091818" lon="9.133441770413246"><ele>619.0</ele><time>2026-03-29T15:58:43.999Z</time></trkpt><trkpt lat="44.65623135855219" lon="9.133340967742535"><ele>620.5</ele><time>2026-03-29T15:58:44.999Z</time></trkpt><trkpt lat="44.65634996101878" lon="9.133258881171411"><ele>622.0</ele><time>2026-03-29T15:58:45.999Z</time></trkpt><trkpt lat="44.65646491682611" lon="9.133186136290728"><ele>623.5</ele><time>2026-03-29T15:58:46.999Z</time></trkpt><trkpt lat="44.656575784727295" lon="9.133107834416844"><ele>625.0</ele><time>2026-03-29T15:58:47.999Z</time></trkpt><trkpt lat="44.65667347618033" lon="9.133029329060411"><ele>625.0</ele><time>2026-03-29T15:58:48.999Z</time></trkpt><trkpt lat="44.65676684215223" lon="9.132971546473394"><ele>625.0</ele><time>2026-03-29T15:58:49.999Z</time></trkpt><trkpt lat="44.656861842802705" lon="9.132946218758988"><ele>625.0</ele><time>2026-03-29T15:58:50.999Z</time></trkpt><trkpt lat="44.65695291343914" lon="9.132938635881755"><ele>625.0</ele><time>2026-03-29T15:58:51.999Z</time></trkpt><trkpt lat="44.657040120942554" lon="9.132915365389827"><ele>625.0</ele><time>2026-03-29T15:58:52.999Z</time></trkpt><trkpt lat="44.65712432015206" lon="9.132850328644038"><ele>618.4</ele><time>2026-03-29T15:58:53.999Z</time></trkpt><trkpt lat="44.657205262371725" lon="9.132781567071794"><ele>611.8</ele><time>2026-03-29T15:58:54.999Z</time></trkpt><trkpt lat="44.65727000084456" lon="9.132679166100875"><ele>605.2</ele><time>2026-03-29T15:58:55.999Z</time></trkpt><trkpt lat="44.657331552322624" lon="9.13258463110951"><ele>598.6</ele><time>2026-03-29T15:58:56.999Z</time></trkpt><trkpt lat="44.65739683564992" lon="9.132498382904052"><ele>592.0</ele><time>2026-03-29T15:58:57.999Z</time></trkpt><trkpt lat="44.65747341474647" lon="9.132417163352487"><ele>596.2</ele><time>2026-03-29T15:58:58.999Z</time></trkpt><trkpt lat="44.657565154938425" lon="9.132346221490275"><ele>600.4000000000001</ele><time>2026-03-29T15:58:59.998Z</time></trkpt><trkpt lat="44.657655521612355" lon="9.132271794152457"><ele>604.5999999999999</ele><time>2026-03-29T15:59:00.998Z</time></trkpt><trkpt lat="44.65773173169229" lon="9.132185895704561"><ele>608.8</ele><time>2026-03-29T15:59:01.998Z</time></trkpt><trkpt lat="44.657798885528784" lon="9.132103626047222"><ele>613.0</ele><time>2026-03-29T15:59:02.998Z</time></trkpt><trkpt lat="44.65787312087525" lon="9.132036413434708"><ele>613.0</ele><time>2026-03-29T15:59:03.998Z</time></trkpt><trkpt lat="44.65796538952872" lon="9.131995766477715"><ele>613.0</ele><time>2026-03-29T15:59:04.998Z</time></trkpt><trkpt lat="44.658071709606716" lon="9.131986445000582"><ele>613.0</ele><time>2026-03-29T15:59:05.998Z</time></trkpt><trkpt lat="44.65818494828741" lon="9.132004860739052"><ele>613.0</ele><time>2026-03-29T15:59:06.998Z</time></trkpt><trkpt lat="44.65830617944273" lon="9.132041570078455"><ele>613.0</ele><time>2026-03-29T15:59:07.998Z</time></trkpt><trkpt lat="44.65843102255806" lon="9.132060654602487"><ele>613.0</ele><time>2026-03-29T15:59:08.998Z</time></trkpt><trkpt lat="44.6585651767385" lon="9.132081182635531"><ele>613.0</ele><time>2026-03-29T15:59:09.998Z</time></trkpt><trkpt lat="44.658701747913646" lon="9.13210299567732"><ele>613.0</ele><time>2026-03-29T15:59:10.998Z</time></trkpt><trkpt lat="44.65883297965202" lon="9.13213500294353"><ele>613.0</ele><time>2026-03-29T15:59:11.998Z</time></trkpt><trkpt lat="44.65895036286069" lon="9.132183787897919"><ele>613.5</ele><time>2026-03-29T15:59:12.998Z</time></trkpt><trkpt lat="44.659063057877695" lon="9.132237444574264"><ele>614.0</ele><time>2026-03-29T15:59:13.998Z</time></trkpt><trkpt lat="44.659166879472124" lon="9.132297405329869"><ele>614.5</ele><time>2026-03-29T15:59:14.998Z</time></trkpt><trkpt lat="44.6592608085009" lon="9.132383257111316"><ele>615.0</ele><time>2026-03-29T15:59:15.998Z</time></trkpt><trkpt lat="44.65933890565032" lon="9.132503627453925"><ele>607.0</ele><time>2026-03-29T15:59:16.998Z</time></trkpt><trkpt lat="44.659408409063005" lon="9.132628799648959"><ele>599.0</ele><time>2026-03-29T15:59:17.998Z</time></trkpt><trkpt lat="44.65945677170629" lon="9.13274842450737"><ele>591.0</ele><time>2026-03-29T15:59:18.998Z</time></trkpt><trkpt lat="44.65949804271998" lon="9.132874321821753"><ele>583.0</ele><time>2026-03-29T15:59:19.998Z</time></trkpt><trkpt lat="44.65952965713997" lon="9.132998289151688"><ele>575.0</ele><time>2026-03-29T15:59:20.998Z</time></trkpt><trkpt lat="44.65955746820618" lon="9.133112133761346"><ele>574.6666666666666</ele><time>2026-03-29T15:59:21.998Z</time></trkpt><trkpt lat="44.659599200207374" lon="9.133199246522327"><ele>574.3333333333333</ele><time>2026-03-29T15:59:22.998Z</time></trkpt><trkpt lat="44.659661306024034" lon="9.133240416261787"><ele>574.0</ele><time>2026-03-29T15:59:23.998Z</time></trkpt><trkpt lat="44.65973863124737" lon="9.13323314762359"><ele>573.6666666666666</ele><time>2026-03-29T15:59:24.998Z</time></trkpt><trkpt lat="44.65982243814318" lon="9.133177478850461"><ele>573.3333333333334</ele><time>2026-03-29T15:59:25.998Z</time></trkpt><trkpt lat="44.65987878287678" lon="9.133075029152398"><ele>573.0</ele><time>2026-03-29T15:59:26.998Z</time></trkpt><trkpt lat="44.65992332631137" lon="9.1329646404672"><ele>573.0</ele><time>2026-03-29T15:59:27.998Z</time></trkpt><trkpt lat="44.65996431082276" lon="9.13285081525237"><ele>573.0</ele><time>2026-03-29T15:59:28.998Z</time></trkpt><trkpt lat="44.66000048900648" lon="9.132728134380384"><ele>573.0</ele><time>2026-03-29T15:59:29.998Z</time></trkpt><trkpt lat="44.66002703267059" lon="9.132603820067782"><ele>573.0</ele><time>2026-03-29T15:59:30.998Z</time></trkpt><trkpt lat="44.66003225865207" lon="9.132475231440484"><ele>573.0</ele><time>2026-03-29T15:59:31.998Z</time></trkpt><trkpt lat="44.66003148609627" lon="9.132343389475073"><ele>574.4</ele><time>2026-03-29T15:59:32.998Z</time></trkpt><trkpt lat="44.660036803272014" lon="9.13221793453123"><ele>575.8</ele><time>2026-03-29T15:59:33.998Z</time></trkpt><trkpt lat="44.660043515657236" lon="9.132087472769053"><ele>577.2</ele><time>2026-03-29T15:59:34.998Z</time></trkpt><trkpt lat="44.66006073844566" lon="9.131962614102765"><ele>578.6</ele><time>2026-03-29T15:59:35.998Z</time></trkpt><trkpt lat="44.66012231391431" lon="9.131861065321404"><ele>580.0</ele><time>2026-03-29T15:59:36.998Z</time></trkpt><trkpt lat="44.660164392811794" lon="9.131741169882538"><ele>580.0</ele><time>2026-03-29T15:59:37.998Z</time></trkpt><trkpt lat="44.66017633721969" lon="9.131592414726619"><ele>580.0</ele><time>2026-03-29T15:59:38.999Z</time></trkpt><trkpt lat="44.66021389101156" lon="9.131456092338707"><ele>580.0</ele><time>2026-03-29T15:59:40Z</time></trkpt><trkpt lat="44.66028729477772" lon="9.131353137858538"><ele>580.0</ele><time>2026-03-29T15:59:40.999Z</time></trkpt><trkpt lat="44.660344031057164" lon="9.131232956552331"><ele>580.0</ele><time>2026-03-29T15:59:41.999Z</time></trkpt><trkpt lat="44.66040645200491" lon="9.131127862062435"><ele>574.0</ele><time>2026-03-29T15:59:43Z</time></trkpt><trkpt lat="44.66045167729465" lon="9.131016648017809"><ele>568.0</ele><time>2026-03-29T15:59:43.999Z</time></trkpt><trkpt lat="44.660478811683895" lon="9.130916976973936"><ele>562.0</ele><time>2026-03-29T15:59:44.999Z</time></trkpt><trkpt lat="44.66048307364955" lon="9.130819126881208"><ele>556.0</ele><time>2026-03-29T15:59:46Z</time></trkpt><trkpt lat="44.660459728687094" lon="9.130715632745385"><ele>550.0</ele><time>2026-03-29T15:59:46.999Z</time></trkpt><trkpt lat="44.660411501458896" lon="9.130623124951693"><ele>544.0</ele><time>2026-03-29T15:59:48Z</time></trkpt><trkpt lat="44.6603683101493" lon="9.130513913593838"><ele>543.1666666666667</ele><time>2026-03-29T15:59:49Z</time></trkpt><trkpt lat="44.660324902171915" lon="9.130413032120824"><ele>542.3333333333334</ele><time>2026-03-29T15:59:50Z</time></trkpt><trkpt lat="44.660296009094445" lon="9.130317086098994"><ele>541.5</ele><time>2026-03-29T15:59:51Z</time></trkpt><trkpt lat="44.660301710937695" lon="9.130200621469966"><ele>540.6666666666666</ele><time>2026-03-29T15:59:52Z</time></trkpt><trkpt lat="44.66030190289978" lon="9.130097658939357"><ele>539.8333333333333</ele><time>2026-03-29T15:59:53Z</time></trkpt><trkpt lat="44.66027866149038" lon="9.129992710002586"><ele>539.0</ele><time>2026-03-29T15:59:53.999Z</time></trkpt><trkpt lat="44.66022454101619" lon="9.129895795357326"><ele>543.4</ele><time>2026-03-29T15:59:54.999Z</time></trkpt><trkpt lat="44.660154997221646" lon="9.129802218187592"><ele>547.8</ele><time>2026-03-29T15:59:55.999Z</time></trkpt><trkpt lat="44.66009063600301" lon="9.129696425272048"><ele>552.2</ele><time>2026-03-29T15:59:56.999Z</time></trkpt><trkpt lat="44.66004170697007" lon="9.129573712084769"><ele>556.6</ele><time>2026-03-29T15:59:57.999Z</time></trkpt><trkpt lat="44.660030180568555" lon="9.12944191690274"><ele>561.0</ele><time>2026-03-29T15:59:58.999Z</time></trkpt><trkpt lat="44.66000374478442" lon="9.129326766079664"><ele>561.0</ele><time>2026-03-29T15:59:59.999Z</time></trkpt><trkpt lat="44.66002020300472" lon="9.129219937933401"><ele>561.0</ele><time>2026-03-29T16:00:00.999Z</time></trkpt><trkpt lat="44.66006275579153" lon="9.129128259618671"><ele>561.0</ele><time>2026-03-29T16:00:01.999Z</time></trkpt><trkpt lat="44.66009616038545" lon="9.1290145280146"><ele>561.0</ele><time>2026-03-29T16:00:02.999Z</time></trkpt><trkpt lat="44.660152992136354" lon="9.128919890002956"><ele>561.0</ele><time>2026-03-29T16:00:03.999Z</time></trkpt><trkpt lat="44.66022580079869" lon="9.128835597226105"><ele>561.0</ele><time>2026-03-29T16:00:04.999Z</time></trkpt><trkpt lat="44.66031620054345" lon="9.128768073627882"><ele>556.4</ele><time>2026-03-29T16:00:05.999Z</time></trkpt><trkpt lat="44.66041171660697" lon="9.128711505256339"><ele>551.8</ele><time>2026-03-29T16:00:06.999Z</time></trkpt><trkpt lat="44.660520892365966" lon="9.128725672525306"><ele>547.1999999999999</ele><time>2026-03-29T16:00:07.999Z</time></trkpt><trkpt lat="44.66063109935237" lon="9.128706530105664"><ele>542.6</ele><time>2026-03-29T16:00:08.999Z</time></trkpt><trkpt lat="44.66073536256227" lon="9.128665081141914"><ele>538.0</ele><time>2026-03-29T16:00:09.999Z</time></trkpt><trkpt lat="44.66084657475108" lon="9.1286594150419"><ele>538.0</ele><time>2026-03-29T16:00:10.999Z</time></trkpt><trkpt lat="44.660953945974434" lon="9.128638408863841"><ele>538.0</ele><time>2026-03-29T16:00:11.999Z</time></trkpt><trkpt lat="44.66105156247118" lon="9.128620334444774"><ele>538.0</ele><time>2026-03-29T16:00:12.999Z</time></trkpt><trkpt lat="44.66113954393934" lon="9.128621999748121"><ele>538.0</ele><time>2026-03-29T16:00:13.999Z</time></trkpt><trkpt lat="44.661222486693966" lon="9.128589734775888"><ele>538.0</ele><time>2026-03-29T16:00:14.999Z</time></trkpt><trkpt lat="44.66129757187343" lon="9.128530074583848"><ele>546.4</ele><time>2026-03-29T16:00:15.999Z</time></trkpt><trkpt lat="44.66133388097756" lon="9.128384311049238"><ele>554.8</ele><time>2026-03-29T16:00:16.999Z</time></trkpt><trkpt lat="44.66133554267785" lon="9.12824581045904"><ele>563.2</ele><time>2026-03-29T16:00:17.999Z</time></trkpt><trkpt lat="44.66134372817959" lon="9.128108230858762"><ele>571.6</ele><time>2026-03-29T16:00:18.999Z</time></trkpt><trkpt lat="44.6613403951794" lon="9.127955817011138"><ele>580.0</ele><time>2026-03-29T16:00:19.999Z</time></trkpt><trkpt lat="44.6613371656385" lon="9.127789894674791"><ele>580.0</ele><time>2026-03-29T16:00:20.999Z</time></trkpt><trkpt lat="44.66136538157583" lon="9.127609523000494"><ele>580.0</ele><time>2026-03-29T16:00:21.999Z</time></trkpt><trkpt lat="44.66135072594557" lon="9.127402581797961"><ele>580.0</ele><time>2026-03-29T16:00:22.999Z</time></trkpt><trkpt lat="44.661338218036065" lon="9.12718590827438"><ele>580.0</ele><time>2026-03-29T16:00:23.999Z</time></trkpt><trkpt lat="44.66134030155013" lon="9.126987123660388"><ele>580.25</ele><time>2026-03-29T16:00:24.999Z</time></trkpt><trkpt lat="44.661364572612065" lon="9.126782593188265"><ele>580.5</ele><time>2026-03-29T16:00:25.999Z</time></trkpt><trkpt lat="44.66137951268023" lon="9.126587245366803"><ele>580.75</ele><time>2026-03-29T16:00:26.999Z</time></trkpt><trkpt lat="44.66139482005709" lon="9.126385453066964"><ele>581.0</ele><time>2026-03-29T16:00:27.999Z</time></trkpt><trkpt lat="44.66141152287014" lon="9.126194681991045"><ele>579.0</ele><time>2026-03-29T16:00:28.999Z</time></trkpt><trkpt lat="44.661438575826025" lon="9.126014380490581"><ele>577.0</ele><time>2026-03-29T16:00:29.999Z</time></trkpt><trkpt lat="44.6614696033518" lon="9.125835808201545"><ele>575.0</ele><time>2026-03-29T16:00:30.999Z</time></trkpt><trkpt lat="44.66149724698872" lon="9.125667192343093"><ele>573.0</ele><time>2026-03-29T16:00:31.999Z</time></trkpt><trkpt lat="44.661527045612985" lon="9.12551461230374"><ele>571.6666666666666</ele><time>2026-03-29T16:00:32.999Z</time></trkpt><trkpt lat="44.661548589612245" lon="9.12538112076728"><ele>570.3333333333334</ele><time>2026-03-29T16:00:33.999Z</time></trkpt><trkpt lat="44.661571912855955" lon="9.125265908511295"><ele>569.0</ele><time>2026-03-29T16:00:34.999Z</time></trkpt><trkpt lat="44.66160032281264" lon="9.125172372684348"><ele>567.6666666666667</ele><time>2026-03-29T16:00:35.999Z</time></trkpt><trkpt lat="44.661635764354564" lon="9.12509540725529"><ele>566.3333333333334</ele><time>2026-03-29T16:00:36.999Z</time></trkpt><trkpt lat="44.661712404232354" lon="9.125003951369473"><ele>565.0</ele><time>2026-03-29T16:00:38.999Z</time></trkpt><trkpt lat="44.66178879493415" lon="9.124976637088622"><ele>565.0</ele><time>2026-03-29T16:00:41.999Z</time></trkpt><trkpt lat="44.661893457024256" lon="9.124957584647444"><ele>565.0</ele><time>2026-03-29T16:00:43.999Z</time></trkpt><trkpt lat="44.661929570909415" lon="9.124834486550604"><ele>565.0</ele><time>2026-03-29T16:00:44.999Z</time></trkpt><trkpt lat="44.66194634382251" lon="9.12474109906999"><ele>565.0</ele><time>2026-03-29T16:00:45.999Z</time></trkpt><trkpt lat="44.6619441096408" lon="9.124634227769999"><ele>565.0</ele><time>2026-03-29T16:00:46.999Z</time></trkpt><trkpt lat="44.66185997772397" lon="9.124537073322005"><ele>567.75</ele><time>2026-03-29T16:00:47.999Z</time></trkpt><trkpt lat="44.661774034684775" lon="9.124440631654657"><ele>570.5</ele><time>2026-03-29T16:00:48.999Z</time></trkpt><trkpt lat="44.66168243400348" lon="9.124329485052622"><ele>573.25</ele><time>2026-03-29T16:00:49.999Z</time></trkpt><trkpt lat="44.66161942794485" lon="9.124180346042266"><ele>576.0</ele><time>2026-03-29T16:00:50.999Z</time></trkpt><trkpt lat="44.66155648497661" lon="9.124026242986488"><ele>577.8</ele><time>2026-03-29T16:00:51.999Z</time></trkpt><trkpt lat="44.661485017828554" lon="9.123916018395997"><ele>579.6</ele><time>2026-03-29T16:00:52.999Z</time></trkpt><trkpt lat="44.66143007866058" lon="9.123798293966042"><ele>581.4</ele><time>2026-03-29T16:00:53.999Z</time></trkpt><trkpt lat="44.66138896035591" lon="9.123659061788874"><ele>583.2</ele><time>2026-03-29T16:00:54.999Z</time></trkpt><trkpt lat="44.661406146414045" lon="9.123507521014936"><ele>585.0</ele><time>2026-03-29T16:00:55.999Z</time></trkpt><trkpt lat="44.66140025862534" lon="9.123376852976737"><ele>585.0</ele><time>2026-03-29T16:00:56.999Z</time></trkpt><trkpt lat="44.66144115456364" lon="9.123267592793624"><ele>585.0</ele><time>2026-03-29T16:00:57.999Z</time></trkpt><trkpt lat="44.66151855135827" lon="9.123194338386934"><ele>585.0</ele><time>2026-03-29T16:00:58.999Z</time></trkpt><trkpt lat="44.661575031876794" lon="9.123101465652825"><ele>585.0</ele><time>2026-03-29T16:00:59.999Z</time></trkpt><trkpt lat="44.66163584680957" lon="9.123029151368053"><ele>585.0</ele><time>2026-03-29T16:01:00.999Z</time></trkpt><trkpt lat="44.66166542560517" lon="9.122934808734488"><ele>585.0</ele><time>2026-03-29T16:01:01.999Z</time></trkpt><trkpt lat="44.66167086454268" lon="9.122828104567237"><ele>584.4</ele><time>2026-03-29T16:01:02.999Z</time></trkpt><trkpt lat="44.661607665182245" lon="9.122709471854225"><ele>583.8</ele><time>2026-03-29T16:01:03.999Z</time></trkpt><trkpt lat="44.6615080177373" lon="9.122624780097649"><ele>583.2</ele><time>2026-03-29T16:01:04.999Z</time></trkpt><trkpt lat="44.66144833242399" lon="9.122508713099316"><ele>582.6</ele><time>2026-03-29T16:01:05.998Z</time></trkpt><trkpt lat="44.66141816793434" lon="9.122390905450828"><ele>582.0</ele><time>2026-03-29T16:01:06.998Z</time></trkpt><trkpt lat="44.661441454298156" lon="9.122241794369748"><ele>583.5</ele><time>2026-03-29T16:01:07.998Z</time></trkpt><trkpt lat="44.66145678522017" lon="9.122071166284375"><ele>585.0</ele><time>2026-03-29T16:01:08.998Z</time></trkpt><trkpt lat="44.66147906319177" lon="9.121914120886132"><ele>586.5</ele><time>2026-03-29T16:01:09.998Z</time></trkpt><trkpt lat="44.66148759895041" lon="9.121723297258121"><ele>588.0</ele><time>2026-03-29T16:01:10.998Z</time></trkpt><trkpt lat="44.66150074623758" lon="9.121517979390447"><ele>588.6666666666666</ele><time>2026-03-29T16:01:11.998Z</time></trkpt><trkpt lat="44.661464626649824" lon="9.12130017247185"><ele>589.3333333333333</ele><time>2026-03-29T16:01:12.998Z</time></trkpt><trkpt lat="44.66145067130807" lon="9.121079905783688"><ele>590.0</ele><time>2026-03-29T16:01:13.998Z</time></trkpt><trkpt lat="44.661456990657214" lon="9.120867377200506"><ele>589.5</ele><time>2026-03-29T16:01:14.998Z</time></trkpt><trkpt lat="44.66144325331227" lon="9.120654976417871"><ele>589.0</ele><time>2026-03-29T16:01:15.998Z</time></trkpt><trkpt lat="44.66140730537924" lon="9.120457388511147"><ele>588.5</ele><time>2026-03-29T16:01:16.998Z</time></trkpt><trkpt lat="44.6613922274999" lon="9.120264265313608"><ele>588.0</ele><time>2026-03-29T16:01:17.998Z</time></trkpt><trkpt lat="44.66137583614717" lon="9.12007299500359"><ele>585.0</ele><time>2026-03-29T16:01:18.998Z</time></trkpt><trkpt lat="44.66136301848904" lon="9.119889100726128"><ele>582.0</ele><time>2026-03-29T16:01:19.998Z</time></trkpt><trkpt lat="44.66136474239548" lon="9.119714043641386"><ele>579.0</ele><time>2026-03-29T16:01:20.998Z</time></trkpt><trkpt lat="44.6613796999791" lon="9.119551083785082"><ele>576.0</ele><time>2026-03-29T16:01:21.998Z</time></trkpt><trkpt lat="44.66140807942966" lon="9.119384475529035"><ele>576.0</ele><time>2026-03-29T16:01:22.998Z</time></trkpt><trkpt lat="44.66144649813633" lon="9.119218089539322"><ele>576.0</ele><time>2026-03-29T16:01:23.998Z</time></trkpt><trkpt lat="44.66151915701144" lon="9.11905752223827"><ele>576.0</ele><time>2026-03-29T16:01:24.998Z</time></trkpt><trkpt lat="44.66157043443181" lon="9.118882455769748"><ele>576.0</ele><time>2026-03-29T16:01:25.998Z</time></trkpt><trkpt lat="44.66164043269275" lon="9.118713646626734"><ele>573.0</ele><time>2026-03-29T16:01:26.998Z</time></trkpt><trkpt lat="44.661681388539336" lon="9.118529579080267"><ele>570.0</ele><time>2026-03-29T16:01:27.998Z</time></trkpt><trkpt lat="44.66171384240431" lon="9.118332905343316"><ele>567.0</ele><time>2026-03-29T16:01:28.998Z</time></trkpt><trkpt lat="44.6617586500911" lon="9.118154973009023"><ele>564.0</ele><time>2026-03-29T16:01:29.998Z</time></trkpt><trkpt lat="44.661831930598915" lon="9.118012510635594"><ele>560.75</ele><time>2026-03-29T16:01:30.998Z</time></trkpt><trkpt lat="44.661897678566305" lon="9.117857401369964"><ele>557.5</ele><time>2026-03-29T16:01:31.998Z</time></trkpt><trkpt lat="44.66192082703842" lon="9.117670846155704"><ele>554.25</ele><time>2026-03-29T16:01:32.998Z</time></trkpt><trkpt lat="44.66191974785339" lon="9.117466954951453"><ele>551.0</ele><time>2026-03-29T16:01:33.998Z</time></trkpt><trkpt lat="44.661914018845266" lon="9.11726579968189"><ele>549.25</ele><time>2026-03-29T16:01:34.998Z</time></trkpt><trkpt lat="44.6619302153584" lon="9.117066627201126"><ele>547.5</ele><time>2026-03-29T16:01:35.998Z</time></trkpt><trkpt lat="44.66191776050157" lon="9.116878326955048"><ele>545.75</ele><time>2026-03-29T16:01:36.998Z</time></trkpt><trkpt lat="44.66191976805396" lon="9.116704619512824"><ele>544.0</ele><time>2026-03-29T16:01:37.998Z</time></trkpt><trkpt lat="44.6619152594307" lon="9.116547579251085"><ele>543.8</ele><time>2026-03-29T16:01:38.998Z</time></trkpt><trkpt lat="44.66190746592746" lon="9.116397768443486"><ele>543.5999999999999</ele><time>2026-03-29T16:01:39.998Z</time></trkpt><trkpt lat="44.661907247459304" lon="9.116260151305509"><ele>543.4</ele><time>2026-03-29T16:01:40.998Z</time></trkpt><trkpt lat="44.66192497425148" lon="9.116127577023189"><ele>543.1999999999999</ele><time>2026-03-29T16:01:41.998Z</time></trkpt><trkpt lat="44.66196928917471" lon="9.115987653073505"><ele>543.0</ele><time>2026-03-29T16:01:42.998Z</time></trkpt><trkpt lat="44.66202301228599" lon="9.11585191014674"><ele>548.0</ele><time>2026-03-29T16:01:43.998Z</time></trkpt><trkpt lat="44.662072089302036" lon="9.11573656715207"><ele>553.0</ele><time>2026-03-29T16:01:44.999Z</time></trkpt><trkpt lat="44.66213824298785" lon="9.115655280864202"><ele>558.0</ele><time>2026-03-29T16:01:45.999Z</time></trkpt><trkpt lat="44.662237544822425" lon="9.115616811395173"><ele>563.0</ele><time>2026-03-29T16:01:46.999Z</time></trkpt><trkpt lat="44.66234411152605" lon="9.115539218157744"><ele>568.0</ele><time>2026-03-29T16:01:47.999Z</time></trkpt><trkpt lat="44.662462746313174" lon="9.115467346973071"><ele>568.0</ele><time>2026-03-29T16:01:48.999Z</time></trkpt><trkpt lat="44.66257890142717" lon="9.115378742384907"><ele>568.0</ele><time>2026-03-29T16:01:49.999Z</time></trkpt><trkpt lat="44.662678845409204" lon="9.115298088489407"><ele>568.0</ele><time>2026-03-29T16:01:50.999Z</time></trkpt><trkpt lat="44.66276191019599" lon="9.11522818720867"><ele>568.0</ele><time>2026-03-29T16:01:51.999Z</time></trkpt><trkpt lat="44.662805395400646" lon="9.115133693814517"><ele>568.0</ele><time>2026-03-29T16:01:52.999Z</time></trkpt><trkpt lat="44.66281322288374" lon="9.115014624591597"><ele>566.1999999999999</ele><time>2026-03-29T16:01:53.999Z</time></trkpt><trkpt lat="44.662781043319015" lon="9.114886704357753"><ele>564.4</ele><time>2026-03-29T16:01:55Z</time></trkpt><trkpt lat="44.662702555799406" lon="9.114784588259646"><ele>562.5999999999999</ele><time>2026-03-29T16:01:55.999Z</time></trkpt><trkpt lat="44.662595324204844" lon="9.114728797421515"><ele>560.8</ele><time>2026-03-29T16:01:57Z</time></trkpt><trkpt lat="44.662499679205425" lon="9.114714053547216"><ele>559.0</ele><time>2026-03-29T16:01:58Z</time></trkpt><trkpt lat="44.66242630208539" lon="9.114677931023394"><ele>559.0</ele><time>2026-03-29T16:01:59Z</time></trkpt><trkpt lat="44.66237381918345" lon="9.11459939801813"><ele>559.0</ele><time>2026-03-29T16:01:59.999Z</time></trkpt><trkpt lat="44.66234567183326" lon="9.114501537161397"><ele>559.0</ele><time>2026-03-29T16:02:00.999Z</time></trkpt><trkpt lat="44.662350455131275" lon="9.114391677129085"><ele>559.0</ele><time>2026-03-29T16:02:01.999Z</time></trkpt><trkpt lat="44.66240375550907" lon="9.114284664210741"><ele>559.0</ele><time>2026-03-29T16:02:02.999Z</time></trkpt><trkpt lat="44.66248777052726" lon="9.11418997541462"><ele>559.0</ele><time>2026-03-29T16:02:03.999Z</time></trkpt><trkpt lat="44.662592542890934" lon="9.114100525816035"><ele>556.5</ele><time>2026-03-29T16:02:04.999Z</time></trkpt><trkpt lat="44.66270496422601" lon="9.114006643573745"><ele>554.0</ele><time>2026-03-29T16:02:05.999Z</time></trkpt><trkpt lat="44.66281848854907" lon="9.113923983483762"><ele>551.5</ele><time>2026-03-29T16:02:06.999Z</time></trkpt><trkpt lat="44.66292576216995" lon="9.113865506443393"><ele>549.0</ele><time>2026-03-29T16:02:07.999Z</time></trkpt><trkpt lat="44.66303106028288" lon="9.113842282078464"><ele>549.0</ele><time>2026-03-29T16:02:08.999Z</time></trkpt><trkpt lat="44.66313484366609" lon="9.11385894532958"><ele>549.0</ele><time>2026-03-29T16:02:09.999Z</time></trkpt><trkpt lat="44.663242564240534" lon="9.113907130993097"><ele>549.0</ele><time>2026-03-29T16:02:10.999Z</time></trkpt><trkpt lat="44.66334448267396" lon="9.113956428198001"><ele>549.0</ele><time>2026-03-29T16:02:11.999Z</time></trkpt><trkpt lat="44.663431969385805" lon="9.113992562593866"><ele>549.0</ele><time>2026-03-29T16:02:12.999Z</time></trkpt><trkpt lat="44.663520760380635" lon="9.113997572436277"><ele>551.6</ele><time>2026-03-29T16:02:13.999Z</time></trkpt><trkpt lat="44.66361527669469" lon="9.113961550457491"><ele>554.2</ele><time>2026-03-29T16:02:14.999Z</time></trkpt><trkpt lat="44.66370256571078" lon="9.113879246608521"><ele>556.8000000000001</ele><time>2026-03-29T16:02:15.999Z</time></trkpt><trkpt lat="44.66377514721193" lon="9.11375642434121"><ele>559.4</ele><time>2026-03-29T16:02:16.999Z</time></trkpt><trkpt lat="44.66385041609428" lon="9.113632943442429"><ele>562.0</ele><time>2026-03-29T16:02:17.999Z</time></trkpt><trkpt lat="44.6639569783737" lon="9.11355437037377"><ele>562.0</ele><time>2026-03-29T16:02:18.999Z</time></trkpt><trkpt lat="44.66407101316538" lon="9.113477774662794"><ele>562.0</ele><time>2026-03-29T16:02:19.999Z</time></trkpt><trkpt lat="44.664184361259466" lon="9.113425010993312"><ele>562.0</ele><time>2026-03-29T16:02:20.999Z</time></trkpt><trkpt lat="44.664299464018214" lon="9.113400788700954"><ele>562.0</ele><time>2026-03-29T16:02:21.999Z</time></trkpt><trkpt lat="44.66440287251483" lon="9.113381336122448"><ele>565.0</ele><time>2026-03-29T16:02:22.999Z</time></trkpt><trkpt lat="44.66449814458715" lon="9.113384547138773"><ele>568.0</ele><time>2026-03-29T16:02:23.999Z</time></trkpt><trkpt lat="44.6645838414535" lon="9.113384828858118"><ele>571.0</ele><time>2026-03-29T16:02:24.999Z</time></trkpt><trkpt lat="44.664661976947535" lon="9.113380492158914"><ele>574.0</ele><time>2026-03-29T16:02:25.999Z</time></trkpt><trkpt lat="44.664720226585224" lon="9.113288098066013"><ele>577.0</ele><time>2026-03-29T16:02:26.999Z</time></trkpt><trkpt lat="44.664763185253" lon="9.113213068876009"><ele>580.0</ele><time>2026-03-29T16:02:27.999Z</time></trkpt><trkpt lat="44.664782562255354" lon="9.113109121380646"><ele>580.0</ele><time>2026-03-29T16:02:28.999Z</time></trkpt><trkpt lat="44.664771933615555" lon="9.11300492457748"><ele>580.0</ele><time>2026-03-29T16:02:29.999Z</time></trkpt><trkpt lat="44.66476684703177" lon="9.112897802210558"><ele>580.0</ele><time>2026-03-29T16:02:30.999Z</time></trkpt><trkpt lat="44.664722085843515" lon="9.112796781818629"><ele>580.0</ele><time>2026-03-29T16:02:31.999Z</time></trkpt><trkpt lat="44.66463797787513" lon="9.11271822147432"><ele>580.0</ele><time>2026-03-29T16:02:32.999Z</time></trkpt><trkpt lat="44.664568986424754" lon="9.112628282661323"><ele>580.0</ele><time>2026-03-29T16:02:33.999Z</time></trkpt><trkpt lat="44.664495611076575" lon="9.11254373846804"><ele>576.1666666666667</ele><time>2026-03-29T16:02:34.999Z</time></trkpt><trkpt lat="44.664426769090646" lon="9.112472049733093"><ele>572.3333333333334</ele><time>2026-03-29T16:02:35.999Z</time></trkpt><trkpt lat="44.664366520957245" lon="9.112393169169595"><ele>568.5</ele><time>2026-03-29T16:02:36.999Z</time></trkpt><trkpt lat="44.66432416063258" lon="9.112308043134625"><ele>564.6666666666666</ele><time>2026-03-29T16:02:37.999Z</time></trkpt><trkpt lat="44.664335602294514" lon="9.11220573247972"><ele>560.8333333333333</ele><time>2026-03-29T16:02:38.999Z</time></trkpt><trkpt lat="44.664350530006274" lon="9.11211388707413"><ele>557.0</ele><time>2026-03-29T16:02:39.999Z</time></trkpt><trkpt lat="44.66441473940662" lon="9.112054854282386"><ele>558.8000000000001</ele><time>2026-03-29T16:02:40.999Z</time></trkpt><trkpt lat="44.66447170873421" lon="9.1119509395555"><ele>560.6</ele><time>2026-03-29T16:02:41.999Z</time></trkpt><trkpt lat="44.664539183301805" lon="9.111848912837718"><ele>562.4000000000001</ele><time>2026-03-29T16:02:42.999Z</time></trkpt><trkpt lat="44.66461117927289" lon="9.11173082255712"><ele>564.2</ele><time>2026-03-29T16:02:43.999Z</time></trkpt><trkpt lat="44.66468935024601" lon="9.111608190917323"><ele>566.0</ele><time>2026-03-29T16:02:44.999Z</time></trkpt><trkpt lat="44.66476718353889" lon="9.111487603623152"><ele>561.4</ele><time>2026-03-29T16:02:45.999Z</time></trkpt><trkpt lat="44.664838729278976" lon="9.111376460282344"><ele>556.8</ele><time>2026-03-29T16:02:46.999Z</time></trkpt><trkpt lat="44.66490716746092" lon="9.1112806956619"><ele>552.1999999999999</ele><time>2026-03-29T16:02:47.999Z</time></trkpt><trkpt lat="44.664987506000664" lon="9.111212597636364"><ele>547.6</ele><time>2026-03-29T16:02:48.999Z</time></trkpt><trkpt lat="44.665091040932495" lon="9.111175370794848"><ele>543.0</ele><time>2026-03-29T16:02:49.999Z</time></trkpt><trkpt lat="44.66519815461167" lon="9.111165772445592"><ele>548.6</ele><time>2026-03-29T16:02:50.999Z</time></trkpt><trkpt lat="44.66529474437871" lon="9.111157981547256"><ele>554.1999999999999</ele><time>2026-03-29T16:02:51.999Z</time></trkpt><trkpt lat="44.66538427272137" lon="9.11111628786639"><ele>559.8</ele><time>2026-03-29T16:02:52.999Z</time></trkpt><trkpt lat="44.66545850229278" lon="9.11104506733262"><ele>565.4</ele><time>2026-03-29T16:02:53.999Z</time></trkpt><trkpt lat="44.66550789319099" lon="9.11094078604548"><ele>571.0</ele><time>2026-03-29T16:02:54.999Z</time></trkpt><trkpt lat="44.665528326279706" lon="9.110801857464683"><ele>567.4</ele><time>2026-03-29T16:02:55.999Z</time></trkpt><trkpt lat="44.6655207305324" lon="9.110650389026826"><ele>563.8</ele><time>2026-03-29T16:02:56.999Z</time></trkpt><trkpt lat="44.665534678775735" lon="9.110499779331198"><ele>560.1999999999999</ele><time>2026-03-29T16:02:57.999Z</time></trkpt><trkpt lat="44.6655788773273" lon="9.110360986434182"><ele>556.6</ele><time>2026-03-29T16:02:58.999Z</time></trkpt><trkpt lat="44.665641414445616" lon="9.110220282224782"><ele>553.0</ele><time>2026-03-29T16:02:59.999Z</time></trkpt><trkpt lat="44.66572095954858" lon="9.11006210951425"><ele>548.75</ele><time>2026-03-29T16:03:00.999Z</time></trkpt><trkpt lat="44.66578725484459" lon="9.109905726873789"><ele>544.5</ele><time>2026-03-29T16:03:01.999Z</time></trkpt><trkpt lat="44.66587208068979" lon="9.109754995497108"><ele>540.25</ele><time>2026-03-29T16:03:02.999Z</time></trkpt><trkpt lat="44.665955810455" lon="9.109597879692283"><ele>536.0</ele><time>2026-03-29T16:03:03.999Z</time></trkpt><trkpt lat="44.666047401770626" lon="9.109446295723027"><ele>539.75</ele><time>2026-03-29T16:03:04.999Z</time></trkpt><trkpt lat="44.66612263120869" lon="9.109273198823708"><ele>543.5</ele><time>2026-03-29T16:03:05.999Z</time></trkpt><trkpt lat="44.666184944049604" lon="9.109095311254503"><ele>547.25</ele><time>2026-03-29T16:03:06.999Z</time></trkpt><trkpt lat="44.66622837381022" lon="9.108907957774171"><ele>551.0</ele><time>2026-03-29T16:03:07.999Z</time></trkpt><trkpt lat="44.666267336311925" lon="9.108725099830888"><ele>551.0</ele><time>2026-03-29T16:03:08.999Z</time></trkpt><trkpt lat="44.666327685368394" lon="9.10857139970578"><ele>551.0</ele><time>2026-03-29T16:03:09.999Z</time></trkpt><trkpt lat="44.66638870427259" lon="9.10842880685913"><ele>551.0</ele><time>2026-03-29T16:03:10.999Z</time></trkpt><trkpt lat="44.66646019084554" lon="9.10830300858157"><ele>551.0</ele><time>2026-03-29T16:03:11.999Z</time></trkpt><trkpt lat="44.666556922153845" lon="9.10821021421363"><ele>551.25</ele><time>2026-03-29T16:03:12.999Z</time></trkpt><trkpt lat="44.66666573483223" lon="9.10811453960227"><ele>551.5</ele><time>2026-03-29T16:03:13.999Z</time></trkpt><trkpt lat="44.66678909416272" lon="9.108049470848455"><ele>551.75</ele><time>2026-03-29T16:03:14.998Z</time></trkpt><trkpt lat="44.666900645304665" lon="9.107966486320693"><ele>552.0</ele><time>2026-03-29T16:03:15.998Z</time></trkpt><trkpt lat="44.66698490258829" lon="9.10784106945306"><ele>552.0</ele><time>2026-03-29T16:03:16.998Z</time></trkpt><trkpt lat="44.66704649360615" lon="9.107670559942155"><ele>552.0</ele><time>2026-03-29T16:03:17.998Z</time></trkpt><trkpt lat="44.667104303864136" lon="9.107482855446714"><ele>552.0</ele><time>2026-03-29T16:03:18.998Z</time></trkpt><trkpt lat="44.66717310714659" lon="9.107299646132185"><ele>552.0</ele><time>2026-03-29T16:03:19.998Z</time></trkpt><trkpt lat="44.6672688485833" lon="9.1071312587378"><ele>548.75</ele><time>2026-03-29T16:03:20.998Z</time></trkpt><trkpt lat="44.66735239373935" lon="9.106964201126123"><ele>545.5</ele><time>2026-03-29T16:03:21.998Z</time></trkpt><trkpt lat="44.667421459099586" lon="9.10679053315295"><ele>542.25</ele><time>2026-03-29T16:03:22.998Z</time></trkpt><trkpt lat="44.66745262043269" lon="9.106590754059988"><ele>539.0</ele><time>2026-03-29T16:03:23.998Z</time></trkpt><trkpt lat="44.667474283633375" lon="9.106384693251469"><ele>537.25</ele><time>2026-03-29T16:03:24.998Z</time></trkpt><trkpt lat="44.66749135791357" lon="9.106189611028565"><ele>535.5</ele><time>2026-03-29T16:03:25.998Z</time></trkpt><trkpt lat="44.667529346965836" lon="9.10600778423084"><ele>533.75</ele><time>2026-03-29T16:03:26.998Z</time></trkpt><trkpt lat="44.667526826336136" lon="9.10582636949186"><ele>532.0</ele><time>2026-03-29T16:03:27.998Z</time></trkpt><trkpt lat="44.667543308146264" lon="9.105656292258354"><ele>534.0</ele><time>2026-03-29T16:03:28.998Z</time></trkpt><trkpt lat="44.66756994648873" lon="9.105496580868842"><ele>536.0</ele><time>2026-03-29T16:03:29.998Z</time></trkpt><trkpt lat="44.66761354377951" lon="9.105353079582336"><ele>538.0</ele><time>2026-03-29T16:03:30.998Z</time></trkpt><trkpt lat="44.667685221781866" lon="9.105231715159917"><ele>540.0</ele><time>2026-03-29T16:03:31.998Z</time></trkpt><trkpt lat="44.667777255946554" lon="9.105126948831995"><ele>540.0</ele><time>2026-03-29T16:03:32.998Z</time></trkpt><trkpt lat="44.66787827272141" lon="9.10503607509999"><ele>540.0</ele><time>2026-03-29T16:03:33.998Z</time></trkpt><trkpt lat="44.667977180307254" lon="9.104946951552202"><ele>540.0</ele><time>2026-03-29T16:03:34.998Z</time></trkpt><trkpt lat="44.66807318427004" lon="9.104864387054286"><ele>540.0</ele><time>2026-03-29T16:03:35.998Z</time></trkpt><trkpt lat="44.66815623224138" lon="9.10476673466035"><ele>537.0</ele><time>2026-03-29T16:03:36.998Z</time></trkpt><trkpt lat="44.66821926381585" lon="9.104631232990025"><ele>534.0</ele><time>2026-03-29T16:03:37.998Z</time></trkpt><trkpt lat="44.668255328502774" lon="9.104466409415465"><ele>531.0</ele><time>2026-03-29T16:03:38.998Z</time></trkpt><trkpt lat="44.66827160937453" lon="9.104289129672397"><ele>528.0</ele><time>2026-03-29T16:03:39.998Z</time></trkpt><trkpt lat="44.66826321804689" lon="9.104109104429385"><ele>524.75</ele><time>2026-03-29T16:03:40.998Z</time></trkpt><trkpt lat="44.66825119268845" lon="9.103917681636787"><ele>521.5</ele><time>2026-03-29T16:03:41.998Z</time></trkpt><trkpt lat="44.66823382898369" lon="9.103746375814538"><ele>518.25</ele><time>2026-03-29T16:03:42.998Z</time></trkpt><trkpt lat="44.66823303421933" lon="9.103588309622534"><ele>515.0</ele><time>2026-03-29T16:03:43.998Z</time></trkpt><trkpt lat="44.66825176741173" lon="9.103447784850918"><ele>515.0</ele><time>2026-03-29T16:03:44.998Z</time></trkpt><trkpt lat="44.66829052328172" lon="9.103302151665988"><ele>515.0</ele><time>2026-03-29T16:03:45.998Z</time></trkpt><trkpt lat="44.66837063055824" lon="9.103172020157405"><ele>515.0</ele><time>2026-03-29T16:03:46.998Z</time></trkpt><trkpt lat="44.66847207074979" lon="9.103071922445627"><ele>515.0</ele><time>2026-03-29T16:03:47.998Z</time></trkpt><trkpt lat="44.668563338654884" lon="9.102957557904936"><ele>516.0</ele><time>2026-03-29T16:03:48.998Z</time></trkpt><trkpt lat="44.66865656546337" lon="9.102858869637014"><ele>517.0</ele><time>2026-03-29T16:03:49.998Z</time></trkpt><trkpt lat="44.668751221184166" lon="9.102760800142953"><ele>518.0</ele><time>2026-03-29T16:03:51Z</time></trkpt><trkpt lat="44.6688453179719" lon="9.102669713862971"><ele>519.0</ele><time>2026-03-29T16:03:52Z</time></trkpt><trkpt lat="44.66893920575283" lon="9.102596455669023"><ele>519.0</ele><time>2026-03-29T16:03:53Z</time></trkpt><trkpt lat="44.669030731223216" lon="9.102533594232407"><ele>519.0</ele><time>2026-03-29T16:03:54Z</time></trkpt><trkpt lat="44.66912905384829" lon="9.102510033159785"><ele>519.0</ele><time>2026-03-29T16:03:55Z</time></trkpt><trkpt lat="44.66922178013199" lon="9.102474801701439"><ele>519.0</ele><time>2026-03-29T16:03:56Z</time></trkpt><trkpt lat="44.669306612275875" lon="9.102415077636282"><ele>519.0</ele><time>2026-03-29T16:03:57Z</time></trkpt><trkpt lat="44.669366887804614" lon="9.102284966012325"><ele>518.25</ele><time>2026-03-29T16:03:58Z</time></trkpt><trkpt lat="44.66940288563576" lon="9.102127047420444"><ele>517.5</ele><time>2026-03-29T16:03:59Z</time></trkpt><trkpt lat="44.669413278354966" lon="9.101962232021602"><ele>516.75</ele><time>2026-03-29T16:04:00Z</time></trkpt><trkpt lat="44.66946651637659" lon="9.101820097135626"><ele>516.0</ele><time>2026-03-29T16:04:01Z</time></trkpt><trkpt lat="44.669549069848124" lon="9.10169668973681"><ele>516.0</ele><time>2026-03-29T16:04:02Z</time></trkpt><trkpt lat="44.66964762337799" lon="9.101595008446159"><ele>516.0</ele><time>2026-03-29T16:04:03Z</time></trkpt><trkpt lat="44.66976037523336" lon="9.101547750328235"><ele>516.0</ele><time>2026-03-29T16:04:04Z</time></trkpt><trkpt lat="44.66987292208181" lon="9.101534892478004"><ele>516.0</ele><time>2026-03-29T16:04:05Z</time></trkpt><trkpt lat="44.66997537773946" lon="9.10148059788695"><ele>513.0</ele><time>2026-03-29T16:04:06Z</time></trkpt><trkpt lat="44.67005946972448" lon="9.101388933411252"><ele>510.0</ele><time>2026-03-29T16:04:07Z</time></trkpt><trkpt lat="44.670113164649" lon="9.101232928091724"><ele>507.0</ele><time>2026-03-29T16:04:07.999Z</time></trkpt><trkpt lat="44.67011912823389" lon="9.101037637669224"><ele>504.0</ele><time>2026-03-29T16:04:08.999Z</time></trkpt><trkpt lat="44.67014265161476" lon="9.10086173824282"><ele>502.0</ele><time>2026-03-29T16:04:09.999Z</time></trkpt><trkpt lat="44.67012809293828" lon="9.100677004404398"><ele>500.0</ele><time>2026-03-29T16:04:10.999Z</time></trkpt><trkpt lat="44.67012817131647" lon="9.10049336658287"><ele>498.0</ele><time>2026-03-29T16:04:11.999Z</time></trkpt><trkpt lat="44.670142691377514" lon="9.100323588899716"><ele>496.0</ele><time>2026-03-29T16:04:12.999Z</time></trkpt><trkpt lat="44.67014654595423" lon="9.100172641443633"><ele>496.0</ele><time>2026-03-29T16:04:13.999Z</time></trkpt><trkpt lat="44.67016504038401" lon="9.10002905791249"><ele>496.0</ele><time>2026-03-29T16:04:14.999Z</time></trkpt><trkpt lat="44.67023272975264" lon="9.099930903418192"><ele>496.0</ele><time>2026-03-29T16:04:15.999Z</time></trkpt><trkpt lat="44.670325068141125" lon="9.099914293652867"><ele>496.0</ele><time>2026-03-29T16:04:16.999Z</time></trkpt><trkpt lat="44.67043108207698" lon="9.099892705987804"><ele>496.0</ele><time>2026-03-29T16:04:17.999Z</time></trkpt><trkpt lat="44.67054255408745" lon="9.099912460200235"><ele>497.4</ele><time>2026-03-29T16:04:18.999Z</time></trkpt><trkpt lat="44.6706467908281" lon="9.099932962367115"><ele>498.8</ele><time>2026-03-29T16:04:19.999Z</time></trkpt><trkpt lat="44.67074165236568" lon="9.099930251831244"><ele>500.19999999999993</ele><time>2026-03-29T16:04:20.999Z</time></trkpt><trkpt lat="44.6708217744468" lon="9.099883870836994"><ele>501.59999999999997</ele><time>2026-03-29T16:04:21.999Z</time></trkpt><trkpt lat="44.670875786384386" lon="9.099784984704158"><ele>503.0</ele><time>2026-03-29T16:04:22.999Z</time></trkpt><trkpt lat="44.67091857748495" lon="9.099661714038602"><ele>503.0</ele><time>2026-03-29T16:04:23.999Z</time></trkpt><trkpt lat="44.67091237033819" lon="9.099491759667961"><ele>503.0</ele><time>2026-03-29T16:04:24.999Z</time></trkpt><trkpt lat="44.67087112994668" lon="9.099324959679723"><ele>503.0</ele><time>2026-03-29T16:04:25.999Z</time></trkpt><trkpt lat="44.67085489755257" lon="9.099168936641291"><ele>503.0</ele><time>2026-03-29T16:04:26.999Z</time></trkpt><trkpt lat="44.67085539397339" lon="9.099019350573466"><ele>502.0</ele><time>2026-03-29T16:04:27.999Z</time></trkpt><trkpt lat="44.67089553094709" lon="9.098879945254845"><ele>501.0</ele><time>2026-03-29T16:04:28.999Z</time></trkpt><trkpt lat="44.67099411588936" lon="9.098774354662389"><ele>500.0</ele><time>2026-03-29T16:04:29.999Z</time></trkpt><trkpt lat="44.671094550035455" lon="9.098662189229492"><ele>499.0</ele><time>2026-03-29T16:04:30.999Z</time></trkpt><trkpt lat="44.67119006049778" lon="9.09853049013802"><ele>499.0</ele><time>2026-03-29T16:04:31.999Z</time></trkpt><trkpt lat="44.671304177627654" lon="9.098423675851325"><ele>499.0</ele><time>2026-03-29T16:04:32.999Z</time></trkpt><trkpt lat="44.67141445479903" lon="9.098326706331148"><ele>499.0</ele><time>2026-03-29T16:04:33.999Z</time></trkpt><trkpt lat="44.671534950935104" lon="9.098269298433816"><ele>499.0</ele><time>2026-03-29T16:04:34.999Z</time></trkpt><trkpt lat="44.671648458807866" lon="9.098226167312616"><ele>495.25</ele><time>2026-03-29T16:04:35.999Z</time></trkpt><trkpt lat="44.6717520123364" lon="9.098151181986294"><ele>491.5</ele><time>2026-03-29T16:04:36.999Z</time></trkpt><trkpt lat="44.67184220184704" lon="9.09805720175327"><ele>487.75</ele><time>2026-03-29T16:04:37.999Z</time></trkpt><trkpt lat="44.67190526172674" lon="9.097917256063912"><ele>484.0</ele><time>2026-03-29T16:04:38.999Z</time></trkpt><trkpt lat="44.671932725928144" lon="9.097748424611273"><ele>483.79999999999995</ele><time>2026-03-29T16:04:39.999Z</time></trkpt><trkpt lat="44.67194232284929" lon="9.09758587691354"><ele>483.59999999999997</ele><time>2026-03-29T16:04:40.999Z</time></trkpt><trkpt lat="44.67197214410527" lon="9.097440091552576"><ele>483.4</ele><time>2026-03-29T16:04:41.999Z</time></trkpt><trkpt lat="44.67202294187017" lon="9.097312753361013"><ele>483.2</ele><time>2026-03-29T16:04:42.999Z</time></trkpt><trkpt lat="44.672084100132366" lon="9.097198997217195"><ele>483.0</ele><time>2026-03-29T16:04:43.999Z</time></trkpt><trkpt lat="44.67215244788034" lon="9.097096812330822"><ele>483.0</ele><time>2026-03-29T16:04:44.999Z</time></trkpt><trkpt lat="44.67222567770441" lon="9.097006762160142"><ele>482.99999999999994</ele><time>2026-03-29T16:04:45.999Z</time></trkpt><trkpt lat="44.67230580791699" lon="9.096924609670056"><ele>482.99999999999994</ele><time>2026-03-29T16:04:46.999Z</time></trkpt><trkpt lat="44.67239197965941" lon="9.096842563982744"><ele>483.0</ele><time>2026-03-29T16:04:47.999Z</time></trkpt><trkpt lat="44.67247723298092" lon="9.096758979861672"><ele>483.0</ele><time>2026-03-29T16:04:48.999Z</time></trkpt><trkpt lat="44.67257231904419" lon="9.096675770826053"><ele>482.0</ele><time>2026-03-29T16:04:49.999Z</time></trkpt><trkpt lat="44.67265945266414" lon="9.096578359473922"><ele>481.0</ele><time>2026-03-29T16:04:50.999Z</time></trkpt><trkpt lat="44.672752325454866" lon="9.096490009420041"><ele>480.0</ele><time>2026-03-29T16:04:51.999Z</time></trkpt><trkpt lat="44.672847711733354" lon="9.096399002028205"><ele>479.0</ele><time>2026-03-29T16:04:52.999Z</time></trkpt><trkpt lat="44.672939850220665" lon="9.096305360816372"><ele>479.0</ele><time>2026-03-29T16:04:53.999Z</time></trkpt><trkpt lat="44.673028898296316" lon="9.096206105650058"><ele>479.0</ele><time>2026-03-29T16:04:54.999Z</time></trkpt><trkpt lat="44.6731135299813" lon="9.096114363010452"><ele>479.0</ele><time>2026-03-29T16:04:55.999Z</time></trkpt><trkpt lat="44.673206955562385" lon="9.096032863249308"><ele>479.0</ele><time>2026-03-29T16:04:56.999Z</time></trkpt><trkpt lat="44.6732921556914" lon="9.09596303048261"><ele>479.0</ele><time>2026-03-29T16:04:57.999Z</time></trkpt><trkpt lat="44.67335232638638" lon="9.095876778803067"><ele>479.0</ele><time>2026-03-29T16:04:58.999Z</time></trkpt><trkpt lat="44.67340444394853" lon="9.095777696845778"><ele>479.0</ele><time>2026-03-29T16:04:59.999Z</time></trkpt><trkpt lat="44.67342712557933" lon="9.09564594086138"><ele>479.0</ele><time>2026-03-29T16:05:00.999Z</time></trkpt><trkpt lat="44.67341565712409" lon="9.095503875360546"><ele>479.0</ele><time>2026-03-29T16:05:01.999Z</time></trkpt><trkpt lat="44.673394023097806" lon="9.09536345561452"><ele>479.0</ele><time>2026-03-29T16:05:02.999Z</time></trkpt><trkpt lat="44.67337599436463" lon="9.095236807195683"><ele>478.6</ele><time>2026-03-29T16:05:03.999Z</time></trkpt><trkpt lat="44.67337117016409" lon="9.095129532618312"><ele>478.2</ele><time>2026-03-29T16:05:04.999Z</time></trkpt><trkpt lat="44.67339850320039" lon="9.095021950565448"><ele>477.80000000000007</ele><time>2026-03-29T16:05:05.999Z</time></trkpt><trkpt lat="44.67345229529169" lon="9.094926734082726"><ele>477.40000000000003</ele><time>2026-03-29T16:05:06.999Z</time></trkpt><trkpt lat="44.67354305220769" lon="9.094846861848081"><ele>477.0</ele><time>2026-03-29T16:05:07.999Z</time></trkpt><trkpt lat="44.67363848179676" lon="9.094769554299411"><ele>477.0</ele><time>2026-03-29T16:05:08.999Z</time></trkpt><trkpt lat="44.67374009338292" lon="9.094682658724842"><ele>477.0</ele><time>2026-03-29T16:05:09.999Z</time></trkpt><trkpt lat="44.67384775592897" lon="9.094595972414274"><ele>477.0</ele><time>2026-03-29T16:05:10.999Z</time></trkpt><trkpt lat="44.67396089285705" lon="9.094489651445205"><ele>477.0</ele><time>2026-03-29T16:05:11.999Z</time></trkpt><trkpt lat="44.6740303028011" lon="9.094372325010943"><ele>477.0</ele><time>2026-03-29T16:05:12.999Z</time></trkpt><trkpt lat="44.67411697735389" lon="9.094233571546571"><ele>477.0</ele><time>2026-03-29T16:05:13.999Z</time></trkpt><trkpt lat="44.67420437544111" lon="9.094103678293033"><ele>477.0</ele><time>2026-03-29T16:05:14.999Z</time></trkpt><trkpt lat="44.67428924090812" lon="9.09400582726516"><ele>477.0</ele><time>2026-03-29T16:05:15.999Z</time></trkpt><trkpt lat="44.67437764440226" lon="9.09393876537603"><ele>477.6666666666667</ele><time>2026-03-29T16:05:16.999Z</time></trkpt><trkpt lat="44.67445913726921" lon="9.093919628762354"><ele>478.33333333333337</ele><time>2026-03-29T16:05:17.999Z</time></trkpt><trkpt lat="44.6745265241631" lon="9.093928215327788"><ele>479.0</ele><time>2026-03-29T16:05:18.999Z</time></trkpt><trkpt lat="44.67459051348273" lon="9.093992724119262"><ele>479.6666666666667</ele><time>2026-03-29T16:05:19.999Z</time></trkpt><trkpt lat="44.674619692586646" lon="9.094101319708704"><ele>480.33333333333337</ele><time>2026-03-29T16:05:20.998Z</time></trkpt><trkpt lat="44.67467112707566" lon="9.094202856379956"><ele>481.0</ele><time>2026-03-29T16:05:21.998Z</time></trkpt><trkpt lat="44.67469632624344" lon="9.094334733568502"><ele>481.0</ele><time>2026-03-29T16:05:22.998Z</time></trkpt><trkpt lat="44.674733748995244" lon="9.09445173984066"><ele>481.0</ele><time>2026-03-29T16:05:23.998Z</time></trkpt><trkpt lat="44.6747728659822" lon="9.094539806379878"><ele>481.0</ele><time>2026-03-29T16:05:24.998Z</time></trkpt><trkpt lat="44.6748745371647" lon="9.094592173975812"><ele>481.0</ele><time>2026-03-29T16:05:26.998Z</time></trkpt><trkpt lat="44.67493885276841" lon="9.09459182840593"><ele>481.0</ele><time>2026-03-29T16:05:27.998Z</time></trkpt><trkpt lat="44.675011153220474" lon="9.094459989677947"><ele>481.0</ele><time>2026-03-29T16:05:28.998Z</time></trkpt><trkpt lat="44.67509360804007" lon="9.09440442149964"><ele>481.0</ele><time>2026-03-29T16:05:29.998Z</time></trkpt><trkpt lat="44.67517297211825" lon="9.094303590669524"><ele>481.0</ele><time>2026-03-29T16:05:30.998Z</time></trkpt><trkpt lat="44.67526441801017" lon="9.094213699373753"><ele>481.0</ele><time>2026-03-29T16:05:31.998Z</time></trkpt><trkpt lat="44.675364303122244" lon="9.094126854778686"><ele>481.0</ele><time>2026-03-29T16:05:32.998Z</time></trkpt><trkpt lat="44.67546872627434" lon="9.094048098581302"><ele>479.0</ele><time>2026-03-29T16:05:33.998Z</time></trkpt><trkpt lat="44.67557325294019" lon="9.093981866301474"><ele>477.0</ele><time>2026-03-29T16:05:34.998Z</time></trkpt><trkpt lat="44.67568477105703" lon="9.093929398294568"><ele>475.0</ele><time>2026-03-29T16:05:35.998Z</time></trkpt><trkpt lat="44.675786803407625" lon="9.093875332292594"><ele>473.0</ele><time>2026-03-29T16:05:36.998Z</time></trkpt><trkpt lat="44.67589458454284" lon="9.093842568918049"><ele>473.0</ele><time>2026-03-29T16:05:37.998Z</time></trkpt><trkpt lat="44.676005764864186" lon="9.093806116063346"><ele>473.0</ele><time>2026-03-29T16:05:38.998Z</time></trkpt><trkpt lat="44.676129100292606" lon="9.093765164227484"><ele>473.0</ele><time>2026-03-29T16:05:39.998Z</time></trkpt><trkpt lat="44.67624454090436" lon="9.09366846999999"><ele>473.0</ele><time>2026-03-29T16:05:40.998Z</time></trkpt><trkpt lat="44.67634581822023" lon="9.093549613102104"><ele>472.75</ele><time>2026-03-29T16:05:41.998Z</time></trkpt><trkpt lat="44.67643836956974" lon="9.093412548547946"><ele>472.5</ele><time>2026-03-29T16:05:42.998Z</time></trkpt><trkpt lat="44.67651817029491" lon="9.093261430155321"><ele>472.25</ele><time>2026-03-29T16:05:43.998Z</time></trkpt><trkpt lat="44.67658433078728" lon="9.093102225898667"><ele>472.0</ele><time>2026-03-29T16:05:44.998Z</time></trkpt><trkpt lat="44.67663929457821" lon="9.092932682128998"><ele>472.0</ele><time>2026-03-29T16:05:45.998Z</time></trkpt><trkpt lat="44.67668263097839" lon="9.092748403827855"><ele>472.0</ele><time>2026-03-29T16:05:46.998Z</time></trkpt><trkpt lat="44.67674408809718" lon="9.092576349424242"><ele>472.0</ele><time>2026-03-29T16:05:47.998Z</time></trkpt><trkpt lat="44.6767713086636" lon="9.092406188193547"><ele>472.0</ele><time>2026-03-29T16:05:48.998Z</time></trkpt><trkpt lat="44.67681463668549" lon="9.09225504577211"><ele>472.5</ele><time>2026-03-29T16:05:49.998Z</time></trkpt><trkpt lat="44.67685811435232" lon="9.092101761197533"><ele>473.0</ele><time>2026-03-29T16:05:50.998Z</time></trkpt><trkpt lat="44.67693900971433" lon="9.091973694272578"><ele>473.5</ele><time>2026-03-29T16:05:51.998Z</time></trkpt><trkpt lat="44.67702655916098" lon="9.091849633587467"><ele>474.0</ele><time>2026-03-29T16:05:52.998Z</time></trkpt><trkpt lat="44.677122418114976" lon="9.091716201138771"><ele>474.0</ele><time>2026-03-29T16:05:53.998Z</time></trkpt><trkpt lat="44.677243986111684" lon="9.091598651382249"><ele>474.0</ele><time>2026-03-29T16:05:54.998Z</time></trkpt><trkpt lat="44.67737754447886" lon="9.09146698220127"><ele>474.0</ele><time>2026-03-29T16:05:55.998Z</time></trkpt><trkpt lat="44.67752197245468" lon="9.091339260271813"><ele>472.0</ele><time>2026-03-29T16:05:57Z</time></trkpt><trkpt lat="44.677674424714475" lon="9.091207330679394"><ele>470.0</ele><time>2026-03-29T16:05:58Z</time></trkpt><trkpt lat="44.677827868005295" lon="9.091065369865815"><ele>468.0</ele><time>2026-03-29T16:05:59Z</time></trkpt><trkpt lat="44.67797340516868" lon="9.090927008586009"><ele>468.75</ele><time>2026-03-29T16:06:00Z</time></trkpt><trkpt lat="44.67810655691955" lon="9.090801306738548"><ele>469.5</ele><time>2026-03-29T16:06:01Z</time></trkpt><trkpt lat="44.67822413112811" lon="9.090684895952872"><ele>470.25</ele><time>2026-03-29T16:06:02Z</time></trkpt><trkpt lat="44.67831645966938" lon="9.09056146802635"><ele>471.0</ele><time>2026-03-29T16:06:03Z</time></trkpt><trkpt lat="44.67837533281206" lon="9.090416538235466"><ele>471.0</ele><time>2026-03-29T16:06:04Z</time></trkpt><trkpt lat="44.67840020402602" lon="9.090236888640222"><ele>471.0</ele><time>2026-03-29T16:06:05Z</time></trkpt><trkpt lat="44.67843476347336" lon="9.090049381192735"><ele>471.0</ele><time>2026-03-29T16:06:06Z</time></trkpt><trkpt lat="44.67851044370418" lon="9.089892948111801"><ele>471.0</ele><time>2026-03-29T16:06:07Z</time></trkpt><trkpt lat="44.67860369958011" lon="9.089777239624558"><ele>469.25</ele><time>2026-03-29T16:06:08Z</time></trkpt><trkpt lat="44.67872105796575" lon="9.089699720229563"><ele>467.5</ele><time>2026-03-29T16:06:09Z</time></trkpt><trkpt lat="44.67884985734812" lon="9.08964055793054"><ele>465.75</ele><time>2026-03-29T16:06:10Z</time></trkpt><trkpt lat="44.67899907480091" lon="9.089619092647576"><ele>464.0</ele><time>2026-03-29T16:06:11Z</time></trkpt><trkpt lat="44.6791586456242" lon="9.089609007475602"><ele>464.0</ele><time>2026-03-29T16:06:12Z</time></trkpt><trkpt lat="44.679324772242055" lon="9.089595157225405"><ele>464.0</ele><time>2026-03-29T16:06:13Z</time></trkpt><trkpt lat="44.67948539053216" lon="9.089576615285065"><ele>464.0</ele><time>2026-03-29T16:06:14Z</time></trkpt><trkpt lat="44.67963932534722" lon="9.089563482803316"><ele>463.66666666666663</ele><time>2026-03-29T16:06:15Z</time></trkpt><trkpt lat="44.67979555308188" lon="9.089561926939226"><ele>463.33333333333337</ele><time>2026-03-29T16:06:16Z</time></trkpt><trkpt lat="44.679960551183356" lon="9.089594995009834"><ele>463.0</ele><time>2026-03-29T16:06:17Z</time></trkpt><trkpt lat="44.6801235499579" lon="9.08965482314336"><ele>462.5</ele><time>2026-03-29T16:06:17.999Z</time></trkpt><trkpt lat="44.680269978176" lon="9.089723377496693"><ele>462.0</ele><time>2026-03-29T16:06:18.999Z</time></trkpt><trkpt lat="44.6803973531514" lon="9.089812756602912"><ele>461.5</ele><time>2026-03-29T16:06:19.999Z</time></trkpt><trkpt lat="44.680502374645485" lon="9.089923461718131"><ele>461.0</ele><time>2026-03-29T16:06:20.999Z</time></trkpt><trkpt lat="44.680597394569716" lon="9.090039934156065"><ele>463.0</ele><time>2026-03-29T16:06:21.999Z</time></trkpt><trkpt lat="44.680695570453366" lon="9.090156592789723"><ele>465.0</ele><time>2026-03-29T16:06:22.999Z</time></trkpt><trkpt lat="44.680809208217035" lon="9.090224956429124"><ele>467.0</ele><time>2026-03-29T16:06:23.999Z</time></trkpt><trkpt lat="44.68092295425162" lon="9.090259480904987"><ele>469.0</ele><time>2026-03-29T16:06:24.999Z</time></trkpt><trkpt lat="44.681042859901595" lon="9.090182795372291"><ele>467.0</ele><time>2026-03-29T16:06:25.999Z</time></trkpt><trkpt lat="44.68115764615108" lon="9.090064506385803"><ele>465.0</ele><time>2026-03-29T16:06:26.999Z</time></trkpt><trkpt lat="44.68127751058876" lon="9.08993184655167"><ele>463.0</ele><time>2026-03-29T16:06:27.999Z</time></trkpt><trkpt lat="44.68140604963009" lon="9.089789936073439"><ele>463.0</ele><time>2026-03-29T16:06:28.999Z</time></trkpt><trkpt lat="44.68154267873662" lon="9.089644676957553"><ele>463.0</ele><time>2026-03-29T16:06:29.999Z</time></trkpt><trkpt lat="44.68169236622169" lon="9.089523300904796"><ele>463.0</ele><time>2026-03-29T16:06:30.999Z</time></trkpt><trkpt lat="44.681858430742594" lon="9.089425550850224"><ele>465.33333333333337</ele><time>2026-03-29T16:06:31.999Z</time></trkpt><trkpt lat="44.682037985606335" lon="9.089340402312345"><ele>467.66666666666663</ele><time>2026-03-29T16:06:32.999Z</time></trkpt><trkpt lat="44.68222229006755" lon="9.089250560671925"><ele>470.0</ele><time>2026-03-29T16:06:33.999Z</time></trkpt><trkpt lat="44.682401520696054" lon="9.089159355300177"><ele>470.3333333333333</ele><time>2026-03-29T16:06:34.999Z</time></trkpt><trkpt lat="44.68256642414888" lon="9.089072975265168"><ele>470.66666666666663</ele><time>2026-03-29T16:06:35.999Z</time></trkpt><trkpt lat="44.68271665243745" lon="9.088974551227594"><ele>471.0</ele><time>2026-03-29T16:06:36.999Z</time></trkpt><trkpt lat="44.68284197331606" lon="9.088842740793163"><ele>471.0</ele><time>2026-03-29T16:06:37.999Z</time></trkpt><trkpt lat="44.6829497446349" lon="9.08867626152178"><ele>471.0</ele><time>2026-03-29T16:06:38.999Z</time></trkpt><trkpt lat="44.68304510687764" lon="9.088480645555444"><ele>471.0</ele><time>2026-03-29T16:06:39.999Z</time></trkpt><trkpt lat="44.68312355098417" lon="9.088256075901377"><ele>469.33333333333337</ele><time>2026-03-29T16:06:40.999Z</time></trkpt><trkpt lat="44.68318999526768" lon="9.088015362153985"><ele>467.6666666666667</ele><time>2026-03-29T16:06:41.999Z</time></trkpt><trkpt lat="44.68327181472903" lon="9.087783376522795"><ele>466.0</ele><time>2026-03-29T16:06:42.999Z</time></trkpt><trkpt lat="44.68338551063491" lon="9.08756764458365"><ele>464.33333333333337</ele><time>2026-03-29T16:06:43.999Z</time></trkpt><trkpt lat="44.68350497870296" lon="9.087386510669248"><ele>462.66666666666663</ele><time>2026-03-29T16:06:44.999Z</time></trkpt><trkpt lat="44.68362504373878" lon="9.0872332927074"><ele>461.0</ele><time>2026-03-29T16:06:45.999Z</time></trkpt><trkpt lat="44.68376465588339" lon="9.087119402809034"><ele>461.0</ele><time>2026-03-29T16:06:46.999Z</time></trkpt><trkpt lat="44.68392114710154" lon="9.087025313544316"><ele>461.0</ele><time>2026-03-29T16:06:47.999Z</time></trkpt><trkpt lat="44.68408436838676" lon="9.086928072080342"><ele>461.0</ele><time>2026-03-29T16:06:48.999Z</time></trkpt><trkpt lat="44.684233500035724" lon="9.086826979565439"><ele>461.0</ele><time>2026-03-29T16:06:49.999Z</time></trkpt><trkpt lat="44.6843662811192" lon="9.08672178240513"><ele>461.0</ele><time>2026-03-29T16:06:50.999Z</time></trkpt><trkpt lat="44.68447870275858" lon="9.086579989355288"><ele>461.0</ele><time>2026-03-29T16:06:51.999Z</time></trkpt><trkpt lat="44.684586212070286" lon="9.086411600489837"><ele>461.3333333333333</ele><time>2026-03-29T16:06:52.999Z</time></trkpt><trkpt lat="44.684655633184285" lon="9.086188534065137"><ele>461.66666666666663</ele><time>2026-03-29T16:06:53.999Z</time></trkpt><trkpt lat="44.684749793037504" lon="9.085979183403095"><ele>462.0</ele><time>2026-03-29T16:06:54.999Z</time></trkpt><trkpt lat="44.684865146448175" lon="9.085776720568326"><ele>458.33333333333337</ele><time>2026-03-29T16:06:55.999Z</time></trkpt><trkpt lat="44.68499401243181" lon="9.085574574898315"><ele>454.6666666666667</ele><time>2026-03-29T16:06:56.999Z</time></trkpt><trkpt lat="44.68512987287726" lon="9.085368420145223"><ele>451.0</ele><time>2026-03-29T16:06:57.999Z</time></trkpt><trkpt lat="44.68525638761843" lon="9.085172595771379"><ele>451.0</ele><time>2026-03-29T16:06:58.999Z</time></trkpt><trkpt lat="44.685400354242034" lon="9.084997307223356"><ele>451.0</ele><time>2026-03-29T16:06:59.999Z</time></trkpt><trkpt lat="44.68553314775934" lon="9.084821830201756"><ele>451.0</ele><time>2026-03-29T16:07:00.999Z</time></trkpt><trkpt lat="44.68565949724963" lon="9.084652469381455"><ele>451.0</ele><time>2026-03-29T16:07:01.999Z</time></trkpt><trkpt lat="44.685812254772436" lon="9.084523974582597"><ele>451.0</ele><time>2026-03-29T16:07:02.999Z</time></trkpt><trkpt lat="44.68598491007443" lon="9.084427848674936"><ele>451.0</ele><time>2026-03-29T16:07:03.999Z</time></trkpt><trkpt lat="44.68616470486097" lon="9.084377495976156"><ele>449.6666666666667</ele><time>2026-03-29T16:07:04.999Z</time></trkpt><trkpt lat="44.6863326543084" lon="9.0842884369648"><ele>448.33333333333337</ele><time>2026-03-29T16:07:05.999Z</time></trkpt><trkpt lat="44.686490812756766" lon="9.084206414618079"><ele>447.0</ele><time>2026-03-29T16:07:06.999Z</time></trkpt><trkpt lat="44.68663851538016" lon="9.084082220583113"><ele>447.0</ele><time>2026-03-29T16:07:07.999Z</time></trkpt><trkpt lat="44.68676603699489" lon="9.08392811415523"><ele>447.0</ele><time>2026-03-29T16:07:08.999Z</time></trkpt><trkpt lat="44.686875723714664" lon="9.083773053655985"><ele>447.0</ele><time>2026-03-29T16:07:09.999Z</time></trkpt><trkpt lat="44.686998476669956" lon="9.083651072901036"><ele>447.66666666666663</ele><time>2026-03-29T16:07:10.999Z</time></trkpt><trkpt lat="44.68715371837179" lon="9.08356476876091"><ele>448.3333333333333</ele><time>2026-03-29T16:07:11.999Z</time></trkpt><trkpt lat="44.68732653503911" lon="9.083515772692376"><ele>449.0</ele><time>2026-03-29T16:07:12.999Z</time></trkpt><trkpt lat="44.68751322177008" lon="9.083478491922586"><ele>449.0</ele><time>2026-03-29T16:07:13.999Z</time></trkpt><trkpt lat="44.68769331469651" lon="9.083427660809969"><ele>449.0</ele><time>2026-03-29T16:07:14.999Z</time></trkpt><trkpt lat="44.687860808994046" lon="9.083345532670347"><ele>449.0</ele><time>2026-03-29T16:07:15.999Z</time></trkpt><trkpt lat="44.68801576091919" lon="9.083257774293912"><ele>448.3333333333333</ele><time>2026-03-29T16:07:16.999Z</time></trkpt><trkpt lat="44.68816790552405" lon="9.083162900980698"><ele>447.66666666666663</ele><time>2026-03-29T16:07:17.999Z</time></trkpt><trkpt lat="44.68831554377642" lon="9.083036240592538"><ele>447.0</ele><time>2026-03-29T16:07:18.999Z</time></trkpt><trkpt lat="44.68844906741882" lon="9.082870115905653"><ele>447.0</ele><time>2026-03-29T16:07:19.999Z</time></trkpt><trkpt lat="44.68856847067558" lon="9.082687176252419"><ele>447.0</ele><time>2026-03-29T16:07:20.999Z</time></trkpt><trkpt lat="44.68868447609461" lon="9.082508253676712"><ele>447.0</ele><time>2026-03-29T16:07:21.999Z</time></trkpt><trkpt lat="44.688795505802304" lon="9.082343336157512"><ele>447.0</ele><time>2026-03-29T16:07:22.999Z</time></trkpt><trkpt lat="44.68890167827063" lon="9.082186556697026"><ele>447.0</ele><time>2026-03-29T16:07:23.999Z</time></trkpt><trkpt lat="44.68900409167036" lon="9.082041291748707"><ele>447.0</ele><time>2026-03-29T16:07:24.999Z</time></trkpt><trkpt lat="44.68911039295057" lon="9.081913409542828"><ele>447.0</ele><time>2026-03-29T16:07:25.999Z</time></trkpt><trkpt lat="44.68923062196844" lon="9.081817087380044"><ele>447.0</ele><time>2026-03-29T16:07:26.999Z</time></trkpt><trkpt lat="44.689371735448304" lon="9.08174476347913"><ele>447.0</ele><time>2026-03-29T16:07:27.999Z</time></trkpt><trkpt lat="44.68951913778637" lon="9.081697278880263"><ele>447.0</ele><time>2026-03-29T16:07:28.999Z</time></trkpt><trkpt lat="44.68966807899929" lon="9.081656999555927"><ele>444.66666666666663</ele><time>2026-03-29T16:07:29.998Z</time></trkpt><trkpt lat="44.6898228311844" lon="9.08159017992582"><ele>442.3333333333333</ele><time>2026-03-29T16:07:30.998Z</time></trkpt><trkpt lat="44.68998936721858" lon="9.081516145851737"><ele>440.0</ele><time>2026-03-29T16:07:31.998Z</time></trkpt><trkpt lat="44.6901653551988" lon="9.081387449665742"><ele>443.0</ele><time>2026-03-29T16:07:32.998Z</time></trkpt><trkpt lat="44.690350940011456" lon="9.081252513376354"><ele>446.0</ele><time>2026-03-29T16:07:33.998Z</time></trkpt><trkpt lat="44.690546509833595" lon="9.081111083993218"><ele>449.0</ele><time>2026-03-29T16:07:34.998Z</time></trkpt><trkpt lat="44.69074584841119" lon="9.080947419169636"><ele>449.0</ele><time>2026-03-29T16:07:35.998Z</time></trkpt><trkpt lat="44.69095630973791" lon="9.080784661807183"><ele>449.0</ele><time>2026-03-29T16:07:36.998Z</time></trkpt><trkpt lat="44.69116319096126" lon="9.0806077802529"><ele>446.5</ele><time>2026-03-29T16:07:37.998Z</time></trkpt><trkpt lat="44.691374602978215" lon="9.080411164456725"><ele>444.0</ele><time>2026-03-29T16:07:38.998Z</time></trkpt><trkpt lat="44.6915767617581" lon="9.080210627759561"><ele>444.0</ele><time>2026-03-29T16:07:39.998Z</time></trkpt><trkpt lat="44.691754087049006" lon="9.080031079042914"><ele>444.0</ele><time>2026-03-29T16:07:40.998Z</time></trkpt><trkpt lat="44.691920126339426" lon="9.079866046061014"><ele>444.0</ele><time>2026-03-29T16:07:41.998Z</time></trkpt><trkpt lat="44.69207867366742" lon="9.079730564083984"><ele>443.33333333333337</ele><time>2026-03-29T16:07:42.998Z</time></trkpt><trkpt lat="44.69221996987951" lon="9.07953391410194"><ele>442.6666666666667</ele><time>2026-03-29T16:07:43.998Z</time></trkpt><trkpt lat="44.692331034758574" lon="9.079357679019253"><ele>442.0</ele><time>2026-03-29T16:07:44.998Z</time></trkpt><trkpt lat="44.69241924517919" lon="9.079199973254171"><ele>442.75</ele><time>2026-03-29T16:07:45.998Z</time></trkpt><trkpt lat="44.69251462473582" lon="9.079089551548638"><ele>443.5</ele><time>2026-03-29T16:07:46.998Z</time></trkpt><trkpt lat="44.69263776125737" lon="9.079059704604528"><ele>444.25</ele><time>2026-03-29T16:07:47.998Z</time></trkpt><trkpt lat="44.692775709463845" lon="9.079047548777734"><ele>445.0</ele><time>2026-03-29T16:07:48.998Z</time></trkpt><trkpt lat="44.692927905705005" lon="9.079012307010261"><ele>445.0</ele><time>2026-03-29T16:07:49.998Z</time></trkpt><trkpt lat="44.69307610493792" lon="9.078948852705206"><ele>445.0</ele><time>2026-03-29T16:07:50.998Z</time></trkpt><trkpt lat="44.693227414452565" lon="9.078825286739054"><ele>445.0</ele><time>2026-03-29T16:07:51.998Z</time></trkpt><trkpt lat="44.693374356669665" lon="9.078663380802649"><ele>445.0</ele><time>2026-03-29T16:07:52.998Z</time></trkpt><trkpt lat="44.69352151170807" lon="9.078492629190825"><ele>445.0</ele><time>2026-03-29T16:07:53.998Z</time></trkpt><trkpt lat="44.69365891162482" lon="9.078307409540775"><ele>445.0</ele><time>2026-03-29T16:07:54.998Z</time></trkpt><trkpt lat="44.69378137165148" lon="9.078097074713028"><ele>443.6666666666667</ele><time>2026-03-29T16:07:55.998Z</time></trkpt><trkpt lat="44.69388467287075" lon="9.07787886759406"><ele>442.33333333333337</ele><time>2026-03-29T16:07:56.998Z</time></trkpt><trkpt lat="44.69397264267582" lon="9.077647028526567"><ele>441.0</ele><time>2026-03-29T16:07:57.998Z</time></trkpt><trkpt lat="44.694052015656524" lon="9.07740679801698"><ele>441.0</ele><time>2026-03-29T16:07:58.998Z</time></trkpt><trkpt lat="44.69412799875779" lon="9.077168767215369"><ele>441.0</ele><time>2026-03-29T16:07:59.998Z</time></trkpt><trkpt lat="44.694207933870494" lon="9.076942137868027"><ele>441.0</ele><time>2026-03-29T16:08:00.998Z</time></trkpt><trkpt lat="44.694316630652004" lon="9.076740129953063"><ele>443.33333333333337</ele><time>2026-03-29T16:08:01.998Z</time></trkpt><trkpt lat="44.694442668641535" lon="9.076571744361832"><ele>445.6666666666667</ele><time>2026-03-29T16:08:03Z</time></trkpt><trkpt lat="44.694574562965634" lon="9.076399907593354"><ele>448.0</ele><time>2026-03-29T16:08:04Z</time></trkpt><trkpt lat="44.69469021471824" lon="9.07618771042463"><ele>448.0</ele><time>2026-03-29T16:08:05Z</time></trkpt><trkpt lat="44.69476325452959" lon="9.075919792400445"><ele>448.0</ele><time>2026-03-29T16:08:06Z</time></trkpt><trkpt lat="44.69483872807723" lon="9.075641527127777"><ele>448.0</ele><time>2026-03-29T16:08:07Z</time></trkpt><trkpt lat="44.69492994584509" lon="9.075375296795148"><ele>444.0</ele><time>2026-03-29T16:08:08Z</time></trkpt><trkpt lat="44.69507659880816" lon="9.075156415906987"><ele>440.0</ele><time>2026-03-29T16:08:09Z</time></trkpt><trkpt lat="44.69522161076174" lon="9.07493368390314"><ele>436.0</ele><time>2026-03-29T16:08:10Z</time></trkpt><trkpt lat="44.69534454749326" lon="9.074719235670482"><ele>436.0</ele><time>2026-03-29T16:08:11Z</time></trkpt><trkpt lat="44.69546537046531" lon="9.074537413211889"><ele>436.0</ele><time>2026-03-29T16:08:12Z</time></trkpt><trkpt lat="44.69558954828917" lon="9.074408106538556"><ele>436.0</ele><time>2026-03-29T16:08:13Z</time></trkpt><trkpt lat="44.695721662245845" lon="9.074325498335407"><ele>436.0</ele><time>2026-03-29T16:08:14Z</time></trkpt><trkpt lat="44.6958673304006" lon="9.074274431201816"><ele>436.0</ele><time>2026-03-29T16:08:15Z</time></trkpt><trkpt lat="44.69602436844432" lon="9.074253796276473"><ele>436.0</ele><time>2026-03-29T16:08:16Z</time></trkpt><trkpt lat="44.696179822476715" lon="9.074220924005482"><ele>435.0</ele><time>2026-03-29T16:08:17Z</time></trkpt><trkpt lat="44.69631499858325" lon="9.074142572364153"><ele>434.0</ele><time>2026-03-29T16:08:18Z</time></trkpt><trkpt lat="44.6964391312195" lon="9.07403180563351"><ele>433.0</ele><time>2026-03-29T16:08:19Z</time></trkpt><trkpt lat="44.69654031229949" lon="9.07388059671259"><ele>432.0</ele><time>2026-03-29T16:08:20Z</time></trkpt><trkpt lat="44.69663122909956" lon="9.073707109949883"><ele>432.0</ele><time>2026-03-29T16:08:21Z</time></trkpt><trkpt lat="44.69667142728502" lon="9.073512925087742"><ele>432.0</ele><time>2026-03-29T16:08:22Z</time></trkpt><trkpt lat="44.69674452527395" lon="9.073363587473855"><ele>432.0</ele><time>2026-03-29T16:08:23Z</time></trkpt><trkpt lat="44.69685101166834" lon="9.07328061203423"><ele>432.0</ele><time>2026-03-29T16:08:24Z</time></trkpt><trkpt lat="44.696975612384534" lon="9.073232524738323"><ele>430.66666666666663</ele><time>2026-03-29T16:08:25Z</time></trkpt><trkpt lat="44.69712132382146" lon="9.07315156890266"><ele>429.3333333333333</ele><time>2026-03-29T16:08:26Z</time></trkpt><trkpt lat="44.69727060688033" lon="9.073031373730991"><ele>428.0</ele><time>2026-03-29T16:08:26.999Z</time></trkpt><trkpt lat="44.6974278245021" lon="9.072894847698992"><ele>428.0</ele><time>2026-03-29T16:08:27.999Z</time></trkpt><trkpt lat="44.69759499312997" lon="9.072778246278155"><ele>428.0</ele><time>2026-03-29T16:08:28.999Z</time></trkpt><trkpt lat="44.69775770140002" lon="9.07268313528588"><ele>428.0</ele><time>2026-03-29T16:08:29.999Z</time></trkpt><trkpt lat="44.697909994738986" lon="9.072587494534185"><ele>427.3333333333333</ele><time>2026-03-29T16:08:30.999Z</time></trkpt><trkpt lat="44.69803780542078" lon="9.072463225237657"><ele>426.66666666666663</ele><time>2026-03-29T16:08:31.999Z</time></trkpt><trkpt lat="44.698164584255956" lon="9.072341273831999"><ele>426.0</ele><time>2026-03-29T16:08:32.999Z</time></trkpt><trkpt lat="44.69827491789901" lon="9.072201637064195"><ele>426.0</ele><time>2026-03-29T16:08:33.999Z</time></trkpt><trkpt lat="44.69836577091103" lon="9.072038434893354"><ele>426.0</ele><time>2026-03-29T16:08:34.999Z</time></trkpt><trkpt lat="44.698427804348654" lon="9.071844094612795"><ele>426.0</ele><time>2026-03-29T16:08:35.999Z</time></trkpt><trkpt lat="44.69846632245803" lon="9.07163344819476"><ele>426.0</ele><time>2026-03-29T16:08:36.999Z</time></trkpt><trkpt lat="44.698510737797754" lon="9.07141475154202"><ele>426.0</ele><time>2026-03-29T16:08:37.999Z</time></trkpt><trkpt lat="44.69857469294049" lon="9.071196435053167"><ele>426.0</ele><time>2026-03-29T16:08:38.999Z</time></trkpt><trkpt lat="44.69865796229424" lon="9.070993783031424"><ele>426.0</ele><time>2026-03-29T16:08:39.999Z</time></trkpt><trkpt lat="44.69876548496377" lon="9.070819973930123"><ele>426.0</ele><time>2026-03-29T16:08:40.999Z</time></trkpt><trkpt lat="44.69888932781003" lon="9.070672804390556"><ele>426.0</ele><time>2026-03-29T16:08:41.999Z</time></trkpt><trkpt lat="44.69903954760013" lon="9.07057948510185"><ele>426.0</ele><time>2026-03-29T16:08:42.999Z</time></trkpt><trkpt lat="44.69918548509526" lon="9.070453178410865"><ele>426.0</ele><time>2026-03-29T16:08:43.999Z</time></trkpt><trkpt lat="44.69934482387496" lon="9.070350805430584"><ele>426.0</ele><time>2026-03-29T16:08:44.999Z</time></trkpt><trkpt lat="44.69949055819305" lon="9.070250563302693"><ele>426.0</ele><time>2026-03-29T16:08:45.999Z</time></trkpt><trkpt lat="44.69961863394531" lon="9.070148234582609"><ele>426.0</ele><time>2026-03-29T16:08:46.999Z</time></trkpt><trkpt lat="44.69972514779367" lon="9.070036463920417"><ele>426.0</ele><time>2026-03-29T16:08:47.999Z</time></trkpt><trkpt lat="44.69981241596546" lon="9.069889887074261"><ele>426.0</ele><time>2026-03-29T16:08:48.999Z</time></trkpt><trkpt lat="44.69988039320396" lon="9.06970957866495"><ele>423.66666666666663</ele><time>2026-03-29T16:08:49.999Z</time></trkpt><trkpt lat="44.699944459509375" lon="9.06951143054369"><ele>421.3333333333333</ele><time>2026-03-29T16:08:50.999Z</time></trkpt><trkpt lat="44.700034500549144" lon="9.069330583436596"><ele>419.0</ele><time>2026-03-29T16:08:51.999Z</time></trkpt><trkpt lat="44.70013985944493" lon="9.069161394327445"><ele>418.66666666666663</ele><time>2026-03-29T16:08:52.999Z</time></trkpt><trkpt lat="44.70026041701351" lon="9.06900238809285"><ele>418.33333333333337</ele><time>2026-03-29T16:08:53.999Z</time></trkpt><trkpt lat="44.700390010139095" lon="9.068842883343013"><ele>418.0</ele><time>2026-03-29T16:08:54.999Z</time></trkpt><trkpt lat="44.70051226589796" lon="9.068665237290295"><ele>418.0</ele><time>2026-03-29T16:08:55.999Z</time></trkpt><trkpt lat="44.70064104708888" lon="9.068511118236911"><ele>418.0</ele><time>2026-03-29T16:08:56.999Z</time></trkpt><trkpt lat="44.70075515434828" lon="9.06836026118909"><ele>418.0</ele><time>2026-03-29T16:08:57.999Z</time></trkpt><trkpt lat="44.700847038331126" lon="9.068198172950025"><ele>417.25</ele><time>2026-03-29T16:08:58.999Z</time></trkpt><trkpt lat="44.70091277319521" lon="9.06801257840779"><ele>416.5</ele><time>2026-03-29T16:08:59.999Z</time></trkpt><trkpt lat="44.70094278364708" lon="9.067797299263587"><ele>415.75</ele><time>2026-03-29T16:09:00.999Z</time></trkpt><trkpt lat="44.70096423635207" lon="9.06759644071093"><ele>415.0</ele><time>2026-03-29T16:09:01.999Z</time></trkpt><trkpt lat="44.70098036778841" lon="9.06739940753271"><ele>414.6</ele><time>2026-03-29T16:09:02.999Z</time></trkpt><trkpt lat="44.70100101491954" lon="9.067223290842357"><ele>414.2</ele><time>2026-03-29T16:09:03.999Z</time></trkpt><trkpt lat="44.7010298899736" lon="9.067070249452705"><ele>413.79999999999995</ele><time>2026-03-29T16:09:04.999Z</time></trkpt><trkpt lat="44.701097355060085" lon="9.066961308251685"><ele>413.4</ele><time>2026-03-29T16:09:05.999Z</time></trkpt><trkpt lat="44.70118117616408" lon="9.066901528570982"><ele>413.0</ele><time>2026-03-29T16:09:06.999Z</time></trkpt><trkpt lat="44.701279725134114" lon="9.066882006871776"><ele>414.25</ele><time>2026-03-29T16:09:07.999Z</time></trkpt><trkpt lat="44.70138989594156" lon="9.066893019095806"><ele>415.5</ele><time>2026-03-29T16:09:08.999Z</time></trkpt><trkpt lat="44.70150577201509" lon="9.066891528321971"><ele>416.75</ele><time>2026-03-29T16:09:09.999Z</time></trkpt><trkpt lat="44.70161573545026" lon="9.066852413997548"><ele>418.0</ele><time>2026-03-29T16:09:10.999Z</time></trkpt><trkpt lat="44.70170845058818" lon="9.066759976697684"><ele>418.0</ele><time>2026-03-29T16:09:11.999Z</time></trkpt><trkpt lat="44.70179618674197" lon="9.0666402123442"><ele>418.0</ele><time>2026-03-29T16:09:12.999Z</time></trkpt><trkpt lat="44.701900788057245" lon="9.0665327903377"><ele>418.0</ele><time>2026-03-29T16:09:13.999Z</time></trkpt><trkpt lat="44.70199202386815" lon="9.066420052680233"><ele>418.0</ele><time>2026-03-29T16:09:14.999Z</time></trkpt><trkpt lat="44.702068257492684" lon="9.06629680702688"><ele>418.4</ele><time>2026-03-29T16:09:15.999Z</time></trkpt><trkpt lat="44.70215386051613" lon="9.066200127108766"><ele>418.79999999999995</ele><time>2026-03-29T16:09:16.999Z</time></trkpt><trkpt lat="44.70223100799327" lon="9.066100182738571"><ele>419.2</ele><time>2026-03-29T16:09:17.999Z</time></trkpt><trkpt lat="44.70230413125039" lon="9.066001770694802"><ele>419.6</ele><time>2026-03-29T16:09:18.999Z</time></trkpt><trkpt lat="44.7023807998811" lon="9.065909070859608"><ele>420.0</ele><time>2026-03-29T16:09:19.999Z</time></trkpt><trkpt lat="44.70245990120682" lon="9.06581151236805"><ele>419.75</ele><time>2026-03-29T16:09:20.999Z</time></trkpt><trkpt lat="44.702539249536166" lon="9.065705684631647"><ele>419.5</ele><time>2026-03-29T16:09:21.999Z</time></trkpt><trkpt lat="44.702612646982196" lon="9.065590959783059"><ele>419.25</ele><time>2026-03-29T16:09:22.999Z</time></trkpt><trkpt lat="44.702670402584374" lon="9.065449411483305"><ele>419.0</ele><time>2026-03-29T16:09:23.999Z</time></trkpt><trkpt lat="44.702719121612006" lon="9.065297738465782"><ele>419.75</ele><time>2026-03-29T16:09:24.999Z</time></trkpt><trkpt lat="44.70277700820669" lon="9.065162433256111"><ele>420.5</ele><time>2026-03-29T16:09:25.999Z</time></trkpt><trkpt lat="44.702859452020235" lon="9.065008151555528"><ele>421.25</ele><time>2026-03-29T16:09:26.999Z</time></trkpt><trkpt lat="44.702936806016915" lon="9.064827411537493"><ele>422.0</ele><time>2026-03-29T16:09:27.999Z</time></trkpt><trkpt lat="44.70300849489532" lon="9.064666183266919"><ele>422.0</ele><time>2026-03-29T16:09:28.999Z</time></trkpt><trkpt lat="44.70306448227576" lon="9.064486916864093"><ele>422.0</ele><time>2026-03-29T16:09:29.999Z</time></trkpt><trkpt lat="44.7031242151775" lon="9.064319040088648"><ele>422.0</ele><time>2026-03-29T16:09:30.999Z</time></trkpt><trkpt lat="44.70320380880946" lon="9.06416180637128"><ele>422.0</ele><time>2026-03-29T16:09:31.999Z</time></trkpt><trkpt lat="44.70331314451142" lon="9.064037364120251"><ele>422.0</ele><time>2026-03-29T16:09:32.999Z</time></trkpt><trkpt lat="44.703413302351834" lon="9.063892470087648"><ele>422.0</ele><time>2026-03-29T16:09:33.999Z</time></trkpt><trkpt lat="44.7035235716546" lon="9.063762091372004"><ele>422.0</ele><time>2026-03-29T16:09:34.999Z</time></trkpt><trkpt lat="44.70362837048191" lon="9.063612810794066"><ele>422.0</ele><time>2026-03-29T16:09:35.999Z</time></trkpt><trkpt lat="44.70373860517015" lon="9.063478497200293"><ele>422.0</ele><time>2026-03-29T16:09:36.999Z</time></trkpt><trkpt lat="44.703861894781575" lon="9.063368036659597"><ele>422.0</ele><time>2026-03-29T16:09:37.999Z</time></trkpt><trkpt lat="44.704005319414314" lon="9.06330010503177"><ele>422.0</ele><time>2026-03-29T16:09:38.998Z</time></trkpt><trkpt lat="44.70413791854085" lon="9.06319774643852"><ele>422.0</ele><time>2026-03-29T16:09:39.998Z</time></trkpt><trkpt lat="44.70427731508861" lon="9.063104969162609"><ele>422.0</ele><time>2026-03-29T16:09:40.998Z</time></trkpt><trkpt lat="44.7044086927952" lon="9.062981630212679"><ele>422.0</ele><time>2026-03-29T16:09:41.998Z</time></trkpt><trkpt lat="44.70453675190007" lon="9.062844827355173"><ele>422.0</ele><time>2026-03-29T16:09:42.998Z</time></trkpt><trkpt lat="44.70466283686324" lon="9.062716514273383"><ele>422.0</ele><time>2026-03-29T16:09:43.998Z</time></trkpt><trkpt lat="44.70478569362901" lon="9.062602404886917"><ele>422.0</ele><time>2026-03-29T16:09:44.998Z</time></trkpt><trkpt lat="44.70489196821424" lon="9.06249948147076"><ele>422.0</ele><time>2026-03-29T16:09:45.998Z</time></trkpt><trkpt lat="44.70498989389492" lon="9.062398836214816"><ele>422.0</ele><time>2026-03-29T16:09:46.998Z</time></trkpt><trkpt lat="44.705088429181835" lon="9.062293981735886"><ele>422.25</ele><time>2026-03-29T16:09:47.998Z</time></trkpt><trkpt lat="44.705191078266765" lon="9.062186675142566"><ele>422.5</ele><time>2026-03-29T16:09:48.998Z</time></trkpt><trkpt lat="44.70529239506277" lon="9.0620664658324"><ele>422.75</ele><time>2026-03-29T16:09:49.998Z</time></trkpt><trkpt lat="44.705391043297034" lon="9.06193325861775"><ele>423.0</ele><time>2026-03-29T16:09:50.998Z</time></trkpt><trkpt lat="44.70548379149236" lon="9.061783608537754"><ele>422.25</ele><time>2026-03-29T16:09:51.998Z</time></trkpt><trkpt lat="44.705560029244594" lon="9.061608216108159"><ele>421.5</ele><time>2026-03-29T16:09:52.998Z</time></trkpt><trkpt lat="44.705615124224636" lon="9.061408383601538"><ele>420.75</ele><time>2026-03-29T16:09:53.998Z</time></trkpt><trkpt lat="44.70565612138008" lon="9.061205187816919"><ele>420.0</ele><time>2026-03-29T16:09:54.998Z</time></trkpt><trkpt lat="44.70569987309701" lon="9.06100322060414"><ele>420.0</ele><time>2026-03-29T16:09:55.998Z</time></trkpt><trkpt lat="44.70575604648432" lon="9.06079959259921"><ele>420.0</ele><time>2026-03-29T16:09:56.998Z</time></trkpt><trkpt lat="44.70582664626854" lon="9.060592541581578"><ele>420.0</ele><time>2026-03-29T16:09:57.998Z</time></trkpt><trkpt lat="44.70590561179107" lon="9.060384240319802"><ele>420.66666666666663</ele><time>2026-03-29T16:09:58.998Z</time></trkpt><trkpt lat="44.70598906428444" lon="9.060170590393668"><ele>421.3333333333333</ele><time>2026-03-29T16:09:59.998Z</time></trkpt><trkpt lat="44.706080141105446" lon="9.059953024479821"><ele>422.0</ele><time>2026-03-29T16:10:00.998Z</time></trkpt><trkpt lat="44.706176679490646" lon="9.05973484757307"><ele>420.66666666666663</ele><time>2026-03-29T16:10:01.998Z</time></trkpt><trkpt lat="44.70627676314084" lon="9.059519358936214"><ele>419.33333333333337</ele><time>2026-03-29T16:10:02.998Z</time></trkpt><trkpt lat="44.70638026146526" lon="9.059302362281015"><ele>418.0</ele><time>2026-03-29T16:10:03.998Z</time></trkpt><trkpt lat="44.70649217087863" lon="9.059088819620838"><ele>415.33333333333337</ele><time>2026-03-29T16:10:04.998Z</time></trkpt><trkpt lat="44.70661132406766" lon="9.058897126107249"><ele>412.66666666666663</ele><time>2026-03-29T16:10:05.998Z</time></trkpt><trkpt lat="44.70673202110463" lon="9.05872999865341"><ele>410.0</ele><time>2026-03-29T16:10:06.998Z</time></trkpt><trkpt lat="44.7068483754839" lon="9.058577201992508"><ele>409.25</ele><time>2026-03-29T16:10:07.998Z</time></trkpt><trkpt lat="44.70695403111826" lon="9.058436590895653"><ele>408.5</ele><time>2026-03-29T16:10:09Z</time></trkpt><trkpt lat="44.70705755902224" lon="9.058308131260981"><ele>407.75</ele><time>2026-03-29T16:10:10Z</time></trkpt><trkpt lat="44.707161078424384" lon="9.05821775155606"><ele>407.0</ele><time>2026-03-29T16:10:11Z</time></trkpt><trkpt lat="44.70728176385053" lon="9.05817488707417"><ele>407.0</ele><time>2026-03-29T16:10:12Z</time></trkpt><trkpt lat="44.707413723162894" lon="9.058169632399661"><ele>407.0</ele><time>2026-03-29T16:10:13Z</time></trkpt><trkpt lat="44.70754702107633" lon="9.058176835158935"><ele>407.0</ele><time>2026-03-29T16:10:14Z</time></trkpt><trkpt lat="44.70767727931365" lon="9.05817541618247"><ele>407.0</ele><time>2026-03-29T16:10:15Z</time></trkpt><trkpt lat="44.70780219062477" lon="9.05815350529924"><ele>408.25</ele><time>2026-03-29T16:10:16Z</time></trkpt><trkpt lat="44.70792002109242" lon="9.058102215363595"><ele>409.5</ele><time>2026-03-29T16:10:17Z</time></trkpt><trkpt lat="44.708024041495285" lon="9.058009978618383"><ele>410.75</ele><time>2026-03-29T16:10:18Z</time></trkpt><trkpt lat="44.70811172243704" lon="9.057878384249657"><ele>412.0</ele><time>2026-03-29T16:10:19Z</time></trkpt><trkpt lat="44.7081805278987" lon="9.057711720724482"><ele>412.0</ele><time>2026-03-29T16:10:20Z</time></trkpt><trkpt lat="44.70824139379829" lon="9.057537883750555"><ele>412.0</ele><time>2026-03-29T16:10:21Z</time></trkpt><trkpt lat="44.70828915196484" lon="9.057342483007057"><ele>412.0</ele><time>2026-03-29T16:10:22Z</time></trkpt><trkpt lat="44.70834333358226" lon="9.057136233523769"><ele>412.0</ele><time>2026-03-29T16:10:23Z</time></trkpt><trkpt lat="44.70840588973025" lon="9.05692792592535"><ele>411.0</ele><time>2026-03-29T16:10:24Z</time></trkpt><trkpt lat="44.70848445861284" lon="9.056720370630277"><ele>410.0</ele><time>2026-03-29T16:10:25Z</time></trkpt><trkpt lat="44.70857209734241" lon="9.056509879809665"><ele>409.0</ele><time>2026-03-29T16:10:26Z</time></trkpt><trkpt lat="44.70866851447451" lon="9.056303887383812"><ele>409.0</ele><time>2026-03-29T16:10:27Z</time></trkpt><trkpt lat="44.70877303863061" lon="9.05609104863096"><ele>409.0</ele><time>2026-03-29T16:10:28Z</time></trkpt><trkpt lat="44.70887172549672" lon="9.055860214500273"><ele>409.0</ele><time>2026-03-29T16:10:29Z</time></trkpt><trkpt lat="44.70895698850392" lon="9.055615152364796"><ele>406.6666666666667</ele><time>2026-03-29T16:10:30Z</time></trkpt><trkpt lat="44.70903747045559" lon="9.055359388595502"><ele>404.33333333333337</ele><time>2026-03-29T16:10:31Z</time></trkpt><trkpt lat="44.709122030996745" lon="9.05511327790832"><ele>402.0</ele><time>2026-03-29T16:10:32Z</time></trkpt><trkpt lat="44.70923260956591" lon="9.054889060576158"><ele>401.66666666666663</ele><time>2026-03-29T16:10:32.999Z</time></trkpt><trkpt lat="44.7093596000725" lon="9.054673366311098"><ele>401.3333333333333</ele><time>2026-03-29T16:10:33.999Z</time></trkpt><trkpt lat="44.70950222014885" lon="9.05446451459066"><ele>401.0</ele><time>2026-03-29T16:10:34.999Z</time></trkpt><trkpt lat="44.70964855823777" lon="9.054265751269797"><ele>398.3333333333333</ele><time>2026-03-29T16:10:35.999Z</time></trkpt><trkpt lat="44.70979376796456" lon="9.054063811683413"><ele>395.66666666666663</ele><time>2026-03-29T16:10:36.999Z</time></trkpt><trkpt lat="44.7099338707324" lon="9.053861039602959"><ele>393.0</ele><time>2026-03-29T16:10:37.999Z</time></trkpt><trkpt lat="44.71006483368006" lon="9.053658801554816"><ele>393.0</ele><time>2026-03-29T16:10:38.999Z</time></trkpt><trkpt lat="44.71018411295513" lon="9.053471334860603"><ele>393.0</ele><time>2026-03-29T16:10:39.999Z</time></trkpt><trkpt lat="44.71030520024355" lon="9.053299892960265"><ele>393.0</ele><time>2026-03-29T16:10:40.999Z</time></trkpt><trkpt lat="44.71043348295087" lon="9.053138395233026"><ele>394.0</ele><time>2026-03-29T16:10:41.999Z</time></trkpt><trkpt lat="44.71055047556786" lon="9.052965595148383"><ele>395.0</ele><time>2026-03-29T16:10:42.999Z</time></trkpt><trkpt lat="44.710641997342286" lon="9.052783714925585"><ele>396.0</ele><time>2026-03-29T16:10:43.999Z</time></trkpt><trkpt lat="44.71070863318751" lon="9.05258764137318"><ele>394.75</ele><time>2026-03-29T16:10:44.999Z</time></trkpt><trkpt lat="44.71075107307817" lon="9.052397058906308"><ele>393.5</ele><time>2026-03-29T16:10:45.999Z</time></trkpt><trkpt lat="44.710779900735005" lon="9.052221292340699"><ele>392.25</ele><time>2026-03-29T16:10:46.999Z</time></trkpt><trkpt lat="44.710828744014755" lon="9.052088754325498"><ele>391.0</ele><time>2026-03-29T16:10:47.999Z</time></trkpt><trkpt lat="44.71088485616546" lon="9.05197356617719"><ele>391.0</ele><time>2026-03-29T16:10:48.999Z</time></trkpt><trkpt lat="44.71099092097003" lon="9.051919860689544"><ele>391.0</ele><time>2026-03-29T16:10:49.999Z</time></trkpt><trkpt lat="44.71110697893296" lon="9.05185328610649"><ele>391.0</ele><time>2026-03-29T16:10:50.999Z</time></trkpt><trkpt lat="44.71121932583729" lon="9.051734389798034"><ele>391.0</ele><time>2026-03-29T16:10:51.999Z</time></trkpt><trkpt lat="44.71133859426566" lon="9.051602114964119"><ele>390.0</ele><time>2026-03-29T16:10:52.999Z</time></trkpt><trkpt lat="44.71145785939069" lon="9.051433239023215"><ele>389.0</ele><time>2026-03-29T16:10:53.999Z</time></trkpt><trkpt lat="44.71158083291814" lon="9.051273312412192"><ele>388.0</ele><time>2026-03-29T16:10:54.999Z</time></trkpt><trkpt lat="44.71170847081538" lon="9.051096888866493"><ele>388.0</ele><time>2026-03-29T16:10:55.999Z</time></trkpt><trkpt lat="44.7118471887776" lon="9.050912641947681"><ele>388.0</ele><time>2026-03-29T16:10:56.999Z</time></trkpt><trkpt lat="44.71197037694911" lon="9.050669518153157"><ele>388.0</ele><time>2026-03-29T16:10:57.999Z</time></trkpt><trkpt lat="44.71208571990493" lon="9.050415215780104"><ele>388.0</ele><time>2026-03-29T16:10:58.999Z</time></trkpt><trkpt lat="44.71220388309495" lon="9.05015036166014"><ele>388.0</ele><time>2026-03-29T16:10:59.999Z</time></trkpt><trkpt lat="44.712310423649924" lon="9.04987518060961"><ele>388.0</ele><time>2026-03-29T16:11:00.999Z</time></trkpt><trkpt lat="44.71242470456265" lon="9.049633535707901"><ele>386.6666666666667</ele><time>2026-03-29T16:11:01.999Z</time></trkpt><trkpt lat="44.712525899756386" lon="9.049402906189151"><ele>385.33333333333337</ele><time>2026-03-29T16:11:02.999Z</time></trkpt><trkpt lat="44.71262287859835" lon="9.049194186086442"><ele>384.0</ele><time>2026-03-29T16:11:03.999Z</time></trkpt><trkpt lat="44.712730480269926" lon="9.04901022418083"><ele>382.6666666666667</ele><time>2026-03-29T16:11:04.999Z</time></trkpt><trkpt lat="44.712854760370156" lon="9.048836926906"><ele>381.33333333333337</ele><time>2026-03-29T16:11:05.999Z</time></trkpt><trkpt lat="44.713002905327706" lon="9.04869042404203"><ele>380.0</ele><time>2026-03-29T16:11:06.999Z</time></trkpt><trkpt lat="44.71317550834173" lon="9.048569957650333"><ele>380.0</ele><time>2026-03-29T16:11:07.999Z</time></trkpt><trkpt lat="44.71335959115446" lon="9.04846903078662"><ele>380.0</ele><time>2026-03-29T16:11:08.999Z</time></trkpt><trkpt lat="44.71355254300687" lon="9.04836767981093"><ele>380.0</ele><time>2026-03-29T16:11:09.999Z</time></trkpt><trkpt lat="44.71375410112383" lon="9.048249254300329"><ele>380.0</ele><time>2026-03-29T16:11:10.999Z</time></trkpt><trkpt lat="44.71395789166852" lon="9.048129051491939"><ele>380.0</ele><time>2026-03-29T16:11:11.999Z</time></trkpt><trkpt lat="44.71416464026878" lon="9.048007159396132"><ele>380.0</ele><time>2026-03-29T16:11:12.999Z</time></trkpt><trkpt lat="44.71436320290946" lon="9.04788542374737"><ele>380.6666666666667</ele><time>2026-03-29T16:11:13.999Z</time></trkpt><trkpt lat="44.71455050661608" lon="9.047772787999856"><ele>381.3333333333333</ele><time>2026-03-29T16:11:14.999Z</time></trkpt><trkpt lat="44.714730885026995" lon="9.047665459170853"><ele>382.0</ele><time>2026-03-29T16:11:15.999Z</time></trkpt><trkpt lat="44.71490945574679" lon="9.047558038539641"><ele>381.66666666666663</ele><time>2026-03-29T16:11:16.999Z</time></trkpt><trkpt lat="44.71508417648095" lon="9.047459975667229"><ele>381.3333333333333</ele><time>2026-03-29T16:11:17.999Z</time></trkpt><trkpt lat="44.71526130610561" lon="9.047376029870827"><ele>381.0</ele><time>2026-03-29T16:11:18.999Z</time></trkpt><trkpt lat="44.71544140245683" lon="9.047313644106298"><ele>381.0</ele><time>2026-03-29T16:11:19.999Z</time></trkpt><trkpt lat="44.715624181993874" lon="9.047253641927389"><ele>381.0</ele><time>2026-03-29T16:11:20.999Z</time></trkpt><trkpt lat="44.71580528136185" lon="9.047195829276463"><ele>381.0</ele><time>2026-03-29T16:11:21.999Z</time></trkpt><trkpt lat="44.71598790926159" lon="9.04713470203686"><ele>382.0</ele><time>2026-03-29T16:11:22.999Z</time></trkpt><trkpt lat="44.716168913887834" lon="9.04707318956117"><ele>383.0</ele><time>2026-03-29T16:11:23.999Z</time></trkpt><trkpt lat="44.71634683897096" lon="9.047012059733975"><ele>384.0</ele><time>2026-03-29T16:11:24.999Z</time></trkpt><trkpt lat="44.71651620229125" lon="9.046948067510515"><ele>384.0</ele><time>2026-03-29T16:11:25.999Z</time></trkpt><trkpt lat="44.716673757989284" lon="9.04688365107115"><ele>384.0</ele><time>2026-03-29T16:11:26.999Z</time></trkpt><trkpt lat="44.716825399999884" lon="9.046813025197714"><ele>384.0</ele><time>2026-03-29T16:11:27.999Z</time></trkpt><trkpt lat="44.71697809595499" lon="9.046730543862665"><ele>383.0</ele><time>2026-03-29T16:11:28.999Z</time></trkpt><trkpt lat="44.717127838466375" lon="9.046627072344418"><ele>382.0</ele><time>2026-03-29T16:11:29.999Z</time></trkpt><trkpt lat="44.71727486772142" lon="9.046505239760519"><ele>381.0</ele><time>2026-03-29T16:11:30.999Z</time></trkpt><trkpt lat="44.717411987779975" lon="9.046384571773576"><ele>381.0</ele><time>2026-03-29T16:11:31.999Z</time></trkpt><trkpt lat="44.717548138048684" lon="9.046279466808908"><ele>381.0</ele><time>2026-03-29T16:11:32.999Z</time></trkpt><trkpt lat="44.71767762807643" lon="9.046182440377784"><ele>381.0</ele><time>2026-03-29T16:11:33.999Z</time></trkpt><trkpt lat="44.71780402323219" lon="9.046086907886446"><ele>381.0</ele><time>2026-03-29T16:11:34.999Z</time></trkpt><trkpt lat="44.717925829043146" lon="9.045998855976485"><ele>381.0</ele><time>2026-03-29T16:11:35.999Z</time></trkpt><trkpt lat="44.718039762930246" lon="9.045911371012826"><ele>381.0</ele><time>2026-03-29T16:11:36.999Z</time></trkpt><trkpt lat="44.71815307918868" lon="9.045829714762444"><ele>381.0</ele><time>2026-03-29T16:11:37.999Z</time></trkpt><trkpt lat="44.71826684514296" lon="9.045745043484288"><ele>381.0</ele><time>2026-03-29T16:11:38.999Z</time></trkpt><trkpt lat="44.71838107068258" lon="9.045655287372053"><ele>381.0</ele><time>2026-03-29T16:11:39.999Z</time></trkpt><trkpt lat="44.7184805629795" lon="9.04555592336549"><ele>381.0</ele><time>2026-03-29T16:11:40.999Z</time></trkpt><trkpt lat="44.71857010238299" lon="9.045456368940346"><ele>381.0</ele><time>2026-03-29T16:11:41.999Z</time></trkpt><trkpt lat="44.71861838682155" lon="9.04528709228876"><ele>381.0</ele><time>2026-03-29T16:11:42.999Z</time></trkpt><trkpt lat="44.71866438108074" lon="9.045133751610509"><ele>381.0</ele><time>2026-03-29T16:11:43.998Z</time></trkpt><trkpt lat="44.718702257172154" lon="9.04497738348099"><ele>381.0</ele><time>2026-03-29T16:11:44.998Z</time></trkpt><trkpt lat="44.71873304660533" lon="9.044820266192442"><ele>381.0</ele><time>2026-03-29T16:11:45.998Z</time></trkpt><trkpt lat="44.71875811973105" lon="9.044668257115177"><ele>381.0</ele><time>2026-03-29T16:11:46.998Z</time></trkpt><trkpt lat="44.7187722494929" lon="9.044522510875918"><ele>381.0</ele><time>2026-03-29T16:11:47.998Z</time></trkpt><trkpt lat="44.71878115815611" lon="9.044383033032858"><ele>380.20000000000005</ele><time>2026-03-29T16:11:48.998Z</time></trkpt><trkpt lat="44.718807930840704" lon="9.044248912183324"><ele>379.40000000000003</ele><time>2026-03-29T16:11:49.998Z</time></trkpt><trkpt lat="44.71887612152992" lon="9.044140638935238"><ele>378.6</ele><time>2026-03-29T16:11:50.998Z</time></trkpt><trkpt lat="44.718971906085734" lon="9.044066815678603"><ele>377.8</ele><time>2026-03-29T16:11:51.998Z</time></trkpt><trkpt lat="44.71908836129552" lon="9.044033083138373"><ele>377.0</ele><time>2026-03-29T16:11:52.998Z</time></trkpt><trkpt lat="44.71921905903936" lon="9.044030800821973"><ele>375.75</ele><time>2026-03-29T16:11:53.998Z</time></trkpt><trkpt lat="44.71935138341942" lon="9.044029272682282"><ele>374.5</ele><time>2026-03-29T16:11:54.998Z</time></trkpt><trkpt lat="44.719495125648024" lon="9.04402649604712"><ele>373.25</ele><time>2026-03-29T16:11:55.998Z</time></trkpt><trkpt lat="44.71964950573607" lon="9.044029396789576"><ele>372.0</ele><time>2026-03-29T16:11:56.998Z</time></trkpt><trkpt lat="44.719809388425986" lon="9.044016245772589"><ele>371.3333333333333</ele><time>2026-03-29T16:11:57.998Z</time></trkpt><trkpt lat="44.7199729905991" lon="9.044005967843642"><ele>370.66666666666663</ele><time>2026-03-29T16:11:58.998Z</time></trkpt><trkpt lat="44.72013300330346" lon="9.044004493715683"><ele>370.0</ele><time>2026-03-29T16:11:59.998Z</time></trkpt><trkpt lat="44.72029328514488" lon="9.043987401242777"><ele>370.0</ele><time>2026-03-29T16:12:00.998Z</time></trkpt><trkpt lat="44.720454607831236" lon="9.043942459243667"><ele>370.0</ele><time>2026-03-29T16:12:01.998Z</time></trkpt><trkpt lat="44.72061389620529" lon="9.043856804578935"><ele>370.0</ele><time>2026-03-29T16:12:02.998Z</time></trkpt><trkpt lat="44.72077203934259" lon="9.043746578324551"><ele>370.0</ele><time>2026-03-29T16:12:03.998Z</time></trkpt><trkpt lat="44.72093248049492" lon="9.043638870768884"><ele>370.0</ele><time>2026-03-29T16:12:04.998Z</time></trkpt><trkpt lat="44.72110313866356" lon="9.04352656296886"><ele>370.0</ele><time>2026-03-29T16:12:05.998Z</time></trkpt><trkpt lat="44.721273459983" lon="9.043406556176196"><ele>369.66666666666663</ele><time>2026-03-29T16:12:06.998Z</time></trkpt><trkpt lat="44.72144371180395" lon="9.043265688630974"><ele>369.3333333333333</ele><time>2026-03-29T16:12:07.998Z</time></trkpt><trkpt lat="44.72160939970879" lon="9.043097794359433"><ele>369.0</ele><time>2026-03-29T16:12:08.998Z</time></trkpt><trkpt lat="44.72176370083881" lon="9.042901460476648"><ele>369.3333333333333</ele><time>2026-03-29T16:12:09.998Z</time></trkpt><trkpt lat="44.72191047333438" lon="9.04268933564468"><ele>369.66666666666663</ele><time>2026-03-29T16:12:10.998Z</time></trkpt><trkpt lat="44.72205702181682" lon="9.042471537526573"><ele>370.0</ele><time>2026-03-29T16:12:11.998Z</time></trkpt><trkpt lat="44.7222081225017" lon="9.042267358173108"><ele>370.0</ele><time>2026-03-29T16:12:12.998Z</time></trkpt><trkpt lat="44.7223600829533" lon="9.042078027467994"><ele>370.0</ele><time>2026-03-29T16:12:13.998Z</time></trkpt><trkpt lat="44.7225044707855" lon="9.041909830866778"><ele>370.0</ele><time>2026-03-29T16:12:15Z</time></trkpt><trkpt lat="44.722641851495055" lon="9.041756519914161"><ele>369.66666666666663</ele><time>2026-03-29T16:12:16Z</time></trkpt><trkpt lat="44.72278284672505" lon="9.041615093378057"><ele>369.3333333333333</ele><time>2026-03-29T16:12:17Z</time></trkpt><trkpt lat="44.72293358468753" lon="9.041469783096298"><ele>369.0</ele><time>2026-03-29T16:12:18Z</time></trkpt><trkpt lat="44.72308751052377" lon="9.041324470728144"><ele>369.0</ele><time>2026-03-29T16:12:19Z</time></trkpt><trkpt lat="44.7232443687295" lon="9.041168789662889"><ele>369.0</ele><time>2026-03-29T16:12:20Z</time></trkpt><trkpt lat="44.72340446333304" lon="9.041006354219986"><ele>369.0</ele><time>2026-03-29T16:12:21Z</time></trkpt><trkpt lat="44.72357528890639" lon="9.040837081207988"><ele>368.6666666666667</ele><time>2026-03-29T16:12:22Z</time></trkpt><trkpt lat="44.723756588097025" lon="9.040664322998701"><ele>368.33333333333337</ele><time>2026-03-29T16:12:23Z</time></trkpt><trkpt lat="44.723934368178156" lon="9.040482397123478"><ele>368.0</ele><time>2026-03-29T16:12:24Z</time></trkpt><trkpt lat="44.724111060023915" lon="9.04029178275692"><ele>368.0</ele><time>2026-03-29T16:12:25Z</time></trkpt><trkpt lat="44.724291009199966" lon="9.04009057381875"><ele>368.0</ele><time>2026-03-29T16:12:26Z</time></trkpt><trkpt lat="44.724473105048816" lon="9.039875960027873"><ele>367.5</ele><time>2026-03-29T16:12:27Z</time></trkpt><trkpt lat="44.72465332903489" lon="9.039658154926448"><ele>367.0</ele><time>2026-03-29T16:12:28Z</time></trkpt><trkpt lat="44.72482823102586" lon="9.039440046000749"><ele>367.0</ele><time>2026-03-29T16:12:29Z</time></trkpt><trkpt lat="44.72500518925544" lon="9.039222295241116"><ele>367.0</ele><time>2026-03-29T16:12:30Z</time></trkpt><trkpt lat="44.725175730950056" lon="9.039013302271979"><ele>366.66666666666663</ele><time>2026-03-29T16:12:31Z</time></trkpt><trkpt lat="44.72534288292018" lon="9.03882039253123"><ele>366.3333333333333</ele><time>2026-03-29T16:12:32Z</time></trkpt><trkpt lat="44.725500428087486" lon="9.038632266807"><ele>366.0</ele><time>2026-03-29T16:12:33Z</time></trkpt><trkpt lat="44.72566098905574" lon="9.038432694063381"><ele>365.3333333333333</ele><time>2026-03-29T16:12:34Z</time></trkpt><trkpt lat="44.725818926195835" lon="9.0382309817228"><ele>364.66666666666663</ele><time>2026-03-29T16:12:35Z</time></trkpt><trkpt lat="44.725978468598306" lon="9.038031132512115"><ele>364.0</ele><time>2026-03-29T16:12:36Z</time></trkpt><trkpt lat="44.726140959898025" lon="9.037835549508541"><ele>364.0</ele><time>2026-03-29T16:12:37Z</time></trkpt><trkpt lat="44.72630668938715" lon="9.037645464349216"><ele>364.0</ele><time>2026-03-29T16:12:38Z</time></trkpt><trkpt lat="44.72647519094329" lon="9.037467355719365"><ele>364.0</ele><time>2026-03-29T16:12:39Z</time></trkpt><trkpt lat="44.72664972728238" lon="9.03730497235119"><ele>362.3333333333333</ele><time>2026-03-29T16:12:39.999Z</time></trkpt><trkpt lat="44.726833847008606" lon="9.037164561579013"><ele>360.6666666666667</ele><time>2026-03-29T16:12:40.999Z</time></trkpt><trkpt lat="44.7270212104305" lon="9.037030256722511"><ele>359.0</ele><time>2026-03-29T16:12:41.999Z</time></trkpt><trkpt lat="44.72720854260018" lon="9.0368989073383"><ele>359.0</ele><time>2026-03-29T16:12:42.999Z</time></trkpt><trkpt lat="44.72738762783976" lon="9.036789372081497"><ele>359.0</ele><time>2026-03-29T16:12:43.999Z</time></trkpt><trkpt lat="44.72755355468209" lon="9.036692528113608"><ele>359.0</ele><time>2026-03-29T16:12:44.999Z</time></trkpt><trkpt lat="44.727699813956505" lon="9.036602956967661"><ele>361.25</ele><time>2026-03-29T16:12:45.999Z</time></trkpt><trkpt lat="44.7278267938232" lon="9.036517930159638"><ele>363.5</ele><time>2026-03-29T16:12:46.999Z</time></trkpt><trkpt lat="44.72794336465142" lon="9.036441033572096"><ele>365.75</ele><time>2026-03-29T16:12:47.999Z</time></trkpt><trkpt lat="44.72804816294081" lon="9.036348894647444"><ele>368.0</ele><time>2026-03-29T16:12:48.999Z</time></trkpt><trkpt lat="44.72812524178472" lon="9.036219686330679"><ele>368.0</ele><time>2026-03-29T16:12:49.999Z</time></trkpt><trkpt lat="44.72818160343032" lon="9.03605875775077"><ele>368.0</ele><time>2026-03-29T16:12:50.999Z</time></trkpt><trkpt lat="44.7282100107495" lon="9.03586673915741"><ele>368.0</ele><time>2026-03-29T16:12:51.999Z</time></trkpt><trkpt lat="44.728223638489936" lon="9.03565661744522"><ele>368.0</ele><time>2026-03-29T16:12:52.999Z</time></trkpt><trkpt lat="44.72821594008508" lon="9.035428219797359"><ele>369.0</ele><time>2026-03-29T16:12:53.999Z</time></trkpt><trkpt lat="44.72820133808904" lon="9.035194653453384"><ele>370.0</ele><time>2026-03-29T16:12:54.999Z</time></trkpt><trkpt lat="44.72819298075542" lon="9.034951659632133"><ele>371.0</ele><time>2026-03-29T16:12:55.999Z</time></trkpt><trkpt lat="44.728182023468506" lon="9.034702754101998"><ele>371.33333333333337</ele><time>2026-03-29T16:12:56.999Z</time></trkpt><trkpt lat="44.72816131222536" lon="9.03445124969646"><ele>371.6666666666667</ele><time>2026-03-29T16:12:57.999Z</time></trkpt><trkpt lat="44.728124159507686" lon="9.034196214962996"><ele>372.0</ele><time>2026-03-29T16:12:58.999Z</time></trkpt><trkpt lat="44.72808994156569" lon="9.033933919447414"><ele>374.0</ele><time>2026-03-29T16:12:59.999Z</time></trkpt><trkpt lat="44.72805568462135" lon="9.033667012230142"><ele>376.0</ele><time>2026-03-29T16:13:00.999Z</time></trkpt><trkpt lat="44.728020432374926" lon="9.033388083835998"><ele>378.0</ele><time>2026-03-29T16:13:01.999Z</time></trkpt><trkpt lat="44.72798206912594" lon="9.033098626186932"><ele>378.6666666666667</ele><time>2026-03-29T16:13:02.999Z</time></trkpt><trkpt lat="44.72794103110884" lon="9.032804869368743"><ele>379.33333333333337</ele><time>2026-03-29T16:13:03.999Z</time></trkpt><trkpt lat="44.72789896102711" lon="9.032512623768634"><ele>380.0</ele><time>2026-03-29T16:13:04.999Z</time></trkpt><trkpt lat="44.72785774526619" lon="9.032236261508489"><ele>382.6666666666667</ele><time>2026-03-29T16:13:05.999Z</time></trkpt><trkpt lat="44.727817152059735" lon="9.031988625874996"><ele>385.33333333333337</ele><time>2026-03-29T16:13:06.999Z</time></trkpt><trkpt lat="44.72777226024875" lon="9.031762517028904"><ele>388.0</ele><time>2026-03-29T16:13:07.999Z</time></trkpt><trkpt lat="44.72771743404446" lon="9.031572678413337"><ele>394.0</ele><time>2026-03-29T16:13:08.999Z</time></trkpt><trkpt lat="44.72764396228433" lon="9.031409271530269"><ele>400.0</ele><time>2026-03-29T16:13:09.999Z</time></trkpt><trkpt lat="44.727536313155184" lon="9.03126871233606"><ele>406.0</ele><time>2026-03-29T16:13:10.999Z</time></trkpt><trkpt lat="44.72740349680777" lon="9.031163183218107"><ele>412.0</ele><time>2026-03-29T16:13:11.999Z</time></trkpt><trkpt lat="44.727253814389556" lon="9.031099026627391"><ele>412.0</ele><time>2026-03-29T16:13:12.999Z</time></trkpt><trkpt lat="44.72709646389777" lon="9.031058269010757"><ele>412.0</ele><time>2026-03-29T16:13:13.999Z</time></trkpt><trkpt lat="44.72693801792281" lon="9.031036446329729"><ele>412.0</ele><time>2026-03-29T16:13:14.999Z</time></trkpt><trkpt lat="44.72680277631336" lon="9.031017927251632"><ele>413.0</ele><time>2026-03-29T16:13:15.999Z</time></trkpt><trkpt lat="44.72669544397035" lon="9.030998727243187"><ele>414.0</ele><time>2026-03-29T16:13:16.999Z</time></trkpt><trkpt lat="44.726599430054776" lon="9.030950790627191"><ele>415.0</ele><time>2026-03-29T16:13:17.999Z</time></trkpt><trkpt lat="44.72651261065527" lon="9.030842657120443"><ele>416.0</ele><time>2026-03-29T16:13:18.999Z</time></trkpt><trkpt lat="44.7264536121683" lon="9.030681415746985"><ele>416.0</ele><time>2026-03-29T16:13:19.999Z</time></trkpt><trkpt lat="44.72640311410342" lon="9.030502919763997"><ele>416.0</ele><time>2026-03-29T16:13:20.999Z</time></trkpt><trkpt lat="44.72632735155479" lon="9.03035184764131"><ele>416.0</ele><time>2026-03-29T16:13:21.999Z</time></trkpt><trkpt lat="44.72621236363848" lon="9.030207931707698"><ele>416.0</ele><time>2026-03-29T16:13:22.999Z</time></trkpt><trkpt lat="44.72609034713836" lon="9.0300669326112"><ele>413.0</ele><time>2026-03-29T16:13:23.999Z</time></trkpt><trkpt lat="44.72598708919175" lon="9.029903369019646"><ele>410.0</ele><time>2026-03-29T16:13:24.999Z</time></trkpt><trkpt lat="44.72586877709367" lon="9.02975163726268"><ele>407.0</ele><time>2026-03-29T16:13:25.999Z</time></trkpt><trkpt lat="44.72573045340102" lon="9.029641119343147"><ele>407.0</ele><time>2026-03-29T16:13:26.999Z</time></trkpt><trkpt lat="44.72557905480996" lon="9.02955473354117"><ele>407.0</ele><time>2026-03-29T16:13:27.999Z</time></trkpt><trkpt lat="44.72542679776523" lon="9.029481737758763"><ele>407.0</ele><time>2026-03-29T16:13:28.999Z</time></trkpt><trkpt lat="44.725300660893204" lon="9.029416416655186"><ele>400.6</ele><time>2026-03-29T16:13:29.999Z</time></trkpt><trkpt lat="44.725209783037215" lon="9.029340667386878"><ele>394.20000000000005</ele><time>2026-03-29T16:13:30.999Z</time></trkpt><trkpt lat="44.72515239407886" lon="9.029246316729726"><ele>387.8</ele><time>2026-03-29T16:13:31.999Z</time></trkpt><trkpt lat="44.72513061357127" lon="9.029132486962654"><ele>381.4</ele><time>2026-03-29T16:13:32.999Z</time></trkpt><trkpt lat="44.72514265943878" lon="9.02900240523371"><ele>375.0</ele><time>2026-03-29T16:13:33.999Z</time></trkpt><trkpt lat="44.725179264006194" lon="9.02887065927269"><ele>383.75</ele><time>2026-03-29T16:13:34.999Z</time></trkpt><trkpt lat="44.72524258873361" lon="9.028743494462878"><ele>392.5</ele><time>2026-03-29T16:13:35.999Z</time></trkpt><trkpt lat="44.725328959673604" lon="9.02861384447436"><ele>401.25</ele><time>2026-03-29T16:13:36.999Z</time></trkpt><trkpt lat="44.72541279031622" lon="9.028463229752122"><ele>410.0</ele><time>2026-03-29T16:13:37.999Z</time></trkpt><trkpt lat="44.72549886502179" lon="9.028293609667184"><ele>410.0</ele><time>2026-03-29T16:13:38.999Z</time></trkpt><trkpt lat="44.72558403728638" lon="9.028122601165785"><ele>410.0</ele><time>2026-03-29T16:13:39.999Z</time></trkpt><trkpt lat="44.72564627433879" lon="9.027943029375308"><ele>410.0</ele><time>2026-03-29T16:13:40.999Z</time></trkpt><trkpt lat="44.725675677579986" lon="9.027732513285372"><ele>410.0</ele><time>2026-03-29T16:13:41.999Z</time></trkpt><trkpt lat="44.725681221456334" lon="9.027505317645046"><ele>410.5</ele><time>2026-03-29T16:13:42.999Z</time></trkpt><trkpt lat="44.72568091312271" lon="9.027279489385009"><ele>411.0</ele><time>2026-03-29T16:13:43.999Z</time></trkpt><trkpt lat="44.725681852818596" lon="9.027057897273098"><ele>411.5</ele><time>2026-03-29T16:13:44.999Z</time></trkpt><trkpt lat="44.72566089781611" lon="9.026885497896275"><ele>412.0</ele><time>2026-03-29T16:13:45.999Z</time></trkpt><trkpt lat="44.72561948824399" lon="9.026711040467308"><ele>417.33333333333337</ele><time>2026-03-29T16:13:46.999Z</time></trkpt><trkpt lat="44.725539398315625" lon="9.026535308708464"><ele>422.66666666666663</ele><time>2026-03-29T16:13:47.999Z</time></trkpt><trkpt lat="44.72543526932322" lon="9.026365360176548"><ele>428.0</ele><time>2026-03-29T16:13:48.999Z</time></trkpt><trkpt lat="44.72532933880085" lon="9.026194330190723"><ele>428.0</ele><time>2026-03-29T16:13:49.999Z</time></trkpt><trkpt lat="44.72523568121351" lon="9.026014151970724"><ele>428.0</ele><time>2026-03-29T16:13:50.999Z</time></trkpt><trkpt lat="44.72514459930968" lon="9.025837116823475"><ele>428.0</ele><time>2026-03-29T16:13:51.998Z</time></trkpt><trkpt lat="44.72505918310457" lon="9.025677185032587"><ele>417.25</ele><time>2026-03-29T16:13:52.998Z</time></trkpt><trkpt lat="44.72497604043301" lon="9.025527340193854"><ele>406.5</ele><time>2026-03-29T16:13:53.998Z</time></trkpt><trkpt lat="44.72490092388335" lon="9.025378129791553"><ele>395.75</ele><time>2026-03-29T16:13:54.998Z</time></trkpt><trkpt lat="44.72483339989724" lon="9.02523762733367"><ele>385.0</ele><time>2026-03-29T16:13:55.998Z</time></trkpt><trkpt lat="44.724773272454776" lon="9.02510026897097"><ele>388.4</ele><time>2026-03-29T16:13:56.998Z</time></trkpt><trkpt lat="44.72472018767967" lon="9.024968402032545"><ele>391.8</ele><time>2026-03-29T16:13:57.998Z</time></trkpt><trkpt lat="44.72466715872619" lon="9.024845782377772"><ele>395.20000000000005</ele><time>2026-03-29T16:13:58.998Z</time></trkpt><trkpt lat="44.724619015538806" lon="9.02472806682472"><ele>398.6</ele><time>2026-03-29T16:13:59.998Z</time></trkpt><trkpt lat="44.724574516518345" lon="9.024622874203065"><ele>402.0</ele><time>2026-03-29T16:14:00.998Z</time></trkpt><trkpt lat="44.724534599347486" lon="9.024527063237397"><ele>402.0</ele><time>2026-03-29T16:14:01.998Z</time></trkpt><trkpt lat="44.72449789062895" lon="9.02443955096636"><ele>402.0</ele><time>2026-03-29T16:14:02.998Z</time></trkpt><trkpt lat="44.7244631799485" lon="9.024356348360454"><ele>402.0</ele><time>2026-03-29T16:14:03.998Z</time></trkpt><trkpt lat="44.72440534126172" lon="9.02421690217551"><ele>402.0</ele><time>2026-03-29T16:14:05.998Z</time></trkpt><trkpt lat="44.72436852396061" lon="9.024141062619321"><ele>402.0</ele><time>2026-03-29T16:14:42.999Z</time></trkpt><trkpt lat="44.72431503202313" lon="9.024017125483416"><ele>402.0</ele><time>2026-03-29T16:14:44.999Z</time></trkpt><trkpt lat="44.72427467336573" lon="9.023929559539908"><ele>403.40000000000003</ele><time>2026-03-29T16:14:45.999Z</time></trkpt><trkpt lat="44.72423041215842" lon="9.023824672457103"><ele>404.8</ele><time>2026-03-29T16:14:46.999Z</time></trkpt><trkpt lat="44.72413775997539" lon="9.023752758200152"><ele>406.2</ele><time>2026-03-29T16:14:47.999Z</time></trkpt><trkpt lat="44.72404220225234" lon="9.023712258586519"><ele>407.6</ele><time>2026-03-29T16:14:48.999Z</time></trkpt><trkpt lat="44.72395382162796" lon="9.02367451666534"><ele>409.0</ele><time>2026-03-29T16:14:49.999Z</time></trkpt><trkpt lat="44.72385533688876" lon="9.023633173091653"><ele>409.0</ele><time>2026-03-29T16:14:50.999Z</time></trkpt><trkpt lat="44.723749324980076" lon="9.02358738460464"><ele>409.0</ele><time>2026-03-29T16:14:51.999Z</time></trkpt><trkpt lat="44.72363861403803" lon="9.02353699184697"><ele>409.0</ele><time>2026-03-29T16:14:52.999Z</time></trkpt><trkpt lat="44.723517589061935" lon="9.023489314058892"><ele>409.0</ele><time>2026-03-29T16:14:53.999Z</time></trkpt><trkpt lat="44.72339810482598" lon="9.023391665233778"><ele>412.0</ele><time>2026-03-29T16:14:54.999Z</time></trkpt><trkpt lat="44.72328169874662" lon="9.023274566617484"><ele>415.0</ele><time>2026-03-29T16:14:55.999Z</time></trkpt><trkpt lat="44.72316831393579" lon="9.023156789692354"><ele>418.0</ele><time>2026-03-29T16:14:56.999Z</time></trkpt><trkpt lat="44.72306143989516" lon="9.023007375557281"><ele>421.0</ele><time>2026-03-29T16:14:57.999Z</time></trkpt><trkpt lat="44.72296318219719" lon="9.022858279344778"><ele>421.0</ele><time>2026-03-29T16:14:58.999Z</time></trkpt><trkpt lat="44.72286581217397" lon="9.02271100119327"><ele>421.0</ele><time>2026-03-29T16:14:59.999Z</time></trkpt><trkpt lat="44.72276107144875" lon="9.022580408622735"><ele>421.0</ele><time>2026-03-29T16:15:00.999Z</time></trkpt><trkpt lat="44.722657839661835" lon="9.022489564059178"><ele>421.0</ele><time>2026-03-29T16:15:01.999Z</time></trkpt><trkpt lat="44.72253075529474" lon="9.022424042273158"><ele>421.0</ele><time>2026-03-29T16:15:02.999Z</time></trkpt><trkpt lat="44.72240139215381" lon="9.02237065823304"><ele>421.0</ele><time>2026-03-29T16:15:03.999Z</time></trkpt><trkpt lat="44.72228411289729" lon="9.022284015628932"><ele>421.0</ele><time>2026-03-29T16:15:04.999Z</time></trkpt><trkpt lat="44.7221759889839" lon="9.022144710486952"><ele>421.0</ele><time>2026-03-29T16:15:05.999Z</time></trkpt><trkpt lat="44.722069400210586" lon="9.021980021047547"><ele>421.0</ele><time>2026-03-29T16:15:06.999Z</time></trkpt><trkpt lat="44.721952388494586" lon="9.021809202480995"><ele>421.0</ele><time>2026-03-29T16:15:07.999Z</time></trkpt><trkpt lat="44.721838634799916" lon="9.021670790313166"><ele>421.0</ele><time>2026-03-29T16:15:08.999Z</time></trkpt><trkpt lat="44.72172872425751" lon="9.021582932541751"><ele>421.0</ele><time>2026-03-29T16:15:09.999Z</time></trkpt><trkpt lat="44.721607855014675" lon="9.0215346719894"><ele>422.25</ele><time>2026-03-29T16:15:10.999Z</time></trkpt><trkpt lat="44.721479575249745" lon="9.021509897856916"><ele>423.5</ele><time>2026-03-29T16:15:11.999Z</time></trkpt><trkpt lat="44.721357906345936" lon="9.021430311890837"><ele>424.75</ele><time>2026-03-29T16:15:12.999Z</time></trkpt><trkpt lat="44.721267480971505" lon="9.02129535540304"><ele>426.0</ele><time>2026-03-29T16:15:13.999Z</time></trkpt><trkpt lat="44.72117707969953" lon="9.021138000430755"><ele>426.0</ele><time>2026-03-29T16:15:14.999Z</time></trkpt><trkpt lat="44.72106843317114" lon="9.021027253120156"><ele>426.0</ele><time>2026-03-29T16:15:15.999Z</time></trkpt><trkpt lat="44.72090041109551" lon="9.020994781076743"><ele>426.0</ele><time>2026-03-29T16:15:16.999Z</time></trkpt><trkpt lat="44.72075044626073" lon="9.020941691482463"><ele>425.33333333333337</ele><time>2026-03-29T16:15:17.999Z</time></trkpt><trkpt lat="44.72061465144929" lon="9.020837086567692"><ele>424.6666666666667</ele><time>2026-03-29T16:15:18.999Z</time></trkpt><trkpt lat="44.720486450225636" lon="9.02068139554786"><ele>424.0</ele><time>2026-03-29T16:15:19.999Z</time></trkpt><trkpt lat="44.720359345950676" lon="9.02049378902921"><ele>424.0</ele><time>2026-03-29T16:15:20.999Z</time></trkpt><trkpt lat="44.72023480733733" lon="9.02029792684373"><ele>424.0</ele><time>2026-03-29T16:15:21.999Z</time></trkpt><trkpt lat="44.72010018590438" lon="9.02010792831352"><ele>424.0</ele><time>2026-03-29T16:15:22.999Z</time></trkpt><trkpt lat="44.71996284144693" lon="9.019925534401967"><ele>422.33333333333337</ele><time>2026-03-29T16:15:23.999Z</time></trkpt><trkpt lat="44.71982531141615" lon="9.01977508542575"><ele>420.66666666666663</ele><time>2026-03-29T16:15:24.999Z</time></trkpt><trkpt lat="44.719672850246674" lon="9.019656691053497"><ele>419.0</ele><time>2026-03-29T16:15:25.999Z</time></trkpt><trkpt lat="44.719514726104165" lon="9.019548056953143"><ele>414.0</ele><time>2026-03-29T16:15:26.999Z</time></trkpt><trkpt lat="44.719368759515156" lon="9.019430516898412"><ele>409.0</ele><time>2026-03-29T16:15:27.999Z</time></trkpt><trkpt lat="44.71923272216969" lon="9.019287155865582"><ele>404.0</ele><time>2026-03-29T16:15:28.999Z</time></trkpt><trkpt lat="44.71910059077919" lon="9.019115677231431"><ele>404.0</ele><time>2026-03-29T16:15:29.999Z</time></trkpt><trkpt lat="44.71897265189822" lon="9.01892910985159"><ele>404.0</ele><time>2026-03-29T16:15:30.999Z</time></trkpt><trkpt lat="44.71885880231408" lon="9.01874041222523"><ele>404.0</ele><time>2026-03-29T16:15:31.999Z</time></trkpt><trkpt lat="44.718754494682045" lon="9.018538371319611"><ele>404.0</ele><time>2026-03-29T16:15:32.999Z</time></trkpt><trkpt lat="44.71866660544224" lon="9.018334007809237"><ele>404.0</ele><time>2026-03-29T16:15:33.999Z</time></trkpt><trkpt lat="44.718590612726025" lon="9.018144187162022"><ele>404.0</ele><time>2026-03-29T16:15:34.999Z</time></trkpt><trkpt lat="44.71854067221097" lon="9.01796354391585"><ele>408.5</ele><time>2026-03-29T16:15:35.999Z</time></trkpt><trkpt lat="44.718525428520174" lon="9.017773596665041"><ele>413.0</ele><time>2026-03-29T16:15:36.999Z</time></trkpt><trkpt lat="44.71853616037595" lon="9.017568097613127"><ele>417.5</ele><time>2026-03-29T16:15:37.999Z</time></trkpt><trkpt lat="44.71855113921587" lon="9.017367593832114"><ele>422.0</ele><time>2026-03-29T16:15:38.999Z</time></trkpt><trkpt lat="44.7185940604408" lon="9.017185904817325"><ele>422.0</ele><time>2026-03-29T16:15:39.999Z</time></trkpt><trkpt lat="44.71863280376377" lon="9.01702804883818"><ele>422.0</ele><time>2026-03-29T16:15:40.999Z</time></trkpt><trkpt lat="44.71864957574419" lon="9.016874455160096"><ele>422.0</ele><time>2026-03-29T16:15:41.999Z</time></trkpt><trkpt lat="44.71865527216468" lon="9.016727731497653"><ele>422.0</ele><time>2026-03-29T16:15:42.999Z</time></trkpt><trkpt lat="44.71865740949534" lon="9.016610958850565"><ele>422.0</ele><time>2026-03-29T16:15:43.999Z</time></trkpt><trkpt lat="44.718658711513754" lon="9.01652146257333"><ele>422.6</ele><time>2026-03-29T16:15:44.999Z</time></trkpt><trkpt lat="44.71865808213346" lon="9.01640180943215"><ele>423.20000000000005</ele><time>2026-03-29T16:15:46.999Z</time></trkpt><trkpt lat="44.71865463116797" lon="9.016293284949311"><ele>423.8</ele><time>2026-03-29T16:15:49.999Z</time></trkpt><trkpt lat="44.71865617204544" lon="9.016197721976553"><ele>424.4</ele><time>2026-03-29T16:15:53.999Z</time></trkpt><trkpt lat="44.71863048036333" lon="9.016070119574044"><ele>425.0</ele><time>2026-03-29T16:23:29.999Z</time></trkpt><trkpt lat="44.71861749857539" lon="9.015877873040596"><ele>425.4</ele><time>2026-03-29T16:23:31.999Z</time></trkpt><trkpt lat="44.71861173528879" lon="9.015751866976547"><ele>425.8</ele><time>2026-03-29T16:23:32.999Z</time></trkpt><trkpt lat="44.71859332927959" lon="9.015607770778102"><ele>426.20000000000005</ele><time>2026-03-29T16:23:33.999Z</time></trkpt><trkpt lat="44.718568329367756" lon="9.015450614671778"><ele>426.6</ele><time>2026-03-29T16:23:34.999Z</time></trkpt><trkpt lat="44.71855129647062" lon="9.015298865900817"><ele>427.0</ele><time>2026-03-29T16:23:35.999Z</time></trkpt><trkpt lat="44.71854350494586" lon="9.01512660631852"><ele>412.25</ele><time>2026-03-29T16:23:36.999Z</time></trkpt><trkpt lat="44.71854547052258" lon="9.014942800788825"><ele>397.5</ele><time>2026-03-29T16:23:37.999Z</time></trkpt><trkpt lat="44.71854572048555" lon="9.014758397085664"><ele>382.75</ele><time>2026-03-29T16:23:38.999Z</time></trkpt><trkpt lat="44.718542106656294" lon="9.014583884647632"><ele>368.0</ele><time>2026-03-29T16:23:39.999Z</time></trkpt><trkpt lat="44.71853815051231" lon="9.014420346583"><ele>368.0</ele><time>2026-03-29T16:23:40.999Z</time></trkpt><trkpt lat="44.718528688943195" lon="9.014272749276786"><ele>368.0</ele><time>2026-03-29T16:23:41.999Z</time></trkpt><trkpt lat="44.71849504384396" lon="9.014109605139957"><ele>368.0</ele><time>2026-03-29T16:23:42.999Z</time></trkpt><trkpt lat="44.718434626413185" lon="9.013961984412555"><ele>368.0</ele><time>2026-03-29T16:23:43.999Z</time></trkpt><trkpt lat="44.71836234037764" lon="9.013808520254086"><ele>369.0</ele><time>2026-03-29T16:23:44.999Z</time></trkpt><trkpt lat="44.718286489344166" lon="9.013654774769213"><ele>370.0</ele><time>2026-03-29T16:23:45.999Z</time></trkpt><trkpt lat="44.71825265797994" lon="9.013498033211286"><ele>371.0</ele><time>2026-03-29T16:23:46.999Z</time></trkpt><trkpt lat="44.71824238086381" lon="9.013343203999735"><ele>372.0</ele><time>2026-03-29T16:23:47.999Z</time></trkpt><trkpt lat="44.71825383468864" lon="9.013169418477778"><ele>368.0</ele><time>2026-03-29T16:23:48.999Z</time></trkpt><trkpt lat="44.718289466517334" lon="9.012979012526754"><ele>364.0</ele><time>2026-03-29T16:23:49.999Z</time></trkpt><trkpt lat="44.718325373103724" lon="9.012782706700277"><ele>360.0</ele><time>2026-03-29T16:23:50.999Z</time></trkpt><trkpt lat="44.71836943725106" lon="9.012582893878418"><ele>356.0</ele><time>2026-03-29T16:23:51.999Z</time></trkpt><trkpt lat="44.71842182086739" lon="9.012419733499408"><ele>357.5</ele><time>2026-03-29T16:23:52.999Z</time></trkpt><trkpt lat="44.71848970457099" lon="9.012296717860979"><ele>359.0</ele><time>2026-03-29T16:23:53.999Z</time></trkpt><trkpt lat="44.7185923097742" lon="9.012230715584863"><ele>360.5</ele><time>2026-03-29T16:23:54.999Z</time></trkpt><trkpt lat="44.718720415440536" lon="9.012208639687689"><ele>362.0</ele><time>2026-03-29T16:23:55.999Z</time></trkpt><trkpt lat="44.71886638077447" lon="9.012179842327129"><ele>362.0</ele><time>2026-03-29T16:23:56.999Z</time></trkpt><trkpt lat="44.719006144744476" lon="9.012098524266262"><ele>362.0</ele><time>2026-03-29T16:23:57.999Z</time></trkpt><trkpt lat="44.719152594033645" lon="9.01196909585584"><ele>362.0</ele><time>2026-03-29T16:23:58.999Z</time></trkpt><trkpt lat="44.719246469195674" lon="9.011812314224846"><ele>361.33333333333337</ele><time>2026-03-29T16:23:59.999Z</time></trkpt><trkpt lat="44.719358459959786" lon="9.011654791067798"><ele>360.6666666666667</ele><time>2026-03-29T16:24:00.999Z</time></trkpt><trkpt lat="44.7194810545712" lon="9.011487596982514"><ele>360.0</ele><time>2026-03-29T16:24:01.999Z</time></trkpt><trkpt lat="44.71959983171887" lon="9.011333508148768"><ele>360.0</ele><time>2026-03-29T16:24:02.999Z</time></trkpt><trkpt lat="44.719715690987364" lon="9.011205816243459"><ele>360.0</ele><time>2026-03-29T16:24:03.999Z</time></trkpt><trkpt lat="44.71984124052363" lon="9.011113085768887"><ele>360.0</ele><time>2026-03-29T16:24:04.999Z</time></trkpt><trkpt lat="44.71998532408988" lon="9.011053069181454"><ele>360.0</ele><time>2026-03-29T16:24:05.999Z</time></trkpt><trkpt lat="44.72013674953558" lon="9.011020742485467"><ele>358.25</ele><time>2026-03-29T16:24:06.999Z</time></trkpt><trkpt lat="44.72026623785176" lon="9.01097698243406"><ele>356.5</ele><time>2026-03-29T16:24:07.999Z</time></trkpt><trkpt lat="44.72038421675326" lon="9.010877299646324"><ele>354.75</ele><time>2026-03-29T16:24:08.999Z</time></trkpt><trkpt lat="44.72049928207837" lon="9.010728392329442"><ele>353.0</ele><time>2026-03-29T16:24:09.999Z</time></trkpt><trkpt lat="44.7206021977047" lon="9.010551146133057"><ele>353.0</ele><time>2026-03-29T16:24:10.999Z</time></trkpt><trkpt lat="44.720704932703946" lon="9.010356901493225"><ele>353.0</ele><time>2026-03-29T16:24:11.999Z</time></trkpt><trkpt lat="44.72080159206915" lon="9.01015494602228"><ele>353.0</ele><time>2026-03-29T16:24:12.999Z</time></trkpt><trkpt lat="44.72087464832112" lon="9.009933873525119"><ele>350.33333333333337</ele><time>2026-03-29T16:24:13.999Z</time></trkpt><trkpt lat="44.72092931930054" lon="9.009697925982529"><ele>347.6666666666667</ele><time>2026-03-29T16:24:14.999Z</time></trkpt><trkpt lat="44.720966249876504" lon="9.009458104942032"><ele>345.0</ele><time>2026-03-29T16:24:15.999Z</time></trkpt><trkpt lat="44.720980157989025" lon="9.009230504951692"><ele>346.6666666666667</ele><time>2026-03-29T16:24:16.999Z</time></trkpt><trkpt lat="44.720978339371015" lon="9.009008114925603"><ele>348.33333333333337</ele><time>2026-03-29T16:24:17.999Z</time></trkpt><trkpt lat="44.72094674261921" lon="9.00877536619903"><ele>350.0</ele><time>2026-03-29T16:24:18.999Z</time></trkpt><trkpt lat="44.720904123775455" lon="9.008532321867374"><ele>352.6666666666667</ele><time>2026-03-29T16:24:19.999Z</time></trkpt><trkpt lat="44.720855175765536" lon="9.008294283951177"><ele>355.3333333333333</ele><time>2026-03-29T16:24:20.998Z</time></trkpt><trkpt lat="44.72080679060463" lon="9.008058983217799"><ele>358.0</ele><time>2026-03-29T16:24:21.998Z</time></trkpt><trkpt lat="44.720667390858004" lon="9.007881514561864"><ele>358.0</ele><time>2026-03-29T16:24:22.998Z</time></trkpt><trkpt lat="44.72064166175646" lon="9.007650891848531"><ele>358.0</ele><time>2026-03-29T16:24:23.998Z</time></trkpt><trkpt lat="44.72064976573212" lon="9.00740084573618"><ele>358.0</ele><time>2026-03-29T16:24:24.998Z</time></trkpt><trkpt lat="44.720650767019634" lon="9.007149436654549"><ele>360.0</ele><time>2026-03-29T16:24:25.998Z</time></trkpt><trkpt lat="44.72063714346411" lon="9.006895167888354"><ele>362.0</ele><time>2026-03-29T16:24:26.998Z</time></trkpt><trkpt lat="44.72065031813379" lon="9.0066654685553"><ele>364.0</ele><time>2026-03-29T16:24:27.998Z</time></trkpt><trkpt lat="44.72068451666459" lon="9.006448461484206"><ele>364.3333333333333</ele><time>2026-03-29T16:24:28.998Z</time></trkpt><trkpt lat="44.72072227500559" lon="9.006244137345032"><ele>364.6666666666667</ele><time>2026-03-29T16:24:29.998Z</time></trkpt><trkpt lat="44.720722028667815" lon="9.006029446701204"><ele>365.0</ele><time>2026-03-29T16:24:30.998Z</time></trkpt><trkpt lat="44.720677244072114" lon="9.005798163920916"><ele>361.6666666666667</ele><time>2026-03-29T16:24:31.998Z</time></trkpt><trkpt lat="44.72060971982918" lon="9.005568553831992"><ele>358.3333333333333</ele><time>2026-03-29T16:24:32.998Z</time></trkpt><trkpt lat="44.72054762344844" lon="9.00534619718539"><ele>355.0</ele><time>2026-03-29T16:24:33.998Z</time></trkpt><trkpt lat="44.72051468566278" lon="9.005127402992686"><ele>352.0</ele><time>2026-03-29T16:24:34.998Z</time></trkpt><trkpt lat="44.72052053446705" lon="9.004901162764645"><ele>349.0</ele><time>2026-03-29T16:24:35.998Z</time></trkpt><trkpt lat="44.72054307662056" lon="9.004676691529644"><ele>346.0</ele><time>2026-03-29T16:24:36.998Z</time></trkpt><trkpt lat="44.72058603721496" lon="9.004480770972602"><ele>346.0</ele><time>2026-03-29T16:24:37.998Z</time></trkpt><trkpt lat="44.72062066367856" lon="9.004295956522213"><ele>346.0</ele><time>2026-03-29T16:24:38.998Z</time></trkpt><trkpt lat="44.72063562080081" lon="9.00413429340572"><ele>346.0</ele><time>2026-03-29T16:24:39.998Z</time></trkpt><trkpt lat="44.72063817572451" lon="9.00396881430008"><ele>346.0</ele><time>2026-03-29T16:24:40.998Z</time></trkpt><trkpt lat="44.72060885321425" lon="9.003799581411782"><ele>352.66666666666663</ele><time>2026-03-29T16:24:41.998Z</time></trkpt><trkpt lat="44.72053914591688" lon="9.003622587463845"><ele>359.3333333333333</ele><time>2026-03-29T16:24:42.998Z</time></trkpt><trkpt lat="44.720459780954" lon="9.003435982581532"><ele>366.0</ele><time>2026-03-29T16:24:43.998Z</time></trkpt><trkpt lat="44.72038798525407" lon="9.003232766091605"><ele>371.6666666666667</ele><time>2026-03-29T16:24:44.998Z</time></trkpt><trkpt lat="44.72033328541299" lon="9.003019248343568"><ele>377.33333333333337</ele><time>2026-03-29T16:24:45.998Z</time></trkpt><trkpt lat="44.72030136041003" lon="9.002786201548737"><ele>383.0</ele><time>2026-03-29T16:24:46.998Z</time></trkpt><trkpt lat="44.7202881364307" lon="9.002553382781386"><ele>384.6666666666667</ele><time>2026-03-29T16:24:47.998Z</time></trkpt><trkpt lat="44.72026434229397" lon="9.002342151416872"><ele>386.33333333333337</ele><time>2026-03-29T16:24:49Z</time></trkpt><trkpt lat="44.720196531027504" lon="9.00213262522878"><ele>388.0</ele><time>2026-03-29T16:24:50Z</time></trkpt><trkpt lat="44.7201013137823" lon="9.001924597715634"><ele>380.0</ele><time>2026-03-29T16:24:51Z</time></trkpt><trkpt lat="44.719989395030396" lon="9.001713048229776"><ele>372.0</ele><time>2026-03-29T16:24:52Z</time></trkpt><trkpt lat="44.719864233962504" lon="9.001492329394232"><ele>364.0</ele><time>2026-03-29T16:24:53Z</time></trkpt><trkpt lat="44.719740403946794" lon="9.00128148893064"><ele>364.0</ele><time>2026-03-29T16:24:54Z</time></trkpt><trkpt lat="44.71961874527828" lon="9.001078648815463"><ele>364.0</ele><time>2026-03-29T16:24:55Z</time></trkpt><trkpt lat="44.71950702457369" lon="9.000882617365903"><ele>364.0</ele><time>2026-03-29T16:24:56Z</time></trkpt><trkpt lat="44.719414509785175" lon="9.000684871483084"><ele>356.0</ele><time>2026-03-29T16:24:57Z</time></trkpt><trkpt lat="44.719360208715514" lon="9.000475184218734"><ele>348.0</ele><time>2026-03-29T16:24:58Z</time></trkpt><trkpt lat="44.71934491677965" lon="9.000254403959115"><ele>340.0</ele><time>2026-03-29T16:24:59Z</time></trkpt><trkpt lat="44.719362438425804" lon="9.000019973151186"><ele>352.0</ele><time>2026-03-29T16:25:00Z</time></trkpt><trkpt lat="44.71940225894305" lon="8.999777913892194"><ele>364.0</ele><time>2026-03-29T16:25:01Z</time></trkpt><trkpt lat="44.71945711786311" lon="8.99953218673207"><ele>376.0</ele><time>2026-03-29T16:25:02Z</time></trkpt><trkpt lat="44.71950935824467" lon="8.999271080922647"><ele>376.66666666666663</ele><time>2026-03-29T16:25:03Z</time></trkpt><trkpt lat="44.71953850327437" lon="8.99901331444322"><ele>377.3333333333333</ele><time>2026-03-29T16:25:04Z</time></trkpt><trkpt lat="44.719546933562484" lon="8.998732595025006"><ele>378.0</ele><time>2026-03-29T16:25:05Z</time></trkpt><trkpt lat="44.71954894942612" lon="8.99845790210128"><ele>374.0</ele><time>2026-03-29T16:25:06Z</time></trkpt><trkpt lat="44.71956724984703" lon="8.9982133490178"><ele>370.0</ele><time>2026-03-29T16:25:07Z</time></trkpt><trkpt lat="44.719583850454065" lon="8.997969349683329"><ele>366.0</ele><time>2026-03-29T16:25:08Z</time></trkpt><trkpt lat="44.71960930472562" lon="8.99772762975802"><ele>362.6666666666667</ele><time>2026-03-29T16:25:09Z</time></trkpt><trkpt lat="44.719656534524525" lon="8.997497430550764"><ele>359.33333333333337</ele><time>2026-03-29T16:25:10Z</time></trkpt><trkpt lat="44.719730722157635" lon="8.997286359851593"><ele>356.0</ele><time>2026-03-29T16:25:11Z</time></trkpt><trkpt lat="44.71983044495449" lon="8.997087477675928"><ele>356.0</ele><time>2026-03-29T16:25:12Z</time></trkpt><trkpt lat="44.71995593458303" lon="8.99691476170617"><ele>356.0</ele><time>2026-03-29T16:25:13Z</time></trkpt><trkpt lat="44.72010549083474" lon="8.996757408818574"><ele>356.0</ele><time>2026-03-29T16:25:14Z</time></trkpt><trkpt lat="44.72026629512189" lon="8.996610390237318"><ele>360.0</ele><time>2026-03-29T16:25:15Z</time></trkpt><trkpt lat="44.72043498947298" lon="8.996464770490515"><ele>364.0</ele><time>2026-03-29T16:25:16Z</time></trkpt><trkpt lat="44.72061162055451" lon="8.996314003930099"><ele>368.0</ele><time>2026-03-29T16:25:17Z</time></trkpt><trkpt lat="44.72078770979869" lon="8.99615615589499"><ele>368.0</ele><time>2026-03-29T16:25:17.999Z</time></trkpt><trkpt lat="44.72096046131901" lon="8.99598745080131"><ele>368.0</ele><time>2026-03-29T16:25:18.999Z</time></trkpt><trkpt lat="44.7211292210995" lon="8.995794147866642"><ele>368.0</ele><time>2026-03-29T16:25:19.999Z</time></trkpt><trkpt lat="44.72129358333096" lon="8.99559404417604"><ele>366.33333333333337</ele><time>2026-03-29T16:25:20.999Z</time></trkpt><trkpt lat="44.721451634951144" lon="8.995383259173538"><ele>364.6666666666667</ele><time>2026-03-29T16:25:21.999Z</time></trkpt><trkpt lat="44.72160822519886" lon="8.995175368700938"><ele>363.0</ele><time>2026-03-29T16:25:22.999Z</time></trkpt><trkpt lat="44.721759117610134" lon="8.994977656065473"><ele>361.6666666666667</ele><time>2026-03-29T16:25:23.999Z</time></trkpt><trkpt lat="44.72190360173863" lon="8.994795560454945"><ele>360.33333333333337</ele><time>2026-03-29T16:25:24.999Z</time></trkpt><trkpt lat="44.722042641448255" lon="8.994626285435892"><ele>359.0</ele><time>2026-03-29T16:25:25.999Z</time></trkpt><trkpt lat="44.72218589937983" lon="8.994479704792033"><ele>359.0</ele><time>2026-03-29T16:25:26.999Z</time></trkpt><trkpt lat="44.7223502561307" lon="8.994370399761925"><ele>359.0</ele><time>2026-03-29T16:25:27.999Z</time></trkpt><trkpt lat="44.72252749127413" lon="8.994313254709526"><ele>359.0</ele><time>2026-03-29T16:25:28.999Z</time></trkpt><trkpt lat="44.722706530683965" lon="8.994272516210117"><ele>361.6666666666667</ele><time>2026-03-29T16:25:29.999Z</time></trkpt><trkpt lat="44.722877704538675" lon="8.994202119657242"><ele>364.3333333333333</ele><time>2026-03-29T16:25:30.999Z</time></trkpt><trkpt lat="44.72302840050688" lon="8.99410346733128"><ele>367.0</ele><time>2026-03-29T16:25:31.999Z</time></trkpt><trkpt lat="44.72316490074276" lon="8.994002549777528"><ele>363.6</ele><time>2026-03-29T16:25:32.999Z</time></trkpt><trkpt lat="44.72327503886102" lon="8.993927406453128"><ele>360.20000000000005</ele><time>2026-03-29T16:25:33.999Z</time></trkpt><trkpt lat="44.72335422149027" lon="8.993852795126184"><ele>356.8</ele><time>2026-03-29T16:25:34.999Z</time></trkpt><trkpt lat="44.723401527780354" lon="8.993751879844424"><ele>353.4</ele><time>2026-03-29T16:25:35.999Z</time></trkpt><trkpt lat="44.7234168317426" lon="8.99364081673563"><ele>350.0</ele><time>2026-03-29T16:25:36.999Z</time></trkpt><trkpt lat="44.723402353116356" lon="8.993510516489753"><ele>350.0</ele><time>2026-03-29T16:25:37.999Z</time></trkpt><trkpt lat="44.723349538388675" lon="8.993359505051385"><ele>350.0</ele><time>2026-03-29T16:25:38.999Z</time></trkpt><trkpt lat="44.72325553782217" lon="8.99317965769369"><ele>350.0</ele><time>2026-03-29T16:25:39.999Z</time></trkpt><trkpt lat="44.72318092940119" lon="8.993010585720144"><ele>350.0</ele><time>2026-03-29T16:25:40.999Z</time></trkpt><trkpt lat="44.72306793507712" lon="8.992834517482965"><ele>351.5</ele><time>2026-03-29T16:25:41.999Z</time></trkpt><trkpt lat="44.722960192033064" lon="8.992672222529126"><ele>353.0</ele><time>2026-03-29T16:25:42.999Z</time></trkpt><trkpt lat="44.722864046979424" lon="8.992541297946111"><ele>354.5</ele><time>2026-03-29T16:25:43.999Z</time></trkpt><trkpt lat="44.72279044875541" lon="8.99238426409563"><ele>356.0</ele><time>2026-03-29T16:25:44.999Z</time></trkpt><trkpt lat="44.72274931488959" lon="8.992189790088782"><ele>360.0</ele><time>2026-03-29T16:25:45.999Z</time></trkpt><trkpt lat="44.72274223369752" lon="8.991964941482413"><ele>364.0</ele><time>2026-03-29T16:25:46.999Z</time></trkpt><trkpt lat="44.722760013320645" lon="8.99173285135659"><ele>368.0</ele><time>2026-03-29T16:25:47.999Z</time></trkpt><trkpt lat="44.72278845609864" lon="8.991506494278642"><ele>368.0</ele><time>2026-03-29T16:25:48.999Z</time></trkpt><trkpt lat="44.722835366965484" lon="8.991284350369257"><ele>368.0</ele><time>2026-03-29T16:25:49.999Z</time></trkpt><trkpt lat="44.722938907425515" lon="8.991069005759286"><ele>368.0</ele><time>2026-03-29T16:25:50.999Z</time></trkpt><trkpt lat="44.723051698917416" lon="8.990859745530443"><ele>362.33333333333337</ele><time>2026-03-29T16:25:51.999Z</time></trkpt><trkpt lat="44.72315180367308" lon="8.990628337549095"><ele>356.6666666666667</ele><time>2026-03-29T16:25:52.999Z</time></trkpt><trkpt lat="44.723210943067386" lon="8.990347321803439"><ele>351.0</ele><time>2026-03-29T16:25:53.999Z</time></trkpt><trkpt lat="44.723246676099635" lon="8.990049319673371"><ele>348.0</ele><time>2026-03-29T16:25:54.999Z</time></trkpt><trkpt lat="44.723280631806375" lon="8.989742312544672"><ele>345.0</ele><time>2026-03-29T16:25:55.999Z</time></trkpt><trkpt lat="44.72333721392547" lon="8.989422625793436"><ele>343.0</ele><time>2026-03-29T16:25:56.999Z</time></trkpt><trkpt lat="44.723408876274135" lon="8.989095545538857"><ele>341.0</ele><time>2026-03-29T16:25:57.999Z</time></trkpt><trkpt lat="44.723484559431114" lon="8.988764289728588"><ele>341.0</ele><time>2026-03-29T16:25:58.999Z</time></trkpt><trkpt lat="44.723557863753676" lon="8.988430189809653"><ele>341.0</ele><time>2026-03-29T16:25:59.999Z</time></trkpt><trkpt lat="44.723630030539404" lon="8.988104479879938"><ele>346.0</ele><time>2026-03-29T16:26:00.999Z</time></trkpt><trkpt lat="44.72369658594575" lon="8.98780740776842"><ele>351.0</ele><time>2026-03-29T16:26:01.999Z</time></trkpt><trkpt lat="44.72376149861443" lon="8.98752265056119"><ele>356.0</ele><time>2026-03-29T16:26:02.999Z</time></trkpt><trkpt lat="44.723836596014884" lon="8.987255113044087"><ele>356.0</ele><time>2026-03-29T16:26:03.999Z</time></trkpt><trkpt lat="44.7238920524639" lon="8.986988489628192"><ele>356.0</ele><time>2026-03-29T16:26:04.999Z</time></trkpt><trkpt lat="44.72398331397675" lon="8.98680691835946"><ele>356.0</ele><time>2026-03-29T16:26:05.999Z</time></trkpt><trkpt lat="44.724076214442555" lon="8.986665098435514"><ele>352.5</ele><time>2026-03-29T16:26:06.999Z</time></trkpt><trkpt lat="44.72419205220076" lon="8.986592468470178"><ele>349.0</ele><time>2026-03-29T16:26:07.999Z</time></trkpt><trkpt lat="44.72432860900576" lon="8.98651756522261"><ele>345.5</ele><time>2026-03-29T16:26:08.999Z</time></trkpt><trkpt lat="44.72444545698545" lon="8.986387486864206"><ele>342.0</ele><time>2026-03-29T16:26:09.999Z</time></trkpt><trkpt lat="44.72456897829843" lon="8.98626330946511"><ele>347.6666666666667</ele><time>2026-03-29T16:26:10.999Z</time></trkpt><trkpt lat="44.72465620606733" lon="8.986075191721277"><ele>353.33333333333337</ele><time>2026-03-29T16:26:11.999Z</time></trkpt><trkpt lat="44.72471411423532" lon="8.985838957264901"><ele>359.0</ele><time>2026-03-29T16:26:12.999Z</time></trkpt><trkpt lat="44.724761006532454" lon="8.9855771055509"><ele>359.0</ele><time>2026-03-29T16:26:13.999Z</time></trkpt><trkpt lat="44.72481989626521" lon="8.985305715157944"><ele>359.0</ele><time>2026-03-29T16:26:14.999Z</time></trkpt><trkpt lat="44.7248916285354" lon="8.985028690206892"><ele>359.0</ele><time>2026-03-29T16:26:15.999Z</time></trkpt><trkpt lat="44.72496630030401" lon="8.984745041026509"><ele>357.6666666666667</ele><time>2026-03-29T16:26:16.999Z</time></trkpt><trkpt lat="44.72504812123445" lon="8.98445823374135"><ele>356.3333333333333</ele><time>2026-03-29T16:26:17.999Z</time></trkpt><trkpt lat="44.72513917158243" lon="8.984184462757932"><ele>355.0</ele><time>2026-03-29T16:26:18.999Z</time></trkpt><trkpt lat="44.72523957917903" lon="8.983907909205174"><ele>355.0</ele><time>2026-03-29T16:26:19.998Z</time></trkpt><trkpt lat="44.725348758143554" lon="8.983628013232602"><ele>355.0</ele><time>2026-03-29T16:26:20.998Z</time></trkpt><trkpt lat="44.725454790859914" lon="8.983364364696907"><ele>355.0</ele><time>2026-03-29T16:26:21.998Z</time></trkpt><trkpt lat="44.72558799907656" lon="8.983122940361127"><ele>349.0</ele><time>2026-03-29T16:26:22.998Z</time></trkpt><trkpt lat="44.725713791547975" lon="8.982878726948373"><ele>343.0</ele><time>2026-03-29T16:26:23.998Z</time></trkpt><trkpt lat="44.725833563681675" lon="8.982647557640416"><ele>337.0</ele><time>2026-03-29T16:26:24.998Z</time></trkpt><trkpt lat="44.72593572638258" lon="8.98241488977185"><ele>338.3333333333333</ele><time>2026-03-29T16:26:25.998Z</time></trkpt><trkpt lat="44.72604587340448" lon="8.982223137044937"><ele>339.6666666666667</ele><time>2026-03-29T16:26:26.998Z</time></trkpt><trkpt lat="44.72617427422532" lon="8.982065618400878"><ele>341.0</ele><time>2026-03-29T16:26:27.998Z</time></trkpt><trkpt lat="44.72630723898103" lon="8.981933980433968"><ele>341.0</ele><time>2026-03-29T16:26:28.998Z</time></trkpt><trkpt lat="44.726461866797884" lon="8.981816284180386"><ele>341.0</ele><time>2026-03-29T16:26:29.998Z</time></trkpt><trkpt lat="44.72662003464424" lon="8.981691843898417"><ele>341.0</ele><time>2026-03-29T16:26:30.998Z</time></trkpt><trkpt lat="44.72677263261242" lon="8.981537309854303"><ele>340.0</ele><time>2026-03-29T16:26:31.998Z</time></trkpt><trkpt lat="44.72691391667967" lon="8.98137229793235"><ele>339.0</ele><time>2026-03-29T16:26:32.998Z</time></trkpt><trkpt lat="44.727028206543544" lon="8.98115280198416"><ele>338.0</ele><time>2026-03-29T16:26:33.998Z</time></trkpt><trkpt lat="44.72713183199259" lon="8.98090859460005"><ele>334.33333333333337</ele><time>2026-03-29T16:26:34.998Z</time></trkpt><trkpt lat="44.72724028601904" lon="8.980661371349404"><ele>330.6666666666667</ele><time>2026-03-29T16:26:35.998Z</time></trkpt><trkpt lat="44.72735067983025" lon="8.980433144269519"><ele>327.0</ele><time>2026-03-29T16:26:36.998Z</time></trkpt><trkpt lat="44.72745827400178" lon="8.980221727552134"><ele>327.0</ele><time>2026-03-29T16:26:37.998Z</time></trkpt><trkpt lat="44.72755062252641" lon="8.980022971983026"><ele>327.0</ele><time>2026-03-29T16:26:38.998Z</time></trkpt><trkpt lat="44.72761358684088" lon="8.9798195098339"><ele>327.0</ele><time>2026-03-29T16:26:39.998Z</time></trkpt><trkpt lat="44.727630722519706" lon="8.979595056302534"><ele>325.0</ele><time>2026-03-29T16:26:40.998Z</time></trkpt><trkpt lat="44.7276058113129" lon="8.979343417360534"><ele>323.0</ele><time>2026-03-29T16:26:41.998Z</time></trkpt><trkpt lat="44.72755445832493" lon="8.979078426914732"><ele>321.0</ele><time>2026-03-29T16:26:42.998Z</time></trkpt><trkpt lat="44.72750641964567" lon="8.978801390312954"><ele>320.0</ele><time>2026-03-29T16:26:43.998Z</time></trkpt><trkpt lat="44.727459818089265" lon="8.978507817597198"><ele>319.0</ele><time>2026-03-29T16:26:44.998Z</time></trkpt><trkpt lat="44.727416556196395" lon="8.978217216906096"><ele>318.0</ele><time>2026-03-29T16:26:45.998Z</time></trkpt><trkpt lat="44.72737267586596" lon="8.977938490382547"><ele>317.6666666666667</ele><time>2026-03-29T16:26:46.998Z</time></trkpt><trkpt lat="44.72733433644348" lon="8.977677983539365"><ele>317.33333333333337</ele><time>2026-03-29T16:26:47.998Z</time></trkpt><trkpt lat="44.727297018264615" lon="8.977436013522839"><ele>317.0</ele><time>2026-03-29T16:26:48.998Z</time></trkpt><trkpt lat="44.727262891782004" lon="8.977215865389613"><ele>317.0</ele><time>2026-03-29T16:26:49.998Z</time></trkpt><trkpt lat="44.72724285679579" lon="8.977024408569767"><ele>317.0</ele><time>2026-03-29T16:26:50.998Z</time></trkpt><trkpt lat="44.72725004845428" lon="8.976832583504118"><ele>317.0</ele><time>2026-03-29T16:26:51.998Z</time></trkpt><trkpt lat="44.727287534620594" lon="8.976623553739962"><ele>317.0</ele><time>2026-03-29T16:26:52.998Z</time></trkpt><trkpt lat="44.727340325818915" lon="8.976404449645301"><ele>316.5</ele><time>2026-03-29T16:26:54Z</time></trkpt><trkpt lat="44.7273867090325" lon="8.976183739702963"><ele>316.0</ele><time>2026-03-29T16:26:55Z</time></trkpt><trkpt lat="44.727422832201334" lon="8.97597931814425"><ele>315.5</ele><time>2026-03-29T16:26:56Z</time></trkpt><trkpt lat="44.727481252793034" lon="8.975811221400889"><ele>315.0</ele><time>2026-03-29T16:26:57Z</time></trkpt><trkpt lat="44.727539675255386" lon="8.975666745696214"><ele>314.4</ele><time>2026-03-29T16:26:58Z</time></trkpt><trkpt lat="44.72764061115292" lon="8.975591992094227"><ele>313.8</ele><time>2026-03-29T16:26:59Z</time></trkpt><trkpt lat="44.72775046539175" lon="8.975626435694299"><ele>313.2</ele><time>2026-03-29T16:27:00Z</time></trkpt><trkpt lat="44.72784184784504" lon="8.975672107474043"><ele>312.6</ele><time>2026-03-29T16:27:01Z</time></trkpt><trkpt lat="44.72793034965205" lon="8.975695329458272"><ele>312.0</ele><time>2026-03-29T16:27:02Z</time></trkpt><trkpt lat="44.727996283254086" lon="8.975735516769179"><ele>312.0</ele><time>2026-03-29T16:27:03Z</time></trkpt><trkpt lat="44.728065519021676" lon="8.975758413866425"><ele>312.0</ele><time>2026-03-29T16:27:04Z</time></trkpt><trkpt lat="44.72813556581889" lon="8.975768288713876"><ele>312.0</ele><time>2026-03-29T16:27:05Z</time></trkpt><trkpt lat="44.7282170787104" lon="8.975744553089681"><ele>312.0</ele><time>2026-03-29T16:27:06Z</time></trkpt><trkpt lat="44.72830145586885" lon="8.97569856510222"><ele>312.0</ele><time>2026-03-29T16:27:07Z</time></trkpt><trkpt lat="44.728384358580534" lon="8.975624045379618"><ele>312.0</ele><time>2026-03-29T16:27:08Z</time></trkpt><trkpt lat="44.72847251144331" lon="8.975485396969399"><ele>311.3333333333333</ele><time>2026-03-29T16:27:09Z</time></trkpt><trkpt lat="44.72860319561154" lon="8.975305980161902"><ele>310.66666666666663</ele><time>2026-03-29T16:27:10Z</time></trkpt><trkpt lat="44.728725271915714" lon="8.975093670783941"><ele>310.0</ele><time>2026-03-29T16:27:11Z</time></trkpt><trkpt lat="44.72885384481645" lon="8.974890888378068"><ele>310.0</ele><time>2026-03-29T16:27:12Z</time></trkpt><trkpt lat="44.72895126681928" lon="8.97471808495976"><ele>310.0</ele><time>2026-03-29T16:27:13Z</time></trkpt><trkpt lat="44.7290397921387" lon="8.974541381672763"><ele>310.0</ele><time>2026-03-29T16:27:14Z</time></trkpt><trkpt lat="44.72911441285471" lon="8.974344388736792"><ele>309.75</ele><time>2026-03-29T16:27:15Z</time></trkpt><trkpt lat="44.72916617676296" lon="8.974132319994101"><ele>309.5</ele><time>2026-03-29T16:27:15.999Z</time></trkpt><trkpt lat="44.7292168319819" lon="8.973948714150156"><ele>309.25</ele><time>2026-03-29T16:27:16.999Z</time></trkpt><trkpt lat="44.72925593308922" lon="8.97378122619551"><ele>309.0</ele><time>2026-03-29T16:27:17.999Z</time></trkpt><trkpt lat="44.72926137138688" lon="8.9736203025018"><ele>309.0</ele><time>2026-03-29T16:27:18.999Z</time></trkpt><trkpt lat="44.729238842106696" lon="8.973444995085533"><ele>309.0</ele><time>2026-03-29T16:27:19.999Z</time></trkpt><trkpt lat="44.72919281898935" lon="8.973293282024743"><ele>309.0</ele><time>2026-03-29T16:27:20.999Z</time></trkpt><trkpt lat="44.729116145732135" lon="8.973185842156932"><ele>309.0</ele><time>2026-03-29T16:27:21.999Z</time></trkpt><trkpt lat="44.72900829851088" lon="8.973123698127512"><ele>308.59999999999997</ele><time>2026-03-29T16:27:22.999Z</time></trkpt><trkpt lat="44.728891982303864" lon="8.973104699557087"><ele>308.2</ele><time>2026-03-29T16:27:23.999Z</time></trkpt><trkpt lat="44.72880634126448" lon="8.973058439802463"><ele>307.79999999999995</ele><time>2026-03-29T16:27:24.999Z</time></trkpt><trkpt lat="44.72875155315954" lon="8.972958532701792"><ele>307.4</ele><time>2026-03-29T16:27:25.999Z</time></trkpt><trkpt lat="44.72871387324588" lon="8.972833810615898"><ele>307.0</ele><time>2026-03-29T16:27:26.999Z</time></trkpt><trkpt lat="44.7286944344944" lon="8.972683918380428"><ele>310.0</ele><time>2026-03-29T16:27:27.999Z</time></trkpt><trkpt lat="44.7286747889179" lon="8.972517413738586"><ele>313.0</ele><time>2026-03-29T16:27:28.999Z</time></trkpt><trkpt lat="44.728654530933404" lon="8.97233432710082"><ele>316.0</ele><time>2026-03-29T16:27:29.999Z</time></trkpt><trkpt lat="44.72864438305377" lon="8.972157563519117"><ele>319.0</ele><time>2026-03-29T16:27:30.999Z</time></trkpt><trkpt lat="44.72863383938027" lon="8.972011293538321"><ele>319.0</ele><time>2026-03-29T16:27:31.999Z</time></trkpt><trkpt lat="44.72862501242037" lon="8.971870599416883"><ele>319.0</ele><time>2026-03-29T16:27:32.999Z</time></trkpt><trkpt lat="44.72859693109514" lon="8.97171435196544"><ele>319.0</ele><time>2026-03-29T16:27:33.999Z</time></trkpt><trkpt lat="44.72855113069846" lon="8.97157555967934"><ele>319.0</ele><time>2026-03-29T16:27:34.999Z</time></trkpt><trkpt lat="44.728526143705274" lon="8.97142207193667"><ele>319.0</ele><time>2026-03-29T16:27:35.999Z</time></trkpt><trkpt lat="44.72850102804609" lon="8.97129922507691"><ele>319.0</ele><time>2026-03-29T16:27:36.999Z</time></trkpt><trkpt lat="44.72848385451984" lon="8.971181513542973"><ele>319.0</ele><time>2026-03-29T16:27:37.999Z</time></trkpt><trkpt lat="44.72853071618587" lon="8.971052251129137"><ele>319.0</ele><time>2026-03-29T16:27:38.999Z</time></trkpt><trkpt lat="44.72859154792169" lon="8.970913411249413"><ele>319.0</ele><time>2026-03-29T16:27:39.999Z</time></trkpt><trkpt lat="44.72865950563771" lon="8.97075652142417"><ele>319.0</ele><time>2026-03-29T16:27:40.999Z</time></trkpt><trkpt lat="44.72872698986769" lon="8.970603665272447"><ele>319.0</ele><time>2026-03-29T16:27:41.999Z</time></trkpt><trkpt lat="44.72879086506866" lon="8.970460123457716"><ele>319.0</ele><time>2026-03-29T16:27:42.999Z</time></trkpt><trkpt lat="44.72883525925341" lon="8.970320571156176"><ele>319.0</ele><time>2026-03-29T16:27:43.999Z</time></trkpt><trkpt lat="44.728883666952136" lon="8.970202030087266"><ele>319.0</ele><time>2026-03-29T16:27:44.999Z</time></trkpt><trkpt lat="44.728929665599814" lon="8.970096318425115"><ele>319.0</ele><time>2026-03-29T16:27:45.999Z</time></trkpt><trkpt lat="44.72897818968269" lon="8.969991444026816"><ele>318.8333333333333</ele><time>2026-03-29T16:27:46.999Z</time></trkpt><trkpt lat="44.729026194800795" lon="8.969889134617082"><ele>318.66666666666663</ele><time>2026-03-29T16:27:47.999Z</time></trkpt><trkpt lat="44.72906655500127" lon="8.969798707324273"><ele>318.5</ele><time>2026-03-29T16:27:48.999Z</time></trkpt><trkpt lat="44.72910507296862" lon="8.969716675478692"><ele>318.3333333333333</ele><time>2026-03-29T16:27:49.999Z</time></trkpt><trkpt lat="44.729139587173506" lon="8.969634483283397"><ele>318.1666666666667</ele><time>2026-03-29T16:27:50.999Z</time></trkpt><trkpt lat="44.72920541282765" lon="8.969478894729406"><ele>318.0</ele><time>2026-03-29T16:27:52.999Z</time></trkpt><trkpt lat="44.729277131967855" lon="8.969318776084455"><ele>318.0</ele><time>2026-03-29T16:27:54.999Z</time></trkpt><trkpt lat="44.729308994853305" lon="8.96923352817656"><ele>318.0</ele><time>2026-03-29T16:27:55.999Z</time></trkpt><trkpt lat="44.72934612559546" lon="8.96915165156488"><ele>318.0</ele><time>2026-03-29T16:27:56.999Z</time></trkpt><trkpt lat="44.72938123932978" lon="8.969076118981073"><ele>318.0</ele><time>2026-03-29T16:27:57.999Z</time></trkpt><trkpt lat="44.72943485825862" lon="8.968967845069567"><ele>318.0</ele><time>2026-03-29T16:27:59.999Z</time></trkpt><trkpt lat="44.72948902843523" lon="8.968908823379335"><ele>318.0</ele><time>2026-03-29T16:28:01.999Z</time></trkpt><trkpt lat="44.729554862318345" lon="8.968874532014206"><ele>318.0</ele><time>2026-03-29T16:28:03.999Z</time></trkpt><trkpt lat="44.72963699791485" lon="8.968860720492263"><ele>318.4</ele><time>2026-03-29T16:28:06.999Z</time></trkpt><trkpt lat="44.72971985806442" lon="8.968842954594633"><ele>318.8</ele><time>2026-03-29T16:28:19.999Z</time></trkpt><trkpt lat="44.729803198509735" lon="8.968835102732951"><ele>319.2</ele><time>2026-03-29T16:28:31.998Z</time></trkpt><trkpt lat="44.72989651883503" lon="8.968821200932076"><ele>319.6</ele><time>2026-03-29T16:28:33.998Z</time></trkpt><trkpt lat="44.73001918746472" lon="8.96882053498043"><ele>320.0</ele><time>2026-03-29T16:28:35.998Z</time></trkpt><trkpt lat="44.73013727563903" lon="8.968820993288704"><ele>320.0</ele><time>2026-03-29T16:28:37.998Z</time></trkpt><trkpt lat="44.73020161422167" lon="8.968826561113307"><ele>320.0</ele><time>2026-03-29T16:28:38.998Z</time></trkpt><trkpt lat="44.730267020280664" lon="8.968832322481372"><ele>320.0</ele><time>2026-03-29T16:28:39.998Z</time></trkpt><trkpt lat="44.73033909022474" lon="8.968835825609286"><ele>320.0</ele><time>2026-03-29T16:28:40.998Z</time></trkpt><trkpt lat="44.730413139017095" lon="8.968836498256206"><ele>320.0</ele><time>2026-03-29T16:28:41.998Z</time></trkpt><trkpt lat="44.730488011961484" lon="8.968811214243008"><ele>320.0</ele><time>2026-03-29T16:28:42.998Z</time></trkpt><trkpt lat="44.73056117031294" lon="8.968760509550952"><ele>320.0</ele><time>2026-03-29T16:28:43.998Z</time></trkpt><trkpt lat="44.73062518076756" lon="8.968685022679775"><ele>320.1666666666667</ele><time>2026-03-29T16:28:44.998Z</time></trkpt><trkpt lat="44.73067622506354" lon="8.968587499780933"><ele>320.33333333333337</ele><time>2026-03-29T16:28:45.998Z</time></trkpt><trkpt lat="44.730733225510164" lon="8.968493932585876"><ele>320.5</ele><time>2026-03-29T16:28:46.998Z</time></trkpt><trkpt lat="44.73076735505243" lon="8.968389740361888"><ele>320.6666666666667</ele><time>2026-03-29T16:28:47.998Z</time></trkpt><trkpt lat="44.73080016182701" lon="8.968286564195573"><ele>320.8333333333333</ele><time>2026-03-29T16:28:48.998Z</time></trkpt><trkpt lat="44.73083569264875" lon="8.968172580797338"><ele>321.0</ele><time>2026-03-29T16:28:49.998Z</time></trkpt><trkpt lat="44.73087397903074" lon="8.968049757502328"><ele>320.2</ele><time>2026-03-29T16:28:50.998Z</time></trkpt><trkpt lat="44.73090215661078" lon="8.967909308650444"><ele>319.40000000000003</ele><time>2026-03-29T16:28:51.998Z</time></trkpt><trkpt lat="44.73094785631585" lon="8.967774749337888"><ele>318.6</ele><time>2026-03-29T16:28:52.998Z</time></trkpt><trkpt lat="44.73099822715237" lon="8.967636788531289"><ele>317.8</ele><time>2026-03-29T16:28:53.998Z</time></trkpt><trkpt lat="44.73105131603565" lon="8.967496187848838"><ele>317.0</ele><time>2026-03-29T16:28:54.998Z</time></trkpt><trkpt lat="44.73110945087869" lon="8.967358665707543"><ele>316.8</ele><time>2026-03-29T16:28:55.998Z</time></trkpt><trkpt lat="44.73117127500539" lon="8.967227661453746"><ele>316.6</ele><time>2026-03-29T16:28:56.998Z</time></trkpt><trkpt lat="44.73123168116507" lon="8.967110580143755"><ele>316.40000000000003</ele><time>2026-03-29T16:28:57.998Z</time></trkpt><trkpt lat="44.731289500849975" lon="8.967003491460899"><ele>316.2</ele><time>2026-03-29T16:28:59Z</time></trkpt><trkpt lat="44.731351873769015" lon="8.96690236522832"><ele>316.0</ele><time>2026-03-29T16:29:00Z</time></trkpt><trkpt lat="44.73141669940026" lon="8.96680386086493"><ele>316.0</ele><time>2026-03-29T16:29:01Z</time></trkpt><trkpt lat="44.73148762918789" lon="8.9667054129279"><ele>316.0</ele><time>2026-03-29T16:29:02Z</time></trkpt><trkpt lat="44.73155869922148" lon="8.96659634590397"><ele>316.0</ele><time>2026-03-29T16:29:03Z</time></trkpt><trkpt lat="44.73163146802417" lon="8.966483018725532"><ele>316.0</ele><time>2026-03-29T16:29:04Z</time></trkpt><trkpt lat="44.731705079299054" lon="8.966365653232234"><ele>316.0</ele><time>2026-03-29T16:29:05Z</time></trkpt><trkpt lat="44.731780452981724" lon="8.966246818401482"><ele>316.0</ele><time>2026-03-29T16:29:06Z</time></trkpt><trkpt lat="44.73185597037327" lon="8.96612762825777"><ele>316.0</ele><time>2026-03-29T16:29:07Z</time></trkpt><trkpt lat="44.73193365834703" lon="8.966011246926232"><ele>316.0</ele><time>2026-03-29T16:29:08Z</time></trkpt><trkpt lat="44.73201124859528" lon="8.965891535840084"><ele>316.0</ele><time>2026-03-29T16:29:09Z</time></trkpt><trkpt lat="44.73208722407461" lon="8.965768291695472"><ele>315.5</ele><time>2026-03-29T16:29:10Z</time></trkpt><trkpt lat="44.732163526872405" lon="8.965641122837402"><ele>315.0</ele><time>2026-03-29T16:29:11Z</time></trkpt><trkpt lat="44.73224111060734" lon="8.965505380279406"><ele>314.5</ele><time>2026-03-29T16:29:12Z</time></trkpt><trkpt lat="44.73231504157424" lon="8.965363034041152"><ele>314.0</ele><time>2026-03-29T16:29:13Z</time></trkpt><trkpt lat="44.73238719425073" lon="8.965211730769784"><ele>314.0</ele><time>2026-03-29T16:29:14Z</time></trkpt><trkpt lat="44.732457649229" lon="8.965055324580087"><ele>314.0</ele><time>2026-03-29T16:29:15Z</time></trkpt><trkpt lat="44.732525361229" lon="8.964896028980101"><ele>314.0</ele><time>2026-03-29T16:29:15.999Z</time></trkpt><trkpt lat="44.73258910625847" lon="8.964736862492142"><ele>314.0</ele><time>2026-03-29T16:29:16.999Z</time></trkpt><trkpt lat="44.73264650307763" lon="8.964587308355993"><ele>314.0</ele><time>2026-03-29T16:29:17.999Z</time></trkpt><trkpt lat="44.73270117459354" lon="8.964441531432694"><ele>314.0</ele><time>2026-03-29T16:29:18.999Z</time></trkpt><trkpt lat="44.73275610098984" lon="8.964289627272077"><ele>314.0</ele><time>2026-03-29T16:29:19.999Z</time></trkpt><trkpt lat="44.73280665777354" lon="8.964130825548983"><ele>314.0</ele><time>2026-03-29T16:29:20.999Z</time></trkpt><trkpt lat="44.732850894689484" lon="8.963967680118477"><ele>314.0</ele><time>2026-03-29T16:29:21.999Z</time></trkpt><trkpt lat="44.73288868526308" lon="8.963810871137484"><ele>314.0</ele><time>2026-03-29T16:29:22.999Z</time></trkpt><trkpt lat="44.732926723626825" lon="8.963664830102786"><ele>314.0</ele><time>2026-03-29T16:29:23.999Z</time></trkpt><trkpt lat="44.73296189158513" lon="8.963524234253558"><ele>314.0</ele><time>2026-03-29T16:29:24.999Z</time></trkpt><trkpt lat="44.73298746656775" lon="8.96338630981069"><ele>314.0</ele><time>2026-03-29T16:29:25.999Z</time></trkpt><trkpt lat="44.73301041825091" lon="8.963249815827806"><ele>314.0</ele><time>2026-03-29T16:29:26.999Z</time></trkpt><trkpt lat="44.73303312332487" lon="8.963105623118668"><ele>314.0</ele><time>2026-03-29T16:29:27.999Z</time></trkpt><trkpt lat="44.73305667390903" lon="8.96295521103559"><ele>314.0</ele><time>2026-03-29T16:29:28.999Z</time></trkpt><trkpt lat="44.73307702405467" lon="8.962797103356273"><ele>314.0</ele><time>2026-03-29T16:29:29.999Z</time></trkpt><trkpt lat="44.73309463720729" lon="8.962633025237885"><ele>314.0</ele><time>2026-03-29T16:29:30.999Z</time></trkpt><trkpt lat="44.73311085734661" lon="8.96246142071076"><ele>313.0</ele><time>2026-03-29T16:29:31.999Z</time></trkpt><trkpt lat="44.733125578533034" lon="8.962293462718858"><ele>312.0</ele><time>2026-03-29T16:29:32.999Z</time></trkpt><trkpt lat="44.73313937136589" lon="8.962124874562715"><ele>311.0</ele><time>2026-03-29T16:29:33.999Z</time></trkpt><trkpt lat="44.73315090624065" lon="8.961955664608777"><ele>310.0</ele><time>2026-03-29T16:29:34.999Z</time></trkpt><trkpt lat="44.733162012918825" lon="8.961785308094353"><ele>309.75</ele><time>2026-03-29T16:29:35.999Z</time></trkpt><trkpt lat="44.73317035539516" lon="8.961615193749763"><ele>309.5</ele><time>2026-03-29T16:29:36.999Z</time></trkpt><trkpt lat="44.733179915014986" lon="8.96143797747356"><ele>309.25</ele><time>2026-03-29T16:29:37.999Z</time></trkpt><trkpt lat="44.73318823560214" lon="8.961256762479474"><ele>309.0</ele><time>2026-03-29T16:29:38.999Z</time></trkpt><trkpt lat="44.733198089693474" lon="8.961076480459102"><ele>309.0</ele><time>2026-03-29T16:29:39.999Z</time></trkpt><trkpt lat="44.7332110241971" lon="8.960896826289305"><ele>309.0</ele><time>2026-03-29T16:29:40.999Z</time></trkpt><trkpt lat="44.733226699835846" lon="8.960716566816556"><ele>309.0</ele><time>2026-03-29T16:29:41.999Z</time></trkpt><trkpt lat="44.73324261883062" lon="8.960534996581714"><ele>309.0</ele><time>2026-03-29T16:29:42.999Z</time></trkpt><trkpt lat="44.73325795574819" lon="8.96035025500788"><ele>308.75</ele><time>2026-03-29T16:29:43.999Z</time></trkpt><trkpt lat="44.733271511840655" lon="8.960162041891044"><ele>308.5</ele><time>2026-03-29T16:29:44.999Z</time></trkpt><trkpt lat="44.73328383167164" lon="8.959971852309076"><ele>308.25</ele><time>2026-03-29T16:29:45.999Z</time></trkpt><trkpt lat="44.73329594152151" lon="8.959779228792007"><ele>308.0</ele><time>2026-03-29T16:29:46.999Z</time></trkpt><trkpt lat="44.73331173723967" lon="8.959586523083658"><ele>308.0</ele><time>2026-03-29T16:29:47.999Z</time></trkpt><trkpt lat="44.733326997212025" lon="8.959394530747323"><ele>308.0</ele><time>2026-03-29T16:29:48.999Z</time></trkpt><trkpt lat="44.733340314567364" lon="8.959203283385293"><ele>308.0</ele><time>2026-03-29T16:29:49.999Z</time></trkpt><trkpt lat="44.73335331963529" lon="8.959012549589021"><ele>308.0</ele><time>2026-03-29T16:29:50.999Z</time></trkpt><trkpt lat="44.73336335762528" lon="8.958817217597248"><ele>307.75</ele><time>2026-03-29T16:29:51.999Z</time></trkpt><trkpt lat="44.73337052359523" lon="8.95862246189863"><ele>307.5</ele><time>2026-03-29T16:29:52.999Z</time></trkpt><trkpt lat="44.733373662932166" lon="8.958426501147716"><ele>307.25</ele><time>2026-03-29T16:29:53.999Z</time></trkpt><trkpt lat="44.73337333968951" lon="8.95821956537469"><ele>307.0</ele><time>2026-03-29T16:29:54.999Z</time></trkpt><trkpt lat="44.733374484860526" lon="8.958008183108808"><ele>306.66666666666663</ele><time>2026-03-29T16:29:55.999Z</time></trkpt><trkpt lat="44.7333750073515" lon="8.957787738129195"><ele>306.3333333333333</ele><time>2026-03-29T16:29:56.999Z</time></trkpt><trkpt lat="44.73337481161867" lon="8.957560924862255"><ele>306.0</ele><time>2026-03-29T16:29:57.999Z</time></trkpt><trkpt lat="44.73337176992343" lon="8.957332481777613"><ele>305.6666666666667</ele><time>2026-03-29T16:29:58.999Z</time></trkpt><trkpt lat="44.733367732364805" lon="8.957097318109003"><ele>305.33333333333337</ele><time>2026-03-29T16:29:59.999Z</time></trkpt><trkpt lat="44.73336225445546" lon="8.956857832003731"><ele>305.0</ele><time>2026-03-29T16:30:00.999Z</time></trkpt><trkpt lat="44.73335884099638" lon="8.956620481530319"><ele>305.0</ele><time>2026-03-29T16:30:01.999Z</time></trkpt><trkpt lat="44.733355789978454" lon="8.95639370491541"><ele>305.0</ele><time>2026-03-29T16:30:02.999Z</time></trkpt><trkpt lat="44.73334981746556" lon="8.956169664971343"><ele>305.0</ele><time>2026-03-29T16:30:03.999Z</time></trkpt><trkpt lat="44.73334572858693" lon="8.955950515291354"><ele>304.6666666666667</ele><time>2026-03-29T16:30:04.999Z</time></trkpt><trkpt lat="44.73334252304649" lon="8.955728799674347"><ele>304.3333333333333</ele><time>2026-03-29T16:30:05.999Z</time></trkpt><trkpt lat="44.73334015845797" lon="8.955512141290823"><ele>304.0</ele><time>2026-03-29T16:30:06.999Z</time></trkpt><trkpt lat="44.733337342064125" lon="8.955298195025241"><ele>304.0</ele><time>2026-03-29T16:30:07.999Z</time></trkpt><trkpt lat="44.73333469066452" lon="8.955088419800253"><ele>304.0</ele><time>2026-03-29T16:30:08.999Z</time></trkpt><trkpt lat="44.73333108808124" lon="8.95488386895408"><ele>304.0</ele><time>2026-03-29T16:30:09.999Z</time></trkpt><trkpt lat="44.733327896415645" lon="8.954685155234529"><ele>304.0</ele><time>2026-03-29T16:30:10.999Z</time></trkpt><trkpt lat="44.73332482233336" lon="8.954488617353242"><ele>304.0</ele><time>2026-03-29T16:30:11.999Z</time></trkpt><trkpt lat="44.733321310054805" lon="8.95429272708257"><ele>304.0</ele><time>2026-03-29T16:30:12.999Z</time></trkpt><trkpt lat="44.733318027465245" lon="8.954097826878378"><ele>304.0</ele><time>2026-03-29T16:30:13.999Z</time></trkpt><trkpt lat="44.733315142205356" lon="8.953904232592901"><ele>304.0</ele><time>2026-03-29T16:30:14.999Z</time></trkpt><trkpt lat="44.733311866480555" lon="8.953710935596447"><ele>304.0</ele><time>2026-03-29T16:30:15.999Z</time></trkpt><trkpt lat="44.73331002948024" lon="8.95351411163979"><ele>304.0</ele><time>2026-03-29T16:30:16.999Z</time></trkpt><trkpt lat="44.733309045379215" lon="8.953315137783505"><ele>304.0</ele><time>2026-03-29T16:30:17.999Z</time></trkpt><trkpt lat="44.733307594566114" lon="8.953115711084846"><ele>304.0</ele><time>2026-03-29T16:30:18.999Z</time></trkpt><trkpt lat="44.7333039871096" lon="8.952914909964548"><ele>303.5</ele><time>2026-03-29T16:30:19.999Z</time></trkpt><trkpt lat="44.73329848837154" lon="8.952712794449225"><ele>303.0</ele><time>2026-03-29T16:30:20.999Z</time></trkpt><trkpt lat="44.733293675959864" lon="8.952509360913961"><ele>302.5</ele><time>2026-03-29T16:30:21.999Z</time></trkpt><trkpt lat="44.73328850388526" lon="8.952306418596974"><ele>302.0</ele><time>2026-03-29T16:30:22.999Z</time></trkpt><trkpt lat="44.73328179080811" lon="8.95210132568304"><ele>302.0</ele><time>2026-03-29T16:30:23.998Z</time></trkpt><trkpt lat="44.73327548695622" lon="8.951894897499024"><ele>302.0</ele><time>2026-03-29T16:30:24.998Z</time></trkpt><trkpt lat="44.73326750438175" lon="8.951677510026752"><ele>302.0</ele><time>2026-03-29T16:30:25.998Z</time></trkpt><trkpt lat="44.73325825911985" lon="8.951443083947153"><ele>302.0</ele><time>2026-03-29T16:30:26.998Z</time></trkpt><trkpt lat="44.73325553688657" lon="8.951269361119282"><ele>302.0</ele><time>2026-03-29T16:30:27.998Z</time></trkpt><trkpt lat="44.733248575057566" lon="8.951063860685283"><ele>302.0</ele><time>2026-03-29T16:30:28.998Z</time></trkpt><trkpt lat="44.73324166557141" lon="8.95085311370555"><ele>302.0</ele><time>2026-03-29T16:30:29.998Z</time></trkpt><trkpt lat="44.733232922933674" lon="8.950643154843387"><ele>301.75</ele><time>2026-03-29T16:30:30.998Z</time></trkpt><trkpt lat="44.73322573571887" lon="8.950437234774874"><ele>301.5</ele><time>2026-03-29T16:30:31.998Z</time></trkpt><trkpt lat="44.73321957695006" lon="8.950232215431736"><ele>301.25</ele><time>2026-03-29T16:30:32.998Z</time></trkpt><trkpt lat="44.73321613626928" lon="8.95002671152977"><ele>301.0</ele><time>2026-03-29T16:30:33.998Z</time></trkpt><trkpt lat="44.73320906298408" lon="8.949821691173788"><ele>300.75</ele><time>2026-03-29T16:30:34.998Z</time></trkpt><trkpt lat="44.73320068648838" lon="8.949615245086227"><ele>300.5</ele><time>2026-03-29T16:30:35.998Z</time></trkpt><trkpt lat="44.73319463035873" lon="8.949409175467771"><ele>300.25</ele><time>2026-03-29T16:30:36.998Z</time></trkpt><trkpt lat="44.733189110568354" lon="8.949206521733238"><ele>300.0</ele><time>2026-03-29T16:30:37.998Z</time></trkpt><trkpt lat="44.733183888359164" lon="8.949013613259075"><ele>300.0</ele><time>2026-03-29T16:30:38.998Z</time></trkpt><trkpt lat="44.733177340246655" lon="8.948832277947167"><ele>300.0</ele><time>2026-03-29T16:30:39.998Z</time></trkpt><trkpt lat="44.73316992523366" lon="8.948657258451728"><ele>300.0</ele><time>2026-03-29T16:30:40.998Z</time></trkpt><trkpt lat="44.733165268117304" lon="8.948492437256874"><ele>300.0</ele><time>2026-03-29T16:30:41.998Z</time></trkpt><trkpt lat="44.73316089931075" lon="8.948337025112165"><ele>299.8</ele><time>2026-03-29T16:30:42.998Z</time></trkpt><trkpt lat="44.73315678230267" lon="8.94818895555751"><ele>299.6</ele><time>2026-03-29T16:30:43.998Z</time></trkpt><trkpt lat="44.7331545449437" lon="8.948054976529129"><ele>299.4</ele><time>2026-03-29T16:30:44.998Z</time></trkpt><trkpt lat="44.733153285756586" lon="8.94792657260891"><ele>299.2</ele><time>2026-03-29T16:30:45.998Z</time></trkpt><trkpt lat="44.73315092060841" lon="8.947814918503097"><ele>299.0</ele><time>2026-03-29T16:30:46.998Z</time></trkpt><trkpt lat="44.73315003970743" lon="8.947654467654786"><ele>298.6666666666667</ele><time>2026-03-29T16:30:48.998Z</time></trkpt><trkpt lat="44.733144502936575" lon="8.947527149289114"><ele>298.33333333333337</ele><time>2026-03-29T16:30:50.998Z</time></trkpt><trkpt lat="44.73315564690252" lon="8.947418313268724"><ele>298.0</ele><time>2026-03-29T16:30:52.998Z</time></trkpt><trkpt lat="44.733156882935226" lon="8.947299054992577"><ele>297.6666666666667</ele><time>2026-03-29T16:30:54.998Z</time></trkpt><trkpt lat="44.73315927280289" lon="8.947190190247575"><ele>297.3333333333333</ele><time>2026-03-29T16:30:56.998Z</time></trkpt><trkpt lat="44.73316275900723" lon="8.947031383388097"><ele>297.0</ele><time>2026-03-29T16:31:02.998Z</time></trkpt><trkpt lat="44.73316748116255" lon="8.946903074743227"><ele>297.0</ele><time>2026-03-29T16:31:03.998Z</time></trkpt><trkpt lat="44.73316830227024" lon="8.946706983962914"><ele>297.0</ele><time>2026-03-29T16:31:04.999Z</time></trkpt><trkpt lat="44.73317004977899" lon="8.946504800500113"><ele>297.0</ele><time>2026-03-29T16:31:05.999Z</time></trkpt><trkpt lat="44.73316830453114" lon="8.946252652673023"><ele>297.0</ele><time>2026-03-29T16:31:06.999Z</time></trkpt><trkpt lat="44.73316218704395" lon="8.946018616655298"><ele>297.0</ele><time>2026-03-29T16:31:07.999Z</time></trkpt><trkpt lat="44.73314879328821" lon="8.945800636336047"><ele>297.0</ele><time>2026-03-29T16:31:08.999Z</time></trkpt><trkpt lat="44.733128091802534" lon="8.945569285180698"><ele>297.0</ele><time>2026-03-29T16:31:09.999Z</time></trkpt><trkpt lat="44.73310030664649" lon="8.945326096801981"><ele>297.0</ele><time>2026-03-29T16:31:10.999Z</time></trkpt><trkpt lat="44.73306346225959" lon="8.945071798101653"><ele>297.0</ele><time>2026-03-29T16:31:12Z</time></trkpt><trkpt lat="44.733017237564944" lon="8.944807995964302"><ele>296.0</ele><time>2026-03-29T16:31:12.999Z</time></trkpt><trkpt lat="44.73295482133747" lon="8.944530682858952"><ele>295.0</ele><time>2026-03-29T16:31:14Z</time></trkpt><trkpt lat="44.7328831201123" lon="8.944251723843212"><ele>294.0</ele><time>2026-03-29T16:31:15Z</time></trkpt><trkpt lat="44.73280020685987" lon="8.943975614088803"><ele>293.6666666666667</ele><time>2026-03-29T16:31:16Z</time></trkpt><trkpt lat="44.732710719837975" lon="8.943706088131844"><ele>293.33333333333337</ele><time>2026-03-29T16:31:17Z</time></trkpt><trkpt lat="44.73260870280263" lon="8.943431722864586"><ele>293.0</ele><time>2026-03-29T16:31:18Z</time></trkpt><trkpt lat="44.73249433961754" lon="8.943156292822437"><ele>294.0</ele><time>2026-03-29T16:31:19Z</time></trkpt><trkpt lat="44.732369297491985" lon="8.942881314747844"><ele>295.0</ele><time>2026-03-29T16:31:20Z</time></trkpt><trkpt lat="44.732238742349864" lon="8.94259705436359"><ele>292.5</ele><time>2026-03-29T16:31:20.999Z</time></trkpt><trkpt lat="44.732109350885985" lon="8.942304537943764"><ele>290.0</ele><time>2026-03-29T16:31:21.999Z</time></trkpt><trkpt lat="44.731980563076014" lon="8.94201033586504"><ele>290.5</ele><time>2026-03-29T16:31:22.999Z</time></trkpt><trkpt lat="44.731856452672616" lon="8.94172986885675"><ele>291.0</ele><time>2026-03-29T16:31:23.999Z</time></trkpt><trkpt lat="44.731734516306446" lon="8.94145530264596"><ele>291.0</ele><time>2026-03-29T16:31:24.999Z</time></trkpt><trkpt lat="44.731610379707" lon="8.941184107751669"><ele>291.0</ele><time>2026-03-29T16:31:25.999Z</time></trkpt><trkpt lat="44.73148091153344" lon="8.940910518980381"><ele>289.5</ele><time>2026-03-29T16:31:26.999Z</time></trkpt><trkpt lat="44.73135301207388" lon="8.940640147740968"><ele>288.0</ele><time>2026-03-29T16:31:27.999Z</time></trkpt><trkpt lat="44.73122814891588" lon="8.940377178918242"><ele>288.0</ele><time>2026-03-29T16:31:28.999Z</time></trkpt><trkpt lat="44.73110904889678" lon="8.940132597720336"><ele>288.0</ele><time>2026-03-29T16:31:29.999Z</time></trkpt><trkpt lat="44.73099742790872" lon="8.939903757431859"><ele>288.0</ele><time>2026-03-29T16:31:30.999Z</time></trkpt><trkpt lat="44.73089067947982" lon="8.939685296817288"><ele>288.3333333333333</ele><time>2026-03-29T16:31:31.999Z</time></trkpt><trkpt lat="44.730788958321" lon="8.9394790192471"><ele>288.66666666666663</ele><time>2026-03-29T16:31:32.999Z</time></trkpt><trkpt lat="44.730687318211736" lon="8.939280766552525"><ele>289.0</ele><time>2026-03-29T16:31:33.999Z</time></trkpt><trkpt lat="44.73058201348481" lon="8.93907064092537"><ele>286.66666666666663</ele><time>2026-03-29T16:31:34.999Z</time></trkpt><trkpt lat="44.7304770999912" lon="8.93886393891128"><ele>284.3333333333333</ele><time>2026-03-29T16:31:35.999Z</time></trkpt><trkpt lat="44.730371049699" lon="8.938653163966649"><ele>282.0</ele><time>2026-03-29T16:31:36.999Z</time></trkpt><trkpt lat="44.7302665801247" lon="8.9384413362558"><ele>283.3333333333333</ele><time>2026-03-29T16:31:37.999Z</time></trkpt><trkpt lat="44.73016244949274" lon="8.938233571391349"><ele>284.66666666666663</ele><time>2026-03-29T16:31:38.999Z</time></trkpt><trkpt lat="44.730059728346006" lon="8.93802553203329"><ele>286.0</ele><time>2026-03-29T16:31:39.999Z</time></trkpt><trkpt lat="44.729955214287784" lon="8.937821145636704"><ele>286.0</ele><time>2026-03-29T16:31:40.999Z</time></trkpt><trkpt lat="44.72984888983994" lon="8.937622409936544"><ele>286.0</ele><time>2026-03-29T16:31:41.999Z</time></trkpt><trkpt lat="44.72973784192559" lon="8.937425594860217"><ele>286.0</ele><time>2026-03-29T16:31:42.999Z</time></trkpt><trkpt lat="44.729626670662554" lon="8.937226435635552"><ele>286.0</ele><time>2026-03-29T16:31:43.999Z</time></trkpt><trkpt lat="44.72951957235997" lon="8.937025850063943"><ele>286.0</ele><time>2026-03-29T16:31:44.999Z</time></trkpt><trkpt lat="44.72941592699717" lon="8.936826907663542"><ele>286.0</ele><time>2026-03-29T16:31:45.999Z</time></trkpt><trkpt lat="44.729314007726224" lon="8.936632480516653"><ele>286.0</ele><time>2026-03-29T16:31:46.999Z</time></trkpt><trkpt lat="44.72921149420365" lon="8.936432895068515"><ele>286.0</ele><time>2026-03-29T16:31:47.999Z</time></trkpt><trkpt lat="44.729114555684006" lon="8.936244110243244"><ele>286.0</ele><time>2026-03-29T16:31:48.999Z</time></trkpt><trkpt lat="44.72902431806502" lon="8.936066100770264"><ele>286.0</ele><time>2026-03-29T16:31:49.999Z</time></trkpt><trkpt lat="44.728945315510465" lon="8.935898598359598"><ele>286.0</ele><time>2026-03-29T16:31:50.999Z</time></trkpt><trkpt lat="44.72886858800813" lon="8.935719833712048"><ele>286.0</ele><time>2026-03-29T16:31:51.999Z</time></trkpt><trkpt lat="44.72880239436346" lon="8.935566337331734"><ele>286.0</ele><time>2026-03-29T16:31:52.999Z</time></trkpt><trkpt lat="44.72873963508154" lon="8.935419852969115"><ele>285.5</ele><time>2026-03-29T16:31:53.999Z</time></trkpt><trkpt lat="44.72853351023387" lon="8.935132256194256"><ele>285.0</ele><time>2026-03-29T16:31:54.999Z</time></trkpt><trkpt lat="44.72843707046623" lon="8.934953501218919"><ele>285.0</ele><time>2026-03-29T16:31:55.999Z</time></trkpt><trkpt lat="44.728341723473775" lon="8.934769594939217"><ele>285.0</ele><time>2026-03-29T16:31:56.999Z</time></trkpt><trkpt lat="44.728246953946126" lon="8.934585095161163"><ele>285.0</ele><time>2026-03-29T16:31:57.999Z</time></trkpt><trkpt lat="44.728152622818065" lon="8.934397407351879"><ele>284.6666666666667</ele><time>2026-03-29T16:31:58.999Z</time></trkpt><trkpt lat="44.728052427634374" lon="8.934208862963573"><ele>284.33333333333337</ele><time>2026-03-29T16:31:59.999Z</time></trkpt><trkpt lat="44.72795125675424" lon="8.934017772716574"><ele>284.0</ele><time>2026-03-29T16:32:00.999Z</time></trkpt><trkpt lat="44.727849545243146" lon="8.933825718544906"><ele>284.0</ele><time>2026-03-29T16:32:01.999Z</time></trkpt><trkpt lat="44.72774795321762" lon="8.933629616947373"><ele>284.0</ele><time>2026-03-29T16:32:02.999Z</time></trkpt><trkpt lat="44.727652771953224" lon="8.93343899924032"><ele>284.0</ele><time>2026-03-29T16:32:03.999Z</time></trkpt><trkpt lat="44.72756998394798" lon="8.933259507976278"><ele>283.0</ele><time>2026-03-29T16:32:04.999Z</time></trkpt><trkpt lat="44.72749333584666" lon="8.93308637535861"><ele>282.0</ele><time>2026-03-29T16:32:05.999Z</time></trkpt><trkpt lat="44.72743623253142" lon="8.932916621383914"><ele>281.0</ele><time>2026-03-29T16:32:06.999Z</time></trkpt><trkpt lat="44.72738554550499" lon="8.932750721360799"><ele>280.0</ele><time>2026-03-29T16:32:07.999Z</time></trkpt><trkpt lat="44.72733457189573" lon="8.932571297255153"><ele>279.75</ele><time>2026-03-29T16:32:08.999Z</time></trkpt><trkpt lat="44.72728837247371" lon="8.932378225950549"><ele>279.5</ele><time>2026-03-29T16:32:09.999Z</time></trkpt><trkpt lat="44.72724592563414" lon="8.932173457503671"><ele>279.25</ele><time>2026-03-29T16:32:10.999Z</time></trkpt><trkpt lat="44.727210664070725" lon="8.931970103235267"><ele>279.0</ele><time>2026-03-29T16:32:11.999Z</time></trkpt><trkpt lat="44.72717831025591" lon="8.931757404083406"><ele>279.0</ele><time>2026-03-29T16:32:12.999Z</time></trkpt><trkpt lat="44.727145038592205" lon="8.931557281181504"><ele>279.0</ele><time>2026-03-29T16:32:13.999Z</time></trkpt><trkpt lat="44.72710965521915" lon="8.931354966627683"><ele>279.0</ele><time>2026-03-29T16:32:14.999Z</time></trkpt><trkpt lat="44.72706644181991" lon="8.93114877505211"><ele>279.0</ele><time>2026-03-29T16:32:15.999Z</time></trkpt><trkpt lat="44.727010707539314" lon="8.930938142595286"><ele>278.6666666666667</ele><time>2026-03-29T16:32:16.999Z</time></trkpt><trkpt lat="44.726947300934356" lon="8.930742089317548"><ele>278.33333333333337</ele><time>2026-03-29T16:32:17.999Z</time></trkpt><trkpt lat="44.726869666018075" lon="8.930555513342497"><ele>278.0</ele><time>2026-03-29T16:32:18.999Z</time></trkpt><trkpt lat="44.726783251054655" lon="8.930369742837083"><ele>276.5</ele><time>2026-03-29T16:32:19.999Z</time></trkpt><trkpt lat="44.7267084736751" lon="8.930184782607686"><ele>275.0</ele><time>2026-03-29T16:32:20.999Z</time></trkpt><trkpt lat="44.72663299102356" lon="8.930011799097752"><ele>273.5</ele><time>2026-03-29T16:32:21.999Z</time></trkpt><trkpt lat="44.72655064626887" lon="8.9298501439113"><ele>272.0</ele><time>2026-03-29T16:32:22.999Z</time></trkpt><trkpt lat="44.72647489102714" lon="8.929697629962272"><ele>272.0</ele><time>2026-03-29T16:32:23.999Z</time></trkpt><trkpt lat="44.726373003604074" lon="8.929548928114334"><ele>272.0</ele><time>2026-03-29T16:32:24.999Z</time></trkpt><trkpt lat="44.72625005491386" lon="8.929424707501466"><ele>272.0</ele><time>2026-03-29T16:32:25.999Z</time></trkpt><trkpt lat="44.72611400543511" lon="8.929333179624773"><ele>272.0</ele><time>2026-03-29T16:32:26.999Z</time></trkpt><trkpt lat="44.72597107412614" lon="8.929260705983662"><ele>269.33333333333337</ele><time>2026-03-29T16:32:27.999Z</time></trkpt><trkpt lat="44.7258236242639" lon="8.92919599980247"><ele>266.6666666666667</ele><time>2026-03-29T16:32:28.999Z</time></trkpt><trkpt lat="44.725675252353525" lon="8.92912905922066"><ele>264.0</ele><time>2026-03-29T16:32:29.999Z</time></trkpt><trkpt lat="44.725537015351804" lon="8.929062244041493"><ele>264.0</ele><time>2026-03-29T16:32:30.998Z</time></trkpt><trkpt lat="44.72540385085427" lon="8.929003269296837"><ele>264.0</ele><time>2026-03-29T16:32:31.998Z</time></trkpt><trkpt lat="44.72527100990216" lon="8.928965895784954"><ele>264.0</ele><time>2026-03-29T16:32:32.998Z</time></trkpt><trkpt lat="44.725131557350196" lon="8.928961832244468"><ele>264.0</ele><time>2026-03-29T16:32:33.998Z</time></trkpt><trkpt lat="44.72499479996242" lon="8.928994428526149"><ele>263.75</ele><time>2026-03-29T16:32:34.998Z</time></trkpt><trkpt lat="44.72486136230106" lon="8.929060167596601"><ele>263.5</ele><time>2026-03-29T16:32:35.998Z</time></trkpt><trkpt lat="44.724731512891864" lon="8.929150134162276"><ele>263.25</ele><time>2026-03-29T16:32:36.998Z</time></trkpt><trkpt lat="44.724606624648224" lon="8.929239999243986"><ele>263.0</ele><time>2026-03-29T16:32:37.998Z</time></trkpt><trkpt lat="44.724482184578804" lon="8.929308540626502"><ele>263.25</ele><time>2026-03-29T16:32:38.998Z</time></trkpt><trkpt lat="44.7243407298432" lon="8.929337051620207"><ele>263.5</ele><time>2026-03-29T16:32:39.998Z</time></trkpt><trkpt lat="44.724178808082335" lon="8.929317507042178"><ele>263.75</ele><time>2026-03-29T16:32:40.998Z</time></trkpt><trkpt lat="44.724051185047585" lon="8.92930434235366"><ele>264.0</ele><time>2026-03-29T16:32:41.998Z</time></trkpt><trkpt lat="44.72391733468939" lon="8.92928626758176"><ele>264.0</ele><time>2026-03-29T16:32:42.998Z</time></trkpt><trkpt lat="44.723787802152614" lon="8.929244588225883"><ele>264.0</ele><time>2026-03-29T16:32:43.998Z</time></trkpt><trkpt lat="44.72367119663559" lon="8.929159421515894"><ele>264.0</ele><time>2026-03-29T16:32:44.998Z</time></trkpt><trkpt lat="44.723607747754905" lon="8.929004477228826"><ele>264.0</ele><time>2026-03-29T16:32:45.998Z</time></trkpt><trkpt lat="44.72355686105687" lon="8.928833703366395"><ele>262.25</ele><time>2026-03-29T16:32:46.998Z</time></trkpt><trkpt lat="44.72351427358767" lon="8.92864152037299"><ele>260.5</ele><time>2026-03-29T16:32:47.998Z</time></trkpt><trkpt lat="44.72347229784081" lon="8.928449814267214"><ele>258.75</ele><time>2026-03-29T16:32:48.998Z</time></trkpt><trkpt lat="44.723445108278455" lon="8.928260172592214"><ele>257.0</ele><time>2026-03-29T16:32:49.998Z</time></trkpt><trkpt lat="44.72341203869617" lon="8.928070108247297"><ele>255.75</ele><time>2026-03-29T16:32:50.998Z</time></trkpt><trkpt lat="44.72338109156817" lon="8.927875624297217"><ele>254.5</ele><time>2026-03-29T16:32:51.998Z</time></trkpt><trkpt lat="44.72335073545455" lon="8.927676522232609"><ele>253.25</ele><time>2026-03-29T16:32:52.998Z</time></trkpt><trkpt lat="44.72332138303997" lon="8.927481907375842"><ele>252.0</ele><time>2026-03-29T16:32:53.998Z</time></trkpt><trkpt lat="44.72329256123266" lon="8.927289366505033"><ele>251.5</ele><time>2026-03-29T16:32:54.998Z</time></trkpt><trkpt lat="44.723263952064706" lon="8.92710123406731"><ele>251.0</ele><time>2026-03-29T16:32:55.998Z</time></trkpt><trkpt lat="44.72323236734151" lon="8.926916552003464"><ele>250.5</ele><time>2026-03-29T16:32:56.998Z</time></trkpt><trkpt lat="44.723200101734044" lon="8.926732403531647"><ele>250.0</ele><time>2026-03-29T16:32:57.998Z</time></trkpt><trkpt lat="44.72316781616227" lon="8.926551928315"><ele>249.75</ele><time>2026-03-29T16:32:58.998Z</time></trkpt><trkpt lat="44.723124794238174" lon="8.92637285844383"><ele>249.5</ele><time>2026-03-29T16:32:59.998Z</time></trkpt><trkpt lat="44.7230658825719" lon="8.926200204116437"><ele>249.25</ele><time>2026-03-29T16:33:00.998Z</time></trkpt><trkpt lat="44.722991148414756" lon="8.926039601588453"><ele>249.0</ele><time>2026-03-29T16:33:01.998Z</time></trkpt><trkpt lat="44.72290051038291" lon="8.92588665000712"><ele>249.0</ele><time>2026-03-29T16:33:02.998Z</time></trkpt><trkpt lat="44.72280275980616" lon="8.925735961773032"><ele>249.0</ele><time>2026-03-29T16:33:03.998Z</time></trkpt><trkpt lat="44.72270732008386" lon="8.925582912723025"><ele>249.0</ele><time>2026-03-29T16:33:04.998Z</time></trkpt><trkpt lat="44.722615096529715" lon="8.925426693074003"><ele>249.0</ele><time>2026-03-29T16:33:05.998Z</time></trkpt><trkpt lat="44.72252387120378" lon="8.925275538879637"><ele>249.25</ele><time>2026-03-29T16:33:06.998Z</time></trkpt><trkpt lat="44.72243352881399" lon="8.925130433869345"><ele>249.5</ele><time>2026-03-29T16:33:07.998Z</time></trkpt><trkpt lat="44.72234878494071" lon="8.924992258632802"><ele>249.75</ele><time>2026-03-29T16:33:08.998Z</time></trkpt><trkpt lat="44.72227064763874" lon="8.924863594508729"><ele>250.0</ele><time>2026-03-29T16:33:09.998Z</time></trkpt><trkpt lat="44.722208377625506" lon="8.924740282693483"><ele>250.2</ele><time>2026-03-29T16:33:10.999Z</time></trkpt><trkpt lat="44.72218032439887" lon="8.924606634486539"><ele>250.4</ele><time>2026-03-29T16:33:11.999Z</time></trkpt><trkpt lat="44.72219400844125" lon="8.924459959573937"><ele>250.60000000000002</ele><time>2026-03-29T16:33:12.999Z</time></trkpt><trkpt lat="44.722204182979134" lon="8.924306784193181"><ele>250.8</ele><time>2026-03-29T16:33:13.999Z</time></trkpt><trkpt lat="44.72219811216" lon="8.924159089484517"><ele>251.0</ele><time>2026-03-29T16:33:14.999Z</time></trkpt><trkpt lat="44.722167161483085" lon="8.92400908208644"><ele>251.0</ele><time>2026-03-29T16:33:15.999Z</time></trkpt><trkpt lat="44.722112204722784" lon="8.923837543475075"><ele>251.0</ele><time>2026-03-29T16:33:16.999Z</time></trkpt><trkpt lat="44.72203930728947" lon="8.923645255541256"><ele>251.0</ele><time>2026-03-29T16:33:17.999Z</time></trkpt><trkpt lat="44.721955524695154" lon="8.923434490175966"><ele>256.33333333333337</ele><time>2026-03-29T16:33:18.999Z</time></trkpt><trkpt lat="44.72186921527169" lon="8.923213858763603"><ele>261.6666666666667</ele><time>2026-03-29T16:33:19.999Z</time></trkpt><trkpt lat="44.72178891473771" lon="8.923002497919272"><ele>267.0</ele><time>2026-03-29T16:33:21Z</time></trkpt><trkpt lat="44.72170876792375" lon="8.922804907842353"><ele>267.0</ele><time>2026-03-29T16:33:21.999Z</time></trkpt><trkpt lat="44.72162132819892" lon="8.922615209648777"><ele>267.0</ele><time>2026-03-29T16:33:23Z</time></trkpt><trkpt lat="44.72152969836572" lon="8.922432675230475"><ele>267.0</ele><time>2026-03-29T16:33:24Z</time></trkpt><trkpt lat="44.721425269472576" lon="8.922264579424084"><ele>265.0</ele><time>2026-03-29T16:33:25Z</time></trkpt><trkpt lat="44.7213095590495" lon="8.922115754581174"><ele>263.0</ele><time>2026-03-29T16:33:25.999Z</time></trkpt><trkpt lat="44.72117930591963" lon="8.921985401969573"><ele>261.0</ele><time>2026-03-29T16:33:26.999Z</time></trkpt><trkpt lat="44.721041386070794" lon="8.921866753643393"><ele>263.3333333333333</ele><time>2026-03-29T16:33:27.999Z</time></trkpt><trkpt lat="44.720902671366105" lon="8.921751876813154"><ele>265.66666666666663</ele><time>2026-03-29T16:33:28.999Z</time></trkpt><trkpt lat="44.72076308725692" lon="8.92163600524711"><ele>268.0</ele><time>2026-03-29T16:33:29.999Z</time></trkpt><trkpt lat="44.720625350431106" lon="8.92152188400495"><ele>268.0</ele><time>2026-03-29T16:33:30.999Z</time></trkpt><trkpt lat="44.72049634185832" lon="8.921411720524794"><ele>268.0</ele><time>2026-03-29T16:33:31.999Z</time></trkpt><trkpt lat="44.720387237803294" lon="8.921301463122257"><ele>268.0</ele><time>2026-03-29T16:33:32.999Z</time></trkpt><trkpt lat="44.72030078809032" lon="8.921177241028325"><ele>268.0</ele><time>2026-03-29T16:33:33.999Z</time></trkpt><trkpt lat="44.720229669315536" lon="8.921038325351764"><ele>269.5</ele><time>2026-03-29T16:33:34.999Z</time></trkpt><trkpt lat="44.720170947242984" lon="8.920881519578066"><ele>271.0</ele><time>2026-03-29T16:33:35.999Z</time></trkpt><trkpt lat="44.72014532666948" lon="8.92070140590145"><ele>272.5</ele><time>2026-03-29T16:33:36.999Z</time></trkpt><trkpt lat="44.720097998047" lon="8.920522132992012"><ele>274.0</ele><time>2026-03-29T16:33:37.999Z</time></trkpt><trkpt lat="44.7200622475889" lon="8.920334448461254"><ele>274.0</ele><time>2026-03-29T16:33:38.999Z</time></trkpt><trkpt lat="44.720015439568506" lon="8.920153675369994"><ele>274.0</ele><time>2026-03-29T16:33:39.999Z</time></trkpt><trkpt lat="44.71996436029482" lon="8.919976688785859"><ele>274.0</ele><time>2026-03-29T16:33:40.999Z</time></trkpt><trkpt lat="44.71990951627552" lon="8.919796608292689"><ele>274.0</ele><time>2026-03-29T16:33:41.999Z</time></trkpt><trkpt lat="44.71984970594496" lon="8.919610300747534"><ele>274.0</ele><time>2026-03-29T16:33:42.999Z</time></trkpt><trkpt lat="44.719787850747004" lon="8.919418704365777"><ele>274.0</ele><time>2026-03-29T16:33:43.999Z</time></trkpt><trkpt lat="44.71972577874526" lon="8.919230747327633"><ele>274.0</ele><time>2026-03-29T16:33:44.999Z</time></trkpt><trkpt lat="44.71966105512493" lon="8.919041081841852"><ele>274.0</ele><time>2026-03-29T16:33:45.999Z</time></trkpt><trkpt lat="44.71959453419494" lon="8.918861539663355"><ele>273.75</ele><time>2026-03-29T16:33:46.999Z</time></trkpt><trkpt lat="44.71952417252755" lon="8.918687042552234"><ele>273.5</ele><time>2026-03-29T16:33:47.999Z</time></trkpt><trkpt lat="44.71945148403045" lon="8.91851464856184"><ele>273.25</ele><time>2026-03-29T16:33:48.999Z</time></trkpt><trkpt lat="44.719372189413555" lon="8.918345322175897"><ele>273.0</ele><time>2026-03-29T16:33:49.999Z</time></trkpt><trkpt lat="44.71928747723429" lon="8.918178581138568"><ele>273.0</ele><time>2026-03-29T16:33:50.999Z</time></trkpt><trkpt lat="44.719189831689036" lon="8.918012355174458"><ele>273.0</ele><time>2026-03-29T16:33:51.999Z</time></trkpt><trkpt lat="44.71908453967042" lon="8.917845014670965"><ele>273.0</ele><time>2026-03-29T16:33:52.999Z</time></trkpt><trkpt lat="44.718977478339184" lon="8.917672546687104"><ele>272.0</ele><time>2026-03-29T16:33:53.999Z</time></trkpt><trkpt lat="44.71886878129717" lon="8.917497229469681"><ele>271.0</ele><time>2026-03-29T16:33:54.999Z</time></trkpt><trkpt lat="44.7187535561918" lon="8.917315762721143"><ele>270.0</ele><time>2026-03-29T16:33:55.999Z</time></trkpt><trkpt lat="44.718636707133506" lon="8.917131290831117"><ele>270.3333333333333</ele><time>2026-03-29T16:33:56.999Z</time></trkpt><trkpt lat="44.71852057472319" lon="8.916946221423682"><ele>270.66666666666663</ele><time>2026-03-29T16:33:57.999Z</time></trkpt><trkpt lat="44.71840657282728" lon="8.916766722595817"><ele>271.0</ele><time>2026-03-29T16:33:58.999Z</time></trkpt><trkpt lat="44.718294503097006" lon="8.916589750275204"><ele>269.66666666666663</ele><time>2026-03-29T16:33:59.999Z</time></trkpt><trkpt lat="44.71819037365077" lon="8.916415577263592"><ele>268.3333333333333</ele><time>2026-03-29T16:34:00.999Z</time></trkpt><trkpt lat="44.718090196707436" lon="8.91624775308192"><ele>267.0</ele><time>2026-03-29T16:34:01.999Z</time></trkpt><trkpt lat="44.717987968223916" lon="8.916075664691956"><ele>267.0</ele><time>2026-03-29T16:34:02.999Z</time></trkpt><trkpt lat="44.7179041027294" lon="8.91588322134882"><ele>267.0</ele><time>2026-03-29T16:34:03.999Z</time></trkpt><trkpt lat="44.7177965744626" lon="8.915718888557194"><ele>267.0</ele><time>2026-03-29T16:34:04.999Z</time></trkpt><trkpt lat="44.71770808440563" lon="8.91553992378955"><ele>267.3333333333333</ele><time>2026-03-29T16:34:05.999Z</time></trkpt><trkpt lat="44.71761660921649" lon="8.915358584859055"><ele>267.66666666666663</ele><time>2026-03-29T16:34:06.999Z</time></trkpt><trkpt lat="44.71752204387397" lon="8.915178503711452"><ele>268.0</ele><time>2026-03-29T16:34:07.999Z</time></trkpt><trkpt lat="44.71742139875713" lon="8.915006153312909"><ele>267.3333333333333</ele><time>2026-03-29T16:34:08.999Z</time></trkpt><trkpt lat="44.717311754932894" lon="8.914846358295714"><ele>266.6666666666667</ele><time>2026-03-29T16:34:09.999Z</time></trkpt><trkpt lat="44.717197395093216" lon="8.914693662767078"><ele>266.0</ele><time>2026-03-29T16:34:10.999Z</time></trkpt><trkpt lat="44.717078517503666" lon="8.914541000668345"><ele>266.0</ele><time>2026-03-29T16:34:11.999Z</time></trkpt><trkpt lat="44.71695984389833" lon="8.914387341320086"><ele>266.0</ele><time>2026-03-29T16:34:12.999Z</time></trkpt><trkpt lat="44.7168362345547" lon="8.914224922069666"><ele>266.0</ele><time>2026-03-29T16:34:13.999Z</time></trkpt><trkpt lat="44.71670028743631" lon="8.914052235071265"><ele>266.33333333333337</ele><time>2026-03-29T16:34:14.999Z</time></trkpt><trkpt lat="44.716536318162944" lon="8.913877084180228"><ele>266.6666666666667</ele><time>2026-03-29T16:34:15.999Z</time></trkpt><trkpt lat="44.716358929213754" lon="8.913661900076573"><ele>267.0</ele><time>2026-03-29T16:34:16.999Z</time></trkpt><trkpt lat="44.71614480597986" lon="8.91346680133018"><ele>266.0</ele><time>2026-03-29T16:34:17.999Z</time></trkpt><trkpt lat="44.71593536699246" lon="8.913294317622999"><ele>265.0</ele><time>2026-03-29T16:34:18.999Z</time></trkpt><trkpt lat="44.71573945829182" lon="8.913153318975494"><ele>265.0</ele><time>2026-03-29T16:34:19.999Z</time></trkpt><trkpt lat="44.715561326724085" lon="8.91300448592974"><ele>265.0</ele><time>2026-03-29T16:34:20.999Z</time></trkpt><trkpt lat="44.71539221454452" lon="8.91285256341343"><ele>265.0</ele><time>2026-03-29T16:34:21.999Z</time></trkpt><trkpt lat="44.71523864021966" lon="8.912689520945419"><ele>263.66666666666663</ele><time>2026-03-29T16:34:22.999Z</time></trkpt><trkpt lat="44.71512695929652" lon="8.912484496102953"><ele>262.3333333333333</ele><time>2026-03-29T16:34:23.999Z</time></trkpt><trkpt lat="44.71501846027978" lon="8.912284198998748"><ele>261.0</ele><time>2026-03-29T16:34:24.999Z</time></trkpt><trkpt lat="44.714899798585215" lon="8.912097553854855"><ele>261.0</ele><time>2026-03-29T16:34:25.999Z</time></trkpt><trkpt lat="44.71479540996919" lon="8.911894054516138"><ele>261.0</ele><time>2026-03-29T16:34:26.999Z</time></trkpt><trkpt lat="44.714686764301945" lon="8.911692111712622"><ele>261.0</ele><time>2026-03-29T16:34:27.999Z</time></trkpt><trkpt lat="44.71457756862466" lon="8.911496534970679"><ele>261.3333333333333</ele><time>2026-03-29T16:34:28.999Z</time></trkpt><trkpt lat="44.71446831667234" lon="8.911305813202967"><ele>261.66666666666663</ele><time>2026-03-29T16:34:29.999Z</time></trkpt><trkpt lat="44.71436045413995" lon="8.911125547967147"><ele>262.0</ele><time>2026-03-29T16:34:30.999Z</time></trkpt><trkpt lat="44.714254850508645" lon="8.910948671764432"><ele>262.0</ele><time>2026-03-29T16:34:31.999Z</time></trkpt><trkpt lat="44.71415505963793" lon="8.910774590237953"><ele>262.0</ele><time>2026-03-29T16:34:32.999Z</time></trkpt><trkpt lat="44.71406207155474" lon="8.910594394511584"><ele>262.0</ele><time>2026-03-29T16:34:33.999Z</time></trkpt><trkpt lat="44.7140000038217" lon="8.910396792704683"><ele>262.0</ele><time>2026-03-29T16:34:34.999Z</time></trkpt><trkpt lat="44.71394740928652" lon="8.91019775142101"><ele>262.0</ele><time>2026-03-29T16:34:35.999Z</time></trkpt><trkpt lat="44.71389275457533" lon="8.909998718321182"><ele>262.0</ele><time>2026-03-29T16:34:36.999Z</time></trkpt><trkpt lat="44.71385195393304" lon="8.909794526196036"><ele>261.3333333333333</ele><time>2026-03-29T16:34:37.999Z</time></trkpt><trkpt lat="44.71381222798402" lon="8.90959003455606"><ele>260.6666666666667</ele><time>2026-03-29T16:34:38.998Z</time></trkpt><trkpt lat="44.7137723819568" lon="8.909382925553905"><ele>260.0</ele><time>2026-03-29T16:34:39.998Z</time></trkpt><trkpt lat="44.71373418333595" lon="8.909178515577507"><ele>258.6666666666667</ele><time>2026-03-29T16:34:40.998Z</time></trkpt><trkpt lat="44.71369481500287" lon="8.908974119367741"><ele>257.3333333333333</ele><time>2026-03-29T16:34:41.998Z</time></trkpt><trkpt lat="44.713656156600244" lon="8.908770571201948"><ele>256.0</ele><time>2026-03-29T16:34:42.998Z</time></trkpt><trkpt lat="44.71361926289041" lon="8.90856649278802"><ele>256.25</ele><time>2026-03-29T16:34:43.998Z</time></trkpt><trkpt lat="44.71358441650647" lon="8.908363488657288"><ele>256.5</ele><time>2026-03-29T16:34:44.998Z</time></trkpt><trkpt lat="44.71354951661495" lon="8.908160257723127"><ele>256.75</ele><time>2026-03-29T16:34:45.998Z</time></trkpt><trkpt lat="44.71351361381511" lon="8.907954531647242"><ele>257.0</ele><time>2026-03-29T16:34:46.998Z</time></trkpt><trkpt lat="44.713474973614105" lon="8.907748708145848"><ele>256.75</ele><time>2026-03-29T16:34:47.998Z</time></trkpt><trkpt lat="44.71343159898048" lon="8.907547583877616"><ele>256.5</ele><time>2026-03-29T16:34:48.998Z</time></trkpt><trkpt lat="44.71338256658849" lon="8.907361057565375"><ele>256.25</ele><time>2026-03-29T16:34:49.998Z</time></trkpt><trkpt lat="44.713322132933556" lon="8.907184838641767"><ele>256.0</ele><time>2026-03-29T16:34:50.998Z</time></trkpt><trkpt lat="44.71325887761024" lon="8.90702031375487"><ele>256.0</ele><time>2026-03-29T16:34:51.998Z</time></trkpt><trkpt lat="44.71319496148275" lon="8.906868961406607"><ele>256.0</ele><time>2026-03-29T16:34:52.998Z</time></trkpt><trkpt lat="44.7131284206262" lon="8.906723406475923"><ele>256.0</ele><time>2026-03-29T16:34:53.998Z</time></trkpt><trkpt lat="44.713058328336324" lon="8.906576194824474"><ele>256.0</ele><time>2026-03-29T16:34:54.998Z</time></trkpt><trkpt lat="44.712983522152896" lon="8.90642592832504"><ele>255.66666666666666</ele><time>2026-03-29T16:34:55.998Z</time></trkpt><trkpt lat="44.71290257443726" lon="8.906268386226216"><ele>255.33333333333331</ele><time>2026-03-29T16:34:56.998Z</time></trkpt><trkpt lat="44.71281171753652" lon="8.906093228202547"><ele>255.0</ele><time>2026-03-29T16:34:57.998Z</time></trkpt><trkpt lat="44.71271117549542" lon="8.905901052694158"><ele>255.0</ele><time>2026-03-29T16:34:58.998Z</time></trkpt><trkpt lat="44.71262189455095" lon="8.90567683571007"><ele>255.0</ele><time>2026-03-29T16:34:59.998Z</time></trkpt><trkpt lat="44.71251219688393" lon="8.905448436068454"><ele>255.0</ele><time>2026-03-29T16:35:00.998Z</time></trkpt><trkpt lat="44.71239958554159" lon="8.905210478646397"><ele>254.66666666666669</ele><time>2026-03-29T16:35:01.998Z</time></trkpt><trkpt lat="44.71228262097881" lon="8.90496248642411"><ele>254.33333333333334</ele><time>2026-03-29T16:35:02.998Z</time></trkpt><trkpt lat="44.71216106643507" lon="8.904704762375491"><ele>254.0</ele><time>2026-03-29T16:35:03.998Z</time></trkpt><trkpt lat="44.71203944072973" lon="8.9044486295394"><ele>254.5</ele><time>2026-03-29T16:35:04.998Z</time></trkpt><trkpt lat="44.71191438143335" lon="8.90418608290271"><ele>255.0</ele><time>2026-03-29T16:35:05.998Z</time></trkpt><trkpt lat="44.71178325753184" lon="8.903909963071996"><ele>254.5</ele><time>2026-03-29T16:35:06.998Z</time></trkpt><trkpt lat="44.71165819398601" lon="8.903645340586255"><ele>254.0</ele><time>2026-03-29T16:35:07.998Z</time></trkpt><trkpt lat="44.71153468796464" lon="8.903382472333734"><ele>254.0</ele><time>2026-03-29T16:35:08.998Z</time></trkpt><trkpt lat="44.71142176832197" lon="8.903144968535559"><ele>254.0</ele><time>2026-03-29T16:35:09.998Z</time></trkpt><trkpt lat="44.711320512460574" lon="8.902932104447155"><ele>254.0</ele><time>2026-03-29T16:35:10.998Z</time></trkpt><trkpt lat="44.71121390052348" lon="8.902678038537497"><ele>253.66666666666669</ele><time>2026-03-29T16:35:11.998Z</time></trkpt><trkpt lat="44.71111581921917" lon="8.902492678466515"><ele>253.33333333333331</ele><time>2026-03-29T16:35:12.998Z</time></trkpt><trkpt lat="44.71099765442594" lon="8.902241944546729"><ele>253.0</ele><time>2026-03-29T16:35:13.998Z</time></trkpt><trkpt lat="44.71087779523611" lon="8.901987615496726"><ele>252.0</ele><time>2026-03-29T16:35:14.998Z</time></trkpt><trkpt lat="44.710753935631885" lon="8.901724798070216"><ele>251.0</ele><time>2026-03-29T16:35:15.998Z</time></trkpt><trkpt lat="44.71062756086761" lon="8.901456643442085"><ele>251.0</ele><time>2026-03-29T16:35:17Z</time></trkpt><trkpt lat="44.71050560426331" lon="8.901198285802066"><ele>251.0</ele><time>2026-03-29T16:35:18Z</time></trkpt><trkpt lat="44.710383833992545" lon="8.900940474000354"><ele>251.0</ele><time>2026-03-29T16:35:19Z</time></trkpt><trkpt lat="44.71026310903908" lon="8.900684875767142"><ele>251.0</ele><time>2026-03-29T16:35:20Z</time></trkpt><trkpt lat="44.710141920010074" lon="8.900428295104096"><ele>251.0</ele><time>2026-03-29T16:35:21Z</time></trkpt><trkpt lat="44.71001001106341" lon="8.9001823021146"><ele>251.0</ele><time>2026-03-29T16:35:22Z</time></trkpt><trkpt lat="44.7098996164834" lon="8.899943979709779"><ele>251.0</ele><time>2026-03-29T16:35:23Z</time></trkpt><trkpt lat="44.709790359678394" lon="8.899715399465864"><ele>251.0</ele><time>2026-03-29T16:35:24Z</time></trkpt><trkpt lat="44.70968955642415" lon="8.89949353156353"><ele>251.0</ele><time>2026-03-29T16:35:25Z</time></trkpt><trkpt lat="44.70958722880669" lon="8.899276532087825"><ele>250.66666666666669</ele><time>2026-03-29T16:35:26Z</time></trkpt><trkpt lat="44.70948332526237" lon="8.899055564189341"><ele>250.33333333333331</ele><time>2026-03-29T16:35:27Z</time></trkpt><trkpt lat="44.70938049854983" lon="8.898835333175048"><ele>250.0</ele><time>2026-03-29T16:35:28Z</time></trkpt><trkpt lat="44.70927868996307" lon="8.898626207768848"><ele>249.33333333333331</ele><time>2026-03-29T16:35:29Z</time></trkpt><trkpt lat="44.709184291794" lon="8.898428126695476"><ele>248.66666666666669</ele><time>2026-03-29T16:35:30Z</time></trkpt><trkpt lat="44.709094299217355" lon="8.898226760459707"><ele>248.0</ele><time>2026-03-29T16:35:31Z</time></trkpt><trkpt lat="44.70900074372861" lon="8.898024656005234"><ele>248.0</ele><time>2026-03-29T16:35:31.999Z</time></trkpt><trkpt lat="44.708908750195846" lon="8.897828708160255"><ele>248.0</ele><time>2026-03-29T16:35:32.999Z</time></trkpt><trkpt lat="44.708818546052775" lon="8.897634201048648"><ele>248.0</ele><time>2026-03-29T16:35:33.999Z</time></trkpt><trkpt lat="44.70872536519312" lon="8.897443185925875"><ele>248.33333333333334</ele><time>2026-03-29T16:35:34.999Z</time></trkpt><trkpt lat="44.70863440334217" lon="8.897253693147585"><ele>248.66666666666669</ele><time>2026-03-29T16:35:35.999Z</time></trkpt><trkpt lat="44.70854632080323" lon="8.897067455503695"><ele>249.0</ele><time>2026-03-29T16:35:36.999Z</time></trkpt><trkpt lat="44.70846104731793" lon="8.8968808957274"><ele>248.0</ele><time>2026-03-29T16:35:37.999Z</time></trkpt><trkpt lat="44.708375090462575" lon="8.896692949070328"><ele>247.0</ele><time>2026-03-29T16:35:38.999Z</time></trkpt><trkpt lat="44.708288740874465" lon="8.8965108592064"><ele>246.0</ele><time>2026-03-29T16:35:39.999Z</time></trkpt><trkpt lat="44.70820343805875" lon="8.896332586642336"><ele>246.0</ele><time>2026-03-29T16:35:40.999Z</time></trkpt><trkpt lat="44.70811902440112" lon="8.896150570020101"><ele>246.0</ele><time>2026-03-29T16:35:41.999Z</time></trkpt><trkpt lat="44.708033716513704" lon="8.895971621370679"><ele>246.0</ele><time>2026-03-29T16:35:42.999Z</time></trkpt><trkpt lat="44.70795002216346" lon="8.895795430849978"><ele>246.0</ele><time>2026-03-29T16:35:43.999Z</time></trkpt><trkpt lat="44.70786455313256" lon="8.895618505320767"><ele>246.0</ele><time>2026-03-29T16:35:44.999Z</time></trkpt><trkpt lat="44.707782699562806" lon="8.895445813096222"><ele>246.0</ele><time>2026-03-29T16:35:45.999Z</time></trkpt><trkpt lat="44.707702164461956" lon="8.895269588374125"><ele>246.0</ele><time>2026-03-29T16:35:46.999Z</time></trkpt><trkpt lat="44.707620577945114" lon="8.895099008789158"><ele>245.75</ele><time>2026-03-29T16:35:47.999Z</time></trkpt><trkpt lat="44.707541915711104" lon="8.894934032399895"><ele>245.5</ele><time>2026-03-29T16:35:48.999Z</time></trkpt><trkpt lat="44.70746667093354" lon="8.894778019279004"><ele>245.25</ele><time>2026-03-29T16:35:49.999Z</time></trkpt><trkpt lat="44.70739560802181" lon="8.894622356120635"><ele>245.0</ele><time>2026-03-29T16:35:50.999Z</time></trkpt><trkpt lat="44.707325429865485" lon="8.894470399680575"><ele>245.0</ele><time>2026-03-29T16:35:51.999Z</time></trkpt><trkpt lat="44.707251507173524" lon="8.894316427891589"><ele>245.0</ele><time>2026-03-29T16:35:52.999Z</time></trkpt><trkpt lat="44.707176199419536" lon="8.894163458055775"><ele>245.0</ele><time>2026-03-29T16:35:53.999Z</time></trkpt><trkpt lat="44.707100686608605" lon="8.894005799237757"><ele>245.0</ele><time>2026-03-29T16:35:54.999Z</time></trkpt><trkpt lat="44.707025940415605" lon="8.893847367563046"><ele>245.0</ele><time>2026-03-29T16:35:55.999Z</time></trkpt><trkpt lat="44.70695742671375" lon="8.893697738493449"><ele>245.0</ele><time>2026-03-29T16:35:56.999Z</time></trkpt><trkpt lat="44.70689859514369" lon="8.8935762248623"><ele>245.0</ele><time>2026-03-29T16:35:57.999Z</time></trkpt><trkpt lat="44.70685250283139" lon="8.893484161624716"><ele>245.0</ele><time>2026-03-29T16:35:58.998Z</time></trkpt><trkpt lat="44.706824284583455" lon="8.893388593274446"><ele>245.0</ele><time>2026-03-29T16:35:59.998Z</time></trkpt><trkpt lat="44.706785508747764" lon="8.893305711959444"><ele>245.00000000000003</ele><time>2026-03-29T16:36:00.998Z</time></trkpt><trkpt lat="44.70674416895892" lon="8.893217350215295"><ele>245.0</ele><time>2026-03-29T16:36:01.998Z</time></trkpt><trkpt lat="44.70669904707239" lon="8.89312090420858"><ele>245.0</ele><time>2026-03-29T16:36:02.998Z</time></trkpt><trkpt lat="44.70665173403945" lon="8.893018307251896"><ele>245.0</ele><time>2026-03-29T16:36:03.998Z</time></trkpt><trkpt lat="44.70660833878984" lon="8.892924310503844"><ele>245.00000000000003</ele><time>2026-03-29T16:36:04.998Z</time></trkpt><trkpt lat="44.70657247669576" lon="8.892846630145137"><ele>245.0</ele><time>2026-03-29T16:36:05.998Z</time></trkpt><trkpt lat="44.70649390254774" lon="8.892713237153417"><ele>245.00000000000003</ele><time>2026-03-29T16:36:07.998Z</time></trkpt><trkpt lat="44.70645327569629" lon="8.892627757544101"><ele>245.0</ele><time>2026-03-29T16:36:08.998Z</time></trkpt><trkpt lat="44.70641523374507" lon="8.892543944668141"><ele>245.0</ele><time>2026-03-29T16:36:09.998Z</time></trkpt><trkpt lat="44.70637443329297" lon="8.892453863317325"><ele>245.0</ele><time>2026-03-29T16:36:10.998Z</time></trkpt><trkpt lat="44.7063265049387" lon="8.89234664880322"><ele>245.00000000000003</ele><time>2026-03-29T16:36:11.998Z</time></trkpt><trkpt lat="44.70627289403902" lon="8.89222523358458"><ele>245.0</ele><time>2026-03-29T16:36:12.998Z</time></trkpt><trkpt lat="44.706211732801414" lon="8.892095593318421"><ele>245.0</ele><time>2026-03-29T16:36:13.998Z</time></trkpt><trkpt lat="44.70614189793061" lon="8.891953712470634"><ele>245.0</ele><time>2026-03-29T16:36:14.998Z</time></trkpt><trkpt lat="44.70606835854841" lon="8.891800858567859"><ele>245.0</ele><time>2026-03-29T16:36:15.998Z</time></trkpt><trkpt lat="44.70599013380515" lon="8.891639274680216"><ele>245.0</ele><time>2026-03-29T16:36:16.998Z</time></trkpt><trkpt lat="44.70592239376078" lon="8.891463897430723"><ele>244.66666666666669</ele><time>2026-03-29T16:36:17.998Z</time></trkpt><trkpt lat="44.70583115934248" lon="8.891269112642906"><ele>244.33333333333331</ele><time>2026-03-29T16:36:18.998Z</time></trkpt><trkpt lat="44.70574456060313" lon="8.891119991405535"><ele>244.0</ele><time>2026-03-29T16:36:19.998Z</time></trkpt><trkpt lat="44.70565971172725" lon="8.890942807721007"><ele>244.33333333333331</ele><time>2026-03-29T16:36:20.998Z</time></trkpt><trkpt lat="44.705573254918136" lon="8.890759524006715"><ele>244.66666666666669</ele><time>2026-03-29T16:36:21.998Z</time></trkpt><trkpt lat="44.70550322341204" lon="8.890577038892912"><ele>245.0</ele><time>2026-03-29T16:36:22.998Z</time></trkpt><trkpt lat="44.70540874154307" lon="8.890417910736446"><ele>245.0</ele><time>2026-03-29T16:36:23.998Z</time></trkpt><trkpt lat="44.70533018496603" lon="8.890252149632285"><ele>245.0</ele><time>2026-03-29T16:36:24.998Z</time></trkpt><trkpt lat="44.70524973120286" lon="8.89008097833439"><ele>245.0</ele><time>2026-03-29T16:36:25.998Z</time></trkpt><trkpt lat="44.70516990037206" lon="8.889909750331498"><ele>245.0</ele><time>2026-03-29T16:36:26.998Z</time></trkpt><trkpt lat="44.705092742291534" lon="8.889747180478631"><ele>244.25</ele><time>2026-03-29T16:36:27.998Z</time></trkpt><trkpt lat="44.70501964185906" lon="8.889589608342455"><ele>243.5</ele><time>2026-03-29T16:36:28.998Z</time></trkpt><trkpt lat="44.70494523175793" lon="8.889435469934735"><ele>242.75</ele><time>2026-03-29T16:36:29.998Z</time></trkpt><trkpt lat="44.70487639067074" lon="8.889296251247893"><ele>242.0</ele><time>2026-03-29T16:36:30.998Z</time></trkpt><trkpt lat="44.70480727444292" lon="8.889155864550816"><ele>242.0</ele><time>2026-03-29T16:36:31.998Z</time></trkpt><trkpt lat="44.70473881197414" lon="8.889030880427814"><ele>242.0</ele><time>2026-03-29T16:36:32.998Z</time></trkpt><trkpt lat="44.704670019950456" lon="8.888915745475904"><ele>242.0</ele><time>2026-03-29T16:36:33.998Z</time></trkpt><trkpt lat="44.70460414277957" lon="8.888808919779473"><ele>242.0</ele><time>2026-03-29T16:36:34.998Z</time></trkpt><trkpt lat="44.704540914441075" lon="8.888704681808015"><ele>242.0</ele><time>2026-03-29T16:36:35.998Z</time></trkpt><trkpt lat="44.70447879856032" lon="8.888607621960444"><ele>242.0</ele><time>2026-03-29T16:36:36.998Z</time></trkpt><trkpt lat="44.704415432548615" lon="8.888514850908617"><ele>242.0</ele><time>2026-03-29T16:36:37.998Z</time></trkpt><trkpt lat="44.704350587900734" lon="8.888424489117424"><ele>242.0</ele><time>2026-03-29T16:36:38.998Z</time></trkpt><trkpt lat="44.70428557498737" lon="8.888335745625884"><ele>242.0</ele><time>2026-03-29T16:36:39.998Z</time></trkpt><trkpt lat="44.70421613334004" lon="8.88824820881697"><ele>242.0</ele><time>2026-03-29T16:36:40.998Z</time></trkpt><trkpt lat="44.70414594427465" lon="8.888159178850579"><ele>241.50000000000003</ele><time>2026-03-29T16:36:41.998Z</time></trkpt><trkpt lat="44.704072536327644" lon="8.888076264600913"><ele>241.0</ele><time>2026-03-29T16:36:42.998Z</time></trkpt><trkpt lat="44.704000968183315" lon="8.887996939664266"><ele>240.5</ele><time>2026-03-29T16:36:43.998Z</time></trkpt><trkpt lat="44.70394078076422" lon="8.887921501904053"><ele>240.0</ele><time>2026-03-29T16:36:44.998Z</time></trkpt><trkpt lat="44.703901741351984" lon="8.887844854103614"><ele>239.50000000000003</ele><time>2026-03-29T16:36:45.998Z</time></trkpt><trkpt lat="44.70385970902365" lon="8.887729007225072"><ele>239.0</ele><time>2026-03-29T16:36:47.998Z</time></trkpt><trkpt lat="44.70395322712148" lon="8.887599707939103"><ele>239.0</ele><time>2026-03-29T16:36:48.998Z</time></trkpt><trkpt lat="44.704031224702405" lon="8.887529632886773"><ele>239.0</ele><time>2026-03-29T16:36:49.998Z</time></trkpt><trkpt lat="44.70415241466613" lon="8.887401713867442"><ele>239.0</ele><time>2026-03-29T16:36:50.998Z</time></trkpt><trkpt lat="44.70431477126564" lon="8.887287796720853"><ele>239.0</ele><time>2026-03-29T16:36:51.998Z</time></trkpt><trkpt lat="44.70443280326658" lon="8.887168656750152"><ele>239.0</ele><time>2026-03-29T16:36:52.998Z</time></trkpt><trkpt lat="44.704559659315315" lon="8.887075257140214"><ele>239.0</ele><time>2026-03-29T16:36:53.998Z</time></trkpt><trkpt lat="44.704736633593676" lon="8.886922046084306"><ele>239.0</ele><time>2026-03-29T16:36:54.998Z</time></trkpt><trkpt lat="44.704924574495614" lon="8.886805861947188"><ele>239.0</ele><time>2026-03-29T16:36:55.998Z</time></trkpt><trkpt lat="44.70512186955259" lon="8.886712097675945"><ele>239.0</ele><time>2026-03-29T16:36:56.998Z</time></trkpt><trkpt lat="44.70532175798792" lon="8.886662484622997"><ele>239.0</ele><time>2026-03-29T16:36:57.998Z</time></trkpt><trkpt lat="44.70549138553717" lon="8.886606610342103"><ele>239.33333333333334</ele><time>2026-03-29T16:36:58.997Z</time></trkpt><trkpt lat="44.70564482183029" lon="8.886537315663816"><ele>239.66666666666669</ele><time>2026-03-29T16:36:59.997Z</time></trkpt><trkpt lat="44.705798905383254" lon="8.886493898027732"><ele>240.0</ele><time>2026-03-29T16:37:00.997Z</time></trkpt><trkpt lat="44.70594511362861" lon="8.886445313924671"><ele>240.0</ele><time>2026-03-29T16:37:01.997Z</time></trkpt><trkpt lat="44.70607921219402" lon="8.886398418243372"><ele>240.0</ele><time>2026-03-29T16:37:02.997Z</time></trkpt><trkpt lat="44.70621625565078" lon="8.886379799027921"><ele>240.0</ele><time>2026-03-29T16:37:03.997Z</time></trkpt><trkpt lat="44.70634771197975" lon="8.886352795360901"><ele>240.0</ele><time>2026-03-29T16:37:04.997Z</time></trkpt><trkpt lat="44.706478131239635" lon="8.886343843075712"><ele>240.0</ele><time>2026-03-29T16:37:05.997Z</time></trkpt><trkpt lat="44.70658969619736" lon="8.886354985773742"><ele>240.0</ele><time>2026-03-29T16:37:06.997Z</time></trkpt><trkpt lat="44.70670643847226" lon="8.88636643445322"><ele>240.0</ele><time>2026-03-29T16:37:07.997Z</time></trkpt><trkpt lat="44.70682602926287" lon="8.886356114133452"><ele>240.0</ele><time>2026-03-29T16:37:08.997Z</time></trkpt><trkpt lat="44.7069501369642" lon="8.886359426799618"><ele>240.0</ele><time>2026-03-29T16:37:09.997Z</time></trkpt><trkpt lat="44.707071080266225" lon="8.886339542765448"><ele>240.0</ele><time>2026-03-29T16:37:10.997Z</time></trkpt><trkpt lat="44.70718650535926" lon="8.886295667431742"><ele>240.0</ele><time>2026-03-29T16:37:11.997Z</time></trkpt><trkpt lat="44.70729582013102" lon="8.886243309284495"><ele>240.0</ele><time>2026-03-29T16:37:12.997Z</time></trkpt><trkpt lat="44.70740285463199" lon="8.886196326051325"><ele>240.0</ele><time>2026-03-29T16:37:13.997Z</time></trkpt><trkpt lat="44.707508089429325" lon="8.886152121060809"><ele>240.0</ele><time>2026-03-29T16:37:14.997Z</time></trkpt><trkpt lat="44.70760675757431" lon="8.886104602047787"><ele>240.0</ele><time>2026-03-29T16:37:15.997Z</time></trkpt><trkpt lat="44.70770616208886" lon="8.886058664409843"><ele>240.0</ele><time>2026-03-29T16:37:16.997Z</time></trkpt><trkpt lat="44.70781740291931" lon="8.886009400774563"><ele>240.0</ele><time>2026-03-29T16:37:17.997Z</time></trkpt><trkpt lat="44.70793246196926" lon="8.885961773348916"><ele>239.75</ele><time>2026-03-29T16:37:18.997Z</time></trkpt><trkpt lat="44.708046601863245" lon="8.885914572751524"><ele>239.5</ele><time>2026-03-29T16:37:19.997Z</time></trkpt><trkpt lat="44.708157154338615" lon="8.885867365868371"><ele>239.25</ele><time>2026-03-29T16:37:20.997Z</time></trkpt><trkpt lat="44.70826310389383" lon="8.885829255561871"><ele>239.0</ele><time>2026-03-29T16:37:21.997Z</time></trkpt><trkpt lat="44.70837093436813" lon="8.88579190932144"><ele>239.0</ele><time>2026-03-29T16:37:22.999Z</time></trkpt><trkpt lat="44.70847522262056" lon="8.885765018175888"><ele>238.99999999999997</ele><time>2026-03-29T16:37:23.999Z</time></trkpt><trkpt lat="44.70857698910564" lon="8.88573450330527"><ele>238.99999999999997</ele><time>2026-03-29T16:37:24.999Z</time></trkpt><trkpt lat="44.70867684417212" lon="8.885674449384933"><ele>239.0</ele><time>2026-03-29T16:37:25.999Z</time></trkpt><trkpt lat="44.70877133387664" lon="8.885591505478079"><ele>239.0</ele><time>2026-03-29T16:37:26.999Z</time></trkpt><trkpt lat="44.70885715897159" lon="8.88547645039962"><ele>237.5</ele><time>2026-03-29T16:37:27.999Z</time></trkpt><trkpt lat="44.708930961858236" lon="8.885325274516726"><ele>236.0</ele><time>2026-03-29T16:37:28.999Z</time></trkpt><trkpt lat="44.708997064968536" lon="8.885153938382548"><ele>234.5</ele><time>2026-03-29T16:37:29.999Z</time></trkpt><trkpt lat="44.70906626623729" lon="8.884980408657032"><ele>233.0</ele><time>2026-03-29T16:37:30.999Z</time></trkpt><trkpt lat="44.70913454605337" lon="8.884807099349743"><ele>233.0</ele><time>2026-03-29T16:37:31.999Z</time></trkpt><trkpt lat="44.70919915466298" lon="8.884634344122464"><ele>233.0</ele><time>2026-03-29T16:37:32.999Z</time></trkpt><trkpt lat="44.70925234951786" lon="8.88446090050758"><ele>233.0</ele><time>2026-03-29T16:37:33.999Z</time></trkpt><trkpt lat="44.70928748365166" lon="8.884288851991808"><ele>233.0</ele><time>2026-03-29T16:37:34.999Z</time></trkpt><trkpt lat="44.70932049777343" lon="8.88412016159218"><ele>233.75</ele><time>2026-03-29T16:37:35.999Z</time></trkpt><trkpt lat="44.709353973177905" lon="8.883957036231454"><ele>234.5</ele><time>2026-03-29T16:37:36.999Z</time></trkpt><trkpt lat="44.709388629786275" lon="8.883799599649365"><ele>235.25</ele><time>2026-03-29T16:37:37.999Z</time></trkpt><trkpt lat="44.70941965245229" lon="8.883643961951172"><ele>236.0</ele><time>2026-03-29T16:37:38.999Z</time></trkpt><trkpt lat="44.70945067122289" lon="8.883489432622186"><ele>233.8</ele><time>2026-03-29T16:37:39.999Z</time></trkpt><trkpt lat="44.70948155759867" lon="8.883338543727696"><ele>231.60000000000002</ele><time>2026-03-29T16:37:40.999Z</time></trkpt><trkpt lat="44.70950970092289" lon="8.883196385032567"><ele>229.4</ele><time>2026-03-29T16:37:41.999Z</time></trkpt><trkpt lat="44.7095345230214" lon="8.883051007622923"><ele>227.2</ele><time>2026-03-29T16:37:42.999Z</time></trkpt><trkpt lat="44.70955841620142" lon="8.882907874157654"><ele>225.0</ele><time>2026-03-29T16:37:43.999Z</time></trkpt><trkpt lat="44.70958457921934" lon="8.882767580502716"><ele>225.0</ele><time>2026-03-29T16:37:44.999Z</time></trkpt><trkpt lat="44.70961495051798" lon="8.88263177332566"><ele>225.0</ele><time>2026-03-29T16:37:45.999Z</time></trkpt><trkpt lat="44.709642926492826" lon="8.882499100140175"><ele>225.0</ele><time>2026-03-29T16:37:46.999Z</time></trkpt><trkpt lat="44.709672371087166" lon="8.8823616381798"><ele>225.0</ele><time>2026-03-29T16:37:47.999Z</time></trkpt><trkpt lat="44.70970408027267" lon="8.882221795461415"><ele>225.0</ele><time>2026-03-29T16:37:48.999Z</time></trkpt><trkpt lat="44.70973005677279" lon="8.882076043878726"><ele>225.0</ele><time>2026-03-29T16:37:49.999Z</time></trkpt><trkpt lat="44.70976080603541" lon="8.881933934070595"><ele>225.0</ele><time>2026-03-29T16:37:50.999Z</time></trkpt><trkpt lat="44.70978989629879" lon="8.88178999517969"><ele>225.0</ele><time>2026-03-29T16:37:51.999Z</time></trkpt><trkpt lat="44.709813758630766" lon="8.881654404130847"><ele>225.0</ele><time>2026-03-29T16:37:52.999Z</time></trkpt><trkpt lat="44.709828961247176" lon="8.881522943852497"><ele>225.0</ele><time>2026-03-29T16:37:53.999Z</time></trkpt><trkpt lat="44.70982728061754" lon="8.881395395441778"><ele>224.6</ele><time>2026-03-29T16:37:54.999Z</time></trkpt><trkpt lat="44.7098085743221" lon="8.881273138751146"><ele>224.2</ele><time>2026-03-29T16:37:55.999Z</time></trkpt><trkpt lat="44.709769589028234" lon="8.881150282092905"><ele>223.8</ele><time>2026-03-29T16:37:56.999Z</time></trkpt><trkpt lat="44.709713979774676" lon="8.88102816056723"><ele>223.4</ele><time>2026-03-29T16:37:57.999Z</time></trkpt><trkpt lat="44.70965800721657" lon="8.880912091110586"><ele>223.0</ele><time>2026-03-29T16:37:58.999Z</time></trkpt><trkpt lat="44.709606833594655" lon="8.88079490289039"><ele>223.60000000000002</ele><time>2026-03-29T16:37:59.999Z</time></trkpt><trkpt lat="44.709553528996594" lon="8.880659393710143"><ele>224.20000000000002</ele><time>2026-03-29T16:38:00.999Z</time></trkpt><trkpt lat="44.70949534728989" lon="8.880522254713075"><ele>224.8</ele><time>2026-03-29T16:38:01.999Z</time></trkpt><trkpt lat="44.70943264885167" lon="8.880389262112498"><ele>225.4</ele><time>2026-03-29T16:38:02.999Z</time></trkpt><trkpt lat="44.709368785007904" lon="8.880260499722771"><ele>226.0</ele><time>2026-03-29T16:38:03.999Z</time></trkpt><trkpt lat="44.709308627326934" lon="8.88012894122155"><ele>224.0</ele><time>2026-03-29T16:38:04.999Z</time></trkpt><trkpt lat="44.709248208558385" lon="8.879992751576376"><ele>222.00000000000003</ele><time>2026-03-29T16:38:05.999Z</time></trkpt><trkpt lat="44.70918914067721" lon="8.879860140796177"><ele>220.00000000000003</ele><time>2026-03-29T16:38:06.999Z</time></trkpt><trkpt lat="44.70913311045939" lon="8.879735331055535"><ele>218.0</ele><time>2026-03-29T16:38:07.999Z</time></trkpt><trkpt lat="44.709079906447684" lon="8.879613526574198"><ele>216.0</ele><time>2026-03-29T16:38:08.999Z</time></trkpt><trkpt lat="44.7090282251753" lon="8.87949605796057"><ele>216.0</ele><time>2026-03-29T16:38:09.999Z</time></trkpt><trkpt lat="44.70897888560864" lon="8.879389636334967"><ele>216.0</ele><time>2026-03-29T16:38:10.999Z</time></trkpt><trkpt lat="44.70893172036341" lon="8.879282483089407"><ele>216.0</ele><time>2026-03-29T16:38:11.999Z</time></trkpt><trkpt lat="44.70888610597646" lon="8.879180208028364"><ele>216.0</ele><time>2026-03-29T16:38:12.999Z</time></trkpt><trkpt lat="44.70884001432854" lon="8.879072756132581"><ele>216.0</ele><time>2026-03-29T16:38:13.999Z</time></trkpt><trkpt lat="44.70879742922136" lon="8.878957727128556"><ele>216.0</ele><time>2026-03-29T16:38:14.999Z</time></trkpt><trkpt lat="44.70877271542482" lon="8.878835817516592"><ele>216.0</ele><time>2026-03-29T16:38:15.999Z</time></trkpt><trkpt lat="44.70877512695247" lon="8.878701772688535"><ele>216.00000000000003</ele><time>2026-03-29T16:38:16.999Z</time></trkpt><trkpt lat="44.70880544431208" lon="8.878562497953947"><ele>216.00000000000003</ele><time>2026-03-29T16:38:17.999Z</time></trkpt><trkpt lat="44.708861198588664" lon="8.878426721603214"><ele>216.0</ele><time>2026-03-29T16:38:18.999Z</time></trkpt><trkpt lat="44.708952897061664" lon="8.878331715037612"><ele>216.0</ele><time>2026-03-29T16:38:19.999Z</time></trkpt><trkpt lat="44.709047650412224" lon="8.878214218606729"><ele>216.0</ele><time>2026-03-29T16:38:20.999Z</time></trkpt><trkpt lat="44.709154736865834" lon="8.878106134379635"><ele>216.0</ele><time>2026-03-29T16:38:21.999Z</time></trkpt><trkpt lat="44.70926171170635" lon="8.877987825667729"><ele>216.0</ele><time>2026-03-29T16:38:22.999Z</time></trkpt><trkpt lat="44.70936766863583" lon="8.877870079374318"><ele>216.0</ele><time>2026-03-29T16:38:23.999Z</time></trkpt><trkpt lat="44.709475047034665" lon="8.877750425274893"><ele>216.5</ele><time>2026-03-29T16:38:24.999Z</time></trkpt><trkpt lat="44.709578893673545" lon="8.877635188837896"><ele>217.0</ele><time>2026-03-29T16:38:25.999Z</time></trkpt><trkpt lat="44.709671954532716" lon="8.877541834415197"><ele>217.5</ele><time>2026-03-29T16:38:26.999Z</time></trkpt><trkpt lat="44.70976102115657" lon="8.87745717418076"><ele>218.0</ele><time>2026-03-29T16:38:27.999Z</time></trkpt><trkpt lat="44.709856171242876" lon="8.877370778365409"><ele>217.2</ele><time>2026-03-29T16:38:28.999Z</time></trkpt><trkpt lat="44.70995660281615" lon="8.877299480774537"><ele>216.4</ele><time>2026-03-29T16:38:29.999Z</time></trkpt><trkpt lat="44.71005211205897" lon="8.877242563114747"><ele>215.59999999999997</ele><time>2026-03-29T16:38:30.999Z</time></trkpt><trkpt lat="44.71014502190428" lon="8.877198501544829"><ele>214.79999999999998</ele><time>2026-03-29T16:38:31.999Z</time></trkpt><trkpt lat="44.71023556599367" lon="8.877164922334227"><ele>214.0</ele><time>2026-03-29T16:38:32.999Z</time></trkpt><trkpt lat="44.71032312984044" lon="8.87712763817046"><ele>212.99999999999997</ele><time>2026-03-29T16:38:33.999Z</time></trkpt><trkpt lat="44.7104047490459" lon="8.877092855951261"><ele>212.0</ele><time>2026-03-29T16:38:34.999Z</time></trkpt><trkpt lat="44.71048301582114" lon="8.87706226636664"><ele>211.0</ele><time>2026-03-29T16:38:35.999Z</time></trkpt><trkpt lat="44.71056105372458" lon="8.877028962091767"><ele>210.0</ele><time>2026-03-29T16:38:36.999Z</time></trkpt><trkpt lat="44.71062967889633" lon="8.876998218506676"><ele>208.99999999999997</ele><time>2026-03-29T16:38:37.999Z</time></trkpt><trkpt lat="44.71070269669047" lon="8.876969106850256"><ele>208.0</ele><time>2026-03-29T16:38:38.999Z</time></trkpt><trkpt lat="44.710774116775994" lon="8.876941154622958"><ele>207.99999999999997</ele><time>2026-03-29T16:38:39.999Z</time></trkpt><trkpt lat="44.71084552839151" lon="8.87691110186158"><ele>208.0</ele><time>2026-03-29T16:38:40.999Z</time></trkpt><trkpt lat="44.71091676153152" lon="8.876876323740401"><ele>208.0</ele><time>2026-03-29T16:38:41.999Z</time></trkpt><trkpt lat="44.71098615501151" lon="8.876828354088916"><ele>208.0</ele><time>2026-03-29T16:38:42.999Z</time></trkpt><trkpt lat="44.71104533211248" lon="8.87674645676533"><ele>207.99999999999997</ele><time>2026-03-29T16:38:43.999Z</time></trkpt><trkpt lat="44.71107517945113" lon="8.876598808090776"><ele>208.0</ele><time>2026-03-29T16:38:44.999Z</time></trkpt><trkpt lat="44.71109575504895" lon="8.876433210967077"><ele>212.0</ele><time>2026-03-29T16:38:45.999Z</time></trkpt><trkpt lat="44.711125865188684" lon="8.87624706281496"><ele>216.0</ele><time>2026-03-29T16:38:46.999Z</time></trkpt><trkpt lat="44.71115107155874" lon="8.876030146008134"><ele>220.0</ele><time>2026-03-29T16:38:47.999Z</time></trkpt><trkpt lat="44.71117510644364" lon="8.875812287700802"><ele>224.0</ele><time>2026-03-29T16:38:48.999Z</time></trkpt><trkpt lat="44.71118514823902" lon="8.875600215802399"><ele>225.0</ele><time>2026-03-29T16:38:49.999Z</time></trkpt><trkpt lat="44.7112187885826" lon="8.875426304117221"><ele>226.0</ele><time>2026-03-29T16:38:50.999Z</time></trkpt><trkpt lat="44.71123619638084" lon="8.87526231777641"><ele>227.0</ele><time>2026-03-29T16:38:51.999Z</time></trkpt><trkpt lat="44.71125381940797" lon="8.87509559167139"><ele>228.0</ele><time>2026-03-29T16:38:52.999Z</time></trkpt><trkpt lat="44.71126416155038" lon="8.874920923797356"><ele>229.33333333333331</ele><time>2026-03-29T16:38:53.999Z</time></trkpt><trkpt lat="44.71125739802882" lon="8.874733880946804"><ele>230.66666666666666</ele><time>2026-03-29T16:38:54.999Z</time></trkpt><trkpt lat="44.71123334411661" lon="8.874502823229717"><ele>232.0</ele><time>2026-03-29T16:38:55.999Z</time></trkpt><trkpt lat="44.71119985110306" lon="8.874238247456333"><ele>232.33333333333331</ele><time>2026-03-29T16:38:56.999Z</time></trkpt><trkpt lat="44.711167658447295" lon="8.873987678149732"><ele>232.66666666666669</ele><time>2026-03-29T16:38:57.998Z</time></trkpt><trkpt lat="44.71113328240761" lon="8.87374119690115"><ele>233.0</ele><time>2026-03-29T16:38:58.998Z</time></trkpt><trkpt lat="44.71110695426618" lon="8.873506232650914"><ele>234.0</ele><time>2026-03-29T16:38:59.998Z</time></trkpt><trkpt lat="44.711088811484416" lon="8.873288764097532"><ele>235.0</ele><time>2026-03-29T16:39:00.998Z</time></trkpt><trkpt lat="44.71107321830742" lon="8.873077613618788"><ele>236.0</ele><time>2026-03-29T16:39:01.998Z</time></trkpt><trkpt lat="44.71105568131997" lon="8.872869358183634"><ele>231.33333333333334</ele><time>2026-03-29T16:39:02.998Z</time></trkpt><trkpt lat="44.711039267967216" lon="8.872655022559712"><ele>226.66666666666669</ele><time>2026-03-29T16:39:03.998Z</time></trkpt><trkpt lat="44.71103072018574" lon="8.872441178685419"><ele>222.0</ele><time>2026-03-29T16:39:04.998Z</time></trkpt><trkpt lat="44.71101968756005" lon="8.872219390003984"><ele>222.0</ele><time>2026-03-29T16:39:05.998Z</time></trkpt><trkpt lat="44.71100982832054" lon="8.872012119853034"><ele>222.0</ele><time>2026-03-29T16:39:06.998Z</time></trkpt><trkpt lat="44.71101834364281" lon="8.871820486164237"><ele>222.0</ele><time>2026-03-29T16:39:07.998Z</time></trkpt><trkpt lat="44.71105112332876" lon="8.871631488691255"><ele>222.0</ele><time>2026-03-29T16:39:08.998Z</time></trkpt><trkpt lat="44.71110764453839" lon="8.871448362217071"><ele>223.0</ele><time>2026-03-29T16:39:09.998Z</time></trkpt><trkpt lat="44.71118749290307" lon="8.871280738213699"><ele>224.0</ele><time>2026-03-29T16:39:10.998Z</time></trkpt><trkpt lat="44.71128572765634" lon="8.871139292048154"><ele>225.0</ele><time>2026-03-29T16:39:11.998Z</time></trkpt><trkpt lat="44.711398117592786" lon="8.871007607982888"><ele>226.0</ele><time>2026-03-29T16:39:12.998Z</time></trkpt><trkpt lat="44.71152065471685" lon="8.870877981165464"><ele>226.0</ele><time>2026-03-29T16:39:13.998Z</time></trkpt><trkpt lat="44.711660666543914" lon="8.870752133398986"><ele>226.0</ele><time>2026-03-29T16:39:14.998Z</time></trkpt><trkpt lat="44.71180576701096" lon="8.87062324523718"><ele>226.0</ele><time>2026-03-29T16:39:15.998Z</time></trkpt><trkpt lat="44.71194222130273" lon="8.870493381260223"><ele>226.0</ele><time>2026-03-29T16:39:16.998Z</time></trkpt><trkpt lat="44.71206549141447" lon="8.870359755578685"><ele>226.0</ele><time>2026-03-29T16:39:17.998Z</time></trkpt><trkpt lat="44.71216855960586" lon="8.870197626182724"><ele>226.0</ele><time>2026-03-29T16:39:18.998Z</time></trkpt><trkpt lat="44.71224870402455" lon="8.870010391308513"><ele>226.0</ele><time>2026-03-29T16:39:19.998Z</time></trkpt><trkpt lat="44.712302874115856" lon="8.869818960118625"><ele>226.0</ele><time>2026-03-29T16:39:20.998Z</time></trkpt><trkpt lat="44.71235953574008" lon="8.869655309347678"><ele>226.0</ele><time>2026-03-29T16:39:21.998Z</time></trkpt><trkpt lat="44.71242463212137" lon="8.869494591836405"><ele>226.0</ele><time>2026-03-29T16:39:22.998Z</time></trkpt><trkpt lat="44.71249456395309" lon="8.869334889924968"><ele>225.0</ele><time>2026-03-29T16:39:23.998Z</time></trkpt><trkpt lat="44.71257648358434" lon="8.869180340919646"><ele>224.0</ele><time>2026-03-29T16:39:24.998Z</time></trkpt><trkpt lat="44.71267769368608" lon="8.869032382532291"><ele>223.0</ele><time>2026-03-29T16:39:25.998Z</time></trkpt><trkpt lat="44.71279552350334" lon="8.868889897386117"><ele>222.0</ele><time>2026-03-29T16:39:26.998Z</time></trkpt><trkpt lat="44.71291911825683" lon="8.86872548414461"><ele>224.5</ele><time>2026-03-29T16:39:27.998Z</time></trkpt><trkpt lat="44.7130824587636" lon="8.868531896151003"><ele>227.0</ele><time>2026-03-29T16:39:29Z</time></trkpt><trkpt lat="44.713250596925214" lon="8.868268279681216"><ele>227.0</ele><time>2026-03-29T16:39:30Z</time></trkpt><trkpt lat="44.713395792226095" lon="8.867956701609248"><ele>227.0</ele><time>2026-03-29T16:39:31Z</time></trkpt><trkpt lat="44.713544764771044" lon="8.86769489808072"><ele>228.0</ele><time>2026-03-29T16:39:32Z</time></trkpt><trkpt lat="44.713695992897804" lon="8.867468128138144"><ele>229.0</ele><time>2026-03-29T16:39:33Z</time></trkpt><trkpt lat="44.713827233657135" lon="8.867282389880483"><ele>230.0</ele><time>2026-03-29T16:39:34Z</time></trkpt><trkpt lat="44.71393621682409" lon="8.867124559424678"><ele>230.0</ele><time>2026-03-29T16:39:35Z</time></trkpt><trkpt lat="44.7140082507767" lon="8.86697582515614"><ele>230.0</ele><time>2026-03-29T16:39:36Z</time></trkpt><trkpt lat="44.71405189003553" lon="8.866808720596435"><ele>230.0</ele><time>2026-03-29T16:39:37Z</time></trkpt><trkpt lat="44.71406316775433" lon="8.866604878971243"><ele>230.0</ele><time>2026-03-29T16:39:38Z</time></trkpt><trkpt lat="44.71405228833708" lon="8.866376700325853"><ele>228.0</ele><time>2026-03-29T16:39:39Z</time></trkpt><trkpt lat="44.71402048796994" lon="8.866123705413775"><ele>226.0</ele><time>2026-03-29T16:39:40Z</time></trkpt><trkpt lat="44.71397647471184" lon="8.865862181929046"><ele>224.0</ele><time>2026-03-29T16:39:41Z</time></trkpt><trkpt lat="44.713940218912825" lon="8.865622254004728"><ele>222.0</ele><time>2026-03-29T16:39:42Z</time></trkpt><trkpt lat="44.71391339313435" lon="8.865396868842288"><ele>220.0</ele><time>2026-03-29T16:39:43Z</time></trkpt><trkpt lat="44.71389119922951" lon="8.865185014052818"><ele>218.0</ele><time>2026-03-29T16:39:44Z</time></trkpt><trkpt lat="44.71388107970984" lon="8.864974903610861"><ele>217.0</ele><time>2026-03-29T16:39:45Z</time></trkpt><trkpt lat="44.71391647359006" lon="8.864755214111767"><ele>216.0</ele><time>2026-03-29T16:39:46Z</time></trkpt><trkpt lat="44.7139467877772" lon="8.864527498261443"><ele>215.0</ele><time>2026-03-29T16:39:47Z</time></trkpt><trkpt lat="44.713984758446486" lon="8.86434042327385"><ele>215.0</ele><time>2026-03-29T16:39:48Z</time></trkpt><trkpt lat="44.71402735978947" lon="8.864206118902379"><ele>215.0</ele><time>2026-03-29T16:39:49Z</time></trkpt><trkpt lat="44.71409929472931" lon="8.864089419293427"><ele>215.0</ele><time>2026-03-29T16:39:50Z</time></trkpt><trkpt lat="44.714229383494214" lon="8.863998994520122"><ele>215.0</ele><time>2026-03-29T16:39:50.999Z</time></trkpt><trkpt lat="44.7143821634171" lon="8.863950929334914"><ele>215.0</ele><time>2026-03-29T16:39:51.999Z</time></trkpt><trkpt lat="44.71455034812141" lon="8.863949839979735"><ele>215.0</ele><time>2026-03-29T16:39:52.999Z</time></trkpt><trkpt lat="44.71474732282553" lon="8.863999201743571"><ele>215.0</ele><time>2026-03-29T16:39:53.999Z</time></trkpt><trkpt lat="44.71496589693778" lon="8.864031251030998"><ele>215.0</ele><time>2026-03-29T16:39:54.999Z</time></trkpt><trkpt lat="44.71519195071206" lon="8.864063122156812"><ele>215.0</ele><time>2026-03-29T16:39:55.999Z</time></trkpt><trkpt lat="44.71543467378855" lon="8.864106301640017"><ele>213.0</ele><time>2026-03-29T16:39:56.999Z</time></trkpt><trkpt lat="44.71568082654305" lon="8.864165322253944"><ele>211.0</ele><time>2026-03-29T16:39:57.999Z</time></trkpt><trkpt lat="44.71592955489414" lon="8.864222913287959"><ele>214.5</ele><time>2026-03-29T16:39:58.999Z</time></trkpt><trkpt lat="44.71616745049964" lon="8.86430108030918"><ele>218.0</ele><time>2026-03-29T16:39:59.999Z</time></trkpt><trkpt lat="44.71640244507924" lon="8.864320557928613"><ele>218.0</ele><time>2026-03-29T16:40:00.999Z</time></trkpt><trkpt lat="44.71663967992296" lon="8.864347416946643"><ele>218.0</ele><time>2026-03-29T16:40:01.999Z</time></trkpt><trkpt lat="44.71688846929382" lon="8.864354923701006"><ele>219.5</ele><time>2026-03-29T16:40:02.999Z</time></trkpt><trkpt lat="44.7171488676642" lon="8.864338885168836"><ele>221.0</ele><time>2026-03-29T16:40:03.999Z</time></trkpt><trkpt lat="44.717405233253274" lon="8.864305860586798"><ele>218.5</ele><time>2026-03-29T16:40:04.999Z</time></trkpt><trkpt lat="44.71764048844708" lon="8.864257667084525"><ele>216.0</ele><time>2026-03-29T16:40:05.999Z</time></trkpt><trkpt lat="44.71785846203796" lon="8.864246850644452"><ele>216.0</ele><time>2026-03-29T16:40:06.999Z</time></trkpt><trkpt lat="44.718071691182196" lon="8.86425047485731"><ele>216.0</ele><time>2026-03-29T16:40:07.999Z</time></trkpt><trkpt lat="44.718296209611815" lon="8.864264866032054"><ele>216.0</ele><time>2026-03-29T16:40:08.999Z</time></trkpt><trkpt lat="44.718516899403" lon="8.864318259423902"><ele>217.33333333333331</ele><time>2026-03-29T16:40:09.999Z</time></trkpt><trkpt lat="44.71872665813397" lon="8.864365729631796"><ele>218.66666666666666</ele><time>2026-03-29T16:40:10.999Z</time></trkpt><trkpt lat="44.71891751844949" lon="8.864388656956901"><ele>220.0</ele><time>2026-03-29T16:40:11.999Z</time></trkpt><trkpt lat="44.719097389086016" lon="8.864366896366395"><ele>220.0</ele><time>2026-03-29T16:40:12.999Z</time></trkpt><trkpt lat="44.71927369152669" lon="8.864286463444978"><ele>220.0</ele><time>2026-03-29T16:40:13.999Z</time></trkpt><trkpt lat="44.71943415085629" lon="8.864192589800645"><ele>220.0</ele><time>2026-03-29T16:40:14.999Z</time></trkpt><trkpt lat="44.71958341647693" lon="8.864124705877899"><ele>219.75</ele><time>2026-03-29T16:40:15.999Z</time></trkpt><trkpt lat="44.71971532182782" lon="8.864090262863053"><ele>219.5</ele><time>2026-03-29T16:40:16.999Z</time></trkpt><trkpt lat="44.7198403252651" lon="8.86407252328501"><ele>219.25</ele><time>2026-03-29T16:40:17.999Z</time></trkpt><trkpt lat="44.71995471031703" lon="8.864052977078698"><ele>219.0</ele><time>2026-03-29T16:40:18.999Z</time></trkpt><trkpt lat="44.72006015294237" lon="8.864039832715148"><ele>219.0</ele><time>2026-03-29T16:40:19.999Z</time></trkpt><trkpt lat="44.72015126845533" lon="8.864033158488501"><ele>218.99999999999997</ele><time>2026-03-29T16:40:20.999Z</time></trkpt><trkpt lat="44.720229827304884" lon="8.864031260141665"><ele>218.99999999999997</ele><time>2026-03-29T16:40:21.999Z</time></trkpt><trkpt lat="44.72032330303894" lon="8.86403054871911"><ele>219.0</ele><time>2026-03-29T16:40:23.999Z</time></trkpt><trkpt lat="44.72034592903059" lon="8.863819693207358"><ele>219.0</ele><time>2026-03-29T16:40:24.999Z</time></trkpt><trkpt lat="44.72033758953631" lon="8.863667808913773"><ele>219.66666666666669</ele><time>2026-03-29T16:40:25.999Z</time></trkpt><trkpt lat="44.72032198020211" lon="8.863472511150972"><ele>220.33333333333334</ele><time>2026-03-29T16:40:26.999Z</time></trkpt><trkpt lat="44.720322040365936" lon="8.86324771668949"><ele>221.0</ele><time>2026-03-29T16:40:27.999Z</time></trkpt><trkpt lat="44.72032075339137" lon="8.86302002951769"><ele>219.33333333333334</ele><time>2026-03-29T16:40:28.999Z</time></trkpt><trkpt lat="44.7203343902288" lon="8.862794995896556"><ele>217.66666666666669</ele><time>2026-03-29T16:40:29.999Z</time></trkpt><trkpt lat="44.7203075874679" lon="8.86255827369202"><ele>216.0</ele><time>2026-03-29T16:40:30.999Z</time></trkpt><trkpt lat="44.72029868243727" lon="8.862333174917195"><ele>215.0</ele><time>2026-03-29T16:40:31.999Z</time></trkpt><trkpt lat="44.72028811970998" lon="8.862108974308464"><ele>214.0</ele><time>2026-03-29T16:40:32.999Z</time></trkpt><trkpt lat="44.72027324416258" lon="8.861871018130714"><ele>213.0</ele><time>2026-03-29T16:40:33.999Z</time></trkpt><trkpt lat="44.72025100103126" lon="8.861624717054971"><ele>210.66666666666669</ele><time>2026-03-29T16:40:34.999Z</time></trkpt><trkpt lat="44.720222508999655" lon="8.861365665756942"><ele>208.33333333333334</ele><time>2026-03-29T16:40:35.999Z</time></trkpt><trkpt lat="44.72020442050645" lon="8.861093796955918"><ele>206.0</ele><time>2026-03-29T16:40:36.999Z</time></trkpt><trkpt lat="44.720187901801005" lon="8.860828659516809"><ele>202.66666666666669</ele><time>2026-03-29T16:40:37.999Z</time></trkpt><trkpt lat="44.72017330989399" lon="8.860589823210624"><ele>199.33333333333331</ele><time>2026-03-29T16:40:38.999Z</time></trkpt><trkpt lat="44.720156249354154" lon="8.860370202681471"><ele>196.0</ele><time>2026-03-29T16:40:39.999Z</time></trkpt><trkpt lat="44.72013809244262" lon="8.860170836388702"><ele>197.0</ele><time>2026-03-29T16:40:40.999Z</time></trkpt><trkpt lat="44.72012942304295" lon="8.860014265897085"><ele>198.0</ele><time>2026-03-29T16:40:41.999Z</time></trkpt><trkpt lat="44.72014050854382" lon="8.859883054419903"><ele>199.0</ele><time>2026-03-29T16:40:42.999Z</time></trkpt><trkpt lat="44.72018025406233" lon="8.859783484652409"><ele>200.0</ele><time>2026-03-29T16:40:43.999Z</time></trkpt><trkpt lat="44.72025040800761" lon="8.859695843059898"><ele>201.0</ele><time>2026-03-29T16:40:44.999Z</time></trkpt><trkpt lat="44.72034146660163" lon="8.8596271578116"><ele>201.0</ele><time>2026-03-29T16:40:45.999Z</time></trkpt><trkpt lat="44.72045204003419" lon="8.859584945873959"><ele>201.0</ele><time>2026-03-29T16:40:46.999Z</time></trkpt><trkpt lat="44.72054840178087" lon="8.859570874736654"><ele>201.0</ele><time>2026-03-29T16:40:47.999Z</time></trkpt><trkpt lat="44.720634310189546" lon="8.859564475154338"><ele>201.0</ele><time>2026-03-29T16:40:48.999Z</time></trkpt><trkpt lat="44.72071802013714" lon="8.859570653380837"><ele>201.0</ele><time>2026-03-29T16:40:49.999Z</time></trkpt><trkpt lat="44.720796549208806" lon="8.859569252097016"><ele>201.0</ele><time>2026-03-29T16:40:50.999Z</time></trkpt><trkpt lat="44.720884687966" lon="8.859557130610384"><ele>201.0</ele><time>2026-03-29T16:40:51.999Z</time></trkpt><trkpt lat="44.720981009730494" lon="8.859517644306065"><ele>201.0</ele><time>2026-03-29T16:40:52.999Z</time></trkpt><trkpt lat="44.72108308565762" lon="8.859507431777248"><ele>201.0</ele><time>2026-03-29T16:40:53.999Z</time></trkpt><trkpt lat="44.72120149024154" lon="8.859521883466504"><ele>201.0</ele><time>2026-03-29T16:40:54.999Z</time></trkpt><trkpt lat="44.721328068769964" lon="8.859509057555423"><ele>202.83333333333334</ele><time>2026-03-29T16:40:55.999Z</time></trkpt><trkpt lat="44.721433193673356" lon="8.859503400332953"><ele>204.66666666666669</ele><time>2026-03-29T16:40:56.999Z</time></trkpt><trkpt lat="44.72152572878716" lon="8.859499628428228"><ele>206.5</ele><time>2026-03-29T16:40:57.999Z</time></trkpt><trkpt lat="44.721606811581594" lon="8.859494911469268"><ele>208.33333333333334</ele><time>2026-03-29T16:40:58.999Z</time></trkpt><trkpt lat="44.72168183964366" lon="8.859483265903458"><ele>210.16666666666669</ele><time>2026-03-29T16:40:59.999Z</time></trkpt><trkpt lat="44.72175453167755" lon="8.859467951546394"><ele>212.0</ele><time>2026-03-29T16:41:00.999Z</time></trkpt><trkpt lat="44.72183359030574" lon="8.85945005952951"><ele>212.16666666666669</ele><time>2026-03-29T16:41:01.999Z</time></trkpt><trkpt lat="44.72190822733977" lon="8.859431722914447"><ele>212.33333333333334</ele><time>2026-03-29T16:41:02.999Z</time></trkpt><trkpt lat="44.721977026423794" lon="8.859415081579817"><ele>212.5</ele><time>2026-03-29T16:41:03.998Z</time></trkpt><trkpt lat="44.7220422351958" lon="8.859392633919171"><ele>212.66666666666669</ele><time>2026-03-29T16:41:04.998Z</time></trkpt><trkpt lat="44.7221101210019" lon="8.859377875134955"><ele>212.83333333333334</ele><time>2026-03-29T16:41:05.998Z</time></trkpt><trkpt lat="44.722243934518225" lon="8.859362636825583"><ele>213.0</ele><time>2026-03-29T16:41:07.998Z</time></trkpt><trkpt lat="44.72232591972919" lon="8.859377003943155"><ele>213.0</ele><time>2026-03-29T16:41:08.998Z</time></trkpt><trkpt lat="44.722410056806545" lon="8.859373030638155"><ele>213.0</ele><time>2026-03-29T16:41:09.998Z</time></trkpt><trkpt lat="44.722492129591956" lon="8.859365106847552"><ele>213.0</ele><time>2026-03-29T16:41:10.998Z</time></trkpt><trkpt lat="44.72257428752516" lon="8.859348452199681"><ele>213.0</ele><time>2026-03-29T16:41:11.998Z</time></trkpt><trkpt lat="44.722658531977366" lon="8.859326859368002"><ele>213.0</ele><time>2026-03-29T16:41:12.998Z</time></trkpt><trkpt lat="44.72273943540156" lon="8.85930413033884"><ele>213.0</ele><time>2026-03-29T16:41:13.998Z</time></trkpt><trkpt lat="44.72282408097179" lon="8.85931239997953"><ele>212.4</ele><time>2026-03-29T16:41:14.998Z</time></trkpt><trkpt lat="44.72290472949098" lon="8.859300478024212"><ele>211.8</ele><time>2026-03-29T16:41:15.998Z</time></trkpt><trkpt lat="44.722994577709784" lon="8.859285745977157"><ele>211.2</ele><time>2026-03-29T16:41:16.998Z</time></trkpt><trkpt lat="44.72308459439897" lon="8.859265705385715"><ele>210.6</ele><time>2026-03-29T16:41:17.998Z</time></trkpt><trkpt lat="44.723178963602884" lon="8.859224638402472"><ele>210.0</ele><time>2026-03-29T16:41:18.998Z</time></trkpt><trkpt lat="44.72328072106667" lon="8.859202089609818"><ele>211.6</ele><time>2026-03-29T16:41:19.998Z</time></trkpt><trkpt lat="44.72337658583657" lon="8.859168389362676"><ele>213.2</ele><time>2026-03-29T16:41:20.998Z</time></trkpt><trkpt lat="44.72346864939527" lon="8.859132677091887"><ele>214.8</ele><time>2026-03-29T16:41:21.998Z</time></trkpt><trkpt lat="44.72356235813406" lon="8.85908353122706"><ele>216.4</ele><time>2026-03-29T16:41:22.998Z</time></trkpt><trkpt lat="44.72365243813299" lon="8.859027809199672"><ele>218.0</ele><time>2026-03-29T16:41:23.998Z</time></trkpt><trkpt lat="44.72373404527464" lon="8.858979079732368"><ele>218.16666666666669</ele><time>2026-03-29T16:41:24.998Z</time></trkpt><trkpt lat="44.723807792283715" lon="8.858933688177283"><ele>218.33333333333334</ele><time>2026-03-29T16:41:25.998Z</time></trkpt><trkpt lat="44.72388235662237" lon="8.858893809939552"><ele>218.5</ele><time>2026-03-29T16:41:26.998Z</time></trkpt><trkpt lat="44.72395293636271" lon="8.858850639025516"><ele>218.66666666666669</ele><time>2026-03-29T16:41:27.998Z</time></trkpt><trkpt lat="44.724028423222826" lon="8.858799868609823"><ele>218.83333333333334</ele><time>2026-03-29T16:41:28.998Z</time></trkpt><trkpt lat="44.7241046571258" lon="8.858753304453323"><ele>219.0</ele><time>2026-03-29T16:41:29.998Z</time></trkpt><trkpt lat="44.72417853877621" lon="8.858707900091005"><ele>219.0</ele><time>2026-03-29T16:41:30.998Z</time></trkpt><trkpt lat="44.72425009883561" lon="8.858656993052083"><ele>219.0</ele><time>2026-03-29T16:41:31.998Z</time></trkpt><trkpt lat="44.72432167083217" lon="8.858609069220122"><ele>219.0</ele><time>2026-03-29T16:41:32.998Z</time></trkpt><trkpt lat="44.72439383219643" lon="8.858562112260579"><ele>219.0</ele><time>2026-03-29T16:41:33.998Z</time></trkpt><trkpt lat="44.72446668996071" lon="8.858512086010913"><ele>219.0</ele><time>2026-03-29T16:41:35Z</time></trkpt><trkpt lat="44.72454086329004" lon="8.858448158710786"><ele>219.0</ele><time>2026-03-29T16:41:36Z</time></trkpt><trkpt lat="44.724625686102044" lon="8.858382167973254"><ele>219.39999999999998</ele><time>2026-03-29T16:41:37Z</time></trkpt><trkpt lat="44.724710528221316" lon="8.858305376158446"><ele>219.79999999999998</ele><time>2026-03-29T16:41:38Z</time></trkpt><trkpt lat="44.72479748329404" lon="8.858228350975041"><ele>220.20000000000002</ele><time>2026-03-29T16:41:39Z</time></trkpt><trkpt lat="44.72489429931916" lon="8.858163093694436"><ele>220.60000000000002</ele><time>2026-03-29T16:41:40Z</time></trkpt><trkpt lat="44.72497340571362" lon="8.858064046230986"><ele>221.0</ele><time>2026-03-29T16:41:41Z</time></trkpt><trkpt lat="44.72506055339999" lon="8.857989409786393"><ele>221.0</ele><time>2026-03-29T16:41:42Z</time></trkpt><trkpt lat="44.72513407090876" lon="8.857910004391695"><ele>221.00000000000003</ele><time>2026-03-29T16:41:43Z</time></trkpt><trkpt lat="44.72521071938171" lon="8.857842902669567"><ele>221.00000000000003</ele><time>2026-03-29T16:41:44Z</time></trkpt><trkpt lat="44.72528478855717" lon="8.857768855537572"><ele>221.0</ele><time>2026-03-29T16:41:45Z</time></trkpt><trkpt lat="44.72536215718951" lon="8.857698601688687"><ele>221.0</ele><time>2026-03-29T16:41:46Z</time></trkpt><trkpt lat="44.72544143446775" lon="8.857626755463349"><ele>220.50000000000003</ele><time>2026-03-29T16:41:47Z</time></trkpt><trkpt lat="44.72551736093433" lon="8.85755301784069"><ele>220.0</ele><time>2026-03-29T16:41:48Z</time></trkpt><trkpt lat="44.72558960916698" lon="8.85748167027443"><ele>219.5</ele><time>2026-03-29T16:41:49Z</time></trkpt><trkpt lat="44.725657742402035" lon="8.857419367872136"><ele>219.0</ele><time>2026-03-29T16:41:50Z</time></trkpt><trkpt lat="44.72572478817135" lon="8.857362712480361"><ele>218.50000000000003</ele><time>2026-03-29T16:41:51Z</time></trkpt><trkpt lat="44.725788400994304" lon="8.857312108551842"><ele>218.0</ele><time>2026-03-29T16:41:52Z</time></trkpt><trkpt lat="44.72585291988016" lon="8.857266011275572"><ele>218.0</ele><time>2026-03-29T16:41:53Z</time></trkpt><trkpt lat="44.72591394758631" lon="8.857224483120426"><ele>218.0</ele><time>2026-03-29T16:41:54Z</time></trkpt><trkpt lat="44.726003802804655" lon="8.857175919702922"><ele>218.0</ele><time>2026-03-29T16:41:55.999Z</time></trkpt><trkpt lat="44.72598013688269" lon="8.856973245774146"><ele>218.0</ele><time>2026-03-29T16:41:58.999Z</time></trkpt><trkpt lat="44.72592454658875" lon="8.85687369890321"><ele>218.0</ele><time>2026-03-29T16:42:00.999Z</time></trkpt><trkpt lat="44.725843695814945" lon="8.856797228741325"><ele>218.0</ele><time>2026-03-29T16:42:02.999Z</time></trkpt><trkpt lat="44.72575260010125" lon="8.856874699019363"><ele>218.0</ele><time>2026-03-29T16:42:03.999Z</time></trkpt><trkpt lat="44.7256566364024" lon="8.856917919478303"><ele>218.0</ele><time>2026-03-29T16:42:04.999Z</time></trkpt><trkpt lat="44.725581257418504" lon="8.856971026949017"><ele>218.0</ele><time>2026-03-29T16:42:05.999Z</time></trkpt><trkpt lat="44.725508647405" lon="8.85702886323016"><ele>218.0</ele><time>2026-03-29T16:42:06.999Z</time></trkpt><trkpt lat="44.725435844828006" lon="8.85708655578823"><ele>218.00000000000003</ele><time>2026-03-29T16:42:07.999Z</time></trkpt><trkpt lat="44.7253688393355" lon="8.857144801507511"><ele>218.0</ele><time>2026-03-29T16:42:08.999Z</time></trkpt><trkpt lat="44.725302770374384" lon="8.857190481736684"><ele>218.0</ele><time>2026-03-29T16:42:09.999Z</time></trkpt><trkpt lat="44.72522643610553" lon="8.857236159007662"><ele>218.0</ele><time>2026-03-29T16:42:10.999Z</time></trkpt><trkpt lat="44.72515324237353" lon="8.857290968000173"><ele>218.00000000000003</ele><time>2026-03-29T16:42:11.999Z</time></trkpt><trkpt lat="44.725061138093444" lon="8.857338950624458"><ele>218.0</ele><time>2026-03-29T16:42:12.999Z</time></trkpt><trkpt lat="44.72495522679038" lon="8.857362282580468"><ele>218.4</ele><time>2026-03-29T16:42:13.999Z</time></trkpt><trkpt lat="44.72484457098154" lon="8.857396644369093"><ele>218.8</ele><time>2026-03-29T16:42:14.999Z</time></trkpt><trkpt lat="44.72473514281476" lon="8.857427476404416"><ele>219.2</ele><time>2026-03-29T16:42:15.999Z</time></trkpt><trkpt lat="44.72462620362983" lon="8.857452922975439"><ele>219.6</ele><time>2026-03-29T16:42:16.999Z</time></trkpt><trkpt lat="44.72452658016295" lon="8.857510363724876"><ele>220.0</ele><time>2026-03-29T16:42:17.999Z</time></trkpt><trkpt lat="44.72443491503708" lon="8.857579100549993"><ele>219.83333333333331</ele><time>2026-03-29T16:42:18.999Z</time></trkpt><trkpt lat="44.724352936510854" lon="8.857639701529118"><ele>219.66666666666666</ele><time>2026-03-29T16:42:19.999Z</time></trkpt><trkpt lat="44.72427450322381" lon="8.857701076848864"><ele>219.5</ele><time>2026-03-29T16:42:20.999Z</time></trkpt><trkpt lat="44.72420137467669" lon="8.857756009947623"><ele>219.33333333333331</ele><time>2026-03-29T16:42:21.999Z</time></trkpt><trkpt lat="44.72413051749978" lon="8.857801916106887"><ele>219.16666666666666</ele><time>2026-03-29T16:42:22.999Z</time></trkpt><trkpt lat="44.72406761807913" lon="8.85784153029372"><ele>219.0</ele><time>2026-03-29T16:42:23.999Z</time></trkpt><trkpt lat="44.72400762491907" lon="8.857872358122561"><ele>219.0</ele><time>2026-03-29T16:42:24.999Z</time></trkpt><trkpt lat="44.72388938602986" lon="8.857922506773257"><ele>219.0</ele><time>2026-03-29T16:42:26.999Z</time></trkpt><trkpt lat="44.723846879505565" lon="8.857990468460605"><ele>219.0</ele><time>2026-03-29T16:42:28.999Z</time></trkpt><trkpt lat="44.72378217482201" lon="8.85799889673678"><ele>219.0</ele><time>2026-03-29T16:42:53.999Z</time></trkpt><trkpt lat="44.7237044981075" lon="8.857893834806251"><ele>219.0</ele><time>2026-03-29T16:42:58.999Z</time></trkpt><trkpt lat="44.72368294485147" lon="8.857783714345052"><ele>219.0</ele><time>2026-03-29T16:43:00.999Z</time></trkpt><trkpt lat="44.7236399416488" lon="8.857691977558451"><ele>219.6</ele><time>2026-03-29T16:43:02.999Z</time></trkpt><trkpt lat="44.72361507600749" lon="8.857567508953382"><ele>220.2</ele><time>2026-03-29T16:43:13.998Z</time></trkpt><trkpt lat="44.72357843651009" lon="8.85748249555542"><ele>220.79999999999998</ele><time>2026-03-29T16:43:15.998Z</time></trkpt><trkpt lat="44.7237083523358" lon="8.857347439529534"><ele>221.39999999999998</ele><time>2026-03-29T16:43:16.998Z</time></trkpt><trkpt lat="44.723794942804446" lon="8.857289774756543"><ele>222.0</ele><time>2026-03-29T16:43:17.998Z</time></trkpt><trkpt lat="44.72387266741396" lon="8.857233999843956"><ele>222.0</ele><time>2026-03-29T16:43:18.998Z</time></trkpt><trkpt lat="44.72394457225568" lon="8.857192740878494"><ele>222.0</ele><time>2026-03-29T16:43:19.998Z</time></trkpt><trkpt lat="44.72401202553045" lon="8.857138531333927"><ele>222.0</ele><time>2026-03-29T16:43:20.998Z</time></trkpt><trkpt lat="44.72409922511242" lon="8.857047726809354"><ele>222.0</ele><time>2026-03-29T16:43:22.998Z</time></trkpt><trkpt lat="44.72417643659421" lon="8.856986300108185"><ele>222.0</ele><time>2026-03-29T16:43:24.998Z</time></trkpt><trkpt lat="44.72425452149086" lon="8.85692382937347"><ele>222.0</ele><time>2026-03-29T16:43:27.998Z</time></trkpt><trkpt lat="44.72431310908016" lon="8.8568796284875"><ele>222.0</ele><time>2026-03-29T16:43:29.998Z</time></trkpt><trkpt lat="44.72439665701825" lon="8.856803647058612"><ele>222.0</ele><time>2026-03-29T16:43:31.998Z</time></trkpt><trkpt lat="44.724507540408126" lon="8.856715813119486"><ele>222.0</ele><time>2026-03-29T16:43:33.998Z</time></trkpt><trkpt lat="44.72456970374902" lon="8.856659512027592"><ele>222.0</ele><time>2026-03-29T16:43:34.998Z</time></trkpt><trkpt lat="44.724635565354426" lon="8.856608930807043"><ele>222.0</ele><time>2026-03-29T16:43:35.998Z</time></trkpt><trkpt lat="44.72470413034849" lon="8.856558180500256"><ele>222.0</ele><time>2026-03-29T16:43:36.998Z</time></trkpt><trkpt lat="44.72477139548779" lon="8.85650785120036"><ele>222.0</ele><time>2026-03-29T16:43:37.998Z</time></trkpt><trkpt lat="44.72484246994091" lon="8.856452654767864"><ele>222.0</ele><time>2026-03-29T16:43:38.998Z</time></trkpt><trkpt lat="44.72490907190717" lon="8.856388395499032"><ele>222.0</ele><time>2026-03-29T16:43:39.998Z</time></trkpt><trkpt lat="44.724980020463704" lon="8.856330782338189"><ele>222.0</ele><time>2026-03-29T16:43:41Z</time></trkpt><trkpt lat="44.725053236541314" lon="8.856274300097983"><ele>222.0</ele><time>2026-03-29T16:43:42Z</time></trkpt><trkpt lat="44.72512556845566" lon="8.856216465096946"><ele>222.0</ele><time>2026-03-29T16:43:43Z</time></trkpt><trkpt lat="44.72520143790388" lon="8.8561550730506"><ele>222.0</ele><time>2026-03-29T16:43:44Z</time></trkpt><trkpt lat="44.72527504005606" lon="8.856095246376603"><ele>222.0</ele><time>2026-03-29T16:43:45Z</time></trkpt><trkpt lat="44.72534620796534" lon="8.856033437999486"><ele>222.0</ele><time>2026-03-29T16:43:46Z</time></trkpt><trkpt lat="44.725420611328666" lon="8.855976340676946"><ele>222.0</ele><time>2026-03-29T16:43:47Z</time></trkpt><trkpt lat="44.72549287218825" lon="8.855919478014068"><ele>222.0</ele><time>2026-03-29T16:43:48Z</time></trkpt><trkpt lat="44.72556268007297" lon="8.855861963522752"><ele>222.5</ele><time>2026-03-29T16:43:49Z</time></trkpt><trkpt lat="44.72563383308056" lon="8.855805184450826"><ele>223.0</ele><time>2026-03-29T16:43:50Z</time></trkpt><trkpt lat="44.72570333274324" lon="8.85574702142724"><ele>223.5</ele><time>2026-03-29T16:43:51Z</time></trkpt><trkpt lat="44.72577396995561" lon="8.855692186499008"><ele>224.0</ele><time>2026-03-29T16:43:52Z</time></trkpt><trkpt lat="44.725844233319165" lon="8.855633086615988"><ele>224.5</ele><time>2026-03-29T16:43:53Z</time></trkpt><trkpt lat="44.72591629083988" lon="8.855577381252875"><ele>225.0</ele><time>2026-03-29T16:43:54Z</time></trkpt><trkpt lat="44.7259867504722" lon="8.855521726487092"><ele>225.0</ele><time>2026-03-29T16:43:55Z</time></trkpt><trkpt lat="44.726058950270954" lon="8.855466220703873"><ele>225.0</ele><time>2026-03-29T16:43:56Z</time></trkpt><trkpt lat="44.726127054603744" lon="8.855412685016347"><ele>225.0</ele><time>2026-03-29T16:43:57Z</time></trkpt><trkpt lat="44.72618885822157" lon="8.855359037686462"><ele>225.0</ele><time>2026-03-29T16:43:58Z</time></trkpt><trkpt lat="44.72627709929195" lon="8.85529171023173"><ele>225.0</ele><time>2026-03-29T16:44:00Z</time></trkpt><trkpt lat="44.726356840953486" lon="8.855231145976353"><ele>225.0</ele><time>2026-03-29T16:44:02.999Z</time></trkpt><trkpt lat="44.726436421932576" lon="8.855172785930664"><ele>224.8</ele><time>2026-03-29T16:44:05.999Z</time></trkpt><trkpt lat="44.72650315248567" lon="8.855116455026804"><ele>224.6</ele><time>2026-03-29T16:44:07.999Z</time></trkpt><trkpt lat="44.726577340621354" lon="8.855063826707841"><ele>224.39999999999998</ele><time>2026-03-29T16:44:09.999Z</time></trkpt><trkpt lat="44.72666030157522" lon="8.855004286688715"><ele>224.2</ele><time>2026-03-29T16:44:11.999Z</time></trkpt><trkpt lat="44.726746024459565" lon="8.854924852917215"><ele>224.0</ele><time>2026-03-29T16:44:13.999Z</time></trkpt><trkpt lat="44.72683520789557" lon="8.854856121146959"><ele>222.6</ele><time>2026-03-29T16:44:15.999Z</time></trkpt><trkpt lat="44.72693555890127" lon="8.85476631501401"><ele>221.2</ele><time>2026-03-29T16:44:17.999Z</time></trkpt><trkpt lat="44.7270444164354" lon="8.85468167436828"><ele>219.79999999999998</ele><time>2026-03-29T16:44:19.999Z</time></trkpt><trkpt lat="44.72710168737405" lon="8.854629822608935"><ele>218.39999999999998</ele><time>2026-03-29T16:44:20.999Z</time></trkpt><trkpt lat="44.727161516163186" lon="8.854580273176015"><ele>217.0</ele><time>2026-03-29T16:44:21.999Z</time></trkpt><trkpt lat="44.7272252884724" lon="8.854534490277576"><ele>216.99999999999997</ele><time>2026-03-29T16:44:22.999Z</time></trkpt><trkpt lat="44.72729394508223" lon="8.854483444464979"><ele>217.0</ele><time>2026-03-29T16:44:23.999Z</time></trkpt><trkpt lat="44.72736836579064" lon="8.854426050636013"><ele>217.0</ele><time>2026-03-29T16:44:24.999Z</time></trkpt><trkpt lat="44.727445780302375" lon="8.854364495415787"><ele>217.0</ele><time>2026-03-29T16:44:25.999Z</time></trkpt><trkpt lat="44.72752731264306" lon="8.854298299057625"><ele>216.99999999999997</ele><time>2026-03-29T16:44:26.999Z</time></trkpt><trkpt lat="44.72760670943407" lon="8.854229905833522"><ele>217.0</ele><time>2026-03-29T16:44:27.999Z</time></trkpt><trkpt lat="44.727682187425266" lon="8.854166759166844"><ele>217.16666666666666</ele><time>2026-03-29T16:44:28.999Z</time></trkpt><trkpt lat="44.72775371861738" lon="8.854112681828711"><ele>217.33333333333331</ele><time>2026-03-29T16:44:29.999Z</time></trkpt><trkpt lat="44.727821346502864" lon="8.854057667359148"><ele>217.5</ele><time>2026-03-29T16:44:30.999Z</time></trkpt><trkpt lat="44.72789027819889" lon="8.854004199779522"><ele>217.66666666666669</ele><time>2026-03-29T16:44:31.999Z</time></trkpt><trkpt lat="44.727960836935715" lon="8.853948318378366"><ele>217.83333333333334</ele><time>2026-03-29T16:44:32.999Z</time></trkpt><trkpt lat="44.72803303587773" lon="8.853890876563229"><ele>218.0</ele><time>2026-03-29T16:44:33.999Z</time></trkpt><trkpt lat="44.728113513243805" lon="8.853828918192876"><ele>218.0</ele><time>2026-03-29T16:44:34.999Z</time></trkpt><trkpt lat="44.72819664601112" lon="8.853765216231801"><ele>218.0</ele><time>2026-03-29T16:44:35.999Z</time></trkpt><trkpt lat="44.72828503437051" lon="8.853695493537533"><ele>218.0</ele><time>2026-03-29T16:44:36.999Z</time></trkpt><trkpt lat="44.728373268999405" lon="8.85361815898281"><ele>218.0</ele><time>2026-03-29T16:44:37.999Z</time></trkpt><trkpt lat="44.72846521183551" lon="8.853535291277055"><ele>218.0</ele><time>2026-03-29T16:44:38.999Z</time></trkpt><trkpt lat="44.72855394678205" lon="8.853444013406698"><ele>217.25</ele><time>2026-03-29T16:44:39.999Z</time></trkpt><trkpt lat="44.72864267603652" lon="8.85334430884362"><ele>216.5</ele><time>2026-03-29T16:44:40.999Z</time></trkpt><trkpt lat="44.728725986712455" lon="8.853238657269198"><ele>215.75</ele><time>2026-03-29T16:44:41.999Z</time></trkpt><trkpt lat="44.72880637153732" lon="8.85311922093783"><ele>215.0</ele><time>2026-03-29T16:44:42.999Z</time></trkpt><trkpt lat="44.72888402308687" lon="8.852996214056434"><ele>215.0</ele><time>2026-03-29T16:44:43.999Z</time></trkpt><trkpt lat="44.728955951350756" lon="8.852866030324329"><ele>215.0</ele><time>2026-03-29T16:44:44.999Z</time></trkpt><trkpt lat="44.728997563690676" lon="8.852729106413339"><ele>215.0</ele><time>2026-03-29T16:44:45.999Z</time></trkpt><trkpt lat="44.729049397988625" lon="8.852603692798349"><ele>215.0</ele><time>2026-03-29T16:44:46.999Z</time></trkpt><trkpt lat="44.72908724245886" lon="8.852484159112372"><ele>215.0</ele><time>2026-03-29T16:44:47.999Z</time></trkpt><trkpt lat="44.72911268729537" lon="8.852360156696696"><ele>215.0</ele><time>2026-03-29T16:44:48.999Z</time></trkpt><trkpt lat="44.72918187579517" lon="8.852250295846266"><ele>215.0</ele><time>2026-03-29T16:44:49.999Z</time></trkpt><trkpt lat="44.7292165367671" lon="8.852133908615457"><ele>215.0</ele><time>2026-03-29T16:44:50.999Z</time></trkpt><trkpt lat="44.729251588837116" lon="8.852018355181436"><ele>215.0</ele><time>2026-03-29T16:44:51.999Z</time></trkpt><trkpt lat="44.7292882085195" lon="8.851900142325325"><ele>215.0</ele><time>2026-03-29T16:44:52.999Z</time></trkpt><trkpt lat="44.72932291140311" lon="8.851783245818922"><ele>215.16666666666669</ele><time>2026-03-29T16:44:53.999Z</time></trkpt><trkpt lat="44.72935391907659" lon="8.851664508265817"><ele>215.33333333333334</ele><time>2026-03-29T16:44:54.999Z</time></trkpt><trkpt lat="44.72939320170593" lon="8.851567431005526"><ele>215.5</ele><time>2026-03-29T16:44:55.999Z</time></trkpt><trkpt lat="44.72942720139331" lon="8.851470139206855"><ele>215.66666666666669</ele><time>2026-03-29T16:44:56.999Z</time></trkpt><trkpt lat="44.72945682604684" lon="8.851384522195328"><ele>215.83333333333334</ele><time>2026-03-29T16:44:57.999Z</time></trkpt><trkpt lat="44.72951050949796" lon="8.851243807178303"><ele>216.0</ele><time>2026-03-29T16:44:59.999Z</time></trkpt><trkpt lat="44.7295782885898" lon="8.851141630244285"><ele>216.0</ele><time>2026-03-29T16:45:01.999Z</time></trkpt><trkpt lat="44.729645708605034" lon="8.851114237987318"><ele>216.0</ele><time>2026-03-29T16:45:04.999Z</time></trkpt><trkpt lat="44.7297314323709" lon="8.851143303765646"><ele>216.0</ele><time>2026-03-29T16:45:16.999Z</time></trkpt><trkpt lat="44.72983620358939" lon="8.851271591945752"><ele>216.0</ele><time>2026-03-29T16:45:20.998Z</time></trkpt><trkpt lat="44.72988469609817" lon="8.851334686427728"><ele>216.0</ele><time>2026-03-29T16:45:21.998Z</time></trkpt><trkpt lat="44.72994699852697" lon="8.85137716934366"><ele>216.0</ele><time>2026-03-29T16:45:22.998Z</time></trkpt><trkpt lat="44.73001764281289" lon="8.85139917431919"><ele>216.0</ele><time>2026-03-29T16:45:23.998Z</time></trkpt><trkpt lat="44.730091677668916" lon="8.851399078513342"><ele>216.0</ele><time>2026-03-29T16:45:24.998Z</time></trkpt><trkpt lat="44.730163530519626" lon="8.851365578588293"><ele>216.0</ele><time>2026-03-29T16:45:25.998Z</time></trkpt><trkpt lat="44.73022887160252" lon="8.851301011844477"><ele>216.0</ele><time>2026-03-29T16:45:26.998Z</time></trkpt><trkpt lat="44.73028739728311" lon="8.851209327410198"><ele>216.0</ele><time>2026-03-29T16:45:27.998Z</time></trkpt><trkpt lat="44.73034884140448" lon="8.851082521156517"><ele>216.0</ele><time>2026-03-29T16:45:28.998Z</time></trkpt><trkpt lat="44.730380160856505" lon="8.850917906018633"><ele>215.33333333333331</ele><time>2026-03-29T16:45:29.998Z</time></trkpt><trkpt lat="44.73053348190324" lon="8.850807357653034"><ele>214.66666666666666</ele><time>2026-03-29T16:45:30.998Z</time></trkpt><trkpt lat="44.73061019310129" lon="8.850607943726208"><ele>214.0</ele><time>2026-03-29T16:45:31.998Z</time></trkpt><trkpt lat="44.73067943381733" lon="8.850381082448552"><ele>214.0</ele><time>2026-03-29T16:45:32.998Z</time></trkpt><trkpt lat="44.73074293175177" lon="8.850145154646869"><ele>214.0</ele><time>2026-03-29T16:45:33.998Z</time></trkpt><trkpt lat="44.73083966502323" lon="8.849904553470608"><ele>214.0</ele><time>2026-03-29T16:45:34.998Z</time></trkpt><trkpt lat="44.73094837943741" lon="8.849662508596174"><ele>214.33333333333331</ele><time>2026-03-29T16:45:35.998Z</time></trkpt><trkpt lat="44.73106937750093" lon="8.849417479120493"><ele>214.66666666666669</ele><time>2026-03-29T16:45:36.998Z</time></trkpt><trkpt lat="44.73119483732143" lon="8.84916630504277"><ele>215.0</ele><time>2026-03-29T16:45:37.998Z</time></trkpt><trkpt lat="44.73131836630032" lon="8.848911966820467"><ele>215.0</ele><time>2026-03-29T16:45:38.998Z</time></trkpt><trkpt lat="44.7314390132676" lon="8.848661144847885"><ele>215.0</ele><time>2026-03-29T16:45:39.998Z</time></trkpt><trkpt lat="44.73155880262914" lon="8.848417747920399"><ele>215.0</ele><time>2026-03-29T16:45:40.998Z</time></trkpt><trkpt lat="44.731678028945176" lon="8.848183291272468"><ele>215.0</ele><time>2026-03-29T16:45:41.998Z</time></trkpt><trkpt lat="44.731794562197365" lon="8.847946761663628"><ele>215.0</ele><time>2026-03-29T16:45:42.998Z</time></trkpt><trkpt lat="44.731908275232215" lon="8.847711546850848"><ele>215.0</ele><time>2026-03-29T16:45:43.998Z</time></trkpt><trkpt lat="44.73202256185148" lon="8.847476991518727"><ele>214.66666666666669</ele><time>2026-03-29T16:45:44.998Z</time></trkpt><trkpt lat="44.732135456019456" lon="8.847245390366831"><ele>214.33333333333331</ele><time>2026-03-29T16:45:45.999Z</time></trkpt><trkpt lat="44.732246538044286" lon="8.847016356492919"><ele>214.0</ele><time>2026-03-29T16:45:46.999Z</time></trkpt><trkpt lat="44.732355919256484" lon="8.846791479502166"><ele>214.0</ele><time>2026-03-29T16:45:47.999Z</time></trkpt><trkpt lat="44.73246320019418" lon="8.846572033561158"><ele>214.0</ele><time>2026-03-29T16:45:48.999Z</time></trkpt><trkpt lat="44.73257018394261" lon="8.84635804343325"><ele>214.0</ele><time>2026-03-29T16:45:49.999Z</time></trkpt><trkpt lat="44.73267629424456" lon="8.846145713162057"><ele>214.0</ele><time>2026-03-29T16:45:50.999Z</time></trkpt><trkpt lat="44.7327793793414" lon="8.84593065591735"><ele>214.0</ele><time>2026-03-29T16:45:51.999Z</time></trkpt><trkpt lat="44.73288244030572" lon="8.845716355146076"><ele>214.0</ele><time>2026-03-29T16:45:52.999Z</time></trkpt><trkpt lat="44.73298574048703" lon="8.8455048957166"><ele>214.0</ele><time>2026-03-29T16:45:53.999Z</time></trkpt><trkpt lat="44.73308487231745" lon="8.84529952891473"><ele>214.0</ele><time>2026-03-29T16:45:54.999Z</time></trkpt><trkpt lat="44.73318302244307" lon="8.845097474717075"><ele>214.0</ele><time>2026-03-29T16:45:56Z</time></trkpt><trkpt lat="44.73328085708603" lon="8.844897138709701"><ele>214.66666666666666</ele><time>2026-03-29T16:45:56.999Z</time></trkpt><trkpt lat="44.73337250699207" lon="8.84470467566586"><ele>215.33333333333331</ele><time>2026-03-29T16:45:58Z</time></trkpt><trkpt lat="44.733461875449166" lon="8.844520384065515"><ele>216.0</ele><time>2026-03-29T16:45:59Z</time></trkpt><trkpt lat="44.73355150926187" lon="8.844358062025488"><ele>216.5</ele><time>2026-03-29T16:46:00Z</time></trkpt><trkpt lat="44.73364774188668" lon="8.844224812459597"><ele>217.0</ele><time>2026-03-29T16:46:00.999Z</time></trkpt><trkpt lat="44.733758230581934" lon="8.844119605845734"><ele>217.5</ele><time>2026-03-29T16:46:01.999Z</time></trkpt><trkpt lat="44.73387903198057" lon="8.844061784083923"><ele>218.0</ele><time>2026-03-29T16:46:02.999Z</time></trkpt><trkpt lat="44.734015194124204" lon="8.844050255356779"><ele>218.0</ele><time>2026-03-29T16:46:03.999Z</time></trkpt><trkpt lat="44.73416106288896" lon="8.844080665688287"><ele>218.0</ele><time>2026-03-29T16:46:04.999Z</time></trkpt><trkpt lat="44.73431514417616" lon="8.844143075952921"><ele>218.0</ele><time>2026-03-29T16:46:05.999Z</time></trkpt><trkpt lat="44.73447642313774" lon="8.844187652324935"><ele>216.33333333333334</ele><time>2026-03-29T16:46:06.999Z</time></trkpt><trkpt lat="44.734633230847756" lon="8.844228462513188"><ele>214.66666666666669</ele><time>2026-03-29T16:46:07.999Z</time></trkpt><trkpt lat="44.734792242204655" lon="8.844269758345414"><ele>213.0</ele><time>2026-03-29T16:46:08.999Z</time></trkpt><trkpt lat="44.73495175839043" lon="8.844309531932224"><ele>212.0</ele><time>2026-03-29T16:46:09.999Z</time></trkpt><trkpt lat="44.735111108152054" lon="8.844353044963164"><ele>211.0</ele><time>2026-03-29T16:46:10.999Z</time></trkpt><trkpt lat="44.73527415953284" lon="8.844402247249732"><ele>210.0</ele><time>2026-03-29T16:46:11.999Z</time></trkpt><trkpt lat="44.735438776044674" lon="8.844449145114991"><ele>209.33333333333331</ele><time>2026-03-29T16:46:12.999Z</time></trkpt><trkpt lat="44.735605374207864" lon="8.844495609095294"><ele>208.66666666666666</ele><time>2026-03-29T16:46:13.999Z</time></trkpt><trkpt lat="44.73576833395628" lon="8.844541594164115"><ele>208.0</ele><time>2026-03-29T16:46:14.999Z</time></trkpt><trkpt lat="44.73592623597687" lon="8.844586505570545"><ele>209.0</ele><time>2026-03-29T16:46:15.999Z</time></trkpt><trkpt lat="44.73608082192523" lon="8.844629570893703"><ele>210.0</ele><time>2026-03-29T16:46:16.999Z</time></trkpt><trkpt lat="44.73623351477284" lon="8.844669877453367"><ele>211.0</ele><time>2026-03-29T16:46:17.999Z</time></trkpt><trkpt lat="44.736380384124914" lon="8.844707952020656"><ele>211.0</ele><time>2026-03-29T16:46:18.999Z</time></trkpt><trkpt lat="44.73652817450553" lon="8.844747333354999"><ele>211.0</ele><time>2026-03-29T16:46:19.999Z</time></trkpt><trkpt lat="44.73667506622395" lon="8.844786774528473"><ele>211.0</ele><time>2026-03-29T16:46:20.999Z</time></trkpt><trkpt lat="44.736820763781644" lon="8.844827072929165"><ele>211.0</ele><time>2026-03-29T16:46:21.999Z</time></trkpt><trkpt lat="44.736965314097525" lon="8.844864620911238"><ele>211.0</ele><time>2026-03-29T16:46:22.999Z</time></trkpt><trkpt lat="44.737100604039206" lon="8.844901176763894"><ele>211.0</ele><time>2026-03-29T16:46:23.999Z</time></trkpt><trkpt lat="44.737222947419674" lon="8.84493558864574"><ele>211.0</ele><time>2026-03-29T16:46:24.999Z</time></trkpt><trkpt lat="44.737340674280624" lon="8.844970219758247"><ele>211.0</ele><time>2026-03-29T16:46:25.999Z</time></trkpt><trkpt lat="44.7374565954691" lon="8.845002486947463"><ele>211.0</ele><time>2026-03-29T16:46:26.999Z</time></trkpt><trkpt lat="44.73756971570924" lon="8.845033222827215"><ele>211.0</ele><time>2026-03-29T16:46:27.999Z</time></trkpt><trkpt lat="44.73766841439952" lon="8.84505959115807"><ele>211.0</ele><time>2026-03-29T16:46:28.999Z</time></trkpt><trkpt lat="44.73775323397359" lon="8.845085983291764"><ele>211.0</ele><time>2026-03-29T16:46:29.999Z</time></trkpt><trkpt lat="44.73783013742371" lon="8.845124053476473"><ele>211.0</ele><time>2026-03-29T16:46:30.999Z</time></trkpt><trkpt lat="44.737901046263914" lon="8.845188191571252"><ele>210.20000000000002</ele><time>2026-03-29T16:46:31.999Z</time></trkpt><trkpt lat="44.73796010606566" lon="8.845288599235166"><ele>209.4</ele><time>2026-03-29T16:46:32.999Z</time></trkpt><trkpt lat="44.7380067925738" lon="8.84541725691585"><ele>208.6</ele><time>2026-03-29T16:46:33.999Z</time></trkpt><trkpt lat="44.73806694684621" lon="8.845543919003203"><ele>207.8</ele><time>2026-03-29T16:46:34.999Z</time></trkpt><trkpt lat="44.73815032530243" lon="8.845640138819983"><ele>207.0</ele><time>2026-03-29T16:46:35.999Z</time></trkpt><trkpt lat="44.73824413579331" lon="8.84570302709613"><ele>207.0</ele><time>2026-03-29T16:46:36.999Z</time></trkpt><trkpt lat="44.738342142146095" lon="8.845733632353612"><ele>207.0</ele><time>2026-03-29T16:46:37.999Z</time></trkpt><trkpt lat="44.73844029773333" lon="8.845717435907233"><ele>207.0</ele><time>2026-03-29T16:46:38.999Z</time></trkpt><trkpt lat="44.73853450650437" lon="8.845661678082607"><ele>207.0</ele><time>2026-03-29T16:46:39.999Z</time></trkpt><trkpt lat="44.73861541521646" lon="8.84558033832047"><ele>207.0</ele><time>2026-03-29T16:46:40.999Z</time></trkpt><trkpt lat="44.73868160087078" lon="8.84546289056244"><ele>207.0</ele><time>2026-03-29T16:46:41.999Z</time></trkpt><trkpt lat="44.738722830624376" lon="8.845319225670016"><ele>207.0</ele><time>2026-03-29T16:46:42.999Z</time></trkpt><trkpt lat="44.738738496355566" lon="8.845165452730873"><ele>207.0</ele><time>2026-03-29T16:46:43.999Z</time></trkpt><trkpt lat="44.73874640817147" lon="8.845010300348987"><ele>207.0</ele><time>2026-03-29T16:46:44.999Z</time></trkpt><trkpt lat="44.73878050138338" lon="8.844865671608332"><ele>207.0</ele><time>2026-03-29T16:46:45.999Z</time></trkpt><trkpt lat="44.73884848487907" lon="8.8447283404023"><ele>208.0</ele><time>2026-03-29T16:46:46.999Z</time></trkpt><trkpt lat="44.738966741418146" lon="8.844625799764456"><ele>209.0</ele><time>2026-03-29T16:46:47.999Z</time></trkpt><trkpt lat="44.73909448428768" lon="8.844478220932753"><ele>210.0</ele><time>2026-03-29T16:46:48.999Z</time></trkpt><trkpt lat="44.73923859852271" lon="8.844300433002418"><ele>210.66666666666669</ele><time>2026-03-29T16:46:49.999Z</time></trkpt><trkpt lat="44.73938397421516" lon="8.844074299365078"><ele>211.33333333333334</ele><time>2026-03-29T16:46:50.999Z</time></trkpt><trkpt lat="44.73951950036868" lon="8.843835819844408"><ele>212.0</ele><time>2026-03-29T16:46:51.999Z</time></trkpt><trkpt lat="44.73965871179563" lon="8.84357087689748"><ele>216.5</ele><time>2026-03-29T16:46:52.999Z</time></trkpt><trkpt lat="44.739812021363655" lon="8.843276799922085"><ele>221.0</ele><time>2026-03-29T16:46:53.999Z</time></trkpt><trkpt lat="44.73997853223024" lon="8.84295661371711"><ele>221.0</ele><time>2026-03-29T16:46:54.999Z</time></trkpt><trkpt lat="44.74014989360745" lon="8.842643623613318"><ele>221.0</ele><time>2026-03-29T16:46:55.999Z</time></trkpt><trkpt lat="44.7403229829213" lon="8.84233713393631"><ele>221.5</ele><time>2026-03-29T16:46:56.999Z</time></trkpt><trkpt lat="44.74050820108173" lon="8.842006370661187"><ele>222.0</ele><time>2026-03-29T16:46:57.999Z</time></trkpt><trkpt lat="44.7406235143906" lon="8.841733913609522"><ele>224.0</ele><time>2026-03-29T16:46:58.999Z</time></trkpt><trkpt lat="44.74080393172501" lon="8.841394969324838"><ele>226.0</ele><time>2026-03-29T16:46:59.999Z</time></trkpt><trkpt lat="44.740985508695864" lon="8.841046844831874"><ele>226.0</ele><time>2026-03-29T16:47:00.999Z</time></trkpt><trkpt lat="44.741167267374884" lon="8.840698984437145"><ele>226.0</ele><time>2026-03-29T16:47:01.999Z</time></trkpt><trkpt lat="44.74135342778357" lon="8.840350237037091"><ele>226.0</ele><time>2026-03-29T16:47:02.999Z</time></trkpt><trkpt lat="44.74153699247112" lon="8.839993301410061"><ele>226.0</ele><time>2026-03-29T16:47:03.999Z</time></trkpt><trkpt lat="44.74172231056285" lon="8.839635432090967"><ele>225.0</ele><time>2026-03-29T16:47:04.999Z</time></trkpt><trkpt lat="44.74190873412826" lon="8.839278201430686"><ele>224.0</ele><time>2026-03-29T16:47:05.999Z</time></trkpt><trkpt lat="44.742081221566366" lon="8.838955690459468"><ele>224.0</ele><time>2026-03-29T16:47:06.999Z</time></trkpt><trkpt lat="44.742238108904814" lon="8.838651386099958"><ele>224.0</ele><time>2026-03-29T16:47:07.999Z</time></trkpt><trkpt lat="44.74238610321766" lon="8.838360831703639"><ele>224.0</ele><time>2026-03-29T16:47:08.999Z</time></trkpt><trkpt lat="44.742535779229286" lon="8.838073249026003"><ele>224.0</ele><time>2026-03-29T16:47:09.999Z</time></trkpt><trkpt lat="44.74268522167027" lon="8.837789236948552"><ele>223.5</ele><time>2026-03-29T16:47:10.999Z</time></trkpt><trkpt lat="44.74282970399554" lon="8.837519497708842"><ele>223.0</ele><time>2026-03-29T16:47:11.999Z</time></trkpt><trkpt lat="44.74296155815767" lon="8.837259881774635"><ele>223.0</ele><time>2026-03-29T16:47:12.999Z</time></trkpt><trkpt lat="44.743086074140244" lon="8.837018179299454"><ele>223.0</ele><time>2026-03-29T16:47:13.999Z</time></trkpt><trkpt lat="44.74320491319673" lon="8.83679306452479"><ele>223.0</ele><time>2026-03-29T16:47:14.999Z</time></trkpt><trkpt lat="44.74331348807906" lon="8.83658624447602"><ele>222.66666666666666</ele><time>2026-03-29T16:47:15.999Z</time></trkpt><trkpt lat="44.7434213415674" lon="8.836386483477693"><ele>222.33333333333331</ele><time>2026-03-29T16:47:16.999Z</time></trkpt><trkpt lat="44.74352371036309" lon="8.836193364866421"><ele>222.0</ele><time>2026-03-29T16:47:17.999Z</time></trkpt><trkpt lat="44.74361453208524" lon="8.836018155805561"><ele>221.75</ele><time>2026-03-29T16:47:18.999Z</time></trkpt><trkpt lat="44.743692693570345" lon="8.83586083583821"><ele>221.5</ele><time>2026-03-29T16:47:19.999Z</time></trkpt><trkpt lat="44.74376819812777" lon="8.835721269059391"><ele>221.25</ele><time>2026-03-29T16:47:20.999Z</time></trkpt><trkpt lat="44.743837378965495" lon="8.835600307489937"><ele>221.0</ele><time>2026-03-29T16:47:21.998Z</time></trkpt><trkpt lat="44.743909854576806" lon="8.83549899471993"><ele>221.0</ele><time>2026-03-29T16:47:22.998Z</time></trkpt><trkpt lat="44.74398354650164" lon="8.835404639329672"><ele>221.00000000000003</ele><time>2026-03-29T16:47:23.998Z</time></trkpt><trkpt lat="44.744039478132876" lon="8.835299168273544"><ele>221.00000000000003</ele><time>2026-03-29T16:47:24.998Z</time></trkpt><trkpt lat="44.74418323607037" lon="8.835291098996437"><ele>221.0</ele><time>2026-03-29T16:47:25.998Z</time></trkpt><trkpt lat="44.74428561898704" lon="8.83524509458152"><ele>221.0</ele><time>2026-03-29T16:47:26.998Z</time></trkpt><trkpt lat="44.74436157448885" lon="8.835148823749275"><ele>221.0</ele><time>2026-03-29T16:47:27.998Z</time></trkpt><trkpt lat="44.74440328336791" lon="8.835010801602106"><ele>221.0</ele><time>2026-03-29T16:47:28.998Z</time></trkpt><trkpt lat="44.74441087329896" lon="8.834830585087463"><ele>221.0</ele><time>2026-03-29T16:47:29.998Z</time></trkpt><trkpt lat="44.744399656725896" lon="8.834630057504338"><ele>221.0</ele><time>2026-03-29T16:47:30.998Z</time></trkpt><trkpt lat="44.74442282936906" lon="8.834434791099454"><ele>221.0</ele><time>2026-03-29T16:47:31.998Z</time></trkpt><trkpt lat="44.74449762319675" lon="8.834250457375326"><ele>221.0</ele><time>2026-03-29T16:47:32.998Z</time></trkpt><trkpt lat="44.74460016391314" lon="8.834061577966398"><ele>221.0</ele><time>2026-03-29T16:47:33.998Z</time></trkpt><trkpt lat="44.74470627552675" lon="8.833871824882333"><ele>221.0</ele><time>2026-03-29T16:47:34.998Z</time></trkpt><trkpt lat="44.744820439754335" lon="8.83366173894308"><ele>221.0</ele><time>2026-03-29T16:47:35.998Z</time></trkpt><trkpt lat="44.74493918019895" lon="8.833449111423858"><ele>221.0</ele><time>2026-03-29T16:47:36.998Z</time></trkpt><trkpt lat="44.74506207195048" lon="8.833216322936293"><ele>221.0</ele><time>2026-03-29T16:47:37.998Z</time></trkpt><trkpt lat="44.74518913622534" lon="8.832965052613307"><ele>221.0</ele><time>2026-03-29T16:47:38.998Z</time></trkpt><trkpt lat="44.745321352732944" lon="8.832716083726197"><ele>221.0</ele><time>2026-03-29T16:47:39.998Z</time></trkpt><trkpt lat="44.745455791850624" lon="8.832466667285697"><ele>221.0</ele><time>2026-03-29T16:47:40.998Z</time></trkpt><trkpt lat="44.745578475336806" lon="8.83223465555113"><ele>221.0</ele><time>2026-03-29T16:47:41.998Z</time></trkpt><trkpt lat="44.74569792997938" lon="8.832010753020889"><ele>221.0</ele><time>2026-03-29T16:47:42.998Z</time></trkpt><trkpt lat="44.745824103483386" lon="8.831775732502441"><ele>220.66666666666669</ele><time>2026-03-29T16:47:43.998Z</time></trkpt><trkpt lat="44.74594453630224" lon="8.83153569775361"><ele>220.33333333333331</ele><time>2026-03-29T16:47:44.998Z</time></trkpt><trkpt lat="44.746068965601786" lon="8.83129623581855"><ele>220.0</ele><time>2026-03-29T16:47:45.998Z</time></trkpt><trkpt lat="44.74619901740497" lon="8.83105454066265"><ele>219.66666666666666</ele><time>2026-03-29T16:47:46.998Z</time></trkpt><trkpt lat="44.74632533756144" lon="8.83081931014484"><ele>219.33333333333331</ele><time>2026-03-29T16:47:47.998Z</time></trkpt><trkpt lat="44.74644570761818" lon="8.830583601491217"><ele>219.0</ele><time>2026-03-29T16:47:48.998Z</time></trkpt><trkpt lat="44.74656641986276" lon="8.830346275803588"><ele>218.33333333333331</ele><time>2026-03-29T16:47:49.998Z</time></trkpt><trkpt lat="44.74668755941222" lon="8.830109369136183"><ele>217.66666666666666</ele><time>2026-03-29T16:47:50.998Z</time></trkpt><trkpt lat="44.74681053000166" lon="8.829886710242889"><ele>217.0</ele><time>2026-03-29T16:47:51.999Z</time></trkpt><trkpt lat="44.74692829813895" lon="8.829662721636325"><ele>217.0</ele><time>2026-03-29T16:47:52.999Z</time></trkpt><trkpt lat="44.74704575377805" lon="8.829435906125955"><ele>217.0</ele><time>2026-03-29T16:47:53.999Z</time></trkpt><trkpt lat="44.74715475916581" lon="8.829202176092547"><ele>217.0</ele><time>2026-03-29T16:47:54.999Z</time></trkpt><trkpt lat="44.74727034061021" lon="8.82897248062322"><ele>216.66666666666666</ele><time>2026-03-29T16:47:55.999Z</time></trkpt><trkpt lat="44.74739072768841" lon="8.828746424257945"><ele>216.33333333333331</ele><time>2026-03-29T16:47:56.999Z</time></trkpt><trkpt lat="44.74751331969725" lon="8.828515009415934"><ele>216.0</ele><time>2026-03-29T16:47:57.999Z</time></trkpt><trkpt lat="44.74763802851538" lon="8.828283129092643"><ele>216.0</ele><time>2026-03-29T16:47:58.999Z</time></trkpt><trkpt lat="44.74776511583934" lon="8.828049805813766"><ele>216.0</ele><time>2026-03-29T16:47:59.999Z</time></trkpt><trkpt lat="44.74789286922866" lon="8.827814881346697"><ele>216.0</ele><time>2026-03-29T16:48:00.999Z</time></trkpt><trkpt lat="44.74802495917142" lon="8.827579323702613"><ele>215.66666666666669</ele><time>2026-03-29T16:48:02Z</time></trkpt><trkpt lat="44.74816216457645" lon="8.827348092359905"><ele>215.33333333333334</ele><time>2026-03-29T16:48:03Z</time></trkpt><trkpt lat="44.7483024905847" lon="8.827121812660419"><ele>215.0</ele><time>2026-03-29T16:48:04Z</time></trkpt><trkpt lat="44.74844351340181" lon="8.826898824314373"><ele>214.0</ele><time>2026-03-29T16:48:05Z</time></trkpt><trkpt lat="44.748587016746484" lon="8.826675512009091"><ele>213.0</ele><time>2026-03-29T16:48:06Z</time></trkpt><trkpt lat="44.748734671103996" lon="8.826457420109062"><ele>212.0</ele><time>2026-03-29T16:48:07Z</time></trkpt><trkpt lat="44.74888990658151" lon="8.826241413035607"><ele>212.0</ele><time>2026-03-29T16:48:08Z</time></trkpt><trkpt lat="44.749053610704834" lon="8.826028248120661"><ele>212.0</ele><time>2026-03-29T16:48:08.999Z</time></trkpt><trkpt lat="44.74922251934374" lon="8.825815636288146"><ele>211.5</ele><time>2026-03-29T16:48:09.999Z</time></trkpt><trkpt lat="44.749396894826184" lon="8.825601581027838"><ele>211.0</ele><time>2026-03-29T16:48:10.999Z</time></trkpt><trkpt lat="44.7495784733288" lon="8.825375832098215"><ele>211.0</ele><time>2026-03-29T16:48:11.999Z</time></trkpt><trkpt lat="44.74975689781325" lon="8.82514817306697"><ele>211.0</ele><time>2026-03-29T16:48:12.999Z</time></trkpt><trkpt lat="44.74993827559091" lon="8.824915879508852"><ele>211.5</ele><time>2026-03-29T16:48:13.999Z</time></trkpt><trkpt lat="44.75011881535359" lon="8.824686312233135"><ele>212.0</ele><time>2026-03-29T16:48:14.999Z</time></trkpt><trkpt lat="44.750306972021605" lon="8.824446881993975"><ele>210.0</ele><time>2026-03-29T16:48:15.999Z</time></trkpt><trkpt lat="44.750488376121595" lon="8.824211825550217"><ele>208.0</ele><time>2026-03-29T16:48:16.999Z</time></trkpt><trkpt lat="44.75067251172953" lon="8.823970529485967"><ele>208.0</ele><time>2026-03-29T16:48:17.999Z</time></trkpt><trkpt lat="44.75086722450032" lon="8.823754806948319"><ele>208.0</ele><time>2026-03-29T16:48:18.999Z</time></trkpt><trkpt lat="44.75103838462848" lon="8.82351308508001"><ele>204.5</ele><time>2026-03-29T16:48:19.999Z</time></trkpt><trkpt lat="44.75121724784307" lon="8.823296439088066"><ele>201.0</ele><time>2026-03-29T16:48:20.999Z</time></trkpt><trkpt lat="44.751389338807364" lon="8.823089999635087"><ele>201.0</ele><time>2026-03-29T16:48:21.999Z</time></trkpt><trkpt lat="44.751561906599235" lon="8.822882955950238"><ele>201.0</ele><time>2026-03-29T16:48:22.999Z</time></trkpt><trkpt lat="44.75174120944876" lon="8.82267986949171"><ele>199.0</ele><time>2026-03-29T16:48:23.999Z</time></trkpt><trkpt lat="44.75193046182381" lon="8.822486864706333"><ele>197.0</ele><time>2026-03-29T16:48:24.999Z</time></trkpt><trkpt lat="44.7521260760092" lon="8.822306759519144"><ele>197.0</ele><time>2026-03-29T16:48:25.999Z</time></trkpt><trkpt lat="44.752328176101855" lon="8.822138319633115"><ele>197.0</ele><time>2026-03-29T16:48:26.999Z</time></trkpt><trkpt lat="44.752533158269344" lon="8.821985594222667"><ele>196.0</ele><time>2026-03-29T16:48:27.999Z</time></trkpt><trkpt lat="44.75274381825249" lon="8.821843176924983"><ele>195.0</ele><time>2026-03-29T16:48:28.999Z</time></trkpt><trkpt lat="44.7529559582397" lon="8.82171325874084"><ele>195.0</ele><time>2026-03-29T16:48:29.999Z</time></trkpt><trkpt lat="44.75316173721831" lon="8.821602000837999"><ele>195.0</ele><time>2026-03-29T16:48:30.999Z</time></trkpt><trkpt lat="44.75336427059439" lon="8.82150790495277"><ele>195.0</ele><time>2026-03-29T16:48:31.999Z</time></trkpt><trkpt lat="44.75357470918344" lon="8.821458043490622"><ele>194.66666666666669</ele><time>2026-03-29T16:48:32.999Z</time></trkpt><trkpt lat="44.75376251134158" lon="8.82139247352707"><ele>194.33333333333334</ele><time>2026-03-29T16:48:33.999Z</time></trkpt><trkpt lat="44.75394806798577" lon="8.821335331817737"><ele>194.0</ele><time>2026-03-29T16:48:34.999Z</time></trkpt><trkpt lat="44.75413585461591" lon="8.821277611405153"><ele>194.0</ele><time>2026-03-29T16:48:35.999Z</time></trkpt><trkpt lat="44.75431790496338" lon="8.821201677753859"><ele>194.0</ele><time>2026-03-29T16:48:36.999Z</time></trkpt><trkpt lat="44.75449952303794" lon="8.821154081327878"><ele>194.0</ele><time>2026-03-29T16:48:37.999Z</time></trkpt><trkpt lat="44.754672228555194" lon="8.821106603963287"><ele>194.0</ele><time>2026-03-29T16:48:38.999Z</time></trkpt><trkpt lat="44.75484323169869" lon="8.82105317360261"><ele>194.0</ele><time>2026-03-29T16:48:39.999Z</time></trkpt><trkpt lat="44.75501603297329" lon="8.820990699122223"><ele>194.0</ele><time>2026-03-29T16:48:40.999Z</time></trkpt><trkpt lat="44.75519014506721" lon="8.820917742700397"><ele>193.33333333333334</ele><time>2026-03-29T16:48:41.999Z</time></trkpt><trkpt lat="44.755365729832484" lon="8.820831532449821"><ele>192.66666666666669</ele><time>2026-03-29T16:48:42.999Z</time></trkpt><trkpt lat="44.75553825521906" lon="8.820729035773509"><ele>192.0</ele><time>2026-03-29T16:48:43.999Z</time></trkpt><trkpt lat="44.755708537750245" lon="8.820612890379016"><ele>192.0</ele><time>2026-03-29T16:48:44.999Z</time></trkpt><trkpt lat="44.75586971532707" lon="8.82047925828802"><ele>192.0</ele><time>2026-03-29T16:48:45.999Z</time></trkpt><trkpt lat="44.75602166010005" lon="8.820329648962707"><ele>192.0</ele><time>2026-03-29T16:48:46.999Z</time></trkpt><trkpt lat="44.75616616409124" lon="8.820174424737408"><ele>191.66666666666666</ele><time>2026-03-29T16:48:47.999Z</time></trkpt><trkpt lat="44.756305654600226" lon="8.820013568931119"><ele>191.33333333333331</ele><time>2026-03-29T16:48:48.999Z</time></trkpt><trkpt lat="44.75643898256331" lon="8.819845083280246"><ele>191.0</ele><time>2026-03-29T16:48:49.999Z</time></trkpt><trkpt lat="44.75655917205563" lon="8.819654479930168"><ele>191.0</ele><time>2026-03-29T16:48:50.999Z</time></trkpt><trkpt lat="44.75667390523193" lon="8.819453208028914"><ele>191.0</ele><time>2026-03-29T16:48:51.999Z</time></trkpt><trkpt lat="44.75678591988516" lon="8.81924646138487"><ele>191.0</ele><time>2026-03-29T16:48:52.999Z</time></trkpt><trkpt lat="44.756885737829705" lon="8.81903671867243"><ele>191.0</ele><time>2026-03-29T16:48:53.999Z</time></trkpt><trkpt lat="44.75697387060378" lon="8.818816383095728"><ele>191.0</ele><time>2026-03-29T16:48:54.999Z</time></trkpt><trkpt lat="44.75705408797743" lon="8.818588115798727"><ele>191.0</ele><time>2026-03-29T16:48:55.999Z</time></trkpt><trkpt lat="44.757126670590914" lon="8.818357834435147"><ele>191.0</ele><time>2026-03-29T16:48:56.999Z</time></trkpt><trkpt lat="44.75719073102287" lon="8.81812983104927"><ele>191.0</ele><time>2026-03-29T16:48:57.999Z</time></trkpt><trkpt lat="44.757246814119334" lon="8.81789720157086"><ele>191.0</ele><time>2026-03-29T16:48:58.999Z</time></trkpt><trkpt lat="44.7572938457289" lon="8.817664198931668"><ele>190.66666666666666</ele><time>2026-03-29T16:48:59.999Z</time></trkpt><trkpt lat="44.757335614720645" lon="8.817429855617611"><ele>190.33333333333334</ele><time>2026-03-29T16:49:00.999Z</time></trkpt><trkpt lat="44.75737477584241" lon="8.817195645535634"><ele>190.0</ele><time>2026-03-29T16:49:01.999Z</time></trkpt><trkpt lat="44.75741150451049" lon="8.816956174132235"><ele>190.66666666666669</ele><time>2026-03-29T16:49:02.999Z</time></trkpt><trkpt lat="44.75745124499994" lon="8.816717679719845"><ele>191.33333333333334</ele><time>2026-03-29T16:49:03.999Z</time></trkpt><trkpt lat="44.757490016295996" lon="8.816477827154149"><ele>192.0</ele><time>2026-03-29T16:49:04.999Z</time></trkpt><trkpt lat="44.75752872180365" lon="8.816232503772753"><ele>193.66666666666669</ele><time>2026-03-29T16:49:05.999Z</time></trkpt><trkpt lat="44.75756667874377" lon="8.815986691261479"><ele>195.33333333333334</ele><time>2026-03-29T16:49:06.999Z</time></trkpt><trkpt lat="44.75760755284892" lon="8.815740789671288"><ele>197.0</ele><time>2026-03-29T16:49:07.999Z</time></trkpt><trkpt lat="44.75764736718063" lon="8.815490347297498"><ele>197.0</ele><time>2026-03-29T16:49:08.999Z</time></trkpt><trkpt lat="44.75768726247465" lon="8.815238472967438"><ele>197.0</ele><time>2026-03-29T16:49:09.999Z</time></trkpt><trkpt lat="44.75772730150675" lon="8.814990018192992"><ele>197.0</ele><time>2026-03-29T16:49:10.999Z</time></trkpt><trkpt lat="44.75777013911386" lon="8.814742267799554"><ele>195.66666666666669</ele><time>2026-03-29T16:49:11.999Z</time></trkpt><trkpt lat="44.757812355409655" lon="8.814491253448258"><ele>194.33333333333331</ele><time>2026-03-29T16:49:12.999Z</time></trkpt><trkpt lat="44.757852430931315" lon="8.814243906368354"><ele>193.0</ele><time>2026-03-29T16:49:13.999Z</time></trkpt><trkpt lat="44.75789313868072" lon="8.813999148069874"><ele>196.33333333333331</ele><time>2026-03-29T16:49:14.999Z</time></trkpt><trkpt lat="44.75793351648002" lon="8.813757862513713"><ele>199.66666666666669</ele><time>2026-03-29T16:49:15.999Z</time></trkpt><trkpt lat="44.757971847341544" lon="8.813522902365076"><ele>203.0</ele><time>2026-03-29T16:49:16.999Z</time></trkpt><trkpt lat="44.75800786542955" lon="8.81329795908034"><ele>203.66666666666669</ele><time>2026-03-29T16:49:17.999Z</time></trkpt><trkpt lat="44.75804211294706" lon="8.813079635120314"><ele>204.33333333333331</ele><time>2026-03-29T16:49:18.999Z</time></trkpt><trkpt lat="44.75807538741795" lon="8.812863917998893"><ele>205.0</ele><time>2026-03-29T16:49:19.999Z</time></trkpt><trkpt lat="44.75811062981026" lon="8.812644781875884"><ele>205.0</ele><time>2026-03-29T16:49:20.999Z</time></trkpt><trkpt lat="44.758142925163135" lon="8.812438206283522"><ele>205.0</ele><time>2026-03-29T16:49:21.999Z</time></trkpt><trkpt lat="44.758176474123644" lon="8.812223478176811"><ele>205.0</ele><time>2026-03-29T16:49:22.999Z</time></trkpt><trkpt lat="44.758213321464574" lon="8.812009226146765"><ele>204.66666666666666</ele><time>2026-03-29T16:49:23.999Z</time></trkpt><trkpt lat="44.75824691840466" lon="8.811792246024698"><ele>204.33333333333331</ele><time>2026-03-29T16:49:24.999Z</time></trkpt><trkpt lat="44.758280570961745" lon="8.811571902230298"><ele>204.0</ele><time>2026-03-29T16:49:25.999Z</time></trkpt><trkpt lat="44.758312399518715" lon="8.811350288151154"><ele>204.0</ele><time>2026-03-29T16:49:26.999Z</time></trkpt><trkpt lat="44.75834648357609" lon="8.811124979790456"><ele>204.0</ele><time>2026-03-29T16:49:27.999Z</time></trkpt><trkpt lat="44.758385017978284" lon="8.81090993220744"><ele>204.0</ele><time>2026-03-29T16:49:28.999Z</time></trkpt><trkpt lat="44.75842180467427" lon="8.810688184451088"><ele>204.0</ele><time>2026-03-29T16:49:29.999Z</time></trkpt><trkpt lat="44.75845254558023" lon="8.810474995624782"><ele>204.0</ele><time>2026-03-29T16:49:30.999Z</time></trkpt><trkpt lat="44.75847958682651" lon="8.810275996994978"><ele>204.0</ele><time>2026-03-29T16:49:31.999Z</time></trkpt><trkpt lat="44.75851947360167" lon="8.810080426971874"><ele>204.0</ele><time>2026-03-29T16:49:32.999Z</time></trkpt><trkpt lat="44.75856402446139" lon="8.809887106064997"><ele>204.0</ele><time>2026-03-29T16:49:33.998Z</time></trkpt><trkpt lat="44.758597764914114" lon="8.809680307808556"><ele>204.0</ele><time>2026-03-29T16:49:34.998Z</time></trkpt><trkpt lat="44.75861884649511" lon="8.809472306170347"><ele>204.0</ele><time>2026-03-29T16:49:35.998Z</time></trkpt><trkpt lat="44.7586546971064" lon="8.809267734384054"><ele>204.0</ele><time>2026-03-29T16:49:36.998Z</time></trkpt><trkpt lat="44.758693620022136" lon="8.809073015987401"><ele>204.0</ele><time>2026-03-29T16:49:37.998Z</time></trkpt><trkpt lat="44.75871952235397" lon="8.808884545284402"><ele>204.0</ele><time>2026-03-29T16:49:38.998Z</time></trkpt><trkpt lat="44.75874050446775" lon="8.808702431708923"><ele>204.0</ele><time>2026-03-29T16:49:39.998Z</time></trkpt><trkpt lat="44.75876021284172" lon="8.808530326350434"><ele>204.0</ele><time>2026-03-29T16:49:40.998Z</time></trkpt><trkpt lat="44.758784382392754" lon="8.808362883731135"><ele>204.0</ele><time>2026-03-29T16:49:41.998Z</time></trkpt><trkpt lat="44.75881225643212" lon="8.80820230770145"><ele>204.0</ele><time>2026-03-29T16:49:42.998Z</time></trkpt><trkpt lat="44.75884070878728" lon="8.808047831290722"><ele>204.0</ele><time>2026-03-29T16:49:43.998Z</time></trkpt><trkpt lat="44.758868573753574" lon="8.8078991462452"><ele>204.0</ele><time>2026-03-29T16:49:44.998Z</time></trkpt><trkpt lat="44.75889558762892" lon="8.807758193385196"><ele>204.0</ele><time>2026-03-29T16:49:45.998Z</time></trkpt><trkpt lat="44.75892503231237" lon="8.807641889437496"><ele>203.79999999999998</ele><time>2026-03-29T16:49:46.998Z</time></trkpt><trkpt lat="44.758957826158536" lon="8.807543047270283"><ele>203.6</ele><time>2026-03-29T16:49:47.998Z</time></trkpt><trkpt lat="44.75895479822598" lon="8.807443694026606"><ele>203.4</ele><time>2026-03-29T16:49:48.998Z</time></trkpt><trkpt lat="44.75906132714306" lon="8.807369895502069"><ele>203.2</ele><time>2026-03-29T16:49:49.998Z</time></trkpt><trkpt lat="44.759131925419936" lon="8.807279326038266"><ele>203.0</ele><time>2026-03-29T16:49:50.998Z</time></trkpt><trkpt lat="44.75920638232071" lon="8.807184376567394"><ele>203.0</ele><time>2026-03-29T16:49:51.998Z</time></trkpt><trkpt lat="44.75928847141792" lon="8.807092934355317"><ele>203.0</ele><time>2026-03-29T16:49:52.998Z</time></trkpt><trkpt lat="44.759388773481504" lon="8.807026989854652"><ele>203.0</ele><time>2026-03-29T16:49:53.998Z</time></trkpt><trkpt lat="44.759508404154836" lon="8.807027306400785"><ele>203.0</ele><time>2026-03-29T16:49:54.998Z</time></trkpt><trkpt lat="44.7596370288871" lon="8.806998853542833"><ele>203.0</ele><time>2026-03-29T16:49:55.998Z</time></trkpt><trkpt lat="44.759769449588475" lon="8.806994216498206"><ele>203.0</ele><time>2026-03-29T16:49:57Z</time></trkpt><trkpt lat="44.759902093394544" lon="8.806976130286127"><ele>203.0</ele><time>2026-03-29T16:49:58Z</time></trkpt><trkpt lat="44.76003940719611" lon="8.806956449741644"><ele>203.0</ele><time>2026-03-29T16:49:59Z</time></trkpt><trkpt lat="44.76017635882988" lon="8.80693984489954"><ele>202.75</ele><time>2026-03-29T16:50:00Z</time></trkpt><trkpt lat="44.76031369791619" lon="8.806923712473784"><ele>202.5</ele><time>2026-03-29T16:50:01Z</time></trkpt><trkpt lat="44.760457011348414" lon="8.806906362935615"><ele>202.25</ele><time>2026-03-29T16:50:02Z</time></trkpt><trkpt lat="44.76060736331825" lon="8.806884589312245"><ele>202.0</ele><time>2026-03-29T16:50:03Z</time></trkpt><trkpt lat="44.76076731507196" lon="8.806864056140466"><ele>202.0</ele><time>2026-03-29T16:50:04Z</time></trkpt><trkpt lat="44.760933191938605" lon="8.806844458665463"><ele>202.0</ele><time>2026-03-29T16:50:05Z</time></trkpt><trkpt lat="44.76109614187858" lon="8.806824530439455"><ele>202.0</ele><time>2026-03-29T16:50:06Z</time></trkpt><trkpt lat="44.76124658713843" lon="8.80680521370485"><ele>201.75</ele><time>2026-03-29T16:50:07Z</time></trkpt><trkpt lat="44.76138094181238" lon="8.806790017950355"><ele>201.5</ele><time>2026-03-29T16:50:08Z</time></trkpt><trkpt lat="44.76150149070374" lon="8.806779005020735"><ele>201.25</ele><time>2026-03-29T16:50:09Z</time></trkpt><trkpt lat="44.76161899678516" lon="8.806767365846992"><ele>201.0</ele><time>2026-03-29T16:50:10Z</time></trkpt><trkpt lat="44.761740202512165" lon="8.806761942904341"><ele>200.25</ele><time>2026-03-29T16:50:11Z</time></trkpt><trkpt lat="44.76186694973625" lon="8.806752406688952"><ele>199.5</ele><time>2026-03-29T16:50:12Z</time></trkpt><trkpt lat="44.761998168738614" lon="8.806739281408362"><ele>198.75</ele><time>2026-03-29T16:50:13Z</time></trkpt><trkpt lat="44.76213083242304" lon="8.806718537228921"><ele>198.0</ele><time>2026-03-29T16:50:14Z</time></trkpt><trkpt lat="44.76227538763538" lon="8.806691663880047"><ele>198.0</ele><time>2026-03-29T16:50:15Z</time></trkpt><trkpt lat="44.762426145420626" lon="8.806668039321858"><ele>198.0</ele><time>2026-03-29T16:50:16Z</time></trkpt><trkpt lat="44.762580542631866" lon="8.806645796426222"><ele>198.0</ele><time>2026-03-29T16:50:17Z</time></trkpt><trkpt lat="44.762744782434005" lon="8.80662713867639"><ele>198.33333333333331</ele><time>2026-03-29T16:50:18Z</time></trkpt><trkpt lat="44.76291485325532" lon="8.806610263778971"><ele>198.66666666666666</ele><time>2026-03-29T16:50:19Z</time></trkpt><trkpt lat="44.76309103973384" lon="8.806588319914207"><ele>199.0</ele><time>2026-03-29T16:50:20Z</time></trkpt><trkpt lat="44.763275899655326" lon="8.80655786934369"><ele>199.0</ele><time>2026-03-29T16:50:21Z</time></trkpt><trkpt lat="44.763466972488885" lon="8.806530456604138"><ele>199.0</ele><time>2026-03-29T16:50:22Z</time></trkpt><trkpt lat="44.763666222624074" lon="8.806506163801249"><ele>199.0</ele><time>2026-03-29T16:50:22.999Z</time></trkpt><trkpt lat="44.76387428046389" lon="8.806479732376433"><ele>199.0</ele><time>2026-03-29T16:50:23.999Z</time></trkpt><trkpt lat="44.76409479500703" lon="8.806455665826022"><ele>199.0</ele><time>2026-03-29T16:50:24.999Z</time></trkpt><trkpt lat="44.76432032116394" lon="8.80642663986486"><ele>199.0</ele><time>2026-03-29T16:50:25.999Z</time></trkpt><trkpt lat="44.764556563366185" lon="8.806398878954859"><ele>200.0</ele><time>2026-03-29T16:50:26.999Z</time></trkpt><trkpt lat="44.764798969332155" lon="8.806369326003056"><ele>201.0</ele><time>2026-03-29T16:50:27.999Z</time></trkpt><trkpt lat="44.76503556372197" lon="8.806338481915674"><ele>201.0</ele><time>2026-03-29T16:50:28.999Z</time></trkpt><trkpt lat="44.76527989497521" lon="8.806306884084291"><ele>201.0</ele><time>2026-03-29T16:50:29.999Z</time></trkpt><trkpt lat="44.765523503501946" lon="8.806270298762339"><ele>201.0</ele><time>2026-03-29T16:50:30.999Z</time></trkpt><trkpt lat="44.76577440141159" lon="8.80621089073404"><ele>201.0</ele><time>2026-03-29T16:50:31.999Z</time></trkpt><trkpt lat="44.76602709421819" lon="8.806135545064446"><ele>200.5</ele><time>2026-03-29T16:50:32.999Z</time></trkpt><trkpt lat="44.76626990524557" lon="8.806050938222075"><ele>200.0</ele><time>2026-03-29T16:50:33.999Z</time></trkpt><trkpt lat="44.76651150840126" lon="8.80594608023431"><ele>199.5</ele><time>2026-03-29T16:50:34.999Z</time></trkpt><trkpt lat="44.76674943079157" lon="8.805821132737712"><ele>199.0</ele><time>2026-03-29T16:50:35.999Z</time></trkpt><trkpt lat="44.766985749726906" lon="8.805680632927805"><ele>199.0</ele><time>2026-03-29T16:50:36.999Z</time></trkpt><trkpt lat="44.767219125419544" lon="8.805527067218678"><ele>199.0</ele><time>2026-03-29T16:50:37.999Z</time></trkpt><trkpt lat="44.76744560347966" lon="8.805359011903274"><ele>199.0</ele><time>2026-03-29T16:50:38.999Z</time></trkpt><trkpt lat="44.76766965366738" lon="8.80518504822648"><ele>199.0</ele><time>2026-03-29T16:50:39.999Z</time></trkpt><trkpt lat="44.767892856700286" lon="8.804995151772735"><ele>197.5</ele><time>2026-03-29T16:50:40.999Z</time></trkpt><trkpt lat="44.76811431668549" lon="8.804796522328633"><ele>196.0</ele><time>2026-03-29T16:50:41.999Z</time></trkpt><trkpt lat="44.768335277983" lon="8.804603998336521"><ele>195.5</ele><time>2026-03-29T16:50:42.999Z</time></trkpt><trkpt lat="44.76855825821297" lon="8.80441638803689"><ele>195.0</ele><time>2026-03-29T16:50:43.999Z</time></trkpt><trkpt lat="44.768781830699375" lon="8.80422730672295"><ele>195.0</ele><time>2026-03-29T16:50:44.999Z</time></trkpt><trkpt lat="44.7690050654423" lon="8.804035110682918"><ele>195.0</ele><time>2026-03-29T16:50:45.999Z</time></trkpt><trkpt lat="44.76922940277521" lon="8.803839438863204"><ele>195.0</ele><time>2026-03-29T16:50:46.999Z</time></trkpt><trkpt lat="44.76945332800674" lon="8.803643929875681"><ele>195.0</ele><time>2026-03-29T16:50:47.999Z</time></trkpt><trkpt lat="44.76967755875389" lon="8.803450221859098"><ele>195.0</ele><time>2026-03-29T16:50:48.999Z</time></trkpt><trkpt lat="44.76990177422639" lon="8.803255294712"><ele>195.0</ele><time>2026-03-29T16:50:49.999Z</time></trkpt><trkpt lat="44.77012758444357" lon="8.803057389760902"><ele>195.0</ele><time>2026-03-29T16:50:50.999Z</time></trkpt><trkpt lat="44.77034521351816" lon="8.8028624027174"><ele>195.0</ele><time>2026-03-29T16:50:51.999Z</time></trkpt><trkpt lat="44.77055842462757" lon="8.802673854808953"><ele>194.5</ele><time>2026-03-29T16:50:52.999Z</time></trkpt><trkpt lat="44.77075922161748" lon="8.802499275579116"><ele>194.0</ele><time>2026-03-29T16:50:53.999Z</time></trkpt><trkpt lat="44.77095106951321" lon="8.802336631307385"><ele>193.66666666666669</ele><time>2026-03-29T16:50:54.999Z</time></trkpt><trkpt lat="44.77112779587496" lon="8.802187440602818"><ele>193.33333333333331</ele><time>2026-03-29T16:50:55.999Z</time></trkpt><trkpt lat="44.771292026262" lon="8.802046697471518"><ele>193.0</ele><time>2026-03-29T16:50:56.999Z</time></trkpt><trkpt lat="44.771447189960426" lon="8.801913164703855"><ele>192.66666666666666</ele><time>2026-03-29T16:50:57.999Z</time></trkpt><trkpt lat="44.77159319376826" lon="8.801786982908961"><ele>192.33333333333331</ele><time>2026-03-29T16:50:58.999Z</time></trkpt><trkpt lat="44.77173533359077" lon="8.801668268694398"><ele>192.0</ele><time>2026-03-29T16:50:59.999Z</time></trkpt><trkpt lat="44.771854684715564" lon="8.801565496890582"><ele>191.8</ele><time>2026-03-29T16:51:00.999Z</time></trkpt><trkpt lat="44.771960904212186" lon="8.801475903942451"><ele>191.6</ele><time>2026-03-29T16:51:01.999Z</time></trkpt><trkpt lat="44.77206067422267" lon="8.801407351354438"><ele>191.4</ele><time>2026-03-29T16:51:02.999Z</time></trkpt><trkpt lat="44.77216006674693" lon="8.801358813072445"><ele>191.20000000000002</ele><time>2026-03-29T16:51:03.999Z</time></trkpt><trkpt lat="44.7722639654093" lon="8.801351702563524"><ele>191.0</ele><time>2026-03-29T16:51:04.999Z</time></trkpt><trkpt lat="44.77235160896954" lon="8.801344332590393"><ele>191.0</ele><time>2026-03-29T16:51:05.999Z</time></trkpt><trkpt lat="44.77244540215437" lon="8.801296189708486"><ele>191.0</ele><time>2026-03-29T16:51:06.999Z</time></trkpt><trkpt lat="44.77252082985002" lon="8.801200512437207"><ele>191.0</ele><time>2026-03-29T16:51:07.999Z</time></trkpt><trkpt lat="44.77259241052715" lon="8.801062866152526"><ele>191.0</ele><time>2026-03-29T16:51:08.999Z</time></trkpt><trkpt lat="44.772671114191496" lon="8.800897105229273"><ele>191.0</ele><time>2026-03-29T16:51:09.999Z</time></trkpt><trkpt lat="44.77279233310024" lon="8.800753928014199"><ele>191.0</ele><time>2026-03-29T16:51:10.999Z</time></trkpt><trkpt lat="44.77294741362702" lon="8.800625824577265"><ele>191.0</ele><time>2026-03-29T16:51:11.999Z</time></trkpt><trkpt lat="44.77311414880302" lon="8.800494587640642"><ele>191.0</ele><time>2026-03-29T16:51:12.999Z</time></trkpt><trkpt lat="44.773288016375545" lon="8.800343341638689"><ele>191.0</ele><time>2026-03-29T16:51:13.999Z</time></trkpt><trkpt lat="44.77346065684162" lon="8.80018490633462"><ele>191.0</ele><time>2026-03-29T16:51:14.999Z</time></trkpt><trkpt lat="44.77364668049094" lon="8.800020584781846"><ele>189.66666666666666</ele><time>2026-03-29T16:51:15.999Z</time></trkpt><trkpt lat="44.773833390201126" lon="8.799856787896921"><ele>188.33333333333334</ele><time>2026-03-29T16:51:16.999Z</time></trkpt><trkpt lat="44.77401528768644" lon="8.799698219853651"><ele>187.0</ele><time>2026-03-29T16:51:17.999Z</time></trkpt><trkpt lat="44.77418440077387" lon="8.799546649662286"><ele>187.0</ele><time>2026-03-29T16:51:18.999Z</time></trkpt><trkpt lat="44.77434740821314" lon="8.799400773726536"><ele>187.0</ele><time>2026-03-29T16:51:19.999Z</time></trkpt><trkpt lat="44.77450585111625" lon="8.799263685456268"><ele>187.0</ele><time>2026-03-29T16:51:20.999Z</time></trkpt><trkpt lat="44.77466534330249" lon="8.79912569599057"><ele>186.66666666666669</ele><time>2026-03-29T16:51:21.999Z</time></trkpt><trkpt lat="44.774825677007414" lon="8.798989120554198"><ele>186.33333333333334</ele><time>2026-03-29T16:51:22.999Z</time></trkpt><trkpt lat="44.774979276433605" lon="8.798858984171599"><ele>186.0</ele><time>2026-03-29T16:51:23.999Z</time></trkpt><trkpt lat="44.77512690850785" lon="8.798733986261688"><ele>185.66666666666666</ele><time>2026-03-29T16:51:24.999Z</time></trkpt><trkpt lat="44.77527947161467" lon="8.79859640855687"><ele>185.33333333333331</ele><time>2026-03-29T16:51:25.999Z</time></trkpt><trkpt lat="44.77545500895688" lon="8.798472878587791"><ele>185.0</ele><time>2026-03-29T16:51:26.999Z</time></trkpt><trkpt lat="44.77563932660862" lon="8.798314391655454"><ele>185.0</ele><time>2026-03-29T16:51:27.999Z</time></trkpt><trkpt lat="44.77583942204248" lon="8.798140876798827"><ele>185.0</ele><time>2026-03-29T16:51:28.999Z</time></trkpt><trkpt lat="44.776058036157096" lon="8.79795063104069"><ele>185.5</ele><time>2026-03-29T16:51:29.999Z</time></trkpt><trkpt lat="44.77629734517457" lon="8.797742375642416"><ele>186.0</ele><time>2026-03-29T16:51:30.999Z</time></trkpt><trkpt lat="44.77655375187487" lon="8.797519241656241"><ele>186.0</ele><time>2026-03-29T16:51:31.999Z</time></trkpt><trkpt lat="44.776825066143985" lon="8.79728598677394"><ele>186.0</ele><time>2026-03-29T16:51:32.999Z</time></trkpt><trkpt lat="44.77708859918953" lon="8.797037843463348"><ele>185.5</ele><time>2026-03-29T16:51:33.999Z</time></trkpt><trkpt lat="44.77734765513798" lon="8.796815319702477"><ele>185.0</ele><time>2026-03-29T16:51:34.999Z</time></trkpt><trkpt lat="44.77759453845433" lon="8.796625014427631"><ele>184.0</ele><time>2026-03-29T16:51:35.999Z</time></trkpt><trkpt lat="44.777814013421704" lon="8.796407693278958"><ele>183.0</ele><time>2026-03-29T16:51:36.999Z</time></trkpt><trkpt lat="44.77803852009937" lon="8.796218817246784"><ele>183.0</ele><time>2026-03-29T16:51:37.999Z</time></trkpt><trkpt lat="44.77826130092566" lon="8.796026454809866"><ele>183.0</ele><time>2026-03-29T16:51:38.999Z</time></trkpt><trkpt lat="44.778484165375886" lon="8.795831564948884"><ele>183.0</ele><time>2026-03-29T16:51:39.999Z</time></trkpt><trkpt lat="44.77871065615245" lon="8.795635714196465"><ele>183.0</ele><time>2026-03-29T16:51:40.999Z</time></trkpt><trkpt lat="44.77893757729117" lon="8.795440927211397"><ele>183.0</ele><time>2026-03-29T16:51:41.999Z</time></trkpt><trkpt lat="44.77915986442771" lon="8.795253134699989"><ele>183.0</ele><time>2026-03-29T16:51:42.999Z</time></trkpt><trkpt lat="44.77938429324144" lon="8.795056825380533"><ele>182.5</ele><time>2026-03-29T16:51:43.998Z</time></trkpt><trkpt lat="44.77960860107931" lon="8.794862081211544"><ele>182.0</ele><time>2026-03-29T16:51:44.998Z</time></trkpt><trkpt lat="44.77983231022735" lon="8.794669701937236"><ele>182.0</ele><time>2026-03-29T16:51:45.998Z</time></trkpt><trkpt lat="44.780054314639465" lon="8.794479115548905"><ele>182.0</ele><time>2026-03-29T16:51:46.998Z</time></trkpt><trkpt lat="44.780276910493626" lon="8.794286833558843"><ele>182.0</ele><time>2026-03-29T16:51:47.998Z</time></trkpt><trkpt lat="44.780501922016605" lon="8.794090523296584"><ele>182.0</ele><time>2026-03-29T16:51:48.998Z</time></trkpt><trkpt lat="44.780729981363606" lon="8.793895841560747"><ele>182.0</ele><time>2026-03-29T16:51:49.998Z</time></trkpt><trkpt lat="44.78096067415085" lon="8.793699571516509"><ele>182.0</ele><time>2026-03-29T16:51:50.998Z</time></trkpt><trkpt lat="44.78119377691617" lon="8.793497120354239"><ele>180.5</ele><time>2026-03-29T16:51:51.998Z</time></trkpt><trkpt lat="44.78142697755639" lon="8.793293518754913"><ele>179.0</ele><time>2026-03-29T16:51:52.998Z</time></trkpt><trkpt lat="44.78165972079985" lon="8.793089981908548"><ele>179.0</ele><time>2026-03-29T16:51:53.998Z</time></trkpt><trkpt lat="44.781894051576714" lon="8.79288974212467"><ele>179.0</ele><time>2026-03-29T16:51:54.998Z</time></trkpt><trkpt lat="44.78212156575123" lon="8.79269423918633"><ele>178.5</ele><time>2026-03-29T16:51:55.998Z</time></trkpt><trkpt lat="44.7823472619224" lon="8.792501024349317"><ele>178.0</ele><time>2026-03-29T16:51:56.998Z</time></trkpt><trkpt lat="44.78256837543483" lon="8.792311838208946"><ele>178.5</ele><time>2026-03-29T16:51:57.998Z</time></trkpt><trkpt lat="44.78278757684414" lon="8.79212325044073"><ele>179.0</ele><time>2026-03-29T16:51:58.998Z</time></trkpt><trkpt lat="44.78300204488279" lon="8.791938761598583"><ele>179.0</ele><time>2026-03-29T16:51:59.998Z</time></trkpt><trkpt lat="44.78321730809894" lon="8.791752000016523"><ele>179.0</ele><time>2026-03-29T16:52:00.998Z</time></trkpt><trkpt lat="44.78342696184016" lon="8.791568163107428"><ele>178.5</ele><time>2026-03-29T16:52:01.998Z</time></trkpt><trkpt lat="44.783637051844835" lon="8.791385907112701"><ele>178.0</ele><time>2026-03-29T16:52:03Z</time></trkpt><trkpt lat="44.783844944699666" lon="8.791206773089739"><ele>178.0</ele><time>2026-03-29T16:52:04Z</time></trkpt><trkpt lat="44.78405002133526" lon="8.791027586773522"><ele>178.0</ele><time>2026-03-29T16:52:05Z</time></trkpt><trkpt lat="44.78425205500456" lon="8.790851689640132"><ele>178.5</ele><time>2026-03-29T16:52:06Z</time></trkpt><trkpt lat="44.784453640310055" lon="8.790675968686799"><ele>179.0</ele><time>2026-03-29T16:52:07Z</time></trkpt><trkpt lat="44.7846561429235" lon="8.790505105514926"><ele>179.0</ele><time>2026-03-29T16:52:08Z</time></trkpt><trkpt lat="44.78485321650523" lon="8.790339195251335"><ele>179.0</ele><time>2026-03-29T16:52:09Z</time></trkpt><trkpt lat="44.78504493786913" lon="8.790173975670818"><ele>178.0</ele><time>2026-03-29T16:52:10Z</time></trkpt><trkpt lat="44.785236688490336" lon="8.790011987856092"><ele>177.0</ele><time>2026-03-29T16:52:11Z</time></trkpt><trkpt lat="44.785427798131884" lon="8.789857294773258"><ele>176.0</ele><time>2026-03-29T16:52:12Z</time></trkpt><trkpt lat="44.785612627361274" lon="8.78971790661868"><ele>176.0</ele><time>2026-03-29T16:52:13Z</time></trkpt><trkpt lat="44.78579959058277" lon="8.789594325515862"><ele>176.0</ele><time>2026-03-29T16:52:14Z</time></trkpt><trkpt lat="44.78598436160737" lon="8.789482923276413"><ele>176.0</ele><time>2026-03-29T16:52:15Z</time></trkpt><trkpt lat="44.78617089537245" lon="8.78936729132914"><ele>176.0</ele><time>2026-03-29T16:52:16Z</time></trkpt><trkpt lat="44.78635095114642" lon="8.78923293023002"><ele>176.0</ele><time>2026-03-29T16:52:17Z</time></trkpt><trkpt lat="44.78652449468029" lon="8.789073667127758"><ele>176.0</ele><time>2026-03-29T16:52:18Z</time></trkpt><trkpt lat="44.786684263660085" lon="8.788897768142272"><ele>176.0</ele><time>2026-03-29T16:52:19Z</time></trkpt><trkpt lat="44.78683304040574" lon="8.78871156695757"><ele>176.0</ele><time>2026-03-29T16:52:20Z</time></trkpt><trkpt lat="44.786973963765085" lon="8.788534303612769"><ele>176.0</ele><time>2026-03-29T16:52:21Z</time></trkpt><trkpt lat="44.78711036884581" lon="8.78837187466238"><ele>176.33333333333331</ele><time>2026-03-29T16:52:22Z</time></trkpt><trkpt lat="44.787250852423135" lon="8.788226989787855"><ele>176.66666666666666</ele><time>2026-03-29T16:52:23Z</time></trkpt><trkpt lat="44.78738999250506" lon="8.788095346504814"><ele>177.0</ele><time>2026-03-29T16:52:24Z</time></trkpt><trkpt lat="44.78751886403081" lon="8.78797590318729"><ele>177.0</ele><time>2026-03-29T16:52:25Z</time></trkpt><trkpt lat="44.78764115890626" lon="8.787868865022512"><ele>177.0</ele><time>2026-03-29T16:52:26Z</time></trkpt><trkpt lat="44.78775299531305" lon="8.787776338960139"><ele>177.0</ele><time>2026-03-29T16:52:27Z</time></trkpt><trkpt lat="44.78785451882248" lon="8.787691743623743"><ele>177.0</ele><time>2026-03-29T16:52:28Z</time></trkpt><trkpt lat="44.78794345068047" lon="8.787613091588087"><ele>177.0</ele><time>2026-03-29T16:52:29Z</time></trkpt><trkpt lat="44.78802609575237" lon="8.787531504051575"><ele>177.0</ele><time>2026-03-29T16:52:30Z</time></trkpt><trkpt lat="44.78810377185362" lon="8.787454546545687"><ele>177.0</ele><time>2026-03-29T16:52:31Z</time></trkpt><trkpt lat="44.788176759270186" lon="8.787383353594135"><ele>177.0</ele><time>2026-03-29T16:52:32Z</time></trkpt><trkpt lat="44.788251741358366" lon="8.787317947547896"><ele>177.0</ele><time>2026-03-29T16:52:33Z</time></trkpt><trkpt lat="44.78832822916506" lon="8.787249619677521"><ele>177.0</ele><time>2026-03-29T16:52:34Z</time></trkpt><trkpt lat="44.78840743733431" lon="8.787174105764674"><ele>177.0</ele><time>2026-03-29T16:52:34.999Z</time></trkpt><trkpt lat="44.78848977635192" lon="8.78709651619747"><ele>177.0</ele><time>2026-03-29T16:52:35.999Z</time></trkpt><trkpt lat="44.78857573947632" lon="8.787015377116573"><ele>177.0</ele><time>2026-03-29T16:52:36.999Z</time></trkpt><trkpt lat="44.78865705285496" lon="8.786936029541362"><ele>177.0</ele><time>2026-03-29T16:52:37.999Z</time></trkpt><trkpt lat="44.78873848574238" lon="8.786851669204884"><ele>177.0</ele><time>2026-03-29T16:52:38.999Z</time></trkpt><trkpt lat="44.7888170093762" lon="8.786772594013406"><ele>177.0</ele><time>2026-03-29T16:52:39.999Z</time></trkpt><trkpt lat="44.788891450913496" lon="8.786696639572785"><ele>177.0</ele><time>2026-03-29T16:52:40.999Z</time></trkpt><trkpt lat="44.788961420293376" lon="8.78662627705837"><ele>177.0</ele><time>2026-03-29T16:52:41.999Z</time></trkpt><trkpt lat="44.78902890424344" lon="8.786566329182996"><ele>177.0</ele><time>2026-03-29T16:52:42.999Z</time></trkpt><trkpt lat="44.78909526338913" lon="8.786515283439071"><ele>177.0</ele><time>2026-03-29T16:52:43.999Z</time></trkpt><trkpt lat="44.78916463883969" lon="8.786471669947357"><ele>177.0</ele><time>2026-03-29T16:52:44.999Z</time></trkpt><trkpt lat="44.78923618039941" lon="8.786438743167416"><ele>177.0</ele><time>2026-03-29T16:52:45.999Z</time></trkpt><trkpt lat="44.789308481552716" lon="8.786407269836069"><ele>177.0</ele><time>2026-03-29T16:52:46.999Z</time></trkpt><trkpt lat="44.78936759375921" lon="8.786348059343327"><ele>177.0</ele><time>2026-03-29T16:52:47.999Z</time></trkpt><trkpt lat="44.78940300210165" lon="8.78627170982895"><ele>177.0</ele><time>2026-03-29T16:52:48.999Z</time></trkpt><trkpt lat="44.789409057072184" lon="8.786157550417222"><ele>177.0</ele><time>2026-03-29T16:52:49.999Z</time></trkpt><trkpt lat="44.789376994474566" lon="8.786029469431602"><ele>176.25</ele><time>2026-03-29T16:52:50.999Z</time></trkpt><trkpt lat="44.789347643714926" lon="8.785883618343668"><ele>175.5</ele><time>2026-03-29T16:52:51.999Z</time></trkpt><trkpt lat="44.78936084439329" lon="8.785717758267673"><ele>174.75</ele><time>2026-03-29T16:52:52.999Z</time></trkpt><trkpt lat="44.78940076530322" lon="8.785530237347897"><ele>174.0</ele><time>2026-03-29T16:52:53.999Z</time></trkpt><trkpt lat="44.789449275564444" lon="8.785325825212544"><ele>174.0</ele><time>2026-03-29T16:52:54.999Z</time></trkpt><trkpt lat="44.789494918585746" lon="8.785121275686292"><ele>174.0</ele><time>2026-03-29T16:52:55.999Z</time></trkpt><trkpt lat="44.78953934179003" lon="8.7849218886062"><ele>174.0</ele><time>2026-03-29T16:52:56.999Z</time></trkpt><trkpt lat="44.78959118334114" lon="8.784703707580393"><ele>174.0</ele><time>2026-03-29T16:52:57.999Z</time></trkpt><trkpt lat="44.789647179132956" lon="8.784479138515263"><ele>174.0</ele><time>2026-03-29T16:52:58.999Z</time></trkpt><trkpt lat="44.78970311068734" lon="8.784250077537116"><ele>174.0</ele><time>2026-03-29T16:52:59.999Z</time></trkpt><trkpt lat="44.78975785659383" lon="8.784016378939734"><ele>174.0</ele><time>2026-03-29T16:53:00.999Z</time></trkpt><trkpt lat="44.78981814946454" lon="8.783776573368458"><ele>174.0</ele><time>2026-03-29T16:53:01.999Z</time></trkpt><trkpt lat="44.78987534195999" lon="8.783533223691242"><ele>174.0</ele><time>2026-03-29T16:53:02.999Z</time></trkpt><trkpt lat="44.78992950389567" lon="8.783284280375488"><ele>173.66666666666666</ele><time>2026-03-29T16:53:03.999Z</time></trkpt><trkpt lat="44.78998996532579" lon="8.78303591524705"><ele>173.33333333333331</ele><time>2026-03-29T16:53:04.999Z</time></trkpt><trkpt lat="44.79005067412808" lon="8.782791872258201"><ele>173.0</ele><time>2026-03-29T16:53:05.999Z</time></trkpt><trkpt lat="44.79011130414483" lon="8.782549517072084"><ele>173.33333333333331</ele><time>2026-03-29T16:53:06.999Z</time></trkpt><trkpt lat="44.790172761705634" lon="8.782309558679007"><ele>173.66666666666666</ele><time>2026-03-29T16:53:07.999Z</time></trkpt><trkpt lat="44.79023308407678" lon="8.78206966309084"><ele>174.0</ele><time>2026-03-29T16:53:08.999Z</time></trkpt><trkpt lat="44.79029590618565" lon="8.78182866856175"><ele>174.0</ele><time>2026-03-29T16:53:09.999Z</time></trkpt><trkpt lat="44.79036044367378" lon="8.781588869558647"><ele>174.0</ele><time>2026-03-29T16:53:10.999Z</time></trkpt><trkpt lat="44.79041884263889" lon="8.78134605138495"><ele>174.0</ele><time>2026-03-29T16:53:11.999Z</time></trkpt><trkpt lat="44.79047590262946" lon="8.78110337574239"><ele>172.33333333333334</ele><time>2026-03-29T16:53:12.999Z</time></trkpt><trkpt lat="44.790532717624714" lon="8.780860228465938"><ele>170.66666666666669</ele><time>2026-03-29T16:53:13.999Z</time></trkpt><trkpt lat="44.79058940123873" lon="8.780619743198804"><ele>169.0</ele><time>2026-03-29T16:53:14.999Z</time></trkpt><trkpt lat="44.790647762906026" lon="8.780385150092545"><ele>169.0</ele><time>2026-03-29T16:53:15.999Z</time></trkpt><trkpt lat="44.79070513939273" lon="8.780158602145077"><ele>169.0</ele><time>2026-03-29T16:53:16.999Z</time></trkpt><trkpt lat="44.790760745158856" lon="8.779933461288124"><ele>169.0</ele><time>2026-03-29T16:53:17.999Z</time></trkpt><trkpt lat="44.79080996751835" lon="8.779717754497714"><ele>169.0</ele><time>2026-03-29T16:53:18.999Z</time></trkpt><trkpt lat="44.790857364026415" lon="8.779515303597393"><ele>169.0</ele><time>2026-03-29T16:53:19.999Z</time></trkpt><trkpt lat="44.79090426524573" lon="8.779316594482516"><ele>169.0</ele><time>2026-03-29T16:53:20.999Z</time></trkpt><trkpt lat="44.790952550789015" lon="8.779119437777004"><ele>169.0</ele><time>2026-03-29T16:53:21.999Z</time></trkpt><trkpt lat="44.791000534364635" lon="8.7789238610461"><ele>169.0</ele><time>2026-03-29T16:53:22.999Z</time></trkpt><trkpt lat="44.791047521613166" lon="8.778724588418145"><ele>169.0</ele><time>2026-03-29T16:53:23.999Z</time></trkpt><trkpt lat="44.79109182829948" lon="8.778523709240464"><ele>169.0</ele><time>2026-03-29T16:53:24.999Z</time></trkpt><trkpt lat="44.79113606528447" lon="8.778328738679754"><ele>169.0</ele><time>2026-03-29T16:53:25.999Z</time></trkpt><trkpt lat="44.79118723752779" lon="8.778143214798156"><ele>169.0</ele><time>2026-03-29T16:53:26.999Z</time></trkpt><trkpt lat="44.791233796413735" lon="8.777947236852885"><ele>169.0</ele><time>2026-03-29T16:53:27.999Z</time></trkpt><trkpt lat="44.79128115557179" lon="8.777756991957219"><ele>169.0</ele><time>2026-03-29T16:53:28.999Z</time></trkpt><trkpt lat="44.7913283354741" lon="8.777567792348567"><ele>169.0</ele><time>2026-03-29T16:53:29.999Z</time></trkpt><trkpt lat="44.791380343045404" lon="8.777384285935275"><ele>168.75</ele><time>2026-03-29T16:53:30.999Z</time></trkpt><trkpt lat="44.79144256477405" lon="8.777207311088238"><ele>168.5</ele><time>2026-03-29T16:53:31.999Z</time></trkpt><trkpt lat="44.79151766177297" lon="8.777053184011796"><ele>168.25</ele><time>2026-03-29T16:53:32.999Z</time></trkpt><trkpt lat="44.79161124884368" lon="8.776913580384486"><ele>168.0</ele><time>2026-03-29T16:53:33.999Z</time></trkpt><trkpt lat="44.79172358304332" lon="8.776794167399954"><ele>167.75</ele><time>2026-03-29T16:53:34.999Z</time></trkpt><trkpt lat="44.79184561037705" lon="8.776695489789125"><ele>167.5</ele><time>2026-03-29T16:53:35.999Z</time></trkpt><trkpt lat="44.79197661623256" lon="8.776621811171573"><ele>167.25</ele><time>2026-03-29T16:53:36.999Z</time></trkpt><trkpt lat="44.79211642006761" lon="8.776578212179047"><ele>167.0</ele><time>2026-03-29T16:53:37.999Z</time></trkpt><trkpt lat="44.79225767284181" lon="8.776559006708446"><ele>167.0</ele><time>2026-03-29T16:53:38.999Z</time></trkpt><trkpt lat="44.79239841683008" lon="8.776596810114288"><ele>167.0</ele><time>2026-03-29T16:53:39.999Z</time></trkpt><trkpt lat="44.792541798194925" lon="8.776616985393856"><ele>167.0</ele><time>2026-03-29T16:53:40.999Z</time></trkpt><trkpt lat="44.7926847974245" lon="8.776681753817522"><ele>167.0</ele><time>2026-03-29T16:53:41.999Z</time></trkpt><trkpt lat="44.7928303467247" lon="8.776745602232364"><ele>166.66666666666666</ele><time>2026-03-29T16:53:42.999Z</time></trkpt><trkpt lat="44.792977969975205" lon="8.77680674712202"><ele>166.33333333333334</ele><time>2026-03-29T16:53:43.999Z</time></trkpt><trkpt lat="44.79313091809546" lon="8.776864265138698"><ele>166.0</ele><time>2026-03-29T16:53:44.999Z</time></trkpt><trkpt lat="44.793291860307626" lon="8.776922291826494"><ele>166.0</ele><time>2026-03-29T16:53:45.999Z</time></trkpt><trkpt lat="44.79346101085996" lon="8.776988968521993"><ele>166.0</ele><time>2026-03-29T16:53:46.999Z</time></trkpt><trkpt lat="44.79364159127601" lon="8.777057297564577"><ele>166.0</ele><time>2026-03-29T16:53:47.999Z</time></trkpt><trkpt lat="44.79383383165838" lon="8.777122379053479"><ele>165.0</ele><time>2026-03-29T16:53:48.999Z</time></trkpt><trkpt lat="44.79402389155138" lon="8.777207288653926"><ele>164.0</ele><time>2026-03-29T16:53:49.999Z</time></trkpt><trkpt lat="44.794228611222174" lon="8.777266877942449"><ele>163.0</ele><time>2026-03-29T16:53:50.999Z</time></trkpt><trkpt lat="44.79443046001033" lon="8.777350408899103"><ele>162.66666666666669</ele><time>2026-03-29T16:53:51.999Z</time></trkpt><trkpt lat="44.79463019473721" lon="8.777425977704779"><ele>162.33333333333334</ele><time>2026-03-29T16:53:52.999Z</time></trkpt><trkpt lat="44.79481703253539" lon="8.777495175483375"><ele>162.0</ele><time>2026-03-29T16:53:53.999Z</time></trkpt><trkpt lat="44.794994234699836" lon="8.77756246275138"><ele>162.0</ele><time>2026-03-29T16:53:54.999Z</time></trkpt><trkpt lat="44.79516074320614" lon="8.777628370511117"><ele>162.0</ele><time>2026-03-29T16:53:55.998Z</time></trkpt><trkpt lat="44.795318556622476" lon="8.777691487645594"><ele>162.0</ele><time>2026-03-29T16:53:56.998Z</time></trkpt><trkpt lat="44.79547727656131" lon="8.777752378042564"><ele>163.0</ele><time>2026-03-29T16:53:57.998Z</time></trkpt><trkpt lat="44.79564782400154" lon="8.777814699011396"><ele>164.0</ele><time>2026-03-29T16:53:58.998Z</time></trkpt><trkpt lat="44.79582402425263" lon="8.777875990619417"><ele>165.0</ele><time>2026-03-29T16:53:59.998Z</time></trkpt><trkpt lat="44.7960008819348" lon="8.777945124238087"><ele>164.33333333333334</ele><time>2026-03-29T16:54:00.998Z</time></trkpt><trkpt lat="44.7961755010698" lon="8.778020910425564"><ele>163.66666666666669</ele><time>2026-03-29T16:54:01.998Z</time></trkpt><trkpt lat="44.79634145502633" lon="8.778092323082172"><ele>163.0</ele><time>2026-03-29T16:54:02.998Z</time></trkpt><trkpt lat="44.796502176034146" lon="8.778154697849383"><ele>163.0</ele><time>2026-03-29T16:54:03.998Z</time></trkpt><trkpt lat="44.79665481265736" lon="8.77821525764823"><ele>163.0</ele><time>2026-03-29T16:54:04.998Z</time></trkpt><trkpt lat="44.796804364258655" lon="8.778272753322216"><ele>163.0</ele><time>2026-03-29T16:54:05.998Z</time></trkpt><trkpt lat="44.79694792448252" lon="8.778329020347652"><ele>162.5</ele><time>2026-03-29T16:54:06.998Z</time></trkpt><trkpt lat="44.79708310950309" lon="8.778380248188524"><ele>162.0</ele><time>2026-03-29T16:54:07.998Z</time></trkpt><trkpt lat="44.79721606843812" lon="8.778431300504685"><ele>161.5</ele><time>2026-03-29T16:54:09Z</time></trkpt><trkpt lat="44.79735132191383" lon="8.778484699435873"><ele>161.0</ele><time>2026-03-29T16:54:10Z</time></trkpt><trkpt lat="44.79748735256417" lon="8.778536623738047"><ele>161.0</ele><time>2026-03-29T16:54:11Z</time></trkpt><trkpt lat="44.797623196688356" lon="8.778582455024933"><ele>161.0</ele><time>2026-03-29T16:54:12Z</time></trkpt><trkpt lat="44.79776480033376" lon="8.7786153750281"><ele>161.0</ele><time>2026-03-29T16:54:13Z</time></trkpt><trkpt lat="44.79790621176987" lon="8.778630501324034"><ele>161.0</ele><time>2026-03-29T16:54:14Z</time></trkpt><trkpt lat="44.79804910911968" lon="8.778625068553442"><ele>160.5</ele><time>2026-03-29T16:54:15Z</time></trkpt><trkpt lat="44.798189647994135" lon="8.778607641692728"><ele>160.0</ele><time>2026-03-29T16:54:16Z</time></trkpt><trkpt lat="44.7983263664495" lon="8.778573916816695"><ele>159.5</ele><time>2026-03-29T16:54:17Z</time></trkpt><trkpt lat="44.79846156546847" lon="8.7785296340131"><ele>159.0</ele><time>2026-03-29T16:54:18Z</time></trkpt><trkpt lat="44.79859871827651" lon="8.778473779651758"><ele>158.66666666666666</ele><time>2026-03-29T16:54:19Z</time></trkpt><trkpt lat="44.79874900154114" lon="8.77841296819282"><ele>158.33333333333331</ele><time>2026-03-29T16:54:20Z</time></trkpt><trkpt lat="44.79891050901505" lon="8.77829181000244"><ele>158.0</ele><time>2026-03-29T16:54:21Z</time></trkpt><trkpt lat="44.79907303082264" lon="8.7781423419005"><ele>158.0</ele><time>2026-03-29T16:54:22Z</time></trkpt><trkpt lat="44.7992431677685" lon="8.777959102440505"><ele>158.0</ele><time>2026-03-29T16:54:23Z</time></trkpt><trkpt lat="44.79942767686453" lon="8.777750053859561"><ele>158.0</ele><time>2026-03-29T16:54:24Z</time></trkpt><trkpt lat="44.79962007586433" lon="8.77752506015743"><ele>158.0</ele><time>2026-03-29T16:54:25Z</time></trkpt><trkpt lat="44.79982035118053" lon="8.77728965330513"><ele>158.0</ele><time>2026-03-29T16:54:26Z</time></trkpt><trkpt lat="44.80001894237191" lon="8.7770562245658"><ele>158.0</ele><time>2026-03-29T16:54:27Z</time></trkpt><trkpt lat="44.800222805923255" lon="8.776816364829411"><ele>156.5</ele><time>2026-03-29T16:54:28Z</time></trkpt><trkpt lat="44.80043628200302" lon="8.776566305067464"><ele>155.0</ele><time>2026-03-29T16:54:29Z</time></trkpt><trkpt lat="44.80065690352849" lon="8.776308383173902"><ele>155.0</ele><time>2026-03-29T16:54:30Z</time></trkpt><trkpt lat="44.80088408427557" lon="8.776043826999059"><ele>155.0</ele><time>2026-03-29T16:54:31Z</time></trkpt><trkpt lat="44.80111474659685" lon="8.7757758646801"><ele>155.5</ele><time>2026-03-29T16:54:32Z</time></trkpt><trkpt lat="44.80134226017344" lon="8.775511913291957"><ele>156.0</ele><time>2026-03-29T16:54:33Z</time></trkpt><trkpt lat="44.80157362355054" lon="8.775239801104469"><ele>155.5</ele><time>2026-03-29T16:54:34Z</time></trkpt><trkpt lat="44.801798202535636" lon="8.774945183821979"><ele>155.0</ele><time>2026-03-29T16:54:35Z</time></trkpt><trkpt lat="44.80203808333944" lon="8.774663009377994"><ele>155.0</ele><time>2026-03-29T16:54:36Z</time></trkpt><trkpt lat="44.80228035882964" lon="8.77437906382584"><ele>155.0</ele><time>2026-03-29T16:54:37Z</time></trkpt><trkpt lat="44.80252322001446" lon="8.774089703640314"><ele>155.0</ele><time>2026-03-29T16:54:38Z</time></trkpt><trkpt lat="44.802770184690196" lon="8.773796623232721"><ele>155.0</ele><time>2026-03-29T16:54:39Z</time></trkpt><trkpt lat="44.80301810526996" lon="8.773505228612056"><ele>155.0</ele><time>2026-03-29T16:54:40Z</time></trkpt><trkpt lat="44.803266802274976" lon="8.773209933871"><ele>155.0</ele><time>2026-03-29T16:54:40.999Z</time></trkpt><trkpt lat="44.803514502723296" lon="8.772913922988328"><ele>154.5</ele><time>2026-03-29T16:54:41.999Z</time></trkpt><trkpt lat="44.80376344246983" lon="8.77261751415366"><ele>154.0</ele><time>2026-03-29T16:54:42.999Z</time></trkpt><trkpt lat="44.804014523088426" lon="8.772320801142397"><ele>154.0</ele><time>2026-03-29T16:54:43.999Z</time></trkpt><trkpt lat="44.80426521943999" lon="8.77202467027531"><ele>154.0</ele><time>2026-03-29T16:54:44.999Z</time></trkpt><trkpt lat="44.80451554666589" lon="8.77172855342468"><ele>152.0</ele><time>2026-03-29T16:54:45.999Z</time></trkpt><trkpt lat="44.804776719758586" lon="8.771450491333336"><ele>150.0</ele><time>2026-03-29T16:54:46.999Z</time></trkpt><trkpt lat="44.80502709830829" lon="8.771155560446008"><ele>150.5</ele><time>2026-03-29T16:54:47.999Z</time></trkpt><trkpt lat="44.80526736346345" lon="8.770843898862738"><ele>151.0</ele><time>2026-03-29T16:54:48.999Z</time></trkpt><trkpt lat="44.80551918278167" lon="8.770553635163177"><ele>151.0</ele><time>2026-03-29T16:54:49.999Z</time></trkpt><trkpt lat="44.80577126546434" lon="8.770263847855317"><ele>151.0</ele><time>2026-03-29T16:54:50.999Z</time></trkpt><trkpt lat="44.8060207440572" lon="8.769972707398464"><ele>150.5</ele><time>2026-03-29T16:54:51.999Z</time></trkpt><trkpt lat="44.80626905147957" lon="8.769681206834118"><ele>150.0</ele><time>2026-03-29T16:54:52.999Z</time></trkpt><trkpt lat="44.806516506888435" lon="8.769389919792774"><ele>150.0</ele><time>2026-03-29T16:54:53.999Z</time></trkpt><trkpt lat="44.80676474040056" lon="8.76909728625028"><ele>150.0</ele><time>2026-03-29T16:54:54.999Z</time></trkpt><trkpt lat="44.80701239776484" lon="8.768808259034392"><ele>149.5</ele><time>2026-03-29T16:54:55.999Z</time></trkpt><trkpt lat="44.807259865585785" lon="8.768516241572474"><ele>149.0</ele><time>2026-03-29T16:54:56.999Z</time></trkpt><trkpt lat="44.80750757201784" lon="8.768226534490855"><ele>149.0</ele><time>2026-03-29T16:54:57.999Z</time></trkpt><trkpt lat="44.807752739520005" lon="8.767940097882633"><ele>149.0</ele><time>2026-03-29T16:54:58.999Z</time></trkpt><trkpt lat="44.80799568767593" lon="8.767653114707437"><ele>149.5</ele><time>2026-03-29T16:54:59.999Z</time></trkpt><trkpt lat="44.808236839764994" lon="8.76736711271533"><ele>150.0</ele><time>2026-03-29T16:55:00.999Z</time></trkpt><trkpt lat="44.8084770452203" lon="8.76708201288723"><ele>150.0</ele><time>2026-03-29T16:55:01.999Z</time></trkpt><trkpt lat="44.80871512987003" lon="8.766798176537844"><ele>150.0</ele><time>2026-03-29T16:55:02.999Z</time></trkpt><trkpt lat="44.8089536534728" lon="8.766515859656076"><ele>150.0</ele><time>2026-03-29T16:55:03.999Z</time></trkpt><trkpt lat="44.8091925476517" lon="8.766234582732636"><ele>150.0</ele><time>2026-03-29T16:55:04.999Z</time></trkpt><trkpt lat="44.8094226076052" lon="8.765964519685912"><ele>149.5</ele><time>2026-03-29T16:55:05.999Z</time></trkpt><trkpt lat="44.80964645951638" lon="8.765700345872771"><ele>149.0</ele><time>2026-03-29T16:55:06.999Z</time></trkpt><trkpt lat="44.80986654368868" lon="8.765440346444512"><ele>148.5</ele><time>2026-03-29T16:55:07.999Z</time></trkpt><trkpt lat="44.81008228163278" lon="8.765182044849325"><ele>148.0</ele><time>2026-03-29T16:55:08.999Z</time></trkpt><trkpt lat="44.81029541662386" lon="8.764931517198177"><ele>147.5</ele><time>2026-03-29T16:55:09.999Z</time></trkpt><trkpt lat="44.81050022973904" lon="8.76469144864083"><ele>147.0</ele><time>2026-03-29T16:55:10.999Z</time></trkpt><trkpt lat="44.81069687930941" lon="8.764463813343513"><ele>148.0</ele><time>2026-03-29T16:55:11.999Z</time></trkpt><trkpt lat="44.81088723061791" lon="8.764239965604073"><ele>149.0</ele><time>2026-03-29T16:55:12.999Z</time></trkpt><trkpt lat="44.81107666891125" lon="8.764017838582898"><ele>149.0</ele><time>2026-03-29T16:55:13.999Z</time></trkpt><trkpt lat="44.811263256216705" lon="8.763798483181013"><ele>149.0</ele><time>2026-03-29T16:55:14.999Z</time></trkpt><trkpt lat="44.81144800698404" lon="8.763580353811497"><ele>148.5</ele><time>2026-03-29T16:55:15.999Z</time></trkpt><trkpt lat="44.81163500187326" lon="8.763357884867174"><ele>148.0</ele><time>2026-03-29T16:55:16.999Z</time></trkpt><trkpt lat="44.81182416752608" lon="8.763135717486257"><ele>148.0</ele><time>2026-03-29T16:55:17.999Z</time></trkpt><trkpt lat="44.81201218140455" lon="8.762910500760873"><ele>148.0</ele><time>2026-03-29T16:55:18.999Z</time></trkpt><trkpt lat="44.812202256730046" lon="8.762688731132762"><ele>147.0</ele><time>2026-03-29T16:55:19.999Z</time></trkpt><trkpt lat="44.81238984855124" lon="8.762466088209404"><ele>146.0</ele><time>2026-03-29T16:55:20.999Z</time></trkpt><trkpt lat="44.812577994585126" lon="8.76224360995039"><ele>145.5</ele><time>2026-03-29T16:55:21.999Z</time></trkpt><trkpt lat="44.81277083409477" lon="8.762021209149646"><ele>145.0</ele><time>2026-03-29T16:55:22.999Z</time></trkpt><trkpt lat="44.812963281162965" lon="8.761797580079747"><ele>145.0</ele><time>2026-03-29T16:55:23.999Z</time></trkpt><trkpt lat="44.81315305628351" lon="8.76157308252936"><ele>145.0</ele><time>2026-03-29T16:55:24.999Z</time></trkpt><trkpt lat="44.813342050174185" lon="8.761348944621593"><ele>144.5</ele><time>2026-03-29T16:55:25.999Z</time></trkpt><trkpt lat="44.81353037072419" lon="8.76112736730405"><ele>144.0</ele><time>2026-03-29T16:55:26.999Z</time></trkpt><trkpt lat="44.813718722942454" lon="8.760907632176389"><ele>143.0</ele><time>2026-03-29T16:55:27.999Z</time></trkpt><trkpt lat="44.813905178465895" lon="8.760689565331404"><ele>142.0</ele><time>2026-03-29T16:55:28.999Z</time></trkpt><trkpt lat="44.81409121055152" lon="8.760471110416251"><ele>142.0</ele><time>2026-03-29T16:55:29.999Z</time></trkpt><trkpt lat="44.81427580636452" lon="8.760252886021712"><ele>142.0</ele><time>2026-03-29T16:55:30.999Z</time></trkpt><trkpt lat="44.81446014202619" lon="8.760034925922204"><ele>141.5</ele><time>2026-03-29T16:55:31.999Z</time></trkpt><trkpt lat="44.814646079478266" lon="8.759820404548218"><ele>141.0</ele><time>2026-03-29T16:55:32.999Z</time></trkpt><trkpt lat="44.81483229394046" lon="8.759605145024127"><ele>141.0</ele><time>2026-03-29T16:55:33.999Z</time></trkpt><trkpt lat="44.81501595708501" lon="8.759391743099204"><ele>141.0</ele><time>2026-03-29T16:55:34.999Z</time></trkpt><trkpt lat="44.81519884421199" lon="8.759176532681499"><ele>141.0</ele><time>2026-03-29T16:55:35.999Z</time></trkpt><trkpt lat="44.8153807156499" lon="8.758960469120698"><ele>141.0</ele><time>2026-03-29T16:55:36.999Z</time></trkpt><trkpt lat="44.815563744354606" lon="8.758742835046819"><ele>142.5</ele><time>2026-03-29T16:55:37.999Z</time></trkpt><trkpt lat="44.815746267762755" lon="8.758526082439849"><ele>144.0</ele><time>2026-03-29T16:55:38.999Z</time></trkpt><trkpt lat="44.815928380461024" lon="8.75831139866494"><ele>143.5</ele><time>2026-03-29T16:55:39.999Z</time></trkpt><trkpt lat="44.816110665501334" lon="8.758097078177666"><ele>143.0</ele><time>2026-03-29T16:55:40.999Z</time></trkpt><trkpt lat="44.81629390066356" lon="8.75788388788956"><ele>143.5</ele><time>2026-03-29T16:55:41.999Z</time></trkpt><trkpt lat="44.81647604469151" lon="8.75767462436352"><ele>144.0</ele><time>2026-03-29T16:55:42.999Z</time></trkpt><trkpt lat="44.816659765260496" lon="8.757459206740975"><ele>143.5</ele><time>2026-03-29T16:55:43.999Z</time></trkpt><trkpt lat="44.81683859914944" lon="8.757244707071855"><ele>143.0</ele><time>2026-03-29T16:55:44.999Z</time></trkpt><trkpt lat="44.81701605420381" lon="8.757034644613787"><ele>143.5</ele><time>2026-03-29T16:55:45.999Z</time></trkpt><trkpt lat="44.81719379279425" lon="8.75682462713888"><ele>144.0</ele><time>2026-03-29T16:55:46.999Z</time></trkpt><trkpt lat="44.81737071081351" lon="8.756617010884446"><ele>144.0</ele><time>2026-03-29T16:55:47.999Z</time></trkpt><trkpt lat="44.81754764266167" lon="8.756409609982878"><ele>144.0</ele><time>2026-03-29T16:55:48.999Z</time></trkpt><trkpt lat="44.81772463624372" lon="8.756202549072379"><ele>142.5</ele><time>2026-03-29T16:55:49.999Z</time></trkpt><trkpt lat="44.817902067388914" lon="8.755994210641767"><ele>141.0</ele><time>2026-03-29T16:55:50.999Z</time></trkpt><trkpt lat="44.81808071139767" lon="8.755782622601226"><ele>141.0</ele><time>2026-03-29T16:55:51.999Z</time></trkpt><trkpt lat="44.818259311891644" lon="8.755570331610162"><ele>141.0</ele><time>2026-03-29T16:55:52.999Z</time></trkpt><trkpt lat="44.81843920808496" lon="8.755356896086061"><ele>140.0</ele><time>2026-03-29T16:55:53.999Z</time></trkpt><trkpt lat="44.81861940540313" lon="8.75514280294327"><ele>139.0</ele><time>2026-03-29T16:55:54.999Z</time></trkpt><trkpt lat="44.8187995536817" lon="8.754931883315898"><ele>139.0</ele><time>2026-03-29T16:55:55.999Z</time></trkpt><trkpt lat="44.81898250263754" lon="8.754718211283251"><ele>139.0</ele><time>2026-03-29T16:55:56.999Z</time></trkpt><trkpt lat="44.819164771385076" lon="8.75450000009366"><ele>139.5</ele><time>2026-03-29T16:55:57.999Z</time></trkpt><trkpt lat="44.81934685455635" lon="8.75428740331638"><ele>140.0</ele><time>2026-03-29T16:55:58.999Z</time></trkpt><trkpt lat="44.81952888232074" lon="8.754071880169185"><ele>140.0</ele><time>2026-03-29T16:55:59.999Z</time></trkpt><trkpt lat="44.819712614653554" lon="8.753854522493802"><ele>140.0</ele><time>2026-03-29T16:56:00.998Z</time></trkpt><trkpt lat="44.81989639055833" lon="8.75363812435665"><ele>140.0</ele><time>2026-03-29T16:56:01.998Z</time></trkpt><trkpt lat="44.82008116042084" lon="8.753419861274429"><ele>140.0</ele><time>2026-03-29T16:56:02.998Z</time></trkpt><trkpt lat="44.8202661531947" lon="8.753201602448353"><ele>140.0</ele><time>2026-03-29T16:56:03.998Z</time></trkpt><trkpt lat="44.82045033622158" lon="8.75298180626056"><ele>140.0</ele><time>2026-03-29T16:56:04.998Z</time></trkpt><trkpt lat="44.8206344676345" lon="8.752762322061463"><ele>139.0</ele><time>2026-03-29T16:56:05.998Z</time></trkpt><trkpt lat="44.820817316306126" lon="8.752545160322642"><ele>138.0</ele><time>2026-03-29T16:56:06.998Z</time></trkpt><trkpt lat="44.82099926250252" lon="8.752328773073815"><ele>138.0</ele><time>2026-03-29T16:56:07.998Z</time></trkpt><trkpt lat="44.821180248888645" lon="8.752113538541549"><ele>138.0</ele><time>2026-03-29T16:56:08.998Z</time></trkpt><trkpt lat="44.82136978580883" lon="8.751920745033429"><ele>137.5</ele><time>2026-03-29T16:56:09.998Z</time></trkpt><trkpt lat="44.821546504081326" lon="8.751711323893911"><ele>137.0</ele><time>2026-03-29T16:56:10.998Z</time></trkpt><trkpt lat="44.821724114519085" lon="8.751500752132122"><ele>137.5</ele><time>2026-03-29T16:56:11.998Z</time></trkpt><trkpt lat="44.82190211116525" lon="8.751289722486206"><ele>138.0</ele><time>2026-03-29T16:56:12.998Z</time></trkpt><trkpt lat="44.822068688762805" lon="8.751063192619439"><ele>137.66666666666666</ele><time>2026-03-29T16:56:13.998Z</time></trkpt><trkpt lat="44.82224600177452" lon="8.750861633645528"><ele>137.33333333333331</ele><time>2026-03-29T16:56:15Z</time></trkpt><trkpt lat="44.822417913420566" lon="8.75066889638812"><ele>137.0</ele><time>2026-03-29T16:56:16Z</time></trkpt><trkpt lat="44.822585025054224" lon="8.750468829268558"><ele>137.0</ele><time>2026-03-29T16:56:17Z</time></trkpt><trkpt lat="44.82275334382988" lon="8.750261510932264"><ele>137.0</ele><time>2026-03-29T16:56:18Z</time></trkpt><trkpt lat="44.82293283761657" lon="8.750076157817778"><ele>137.0</ele><time>2026-03-29T16:56:19Z</time></trkpt><trkpt lat="44.82310359698515" lon="8.7498762483253"><ele>137.0</ele><time>2026-03-29T16:56:20Z</time></trkpt><trkpt lat="44.82327242930128" lon="8.749679023772282"><ele>137.0</ele><time>2026-03-29T16:56:21Z</time></trkpt><trkpt lat="44.82344121525966" lon="8.749479949064838"><ele>137.0</ele><time>2026-03-29T16:56:22Z</time></trkpt><trkpt lat="44.82361804858193" lon="8.749271272366983"><ele>136.5</ele><time>2026-03-29T16:56:23Z</time></trkpt><trkpt lat="44.82380146610098" lon="8.749053793846965"><ele>136.0</ele><time>2026-03-29T16:56:24Z</time></trkpt><trkpt lat="44.823986537794646" lon="8.748834353936076"><ele>136.0</ele><time>2026-03-29T16:56:25Z</time></trkpt><trkpt lat="44.82416802724168" lon="8.748619529326419"><ele>136.0</ele><time>2026-03-29T16:56:26Z</time></trkpt><trkpt lat="44.82432466269157" lon="8.748434255386014"><ele>136.0</ele><time>2026-03-29T16:56:27Z</time></trkpt><trkpt lat="44.82448960034415" lon="8.748239161310787"><ele>136.0</ele><time>2026-03-29T16:56:28Z</time></trkpt><trkpt lat="44.82465981794557" lon="8.748037821929799"><ele>136.0</ele><time>2026-03-29T16:56:29Z</time></trkpt><trkpt lat="44.82481263187096" lon="8.747857572122918"><ele>136.0</ele><time>2026-03-29T16:56:30Z</time></trkpt><trkpt lat="44.82496031265689" lon="8.747683684899565"><ele>136.0</ele><time>2026-03-29T16:56:31Z</time></trkpt><trkpt lat="44.825101531617996" lon="8.747517406173454"><ele>136.0</ele><time>2026-03-29T16:56:32Z</time></trkpt><trkpt lat="44.82523922009432" lon="8.747355284427506"><ele>136.0</ele><time>2026-03-29T16:56:33Z</time></trkpt><trkpt lat="44.82536696232033" lon="8.747204873926307"><ele>135.33333333333334</ele><time>2026-03-29T16:56:34Z</time></trkpt><trkpt lat="44.82548875937278" lon="8.747061463605897"><ele>134.66666666666666</ele><time>2026-03-29T16:56:35Z</time></trkpt><trkpt lat="44.82559569625606" lon="8.746919990880238"><ele>134.0</ele><time>2026-03-29T16:56:36Z</time></trkpt><trkpt lat="44.82573190645927" lon="8.746816997307425"><ele>134.33333333333331</ele><time>2026-03-29T16:56:37Z</time></trkpt><trkpt lat="44.825860804022554" lon="8.746712270929574"><ele>134.66666666666666</ele><time>2026-03-29T16:56:38Z</time></trkpt><trkpt lat="44.82597502890048" lon="8.746488903943614"><ele>135.0</ele><time>2026-03-29T16:56:39Z</time></trkpt><trkpt lat="44.82610068252367" lon="8.746340952675022"><ele>135.0</ele><time>2026-03-29T16:56:40Z</time></trkpt><trkpt lat="44.8262324132922" lon="8.746185845852086"><ele>135.0</ele><time>2026-03-29T16:56:41Z</time></trkpt><trkpt lat="44.82636690939267" lon="8.746027482979608"><ele>135.0</ele><time>2026-03-29T16:56:42Z</time></trkpt><trkpt lat="44.826504407566745" lon="8.745865729600906"><ele>135.0</ele><time>2026-03-29T16:56:43Z</time></trkpt><trkpt lat="44.82663590064377" lon="8.745711645833632"><ele>135.0</ele><time>2026-03-29T16:56:44Z</time></trkpt><trkpt lat="44.826749010913325" lon="8.745579103062923"><ele>135.0</ele><time>2026-03-29T16:56:45Z</time></trkpt><trkpt lat="44.82683037279091" lon="8.745484864519156"><ele>135.0</ele><time>2026-03-29T16:56:46Z</time></trkpt><trkpt lat="44.82691623772743" lon="8.745363708821682"><ele>135.0</ele><time>2026-03-29T16:57:25.999Z</time></trkpt><trkpt lat="44.82702078999866" lon="8.74524996430489"><ele>135.0</ele><time>2026-03-29T16:57:26.999Z</time></trkpt><trkpt lat="44.827153340197334" lon="8.745105179381753"><ele>135.0</ele><time>2026-03-29T16:57:27.999Z</time></trkpt><trkpt lat="44.82731612929226" lon="8.744933996980036"><ele>135.0</ele><time>2026-03-29T16:57:28.999Z</time></trkpt><trkpt lat="44.82750074774607" lon="8.744740821541786"><ele>135.0</ele><time>2026-03-29T16:57:29.999Z</time></trkpt><trkpt lat="44.827687006484084" lon="8.744541272233034"><ele>134.5</ele><time>2026-03-29T16:57:30.999Z</time></trkpt><trkpt lat="44.82790212280425" lon="8.744305957525272"><ele>134.0</ele><time>2026-03-29T16:57:31.999Z</time></trkpt><trkpt lat="44.828131733135194" lon="8.74405211463661"><ele>134.0</ele><time>2026-03-29T16:57:32.999Z</time></trkpt><trkpt lat="44.8283757485716" lon="8.743785425858846"><ele>134.0</ele><time>2026-03-29T16:57:33.999Z</time></trkpt><trkpt lat="44.82862861418564" lon="8.743509600538811"><ele>133.5</ele><time>2026-03-29T16:57:34.999Z</time></trkpt><trkpt lat="44.82889605325578" lon="8.743218499784087"><ele>133.0</ele><time>2026-03-29T16:57:35.999Z</time></trkpt><trkpt lat="44.829172063280936" lon="8.742920779253112"><ele>131.5</ele><time>2026-03-29T16:57:36.999Z</time></trkpt><trkpt lat="44.82945764210663" lon="8.742615251823493"><ele>130.0</ele><time>2026-03-29T16:57:37.999Z</time></trkpt><trkpt lat="44.82974150405955" lon="8.742304539923358"><ele>130.0</ele><time>2026-03-29T16:57:38.999Z</time></trkpt><trkpt lat="44.8300199756296" lon="8.742001316205675"><ele>130.0</ele><time>2026-03-29T16:57:39.999Z</time></trkpt><trkpt lat="44.83028843247613" lon="8.741709478835672"><ele>130.5</ele><time>2026-03-29T16:57:40.999Z</time></trkpt><trkpt lat="44.8305531153221" lon="8.741426914465283"><ele>131.0</ele><time>2026-03-29T16:57:41.999Z</time></trkpt><trkpt lat="44.830814185047196" lon="8.741144919279977"><ele>130.5</ele><time>2026-03-29T16:57:42.999Z</time></trkpt><trkpt lat="44.83107519643147" lon="8.74086116614543"><ele>130.0</ele><time>2026-03-29T16:57:43.999Z</time></trkpt><trkpt lat="44.8313359785226" lon="8.74057926288722"><ele>130.0</ele><time>2026-03-29T16:57:44.999Z</time></trkpt><trkpt lat="44.8315964042384" lon="8.740297562175572"><ele>130.0</ele><time>2026-03-29T16:57:45.999Z</time></trkpt><trkpt lat="44.83185631551201" lon="8.740015380471856"><ele>129.5</ele><time>2026-03-29T16:57:46.999Z</time></trkpt><trkpt lat="44.832115788994514" lon="8.73973129614454"><ele>129.0</ele><time>2026-03-29T16:57:47.999Z</time></trkpt><trkpt lat="44.83238047261774" lon="8.739447289610965"><ele>129.0</ele><time>2026-03-29T16:57:48.999Z</time></trkpt><trkpt lat="44.83264430817978" lon="8.739157547813681"><ele>129.0</ele><time>2026-03-29T16:57:49.999Z</time></trkpt><trkpt lat="44.832910434184036" lon="8.738868146782417"><ele>129.0</ele><time>2026-03-29T16:57:50.999Z</time></trkpt><trkpt lat="44.83317859799953" lon="8.738575763381277"><ele>129.0</ele><time>2026-03-29T16:57:51.999Z</time></trkpt><trkpt lat="44.83344938278743" lon="8.738280220438346"><ele>129.0</ele><time>2026-03-29T16:57:52.999Z</time></trkpt><trkpt lat="44.83372186288777" lon="8.737985685967729"><ele>129.0</ele><time>2026-03-29T16:57:53.999Z</time></trkpt><trkpt lat="44.83399867814102" lon="8.737689787450138"><ele>129.0</ele><time>2026-03-29T16:57:54.999Z</time></trkpt><trkpt lat="44.83427343799857" lon="8.737393156530786"><ele>129.0</ele><time>2026-03-29T16:57:55.999Z</time></trkpt><trkpt lat="44.83454433928194" lon="8.737097264176985"><ele>129.0</ele><time>2026-03-29T16:57:56.999Z</time></trkpt><trkpt lat="44.834811453257416" lon="8.736804557602808"><ele>129.0</ele><time>2026-03-29T16:57:57.999Z</time></trkpt><trkpt lat="44.83507263019998" lon="8.73651806025447"><ele>128.5</ele><time>2026-03-29T16:57:58.999Z</time></trkpt><trkpt lat="44.83531809688009" lon="8.73624869004064"><ele>128.0</ele><time>2026-03-29T16:57:59.999Z</time></trkpt><trkpt lat="44.83554885704463" lon="8.735997686105229"><ele>128.0</ele><time>2026-03-29T16:58:00.999Z</time></trkpt><trkpt lat="44.83576694720746" lon="8.735763062864491"><ele>128.0</ele><time>2026-03-29T16:58:01.999Z</time></trkpt><trkpt lat="44.83597804589592" lon="8.735532567573072"><ele>127.5</ele><time>2026-03-29T16:58:02.999Z</time></trkpt><trkpt lat="44.83618715641104" lon="8.73530176211363"><ele>127.0</ele><time>2026-03-29T16:58:03.999Z</time></trkpt><trkpt lat="44.836394034650446" lon="8.735071497736797"><ele>127.0</ele><time>2026-03-29T16:58:04.999Z</time></trkpt><trkpt lat="44.83659820090532" lon="8.73484691648454"><ele>127.0</ele><time>2026-03-29T16:58:05.999Z</time></trkpt><trkpt lat="44.83679078515024" lon="8.734637802678568"><ele>127.33333333333334</ele><time>2026-03-29T16:58:06.999Z</time></trkpt><trkpt lat="44.836970651032075" lon="8.73444297694841"><ele>127.66666666666666</ele><time>2026-03-29T16:58:07.998Z</time></trkpt><trkpt lat="44.837129258732375" lon="8.734273379496555"><ele>128.0</ele><time>2026-03-29T16:58:08.998Z</time></trkpt><trkpt lat="44.837267612796225" lon="8.734123072050181"><ele>128.0</ele><time>2026-03-29T16:58:09.998Z</time></trkpt><trkpt lat="44.8373965141309" lon="8.733980838744609"><ele>128.0</ele><time>2026-03-29T16:58:10.998Z</time></trkpt><trkpt lat="44.837511368525526" lon="8.733853117062859"><ele>128.0</ele><time>2026-03-29T16:58:11.998Z</time></trkpt><trkpt lat="44.83761411428215" lon="8.733744790492542"><ele>128.0</ele><time>2026-03-29T16:58:12.998Z</time></trkpt><trkpt lat="44.83769522905485" lon="8.733660795285633"><ele>127.71428571428571</ele><time>2026-03-29T16:58:13.998Z</time></trkpt><trkpt lat="44.83775703566669" lon="8.733602306351841"><ele>127.42857142857142</ele><time>2026-03-29T16:58:14.998Z</time></trkpt><trkpt lat="44.837821980386146" lon="8.733553554950735"><ele>127.14285714285714</ele><time>2026-03-29T16:58:15.998Z</time></trkpt><trkpt lat="44.83789247912579" lon="8.733534399485263"><ele>126.85714285714286</ele><time>2026-03-29T16:58:16.998Z</time></trkpt><trkpt lat="44.83795963490923" lon="8.733554960646684"><ele>126.57142857142857</ele><time>2026-03-29T16:58:17.998Z</time></trkpt><trkpt lat="44.838023544615105" lon="8.733613038148041"><ele>126.28571428571428</ele><time>2026-03-29T16:58:18.998Z</time></trkpt><trkpt lat="44.838073998282105" lon="8.733705147505143"><ele>126.0</ele><time>2026-03-29T16:58:19.998Z</time></trkpt><trkpt lat="44.83808756818852" lon="8.733844562902057"><ele>126.0</ele><time>2026-03-29T16:58:21Z</time></trkpt><trkpt lat="44.838126293029504" lon="8.733996418880826"><ele>126.0</ele><time>2026-03-29T16:58:22Z</time></trkpt><trkpt lat="44.83813843981747" lon="8.734183639235255"><ele>126.0</ele><time>2026-03-29T16:58:23Z</time></trkpt><trkpt lat="44.83814735270179" lon="8.73439427420267"><ele>126.0</ele><time>2026-03-29T16:58:24Z</time></trkpt><trkpt lat="44.838144219431506" lon="8.734622538484308"><ele>126.0</ele><time>2026-03-29T16:58:25Z</time></trkpt><trkpt lat="44.83814115820536" lon="8.734841320653956"><ele>126.0</ele><time>2026-03-29T16:58:26Z</time></trkpt><trkpt lat="44.83814606061544" lon="8.735066803883036"><ele>126.0</ele><time>2026-03-29T16:58:27Z</time></trkpt><trkpt lat="44.83816073997019" lon="8.735299635458997"><ele>126.66666666666666</ele><time>2026-03-29T16:58:28Z</time></trkpt><trkpt lat="44.83818579210346" lon="8.735545738582871"><ele>127.33333333333333</ele><time>2026-03-29T16:58:29Z</time></trkpt><trkpt lat="44.83822302205311" lon="8.735796353836173"><ele>128.0</ele><time>2026-03-29T16:58:30Z</time></trkpt><trkpt lat="44.83827593373845" lon="8.73604919635581"><ele>128.0</ele><time>2026-03-29T16:58:31Z</time></trkpt><trkpt lat="44.838346094953046" lon="8.736300045319858"><ele>128.0</ele><time>2026-03-29T16:58:32Z</time></trkpt><trkpt lat="44.83843197482995" lon="8.736551545805526"><ele>128.0</ele><time>2026-03-29T16:58:33Z</time></trkpt><trkpt lat="44.83852679951662" lon="8.736804544075003"><ele>127.33333333333333</ele><time>2026-03-29T16:58:34Z</time></trkpt><trkpt lat="44.8386230360428" lon="8.737060198422217"><ele>126.66666666666666</ele><time>2026-03-29T16:58:35Z</time></trkpt><trkpt lat="44.838717809725246" lon="8.737308805442662"><ele>126.0</ele><time>2026-03-29T16:58:36Z</time></trkpt><trkpt lat="44.83880644289347" lon="8.73754672097651"><ele>126.66666666666666</ele><time>2026-03-29T16:58:37Z</time></trkpt><trkpt lat="44.83888957504723" lon="8.73777245065723"><ele>127.33333333333333</ele><time>2026-03-29T16:58:38Z</time></trkpt><trkpt lat="44.838968468197564" lon="8.737984978499211"><ele>128.0</ele><time>2026-03-29T16:58:39Z</time></trkpt><trkpt lat="44.83904597012262" lon="8.738188610959176"><ele>128.0</ele><time>2026-03-29T16:58:40Z</time></trkpt><trkpt lat="44.839122781663264" lon="8.738391929134757"><ele>128.0</ele><time>2026-03-29T16:58:41Z</time></trkpt><trkpt lat="44.83919896455446" lon="8.738596930337927"><ele>128.0</ele><time>2026-03-29T16:58:42Z</time></trkpt><trkpt lat="44.83927538836141" lon="8.738801067369064"><ele>127.66666666666666</ele><time>2026-03-29T16:58:43Z</time></trkpt><trkpt lat="44.83935286924449" lon="8.739006632608845"><ele>127.33333333333334</ele><time>2026-03-29T16:58:44Z</time></trkpt><trkpt lat="44.839429996877726" lon="8.739214640784779"><ele>127.0</ele><time>2026-03-29T16:58:45Z</time></trkpt><trkpt lat="44.839505192782156" lon="8.739423830685809"><ele>126.33333333333334</ele><time>2026-03-29T16:58:46Z</time></trkpt><trkpt lat="44.839579641329074" lon="8.739631963780457"><ele>125.66666666666666</ele><time>2026-03-29T16:58:47Z</time></trkpt><trkpt lat="44.83965599943455" lon="8.739838244489864"><ele>125.0</ele><time>2026-03-29T16:58:48Z</time></trkpt><trkpt lat="44.83973167201602" lon="8.740042288188562"><ele>125.66666666666666</ele><time>2026-03-29T16:58:49Z</time></trkpt><trkpt lat="44.83980335151891" lon="8.740237159360781"><ele>126.33333333333334</ele><time>2026-03-29T16:58:50Z</time></trkpt><trkpt lat="44.83987499757015" lon="8.740432256025896"><ele>127.0</ele><time>2026-03-29T16:58:51Z</time></trkpt><trkpt lat="44.83994519846208" lon="8.740622485437253"><ele>127.0</ele><time>2026-03-29T16:58:52Z</time></trkpt><trkpt lat="44.84001743972073" lon="8.74081082827874"><ele>127.0</ele><time>2026-03-29T16:58:53Z</time></trkpt><trkpt lat="44.84008918851913" lon="8.740998387109311"><ele>127.0</ele><time>2026-03-29T16:58:54Z</time></trkpt><trkpt lat="44.84015880436365" lon="8.741186343017912"><ele>127.0</ele><time>2026-03-29T16:58:55Z</time></trkpt><trkpt lat="44.84022621820385" lon="8.741371512455506"><ele>127.0</ele><time>2026-03-29T16:58:56Z</time></trkpt><trkpt lat="44.84029279840685" lon="8.741557275681396"><ele>127.0</ele><time>2026-03-29T16:58:57Z</time></trkpt><trkpt lat="44.84035845267683" lon="8.741745465432514"><ele>127.0</ele><time>2026-03-29T16:58:58Z</time></trkpt><trkpt lat="44.84042719899632" lon="8.741934707345964"><ele>127.0</ele><time>2026-03-29T16:58:59Z</time></trkpt><trkpt lat="44.840495855073186" lon="8.742126912257127"><ele>127.0</ele><time>2026-03-29T16:59:00Z</time></trkpt><trkpt lat="44.840567266288964" lon="8.742318813550092"><ele>127.0</ele><time>2026-03-29T16:59:00.999Z</time></trkpt><trkpt lat="44.84064138906538" lon="8.742512258933228"><ele>127.0</ele><time>2026-03-29T16:59:01.999Z</time></trkpt><trkpt lat="44.84071478548725" lon="8.742707743323617"><ele>127.0</ele><time>2026-03-29T16:59:02.999Z</time></trkpt><trkpt lat="44.840785402618444" lon="8.742905654983499"><ele>127.0</ele><time>2026-03-29T16:59:03.999Z</time></trkpt><trkpt lat="44.840857458399476" lon="8.743108836564003"><ele>127.0</ele><time>2026-03-29T16:59:04.999Z</time></trkpt><trkpt lat="44.84092846299325" lon="8.743305378953133"><ele>127.0</ele><time>2026-03-29T16:59:05.999Z</time></trkpt><trkpt lat="44.84100286605986" lon="8.743506382947045"><ele>127.0</ele><time>2026-03-29T16:59:06.999Z</time></trkpt><trkpt lat="44.8410768760856" lon="8.743711060690835"><ele>127.33333333333334</ele><time>2026-03-29T16:59:07.999Z</time></trkpt><trkpt lat="44.8411511616931" lon="8.743913152327524"><ele>127.66666666666666</ele><time>2026-03-29T16:59:08.999Z</time></trkpt><trkpt lat="44.841226882132" lon="8.744121371679963"><ele>128.0</ele><time>2026-03-29T16:59:09.999Z</time></trkpt><trkpt lat="44.84130091828779" lon="8.74433062966678"><ele>128.0</ele><time>2026-03-29T16:59:10.999Z</time></trkpt><trkpt lat="44.841374577862865" lon="8.744538299998778"><ele>128.0</ele><time>2026-03-29T16:59:11.999Z</time></trkpt><trkpt lat="44.84144937787243" lon="8.7447444395797"><ele>128.0</ele><time>2026-03-29T16:59:12.999Z</time></trkpt><trkpt lat="44.84152426834527" lon="8.744947868285138"><ele>128.0</ele><time>2026-03-29T16:59:13.999Z</time></trkpt><trkpt lat="44.8415986517618" lon="8.745149164960576"><ele>128.0</ele><time>2026-03-29T16:59:14.999Z</time></trkpt><trkpt lat="44.841672089402" lon="8.74535465672624"><ele>128.0</ele><time>2026-03-29T16:59:15.999Z</time></trkpt><trkpt lat="44.841744001544946" lon="8.74555941273552"><ele>127.66666666666666</ele><time>2026-03-29T16:59:16.999Z</time></trkpt><trkpt lat="44.84181703884482" lon="8.745764665405622"><ele>127.33333333333334</ele><time>2026-03-29T16:59:17.999Z</time></trkpt><trkpt lat="44.84189320667202" lon="8.745975151948429"><ele>127.0</ele><time>2026-03-29T16:59:18.999Z</time></trkpt><trkpt lat="44.84197092891587" lon="8.746194402950287"><ele>127.0</ele><time>2026-03-29T16:59:19.999Z</time></trkpt><trkpt lat="44.842052066310124" lon="8.74641664209155"><ele>127.0</ele><time>2026-03-29T16:59:20.999Z</time></trkpt><trkpt lat="44.8421342431167" lon="8.746642723060756"><ele>127.0</ele><time>2026-03-29T16:59:21.999Z</time></trkpt><trkpt lat="44.84221860130234" lon="8.746874220382944"><ele>126.66666666666667</ele><time>2026-03-29T16:59:22.999Z</time></trkpt><trkpt lat="44.84230859563331" lon="8.747106704642162"><ele>126.33333333333334</ele><time>2026-03-29T16:59:23.999Z</time></trkpt><trkpt lat="44.84240272599264" lon="8.747339330149558"><ele>126.0</ele><time>2026-03-29T16:59:24.999Z</time></trkpt><trkpt lat="44.84249906070126" lon="8.74756944799073"><ele>126.33333333333334</ele><time>2026-03-29T16:59:25.999Z</time></trkpt><trkpt lat="44.842597102738324" lon="8.747801238147689"><ele>126.66666666666667</ele><time>2026-03-29T16:59:26.999Z</time></trkpt><trkpt lat="44.84269618348582" lon="8.748033875161006"><ele>127.0</ele><time>2026-03-29T16:59:27.999Z</time></trkpt><trkpt lat="44.842791595907414" lon="8.748254177919671"><ele>127.33333333333334</ele><time>2026-03-29T16:59:28.999Z</time></trkpt><trkpt lat="44.84287913322125" lon="8.748463233186477"><ele>127.66666666666666</ele><time>2026-03-29T16:59:29.999Z</time></trkpt><trkpt lat="44.842963920547845" lon="8.74866180956955"><ele>128.0</ele><time>2026-03-29T16:59:30.999Z</time></trkpt><trkpt lat="44.84304753537915" lon="8.748856313980504"><ele>128.0</ele><time>2026-03-29T16:59:31.999Z</time></trkpt><trkpt lat="44.84312966202067" lon="8.749048817363017"><ele>128.0</ele><time>2026-03-29T16:59:32.999Z</time></trkpt><trkpt lat="44.84321067500072" lon="8.74924735129692"><ele>128.0</ele><time>2026-03-29T16:59:33.999Z</time></trkpt><trkpt lat="44.84329165460811" lon="8.749449456613748"><ele>128.0</ele><time>2026-03-29T16:59:34.999Z</time></trkpt><trkpt lat="44.84337635247735" lon="8.749645549522082"><ele>128.0</ele><time>2026-03-29T16:59:35.999Z</time></trkpt><trkpt lat="44.84346269776744" lon="8.749843288538829"><ele>128.0</ele><time>2026-03-29T16:59:36.999Z</time></trkpt><trkpt lat="44.84354731463348" lon="8.750044340310037"><ele>128.0</ele><time>2026-03-29T16:59:37.999Z</time></trkpt><trkpt lat="44.84363194477912" lon="8.750249298201997"><ele>128.0</ele><time>2026-03-29T16:59:38.999Z</time></trkpt><trkpt lat="44.8437159914691" lon="8.750453462705769"><ele>128.0</ele><time>2026-03-29T16:59:39.999Z</time></trkpt><trkpt lat="44.843800222804866" lon="8.75065689257373"><ele>128.0</ele><time>2026-03-29T16:59:40.999Z</time></trkpt><trkpt lat="44.84388333511515" lon="8.750858754078354"><ele>128.0</ele><time>2026-03-29T16:59:41.999Z</time></trkpt><trkpt lat="44.843967970538515" lon="8.751054981115706"><ele>128.0</ele><time>2026-03-29T16:59:42.999Z</time></trkpt><trkpt lat="44.84405279019073" lon="8.75124865789694"><ele>128.25</ele><time>2026-03-29T16:59:43.999Z</time></trkpt><trkpt lat="44.84413522477724" lon="8.751439631144585"><ele>128.5</ele><time>2026-03-29T16:59:44.999Z</time></trkpt><trkpt lat="44.8442104957109" lon="8.751613522210807"><ele>128.75</ele><time>2026-03-29T16:59:45.999Z</time></trkpt><trkpt lat="44.844282851659784" lon="8.751779586816106"><ele>129.0</ele><time>2026-03-29T16:59:46.999Z</time></trkpt><trkpt lat="44.84435313507082" lon="8.751940153191503"><ele>129.0</ele><time>2026-03-29T16:59:47.999Z</time></trkpt><trkpt lat="44.84442079889937" lon="8.752101776857323"><ele>129.0</ele><time>2026-03-29T16:59:48.999Z</time></trkpt><trkpt lat="44.84448693260956" lon="8.752261107534437"><ele>129.0</ele><time>2026-03-29T16:59:49.999Z</time></trkpt><trkpt lat="44.844553483701475" lon="8.75241669448394"><ele>129.0</ele><time>2026-03-29T16:59:50.999Z</time></trkpt><trkpt lat="44.844618361143915" lon="8.752567590678463"><ele>129.5</ele><time>2026-03-29T16:59:51.999Z</time></trkpt><trkpt lat="44.84467771675962" lon="8.75271042518992"><ele>130.0</ele><time>2026-03-29T16:59:52.999Z</time></trkpt><trkpt lat="44.84473519945448" lon="8.752850132566882"><ele>130.5</ele><time>2026-03-29T16:59:53.999Z</time></trkpt><trkpt lat="44.84479259451465" lon="8.752987055302235"><ele>131.0</ele><time>2026-03-29T16:59:54.999Z</time></trkpt><trkpt lat="44.84485137887863" lon="8.753124162751421"><ele>131.0</ele><time>2026-03-29T16:59:55.999Z</time></trkpt><trkpt lat="44.84490877304488" lon="8.753262055834668"><ele>131.0</ele><time>2026-03-29T16:59:56.999Z</time></trkpt><trkpt lat="44.84496464528405" lon="8.753405725815618"><ele>131.0</ele><time>2026-03-29T16:59:57.999Z</time></trkpt><trkpt lat="44.84501974257487" lon="8.753546282547177"><ele>131.0</ele><time>2026-03-29T16:59:58.999Z</time></trkpt><trkpt lat="44.84508469787687" lon="8.75367328338042"><ele>130.75</ele><time>2026-03-29T16:59:59.999Z</time></trkpt><trkpt lat="44.84513724550677" lon="8.753832026340495"><ele>130.5</ele><time>2026-03-29T17:00:00.999Z</time></trkpt><trkpt lat="44.845194474404025" lon="8.753965113869825"><ele>130.25</ele><time>2026-03-29T17:00:01.999Z</time></trkpt><trkpt lat="44.8452537217607" lon="8.754107137913392"><ele>130.0</ele><time>2026-03-29T17:00:02.999Z</time></trkpt><trkpt lat="44.84530742062808" lon="8.75424775964412"><ele>130.0</ele><time>2026-03-29T17:00:03.999Z</time></trkpt><trkpt lat="44.84536540326127" lon="8.754382401111421"><ele>130.0</ele><time>2026-03-29T17:00:04.999Z</time></trkpt><trkpt lat="44.84542273517365" lon="8.754515677585385"><ele>130.0</ele><time>2026-03-29T17:00:05.999Z</time></trkpt><trkpt lat="44.84547839813194" lon="8.754647289712763"><ele>130.0</ele><time>2026-03-29T17:00:06.999Z</time></trkpt><trkpt lat="44.84553282171131" lon="8.754777812721429"><ele>130.0</ele><time>2026-03-29T17:00:07.999Z</time></trkpt><trkpt lat="44.84559266297595" lon="8.754906009367748"><ele>130.0</ele><time>2026-03-29T17:00:08.999Z</time></trkpt><trkpt lat="44.84563287672613" lon="8.755048579978512"><ele>130.0</ele><time>2026-03-29T17:00:09.999Z</time></trkpt><trkpt lat="44.84568747026204" lon="8.755178622166527"><ele>130.0</ele><time>2026-03-29T17:00:10.999Z</time></trkpt><trkpt lat="44.84575332566775" lon="8.755304972843343"><ele>130.0</ele><time>2026-03-29T17:00:11.999Z</time></trkpt><trkpt lat="44.84580872774504" lon="8.755432224119684"><ele>130.0</ele><time>2026-03-29T17:00:12.999Z</time></trkpt><trkpt lat="44.84586013788504" lon="8.755551378361993"><ele>130.0</ele><time>2026-03-29T17:00:13.999Z</time></trkpt><trkpt lat="44.84590958567129" lon="8.75566452507218"><ele>130.0</ele><time>2026-03-29T17:00:14.999Z</time></trkpt><trkpt lat="44.845960892980145" lon="8.75577474032146"><ele>130.0</ele><time>2026-03-29T17:00:15.999Z</time></trkpt><trkpt lat="44.846014925134426" lon="8.75588837928001"><ele>130.0</ele><time>2026-03-29T17:00:16.999Z</time></trkpt><trkpt lat="44.846069095942546" lon="8.756010697006431"><ele>130.0</ele><time>2026-03-29T17:00:17.999Z</time></trkpt><trkpt lat="44.84612635385425" lon="8.756135344001553"><ele>130.6</ele><time>2026-03-29T17:00:18.999Z</time></trkpt><trkpt lat="44.84618318876631" lon="8.756266235580487"><ele>131.2</ele><time>2026-03-29T17:00:19.998Z</time></trkpt><trkpt lat="44.84623747462205" lon="8.756394582431888"><ele>131.8</ele><time>2026-03-29T17:00:20.998Z</time></trkpt><trkpt lat="44.84629164812384" lon="8.756511190083982"><ele>132.4</ele><time>2026-03-29T17:00:21.998Z</time></trkpt><trkpt lat="44.84634009978872" lon="8.756622483523637"><ele>133.0</ele><time>2026-03-29T17:00:22.998Z</time></trkpt><trkpt lat="44.846384359303734" lon="8.756728699835364"><ele>133.0</ele><time>2026-03-29T17:00:23.998Z</time></trkpt><trkpt lat="44.84642690166145" lon="8.756828827055571"><ele>133.0</ele><time>2026-03-29T17:00:24.998Z</time></trkpt><trkpt lat="44.846470692091415" lon="8.756932094869041"><ele>133.0</ele><time>2026-03-29T17:00:26Z</time></trkpt><trkpt lat="44.84650460529403" lon="8.757043069942938"><ele>133.0</ele><time>2026-03-29T17:00:27Z</time></trkpt><trkpt lat="44.84654790924541" lon="8.75714309298655"><ele>133.0</ele><time>2026-03-29T17:00:28Z</time></trkpt><trkpt lat="44.84660238847813" lon="8.757227123667148"><ele>133.0</ele><time>2026-03-29T17:00:29Z</time></trkpt><trkpt lat="44.84662783466321" lon="8.75732431385632"><ele>132.5</ele><time>2026-03-29T17:00:30Z</time></trkpt><trkpt lat="44.846708061729025" lon="8.757450690789346"><ele>132.0</ele><time>2026-03-29T17:00:32Z</time></trkpt><trkpt lat="44.84684172221291" lon="8.757462186561265"><ele>131.5</ele><time>2026-03-29T17:00:34Z</time></trkpt><trkpt lat="44.84693172889015" lon="8.757409440474351"><ele>131.0</ele><time>2026-03-29T17:00:35Z</time></trkpt><trkpt lat="44.84703642308981" lon="8.757355040283356"><ele>130.75</ele><time>2026-03-29T17:00:36Z</time></trkpt><trkpt lat="44.84716394978267" lon="8.757314506339103"><ele>130.5</ele><time>2026-03-29T17:00:37Z</time></trkpt><trkpt lat="44.84730048571815" lon="8.757246590292729"><ele>130.25</ele><time>2026-03-29T17:00:38Z</time></trkpt><trkpt lat="44.84745152247706" lon="8.757172756747496"><ele>130.0</ele><time>2026-03-29T17:00:39Z</time></trkpt><trkpt lat="44.847602323382574" lon="8.757099038546409"><ele>129.66666666666669</ele><time>2026-03-29T17:00:40Z</time></trkpt><trkpt lat="44.84775658956126" lon="8.75702345519755"><ele>129.33333333333334</ele><time>2026-03-29T17:00:41Z</time></trkpt><trkpt lat="44.847924458415804" lon="8.756939030819224"><ele>129.0</ele><time>2026-03-29T17:00:42Z</time></trkpt><trkpt lat="44.848102124043955" lon="8.756849807360714"><ele>129.0</ele><time>2026-03-29T17:00:43Z</time></trkpt><trkpt lat="44.84828863426329" lon="8.756753829522383"><ele>129.0</ele><time>2026-03-29T17:00:44Z</time></trkpt><trkpt lat="44.84847341168664" lon="8.756653557917703"><ele>129.0</ele><time>2026-03-29T17:00:45Z</time></trkpt><trkpt lat="44.84865315125679" lon="8.756545882313098"><ele>129.0</ele><time>2026-03-29T17:00:46Z</time></trkpt><trkpt lat="44.84883214072179" lon="8.756431441785313"><ele>129.0</ele><time>2026-03-29T17:00:47Z</time></trkpt><trkpt lat="44.84900694804728" lon="8.756312424029934"><ele>129.0</ele><time>2026-03-29T17:00:48Z</time></trkpt><trkpt lat="44.84918384521469" lon="8.756192691982873"><ele>128.33333333333334</ele><time>2026-03-29T17:00:49Z</time></trkpt><trkpt lat="44.84936374955197" lon="8.756071663148592"><ele>127.66666666666667</ele><time>2026-03-29T17:00:50Z</time></trkpt><trkpt lat="44.849545374668466" lon="8.755947513104235"><ele>127.0</ele><time>2026-03-29T17:00:51Z</time></trkpt><trkpt lat="44.84973236515913" lon="8.755826262694688"><ele>126.66666666666667</ele><time>2026-03-29T17:00:52Z</time></trkpt><trkpt lat="44.8499165434077" lon="8.755703299140817"><ele>126.33333333333334</ele><time>2026-03-29T17:00:53Z</time></trkpt><trkpt lat="44.85010477024927" lon="8.75560358938321"><ele>126.0</ele><time>2026-03-29T17:00:54Z</time></trkpt><trkpt lat="44.85030105355727" lon="8.755523268396896"><ele>125.66666666666666</ele><time>2026-03-29T17:00:55Z</time></trkpt><trkpt lat="44.85050417387853" lon="8.755458956101835"><ele>125.33333333333333</ele><time>2026-03-29T17:00:56Z</time></trkpt><trkpt lat="44.85070421168077" lon="8.755394854407553"><ele>125.0</ele><time>2026-03-29T17:00:57Z</time></trkpt><trkpt lat="44.850903361121105" lon="8.755307235268626"><ele>124.66666666666666</ele><time>2026-03-29T17:00:58Z</time></trkpt><trkpt lat="44.85109887334321" lon="8.755189951754568"><ele>124.33333333333334</ele><time>2026-03-29T17:00:59Z</time></trkpt><trkpt lat="44.85129172695658" lon="8.755044301647917"><ele>124.0</ele><time>2026-03-29T17:01:00Z</time></trkpt><trkpt lat="44.85147818155283" lon="8.754876630511767"><ele>124.0</ele><time>2026-03-29T17:01:01Z</time></trkpt><trkpt lat="44.851665979931404" lon="8.754700996547681"><ele>124.0</ele><time>2026-03-29T17:01:02Z</time></trkpt><trkpt lat="44.85185352469666" lon="8.754519763732835"><ele>125.0</ele><time>2026-03-29T17:01:02.999Z</time></trkpt><trkpt lat="44.85205383817737" lon="8.75435144274212"><ele>126.0</ele><time>2026-03-29T17:01:03.999Z</time></trkpt><trkpt lat="44.85226785195912" lon="8.75421413222485"><ele>126.0</ele><time>2026-03-29T17:01:04.999Z</time></trkpt><trkpt lat="44.85249205918227" lon="8.754089341159794"><ele>126.0</ele><time>2026-03-29T17:01:05.999Z</time></trkpt><trkpt lat="44.852718300838724" lon="8.753965246096863"><ele>124.5</ele><time>2026-03-29T17:01:06.999Z</time></trkpt><trkpt lat="44.85294658398783" lon="8.753838744637358"><ele>123.0</ele><time>2026-03-29T17:01:07.999Z</time></trkpt><trkpt lat="44.85317645306602" lon="8.753711362573043"><ele>123.0</ele><time>2026-03-29T17:01:08.999Z</time></trkpt><trkpt lat="44.85340323782313" lon="8.75358593777124"><ele>123.0</ele><time>2026-03-29T17:01:09.999Z</time></trkpt><trkpt lat="44.8536260427522" lon="8.75346465557162"><ele>123.5</ele><time>2026-03-29T17:01:10.999Z</time></trkpt><trkpt lat="44.85384377528641" lon="8.75334613443503"><ele>124.0</ele><time>2026-03-29T17:01:11.999Z</time></trkpt><trkpt lat="44.854055332555426" lon="8.753230975065003"><ele>124.0</ele><time>2026-03-29T17:01:12.999Z</time></trkpt><trkpt lat="44.85426096943351" lon="8.75311865732575"><ele>124.0</ele><time>2026-03-29T17:01:13.999Z</time></trkpt><trkpt lat="44.85446273593988" lon="8.753007493326328"><ele>124.0</ele><time>2026-03-29T17:01:14.999Z</time></trkpt><trkpt lat="44.85466519460321" lon="8.752895948069279"><ele>124.0</ele><time>2026-03-29T17:01:15.999Z</time></trkpt><trkpt lat="44.85486683012697" lon="8.752783506465844"><ele>124.0</ele><time>2026-03-29T17:01:16.999Z</time></trkpt><trkpt lat="44.85506714757115" lon="8.752669729474546"><ele>124.0</ele><time>2026-03-29T17:01:17.999Z</time></trkpt><trkpt lat="44.85526678654473" lon="8.752559795050509"><ele>123.66666666666667</ele><time>2026-03-29T17:01:18.999Z</time></trkpt><trkpt lat="44.85545448619159" lon="8.752458086099594"><ele>123.33333333333334</ele><time>2026-03-29T17:01:19.999Z</time></trkpt><trkpt lat="44.85563289289776" lon="8.752361412566037"><ele>123.0</ele><time>2026-03-29T17:01:20.999Z</time></trkpt><trkpt lat="44.85579715126126" lon="8.752272405745366"><ele>123.0</ele><time>2026-03-29T17:01:21.999Z</time></trkpt><trkpt lat="44.85594911636532" lon="8.752189241699693"><ele>123.0</ele><time>2026-03-29T17:01:22.999Z</time></trkpt><trkpt lat="44.856090732394776" lon="8.752108192208143"><ele>123.0</ele><time>2026-03-29T17:01:23.999Z</time></trkpt><trkpt lat="44.856223194455595" lon="8.752025333709883"><ele>123.0</ele><time>2026-03-29T17:01:24.999Z</time></trkpt><trkpt lat="44.85634129802906" lon="8.751946063891712"><ele>123.0</ele><time>2026-03-29T17:01:25.999Z</time></trkpt><trkpt lat="44.85644373493469" lon="8.751863671409522"><ele>123.0</ele><time>2026-03-29T17:01:26.999Z</time></trkpt><trkpt lat="44.8565269897315" lon="8.75177220759461"><ele>123.0</ele><time>2026-03-29T17:01:27.999Z</time></trkpt><trkpt lat="44.85659482052052" lon="8.751675905149161"><ele>123.0</ele><time>2026-03-29T17:01:28.999Z</time></trkpt><trkpt lat="44.85664629347048" lon="8.751585761851041"><ele>123.0</ele><time>2026-03-29T17:01:29.999Z</time></trkpt><trkpt lat="44.856670024468045" lon="8.751499797904591"><ele>123.0</ele><time>2026-03-29T17:01:30.999Z</time></trkpt><trkpt lat="44.85670594665052" lon="8.75142309031711"><ele>123.0</ele><time>2026-03-29T17:01:31.999Z</time></trkpt><trkpt lat="44.85674924842209" lon="8.751330114350468"><ele>123.0</ele><time>2026-03-29T17:01:32.999Z</time></trkpt><trkpt lat="44.856765344635754" lon="8.751196858453971"><ele>123.0</ele><time>2026-03-29T17:01:33.999Z</time></trkpt><trkpt lat="44.85678696642984" lon="8.751052319383028"><ele>122.83333333333333</ele><time>2026-03-29T17:01:34.999Z</time></trkpt><trkpt lat="44.85680606449257" lon="8.75091818197123"><ele>122.66666666666666</ele><time>2026-03-29T17:01:35.999Z</time></trkpt><trkpt lat="44.85681453701181" lon="8.750805738551884"><ele>122.5</ele><time>2026-03-29T17:01:36.999Z</time></trkpt><trkpt lat="44.856828365723345" lon="8.750709296855907"><ele>122.33333333333333</ele><time>2026-03-29T17:01:37.999Z</time></trkpt><trkpt lat="44.85684634253369" lon="8.750564316334213"><ele>122.16666666666666</ele><time>2026-03-29T17:01:39.999Z</time></trkpt><trkpt lat="44.856852614356846" lon="8.750474651202047"><ele>122.0</ele><time>2026-03-29T17:05:49.999Z</time></trkpt><trkpt lat="44.85689915139163" lon="8.750392549987506"><ele>121.99999999999999</ele><time>2026-03-29T17:05:51.999Z</time></trkpt><trkpt lat="44.857001958142845" lon="8.750403389476169"><ele>122.0</ele><time>2026-03-29T17:05:52.999Z</time></trkpt><trkpt lat="44.857066775836564" lon="8.750438185215204"><ele>122.0</ele><time>2026-03-29T17:05:53.999Z</time></trkpt><trkpt lat="44.85713968787785" lon="8.750457558714016"><ele>122.0</ele><time>2026-03-29T17:05:54.999Z</time></trkpt><trkpt lat="44.857217849306394" lon="8.750478327025398"><ele>121.99999999999999</ele><time>2026-03-29T17:05:55.999Z</time></trkpt><trkpt lat="44.8572990912808" lon="8.750500527427944"><ele>122.0</ele><time>2026-03-29T17:05:56.999Z</time></trkpt><trkpt lat="44.857375408436766" lon="8.75052264793352"><ele>121.99999999999999</ele><time>2026-03-29T17:05:57.999Z</time></trkpt><trkpt lat="44.85745475718539" lon="8.750545647150476"><ele>122.0</ele><time>2026-03-29T17:05:58.999Z</time></trkpt><trkpt lat="44.857534981213966" lon="8.750568900071812"><ele>122.0</ele><time>2026-03-29T17:05:59.999Z</time></trkpt><trkpt lat="44.85761468535639" lon="8.750590323992625"><ele>122.0</ele><time>2026-03-29T17:06:00.999Z</time></trkpt><trkpt lat="44.85769491275638" lon="8.750611600963358"><ele>121.99999999999999</ele><time>2026-03-29T17:06:01.999Z</time></trkpt><trkpt lat="44.85777727293473" lon="8.750633445473627"><ele>122.0</ele><time>2026-03-29T17:06:02.999Z</time></trkpt><trkpt lat="44.85786163528402" lon="8.750655819069902"><ele>121.99999999999999</ele><time>2026-03-29T17:06:03.999Z</time></trkpt><trkpt lat="44.85794700201703" lon="8.750681403322538"><ele>122.0</ele><time>2026-03-29T17:06:04.999Z</time></trkpt><trkpt lat="44.85803418836271" lon="8.7507083667668"><ele>122.0</ele><time>2026-03-29T17:06:05.999Z</time></trkpt><trkpt lat="44.85812315281023" lon="8.75073424653244"><ele>122.0</ele><time>2026-03-29T17:06:06.999Z</time></trkpt><trkpt lat="44.85821267103933" lon="8.750735736771455"><ele>121.99999999999999</ele><time>2026-03-29T17:06:07.999Z</time></trkpt><trkpt lat="44.85829867509563" lon="8.750780064561019"><ele>122.0</ele><time>2026-03-29T17:06:08.999Z</time></trkpt><trkpt lat="44.858390804763886" lon="8.750792629314937"><ele>122.0</ele><time>2026-03-29T17:06:09.999Z</time></trkpt><trkpt lat="44.85848343772106" lon="8.750792335848857"><ele>121.99999999999999</ele><time>2026-03-29T17:06:10.999Z</time></trkpt><trkpt lat="44.858575086029795" lon="8.75075889771029"><ele>121.99999999999999</ele><time>2026-03-29T17:06:11.999Z</time></trkpt><trkpt lat="44.85866720342093" lon="8.7507339857912"><ele>122.0</ele><time>2026-03-29T17:06:12.999Z</time></trkpt><trkpt lat="44.85876595943494" lon="8.750723876540263"><ele>122.0</ele><time>2026-03-29T17:06:13.999Z</time></trkpt><trkpt lat="44.85885817455487" lon="8.750693619615433"><ele>122.0</ele><time>2026-03-29T17:06:14.999Z</time></trkpt><trkpt lat="44.85895390208893" lon="8.75066689028203"><ele>121.99999999999999</ele><time>2026-03-29T17:06:15.999Z</time></trkpt><trkpt lat="44.859049284348714" lon="8.75064098396293"><ele>121.99999999999999</ele><time>2026-03-29T17:06:16.999Z</time></trkpt><trkpt lat="44.85914625871402" lon="8.750612670559105"><ele>122.0</ele><time>2026-03-29T17:06:17.999Z</time></trkpt><trkpt lat="44.85924342784831" lon="8.750580511885476"><ele>122.0</ele><time>2026-03-29T17:06:18.999Z</time></trkpt><trkpt lat="44.85934077395294" lon="8.750543002137519"><ele>122.19999999999999</ele><time>2026-03-29T17:06:19.999Z</time></trkpt><trkpt lat="44.85943624295616" lon="8.750504892924114"><ele>122.39999999999999</ele><time>2026-03-29T17:06:20.999Z</time></trkpt><trkpt lat="44.85953005919149" lon="8.750467051947943"><ele>122.60000000000001</ele><time>2026-03-29T17:06:21.999Z</time></trkpt><trkpt lat="44.859624465402895" lon="8.750426849440379"><ele>122.80000000000001</ele><time>2026-03-29T17:06:22.999Z</time></trkpt><trkpt lat="44.85971822269064" lon="8.750383436249166"><ele>123.0</ele><time>2026-03-29T17:06:23.999Z</time></trkpt><trkpt lat="44.85980756176324" lon="8.750342068771205"><ele>123.0</ele><time>2026-03-29T17:06:24.999Z</time></trkpt><trkpt lat="44.85989636542586" lon="8.750301981503895"><ele>123.00000000000001</ele><time>2026-03-29T17:06:25.999Z</time></trkpt><trkpt lat="44.85998667877833" lon="8.75026314806972"><ele>123.00000000000001</ele><time>2026-03-29T17:06:26.999Z</time></trkpt><trkpt lat="44.860075339388224" lon="8.75022502519587"><ele>123.0</ele><time>2026-03-29T17:06:27.999Z</time></trkpt><trkpt lat="44.860162818534526" lon="8.750182566500419"><ele>123.0</ele><time>2026-03-29T17:06:28.999Z</time></trkpt><trkpt lat="44.86024764546868" lon="8.75013974413816"><ele>122.80000000000001</ele><time>2026-03-29T17:06:29.999Z</time></trkpt><trkpt lat="44.86033375145447" lon="8.75009402698406"><ele>122.60000000000001</ele><time>2026-03-29T17:06:30.999Z</time></trkpt><trkpt lat="44.86042375652284" lon="8.750044307362652"><ele>122.39999999999999</ele><time>2026-03-29T17:06:31.999Z</time></trkpt><trkpt lat="44.86051353737348" lon="8.749989934448179"><ele>122.19999999999999</ele><time>2026-03-29T17:06:32.998Z</time></trkpt><trkpt lat="44.86060127593912" lon="8.749936924955406"><ele>122.0</ele><time>2026-03-29T17:06:33.998Z</time></trkpt><trkpt lat="44.860683928644114" lon="8.74988749863436"><ele>121.99999999999999</ele><time>2026-03-29T17:06:34.998Z</time></trkpt><trkpt lat="44.860764095402985" lon="8.749841143141213"><ele>122.0</ele><time>2026-03-29T17:06:35.998Z</time></trkpt><trkpt lat="44.86084310949439" lon="8.749798567411721"><ele>122.0</ele><time>2026-03-29T17:06:36.998Z</time></trkpt><trkpt lat="44.86091768675514" lon="8.749758858618936"><ele>122.0</ele><time>2026-03-29T17:06:37.998Z</time></trkpt><trkpt lat="44.860986469140876" lon="8.749722737765902"><ele>121.99999999999999</ele><time>2026-03-29T17:06:38.998Z</time></trkpt><trkpt lat="44.86104708116274" lon="8.749691138304797"><ele>122.0</ele><time>2026-03-29T17:06:39.998Z</time></trkpt><trkpt lat="44.86111232950305" lon="8.749657121607004"><ele>121.99999999999999</ele><time>2026-03-29T17:06:43Z</time></trkpt><trkpt lat="44.86105638754067" lon="8.749497571335803"><ele>122.0</ele><time>2026-03-29T17:06:46Z</time></trkpt><trkpt lat="44.86096934665394" lon="8.749476554159962"><ele>122.0</ele><time>2026-03-29T17:06:48Z</time></trkpt><trkpt lat="44.860897949582224" lon="8.749467737740911"><ele>122.0</ele><time>2026-03-29T17:06:50Z</time></trkpt><trkpt lat="44.86083276697675" lon="8.749423188590715"><ele>121.99999999999999</ele><time>2026-03-29T17:06:52Z</time></trkpt><trkpt lat="44.86076173964326" lon="8.749401357162743"><ele>122.0</ele><time>2026-03-29T17:06:54Z</time></trkpt><trkpt lat="44.860696415307196" lon="8.749381384979758"><ele>122.0</ele><time>2026-03-29T17:06:56Z</time></trkpt><trkpt lat="44.86062951950291" lon="8.749360932360052"><ele>122.0</ele><time>2026-03-29T17:06:58Z</time></trkpt><trkpt lat="44.86055597604263" lon="8.749338447242447"><ele>122.0</ele><time>2026-03-29T17:07:01Z</time></trkpt></trkseg></trk></gpx>